﻿<?xml version="1.0" encoding="utf-8"?><gpx creator="Garmin Desktop App" version="1.1" xsi:schemaLocation="http://www.topografix.com/GPX/1/1 http://www.topografix.com/GPX/1/1/gpx.xsd http://www.garmin.com/xmlschemas/WaypointExtension/v1 http://www8.garmin.com/xmlschemas/WaypointExtensionv1.xsd http://www.garmin.com/xmlschemas/TrackPointExtension/v1 http://www.garmin.com/xmlschemas/TrackPointExtensionv1.xsd http://www.garmin.com/xmlschemas/GpxExtensions/v3 http://www8.garmin.com/xmlschemas/GpxExtensionsv3.xsd http://www.garmin.com/xmlschemas/ActivityExtension/v1 http://www8.garmin.com/xmlschemas/ActivityExtensionv1.xsd http://www.garmin.com/xmlschemas/AdventuresExtensions/v1 http://www8.garmin.com/xmlschemas/AdventuresExtensionv1.xsd http://www.garmin.com/xmlschemas/PressureExtension/v1 http://www.garmin.com/xmlschemas/PressureExtensionv1.xsd http://www.garmin.com/xmlschemas/TripExtensions/v1 http://www.garmin.com/xmlschemas/TripExtensionsv1.xsd http://www.garmin.com/xmlschemas/TripMetaDataExtensions/v1 http://www.garmin.com/xmlschemas/TripMetaDataExtensionsv1.xsd http://www.garmin.com/xmlschemas/ViaPointTransportationModeExtensions/v1 http://www.garmin.com/xmlschemas/ViaPointTransportationModeExtensionsv1.xsd http://www.garmin.com/xmlschemas/CreationTimeExtension/v1 http://www.garmin.com/xmlschemas/CreationTimeExtensionsv1.xsd http://www.garmin.com/xmlschemas/AccelerationExtension/v1 http://www.garmin.com/xmlschemas/AccelerationExtensionv1.xsd http://www.garmin.com/xmlschemas/PowerExtension/v1 http://www.garmin.com/xmlschemas/PowerExtensionv1.xsd http://www.garmin.com/xmlschemas/VideoExtension/v1 http://www.garmin.com/xmlschemas/VideoExtensionv1.xsd" xmlns="http://www.topografix.com/GPX/1/1" xmlns:xsi="http://www.w3.org/2001/XMLSchema-instance" xmlns:wptx1="http://www.garmin.com/xmlschemas/WaypointExtension/v1" xmlns:gpxtrx="http://www.garmin.com/xmlschemas/GpxExtensions/v3" xmlns:gpxtpx="http://www.garmin.com/xmlschemas/TrackPointExtension/v1" xmlns:gpxx="http://www.garmin.com/xmlschemas/GpxExtensions/v3" xmlns:trp="http://www.garmin.com/xmlschemas/TripExtensions/v1" xmlns:adv="http://www.garmin.com/xmlschemas/AdventuresExtensions/v1" xmlns:prs="http://www.garmin.com/xmlschemas/PressureExtension/v1" xmlns:tmd="http://www.garmin.com/xmlschemas/TripMetaDataExtensions/v1" xmlns:vptm="http://www.garmin.com/xmlschemas/ViaPointTransportationModeExtensions/v1" xmlns:ctx="http://www.garmin.com/xmlschemas/CreationTimeExtension/v1" xmlns:gpxacc="http://www.garmin.com/xmlschemas/AccelerationExtension/v1" xmlns:gpxpx="http://www.garmin.com/xmlschemas/PowerExtension/v1" xmlns:vidx1="http://www.garmin.com/xmlschemas/VideoExtension/v1">

  <metadata>
    <link href="http://www.garmin.com">
      <text>Garmin International</text>
    </link>
    <time>2026-07-11T17:10:20Z</time>
    <bounds maxlat="52.781000006943941" maxlon="-1.778669022023678" minlat="51.171612991020083" minlon="-3.373808981850743" />
  </metadata>

  <trk>
    <name>260711_Llanymynech_Amesbury_Track</name>
    <extensions>
      <gpxx:TrackExtension>
        <gpxx:DisplayColor>DarkGray</gpxx:DisplayColor>
      </gpxx:TrackExtension>
    </extensions>
    <trkseg>
      <trkpt lat="52.780899005010724" lon="-3.08798298239708">
        <ele>79.450000000000003</ele>
        <time>2026-07-11T07:29:39Z</time>
      </trkpt>
      <trkpt lat="52.780884001404047" lon="-3.087988011538982">
        <ele>81.370000000000005</ele>
        <time>2026-07-11T07:30:34Z</time>
      </trkpt>
      <trkpt lat="52.780886013060808" lon="-3.087985999882221">
        <ele>80.409999999999997</ele>
        <time>2026-07-11T07:31:34Z</time>
      </trkpt>
      <trkpt lat="52.78088903054595" lon="-3.087989017367363">
        <ele>80.409999999999997</ele>
        <time>2026-07-11T07:32:27Z</time>
      </trkpt>
      <trkpt lat="52.78088903054595" lon="-3.087989017367363">
        <ele>80.409999999999997</ele>
        <time>2026-07-11T07:32:36Z</time>
      </trkpt>
      <trkpt lat="52.78097502887249" lon="-3.087980970740318">
        <ele>80.409999999999997</ele>
        <time>2026-07-11T07:32:38Z</time>
      </trkpt>
      <trkpt lat="52.7809779625386" lon="-3.088022964075208">
        <ele>80.409999999999997</ele>
        <time>2026-07-11T07:32:39Z</time>
      </trkpt>
      <trkpt lat="52.780981985852122" lon="-3.088059006258845">
        <ele>80.409999999999997</ele>
        <time>2026-07-11T07:32:40Z</time>
      </trkpt>
      <trkpt lat="52.780985003337264" lon="-3.088149027898908">
        <ele>79.930000000000007</ele>
        <time>2026-07-11T07:32:41Z</time>
      </trkpt>
      <trkpt lat="52.780987014994025" lon="-3.088220022618771">
        <ele>79.930000000000007</ele>
        <time>2026-07-11T07:32:42Z</time>
      </trkpt>
      <trkpt lat="52.780996989458799" lon="-3.088506013154984">
        <ele>78.969999999999999</ele>
        <time>2026-07-11T07:32:46Z</time>
      </trkpt>
      <trkpt lat="52.780999001115561" lon="-3.088559992611408">
        <ele>78.480000000000004</ele>
        <time>2026-07-11T07:32:47Z</time>
      </trkpt>
      <trkpt lat="52.781000006943941" lon="-3.088588993996382">
        <ele>78</ele>
        <time>2026-07-11T07:32:48Z</time>
      </trkpt>
      <trkpt lat="52.781000006943941" lon="-3.088588993996382">
        <ele>77.519999999999996</ele>
        <time>2026-07-11T07:33:00Z</time>
      </trkpt>
      <trkpt lat="52.780930018052459" lon="-3.088650014251471">
        <ele>77.040000000000006</ele>
        <time>2026-07-11T07:33:13Z</time>
      </trkpt>
      <trkpt lat="52.780886013060808" lon="-3.088630987331271">
        <ele>77.040000000000006</ele>
        <time>2026-07-11T07:33:14Z</time>
      </trkpt>
      <trkpt lat="52.7808259986341" lon="-3.088603997603059">
        <ele>77.040000000000006</ele>
        <time>2026-07-11T07:33:15Z</time>
      </trkpt>
      <trkpt lat="52.779965009540319" lon="-3.088226979598403">
        <ele>76.079999999999998</ele>
        <time>2026-07-11T07:33:25Z</time>
      </trkpt>
      <trkpt lat="52.778760027140379" lon="-3.087791036814451">
        <ele>70.790000000000006</ele>
        <time>2026-07-11T07:33:36Z</time>
      </trkpt>
      <trkpt lat="52.778302961960435" lon="-3.087641000747681">
        <ele>70.310000000000002</ele>
        <time>2026-07-11T07:33:40Z</time>
      </trkpt>
      <trkpt lat="52.777197975665331" lon="-3.086996013298631">
        <ele>70.310000000000002</ele>
        <time>2026-07-11T07:33:50Z</time>
      </trkpt>
      <trkpt lat="52.777102002874017" lon="-3.086871961131692">
        <ele>70.310000000000002</ele>
        <time>2026-07-11T07:33:51Z</time>
      </trkpt>
      <trkpt lat="52.776117967441678" lon="-3.085457012057304">
        <ele>69.829999999999998</ele>
        <time>2026-07-11T07:34:01Z</time>
      </trkpt>
      <trkpt lat="52.775984024628997" lon="-3.085357015952468">
        <ele>69.829999999999998</ele>
        <time>2026-07-11T07:34:02Z</time>
      </trkpt>
      <trkpt lat="52.775836000218987" lon="-3.085268000140786">
        <ele>69.829999999999998</ele>
        <time>2026-07-11T07:34:03Z</time>
      </trkpt>
      <trkpt lat="52.775682024657726" lon="-3.085175966843963">
        <ele>69.829999999999998</ele>
        <time>2026-07-11T07:34:04Z</time>
      </trkpt>
      <trkpt lat="52.775200987234712" lon="-3.084987038746476">
        <ele>69.349999999999994</ele>
        <time>2026-07-11T07:34:07Z</time>
      </trkpt>
      <trkpt lat="52.775011975318193" lon="-3.084977986291051">
        <ele>68.870000000000005</ele>
        <time>2026-07-11T07:34:08Z</time>
      </trkpt>
      <trkpt lat="52.773774974048138" lon="-3.085073959082365">
        <ele>68.390000000000001</ele>
        <time>2026-07-11T07:34:13Z</time>
      </trkpt>
      <trkpt lat="52.772242007777095" lon="-3.085217960178852">
        <ele>67.430000000000007</ele>
        <time>2026-07-11T07:34:19Z</time>
      </trkpt>
      <trkpt lat="52.770422967150807" lon="-3.085206979885697">
        <ele>67.430000000000007</ele>
        <time>2026-07-11T07:34:28Z</time>
      </trkpt>
      <trkpt lat="52.768563022837043" lon="-3.085344024002552">
        <ele>71.269999999999996</ele>
        <time>2026-07-11T07:34:37Z</time>
      </trkpt>
      <trkpt lat="52.766289012506604" lon="-3.085321979597211">
        <ele>72.239999999999995</ele>
        <time>2026-07-11T07:34:47Z</time>
      </trkpt>
      <trkpt lat="52.764164032414556" lon="-3.085628002882004">
        <ele>76.560000000000002</ele>
        <time>2026-07-11T07:34:57Z</time>
      </trkpt>
      <trkpt lat="52.76245797984302" lon="-3.085907958447933">
        <ele>76.560000000000002</ele>
        <time>2026-07-11T07:35:05Z</time>
      </trkpt>
      <trkpt lat="52.760827029123902" lon="-3.086131000891328">
        <ele>74.640000000000001</ele>
        <time>2026-07-11T07:35:12Z</time>
      </trkpt>
      <trkpt lat="52.759324992075562" lon="-3.086250023916364">
        <ele>73.200000000000003</ele>
        <time>2026-07-11T07:35:20Z</time>
      </trkpt>
      <trkpt lat="52.758704982697964" lon="-3.086239965632558">
        <ele>72.239999999999995</ele>
        <time>2026-07-11T07:35:25Z</time>
      </trkpt>
      <trkpt lat="52.758404994383454" lon="-3.086236026138067">
        <ele>72.239999999999995</ele>
        <time>2026-07-11T07:35:29Z</time>
      </trkpt>
      <trkpt lat="52.758332993835211" lon="-3.086210964247584">
        <ele>72.239999999999995</ele>
        <time>2026-07-11T07:35:30Z</time>
      </trkpt>
      <trkpt lat="52.758277002722025" lon="-3.086185986176133">
        <ele>72.239999999999995</ele>
        <time>2026-07-11T07:35:31Z</time>
      </trkpt>
      <trkpt lat="52.758234003558755" lon="-3.086166037246585">
        <ele>71.760000000000005</ele>
        <time>2026-07-11T07:35:32Z</time>
      </trkpt>
      <trkpt lat="52.758181029930711" lon="-3.086141981184483">
        <ele>71.760000000000005</ele>
        <time>2026-07-11T07:35:33Z</time>
      </trkpt>
      <trkpt lat="52.75796796195209" lon="-3.085896978154779">
        <ele>71.760000000000005</ele>
        <time>2026-07-11T07:35:36Z</time>
      </trkpt>
      <trkpt lat="52.757881041616201" lon="-3.085959004238248">
        <ele>71.269999999999996</ele>
        <time>2026-07-11T07:35:37Z</time>
      </trkpt>
      <trkpt lat="52.757798982784152" lon="-3.086031004786491">
        <ele>71.269999999999996</ele>
        <time>2026-07-11T07:35:38Z</time>
      </trkpt>
      <trkpt lat="52.757711978629231" lon="-3.086111973971129">
        <ele>71.760000000000005</ele>
        <time>2026-07-11T07:35:39Z</time>
      </trkpt>
      <trkpt lat="52.757618017494678" lon="-3.086197972297669">
        <ele>71.760000000000005</ele>
        <time>2026-07-11T07:35:40Z</time>
      </trkpt>
      <trkpt lat="52.757382988929749" lon="-3.086359994485974">
        <ele>72.239999999999995</ele>
        <time>2026-07-11T07:35:42Z</time>
      </trkpt>
      <trkpt lat="52.757251979783177" lon="-3.086409028619528">
        <ele>71.760000000000005</ele>
        <time>2026-07-11T07:35:43Z</time>
      </trkpt>
      <trkpt lat="52.7559470012784" lon="-3.087125010788441">
        <ele>71.269999999999996</ele>
        <time>2026-07-11T07:35:52Z</time>
      </trkpt>
      <trkpt lat="52.754118992015719" lon="-3.088183980435133">
        <ele>69.829999999999998</ele>
        <time>2026-07-11T07:36:03Z</time>
      </trkpt>
      <trkpt lat="52.752068024128675" lon="-3.089372031390667">
        <ele>69.349999999999994</ele>
        <time>2026-07-11T07:36:14Z</time>
      </trkpt>
      <trkpt lat="52.750207995995879" lon="-3.090221034362912">
        <ele>67.430000000000007</ele>
        <time>2026-07-11T07:36:24Z</time>
      </trkpt>
      <trkpt lat="52.748402031138539" lon="-3.091004993766546">
        <ele>67.909999999999997</ele>
        <time>2026-07-11T07:36:34Z</time>
      </trkpt>
      <trkpt lat="52.746014026924968" lon="-3.091991962864995">
        <ele>68.390000000000001</ele>
        <time>2026-07-11T07:36:47Z</time>
      </trkpt>
      <trkpt lat="52.74417101405561" lon="-3.09273200109601">
        <ele>67.430000000000007</ele>
        <time>2026-07-11T07:36:57Z</time>
      </trkpt>
      <trkpt lat="52.742353985086083" lon="-3.093464998528361">
        <ele>69.829999999999998</ele>
        <time>2026-07-11T07:37:06Z</time>
      </trkpt>
      <trkpt lat="52.741009024903178" lon="-3.094105962663889">
        <ele>70.310000000000002</ele>
        <time>2026-07-11T07:37:13Z</time>
      </trkpt>
      <trkpt lat="52.739512016996741" lon="-3.095010034739971">
        <ele>69.829999999999998</ele>
        <time>2026-07-11T07:37:21Z</time>
      </trkpt>
      <trkpt lat="52.737803030759096" lon="-3.095776978880167">
        <ele>70.310000000000002</ele>
        <time>2026-07-11T07:37:30Z</time>
      </trkpt>
      <trkpt lat="52.735918024554849" lon="-3.096136981621385">
        <ele>69.829999999999998</ele>
        <time>2026-07-11T07:37:40Z</time>
      </trkpt>
      <trkpt lat="52.734147012233734" lon="-3.096170006319881">
        <ele>69.829999999999998</ele>
        <time>2026-07-11T07:37:49Z</time>
      </trkpt>
      <trkpt lat="52.732229987159371" lon="-3.096170006319881">
        <ele>67.430000000000007</ele>
        <time>2026-07-11T07:37:58Z</time>
      </trkpt>
      <trkpt lat="52.730694003403187" lon="-3.096170006319881">
        <ele>65.030000000000001</ele>
        <time>2026-07-11T07:38:04Z</time>
      </trkpt>
      <trkpt lat="52.728698020800948" lon="-3.096133964136243">
        <ele>64.069999999999993</ele>
        <time>2026-07-11T07:38:10Z</time>
      </trkpt>
      <trkpt lat="52.726429039612412" lon="-3.096086019650102">
        <ele>63.579999999999998</ele>
        <time>2026-07-11T07:38:18Z</time>
      </trkpt>
      <trkpt lat="52.723481962457299" lon="-3.096035979688168">
        <ele>64.069999999999993</ele>
        <time>2026-07-11T07:38:30Z</time>
      </trkpt>
      <trkpt lat="52.719569960609078" lon="-3.095973031595349">
        <ele>63.100000000000001</ele>
        <time>2026-07-11T07:38:47Z</time>
      </trkpt>
      <trkpt lat="52.715472970157862" lon="-3.095906982198358">
        <ele>64.069999999999993</ele>
        <time>2026-07-11T07:39:05Z</time>
      </trkpt>
      <trkpt lat="52.71364102140069" lon="-3.095877980813384">
        <ele>62.140000000000001</ele>
        <time>2026-07-11T07:39:13Z</time>
      </trkpt>
      <trkpt lat="52.711081020534039" lon="-3.095827018842101">
        <ele>59.740000000000002</ele>
        <time>2026-07-11T07:39:24Z</time>
      </trkpt>
      <trkpt lat="52.708985041826963" lon="-3.095892984420061">
        <ele>60.700000000000003</ele>
        <time>2026-07-11T07:39:33Z</time>
      </trkpt>
      <trkpt lat="52.70693801343441" lon="-3.09657895937562">
        <ele>60.219999999999999</ele>
        <time>2026-07-11T07:39:42Z</time>
      </trkpt>
      <trkpt lat="52.704658973962069" lon="-3.097389992326498">
        <ele>61.18</ele>
        <time>2026-07-11T07:39:52Z</time>
      </trkpt>
      <trkpt lat="52.701043020933867" lon="-3.098699999973178">
        <ele>63.100000000000001</ele>
        <time>2026-07-11T07:40:08Z</time>
      </trkpt>
      <trkpt lat="52.699219034984708" lon="-3.09937097132206">
        <ele>65.510000000000005</ele>
        <time>2026-07-11T07:40:16Z</time>
      </trkpt>
      <trkpt lat="52.697232021018863" lon="-3.100418960675597">
        <ele>67.430000000000007</ele>
        <time>2026-07-11T07:40:25Z</time>
      </trkpt>
      <trkpt lat="52.695364030078053" lon="-3.101610029116273">
        <ele>65.989999999999995</ele>
        <time>2026-07-11T07:40:34Z</time>
      </trkpt>
      <trkpt lat="52.693842966109514" lon="-3.102886006236076">
        <ele>65.989999999999995</ele>
        <time>2026-07-11T07:40:43Z</time>
      </trkpt>
      <trkpt lat="52.69177196547389" lon="-3.105048034340143">
        <ele>66.950000000000003</ele>
        <time>2026-07-11T07:40:55Z</time>
      </trkpt>
      <trkpt lat="52.688822960481048" lon="-3.108175992965698">
        <ele>67.909999999999997</ele>
        <time>2026-07-11T07:41:10Z</time>
      </trkpt>
      <trkpt lat="52.685845037922263" lon="-3.111333036795259">
        <ele>73.680000000000007</ele>
        <time>2026-07-11T07:41:25Z</time>
      </trkpt>
      <trkpt lat="52.683573039248586" lon="-3.113453993573785">
        <ele>71.269999999999996</ele>
        <time>2026-07-11T07:41:36Z</time>
      </trkpt>
      <trkpt lat="52.680652029812336" lon="-3.115916009992361">
        <ele>66.469999999999999</ele>
        <time>2026-07-11T07:41:50Z</time>
      </trkpt>
      <trkpt lat="52.677719034254551" lon="-3.118390012532473">
        <ele>67.430000000000007</ele>
        <time>2026-07-11T07:42:04Z</time>
      </trkpt>
      <trkpt lat="52.675220975652337" lon="-3.120479034259915">
        <ele>69.349999999999994</ele>
        <time>2026-07-11T07:42:16Z</time>
      </trkpt>
      <trkpt lat="52.673435965552926" lon="-3.121780995279551">
        <ele>71.269999999999996</ele>
        <time>2026-07-11T07:42:25Z</time>
      </trkpt>
      <trkpt lat="52.672744961455464" lon="-3.122072014957666">
        <ele>71.760000000000005</ele>
        <time>2026-07-11T07:42:31Z</time>
      </trkpt>
      <trkpt lat="52.672678995877504" lon="-3.122089030221105">
        <ele>72.239999999999995</ele>
        <time>2026-07-11T07:42:32Z</time>
      </trkpt>
      <trkpt lat="52.672630967572331" lon="-3.122102022171021">
        <ele>72.239999999999995</ele>
        <time>2026-07-11T07:42:33Z</time>
      </trkpt>
      <trkpt lat="52.672594003379345" lon="-3.122111996635795">
        <ele>72.239999999999995</ele>
        <time>2026-07-11T07:42:34Z</time>
      </trkpt>
      <trkpt lat="52.672569025307894" lon="-3.122119037434459">
        <ele>72.239999999999995</ele>
        <time>2026-07-11T07:42:35Z</time>
      </trkpt>
      <trkpt lat="52.672513034194708" lon="-3.122039996087551">
        <ele>71.760000000000005</ele>
        <time>2026-07-11T07:42:36Z</time>
      </trkpt>
      <trkpt lat="52.672513034194708" lon="-3.121898006647825">
        <ele>71.760000000000005</ele>
        <time>2026-07-11T07:42:37Z</time>
      </trkpt>
      <trkpt lat="52.67249995842576" lon="-3.121860036626458">
        <ele>72.239999999999995</ele>
        <time>2026-07-11T07:42:38Z</time>
      </trkpt>
      <trkpt lat="52.672442961484194" lon="-3.121748976409435">
        <ele>72.239999999999995</ele>
        <time>2026-07-11T07:42:39Z</time>
      </trkpt>
      <trkpt lat="52.672384036704898" lon="-3.121704971417785">
        <ele>72.239999999999995</ele>
        <time>2026-07-11T07:42:40Z</time>
      </trkpt>
      <trkpt lat="52.672287980094552" lon="-3.121732966974378">
        <ele>72.239999999999995</ele>
        <time>2026-07-11T07:42:41Z</time>
      </trkpt>
      <trkpt lat="52.672234000638127" lon="-3.121747970581055">
        <ele>72.719999999999999</ele>
        <time>2026-07-11T07:42:42Z</time>
      </trkpt>
      <trkpt lat="52.67219502478838" lon="-3.121932037174702">
        <ele>73.200000000000003</ele>
        <time>2026-07-11T07:42:43Z</time>
      </trkpt>
      <trkpt lat="52.672077007591724" lon="-3.122090036049485">
        <ele>73.680000000000007</ele>
        <time>2026-07-11T07:42:44Z</time>
      </trkpt>
      <trkpt lat="52.671974999830127" lon="-3.122135968878865">
        <ele>73.680000000000007</ele>
        <time>2026-07-11T07:42:45Z</time>
      </trkpt>
      <trkpt lat="52.671860000118613" lon="-3.12218701466918">
        <ele>74.159999999999997</ele>
        <time>2026-07-11T07:42:46Z</time>
      </trkpt>
      <trkpt lat="52.671733014285564" lon="-3.122245017439127">
        <ele>74.640000000000001</ele>
        <time>2026-07-11T07:42:47Z</time>
      </trkpt>
      <trkpt lat="52.67159597016871" lon="-3.122306037694216">
        <ele>75.120000000000005</ele>
        <time>2026-07-11T07:42:48Z</time>
      </trkpt>
      <trkpt lat="52.670259978622198" lon="-3.122907020151615">
        <ele>75.599999999999994</ele>
        <time>2026-07-11T07:42:56Z</time>
      </trkpt>
      <trkpt lat="52.668946031481028" lon="-3.12424804084003">
        <ele>74.640000000000001</ele>
        <time>2026-07-11T07:43:05Z</time>
      </trkpt>
      <trkpt lat="52.667466960847378" lon="-3.126382995396853">
        <ele>70.790000000000006</ele>
        <time>2026-07-11T07:43:16Z</time>
      </trkpt>
      <trkpt lat="52.665698966011405" lon="-3.128985995426774">
        <ele>71.269999999999996</ele>
        <time>2026-07-11T07:43:29Z</time>
      </trkpt>
      <trkpt lat="52.664587022736669" lon="-3.130534971132875">
        <ele>73.680000000000007</ele>
        <time>2026-07-11T07:43:37Z</time>
      </trkpt>
      <trkpt lat="52.663285983726382" lon="-3.132634973153472">
        <ele>73.200000000000003</ele>
        <time>2026-07-11T07:43:46Z</time>
      </trkpt>
      <trkpt lat="52.661527963355184" lon="-3.135237973183394">
        <ele>74.640000000000001</ele>
        <time>2026-07-11T07:43:57Z</time>
      </trkpt>
      <trkpt lat="52.659142976626754" lon="-3.138469029217959">
        <ele>75.599999999999994</ele>
        <time>2026-07-11T07:44:11Z</time>
      </trkpt>
      <trkpt lat="52.658083001151681" lon="-3.139795968309045">
        <ele>76.079999999999998</ele>
        <time>2026-07-11T07:44:18Z</time>
      </trkpt>
      <trkpt lat="52.657857025042176" lon="-3.140328973531723">
        <ele>75.599999999999994</ele>
        <time>2026-07-11T07:44:22Z</time>
      </trkpt>
      <trkpt lat="52.657769015058875" lon="-3.140425030142069">
        <ele>75.120000000000005</ele>
        <time>2026-07-11T07:44:23Z</time>
      </trkpt>
      <trkpt lat="52.657627025619149" lon="-3.140455037355423">
        <ele>74.159999999999997</ele>
        <time>2026-07-11T07:44:25Z</time>
      </trkpt>
      <trkpt lat="52.657574974000454" lon="-3.140537012368441">
        <ele>73.680000000000007</ele>
        <time>2026-07-11T07:44:26Z</time>
      </trkpt>
      <trkpt lat="52.65754303894937" lon="-3.140654023736715">
        <ele>73.680000000000007</ele>
        <time>2026-07-11T07:44:27Z</time>
      </trkpt>
      <trkpt lat="52.657560976222157" lon="-3.140757959336042">
        <ele>73.200000000000003</ele>
        <time>2026-07-11T07:44:28Z</time>
      </trkpt>
      <trkpt lat="52.657597018405795" lon="-3.140847980976105">
        <ele>72.719999999999999</ele>
        <time>2026-07-11T07:44:29Z</time>
      </trkpt>
      <trkpt lat="52.657621996477246" lon="-3.140910007059574">
        <ele>72.719999999999999</ele>
        <time>2026-07-11T07:44:30Z</time>
      </trkpt>
      <trkpt lat="52.657684022560716" lon="-3.14090296626091">
        <ele>72.239999999999995</ele>
        <time>2026-07-11T07:44:31Z</time>
      </trkpt>
      <trkpt lat="52.657750993967056" lon="-3.140896009281278">
        <ele>72.239999999999995</ele>
        <time>2026-07-11T07:44:32Z</time>
      </trkpt>
      <trkpt lat="52.657815031707287" lon="-3.140887962654233">
        <ele>72.239999999999995</ele>
        <time>2026-07-11T07:44:33Z</time>
      </trkpt>
      <trkpt lat="52.657834980636835" lon="-3.14081403426826">
        <ele>72.719999999999999</ele>
        <time>2026-07-11T07:44:34Z</time>
      </trkpt>
      <trkpt lat="52.6579300314188" lon="-3.140639020130038">
        <ele>73.200000000000003</ele>
        <time>2026-07-11T07:44:35Z</time>
      </trkpt>
      <trkpt lat="52.658003959804773" lon="-3.140618987381458">
        <ele>73.680000000000007</ele>
        <time>2026-07-11T07:44:36Z</time>
      </trkpt>
      <trkpt lat="52.658075038343668" lon="-3.140599960461259">
        <ele>74.159999999999997</ele>
        <time>2026-07-11T07:44:37Z</time>
      </trkpt>
      <trkpt lat="52.65814502723515" lon="-3.140582023188472">
        <ele>74.640000000000001</ele>
        <time>2026-07-11T07:44:38Z</time>
      </trkpt>
      <trkpt lat="52.658214010298252" lon="-3.140562996268272">
        <ele>75.120000000000005</ele>
        <time>2026-07-11T07:44:39Z</time>
      </trkpt>
      <trkpt lat="52.658415008336306" lon="-3.140510022640228">
        <ele>76.079999999999998</ele>
        <time>2026-07-11T07:44:42Z</time>
      </trkpt>
      <trkpt lat="52.658904008567333" lon="-3.140380019322038">
        <ele>78.969999999999999</ele>
        <time>2026-07-11T07:44:51Z</time>
      </trkpt>
      <trkpt lat="52.659163009375334" lon="-3.140311036258936">
        <ele>79.450000000000003</ele>
        <time>2026-07-11T07:44:56Z</time>
      </trkpt>
      <trkpt lat="52.659252025187016" lon="-3.140286980196834">
        <ele>79.450000000000003</ele>
        <time>2026-07-11T07:44:57Z</time>
      </trkpt>
      <trkpt lat="52.659287983551621" lon="-3.140305001288652">
        <ele>79.450000000000003</ele>
        <time>2026-07-11T07:44:58Z</time>
      </trkpt>
      <trkpt lat="52.65934799797833" lon="-3.140335008502007">
        <ele>79.450000000000003</ele>
        <time>2026-07-11T07:44:59Z</time>
      </trkpt>
      <trkpt lat="52.659409018233418" lon="-3.140396028757095">
        <ele>79.450000000000003</ele>
        <time>2026-07-11T07:45:00Z</time>
      </trkpt>
      <trkpt lat="52.659452017396688" lon="-3.140465011820197">
        <ele>79.450000000000003</ele>
        <time>2026-07-11T07:45:01Z</time>
      </trkpt>
      <trkpt lat="52.659493004903197" lon="-3.140527959913015">
        <ele>79.450000000000003</ele>
        <time>2026-07-11T07:45:02Z</time>
      </trkpt>
      <trkpt lat="52.659529969096184" lon="-3.140587974339724">
        <ele>78.969999999999999</ele>
        <time>2026-07-11T07:45:03Z</time>
      </trkpt>
      <trkpt lat="52.659558970481157" lon="-3.140632985159755">
        <ele>78.480000000000004</ele>
        <time>2026-07-11T07:45:04Z</time>
      </trkpt>
      <trkpt lat="52.659634994342923" lon="-3.140786960721016">
        <ele>78.480000000000004</ele>
        <time>2026-07-11T07:45:05Z</time>
      </trkpt>
      <trkpt lat="52.65962602570653" lon="-3.140844963490963">
        <ele>78</ele>
        <time>2026-07-11T07:45:06Z</time>
      </trkpt>
      <trkpt lat="52.659617979079485" lon="-3.140901960432529">
        <ele>77.519999999999996</ele>
        <time>2026-07-11T07:45:07Z</time>
      </trkpt>
      <trkpt lat="52.659616973251104" lon="-3.140910007059574">
        <ele>77.040000000000006</ele>
        <time>2026-07-11T07:45:08Z</time>
      </trkpt>
      <trkpt lat="52.659616973251104" lon="-3.140910007059574">
        <ele>77.040000000000006</ele>
        <time>2026-07-11T07:45:09Z</time>
      </trkpt>
      <trkpt lat="52.659533992409706" lon="-3.141076974570751">
        <ele>76.560000000000002</ele>
        <time>2026-07-11T07:45:10Z</time>
      </trkpt>
      <trkpt lat="52.659458974376321" lon="-3.141047973185778">
        <ele>76.560000000000002</ele>
        <time>2026-07-11T07:45:11Z</time>
      </trkpt>
      <trkpt lat="52.659441959112883" lon="-3.141022995114327">
        <ele>76.560000000000002</ele>
        <time>2026-07-11T07:45:12Z</time>
      </trkpt>
      <trkpt lat="52.659419998526573" lon="-3.140989970415831">
        <ele>76.079999999999998</ele>
        <time>2026-07-11T07:45:13Z</time>
      </trkpt>
      <trkpt lat="52.659397032111883" lon="-3.140955017879605">
        <ele>76.079999999999998</ele>
        <time>2026-07-11T07:45:14Z</time>
      </trkpt>
      <trkpt lat="52.659381022676826" lon="-3.140930961817503">
        <ele>76.079999999999998</ele>
        <time>2026-07-11T07:45:15Z</time>
      </trkpt>
      <trkpt lat="52.659381022676826" lon="-3.140930961817503">
        <ele>76.079999999999998</ele>
        <time>2026-07-11T07:45:16Z</time>
      </trkpt>
      <trkpt lat="52.659256970509887" lon="-3.140992987900972">
        <ele>75.599999999999994</ele>
        <time>2026-07-11T07:45:18Z</time>
      </trkpt>
      <trkpt lat="52.659145994111896" lon="-3.141088960692287">
        <ele>76.079999999999998</ele>
        <time>2026-07-11T07:45:23Z</time>
      </trkpt>
      <trkpt lat="52.659107018262148" lon="-3.141101030632854">
        <ele>76.079999999999998</ele>
        <time>2026-07-11T07:45:26Z</time>
      </trkpt>
      <trkpt lat="52.659042980521917" lon="-3.140972033143044">
        <ele>77.040000000000006</ele>
        <time>2026-07-11T07:45:42Z</time>
      </trkpt>
      <trkpt lat="52.659024959430099" lon="-3.140907995402813">
        <ele>83.769999999999996</ele>
        <time>2026-07-11T07:55:56Z</time>
      </trkpt>
      <trkpt lat="52.659065024927258" lon="-3.140884023159742">
        <ele>85.209999999999994</ele>
        <time>2026-07-11T07:56:53Z</time>
      </trkpt>
      <trkpt lat="52.659064019098878" lon="-3.140883017331362">
        <ele>84.25</ele>
        <time>2026-07-11T07:57:12Z</time>
      </trkpt>
      <trkpt lat="52.659029988572001" lon="-3.140696017071605">
        <ele>84.25</ele>
        <time>2026-07-11T07:57:14Z</time>
      </trkpt>
      <trkpt lat="52.65904700383544" lon="-3.140681013464928">
        <ele>83.769999999999996</ele>
        <time>2026-07-11T07:57:15Z</time>
      </trkpt>
      <trkpt lat="52.659065024927258" lon="-3.14066500402987">
        <ele>83.769999999999996</ele>
        <time>2026-07-11T07:57:16Z</time>
      </trkpt>
      <trkpt lat="52.659081034362316" lon="-3.140652012079954">
        <ele>83.769999999999996</ele>
        <time>2026-07-11T07:57:17Z</time>
      </trkpt>
      <trkpt lat="52.659291001036763" lon="-3.140596020966768">
        <ele>81.370000000000005</ele>
        <time>2026-07-11T07:57:22Z</time>
      </trkpt>
      <trkpt lat="52.659338023513556" lon="-3.140759970992804">
        <ele>81.370000000000005</ele>
        <time>2026-07-11T07:57:23Z</time>
      </trkpt>
      <trkpt lat="52.659338023513556" lon="-3.140759970992804">
        <ele>80.409999999999997</ele>
        <time>2026-07-11T07:57:24Z</time>
      </trkpt>
      <trkpt lat="52.659460986033082" lon="-3.141050990670919">
        <ele>77.519999999999996</ele>
        <time>2026-07-11T07:57:33Z</time>
      </trkpt>
      <trkpt lat="52.659475989639759" lon="-3.141074040904641">
        <ele>77.040000000000006</ele>
        <time>2026-07-11T07:57:34Z</time>
      </trkpt>
      <trkpt lat="52.659531980752945" lon="-3.141079992055893">
        <ele>77.040000000000006</ele>
        <time>2026-07-11T07:57:35Z</time>
      </trkpt>
      <trkpt lat="52.659644968807697" lon="-3.140920987352729">
        <ele>78.969999999999999</ele>
        <time>2026-07-11T07:57:42Z</time>
      </trkpt>
      <trkpt lat="52.659689979627728" lon="-3.140939008444548">
        <ele>78.969999999999999</ele>
        <time>2026-07-11T07:57:43Z</time>
      </trkpt>
      <trkpt lat="52.659749994054437" lon="-3.141109999269247">
        <ele>78.969999999999999</ele>
        <time>2026-07-11T07:57:44Z</time>
      </trkpt>
      <trkpt lat="52.659767009317875" lon="-3.141217036172748">
        <ele>78.969999999999999</ele>
        <time>2026-07-11T07:57:45Z</time>
      </trkpt>
      <trkpt lat="52.659784024581313" lon="-3.141319965943694">
        <ele>78.969999999999999</ele>
        <time>2026-07-11T07:57:46Z</time>
      </trkpt>
      <trkpt lat="52.659788969904184" lon="-3.141704024747014">
        <ele>78.969999999999999</ele>
        <time>2026-07-11T07:57:50Z</time>
      </trkpt>
      <trkpt lat="52.659896006807685" lon="-3.141661025583744">
        <ele>79.450000000000003</ele>
        <time>2026-07-11T07:57:51Z</time>
      </trkpt>
      <trkpt lat="52.659896006807685" lon="-3.141661025583744">
        <ele>79.450000000000003</ele>
        <time>2026-07-11T07:57:52Z</time>
      </trkpt>
      <trkpt lat="52.660039002075791" lon="-3.141604028642178">
        <ele>79.450000000000003</ele>
        <time>2026-07-11T07:57:55Z</time>
      </trkpt>
      <trkpt lat="52.660097004845738" lon="-3.141580978408456">
        <ele>78.969999999999999</ele>
        <time>2026-07-11T07:57:56Z</time>
      </trkpt>
      <trkpt lat="52.660155007615685" lon="-3.141557006165385">
        <ele>78.969999999999999</ele>
        <time>2026-07-11T07:57:57Z</time>
      </trkpt>
      <trkpt lat="52.660209992900491" lon="-3.141534961760044">
        <ele>78.969999999999999</ele>
        <time>2026-07-11T07:57:58Z</time>
      </trkpt>
      <trkpt lat="52.660218039527535" lon="-3.141532028093934">
        <ele>78.969999999999999</ele>
        <time>2026-07-11T07:57:59Z</time>
      </trkpt>
      <trkpt lat="52.660342007875443" lon="-3.141920026391745">
        <ele>78.480000000000004</ele>
        <time>2026-07-11T07:58:04Z</time>
      </trkpt>
      <trkpt lat="52.660169005393982" lon="-3.142226971685886">
        <ele>76.560000000000002</ele>
        <time>2026-07-11T07:58:11Z</time>
      </trkpt>
      <trkpt lat="52.660146960988641" lon="-3.142279023304582">
        <ele>76.560000000000002</ele>
        <time>2026-07-11T07:58:22Z</time>
      </trkpt>
      <trkpt lat="52.660146960988641" lon="-3.142279023304582">
        <ele>76.560000000000002</ele>
        <time>2026-07-11T07:58:42Z</time>
      </trkpt>
      <trkpt lat="52.660134974867105" lon="-3.142269970849156">
        <ele>78.480000000000004</ele>
        <time>2026-07-11T07:59:02Z</time>
      </trkpt>
      <trkpt lat="52.660180991515517" lon="-3.142224038019776">
        <ele>76.079999999999998</ele>
        <time>2026-07-11T08:11:30Z</time>
      </trkpt>
      <trkpt lat="52.660144027322531" lon="-3.142240969464183">
        <ele>77.519999999999996</ele>
        <time>2026-07-11T08:12:06Z</time>
      </trkpt>
      <trkpt lat="52.659953003749251" lon="-3.142364015802741">
        <ele>78</ele>
        <time>2026-07-11T08:12:10Z</time>
      </trkpt>
      <trkpt lat="52.659938000142574" lon="-3.142310036346316">
        <ele>78.480000000000004</ele>
        <time>2026-07-11T08:12:11Z</time>
      </trkpt>
      <trkpt lat="52.659921990707517" lon="-3.142251027747989">
        <ele>78.480000000000004</ele>
        <time>2026-07-11T08:12:12Z</time>
      </trkpt>
      <trkpt lat="52.66014201566577" lon="-3.141951039433479">
        <ele>78</ele>
        <time>2026-07-11T08:12:16Z</time>
      </trkpt>
      <trkpt lat="52.660218039527535" lon="-3.141532028093934">
        <ele>77.519999999999996</ele>
        <time>2026-07-11T08:12:21Z</time>
      </trkpt>
      <trkpt lat="52.660218039527535" lon="-3.141532028093934">
        <ele>77.040000000000006</ele>
        <time>2026-07-11T08:12:25Z</time>
      </trkpt>
      <trkpt lat="52.66020798124373" lon="-3.141535967588425">
        <ele>77.040000000000006</ele>
        <time>2026-07-11T08:12:26Z</time>
      </trkpt>
      <trkpt lat="52.660159030929208" lon="-3.141556000337005">
        <ele>77.040000000000006</ele>
        <time>2026-07-11T08:12:27Z</time>
      </trkpt>
      <trkpt lat="52.660105973482132" lon="-3.141577038913965">
        <ele>77.040000000000006</ele>
        <time>2026-07-11T08:12:28Z</time>
      </trkpt>
      <trkpt lat="52.660050988197327" lon="-3.141598999500275">
        <ele>77.519999999999996</ele>
        <time>2026-07-11T08:12:29Z</time>
      </trkpt>
      <trkpt lat="52.659997008740902" lon="-3.141620038077235">
        <ele>77.040000000000006</ele>
        <time>2026-07-11T08:12:30Z</time>
      </trkpt>
      <trkpt lat="52.659953003749251" lon="-3.141637975350022">
        <ele>77.519999999999996</ele>
        <time>2026-07-11T08:12:31Z</time>
      </trkpt>
      <trkpt lat="52.659925008192658" lon="-3.141649039462209">
        <ele>77.519999999999996</ele>
        <time>2026-07-11T08:12:32Z</time>
      </trkpt>
      <trkpt lat="52.659896006807685" lon="-3.141661025583744">
        <ele>78</ele>
        <time>2026-07-11T08:12:40Z</time>
      </trkpt>
      <trkpt lat="52.659802967682481" lon="-3.14167401753366">
        <ele>78</ele>
        <time>2026-07-11T08:12:41Z</time>
      </trkpt>
      <trkpt lat="52.659831969067454" lon="-3.141767978668213">
        <ele>78</ele>
        <time>2026-07-11T08:12:42Z</time>
      </trkpt>
      <trkpt lat="52.65984202735126" lon="-3.141833022236824">
        <ele>78</ele>
        <time>2026-07-11T08:12:43Z</time>
      </trkpt>
      <trkpt lat="52.659861976280808" lon="-3.141951039433479">
        <ele>78</ele>
        <time>2026-07-11T08:12:44Z</time>
      </trkpt>
      <trkpt lat="52.65988502651453" lon="-3.142090011388063">
        <ele>78</ele>
        <time>2026-07-11T08:12:45Z</time>
      </trkpt>
      <trkpt lat="52.660284005105495" lon="-3.14330798573792">
        <ele>80.890000000000001</ele>
        <time>2026-07-11T08:12:53Z</time>
      </trkpt>
      <trkpt lat="52.66048701480031" lon="-3.143685003742576">
        <ele>81.849999999999994</ele>
        <time>2026-07-11T08:12:56Z</time>
      </trkpt>
      <trkpt lat="52.660481985658407" lon="-3.143890025094152">
        <ele>82.329999999999998</ele>
        <time>2026-07-11T08:12:57Z</time>
      </trkpt>
      <trkpt lat="52.660469999536872" lon="-3.144045006483793">
        <ele>82.810000000000002</ele>
        <time>2026-07-11T08:12:58Z</time>
      </trkpt>
      <trkpt lat="52.660453990101814" lon="-3.144256984815002">
        <ele>83.290000000000006</ele>
        <time>2026-07-11T08:12:59Z</time>
      </trkpt>
      <trkpt lat="52.660424988716841" lon="-3.1443399656564">
        <ele>84.25</ele>
        <time>2026-07-11T08:13:00Z</time>
      </trkpt>
      <trkpt lat="52.660375032573938" lon="-3.144486984238029">
        <ele>84.730000000000004</ele>
        <time>2026-07-11T08:13:01Z</time>
      </trkpt>
      <trkpt lat="52.660127012059093" lon="-3.145316960290074">
        <ele>86.180000000000007</ele>
        <time>2026-07-11T08:13:07Z</time>
      </trkpt>
      <trkpt lat="52.660089964047074" lon="-3.145459033548832">
        <ele>85.689999999999998</ele>
        <time>2026-07-11T08:13:08Z</time>
      </trkpt>
      <trkpt lat="52.660055011510849" lon="-3.145598005503416">
        <ele>85.209999999999994</ele>
        <time>2026-07-11T08:13:09Z</time>
      </trkpt>
      <trkpt lat="52.660065991804004" lon="-3.145770002156496">
        <ele>85.209999999999994</ele>
        <time>2026-07-11T08:13:10Z</time>
      </trkpt>
      <trkpt lat="52.660087030380964" lon="-3.145916014909744">
        <ele>85.209999999999994</ele>
        <time>2026-07-11T08:13:11Z</time>
      </trkpt>
      <trkpt lat="52.660111002624035" lon="-3.14608097076416">
        <ele>84.730000000000004</ele>
        <time>2026-07-11T08:13:12Z</time>
      </trkpt>
      <trkpt lat="52.660129023715854" lon="-3.146175015717745">
        <ele>84.730000000000004</ele>
        <time>2026-07-11T08:13:13Z</time>
      </trkpt>
      <trkpt lat="52.660217033699155" lon="-3.14648699015379">
        <ele>85.209999999999994</ele>
        <time>2026-07-11T08:13:16Z</time>
      </trkpt>
      <trkpt lat="52.660320969298482" lon="-3.146681031212211">
        <ele>84.730000000000004</ele>
        <time>2026-07-11T08:13:18Z</time>
      </trkpt>
      <trkpt lat="52.66037997789681" lon="-3.14672201871872">
        <ele>84.25</ele>
        <time>2026-07-11T08:13:19Z</time>
      </trkpt>
      <trkpt lat="52.660589022561908" lon="-3.146854033693671">
        <ele>83.769999999999996</ele>
        <time>2026-07-11T08:13:22Z</time>
      </trkpt>
      <trkpt lat="52.66085296869278" lon="-3.147338004782796">
        <ele>84.730000000000004</ele>
        <time>2026-07-11T08:13:28Z</time>
      </trkpt>
      <trkpt lat="52.660892028361559" lon="-3.147430038079619">
        <ele>84.730000000000004</ele>
        <time>2026-07-11T08:13:29Z</time>
      </trkpt>
      <trkpt lat="52.660914994776249" lon="-3.147541014477611">
        <ele>85.209999999999994</ele>
        <time>2026-07-11T08:13:30Z</time>
      </trkpt>
      <trkpt lat="52.6609399728477" lon="-3.147656014189124">
        <ele>85.209999999999994</ele>
        <time>2026-07-11T08:13:31Z</time>
      </trkpt>
      <trkpt lat="52.660968974232674" lon="-3.147766990587115">
        <ele>85.209999999999994</ele>
        <time>2026-07-11T08:13:32Z</time>
      </trkpt>
      <trkpt lat="52.661051033064723" lon="-3.148051975294948">
        <ele>84.25</ele>
        <time>2026-07-11T08:13:35Z</time>
      </trkpt>
      <trkpt lat="52.66106796450913" lon="-3.148114001378417">
        <ele>84.25</ele>
        <time>2026-07-11T08:13:36Z</time>
      </trkpt>
      <trkpt lat="52.660990012809634" lon="-3.1482910271734">
        <ele>84.25</ele>
        <time>2026-07-11T08:13:37Z</time>
      </trkpt>
      <trkpt lat="52.660990012809634" lon="-3.1482910271734">
        <ele>83.769999999999996</ele>
        <time>2026-07-11T08:13:38Z</time>
      </trkpt>
      <trkpt lat="52.66100300475955" lon="-3.148279041051865">
        <ele>83.769999999999996</ele>
        <time>2026-07-11T08:13:39Z</time>
      </trkpt>
      <trkpt lat="52.660990012809634" lon="-3.1482910271734">
        <ele>84.25</ele>
        <time>2026-07-11T08:13:49Z</time>
      </trkpt>
      <trkpt lat="52.660819021984935" lon="-3.1482910271734">
        <ele>84.730000000000004</ele>
        <time>2026-07-11T08:14:01Z</time>
      </trkpt>
      <trkpt lat="52.660781973972917" lon="-3.148330003023148">
        <ele>84.730000000000004</ele>
        <time>2026-07-11T08:14:02Z</time>
      </trkpt>
      <trkpt lat="52.660781973972917" lon="-3.148330003023148">
        <ele>84.25</ele>
        <time>2026-07-11T08:14:16Z</time>
      </trkpt>
      <trkpt lat="52.660781973972917" lon="-3.148330003023148">
        <ele>84.25</ele>
        <time>2026-07-11T08:15:00Z</time>
      </trkpt>
      <trkpt lat="52.660781973972917" lon="-3.148330003023148">
        <ele>84.25</ele>
        <time>2026-07-11T08:15:20Z</time>
      </trkpt>
      <trkpt lat="52.660781973972917" lon="-3.148330003023148">
        <ele>84.25</ele>
        <time>2026-07-11T08:15:30Z</time>
      </trkpt>
      <trkpt lat="52.660862021148205" lon="-3.14824802801013">
        <ele>85.209999999999994</ele>
        <time>2026-07-11T08:15:33Z</time>
      </trkpt>
      <trkpt lat="52.660881970077753" lon="-3.148254984989762">
        <ele>84.730000000000004</ele>
        <time>2026-07-11T08:15:34Z</time>
      </trkpt>
      <trkpt lat="52.660947013646364" lon="-3.148483978584409">
        <ele>84.25</ele>
        <time>2026-07-11T08:15:35Z</time>
      </trkpt>
      <trkpt lat="52.660947013646364" lon="-3.148483978584409">
        <ele>83.769999999999996</ele>
        <time>2026-07-11T08:15:36Z</time>
      </trkpt>
      <trkpt lat="52.660954976454377" lon="-3.148539969697595">
        <ele>83.290000000000006</ele>
        <time>2026-07-11T08:15:37Z</time>
      </trkpt>
      <trkpt lat="52.660966040566564" lon="-3.148613981902599">
        <ele>82.810000000000002</ele>
        <time>2026-07-11T08:15:38Z</time>
      </trkpt>
      <trkpt lat="52.661011973395944" lon="-3.148978007957339">
        <ele>81.849999999999994</ele>
        <time>2026-07-11T08:15:44Z</time>
      </trkpt>
      <trkpt lat="52.661011973395944" lon="-3.148978007957339">
        <ele>81.849999999999994</ele>
        <time>2026-07-11T08:15:45Z</time>
      </trkpt>
      <trkpt lat="52.661011973395944" lon="-3.148978007957339">
        <ele>81.849999999999994</ele>
        <time>2026-07-11T08:15:46Z</time>
      </trkpt>
      <trkpt lat="52.661011973395944" lon="-3.148952024057508">
        <ele>82.329999999999998</ele>
        <time>2026-07-11T08:15:47Z</time>
      </trkpt>
      <trkpt lat="52.661011973395944" lon="-3.148935008794069">
        <ele>82.329999999999998</ele>
        <time>2026-07-11T08:15:48Z</time>
      </trkpt>
      <trkpt lat="52.661011973395944" lon="-3.148935008794069">
        <ele>82.329999999999998</ele>
        <time>2026-07-11T08:15:49Z</time>
      </trkpt>
      <trkpt lat="52.660999987274408" lon="-3.148851022124291">
        <ele>82.329999999999998</ele>
        <time>2026-07-11T08:15:50Z</time>
      </trkpt>
      <trkpt lat="52.660993030294776" lon="-3.148806011304259">
        <ele>82.329999999999998</ele>
        <time>2026-07-11T08:15:51Z</time>
      </trkpt>
      <trkpt lat="52.660988001152873" lon="-3.148766029626131">
        <ele>82.329999999999998</ele>
        <time>2026-07-11T08:15:52Z</time>
      </trkpt>
      <trkpt lat="52.660988001152873" lon="-3.148766029626131">
        <ele>82.329999999999998</ele>
        <time>2026-07-11T08:15:53Z</time>
      </trkpt>
      <trkpt lat="52.660988001152873" lon="-3.148766029626131">
        <ele>82.329999999999998</ele>
        <time>2026-07-11T08:15:58Z</time>
      </trkpt>
      <trkpt lat="52.660974003374577" lon="-3.148668967187405">
        <ele>83.769999999999996</ele>
        <time>2026-07-11T08:16:02Z</time>
      </trkpt>
      <trkpt lat="52.660974003374577" lon="-3.148668967187405">
        <ele>83.769999999999996</ele>
        <time>2026-07-11T08:16:13Z</time>
      </trkpt>
      <trkpt lat="52.661006022244692" lon="-3.148643989115953">
        <ele>97.230000000000004</ele>
        <time>2026-07-11T09:36:30Z</time>
      </trkpt>
      <trkpt lat="52.661028988659382" lon="-3.148600989952683">
        <ele>92.900000000000006</ele>
        <time>2026-07-11T09:37:06Z</time>
      </trkpt>
      <trkpt lat="52.661039968952537" lon="-3.148595038801432">
        <ele>88.579999999999998</ele>
        <time>2026-07-11T09:37:45Z</time>
      </trkpt>
      <trkpt lat="52.661036029458046" lon="-3.148609958589077">
        <ele>89.540000000000006</ele>
        <time>2026-07-11T09:38:22Z</time>
      </trkpt>
      <trkpt lat="52.661034017801285" lon="-3.148605013266206">
        <ele>89.540000000000006</ele>
        <time>2026-07-11T09:39:09Z</time>
      </trkpt>
      <trkpt lat="52.661037035286427" lon="-3.148597972467542">
        <ele>89.540000000000006</ele>
        <time>2026-07-11T09:40:00Z</time>
      </trkpt>
      <trkpt lat="52.661007028073072" lon="-3.148623034358025">
        <ele>88.579999999999998</ele>
        <time>2026-07-11T09:40:18Z</time>
      </trkpt>
      <trkpt lat="52.6609589997679" lon="-3.148567965254188">
        <ele>87.620000000000005</ele>
        <time>2026-07-11T09:40:21Z</time>
      </trkpt>
      <trkpt lat="52.660952964797616" lon="-3.148521026596427">
        <ele>87.620000000000005</ele>
        <time>2026-07-11T09:40:22Z</time>
      </trkpt>
      <trkpt lat="52.660954976454377" lon="-3.148450031876564">
        <ele>87.620000000000005</ele>
        <time>2026-07-11T09:40:23Z</time>
      </trkpt>
      <trkpt lat="52.660966040566564" lon="-3.148402003571391">
        <ele>87.620000000000005</ele>
        <time>2026-07-11T09:40:24Z</time>
      </trkpt>
      <trkpt lat="52.660976015031338" lon="-3.148353975266218">
        <ele>87.140000000000001</ele>
        <time>2026-07-11T09:40:25Z</time>
      </trkpt>
      <trkpt lat="52.661000993102789" lon="-3.148279963061214">
        <ele>86.659999999999997</ele>
        <time>2026-07-11T09:40:26Z</time>
      </trkpt>
      <trkpt lat="52.661020020022988" lon="-3.148262025788426">
        <ele>86.659999999999997</ele>
        <time>2026-07-11T09:40:27Z</time>
      </trkpt>
      <trkpt lat="52.661020020022988" lon="-3.148262025788426">
        <ele>85.689999999999998</ele>
        <time>2026-07-11T09:40:38Z</time>
      </trkpt>
      <trkpt lat="52.661095960065722" lon="-3.148186001926661">
        <ele>86.659999999999997</ele>
        <time>2026-07-11T09:40:48Z</time>
      </trkpt>
      <trkpt lat="52.661076011136174" lon="-3.148140991106629">
        <ele>87.140000000000001</ele>
        <time>2026-07-11T09:40:49Z</time>
      </trkpt>
      <trkpt lat="52.661062013357878" lon="-3.148092962801457">
        <ele>86.659999999999997</ele>
        <time>2026-07-11T09:40:50Z</time>
      </trkpt>
      <trkpt lat="52.661042986437678" lon="-3.148025991395116">
        <ele>86.180000000000007</ele>
        <time>2026-07-11T09:40:51Z</time>
      </trkpt>
      <trkpt lat="52.661031000316143" lon="-3.147980980575085">
        <ele>86.180000000000007</ele>
        <time>2026-07-11T09:40:52Z</time>
      </trkpt>
      <trkpt lat="52.661019014194608" lon="-3.147939993068576">
        <ele>85.689999999999998</ele>
        <time>2026-07-11T09:40:53Z</time>
      </trkpt>
      <trkpt lat="52.660985989496112" lon="-3.147825999185443">
        <ele>85.209999999999994</ele>
        <time>2026-07-11T09:40:55Z</time>
      </trkpt>
      <trkpt lat="52.660911977291107" lon="-3.147526010870934">
        <ele>83.290000000000006</ele>
        <time>2026-07-11T09:40:59Z</time>
      </trkpt>
      <trkpt lat="52.660882975906134" lon="-3.147389972582459">
        <ele>82.329999999999998</ele>
        <time>2026-07-11T09:41:01Z</time>
      </trkpt>
      <trkpt lat="52.660849029198289" lon="-3.147329036146402">
        <ele>82.329999999999998</ele>
        <time>2026-07-11T09:41:02Z</time>
      </trkpt>
      <trkpt lat="52.660818016156554" lon="-3.147275978699327">
        <ele>81.849999999999994</ele>
        <time>2026-07-11T09:41:03Z</time>
      </trkpt>
      <trkpt lat="52.660790020599961" lon="-3.147227028384805">
        <ele>81.370000000000005</ele>
        <time>2026-07-11T09:41:04Z</time>
      </trkpt>
      <trkpt lat="52.660763030871749" lon="-3.147180005908012">
        <ele>81.370000000000005</ele>
        <time>2026-07-11T09:41:05Z</time>
      </trkpt>
      <trkpt lat="52.660740986466408" lon="-3.147142035886645">
        <ele>81.370000000000005</ele>
        <time>2026-07-11T09:41:06Z</time>
      </trkpt>
      <trkpt lat="52.660670997574925" lon="-3.147018989548087">
        <ele>81.370000000000005</ele>
        <time>2026-07-11T09:41:14Z</time>
      </trkpt>
      <trkpt lat="52.660625986754894" lon="-3.146939026191831">
        <ele>81.370000000000005</ele>
        <time>2026-07-11T09:41:16Z</time>
      </trkpt>
      <trkpt lat="52.660608971491456" lon="-3.146900972351432">
        <ele>81.849999999999994</ele>
        <time>2026-07-11T09:41:17Z</time>
      </trkpt>
      <trkpt lat="52.660597991198301" lon="-3.146727969869971">
        <ele>81.849999999999994</ele>
        <time>2026-07-11T09:41:18Z</time>
      </trkpt>
      <trkpt lat="52.660625986754894" lon="-3.146682037040591">
        <ele>82.329999999999998</ele>
        <time>2026-07-11T09:41:19Z</time>
      </trkpt>
      <trkpt lat="52.660661023110151" lon="-3.14663602039218">
        <ele>82.810000000000002</ele>
        <time>2026-07-11T09:41:20Z</time>
      </trkpt>
      <trkpt lat="52.660691030323505" lon="-3.146597966551781">
        <ele>83.290000000000006</ele>
        <time>2026-07-11T09:41:21Z</time>
      </trkpt>
      <trkpt lat="52.66072497703135" lon="-3.14655396156013">
        <ele>83.290000000000006</ele>
        <time>2026-07-11T09:41:22Z</time>
      </trkpt>
      <trkpt lat="52.661129990592599" lon="-3.145878966897726">
        <ele>86.659999999999997</ele>
        <time>2026-07-11T09:41:33Z</time>
      </trkpt>
      <trkpt lat="52.661162009462714" lon="-3.145823981612921">
        <ele>87.140000000000001</ele>
        <time>2026-07-11T09:41:34Z</time>
      </trkpt>
      <trkpt lat="52.661170978099108" lon="-3.145749969407916">
        <ele>87.140000000000001</ele>
        <time>2026-07-11T09:41:35Z</time>
      </trkpt>
      <trkpt lat="52.661182964220643" lon="-3.145651984959841">
        <ele>87.620000000000005</ele>
        <time>2026-07-11T09:41:36Z</time>
      </trkpt>
      <trkpt lat="52.661182964220643" lon="-3.145562969148159">
        <ele>87.620000000000005</ele>
        <time>2026-07-11T09:41:37Z</time>
      </trkpt>
      <trkpt lat="52.661182964220643" lon="-3.145466996356845">
        <ele>87.620000000000005</ele>
        <time>2026-07-11T09:41:38Z</time>
      </trkpt>
      <trkpt lat="52.661182964220643" lon="-3.145373035222292">
        <ele>87.620000000000005</ele>
        <time>2026-07-11T09:41:39Z</time>
      </trkpt>
      <trkpt lat="52.661179024726152" lon="-3.145192991942167">
        <ele>87.620000000000005</ele>
        <time>2026-07-11T09:41:41Z</time>
      </trkpt>
      <trkpt lat="52.661176007241011" lon="-3.145099030807614">
        <ele>87.620000000000005</ele>
        <time>2026-07-11T09:41:42Z</time>
      </trkpt>
      <trkpt lat="52.661162009462714" lon="-3.144550016149879">
        <ele>87.620000000000005</ele>
        <time>2026-07-11T09:41:49Z</time>
      </trkpt>
      <trkpt lat="52.661162009462714" lon="-3.144486984238029">
        <ele>87.140000000000001</ele>
        <time>2026-07-11T09:41:50Z</time>
      </trkpt>
      <trkpt lat="52.661126973107457" lon="-3.144378019496799">
        <ele>87.140000000000001</ele>
        <time>2026-07-11T09:41:51Z</time>
      </trkpt>
      <trkpt lat="52.661095960065722" lon="-3.144352035596967">
        <ele>86.659999999999997</ele>
        <time>2026-07-11T09:41:52Z</time>
      </trkpt>
      <trkpt lat="52.661066958680749" lon="-3.144327979534864">
        <ele>86.180000000000007</ele>
        <time>2026-07-11T09:41:53Z</time>
      </trkpt>
      <trkpt lat="52.661034017801285" lon="-3.144299983978272">
        <ele>85.689999999999998</ele>
        <time>2026-07-11T09:41:54Z</time>
      </trkpt>
      <trkpt lat="52.660806030035019" lon="-3.144108038395643">
        <ele>83.769999999999996</ele>
        <time>2026-07-11T09:41:59Z</time>
      </trkpt>
      <trkpt lat="52.66072397120297" lon="-3.144021034240723">
        <ele>83.290000000000006</ele>
        <time>2026-07-11T09:42:01Z</time>
      </trkpt>
      <trkpt lat="52.660651970654726" lon="-3.144086999818683">
        <ele>82.810000000000002</ele>
        <time>2026-07-11T09:42:02Z</time>
      </trkpt>
      <trkpt lat="52.66059597954154" lon="-3.144098985940218">
        <ele>82.329999999999998</ele>
        <time>2026-07-11T09:42:03Z</time>
      </trkpt>
      <trkpt lat="52.660543005913496" lon="-3.144133016467094">
        <ele>82.329999999999998</ele>
        <time>2026-07-11T09:42:04Z</time>
      </trkpt>
      <trkpt lat="52.660491038113832" lon="-3.144205017015338">
        <ele>82.329999999999998</ele>
        <time>2026-07-11T09:42:05Z</time>
      </trkpt>
      <trkpt lat="52.660437980666757" lon="-3.144304007291794">
        <ele>82.329999999999998</ele>
        <time>2026-07-11T09:42:06Z</time>
      </trkpt>
      <trkpt lat="52.660104967653751" lon="-3.145401030778885">
        <ele>83.290000000000006</ele>
        <time>2026-07-11T09:42:15Z</time>
      </trkpt>
      <trkpt lat="52.660076972097158" lon="-3.145511001348496">
        <ele>83.290000000000006</ele>
        <time>2026-07-11T09:42:16Z</time>
      </trkpt>
      <trkpt lat="52.660045959055424" lon="-3.145630024373531">
        <ele>82.810000000000002</ele>
        <time>2026-07-11T09:42:17Z</time>
      </trkpt>
      <trkpt lat="52.660060040652752" lon="-3.145730020478368">
        <ele>82.329999999999998</ele>
        <time>2026-07-11T09:42:18Z</time>
      </trkpt>
      <trkpt lat="52.660074038431048" lon="-3.145828004926443">
        <ele>82.329999999999998</ele>
        <time>2026-07-11T09:42:19Z</time>
      </trkpt>
      <trkpt lat="52.660087030380964" lon="-3.145919032394886">
        <ele>81.849999999999994</ele>
        <time>2026-07-11T09:42:20Z</time>
      </trkpt>
      <trkpt lat="52.6600990165025" lon="-3.146001007407904">
        <ele>81.849999999999994</ele>
        <time>2026-07-11T09:42:21Z</time>
      </trkpt>
      <trkpt lat="52.660111002624035" lon="-3.14608097076416">
        <ele>81.849999999999994</ele>
        <time>2026-07-11T09:42:22Z</time>
      </trkpt>
      <trkpt lat="52.660204041749239" lon="-3.146448014304042">
        <ele>82.329999999999998</ele>
        <time>2026-07-11T09:42:26Z</time>
      </trkpt>
      <trkpt lat="52.66022901982069" lon="-3.146528983488679">
        <ele>82.329999999999998</ele>
        <time>2026-07-11T09:42:27Z</time>
      </trkpt>
      <trkpt lat="52.66025198623538" lon="-3.146609030663967">
        <ele>82.329999999999998</ele>
        <time>2026-07-11T09:42:28Z</time>
      </trkpt>
      <trkpt lat="52.660255003720522" lon="-3.146655969321728">
        <ele>82.329999999999998</ele>
        <time>2026-07-11T09:42:29Z</time>
      </trkpt>
      <trkpt lat="52.660233965143561" lon="-3.146717995405197">
        <ele>82.329999999999998</ele>
        <time>2026-07-11T09:42:30Z</time>
      </trkpt>
      <trkpt lat="52.660195995122194" lon="-3.14683198928833">
        <ele>82.810000000000002</ele>
        <time>2026-07-11T09:42:31Z</time>
      </trkpt>
      <trkpt lat="52.66016498208046" lon="-3.14685101620853">
        <ele>82.810000000000002</ele>
        <time>2026-07-11T09:42:32Z</time>
      </trkpt>
      <trkpt lat="52.660115025937557" lon="-3.146883035078645">
        <ele>83.290000000000006</ele>
        <time>2026-07-11T09:42:33Z</time>
      </trkpt>
      <trkpt lat="52.660065991804004" lon="-3.146912958472967">
        <ele>83.290000000000006</ele>
        <time>2026-07-11T09:42:34Z</time>
      </trkpt>
      <trkpt lat="52.660015029832721" lon="-3.146944977343082">
        <ele>83.769999999999996</ele>
        <time>2026-07-11T09:42:35Z</time>
      </trkpt>
      <trkpt lat="52.659919979050756" lon="-3.14700298011303">
        <ele>83.769999999999996</ele>
        <time>2026-07-11T09:42:37Z</time>
      </trkpt>
      <trkpt lat="52.659876979887486" lon="-3.147029969841242">
        <ele>84.25</ele>
        <time>2026-07-11T09:42:38Z</time>
      </trkpt>
      <trkpt lat="52.659838004037738" lon="-3.147054025903344">
        <ele>84.25</ele>
        <time>2026-07-11T09:42:39Z</time>
      </trkpt>
      <trkpt lat="52.659807996824384" lon="-3.147072969004512">
        <ele>84.25</ele>
        <time>2026-07-11T09:42:40Z</time>
      </trkpt>
      <trkpt lat="52.659790981560946" lon="-3.147084033116698">
        <ele>84.25</ele>
        <time>2026-07-11T09:42:41Z</time>
      </trkpt>
      <trkpt lat="52.659790981560946" lon="-3.147084033116698">
        <ele>83.769999999999996</ele>
        <time>2026-07-11T09:42:51Z</time>
      </trkpt>
      <trkpt lat="52.659790981560946" lon="-3.147084033116698">
        <ele>84.25</ele>
        <time>2026-07-11T09:43:31Z</time>
      </trkpt>
      <trkpt lat="52.659790981560946" lon="-3.147084033116698">
        <ele>84.25</ele>
        <time>2026-07-11T09:44:14Z</time>
      </trkpt>
      <trkpt lat="52.659772960469127" lon="-3.147095013409853">
        <ele>85.209999999999994</ele>
        <time>2026-07-11T09:44:22Z</time>
      </trkpt>
      <trkpt lat="52.659741025418043" lon="-3.147114962339401">
        <ele>86.180000000000007</ele>
        <time>2026-07-11T09:44:23Z</time>
      </trkpt>
      <trkpt lat="52.659689979627728" lon="-3.147146981209517">
        <ele>87.620000000000005</ele>
        <time>2026-07-11T09:44:24Z</time>
      </trkpt>
      <trkpt lat="52.659077011048794" lon="-3.147635981440544">
        <ele>90.019999999999996</ele>
        <time>2026-07-11T09:44:35Z</time>
      </trkpt>
      <trkpt lat="52.658913983032107" lon="-3.147697001695633">
        <ele>90.019999999999996</ele>
        <time>2026-07-11T09:44:37Z</time>
      </trkpt>
      <trkpt lat="52.658834019675851" lon="-3.147716028615832">
        <ele>89.540000000000006</ele>
        <time>2026-07-11T09:44:38Z</time>
      </trkpt>
      <trkpt lat="52.65874701552093" lon="-3.147726003080607">
        <ele>89.540000000000006</ele>
        <time>2026-07-11T09:44:39Z</time>
      </trkpt>
      <trkpt lat="52.658189032226801" lon="-3.147313026711345">
        <ele>88.099999999999994</ele>
        <time>2026-07-11T09:44:46Z</time>
      </trkpt>
      <trkpt lat="52.6578039675951" lon="-3.147007003426552">
        <ele>87.620000000000005</ele>
        <time>2026-07-11T09:44:51Z</time>
      </trkpt>
      <trkpt lat="52.657724004238844" lon="-3.146942965686321">
        <ele>87.620000000000005</ele>
        <time>2026-07-11T09:44:52Z</time>
      </trkpt>
      <trkpt lat="52.656760001555085" lon="-3.146461006253958">
        <ele>87.140000000000001</ele>
        <time>2026-07-11T09:45:02Z</time>
      </trkpt>
      <trkpt lat="52.656561015173793" lon="-3.146368972957134">
        <ele>86.180000000000007</ele>
        <time>2026-07-11T09:45:04Z</time>
      </trkpt>
      <trkpt lat="52.656023986637592" lon="-3.146189013496041">
        <ele>84.730000000000004</ele>
        <time>2026-07-11T09:45:09Z</time>
      </trkpt>
      <trkpt lat="52.654988989233971" lon="-3.146213991567493">
        <ele>86.180000000000007</ele>
        <time>2026-07-11T09:45:17Z</time>
      </trkpt>
      <trkpt lat="52.653266005218029" lon="-3.146783960983157">
        <ele>86.659999999999997</ele>
        <time>2026-07-11T09:45:28Z</time>
      </trkpt>
      <trkpt lat="52.651688028126955" lon="-3.147464990615845">
        <ele>86.180000000000007</ele>
        <time>2026-07-11T09:45:38Z</time>
      </trkpt>
      <trkpt lat="52.649726998060942" lon="-3.148707021027803">
        <ele>88.099999999999994</ele>
        <time>2026-07-11T09:45:48Z</time>
      </trkpt>
      <trkpt lat="52.647366989403963" lon="-3.150193970650435">
        <ele>88.099999999999994</ele>
        <time>2026-07-11T09:45:59Z</time>
      </trkpt>
      <trkpt lat="52.645144024863839" lon="-3.151483023539186">
        <ele>84.25</ele>
        <time>2026-07-11T09:46:09Z</time>
      </trkpt>
      <trkpt lat="52.642877977341413" lon="-3.152237981557846">
        <ele>81.849999999999994</ele>
        <time>2026-07-11T09:46:19Z</time>
      </trkpt>
      <trkpt lat="52.640348989516497" lon="-3.152936026453972">
        <ele>79.450000000000003</ele>
        <time>2026-07-11T09:46:30Z</time>
      </trkpt>
      <trkpt lat="52.638861034065485" lon="-3.15329996868968">
        <ele>79.450000000000003</ele>
        <time>2026-07-11T09:46:38Z</time>
      </trkpt>
      <trkpt lat="52.637941958382726" lon="-3.153355959802866">
        <ele>81.370000000000005</ele>
        <time>2026-07-11T09:46:45Z</time>
      </trkpt>
      <trkpt lat="52.637871969491243" lon="-3.153315978124738">
        <ele>81.370000000000005</ele>
        <time>2026-07-11T09:46:46Z</time>
      </trkpt>
      <trkpt lat="52.63782000169158" lon="-3.15327599644661">
        <ele>80.890000000000001</ele>
        <time>2026-07-11T09:46:47Z</time>
      </trkpt>
      <trkpt lat="52.637784965336323" lon="-3.153249006718397">
        <ele>80.890000000000001</ele>
        <time>2026-07-11T09:46:48Z</time>
      </trkpt>
      <trkpt lat="52.637610035017133" lon="-3.152967961505055">
        <ele>79.930000000000007</ele>
        <time>2026-07-11T09:46:53Z</time>
      </trkpt>
      <trkpt lat="52.637580027803779" lon="-3.152819015085697">
        <ele>79.930000000000007</ele>
        <time>2026-07-11T09:46:54Z</time>
      </trkpt>
      <trkpt lat="52.637531999498606" lon="-3.15278003923595">
        <ele>79.930000000000007</ele>
        <time>2026-07-11T09:46:55Z</time>
      </trkpt>
      <trkpt lat="52.63745597563684" lon="-3.152736034244299">
        <ele>79.930000000000007</ele>
        <time>2026-07-11T09:46:56Z</time>
      </trkpt>
      <trkpt lat="52.637383975088596" lon="-3.152748020365834">
        <ele>80.409999999999997</ele>
        <time>2026-07-11T09:46:57Z</time>
      </trkpt>
      <trkpt lat="52.637306023389101" lon="-3.15282303839922">
        <ele>80.890000000000001</ele>
        <time>2026-07-11T09:46:58Z</time>
      </trkpt>
      <trkpt lat="52.637237040325999" lon="-3.152947006747127">
        <ele>80.890000000000001</ele>
        <time>2026-07-11T09:46:59Z</time>
      </trkpt>
      <trkpt lat="52.637193035334349" lon="-3.153070975095034">
        <ele>81.370000000000005</ele>
        <time>2026-07-11T09:47:00Z</time>
      </trkpt>
      <trkpt lat="52.637138972058892" lon="-3.153222016990185">
        <ele>81.370000000000005</ele>
        <time>2026-07-11T09:47:01Z</time>
      </trkpt>
      <trkpt lat="52.637109970673919" lon="-3.153416980057955">
        <ele>81.849999999999994</ele>
        <time>2026-07-11T09:47:02Z</time>
      </trkpt>
      <trkpt lat="52.637087004259229" lon="-3.153608003631234">
        <ele>81.849999999999994</ele>
        <time>2026-07-11T09:47:03Z</time>
      </trkpt>
      <trkpt lat="52.637087004259229" lon="-3.153807995840907">
        <ele>82.329999999999998</ele>
        <time>2026-07-11T09:47:04Z</time>
      </trkpt>
      <trkpt lat="52.637050040066242" lon="-3.154016034677625">
        <ele>82.810000000000002</ele>
        <time>2026-07-11T09:47:05Z</time>
      </trkpt>
      <trkpt lat="52.636992037296295" lon="-3.154210997745395">
        <ele>82.810000000000002</ele>
        <time>2026-07-11T09:47:06Z</time>
      </trkpt>
      <trkpt lat="52.636932022869587" lon="-3.15441501326859">
        <ele>83.290000000000006</ele>
        <time>2026-07-11T09:47:07Z</time>
      </trkpt>
      <trkpt lat="52.636843007057905" lon="-3.154605031013489">
        <ele>82.810000000000002</ele>
        <time>2026-07-11T09:47:08Z</time>
      </trkpt>
      <trkpt lat="52.63674502260983" lon="-3.154790019616485">
        <ele>82.810000000000002</ele>
        <time>2026-07-11T09:47:09Z</time>
      </trkpt>
      <trkpt lat="52.635762998834252" lon="-3.156408984214068">
        <ele>82.810000000000002</ele>
        <time>2026-07-11T09:47:17Z</time>
      </trkpt>
      <trkpt lat="52.634019982069731" lon="-3.158966973423958">
        <ele>80.409999999999997</ele>
        <time>2026-07-11T09:47:28Z</time>
      </trkpt>
      <trkpt lat="52.631886033341289" lon="-3.161883037537336">
        <ele>83.290000000000006</ele>
        <time>2026-07-11T09:47:40Z</time>
      </trkpt>
      <trkpt lat="52.629777984693646" lon="-3.16429702565074">
        <ele>81.370000000000005</ele>
        <time>2026-07-11T09:47:51Z</time>
      </trkpt>
      <trkpt lat="52.627470027655363" lon="-3.166149007156491">
        <ele>84.730000000000004</ele>
        <time>2026-07-11T09:48:02Z</time>
      </trkpt>
      <trkpt lat="52.625934965908527" lon="-3.166913017630577">
        <ele>86.180000000000007</ele>
        <time>2026-07-11T09:48:09Z</time>
      </trkpt>
      <trkpt lat="52.624084996059537" lon="-3.168497029691935">
        <ele>85.689999999999998</ele>
        <time>2026-07-11T09:48:18Z</time>
      </trkpt>
      <trkpt lat="52.620446998625994" lon="-3.172022961080074">
        <ele>87.140000000000001</ele>
        <time>2026-07-11T09:48:36Z</time>
      </trkpt>
      <trkpt lat="52.616862980648875" lon="-3.175511006265879">
        <ele>87.620000000000005</ele>
        <time>2026-07-11T09:48:54Z</time>
      </trkpt>
      <trkpt lat="52.615906018763781" lon="-3.176457993686199">
        <ele>87.620000000000005</ele>
        <time>2026-07-11T09:49:00Z</time>
      </trkpt>
      <trkpt lat="52.615430010482669" lon="-3.177070040255785">
        <ele>87.140000000000001</ele>
        <time>2026-07-11T09:49:05Z</time>
      </trkpt>
      <trkpt lat="52.614900022745132" lon="-3.177818041294813">
        <ele>88.099999999999994</ele>
        <time>2026-07-11T09:49:11Z</time>
      </trkpt>
      <trkpt lat="52.61435997672379" lon="-3.178820013999939">
        <ele>90.019999999999996</ele>
        <time>2026-07-11T09:49:21Z</time>
      </trkpt>
      <trkpt lat="52.613733010366559" lon="-3.18017503246665">
        <ele>92.900000000000006</ele>
        <time>2026-07-11T09:49:30Z</time>
      </trkpt>
      <trkpt lat="52.613192964345217" lon="-3.181261997669935">
        <ele>94.349999999999994</ele>
        <time>2026-07-11T09:49:39Z</time>
      </trkpt>
      <trkpt lat="52.612461978569627" lon="-3.182271011173725">
        <ele>98.670000000000002</ele>
        <time>2026-07-11T09:49:48Z</time>
      </trkpt>
      <trkpt lat="52.611637031659484" lon="-3.183049019426107">
        <ele>99.629999999999995</ele>
        <time>2026-07-11T09:49:56Z</time>
      </trkpt>
      <trkpt lat="52.610330963507295" lon="-3.183715967461467">
        <ele>99.150000000000006</ele>
        <time>2026-07-11T09:50:05Z</time>
      </trkpt>
      <trkpt lat="52.609010981395841" lon="-3.184163980185986">
        <ele>97.709999999999994</ele>
        <time>2026-07-11T09:50:13Z</time>
      </trkpt>
      <trkpt lat="52.608077991753817" lon="-3.184433961287141">
        <ele>95.310000000000002</ele>
        <time>2026-07-11T09:50:18Z</time>
      </trkpt>
      <trkpt lat="52.607881017029285" lon="-3.184444019570947">
        <ele>94.829999999999998</ele>
        <time>2026-07-11T09:50:19Z</time>
      </trkpt>
      <trkpt lat="52.606231961399317" lon="-3.184715006500483">
        <ele>91.459999999999994</ele>
        <time>2026-07-11T09:50:27Z</time>
      </trkpt>
      <trkpt lat="52.605054974555969" lon="-3.185209035873413">
        <ele>92.420000000000002</ele>
        <time>2026-07-11T09:50:32Z</time>
      </trkpt>
      <trkpt lat="52.603906989097595" lon="-3.18587196059525">
        <ele>92.900000000000006</ele>
        <time>2026-07-11T09:50:37Z</time>
      </trkpt>
      <trkpt lat="52.602889006957412" lon="-3.186487024649978">
        <ele>94.829999999999998</ele>
        <time>2026-07-11T09:50:43Z</time>
      </trkpt>
      <trkpt lat="52.601068038493395" lon="-3.187696030363441">
        <ele>97.709999999999994</ele>
        <time>2026-07-11T09:50:54Z</time>
      </trkpt>
      <trkpt lat="52.599372966215014" lon="-3.189012994989753">
        <ele>96.75</ele>
        <time>2026-07-11T09:51:04Z</time>
      </trkpt>
      <trkpt lat="52.597960028797388" lon="-3.190138014033437">
        <ele>96.269999999999996</ele>
        <time>2026-07-11T09:51:12Z</time>
      </trkpt>
      <trkpt lat="52.596142999827862" lon="-3.191558998078108">
        <ele>96.75</ele>
        <time>2026-07-11T09:51:24Z</time>
      </trkpt>
      <trkpt lat="52.595071960240602" lon="-3.192279003560543">
        <ele>97.709999999999994</ele>
        <time>2026-07-11T09:51:32Z</time>
      </trkpt>
      <trkpt lat="52.594543984159827" lon="-3.192505985498428">
        <ele>97.709999999999994</ele>
        <time>2026-07-11T09:51:36Z</time>
      </trkpt>
      <trkpt lat="52.593550980091095" lon="-3.19272299297154">
        <ele>98.189999999999998</ele>
        <time>2026-07-11T09:51:45Z</time>
      </trkpt>
      <trkpt lat="52.592367958277464" lon="-3.192779989913106">
        <ele>99.629999999999995</ele>
        <time>2026-07-11T09:51:57Z</time>
      </trkpt>
      <trkpt lat="52.591016041114926" lon="-3.192673958837986">
        <ele>97.709999999999994</ele>
        <time>2026-07-11T09:52:08Z</time>
      </trkpt>
      <trkpt lat="52.590346997603774" lon="-3.192441025748849">
        <ele>97.230000000000004</ele>
        <time>2026-07-11T09:52:13Z</time>
      </trkpt>
      <trkpt lat="52.590214982628822" lon="-3.192391991615295">
        <ele>96.75</ele>
        <time>2026-07-11T09:52:14Z</time>
      </trkpt>
      <trkpt lat="52.590078022330999" lon="-3.192328959703445">
        <ele>96.269999999999996</ele>
        <time>2026-07-11T09:52:15Z</time>
      </trkpt>
      <trkpt lat="52.589945001527667" lon="-3.192267017439008">
        <ele>95.790000000000006</ele>
        <time>2026-07-11T09:52:16Z</time>
      </trkpt>
      <trkpt lat="52.589811980724335" lon="-3.192203985527158">
        <ele>95.790000000000006</ele>
        <time>2026-07-11T09:52:17Z</time>
      </trkpt>
      <trkpt lat="52.589678037911654" lon="-3.192141959443688">
        <ele>95.310000000000002</ele>
        <time>2026-07-11T09:52:18Z</time>
      </trkpt>
      <trkpt lat="52.589548034593463" lon="-3.192080017179251">
        <ele>94.829999999999998</ele>
        <time>2026-07-11T09:52:19Z</time>
      </trkpt>
      <trkpt lat="52.589419037103653" lon="-3.192018996924162">
        <ele>94.349999999999994</ele>
        <time>2026-07-11T09:52:20Z</time>
      </trkpt>
      <trkpt lat="52.587665040045977" lon="-3.19117502309382">
        <ele>97.709999999999994</ele>
        <time>2026-07-11T09:52:34Z</time>
      </trkpt>
      <trkpt lat="52.586315972730517" lon="-3.190527018159628">
        <ele>97.709999999999994</ele>
        <time>2026-07-11T09:52:45Z</time>
      </trkpt>
      <trkpt lat="52.585230013355613" lon="-3.190141031518579">
        <ele>93.870000000000005</ele>
        <time>2026-07-11T09:52:54Z</time>
      </trkpt>
      <trkpt lat="52.585107972845435" lon="-3.190110018476844">
        <ele>93.390000000000001</ele>
        <time>2026-07-11T09:52:55Z</time>
      </trkpt>
      <trkpt lat="52.584208007901907" lon="-3.190115969628096">
        <ele>92.900000000000006</ele>
        <time>2026-07-11T09:53:02Z</time>
      </trkpt>
      <trkpt lat="52.583627980202436" lon="-3.190312022343278">
        <ele>92.900000000000006</ele>
        <time>2026-07-11T09:53:07Z</time>
      </trkpt>
      <trkpt lat="52.583318017423153" lon="-3.190524000674486">
        <ele>92.900000000000006</ele>
        <time>2026-07-11T09:53:10Z</time>
      </trkpt>
      <trkpt lat="52.583223972469568" lon="-3.190609999001026">
        <ele>92.900000000000006</ele>
        <time>2026-07-11T09:53:11Z</time>
      </trkpt>
      <trkpt lat="52.582949968054891" lon="-3.190868999809027">
        <ele>92.900000000000006</ele>
        <time>2026-07-11T09:53:14Z</time>
      </trkpt>
      <trkpt lat="52.582231974229217" lon="-3.191967029124498">
        <ele>93.390000000000001</ele>
        <time>2026-07-11T09:53:22Z</time>
      </trkpt>
      <trkpt lat="52.582043968141079" lon="-3.192396014928818">
        <ele>93.390000000000001</ele>
        <time>2026-07-11T09:53:24Z</time>
      </trkpt>
      <trkpt lat="52.581942966207862" lon="-3.192647974938154">
        <ele>93.390000000000001</ele>
        <time>2026-07-11T09:53:25Z</time>
      </trkpt>
      <trkpt lat="52.58092699572444" lon="-3.195080989971757">
        <ele>94.349999999999994</ele>
        <time>2026-07-11T09:53:34Z</time>
      </trkpt>
      <trkpt lat="52.57953098975122" lon="-3.198173996061087">
        <ele>95.790000000000006</ele>
        <time>2026-07-11T09:53:46Z</time>
      </trkpt>
      <trkpt lat="52.578261969611049" lon="-3.200768027454615">
        <ele>98.189999999999998</ele>
        <time>2026-07-11T09:53:56Z</time>
      </trkpt>
      <trkpt lat="52.576559018343687" lon="-3.203456019982696">
        <ele>98.189999999999998</ele>
        <time>2026-07-11T09:54:07Z</time>
      </trkpt>
      <trkpt lat="52.575164018198848" lon="-3.205320993438363">
        <ele>102.04000000000001</ele>
        <time>2026-07-11T09:54:16Z</time>
      </trkpt>
      <trkpt lat="52.572883972898126" lon="-3.207601038739085">
        <ele>105.88</ele>
        <time>2026-07-11T09:54:29Z</time>
      </trkpt>
      <trkpt lat="52.571739004924893" lon="-3.20896502584219">
        <ele>101.56</ele>
        <time>2026-07-11T09:54:36Z</time>
      </trkpt>
      <trkpt lat="52.57121798582375" lon="-3.209609007462859">
        <ele>98.670000000000002</ele>
        <time>2026-07-11T09:54:40Z</time>
      </trkpt>
      <trkpt lat="52.571098040789366" lon="-3.209760971367359">
        <ele>97.709999999999994</ele>
        <time>2026-07-11T09:54:41Z</time>
      </trkpt>
      <trkpt lat="52.569677978754044" lon="-3.211647989228368">
        <ele>94.349999999999994</ele>
        <time>2026-07-11T09:54:52Z</time>
      </trkpt>
      <trkpt lat="52.568558994680643" lon="-3.213861985132098">
        <ele>95.790000000000006</ele>
        <time>2026-07-11T09:55:01Z</time>
      </trkpt>
      <trkpt lat="52.567089982330799" lon="-3.21710703894496">
        <ele>95.790000000000006</ele>
        <time>2026-07-11T09:55:13Z</time>
      </trkpt>
      <trkpt lat="52.566151041537523" lon="-3.220145981758833">
        <ele>96.269999999999996</ele>
        <time>2026-07-11T09:55:23Z</time>
      </trkpt>
      <trkpt lat="52.565207993611693" lon="-3.221938032656908">
        <ele>98.670000000000002</ele>
        <time>2026-07-11T09:55:31Z</time>
      </trkpt>
      <trkpt lat="52.56453400477767" lon="-3.223795965313911">
        <ele>101.56</ele>
        <time>2026-07-11T09:55:39Z</time>
      </trkpt>
      <trkpt lat="52.564006028696895" lon="-3.225562032312155">
        <ele>104.92</ele>
        <time>2026-07-11T09:55:48Z</time>
      </trkpt>
      <trkpt lat="52.563519962131977" lon="-3.226546989753842">
        <ele>105.40000000000001</ele>
        <time>2026-07-11T09:55:54Z</time>
      </trkpt>
      <trkpt lat="52.56341602653265" lon="-3.226695014163852">
        <ele>105.40000000000001</ele>
        <time>2026-07-11T09:55:55Z</time>
      </trkpt>
      <trkpt lat="52.563312007114291" lon="-3.226842032745481">
        <ele>105.88</ele>
        <time>2026-07-11T09:55:56Z</time>
      </trkpt>
      <trkpt lat="52.563178986310959" lon="-3.22694999165833">
        <ele>105.88</ele>
        <time>2026-07-11T09:55:57Z</time>
      </trkpt>
      <trkpt lat="52.563047977164388" lon="-3.227043030783534">
        <ele>105.88</ele>
        <time>2026-07-11T09:55:58Z</time>
      </trkpt>
      <trkpt lat="52.562917973846197" lon="-3.227133974432945">
        <ele>105.88</ele>
        <time>2026-07-11T09:55:59Z</time>
      </trkpt>
      <trkpt lat="52.56201901473105" lon="-3.227671002969146">
        <ele>100.59999999999999</ele>
        <time>2026-07-11T09:56:06Z</time>
      </trkpt>
      <trkpt lat="52.561877025291324" lon="-3.227769993245602">
        <ele>99.629999999999995</ele>
        <time>2026-07-11T09:56:07Z</time>
      </trkpt>
      <trkpt lat="52.561635039746761" lon="-3.227935032919049">
        <ele>98.670000000000002</ele>
        <time>2026-07-11T09:56:09Z</time>
      </trkpt>
      <trkpt lat="52.561341002583504" lon="-3.228135025128722">
        <ele>97.709999999999994</ele>
        <time>2026-07-11T09:56:11Z</time>
      </trkpt>
      <trkpt lat="52.560195028781891" lon="-3.229366997256875">
        <ele>93.390000000000001</ele>
        <time>2026-07-11T09:56:20Z</time>
      </trkpt>
      <trkpt lat="52.560061002150178" lon="-3.229509992524982">
        <ele>93.390000000000001</ele>
        <time>2026-07-11T09:56:21Z</time>
      </trkpt>
      <trkpt lat="52.5589270144701" lon="-3.230351032689214">
        <ele>92.900000000000006</ele>
        <time>2026-07-11T09:56:29Z</time>
      </trkpt>
      <trkpt lat="52.557539977133274" lon="-3.231196012347937">
        <ele>94.349999999999994</ele>
        <time>2026-07-11T09:56:39Z</time>
      </trkpt>
      <trkpt lat="52.556258970871568" lon="-3.231951976194978">
        <ele>95.790000000000006</ele>
        <time>2026-07-11T09:56:48Z</time>
      </trkpt>
      <trkpt lat="52.555033033713698" lon="-3.232773989439011">
        <ele>100.59999999999999</ele>
        <time>2026-07-11T09:56:56Z</time>
      </trkpt>
      <trkpt lat="52.553773988038301" lon="-3.233791971579194">
        <ele>103</ele>
        <time>2026-07-11T09:57:03Z</time>
      </trkpt>
      <trkpt lat="52.552513014525175" lon="-3.234750023111701">
        <ele>102.52</ele>
        <time>2026-07-11T09:57:11Z</time>
      </trkpt>
      <trkpt lat="52.550692968070507" lon="-3.236139994114637">
        <ele>103.95999999999999</ele>
        <time>2026-07-11T09:57:23Z</time>
      </trkpt>
      <trkpt lat="52.549468036741018" lon="-3.237144984304905">
        <ele>105.88</ele>
        <time>2026-07-11T09:57:32Z</time>
      </trkpt>
      <trkpt lat="52.547824010252953" lon="-3.238553982228041">
        <ele>107.31999999999999</ele>
        <time>2026-07-11T09:57:45Z</time>
      </trkpt>
      <trkpt lat="52.547042984515429" lon="-3.239357974380255">
        <ele>108.29000000000001</ele>
        <time>2026-07-11T09:57:50Z</time>
      </trkpt>
      <trkpt lat="52.545943027362227" lon="-3.240600004792213">
        <ele>110.69</ele>
        <time>2026-07-11T09:57:55Z</time>
      </trkpt>
      <trkpt lat="52.544786995276809" lon="-3.241917975246906">
        <ele>113.09</ele>
        <time>2026-07-11T09:58:01Z</time>
      </trkpt>
      <trkpt lat="52.54352199845016" lon="-3.243003012612462">
        <ele>115.5</ele>
        <time>2026-07-11T09:58:08Z</time>
      </trkpt>
      <trkpt lat="52.542000012472272" lon="-3.24372997507453">
        <ele>113.09</ele>
        <time>2026-07-11T09:58:16Z</time>
      </trkpt>
      <trkpt lat="52.540608029812574" lon="-3.24441502802074">
        <ele>111.65000000000001</ele>
        <time>2026-07-11T09:58:24Z</time>
      </trkpt>
      <trkpt lat="52.539145974442363" lon="-3.245586985722184">
        <ele>110.20999999999999</ele>
        <time>2026-07-11T09:58:33Z</time>
      </trkpt>
      <trkpt lat="52.537783998996019" lon="-3.247394040226936">
        <ele>108.29000000000001</ele>
        <time>2026-07-11T09:58:42Z</time>
      </trkpt>
      <trkpt lat="52.536418000236154" lon="-3.250014977529645">
        <ele>107.81</ele>
        <time>2026-07-11T09:58:53Z</time>
      </trkpt>
      <trkpt lat="52.53486399538815" lon="-3.252971023321152">
        <ele>109.25</ele>
        <time>2026-07-11T09:59:06Z</time>
      </trkpt>
      <trkpt lat="52.53363898023963" lon="-3.255536975339055">
        <ele>112.13</ele>
        <time>2026-07-11T09:59:16Z</time>
      </trkpt>
      <trkpt lat="52.53247900865972" lon="-3.257276974618435">
        <ele>116.45999999999999</ele>
        <time>2026-07-11T09:59:25Z</time>
      </trkpt>
      <trkpt lat="52.531209988519549" lon="-3.258858975023031">
        <ele>121.26000000000001</ele>
        <time>2026-07-11T09:59:35Z</time>
      </trkpt>
      <trkpt lat="52.529105041176081" lon="-3.260955959558487">
        <ele>119.34</ele>
        <time>2026-07-11T09:59:50Z</time>
      </trkpt>
      <trkpt lat="52.526941001415253" lon="-3.263533981516957">
        <ele>120.78</ele>
        <time>2026-07-11T10:00:05Z</time>
      </trkpt>
      <trkpt lat="52.524634972214699" lon="-3.266221974045038">
        <ele>124.15000000000001</ele>
        <time>2026-07-11T10:00:20Z</time>
      </trkpt>
      <trkpt lat="52.522929003462195" lon="-3.268230026587844">
        <ele>124.63</ele>
        <time>2026-07-11T10:00:31Z</time>
      </trkpt>
      <trkpt lat="52.522288039326668" lon="-3.2694480009377">
        <ele>125.11</ele>
        <time>2026-07-11T10:00:36Z</time>
      </trkpt>
      <trkpt lat="52.522212015464902" lon="-3.269756035879254">
        <ele>125.59</ele>
        <time>2026-07-11T10:00:37Z</time>
      </trkpt>
      <trkpt lat="52.522154012694955" lon="-3.270077984780073">
        <ele>126.06999999999999</ele>
        <time>2026-07-11T10:00:38Z</time>
      </trkpt>
      <trkpt lat="52.522118976339698" lon="-3.270409991964698">
        <ele>126.06999999999999</ele>
        <time>2026-07-11T10:00:39Z</time>
      </trkpt>
      <trkpt lat="52.522091986611485" lon="-3.270748034119606">
        <ele>126.55</ele>
        <time>2026-07-11T10:00:40Z</time>
      </trkpt>
      <trkpt lat="52.521760985255241" lon="-3.273161016404629">
        <ele>125.11</ele>
        <time>2026-07-11T10:00:48Z</time>
      </trkpt>
      <trkpt lat="52.521209036931396" lon="-3.276006001979113">
        <ele>116.94</ele>
        <time>2026-07-11T10:00:59Z</time>
      </trkpt>
      <trkpt lat="52.520922962576151" lon="-3.278609002009034">
        <ele>116.45999999999999</ele>
        <time>2026-07-11T10:01:09Z</time>
      </trkpt>
      <trkpt lat="52.52091902308166" lon="-3.279822031036019">
        <ele>116.94</ele>
        <time>2026-07-11T10:01:15Z</time>
      </trkpt>
      <trkpt lat="52.520896978676319" lon="-3.279956979677081">
        <ele>116.94</ele>
        <time>2026-07-11T10:01:16Z</time>
      </trkpt>
      <trkpt lat="52.520829001441598" lon="-3.2801269646734">
        <ele>116.94</ele>
        <time>2026-07-11T10:01:17Z</time>
      </trkpt>
      <trkpt lat="52.520700003951788" lon="-3.280398035421968">
        <ele>116.45999999999999</ele>
        <time>2026-07-11T10:01:19Z</time>
      </trkpt>
      <trkpt lat="52.520700003951788" lon="-3.280534995719791">
        <ele>116.94</ele>
        <time>2026-07-11T10:01:20Z</time>
      </trkpt>
      <trkpt lat="52.520767981186509" lon="-3.281142013147473">
        <ele>117.90000000000001</ele>
        <time>2026-07-11T10:01:23Z</time>
      </trkpt>
      <trkpt lat="52.520710984244943" lon="-3.281338987872005">
        <ele>117.90000000000001</ele>
        <time>2026-07-11T10:01:24Z</time>
      </trkpt>
      <trkpt lat="52.520646024495363" lon="-3.281535040587187">
        <ele>118.38</ele>
        <time>2026-07-11T10:01:25Z</time>
      </trkpt>
      <trkpt lat="52.519902968779206" lon="-3.283386016264558">
        <ele>127.03</ele>
        <time>2026-07-11T10:01:33Z</time>
      </trkpt>
      <trkpt lat="52.518865037709475" lon="-3.285015039145947">
        <ele>139.53</ele>
        <time>2026-07-11T10:01:40Z</time>
      </trkpt>
      <trkpt lat="52.51653696410358" lon="-3.288068985566497">
        <ele>157.31</ele>
        <time>2026-07-11T10:01:53Z</time>
      </trkpt>
      <trkpt lat="52.514987988397479" lon="-3.290058011189103">
        <ele>164.03999999999999</ele>
        <time>2026-07-11T10:02:02Z</time>
      </trkpt>
      <trkpt lat="52.512986976653337" lon="-3.292640978470445">
        <ele>167.41</ele>
        <time>2026-07-11T10:02:15Z</time>
      </trkpt>
      <trkpt lat="52.512245010584593" lon="-3.293626019731164">
        <ele>168.37</ele>
        <time>2026-07-11T10:02:22Z</time>
      </trkpt>
      <trkpt lat="52.512137973681092" lon="-3.293727021664381">
        <ele>168.37</ele>
        <time>2026-07-11T10:02:27Z</time>
      </trkpt>
      <trkpt lat="52.512044012546539" lon="-3.293764991685748">
        <ele>167.88999999999999</ele>
        <time>2026-07-11T10:02:35Z</time>
      </trkpt>
      <trkpt lat="52.511966982856393" lon="-3.293796004727483">
        <ele>167.88999999999999</ele>
        <time>2026-07-11T10:02:36Z</time>
      </trkpt>
      <trkpt lat="52.511905962601304" lon="-3.293773038312793">
        <ele>167.41</ele>
        <time>2026-07-11T10:02:37Z</time>
      </trkpt>
      <trkpt lat="52.511727008968592" lon="-3.293638005852699">
        <ele>166.93000000000001</ele>
        <time>2026-07-11T10:02:39Z</time>
      </trkpt>
      <trkpt lat="52.511646039783955" lon="-3.293526023626328">
        <ele>166.44999999999999</ele>
        <time>2026-07-11T10:02:40Z</time>
      </trkpt>
      <trkpt lat="52.511579990386963" lon="-3.293336005881429">
        <ele>165.96000000000001</ele>
        <time>2026-07-11T10:02:41Z</time>
      </trkpt>
      <trkpt lat="52.511535985395312" lon="-3.293139031156898">
        <ele>165.47999999999999</ele>
        <time>2026-07-11T10:02:42Z</time>
      </trkpt>
      <trkpt lat="52.511500027030706" lon="-3.292944990098476">
        <ele>165.47999999999999</ele>
        <time>2026-07-11T10:02:43Z</time>
      </trkpt>
      <trkpt lat="52.511374969035387" lon="-3.29211400821805">
        <ele>164.03999999999999</ele>
        <time>2026-07-11T10:02:49Z</time>
      </trkpt>
      <trkpt lat="52.511366000398993" lon="-3.292015017941594">
        <ele>163.56</ele>
        <time>2026-07-11T10:02:53Z</time>
      </trkpt>
      <trkpt lat="52.511366000398993" lon="-3.292015017941594">
        <ele>163.56</ele>
        <time>2026-07-11T10:02:54Z</time>
      </trkpt>
      <trkpt lat="52.511341022327542" lon="-3.292021974921227">
        <ele>163.56</ele>
        <time>2026-07-11T10:02:55Z</time>
      </trkpt>
      <trkpt lat="52.511312020942569" lon="-3.292030021548271">
        <ele>163.56</ele>
        <time>2026-07-11T10:02:56Z</time>
      </trkpt>
      <trkpt lat="52.511275978758931" lon="-3.292039996013045">
        <ele>163.56</ele>
        <time>2026-07-11T10:02:57Z</time>
      </trkpt>
      <trkpt lat="52.511224010959268" lon="-3.292054999619722">
        <ele>163.08000000000001</ele>
        <time>2026-07-11T10:02:58Z</time>
      </trkpt>
      <trkpt lat="52.510974984616041" lon="-3.292125994339585">
        <ele>164.03999999999999</ele>
        <time>2026-07-11T10:03:01Z</time>
      </trkpt>
      <trkpt lat="52.510578017681837" lon="-3.29222297295928">
        <ele>169.33000000000001</ele>
        <time>2026-07-11T10:03:05Z</time>
      </trkpt>
      <trkpt lat="52.510450026020408" lon="-3.292202018201351">
        <ele>171.72999999999999</ele>
        <time>2026-07-11T10:03:07Z</time>
      </trkpt>
      <trkpt lat="52.510399986058474" lon="-3.292192965745926">
        <ele>173.16999999999999</ele>
        <time>2026-07-11T10:03:08Z</time>
      </trkpt>
      <trkpt lat="52.510350029915571" lon="-3.29220000654459">
        <ele>174.13999999999999</ele>
        <time>2026-07-11T10:03:09Z</time>
      </trkpt>
      <trkpt lat="52.510310970246792" lon="-3.292272007092834">
        <ele>175.58000000000001</ele>
        <time>2026-07-11T10:03:10Z</time>
      </trkpt>
      <trkpt lat="52.510270988568664" lon="-3.292348030954599">
        <ele>176.53999999999999</ele>
        <time>2026-07-11T10:03:11Z</time>
      </trkpt>
      <trkpt lat="52.510231006890535" lon="-3.292421037331224">
        <ele>177.97999999999999</ele>
        <time>2026-07-11T10:03:12Z</time>
      </trkpt>
      <trkpt lat="52.510178033262491" lon="-3.292489014565945">
        <ele>178.94</ele>
        <time>2026-07-11T10:03:13Z</time>
      </trkpt>
      <trkpt lat="52.510121958330274" lon="-3.292536037042737">
        <ele>179.90000000000001</ele>
        <time>2026-07-11T10:03:14Z</time>
      </trkpt>
      <trkpt lat="52.509503960609436" lon="-3.292718008160591">
        <ele>190</ele>
        <time>2026-07-11T10:03:21Z</time>
      </trkpt>
      <trkpt lat="52.509421985596418" lon="-3.29273896291852">
        <ele>191.91999999999999</ele>
        <time>2026-07-11T10:03:22Z</time>
      </trkpt>
      <trkpt lat="52.509192992001772" lon="-3.292795959860086">
        <ele>199.13</ele>
        <time>2026-07-11T10:03:25Z</time>
      </trkpt>
      <trkpt lat="52.509115040302277" lon="-3.292815992608666">
        <ele>201.53</ele>
        <time>2026-07-11T10:03:26Z</time>
      </trkpt>
      <trkpt lat="52.508571976795793" lon="-3.29295395873487">
        <ele>216.43000000000001</ele>
        <time>2026-07-11T10:03:33Z</time>
      </trkpt>
      <trkpt lat="52.508502993732691" lon="-3.292970973998308">
        <ele>217.88</ele>
        <time>2026-07-11T10:03:34Z</time>
      </trkpt>
      <trkpt lat="52.508425964042544" lon="-3.292991006746888">
        <ele>219.31999999999999</ele>
        <time>2026-07-11T10:03:35Z</time>
      </trkpt>
      <trkpt lat="52.507862029597163" lon="-3.293401971459389">
        <ele>225.56999999999999</ele>
        <time>2026-07-11T10:03:43Z</time>
      </trkpt>
      <trkpt lat="52.50779002904892" lon="-3.293482018634677">
        <ele>226.05000000000001</ele>
        <time>2026-07-11T10:03:44Z</time>
      </trkpt>
      <trkpt lat="52.507682992145419" lon="-3.293709000572562">
        <ele>227.00999999999999</ele>
        <time>2026-07-11T10:03:46Z</time>
      </trkpt>
      <trkpt lat="52.507529016584158" lon="-3.294032961130142">
        <ele>230.37</ele>
        <time>2026-07-11T10:03:49Z</time>
      </trkpt>
      <trkpt lat="52.507482999935746" lon="-3.29413203522563">
        <ele>231.81</ele>
        <time>2026-07-11T10:03:50Z</time>
      </trkpt>
      <trkpt lat="52.507343022152781" lon="-3.294428000226617">
        <ele>234.69999999999999</ele>
        <time>2026-07-11T10:03:53Z</time>
      </trkpt>
      <trkpt lat="52.507302034646273" lon="-3.294513998553157">
        <ele>235.66</ele>
        <time>2026-07-11T10:03:54Z</time>
      </trkpt>
      <trkpt lat="52.507245959714055" lon="-3.294632015749812">
        <ele>236.62</ele>
        <time>2026-07-11T10:03:55Z</time>
      </trkpt>
      <trkpt lat="52.507177982479334" lon="-3.294647019356489">
        <ele>237.58000000000001</ele>
        <time>2026-07-11T10:03:56Z</time>
      </trkpt>
      <trkpt lat="52.50716800801456" lon="-3.294626986607909">
        <ele>238.53999999999999</ele>
        <time>2026-07-11T10:03:57Z</time>
      </trkpt>
      <trkpt lat="52.507155016064644" lon="-3.294599996879697">
        <ele>239.50999999999999</ele>
        <time>2026-07-11T10:03:58Z</time>
      </trkpt>
      <trkpt lat="52.507135989144444" lon="-3.294539982452989">
        <ele>240.94999999999999</ele>
        <time>2026-07-11T10:03:59Z</time>
      </trkpt>
      <trkpt lat="52.507129032164812" lon="-3.294481979683042">
        <ele>242.38999999999999</ele>
        <time>2026-07-11T10:04:00Z</time>
      </trkpt>
      <trkpt lat="52.507118973881006" lon="-3.29439103603363">
        <ele>242.38999999999999</ele>
        <time>2026-07-11T10:04:01Z</time>
      </trkpt>
      <trkpt lat="52.507106987759471" lon="-3.294280981644988">
        <ele>243.34999999999999</ele>
        <time>2026-07-11T10:04:02Z</time>
      </trkpt>
      <trkpt lat="52.50706197693944" lon="-3.29387697391212">
        <ele>244.31</ele>
        <time>2026-07-11T10:04:05Z</time>
      </trkpt>
      <trkpt lat="52.507045967504382" lon="-3.293732972815633">
        <ele>244.78999999999999</ele>
        <time>2026-07-11T10:04:06Z</time>
      </trkpt>
      <trkpt lat="52.506883023306727" lon="-3.292267983779311">
        <ele>258.73000000000002</ele>
        <time>2026-07-11T10:04:16Z</time>
      </trkpt>
      <trkpt lat="52.506874976679683" lon="-3.292191037908196">
        <ele>260.17000000000002</ele>
        <time>2026-07-11T10:04:17Z</time>
      </trkpt>
      <trkpt lat="52.50686801970005" lon="-3.292131023481488">
        <ele>261.13999999999999</ele>
        <time>2026-07-11T10:04:18Z</time>
      </trkpt>
      <trkpt lat="52.506863996386528" lon="-3.29209104180336">
        <ele>262.57999999999998</ele>
        <time>2026-07-11T10:04:19Z</time>
      </trkpt>
      <trkpt lat="52.506863996386528" lon="-3.29209104180336">
        <ele>263.54000000000002</ele>
        <time>2026-07-11T10:04:29Z</time>
      </trkpt>
      <trkpt lat="52.506863996386528" lon="-3.29209104180336">
        <ele>263.54000000000002</ele>
        <time>2026-07-11T10:04:58Z</time>
      </trkpt>
      <trkpt lat="52.506863996386528" lon="-3.29209104180336">
        <ele>266.89999999999998</ele>
        <time>2026-07-11T10:05:11Z</time>
      </trkpt>
      <trkpt lat="52.506796019151807" lon="-3.291477989405394">
        <ele>272.19</ele>
        <time>2026-07-11T10:05:17Z</time>
      </trkpt>
      <trkpt lat="52.506766011938453" lon="-3.291397020220757">
        <ele>272.19</ele>
        <time>2026-07-11T10:05:18Z</time>
      </trkpt>
      <trkpt lat="52.506710020825267" lon="-3.291242038831115">
        <ele>272.67000000000002</ele>
        <time>2026-07-11T10:05:19Z</time>
      </trkpt>
      <trkpt lat="52.506684036925435" lon="-3.291216976940632">
        <ele>272.67000000000002</ele>
        <time>2026-07-11T10:05:20Z</time>
      </trkpt>
      <trkpt lat="52.506623016670346" lon="-3.291156040504575">
        <ele>273.14999999999998</ele>
        <time>2026-07-11T10:05:21Z</time>
      </trkpt>
      <trkpt lat="52.506565013900399" lon="-3.291097031906247">
        <ele>273.63</ele>
        <time>2026-07-11T10:05:22Z</time>
      </trkpt>
      <trkpt lat="52.506506005302072" lon="-3.2910390291363">
        <ele>274.11000000000001</ele>
        <time>2026-07-11T10:05:23Z</time>
      </trkpt>
      <trkpt lat="52.506454959511757" lon="-3.290987983345985">
        <ele>274.58999999999997</ele>
        <time>2026-07-11T10:05:24Z</time>
      </trkpt>
      <trkpt lat="52.506354041397572" lon="-3.290886981412768">
        <ele>275.56</ele>
        <time>2026-07-11T10:05:29Z</time>
      </trkpt>
      <trkpt lat="52.506290003657341" lon="-3.29093299806118">
        <ele>277.48000000000002</ele>
        <time>2026-07-11T10:05:35Z</time>
      </trkpt>
      <trkpt lat="52.506267037242651" lon="-3.290985971689224">
        <ele>277.48000000000002</ele>
        <time>2026-07-11T10:05:36Z</time>
      </trkpt>
      <trkpt lat="52.505969982594252" lon="-3.291672030463815">
        <ele>281.31999999999999</ele>
        <time>2026-07-11T10:05:42Z</time>
      </trkpt>
      <trkpt lat="52.505293982103467" lon="-3.29323198646307">
        <ele>289.00999999999999</ele>
        <time>2026-07-11T10:05:51Z</time>
      </trkpt>
      <trkpt lat="52.504782015457749" lon="-3.294034972786903">
        <ele>297.18000000000001</ele>
        <time>2026-07-11T10:05:57Z</time>
      </trkpt>
      <trkpt lat="52.504684031009674" lon="-3.294094987213612">
        <ele>298.63</ele>
        <time>2026-07-11T10:05:58Z</time>
      </trkpt>
      <trkpt lat="52.504581017419696" lon="-3.294159024953842">
        <ele>299.58999999999997</ele>
        <time>2026-07-11T10:05:59Z</time>
      </trkpt>
      <trkpt lat="52.504466017708182" lon="-3.294231025502086">
        <ele>300.06999999999999</ele>
        <time>2026-07-11T10:06:00Z</time>
      </trkpt>
      <trkpt lat="52.504343977198005" lon="-3.29430696554482">
        <ele>301.02999999999997</ele>
        <time>2026-07-11T10:06:01Z</time>
      </trkpt>
      <trkpt lat="52.504220008850098" lon="-3.294383995234966">
        <ele>302.47000000000003</ele>
        <time>2026-07-11T10:06:02Z</time>
      </trkpt>
      <trkpt lat="52.50388297252357" lon="-3.294642996042967">
        <ele>306.31999999999999</ele>
        <time>2026-07-11T10:06:05Z</time>
      </trkpt>
      <trkpt lat="52.503770990297198" lon="-3.294750032946467">
        <ele>307.75999999999999</ele>
        <time>2026-07-11T10:06:06Z</time>
      </trkpt>
      <trkpt lat="52.503351978957653" lon="-3.295211959630251">
        <ele>312.08999999999997</ele>
        <time>2026-07-11T10:06:10Z</time>
      </trkpt>
      <trkpt lat="52.503275033086538" lon="-3.295349003747106">
        <ele>312.56999999999999</ele>
        <time>2026-07-11T10:06:11Z</time>
      </trkpt>
      <trkpt lat="52.503201020881534" lon="-3.295512031763792">
        <ele>313.52999999999997</ele>
        <time>2026-07-11T10:06:12Z</time>
      </trkpt>
      <trkpt lat="52.502552010118961" lon="-3.297024965286255">
        <ele>318.81</ele>
        <time>2026-07-11T10:06:20Z</time>
      </trkpt>
      <trkpt lat="52.502317987382412" lon="-3.297697026282549">
        <ele>321.69999999999999</ele>
        <time>2026-07-11T10:06:26Z</time>
      </trkpt>
      <trkpt lat="52.501833010464907" lon="-3.299089008942246">
        <ele>329.38999999999999</ele>
        <time>2026-07-11T10:06:34Z</time>
      </trkpt>
      <trkpt lat="52.501366976648569" lon="-3.300426006317139">
        <ele>336.60000000000002</ele>
        <time>2026-07-11T10:06:41Z</time>
      </trkpt>
      <trkpt lat="52.501263963058591" lon="-3.300521979108453">
        <ele>337.07999999999998</ele>
        <time>2026-07-11T10:06:42Z</time>
      </trkpt>
      <trkpt lat="52.501163966953754" lon="-3.300616024062038">
        <ele>338.04000000000002</ele>
        <time>2026-07-11T10:06:43Z</time>
      </trkpt>
      <trkpt lat="52.50104796141386" lon="-3.300723982974887">
        <ele>339</ele>
        <time>2026-07-11T10:06:44Z</time>
      </trkpt>
      <trkpt lat="52.500919969752431" lon="-3.300843005999923">
        <ele>339.95999999999998</ele>
        <time>2026-07-11T10:06:45Z</time>
      </trkpt>
      <trkpt lat="52.50023097731173" lon="-3.301487993448973">
        <ele>346.20999999999998</ele>
        <time>2026-07-11T10:06:51Z</time>
      </trkpt>
      <trkpt lat="52.500140033662319" lon="-3.301573991775513">
        <ele>349.10000000000002</ele>
        <time>2026-07-11T10:06:57Z</time>
      </trkpt>
      <trkpt lat="52.500140033662319" lon="-3.301573991775513">
        <ele>349.10000000000002</ele>
        <time>2026-07-11T10:07:31Z</time>
      </trkpt>
      <trkpt lat="52.500140033662319" lon="-3.301573991775513">
        <ele>349.57999999999998</ele>
        <time>2026-07-11T10:08:17Z</time>
      </trkpt>
      <trkpt lat="52.499975999817252" lon="-3.301710030063987">
        <ele>348.62</ele>
        <time>2026-07-11T10:08:45Z</time>
      </trkpt>
      <trkpt lat="52.499338975176215" lon="-3.302129963412881">
        <ele>349.57999999999998</ele>
        <time>2026-07-11T10:08:51Z</time>
      </trkpt>
      <trkpt lat="52.498171962797642" lon="-3.302911994978786">
        <ele>352.45999999999998</ele>
        <time>2026-07-11T10:08:59Z</time>
      </trkpt>
      <trkpt lat="52.497130008414388" lon="-3.30369302071631">
        <ele>359.19</ele>
        <time>2026-07-11T10:09:08Z</time>
      </trkpt>
      <trkpt lat="52.497022971510887" lon="-3.303702995181084">
        <ele>359.67000000000002</ele>
        <time>2026-07-11T10:09:09Z</time>
      </trkpt>
      <trkpt lat="52.496906965970993" lon="-3.303713975474238">
        <ele>359.67000000000002</ele>
        <time>2026-07-11T10:09:10Z</time>
      </trkpt>
      <trkpt lat="52.496690964326262" lon="-3.303735014051199">
        <ele>359.67000000000002</ele>
        <time>2026-07-11T10:09:12Z</time>
      </trkpt>
      <trkpt lat="52.496581999585032" lon="-3.303745994344354">
        <ele>359.19</ele>
        <time>2026-07-11T10:09:13Z</time>
      </trkpt>
      <trkpt lat="52.496466999873519" lon="-3.303788993507624">
        <ele>358.70999999999998</ele>
        <time>2026-07-11T10:09:14Z</time>
      </trkpt>
      <trkpt lat="52.496360968798399" lon="-3.303868034854531">
        <ele>358.23000000000002</ele>
        <time>2026-07-11T10:09:15Z</time>
      </trkpt>
      <trkpt lat="52.496248986572027" lon="-3.303950009867549">
        <ele>357.75</ele>
        <time>2026-07-11T10:09:16Z</time>
      </trkpt>
      <trkpt lat="52.496132981032133" lon="-3.304036008194089">
        <ele>357.26999999999998</ele>
        <time>2026-07-11T10:09:17Z</time>
      </trkpt>
      <trkpt lat="52.496014041826129" lon="-3.30412401817739">
        <ele>356.79000000000002</ele>
        <time>2026-07-11T10:09:18Z</time>
      </trkpt>
      <trkpt lat="52.49481400474906" lon="-3.304621987044811">
        <ele>360.14999999999998</ele>
        <time>2026-07-11T10:09:27Z</time>
      </trkpt>
      <trkpt lat="52.494543017819524" lon="-3.304674960672855">
        <ele>361.58999999999997</ele>
        <time>2026-07-11T10:09:29Z</time>
      </trkpt>
      <trkpt lat="52.494414020329714" lon="-3.304634978994727">
        <ele>363.04000000000002</ele>
        <time>2026-07-11T10:09:30Z</time>
      </trkpt>
      <trkpt lat="52.494294997304678" lon="-3.304598014801741">
        <ele>364</ele>
        <time>2026-07-11T10:09:31Z</time>
      </trkpt>
      <trkpt lat="52.493920996785164" lon="-3.304482009261847">
        <ele>367.83999999999997</ele>
        <time>2026-07-11T10:09:34Z</time>
      </trkpt>
      <trkpt lat="52.493775989860296" lon="-3.304465999826789">
        <ele>368.80000000000001</ele>
        <time>2026-07-11T10:09:35Z</time>
      </trkpt>
      <trkpt lat="52.492533959448338" lon="-3.304484020918608">
        <ele>380.33999999999997</ele>
        <time>2026-07-11T10:09:45Z</time>
      </trkpt>
      <trkpt lat="52.491925014182925" lon="-3.304674960672855">
        <ele>383.22000000000003</ele>
        <time>2026-07-11T10:09:52Z</time>
      </trkpt>
      <trkpt lat="52.491834992542863" lon="-3.304668003693223">
        <ele>382.25999999999999</ele>
        <time>2026-07-11T10:09:53Z</time>
      </trkpt>
      <trkpt lat="52.490674015134573" lon="-3.30457697622478">
        <ele>366.88</ele>
        <time>2026-07-11T10:10:04Z</time>
      </trkpt>
      <trkpt lat="52.490376038476825" lon="-3.30455400981009">
        <ele>363.04000000000002</ele>
        <time>2026-07-11T10:10:07Z</time>
      </trkpt>
      <trkpt lat="52.490291967988014" lon="-3.304547974839807">
        <ele>361.58999999999997</ele>
        <time>2026-07-11T10:10:08Z</time>
      </trkpt>
      <trkpt lat="52.490206975489855" lon="-3.304649982601404">
        <ele>360.63</ele>
        <time>2026-07-11T10:10:09Z</time>
      </trkpt>
      <trkpt lat="52.490123994648457" lon="-3.304779985919595">
        <ele>359.67000000000002</ele>
        <time>2026-07-11T10:10:10Z</time>
      </trkpt>
      <trkpt lat="52.490025004372001" lon="-3.304934967309237">
        <ele>358.70999999999998</ele>
        <time>2026-07-11T10:10:11Z</time>
      </trkpt>
      <trkpt lat="52.489913022145629" lon="-3.305110987275839">
        <ele>357.75</ele>
        <time>2026-07-11T10:10:12Z</time>
      </trkpt>
      <trkpt lat="52.48875699006021" lon="-3.306921981275082">
        <ele>353.42000000000002</ele>
        <time>2026-07-11T10:10:21Z</time>
      </trkpt>
      <trkpt lat="52.487616967409849" lon="-3.308652006089687">
        <ele>357.26999999999998</ele>
        <time>2026-07-11T10:10:31Z</time>
      </trkpt>
      <trkpt lat="52.486445009708405" lon="-3.309905016794801">
        <ele>365.44</ele>
        <time>2026-07-11T10:10:40Z</time>
      </trkpt>
      <trkpt lat="52.484514992684126" lon="-3.311955984681845">
        <ele>374.56999999999999</ele>
        <time>2026-07-11T10:10:54Z</time>
      </trkpt>
      <trkpt lat="52.482877001166344" lon="-3.313723979517818">
        <ele>361.58999999999997</ele>
        <time>2026-07-11T10:11:07Z</time>
      </trkpt>
      <trkpt lat="52.481272034347057" lon="-3.315542014315724">
        <ele>368.80000000000001</ele>
        <time>2026-07-11T10:11:20Z</time>
      </trkpt>
      <trkpt lat="52.481160974130034" lon="-3.31561803817749">
        <ele>369.27999999999997</ele>
        <time>2026-07-11T10:11:21Z</time>
      </trkpt>
      <trkpt lat="52.481068018823862" lon="-3.315681992098689">
        <ele>370.24000000000001</ele>
        <time>2026-07-11T10:11:22Z</time>
      </trkpt>
      <trkpt lat="52.480967016890645" lon="-3.315693978220224">
        <ele>371.20999999999998</ele>
        <time>2026-07-11T10:11:23Z</time>
      </trkpt>
      <trkpt lat="52.480645989999175" lon="-3.315729014575481">
        <ele>371.69</ele>
        <time>2026-07-11T10:11:26Z</time>
      </trkpt>
      <trkpt lat="52.479376969859004" lon="-3.315869998186827">
        <ele>365.92000000000002</ele>
        <time>2026-07-11T10:11:35Z</time>
      </trkpt>
      <trkpt lat="52.479121992364526" lon="-3.315820964053273">
        <ele>365.44</ele>
        <time>2026-07-11T10:11:37Z</time>
      </trkpt>
      <trkpt lat="52.478997018188238" lon="-3.315788023173809">
        <ele>364.48000000000002</ele>
        <time>2026-07-11T10:11:38Z</time>
      </trkpt>
      <trkpt lat="52.478868020698428" lon="-3.315753992646933">
        <ele>363.51999999999998</ele>
        <time>2026-07-11T10:11:39Z</time>
      </trkpt>
      <trkpt lat="52.478728964924812" lon="-3.315717028453946">
        <ele>362.06999999999999</ele>
        <time>2026-07-11T10:11:40Z</time>
      </trkpt>
      <trkpt lat="52.478586975485086" lon="-3.315679980441928">
        <ele>360.63</ele>
        <time>2026-07-11T10:11:41Z</time>
      </trkpt>
      <trkpt lat="52.478448003530502" lon="-3.315644022077322">
        <ele>358.70999999999998</ele>
        <time>2026-07-11T10:11:42Z</time>
      </trkpt>
      <trkpt lat="52.478313976898789" lon="-3.315607979893684">
        <ele>356.79000000000002</ele>
        <time>2026-07-11T10:11:43Z</time>
      </trkpt>
      <trkpt lat="52.478107027709484" lon="-3.31555400043726">
        <ele>353.42000000000002</ele>
        <time>2026-07-11T10:11:45Z</time>
      </trkpt>
      <trkpt lat="52.478107027709484" lon="-3.31555400043726">
        <ele>351.5</ele>
        <time>2026-07-11T10:11:46Z</time>
      </trkpt>
      <trkpt lat="52.477913992479444" lon="-3.31579003483057">
        <ele>350.06</ele>
        <time>2026-07-11T10:11:47Z</time>
      </trkpt>
      <trkpt lat="52.477768985554576" lon="-3.315894976258278">
        <ele>348.13</ele>
        <time>2026-07-11T10:11:49Z</time>
      </trkpt>
      <trkpt lat="52.477677036076784" lon="-3.31596102565527">
        <ele>347.17000000000002</ele>
        <time>2026-07-11T10:11:50Z</time>
      </trkpt>
      <trkpt lat="52.477514008060098" lon="-3.316237041726708">
        <ele>345.25</ele>
        <time>2026-07-11T10:11:53Z</time>
      </trkpt>
      <trkpt lat="52.477438990026712" lon="-3.316364027559757">
        <ele>344.29000000000002</ele>
        <time>2026-07-11T10:11:54Z</time>
      </trkpt>
      <trkpt lat="52.477171020582318" lon="-3.317048996686935">
        <ele>338.04000000000002</ele>
        <time>2026-07-11T10:11:59Z</time>
      </trkpt>
      <trkpt lat="52.477098014205694" lon="-3.31718503497541">
        <ele>337.07999999999998</ele>
        <time>2026-07-11T10:12:00Z</time>
      </trkpt>
      <trkpt lat="52.47702500782907" lon="-3.317257035523653">
        <ele>336.12</ele>
        <time>2026-07-11T10:12:01Z</time>
      </trkpt>
      <trkpt lat="52.476958036422729" lon="-3.317325012758374">
        <ele>335.16000000000003</ele>
        <time>2026-07-11T10:12:02Z</time>
      </trkpt>
      <trkpt lat="52.476861979812384" lon="-3.317392989993095">
        <ele>334.19999999999999</ele>
        <time>2026-07-11T10:12:03Z</time>
      </trkpt>
      <trkpt lat="52.475880961865187" lon="-3.317641010507941">
        <ele>327.47000000000003</ele>
        <time>2026-07-11T10:12:13Z</time>
      </trkpt>
      <trkpt lat="52.474756026640534" lon="-3.317801021039486">
        <ele>323.13999999999999</ele>
        <time>2026-07-11T10:12:23Z</time>
      </trkpt>
      <trkpt lat="52.47418999671936" lon="-3.317722985520959">
        <ele>317.85000000000002</ele>
        <time>2026-07-11T10:12:30Z</time>
      </trkpt>
      <trkpt lat="52.474130988121033" lon="-3.317664982751012">
        <ele>317.37</ele>
        <time>2026-07-11T10:12:31Z</time>
      </trkpt>
      <trkpt lat="52.474022023379803" lon="-3.317548977211118">
        <ele>316.41000000000003</ele>
        <time>2026-07-11T10:12:33Z</time>
      </trkpt>
      <trkpt lat="52.473939964547753" lon="-3.317539002746344">
        <ele>316.41000000000003</ele>
        <time>2026-07-11T10:12:34Z</time>
      </trkpt>
      <trkpt lat="52.473847009241581" lon="-3.31752902828157">
        <ele>316.41000000000003</ele>
        <time>2026-07-11T10:12:35Z</time>
      </trkpt>
      <trkpt lat="52.473750030621886" lon="-3.317518969997764">
        <ele>316.88999999999999</ele>
        <time>2026-07-11T10:12:36Z</time>
      </trkpt>
      <trkpt lat="52.473651962354779" lon="-3.317507989704609">
        <ele>316.88999999999999</ele>
        <time>2026-07-11T10:12:37Z</time>
      </trkpt>
      <trkpt lat="52.473562024533749" lon="-3.317597005516291">
        <ele>316.88999999999999</ele>
        <time>2026-07-11T10:12:38Z</time>
      </trkpt>
      <trkpt lat="52.473472002893686" lon="-3.317699013277888">
        <ele>317.37</ele>
        <time>2026-07-11T10:12:39Z</time>
      </trkpt>
      <trkpt lat="52.473396984860301" lon="-3.317839996889234">
        <ele>317.37</ele>
        <time>2026-07-11T10:12:40Z</time>
      </trkpt>
      <trkpt lat="52.473314004018903" lon="-3.317997995764017">
        <ele>317.85000000000002</ele>
        <time>2026-07-11T10:12:41Z</time>
      </trkpt>
      <trkpt lat="52.472474975511432" lon="-3.319429960101843">
        <ele>320.25999999999999</ele>
        <time>2026-07-11T10:12:50Z</time>
      </trkpt>
      <trkpt lat="52.472365004941821" lon="-3.319514030590653">
        <ele>320.25999999999999</ele>
        <time>2026-07-11T10:12:51Z</time>
      </trkpt>
      <trkpt lat="52.472241036593914" lon="-3.319568010047078">
        <ele>320.74000000000001</ele>
        <time>2026-07-11T10:12:52Z</time>
      </trkpt>
      <trkpt lat="52.472113966941833" lon="-3.319622995331883">
        <ele>320.74000000000001</ele>
        <time>2026-07-11T10:12:53Z</time>
      </trkpt>
      <trkpt lat="52.471985975280404" lon="-3.319678986445069">
        <ele>321.22000000000003</ele>
        <time>2026-07-11T10:12:54Z</time>
      </trkpt>
      <trkpt lat="52.471853960305452" lon="-3.319701030850411">
        <ele>321.69999999999999</ele>
        <time>2026-07-11T10:12:55Z</time>
      </trkpt>
      <trkpt lat="52.470725001767278" lon="-3.319522999227047">
        <ele>324.57999999999998</ele>
        <time>2026-07-11T10:13:03Z</time>
      </trkpt>
      <trkpt lat="52.47057898901403" lon="-3.319543031975627">
        <ele>325.06</ele>
        <time>2026-07-11T10:13:04Z</time>
      </trkpt>
      <trkpt lat="52.470438005402684" lon="-3.319561975076795">
        <ele>325.06</ele>
        <time>2026-07-11T10:13:05Z</time>
      </trkpt>
      <trkpt lat="52.470308002084494" lon="-3.319655014201999">
        <ele>325.54000000000002</ele>
        <time>2026-07-11T10:13:06Z</time>
      </trkpt>
      <trkpt lat="52.470176992937922" lon="-3.319777976721525">
        <ele>325.54000000000002</ele>
        <time>2026-07-11T10:13:07Z</time>
      </trkpt>
      <trkpt lat="52.47004296630621" lon="-3.319920971989632">
        <ele>326.01999999999998</ele>
        <time>2026-07-11T10:13:08Z</time>
      </trkpt>
      <trkpt lat="52.469915980473161" lon="-3.320104032754898">
        <ele>326.01999999999998</ele>
        <time>2026-07-11T10:13:09Z</time>
      </trkpt>
      <trkpt lat="52.469786982983351" lon="-3.320289021357894">
        <ele>326.5</ele>
        <time>2026-07-11T10:13:10Z</time>
      </trkpt>
      <trkpt lat="52.468534978106618" lon="-3.321907985955477">
        <ele>328.43000000000001</ele>
        <time>2026-07-11T10:13:19Z</time>
      </trkpt>
      <trkpt lat="52.468414027243853" lon="-3.322089035063982">
        <ele>327.94999999999999</ele>
        <time>2026-07-11T10:13:20Z</time>
      </trkpt>
      <trkpt lat="52.468321993947029" lon="-3.322227001190186">
        <ele>327.47000000000003</ele>
        <time>2026-07-11T10:13:21Z</time>
      </trkpt>
      <trkpt lat="52.468250999227166" lon="-3.322507962584496">
        <ele>327.47000000000003</ele>
        <time>2026-07-11T10:13:22Z</time>
      </trkpt>
      <trkpt lat="52.468189978972077" lon="-3.32275003194809">
        <ele>326.99000000000001</ele>
        <time>2026-07-11T10:13:23Z</time>
      </trkpt>
      <trkpt lat="52.468128958716989" lon="-3.322991011664271">
        <ele>326.5</ele>
        <time>2026-07-11T10:13:24Z</time>
      </trkpt>
      <trkpt lat="52.468068022280931" lon="-3.323230985552073">
        <ele>326.5</ele>
        <time>2026-07-11T10:13:25Z</time>
      </trkpt>
      <trkpt lat="52.467840034514666" lon="-3.324135979637504">
        <ele>325.54000000000002</ele>
        <time>2026-07-11T10:13:29Z</time>
      </trkpt>
      <trkpt lat="52.467757975682616" lon="-3.324322979897261">
        <ele>326.01999999999998</ele>
        <time>2026-07-11T10:13:30Z</time>
      </trkpt>
      <trkpt lat="52.467673989012837" lon="-3.32449296489358">
        <ele>326.01999999999998</ele>
        <time>2026-07-11T10:13:31Z</time>
      </trkpt>
      <trkpt lat="52.46682196855545" lon="-3.326308988034725">
        <ele>326.5</ele>
        <time>2026-07-11T10:13:40Z</time>
      </trkpt>
      <trkpt lat="52.466075979173183" lon="-3.3289610221982">
        <ele>329.38999999999999</ele>
        <time>2026-07-11T10:13:50Z</time>
      </trkpt>
      <trkpt lat="52.466044966131449" lon="-3.329263022169471">
        <ele>330.35000000000002</ele>
        <time>2026-07-11T10:13:51Z</time>
      </trkpt>
      <trkpt lat="52.465842962265015" lon="-3.330796994268894">
        <ele>332.75</ele>
        <time>2026-07-11T10:13:56Z</time>
      </trkpt>
      <trkpt lat="52.465776996687055" lon="-3.331095976755023">
        <ele>333.23000000000002</ele>
        <time>2026-07-11T10:13:57Z</time>
      </trkpt>
      <trkpt lat="52.465696027502418" lon="-3.331381967291236">
        <ele>333.23000000000002</ele>
        <time>2026-07-11T10:13:58Z</time>
      </trkpt>
      <trkpt lat="52.46557398699224" lon="-3.331621019169688">
        <ele>333.70999999999998</ele>
        <time>2026-07-11T10:13:59Z</time>
      </trkpt>
      <trkpt lat="52.465449012815952" lon="-3.331863004714251">
        <ele>334.19999999999999</ele>
        <time>2026-07-11T10:14:00Z</time>
      </trkpt>
      <trkpt lat="52.465323032811284" lon="-3.332109013572335">
        <ele>334.19999999999999</ele>
        <time>2026-07-11T10:14:01Z</time>
      </trkpt>
      <trkpt lat="52.465171990916133" lon="-3.332294002175331">
        <ele>334.68000000000001</ele>
        <time>2026-07-11T10:14:02Z</time>
      </trkpt>
      <trkpt lat="52.465012986212969" lon="-3.332485025748611">
        <ele>334.68000000000001</ele>
        <time>2026-07-11T10:14:03Z</time>
      </trkpt>
      <trkpt lat="52.464848030358553" lon="-3.332683006301522">
        <ele>335.16000000000003</ele>
        <time>2026-07-11T10:14:04Z</time>
      </trkpt>
      <trkpt lat="52.464193990454078" lon="-3.333504013717175">
        <ele>336.60000000000002</ele>
        <time>2026-07-11T10:14:08Z</time>
      </trkpt>
      <trkpt lat="52.464059963822365" lon="-3.333756979554892">
        <ele>337.07999999999998</ele>
        <time>2026-07-11T10:14:09Z</time>
      </trkpt>
      <trkpt lat="52.463927026838064" lon="-3.334008017554879">
        <ele>337.07999999999998</ele>
        <time>2026-07-11T10:14:10Z</time>
      </trkpt>
      <trkpt lat="52.463806997984648" lon="-3.334284033626318">
        <ele>337.56</ele>
        <time>2026-07-11T10:14:11Z</time>
      </trkpt>
      <trkpt lat="52.463719993829727" lon="-3.334587961435318">
        <ele>337.56</ele>
        <time>2026-07-11T10:14:12Z</time>
      </trkpt>
      <trkpt lat="52.463643969967961" lon="-3.334905970841646">
        <ele>337.56</ele>
        <time>2026-07-11T10:14:13Z</time>
      </trkpt>
      <trkpt lat="52.463587978854775" lon="-3.33523596636951">
        <ele>337.56</ele>
        <time>2026-07-11T10:14:14Z</time>
      </trkpt>
      <trkpt lat="52.463530981913209" lon="-3.335570991039276">
        <ele>337.56</ele>
        <time>2026-07-11T10:14:15Z</time>
      </trkpt>
      <trkpt lat="52.462670998647809" lon="-3.340261001139879">
        <ele>337.56</ele>
        <time>2026-07-11T10:14:29Z</time>
      </trkpt>
      <trkpt lat="52.462099017575383" lon="-3.342804992571473">
        <ele>338.04000000000002</ele>
        <time>2026-07-11T10:14:37Z</time>
      </trkpt>
      <trkpt lat="52.462001033127308" lon="-3.343018982559443">
        <ele>338.04000000000002</ele>
        <time>2026-07-11T10:14:38Z</time>
      </trkpt>
      <trkpt lat="52.46189902536571" lon="-3.343242025002837">
        <ele>338.51999999999998</ele>
        <time>2026-07-11T10:14:39Z</time>
      </trkpt>
      <trkpt lat="52.461776984855533" lon="-3.343434976413846">
        <ele>338.51999999999998</ele>
        <time>2026-07-11T10:14:40Z</time>
      </trkpt>
      <trkpt lat="52.46164002455771" lon="-3.343619965016842">
        <ele>339</ele>
        <time>2026-07-11T10:14:41Z</time>
      </trkpt>
      <trkpt lat="52.461056979373097" lon="-3.344362014904618">
        <ele>341.41000000000003</ele>
        <time>2026-07-11T10:14:45Z</time>
      </trkpt>
      <trkpt lat="52.460905015468597" lon="-3.344513978809118">
        <ele>341.88999999999999</ele>
        <time>2026-07-11T10:14:46Z</time>
      </trkpt>
      <trkpt lat="52.460747016593814" lon="-3.344671977683902">
        <ele>342.37</ele>
        <time>2026-07-11T10:14:47Z</time>
      </trkpt>
      <trkpt lat="52.460577031597495" lon="-3.344798041507602">
        <ele>342.85000000000002</ele>
        <time>2026-07-11T10:14:48Z</time>
      </trkpt>
      <trkpt lat="52.46039598248899" lon="-3.34490398876369">
        <ele>343.81</ele>
        <time>2026-07-11T10:14:49Z</time>
      </trkpt>
      <trkpt lat="52.460219962522388" lon="-3.345007002353668">
        <ele>344.29000000000002</ele>
        <time>2026-07-11T10:14:50Z</time>
      </trkpt>
      <trkpt lat="52.459886027500033" lon="-3.345202971249819">
        <ele>345.25</ele>
        <time>2026-07-11T10:14:52Z</time>
      </trkpt>
      <trkpt lat="52.45973096229136" lon="-3.345339009538293">
        <ele>345.73000000000002</ele>
        <time>2026-07-11T10:14:53Z</time>
      </trkpt>
      <trkpt lat="52.459595007821918" lon="-3.345503965392709">
        <ele>346.20999999999998</ele>
        <time>2026-07-11T10:14:54Z</time>
      </trkpt>
      <trkpt lat="52.459463998675346" lon="-3.345699012279511">
        <ele>346.20999999999998</ele>
        <time>2026-07-11T10:14:55Z</time>
      </trkpt>
      <trkpt lat="52.459358973428607" lon="-3.345927000045776">
        <ele>346.69</ele>
        <time>2026-07-11T10:14:56Z</time>
      </trkpt>
      <trkpt lat="52.459249002858996" lon="-3.346163034439087">
        <ele>346.69</ele>
        <time>2026-07-11T10:14:57Z</time>
      </trkpt>
      <trkpt lat="52.459136014804244" lon="-3.34640703164041">
        <ele>347.17000000000002</ele>
        <time>2026-07-11T10:14:58Z</time>
      </trkpt>
      <trkpt lat="52.459010034799576" lon="-3.346612975001335">
        <ele>347.17000000000002</ele>
        <time>2026-07-11T10:14:59Z</time>
      </trkpt>
      <trkpt lat="52.458869973197579" lon="-3.346803998574615">
        <ele>347.64999999999998</ele>
        <time>2026-07-11T10:15:00Z</time>
      </trkpt>
      <trkpt lat="52.458727983757854" lon="-3.346998961642385">
        <ele>347.17000000000002</ele>
        <time>2026-07-11T10:15:01Z</time>
      </trkpt>
      <trkpt lat="52.458579959347844" lon="-3.347201971337199">
        <ele>347.64999999999998</ele>
        <time>2026-07-11T10:15:02Z</time>
      </trkpt>
      <trkpt lat="52.458421038463712" lon="-3.347366005182266">
        <ele>347.64999999999998</ele>
        <time>2026-07-11T10:15:03Z</time>
      </trkpt>
      <trkpt lat="52.457548985257745" lon="-3.34793496876955">
        <ele>347.17000000000002</ele>
        <time>2026-07-11T10:15:08Z</time>
      </trkpt>
      <trkpt lat="52.456191033124924" lon="-3.348037982359529">
        <ele>346.20999999999998</ele>
        <time>2026-07-11T10:15:15Z</time>
      </trkpt>
      <trkpt lat="52.454861998558044" lon="-3.347682002931833">
        <ele>346.69</ele>
        <time>2026-07-11T10:15:22Z</time>
      </trkpt>
      <trkpt lat="52.453752988949418" lon="-3.346561007201672">
        <ele>346.20999999999998</ele>
        <time>2026-07-11T10:15:29Z</time>
      </trkpt>
      <trkpt lat="52.453636983409524" lon="-3.346328996121883">
        <ele>345.73000000000002</ele>
        <time>2026-07-11T10:15:30Z</time>
      </trkpt>
      <trkpt lat="52.453530030325055" lon="-3.346087010577321">
        <ele>345.73000000000002</ele>
        <time>2026-07-11T10:15:31Z</time>
      </trkpt>
      <trkpt lat="52.453444031998515" lon="-3.345829015597701">
        <ele>345.25</ele>
        <time>2026-07-11T10:15:32Z</time>
      </trkpt>
      <trkpt lat="52.453368008136749" lon="-3.345540007576346">
        <ele>345.25</ele>
        <time>2026-07-11T10:15:33Z</time>
      </trkpt>
      <trkpt lat="52.453300030902028" lon="-3.345234990119934">
        <ele>345.25</ele>
        <time>2026-07-11T10:15:34Z</time>
      </trkpt>
      <trkpt lat="52.453229958191514" lon="-3.344923015683889">
        <ele>345.25</ele>
        <time>2026-07-11T10:15:35Z</time>
      </trkpt>
      <trkpt lat="52.45272696018219" lon="-3.342482037842274">
        <ele>348.62</ele>
        <time>2026-07-11T10:15:43Z</time>
      </trkpt>
      <trkpt lat="52.452679015696049" lon="-3.342118011787534">
        <ele>348.62</ele>
        <time>2026-07-11T10:15:44Z</time>
      </trkpt>
      <trkpt lat="52.452641967684031" lon="-3.340485971421003">
        <ele>350.06</ele>
        <time>2026-07-11T10:15:50Z</time>
      </trkpt>
      <trkpt lat="52.452591005712748" lon="-3.340268963947892">
        <ele>350.06</ele>
        <time>2026-07-11T10:15:51Z</time>
      </trkpt>
      <trkpt lat="52.452522022649646" lon="-3.340095039457083">
        <ele>349.57999999999998</ele>
        <time>2026-07-11T10:15:52Z</time>
      </trkpt>
      <trkpt lat="52.452437030151486" lon="-3.339937040582299">
        <ele>349.57999999999998</ele>
        <time>2026-07-11T10:15:53Z</time>
      </trkpt>
      <trkpt lat="52.452327981591225" lon="-3.339851964265108">
        <ele>349.57999999999998</ele>
        <time>2026-07-11T10:15:54Z</time>
      </trkpt>
      <trkpt lat="52.452203007414937" lon="-3.339780969545245">
        <ele>350.06</ele>
        <time>2026-07-11T10:15:55Z</time>
      </trkpt>
      <trkpt lat="52.452065963298082" lon="-3.339826986193657">
        <ele>350.54000000000002</ele>
        <time>2026-07-11T10:15:56Z</time>
      </trkpt>
      <trkpt lat="52.451921040192246" lon="-3.339889012277126">
        <ele>351.01999999999998</ele>
        <time>2026-07-11T10:15:57Z</time>
      </trkpt>
      <trkpt lat="52.451774021610618" lon="-3.340011974796653">
        <ele>351.5</ele>
        <time>2026-07-11T10:15:58Z</time>
      </trkpt>
      <trkpt lat="52.451636977493763" lon="-3.340172991156578">
        <ele>351.98000000000002</ele>
        <time>2026-07-11T10:15:59Z</time>
      </trkpt>
      <trkpt lat="52.451508985832334" lon="-3.340384969487786">
        <ele>352.45999999999998</ele>
        <time>2026-07-11T10:16:00Z</time>
      </trkpt>
      <trkpt lat="52.451423993334174" lon="-3.340645981952548">
        <ele>352.45999999999998</ele>
        <time>2026-07-11T10:16:01Z</time>
      </trkpt>
      <trkpt lat="52.451334977522492" lon="-3.340934989973903">
        <ele>352.94</ele>
        <time>2026-07-11T10:16:02Z</time>
      </trkpt>
      <trkpt lat="52.45124202221632" lon="-3.341239001601934">
        <ele>353.42000000000002</ele>
        <time>2026-07-11T10:16:03Z</time>
      </trkpt>
      <trkpt lat="52.451128028333187" lon="-3.341898992657661">
        <ele>354.38</ele>
        <time>2026-07-11T10:16:05Z</time>
      </trkpt>
      <trkpt lat="52.451095003634691" lon="-3.342251032590866">
        <ele>354.86000000000001</ele>
        <time>2026-07-11T10:16:06Z</time>
      </trkpt>
      <trkpt lat="52.45074899867177" lon="-3.346230005845428">
        <ele>364</ele>
        <time>2026-07-11T10:16:17Z</time>
      </trkpt>
      <trkpt lat="52.450580019503832" lon="-3.346854038536549">
        <ele>365.92000000000002</ele>
        <time>2026-07-11T10:16:19Z</time>
      </trkpt>
      <trkpt lat="52.450452027842402" lon="-3.347127037122846">
        <ele>366.88</ele>
        <time>2026-07-11T10:16:20Z</time>
      </trkpt>
      <trkpt lat="52.450310038402677" lon="-3.34737497381866">
        <ele>367.83999999999997</ele>
        <time>2026-07-11T10:16:21Z</time>
      </trkpt>
      <trkpt lat="52.450157990679145" lon="-3.347604973241687">
        <ele>368.80000000000001</ele>
        <time>2026-07-11T10:16:22Z</time>
      </trkpt>
      <trkpt lat="52.449982976540923" lon="-3.347791973501444">
        <ele>369.75999999999999</ele>
        <time>2026-07-11T10:16:23Z</time>
      </trkpt>
      <trkpt lat="52.449794970452785" lon="-3.347951984032989">
        <ele>370.73000000000002</ele>
        <time>2026-07-11T10:16:24Z</time>
      </trkpt>
      <trkpt lat="52.449597995728254" lon="-3.348093973472714">
        <ele>371.69</ele>
        <time>2026-07-11T10:16:25Z</time>
      </trkpt>
      <trkpt lat="52.449396997690201" lon="-3.348237974569202">
        <ele>372.64999999999998</ele>
        <time>2026-07-11T10:16:26Z</time>
      </trkpt>
      <trkpt lat="52.448564004153013" lon="-3.348671989515424">
        <ele>375.52999999999997</ele>
        <time>2026-07-11T10:16:30Z</time>
      </trkpt>
      <trkpt lat="52.448354037478566" lon="-3.348694033920765">
        <ele>376.97000000000003</ele>
        <time>2026-07-11T10:16:31Z</time>
      </trkpt>
      <trkpt lat="52.448152033612132" lon="-3.3487060200423">
        <ele>377.94</ele>
        <time>2026-07-11T10:16:32Z</time>
      </trkpt>
      <trkpt lat="52.447949023917317" lon="-3.348605018109083">
        <ele>378.89999999999998</ele>
        <time>2026-07-11T10:16:33Z</time>
      </trkpt>
      <trkpt lat="52.447756994515657" lon="-3.348508961498737">
        <ele>379.86000000000001</ele>
        <time>2026-07-11T10:16:34Z</time>
      </trkpt>
      <trkpt lat="52.447573011741042" lon="-3.348369989544153">
        <ele>380.81999999999999</ele>
        <time>2026-07-11T10:16:35Z</time>
      </trkpt>
      <trkpt lat="52.447358015924692" lon="-3.3481689915061">
        <ele>381.77999999999997</ele>
        <time>2026-07-11T10:16:36Z</time>
      </trkpt>
      <trkpt lat="52.447213008999825" lon="-3.347962964326143">
        <ele>382.25999999999999</ele>
        <time>2026-07-11T10:16:37Z</time>
      </trkpt>
      <trkpt lat="52.445967039093375" lon="-3.346495041623712">
        <ele>381.30000000000001</ele>
        <time>2026-07-11T10:16:44Z</time>
      </trkpt>
      <trkpt lat="52.445766041055322" lon="-3.346381969749928">
        <ele>380.33999999999997</ele>
        <time>2026-07-11T10:16:45Z</time>
      </trkpt>
      <trkpt lat="52.445567976683378" lon="-3.34627702832222">
        <ele>379.86000000000001</ele>
        <time>2026-07-11T10:16:46Z</time>
      </trkpt>
      <trkpt lat="52.445348035544157" lon="-3.346288008615375">
        <ele>378.89999999999998</ele>
        <time>2026-07-11T10:16:47Z</time>
      </trkpt>
      <trkpt lat="52.445137985050678" lon="-3.34632002748549">
        <ele>378.42000000000002</ele>
        <time>2026-07-11T10:16:48Z</time>
      </trkpt>
      <trkpt lat="52.444928018376231" lon="-3.346373001113534">
        <ele>377.94</ele>
        <time>2026-07-11T10:16:49Z</time>
      </trkpt>
      <trkpt lat="52.444724002853036" lon="-3.346491018310189">
        <ele>377.94</ele>
        <time>2026-07-11T10:16:50Z</time>
      </trkpt>
      <trkpt lat="52.444514036178589" lon="-3.346612975001335">
        <ele>376.97000000000003</ele>
        <time>2026-07-11T10:16:51Z</time>
      </trkpt>
      <trkpt lat="52.443039994686842" lon="-3.347403975203633">
        <ele>373.13</ele>
        <time>2026-07-11T10:16:58Z</time>
      </trkpt>
      <trkpt lat="52.442835979163647" lon="-3.347429037094116">
        <ele>372.17000000000002</ele>
        <time>2026-07-11T10:16:59Z</time>
      </trkpt>
      <trkpt lat="52.442631963640451" lon="-3.347419984638691">
        <ele>371.69</ele>
        <time>2026-07-11T10:17:00Z</time>
      </trkpt>
      <trkpt lat="52.442428031936288" lon="-3.347334992140532">
        <ele>371.20999999999998</ele>
        <time>2026-07-11T10:17:01Z</time>
      </trkpt>
      <trkpt lat="52.442215969786048" lon="-3.34724698215723">
        <ele>370.73000000000002</ele>
        <time>2026-07-11T10:17:02Z</time>
      </trkpt>
      <trkpt lat="52.442016983404756" lon="-3.347087977454066">
        <ele>369.75999999999999</ele>
        <time>2026-07-11T10:17:03Z</time>
      </trkpt>
      <trkpt lat="52.441816991195083" lon="-3.34690198302269">
        <ele>369.27999999999997</ele>
        <time>2026-07-11T10:17:04Z</time>
      </trkpt>
      <trkpt lat="52.441610964015126" lon="-3.346710037440062">
        <ele>367.83999999999997</ele>
        <time>2026-07-11T10:17:05Z</time>
      </trkpt>
      <trkpt lat="52.440573032945395" lon="-3.345794985070825">
        <ele>362.55000000000001</ele>
        <time>2026-07-11T10:17:10Z</time>
      </trkpt>
      <trkpt lat="52.440349990502" lon="-3.345704963430762">
        <ele>362.06999999999999</ele>
        <time>2026-07-11T10:17:11Z</time>
      </trkpt>
      <trkpt lat="52.440128037706017" lon="-3.345617037266493">
        <ele>361.11000000000001</ele>
        <time>2026-07-11T10:17:12Z</time>
      </trkpt>
      <trkpt lat="52.439902983605862" lon="-3.345633968710899">
        <ele>360.14999999999998</ele>
        <time>2026-07-11T10:17:13Z</time>
      </trkpt>
      <trkpt lat="52.439681030809879" lon="-3.345652995631099">
        <ele>359.67000000000002</ele>
        <time>2026-07-11T10:17:14Z</time>
      </trkpt>
      <trkpt lat="52.43946704082191" lon="-3.345747040584683">
        <ele>358.70999999999998</ele>
        <time>2026-07-11T10:17:15Z</time>
      </trkpt>
      <trkpt lat="52.439253972843289" lon="-3.345876960083842">
        <ele>358.23000000000002</ele>
        <time>2026-07-11T10:17:16Z</time>
      </trkpt>
      <trkpt lat="52.439043000340462" lon="-3.346005035564303">
        <ele>357.26999999999998</ele>
        <time>2026-07-11T10:17:17Z</time>
      </trkpt>
      <trkpt lat="52.438399018719792" lon="-3.346306029707193">
        <ele>354.86000000000001</ele>
        <time>2026-07-11T10:17:20Z</time>
      </trkpt>
      <trkpt lat="52.438175976276398" lon="-3.346380963921547">
        <ele>354.38</ele>
        <time>2026-07-11T10:17:21Z</time>
      </trkpt>
      <trkpt lat="52.437946982681751" lon="-3.346384987235069">
        <ele>353.89999999999998</ele>
        <time>2026-07-11T10:17:22Z</time>
      </trkpt>
      <trkpt lat="52.437723018229008" lon="-3.346345005556941">
        <ele>353.42000000000002</ele>
        <time>2026-07-11T10:17:23Z</time>
      </trkpt>
      <trkpt lat="52.4374920129776" lon="-3.346215002238751">
        <ele>352.45999999999998</ele>
        <time>2026-07-11T10:17:24Z</time>
      </trkpt>
      <trkpt lat="52.43727701716125" lon="-3.346063038334251">
        <ele>351.5</ele>
        <time>2026-07-11T10:17:25Z</time>
      </trkpt>
      <trkpt lat="52.437066966667771" lon="-3.345879977568984">
        <ele>351.01999999999998</ele>
        <time>2026-07-11T10:17:26Z</time>
      </trkpt>
      <trkpt lat="52.436666982248425" lon="-3.345532966777682">
        <ele>350.06</ele>
        <time>2026-07-11T10:17:28Z</time>
      </trkpt>
      <trkpt lat="52.436489034444094" lon="-3.345310008153319">
        <ele>349.10000000000002</ele>
        <time>2026-07-11T10:17:29Z</time>
      </trkpt>
      <trkpt lat="52.436337992548943" lon="-3.345042960718274">
        <ele>348.13</ele>
        <time>2026-07-11T10:17:30Z</time>
      </trkpt>
      <trkpt lat="52.435889979824424" lon="-3.344249026849866">
        <ele>345.25</ele>
        <time>2026-07-11T10:17:33Z</time>
      </trkpt>
      <trkpt lat="52.435729969292879" lon="-3.344021961092949">
        <ele>344.29000000000002</ele>
        <time>2026-07-11T10:17:34Z</time>
      </trkpt>
      <trkpt lat="52.435543974861503" lon="-3.343832027167082">
        <ele>343.32999999999998</ele>
        <time>2026-07-11T10:17:35Z</time>
      </trkpt>
      <trkpt lat="52.43534398265183" lon="-3.343664975836873">
        <ele>342.37</ele>
        <time>2026-07-11T10:17:36Z</time>
      </trkpt>
      <trkpt lat="52.435141978785396" lon="-3.343497002497315">
        <ele>341.88999999999999</ele>
        <time>2026-07-11T10:17:37Z</time>
      </trkpt>
      <trkpt lat="52.43472296744585" lon="-3.343258034437895">
        <ele>340.92000000000002</ele>
        <time>2026-07-11T10:17:39Z</time>
      </trkpt>
      <trkpt lat="52.434511994943023" lon="-3.343172036111355">
        <ele>340.44</ele>
        <time>2026-07-11T10:17:40Z</time>
      </trkpt>
      <trkpt lat="52.434295993298292" lon="-3.34311998449266">
        <ele>340.44</ele>
        <time>2026-07-11T10:17:41Z</time>
      </trkpt>
      <trkpt lat="52.433666009455919" lon="-3.343035997822881">
        <ele>339.95999999999998</ele>
        <time>2026-07-11T10:17:44Z</time>
      </trkpt>
      <trkpt lat="52.433469034731388" lon="-3.343107998371124">
        <ele>339.48000000000002</ele>
        <time>2026-07-11T10:17:45Z</time>
      </trkpt>
      <trkpt lat="52.433288991451263" lon="-3.34322702139616">
        <ele>339.48000000000002</ele>
        <time>2026-07-11T10:17:46Z</time>
      </trkpt>
      <trkpt lat="52.433123029768467" lon="-3.343392983078957">
        <ele>339</ele>
        <time>2026-07-11T10:17:47Z</time>
      </trkpt>
      <trkpt lat="52.432969976216555" lon="-3.34359004162252">
        <ele>339</ele>
        <time>2026-07-11T10:17:48Z</time>
      </trkpt>
      <trkpt lat="52.432821029797196" lon="-3.343818029388785">
        <ele>339</ele>
        <time>2026-07-11T10:17:49Z</time>
      </trkpt>
      <trkpt lat="52.432708963751793" lon="-3.34410896524787">
        <ele>338.51999999999998</ele>
        <time>2026-07-11T10:17:50Z</time>
      </trkpt>
      <trkpt lat="52.43259496986866" lon="-3.344406019896269">
        <ele>338.51999999999998</ele>
        <time>2026-07-11T10:17:51Z</time>
      </trkpt>
      <trkpt lat="52.432376034557819" lon="-3.34494698792696">
        <ele>338.04000000000002</ele>
        <time>2026-07-11T10:17:53Z</time>
      </trkpt>
      <trkpt lat="52.432237984612584" lon="-3.345153015106916">
        <ele>337.56</ele>
        <time>2026-07-11T10:17:54Z</time>
      </trkpt>
      <trkpt lat="52.432102030143142" lon="-3.345357030630112">
        <ele>337.07999999999998</ele>
        <time>2026-07-11T10:17:55Z</time>
      </trkpt>
      <trkpt lat="52.431936990469694" lon="-3.345511006191373">
        <ele>337.07999999999998</ele>
        <time>2026-07-11T10:17:56Z</time>
      </trkpt>
      <trkpt lat="52.431753007695079" lon="-3.345645032823086">
        <ele>337.07999999999998</ele>
        <time>2026-07-11T10:17:57Z</time>
      </trkpt>
      <trkpt lat="52.431565001606941" lon="-3.345781993120909">
        <ele>337.07999999999998</ele>
        <time>2026-07-11T10:17:58Z</time>
      </trkpt>
      <trkpt lat="52.430581972002983" lon="-3.346345005556941">
        <ele>336.60000000000002</ele>
        <time>2026-07-11T10:18:03Z</time>
      </trkpt>
      <trkpt lat="52.430368987843394" lon="-3.346345005556941">
        <ele>336.60000000000002</ele>
        <time>2026-07-11T10:18:04Z</time>
      </trkpt>
      <trkpt lat="52.430156003683805" lon="-3.346340982243419">
        <ele>336.60000000000002</ele>
        <time>2026-07-11T10:18:05Z</time>
      </trkpt>
      <trkpt lat="52.429943019524217" lon="-3.346268981695175">
        <ele>336.60000000000002</ele>
        <time>2026-07-11T10:18:06Z</time>
      </trkpt>
      <trkpt lat="52.429726012051105" lon="-3.346194969490171">
        <ele>336.60000000000002</ele>
        <time>2026-07-11T10:18:07Z</time>
      </trkpt>
      <trkpt lat="52.429281016811728" lon="-3.346043005585671">
        <ele>336.60000000000002</ele>
        <time>2026-07-11T10:18:09Z</time>
      </trkpt>
      <trkpt lat="52.429063003510237" lon="-3.345987014472485">
        <ele>336.60000000000002</ele>
        <time>2026-07-11T10:18:10Z</time>
      </trkpt>
      <trkpt lat="52.428842978551984" lon="-3.346029007807374">
        <ele>336.12</ele>
        <time>2026-07-11T10:18:11Z</time>
      </trkpt>
      <trkpt lat="52.428624965250492" lon="-3.346079969778657">
        <ele>336.12</ele>
        <time>2026-07-11T10:18:12Z</time>
      </trkpt>
      <trkpt lat="52.428419021889567" lon="-3.346206033602357">
        <ele>335.63999999999999</ele>
        <time>2026-07-11T10:18:13Z</time>
      </trkpt>
      <trkpt lat="52.428222969174385" lon="-3.346322039142251">
        <ele>335.63999999999999</ele>
        <time>2026-07-11T10:18:14Z</time>
      </trkpt>
      <trkpt lat="52.428030017763376" lon="-3.346421029418707">
        <ele>335.63999999999999</ele>
        <time>2026-07-11T10:18:15Z</time>
      </trkpt>
      <trkpt lat="52.427836982533336" lon="-3.346521025523543">
        <ele>335.63999999999999</ele>
        <time>2026-07-11T10:18:16Z</time>
      </trkpt>
      <trkpt lat="52.427636990323663" lon="-3.346624039113522">
        <ele>336.12</ele>
        <time>2026-07-11T10:18:17Z</time>
      </trkpt>
      <trkpt lat="52.425848040729761" lon="-3.346604006364942">
        <ele>336.60000000000002</ele>
        <time>2026-07-11T10:18:25Z</time>
      </trkpt>
      <trkpt lat="52.424571979790926" lon="-3.346211984753609">
        <ele>335.63999999999999</ele>
        <time>2026-07-11T10:18:31Z</time>
      </trkpt>
      <trkpt lat="52.424355978146195" lon="-3.346231011673808">
        <ele>335.63999999999999</ele>
        <time>2026-07-11T10:18:32Z</time>
      </trkpt>
      <trkpt lat="52.424150034785271" lon="-3.346274010837078">
        <ele>335.63999999999999</ele>
        <time>2026-07-11T10:18:33Z</time>
      </trkpt>
      <trkpt lat="52.423937972635031" lon="-3.346354980021715">
        <ele>335.63999999999999</ele>
        <time>2026-07-11T10:18:34Z</time>
      </trkpt>
      <trkpt lat="52.423748038709164" lon="-3.346523037180305">
        <ele>335.16000000000003</ele>
        <time>2026-07-11T10:18:35Z</time>
      </trkpt>
      <trkpt lat="52.4235700070858" lon="-3.346700984984636">
        <ele>335.16000000000003</ele>
        <time>2026-07-11T10:18:36Z</time>
      </trkpt>
      <trkpt lat="52.423400022089481" lon="-3.346870969980955">
        <ele>335.16000000000003</ele>
        <time>2026-07-11T10:18:37Z</time>
      </trkpt>
      <trkpt lat="52.423244034871459" lon="-3.347016982734203">
        <ele>335.16000000000003</ele>
        <time>2026-07-11T10:18:38Z</time>
      </trkpt>
      <trkpt lat="52.423068014904857" lon="-3.347080014646053">
        <ele>335.16000000000003</ele>
        <time>2026-07-11T10:18:39Z</time>
      </trkpt>
      <trkpt lat="52.422883026301861" lon="-3.347146986052394">
        <ele>334.68000000000001</ele>
        <time>2026-07-11T10:18:40Z</time>
      </trkpt>
      <trkpt lat="52.422683034092188" lon="-3.347205994650722">
        <ele>334.68000000000001</ele>
        <time>2026-07-11T10:18:41Z</time>
      </trkpt>
      <trkpt lat="52.421838976442814" lon="-3.347280006855726">
        <ele>333.70999999999998</ele>
        <time>2026-07-11T10:18:45Z</time>
      </trkpt>
      <trkpt lat="52.42163697257638" lon="-3.347362987697125">
        <ele>333.70999999999998</ele>
        <time>2026-07-11T10:18:46Z</time>
      </trkpt>
      <trkpt lat="52.421434968709946" lon="-3.347489973530173">
        <ele>333.70999999999998</ele>
        <time>2026-07-11T10:18:47Z</time>
      </trkpt>
      <trkpt lat="52.421254003420472" lon="-3.347688037902117">
        <ele>333.70999999999998</ele>
        <time>2026-07-11T10:18:48Z</time>
      </trkpt>
      <trkpt lat="52.421070020645857" lon="-3.34788903594017">
        <ele>333.23000000000002</ele>
        <time>2026-07-11T10:18:49Z</time>
      </trkpt>
      <trkpt lat="52.420887965708971" lon="-3.348087016493082">
        <ele>333.23000000000002</ele>
        <time>2026-07-11T10:18:50Z</time>
      </trkpt>
      <trkpt lat="52.420717980712652" lon="-3.348272005096078">
        <ele>333.23000000000002</ele>
        <time>2026-07-11T10:18:51Z</time>
      </trkpt>
      <trkpt lat="52.420558976009488" lon="-3.348446013405919">
        <ele>332.75</ele>
        <time>2026-07-11T10:18:52Z</time>
      </trkpt>
      <trkpt lat="52.420381028205156" lon="-3.348464034497738">
        <ele>332.75</ele>
        <time>2026-07-11T10:18:53Z</time>
      </trkpt>
      <trkpt lat="52.42019796743989" lon="-3.348480965942144">
        <ele>332.75</ele>
        <time>2026-07-11T10:18:54Z</time>
      </trkpt>
      <trkpt lat="52.420006021857262" lon="-3.348466968163848">
        <ele>332.75</ele>
        <time>2026-07-11T10:18:55Z</time>
      </trkpt>
      <trkpt lat="52.419799994677305" lon="-3.348403014242649">
        <ele>332.75</ele>
        <time>2026-07-11T10:18:56Z</time>
      </trkpt>
      <trkpt lat="52.418576991185546" lon="-3.347746962681413">
        <ele>333.23000000000002</ele>
        <time>2026-07-11T10:19:02Z</time>
      </trkpt>
      <trkpt lat="52.418372975662351" lon="-3.347624000161886">
        <ele>333.70999999999998</ele>
        <time>2026-07-11T10:19:03Z</time>
      </trkpt>
      <trkpt lat="52.418181030079722" lon="-3.347507994621992">
        <ele>333.70999999999998</ele>
        <time>2026-07-11T10:19:04Z</time>
      </trkpt>
      <trkpt lat="52.417979026213288" lon="-3.347515035420656">
        <ele>333.23000000000002</ele>
        <time>2026-07-11T10:19:05Z</time>
      </trkpt>
      <trkpt lat="52.417782973498106" lon="-3.347526015713811">
        <ele>332.75</ele>
        <time>2026-07-11T10:19:06Z</time>
      </trkpt>
      <trkpt lat="52.417577030137181" lon="-3.347536996006966">
        <ele>332.26999999999998</ele>
        <time>2026-07-11T10:19:07Z</time>
      </trkpt>
      <trkpt lat="52.417372008785605" lon="-3.347536996006966">
        <ele>331.79000000000002</ele>
        <time>2026-07-11T10:19:08Z</time>
      </trkpt>
      <trkpt lat="52.417177967727184" lon="-3.347472036257386">
        <ele>331.31</ele>
        <time>2026-07-11T10:19:09Z</time>
      </trkpt>
      <trkpt lat="52.416988033801317" lon="-3.347369022667408">
        <ele>330.82999999999998</ele>
        <time>2026-07-11T10:19:10Z</time>
      </trkpt>
      <trkpt lat="52.416798016056418" lon="-3.34722300991416">
        <ele>330.82999999999998</ele>
        <time>2026-07-11T10:19:11Z</time>
      </trkpt>
      <trkpt lat="52.415177039802074" lon="-3.346143001690507">
        <ele>328.91000000000003</ele>
        <time>2026-07-11T10:19:19Z</time>
      </trkpt>
      <trkpt lat="52.41372998803854" lon="-3.345659030601382">
        <ele>326.01999999999998</ele>
        <time>2026-07-11T10:19:26Z</time>
      </trkpt>
      <trkpt lat="52.413361016660929" lon="-3.345675962045789">
        <ele>325.06</ele>
        <time>2026-07-11T10:19:28Z</time>
      </trkpt>
      <trkpt lat="52.413186002522707" lon="-3.345727007836103">
        <ele>324.57999999999998</ele>
        <time>2026-07-11T10:19:29Z</time>
      </trkpt>
      <trkpt lat="52.413022974506021" lon="-3.34582700394094">
        <ele>324.57999999999998</ele>
        <time>2026-07-11T10:19:30Z</time>
      </trkpt>
      <trkpt lat="52.412888025864959" lon="-3.346003023907542">
        <ele>324.10000000000002</ele>
        <time>2026-07-11T10:19:31Z</time>
      </trkpt>
      <trkpt lat="52.41276397369802" lon="-3.346205027773976">
        <ele>323.62</ele>
        <time>2026-07-11T10:19:32Z</time>
      </trkpt>
      <trkpt lat="52.412648973986506" lon="-3.346457993611693">
        <ele>323.13999999999999</ele>
        <time>2026-07-11T10:19:33Z</time>
      </trkpt>
      <trkpt lat="52.412530034780502" lon="-3.346723029389978">
        <ele>322.66000000000003</ele>
        <time>2026-07-11T10:19:34Z</time>
      </trkpt>
      <trkpt lat="52.412398019805551" lon="-3.346960991621018">
        <ele>322.66000000000003</ele>
        <time>2026-07-11T10:19:35Z</time>
      </trkpt>
      <trkpt lat="52.412251001223922" lon="-3.347172969952226">
        <ele>322.66000000000003</ele>
        <time>2026-07-11T10:19:36Z</time>
      </trkpt>
      <trkpt lat="52.412099959328771" lon="-3.347391989082098">
        <ele>322.66000000000003</ele>
        <time>2026-07-11T10:19:37Z</time>
      </trkpt>
      <trkpt lat="52.411922011524439" lon="-3.347535990178585">
        <ele>322.66000000000003</ele>
        <time>2026-07-11T10:19:38Z</time>
      </trkpt>
      <trkpt lat="52.411759989336133" lon="-3.34765400737524">
        <ele>322.18000000000001</ele>
        <time>2026-07-11T10:19:39Z</time>
      </trkpt>
      <trkpt lat="52.411567959934473" lon="-3.347732964903116">
        <ele>322.18000000000001</ele>
        <time>2026-07-11T10:19:40Z</time>
      </trkpt>
      <trkpt lat="52.411392023786902" lon="-3.34780496545136">
        <ele>322.18000000000001</ele>
        <time>2026-07-11T10:19:41Z</time>
      </trkpt>
      <trkpt lat="52.411197982728481" lon="-3.34780496545136">
        <ele>322.18000000000001</ele>
        <time>2026-07-11T10:19:42Z</time>
      </trkpt>
      <trkpt lat="52.410997990518808" lon="-3.347786022350192">
        <ele>322.18000000000001</ele>
        <time>2026-07-11T10:19:43Z</time>
      </trkpt>
      <trkpt lat="52.410792969167233" lon="-3.347714021801949">
        <ele>322.18000000000001</ele>
        <time>2026-07-11T10:19:44Z</time>
      </trkpt>
      <trkpt lat="52.410580990836024" lon="-3.34761100821197">
        <ele>322.18000000000001</ele>
        <time>2026-07-11T10:19:45Z</time>
      </trkpt>
      <trkpt lat="52.410368006676435" lon="-3.347479999065399">
        <ele>322.18000000000001</ele>
        <time>2026-07-11T10:19:46Z</time>
      </trkpt>
      <trkpt lat="52.408950040116906" lon="-3.346224976703525">
        <ele>321.69999999999999</ele>
        <time>2026-07-11T10:19:53Z</time>
      </trkpt>
      <trkpt lat="52.408232968300581" lon="-3.345355018973351">
        <ele>320.25999999999999</ele>
        <time>2026-07-11T10:19:57Z</time>
      </trkpt>
      <trkpt lat="52.407710021361709" lon="-3.344847997650504">
        <ele>317.85000000000002</ele>
        <time>2026-07-11T10:20:00Z</time>
      </trkpt>
      <trkpt lat="52.407524026930332" lon="-3.344712965190411">
        <ele>316.88999999999999</ele>
        <time>2026-07-11T10:20:01Z</time>
      </trkpt>
      <trkpt lat="52.407344989478588" lon="-3.344630990177393">
        <ele>316.41000000000003</ele>
        <time>2026-07-11T10:20:02Z</time>
      </trkpt>
      <trkpt lat="52.407163018360734" lon="-3.344594025984407">
        <ele>315.93000000000001</ele>
        <time>2026-07-11T10:20:03Z</time>
      </trkpt>
      <trkpt lat="52.406967971473932" lon="-3.34462596103549">
        <ele>315.44999999999999</ele>
        <time>2026-07-11T10:20:04Z</time>
      </trkpt>
      <trkpt lat="52.406773008406162" lon="-3.344670971855521">
        <ele>314.97000000000003</ele>
        <time>2026-07-11T10:20:05Z</time>
      </trkpt>
      <trkpt lat="52.405561991035938" lon="-3.345261979848146">
        <ele>312.08999999999997</ele>
        <time>2026-07-11T10:20:11Z</time>
      </trkpt>
      <trkpt lat="52.404209990054369" lon="-3.346330001950264">
        <ele>311.60000000000002</ele>
        <time>2026-07-11T10:20:18Z</time>
      </trkpt>
      <trkpt lat="52.404041010886431" lon="-3.346475008875132">
        <ele>312.08999999999997</ele>
        <time>2026-07-11T10:20:19Z</time>
      </trkpt>
      <trkpt lat="52.403859039768577" lon="-3.346583973616362">
        <ele>312.08999999999997</ele>
        <time>2026-07-11T10:20:20Z</time>
      </trkpt>
      <trkpt lat="52.403657035902143" lon="-3.346603000536561">
        <ele>312.08999999999997</ele>
        <time>2026-07-11T10:20:21Z</time>
      </trkpt>
      <trkpt lat="52.403452014550567" lon="-3.346603000536561">
        <ele>312.08999999999997</ele>
        <time>2026-07-11T10:20:22Z</time>
      </trkpt>
      <trkpt lat="52.403243975713849" lon="-3.346603000536561">
        <ele>312.56999999999999</ele>
        <time>2026-07-11T10:20:23Z</time>
      </trkpt>
      <trkpt lat="52.401725007221103" lon="-3.346083993092179">
        <ele>313.05000000000001</ele>
        <time>2026-07-11T10:20:30Z</time>
      </trkpt>
      <trkpt lat="52.401527026668191" lon="-3.34593303501606">
        <ele>313.05000000000001</ele>
        <time>2026-07-11T10:20:31Z</time>
      </trkpt>
      <trkpt lat="52.40131001919508" lon="-3.345765983685851">
        <ele>313.05000000000001</ele>
        <time>2026-07-11T10:20:32Z</time>
      </trkpt>
      <trkpt lat="52.401153026148677" lon="-3.345555011183024">
        <ele>312.56999999999999</ele>
        <time>2026-07-11T10:20:33Z</time>
      </trkpt>
      <trkpt lat="52.400980023667216" lon="-3.345320988446474">
        <ele>312.08999999999997</ele>
        <time>2026-07-11T10:20:34Z</time>
      </trkpt>
      <trkpt lat="52.400808027014136" lon="-3.345058970153332">
        <ele>312.08999999999997</ele>
        <time>2026-07-11T10:20:35Z</time>
      </trkpt>
      <trkpt lat="52.399331973865628" lon="-3.342597037553787">
        <ele>310.16000000000003</ele>
        <time>2026-07-11T10:20:44Z</time>
      </trkpt>
      <trkpt lat="52.399121001362801" lon="-3.342353962361813">
        <ele>310.16000000000003</ele>
        <time>2026-07-11T10:20:45Z</time>
      </trkpt>
      <trkpt lat="52.39871297031641" lon="-3.342118011787534">
        <ele>310.16000000000003</ele>
        <time>2026-07-11T10:20:47Z</time>
      </trkpt>
      <trkpt lat="52.398481965065002" lon="-3.342051962390542">
        <ele>310.16000000000003</ele>
        <time>2026-07-11T10:20:48Z</time>
      </trkpt>
      <trkpt lat="52.398254983127117" lon="-3.341990020126104">
        <ele>310.16000000000003</ele>
        <time>2026-07-11T10:20:49Z</time>
      </trkpt>
      <trkpt lat="52.396808015182614" lon="-3.341941991820931">
        <ele>308.72000000000003</ele>
        <time>2026-07-11T10:20:56Z</time>
      </trkpt>
      <trkpt lat="52.396651022136211" lon="-3.341850964352489">
        <ele>308.24000000000001</ele>
        <time>2026-07-11T10:20:57Z</time>
      </trkpt>
      <trkpt lat="52.39649998024106" lon="-3.341707969084382">
        <ele>308.24000000000001</ele>
        <time>2026-07-11T10:20:58Z</time>
      </trkpt>
      <trkpt lat="52.396346004679799" lon="-3.341531027108431">
        <ele>307.75999999999999</ele>
        <time>2026-07-11T10:20:59Z</time>
      </trkpt>
      <trkpt lat="52.396214995533228" lon="-3.341299016028643">
        <ele>307.75999999999999</ele>
        <time>2026-07-11T10:21:00Z</time>
      </trkpt>
      <trkpt lat="52.396077029407024" lon="-3.341054012998939">
        <ele>307.27999999999997</ele>
        <time>2026-07-11T10:21:01Z</time>
      </trkpt>
      <trkpt lat="52.395646031945944" lon="-3.340287990868092">
        <ele>305.83999999999997</ele>
        <time>2026-07-11T10:21:04Z</time>
      </trkpt>
      <trkpt lat="52.39486500620842" lon="-3.338070977479219">
        <ele>303.43000000000001</ele>
        <time>2026-07-11T10:21:11Z</time>
      </trkpt>
      <trkpt lat="52.394454963505268" lon="-3.336773039773107">
        <ele>301.99000000000001</ele>
        <time>2026-07-11T10:21:15Z</time>
      </trkpt>
      <trkpt lat="52.394289001822472" lon="-3.335775006562471">
        <ele>301.02999999999997</ele>
        <time>2026-07-11T10:21:18Z</time>
      </trkpt>
      <trkpt lat="52.394112981855869" lon="-3.332532970234752">
        <ele>298.63</ele>
        <time>2026-07-11T10:21:27Z</time>
      </trkpt>
      <trkpt lat="52.394099989905953" lon="-3.331573996692896">
        <ele>296.22000000000003</ele>
        <time>2026-07-11T10:21:30Z</time>
      </trkpt>
      <trkpt lat="52.394106024876237" lon="-3.330764975398779">
        <ele>294.77999999999997</ele>
        <time>2026-07-11T10:21:34Z</time>
      </trkpt>
      <trkpt lat="52.394112981855869" lon="-3.330595996230841">
        <ele>294.77999999999997</ele>
        <time>2026-07-11T10:21:35Z</time>
      </trkpt>
      <trkpt lat="52.394122034311295" lon="-3.330329032614827">
        <ele>294.30000000000001</ele>
        <time>2026-07-11T10:21:37Z</time>
      </trkpt>
      <trkpt lat="52.394126979634166" lon="-3.330205986276269">
        <ele>293.81999999999999</ele>
        <time>2026-07-11T10:21:38Z</time>
      </trkpt>
      <trkpt lat="52.394131002947688" lon="-3.330084029585123">
        <ele>292.86000000000001</ele>
        <time>2026-07-11T10:21:39Z</time>
      </trkpt>
      <trkpt lat="52.39413502626121" lon="-3.329980010166764">
        <ele>292.38</ele>
        <time>2026-07-11T10:21:40Z</time>
      </trkpt>
      <trkpt lat="52.39413795992732" lon="-3.329899040982127">
        <ele>291.42000000000002</ele>
        <time>2026-07-11T10:21:41Z</time>
      </trkpt>
      <trkpt lat="52.394140977412462" lon="-3.329831985756755">
        <ele>290.94</ele>
        <time>2026-07-11T10:21:42Z</time>
      </trkpt>
      <trkpt lat="52.394142989069223" lon="-3.329782029613853">
        <ele>289.97000000000003</ele>
        <time>2026-07-11T10:21:43Z</time>
      </trkpt>
      <trkpt lat="52.394142989069223" lon="-3.329780017957091">
        <ele>289.49000000000001</ele>
        <time>2026-07-11T10:21:44Z</time>
      </trkpt>
      <trkpt lat="52.394148018211126" lon="-3.329687984660268">
        <ele>288.52999999999997</ele>
        <time>2026-07-11T10:21:45Z</time>
      </trkpt>
      <trkpt lat="52.394150029867887" lon="-3.329641968011856">
        <ele>288.05000000000001</ele>
        <time>2026-07-11T10:21:46Z</time>
      </trkpt>
      <trkpt lat="52.394152963533998" lon="-3.329600980505347">
        <ele>287.56999999999999</ele>
        <time>2026-07-11T10:21:47Z</time>
      </trkpt>
      <trkpt lat="52.394152963533998" lon="-3.329600980505347">
        <ele>287.08999999999997</ele>
        <time>2026-07-11T10:21:48Z</time>
      </trkpt>
      <trkpt lat="52.39415698684752" lon="-3.329526968300343">
        <ele>286.13</ele>
        <time>2026-07-11T10:21:52Z</time>
      </trkpt>
      <trkpt lat="52.394112981855869" lon="-3.329131007194519">
        <ele>286.13</ele>
        <time>2026-07-11T10:21:59Z</time>
      </trkpt>
      <trkpt lat="52.394110970199108" lon="-3.329087002202869">
        <ele>288.05000000000001</ele>
        <time>2026-07-11T10:22:11Z</time>
      </trkpt>
      <trkpt lat="52.394110970199108" lon="-3.329087002202869">
        <ele>288.52999999999997</ele>
        <time>2026-07-11T10:22:59Z</time>
      </trkpt>
      <trkpt lat="52.394100995734334" lon="-3.328877035528421">
        <ele>291.89999999999998</ele>
        <time>2026-07-11T10:23:08Z</time>
      </trkpt>
      <trkpt lat="52.394181964918971" lon="-3.328812997788191">
        <ele>292.38</ele>
        <time>2026-07-11T10:23:09Z</time>
      </trkpt>
      <trkpt lat="52.39417802542448" lon="-3.328707972541452">
        <ele>292.86000000000001</ele>
        <time>2026-07-11T10:23:10Z</time>
      </trkpt>
      <trkpt lat="52.394174002110958" lon="-3.328579980880022">
        <ele>293.33999999999997</ele>
        <time>2026-07-11T10:23:11Z</time>
      </trkpt>
      <trkpt lat="52.394167967140675" lon="-3.328426005318761">
        <ele>293.33999999999997</ele>
        <time>2026-07-11T10:23:12Z</time>
      </trkpt>
      <trkpt lat="52.393982978537679" lon="-3.327717985957861">
        <ele>291.42000000000002</ele>
        <time>2026-07-11T10:23:17Z</time>
      </trkpt>
      <trkpt lat="52.393927993252873" lon="-3.327591000124812">
        <ele>290.94</ele>
        <time>2026-07-11T10:23:18Z</time>
      </trkpt>
      <trkpt lat="52.393154008314013" lon="-3.326146965846419">
        <ele>285.64999999999998</ele>
        <time>2026-07-11T10:23:26Z</time>
      </trkpt>
      <trkpt lat="52.392790988087654" lon="-3.325553024187684">
        <ele>286.61000000000001</ele>
        <time>2026-07-11T10:23:29Z</time>
      </trkpt>
      <trkpt lat="52.392709013074636" lon="-3.325457973405719">
        <ele>286.61000000000001</ele>
        <time>2026-07-11T10:23:30Z</time>
      </trkpt>
      <trkpt lat="52.392426040023565" lon="-3.325182963162661">
        <ele>287.08999999999997</ele>
        <time>2026-07-11T10:23:32Z</time>
      </trkpt>
      <trkpt lat="52.39192396402359" lon="-3.324990011751652">
        <ele>288.52999999999997</ele>
        <time>2026-07-11T10:23:35Z</time>
      </trkpt>
      <trkpt lat="52.3917490337044" lon="-3.324967967346311">
        <ele>289.00999999999999</ele>
        <time>2026-07-11T10:23:36Z</time>
      </trkpt>
      <trkpt lat="52.391567984595895" lon="-3.324975008144975">
        <ele>289.49000000000001</ele>
        <time>2026-07-11T10:23:37Z</time>
      </trkpt>
      <trkpt lat="52.391392970457673" lon="-3.325038040056825">
        <ele>289.49000000000001</ele>
        <time>2026-07-11T10:23:38Z</time>
      </trkpt>
      <trkpt lat="52.391220973804593" lon="-3.325138036161661">
        <ele>289.97000000000003</ele>
        <time>2026-07-11T10:23:39Z</time>
      </trkpt>
      <trkpt lat="52.3910600412637" lon="-3.325253035873175">
        <ele>290.45999999999998</ele>
        <time>2026-07-11T10:23:40Z</time>
      </trkpt>
      <trkpt lat="52.39091201685369" lon="-3.325412040576339">
        <ele>290.45999999999998</ele>
        <time>2026-07-11T10:23:41Z</time>
      </trkpt>
      <trkpt lat="52.390766004100442" lon="-3.325580013915896">
        <ele>290.94</ele>
        <time>2026-07-11T10:23:42Z</time>
      </trkpt>
      <trkpt lat="52.390127973631024" lon="-3.326490959152579">
        <ele>292.86000000000001</ele>
        <time>2026-07-11T10:23:47Z</time>
      </trkpt>
      <trkpt lat="52.389737041667104" lon="-3.32681399770081">
        <ele>295.74000000000001</ele>
        <time>2026-07-11T10:23:50Z</time>
      </trkpt>
      <trkpt lat="52.388725010678172" lon="-3.327219011262059">
        <ele>300.55000000000001</ele>
        <time>2026-07-11T10:23:57Z</time>
      </trkpt>
      <trkpt lat="52.388563994318247" lon="-3.327207025140524">
        <ele>300.55000000000001</ele>
        <time>2026-07-11T10:23:58Z</time>
      </trkpt>
      <trkpt lat="52.38839996047318" lon="-3.327187998220325">
        <ele>300.55000000000001</ele>
        <time>2026-07-11T10:23:59Z</time>
      </trkpt>
      <trkpt lat="52.386944023892283" lon="-3.326864959672093">
        <ele>301.99000000000001</ele>
        <time>2026-07-11T10:24:07Z</time>
      </trkpt>
      <trkpt lat="52.386553008109331" lon="-3.326787007972598">
        <ele>302.47000000000003</ele>
        <time>2026-07-11T10:24:09Z</time>
      </trkpt>
      <trkpt lat="52.386362990364432" lon="-3.326802011579275">
        <ele>302.94999999999999</ele>
        <time>2026-07-11T10:24:10Z</time>
      </trkpt>
      <trkpt lat="52.386170960962772" lon="-3.326816009357572">
        <ele>303.43000000000001</ele>
        <time>2026-07-11T10:24:11Z</time>
      </trkpt>
      <trkpt lat="52.385418014600873" lon="-3.326955987140536">
        <ele>302.94999999999999</ele>
        <time>2026-07-11T10:24:15Z</time>
      </trkpt>
      <trkpt lat="52.385232020169497" lon="-3.32694299519062">
        <ele>302.47000000000003</ele>
        <time>2026-07-11T10:24:16Z</time>
      </trkpt>
      <trkpt lat="52.385045019909739" lon="-3.326930003240705">
        <ele>301.99000000000001</ele>
        <time>2026-07-11T10:24:17Z</time>
      </trkpt>
      <trkpt lat="52.384861037135124" lon="-3.32687702961266">
        <ele>301.50999999999999</ele>
        <time>2026-07-11T10:24:18Z</time>
      </trkpt>
      <trkpt lat="52.384673031046987" lon="-3.326810980215669">
        <ele>301.50999999999999</ele>
        <time>2026-07-11T10:24:19Z</time>
      </trkpt>
      <trkpt lat="52.383231008425355" lon="-3.326367996633053">
        <ele>298.63</ele>
        <time>2026-07-11T10:24:27Z</time>
      </trkpt>
      <trkpt lat="52.382614016532898" lon="-3.326462041586638">
        <ele>297.18000000000001</ele>
        <time>2026-07-11T10:24:33Z</time>
      </trkpt>
      <trkpt lat="52.382556013762951" lon="-3.326393980532885">
        <ele>297.18000000000001</ele>
        <time>2026-07-11T10:24:34Z</time>
      </trkpt>
      <trkpt lat="52.382556013762951" lon="-3.326341006904841">
        <ele>297.18000000000001</ele>
        <time>2026-07-11T10:24:35Z</time>
      </trkpt>
      <trkpt lat="52.382556013762951" lon="-3.326268000528216">
        <ele>296.69999999999999</ele>
        <time>2026-07-11T10:24:36Z</time>
      </trkpt>
      <trkpt lat="52.38257403485477" lon="-3.326202034950256">
        <ele>297.18000000000001</ele>
        <time>2026-07-11T10:24:37Z</time>
      </trkpt>
      <trkpt lat="52.382613010704517" lon="-3.326126011088491">
        <ele>297.18000000000001</ele>
        <time>2026-07-11T10:24:38Z</time>
      </trkpt>
      <trkpt lat="52.382657015696168" lon="-3.326035989448428">
        <ele>297.18000000000001</ele>
        <time>2026-07-11T10:24:39Z</time>
      </trkpt>
      <trkpt lat="52.382702026516199" lon="-3.325947979465127">
        <ele>297.18000000000001</ele>
        <time>2026-07-11T10:24:40Z</time>
      </trkpt>
      <trkpt lat="52.38272700458765" lon="-3.325896011665463">
        <ele>297.67000000000002</ele>
        <time>2026-07-11T10:24:41Z</time>
      </trkpt>
      <trkpt lat="52.382800010964274" lon="-3.325817976146936">
        <ele>297.67000000000002</ele>
        <time>2026-07-11T10:24:42Z</time>
      </trkpt>
      <trkpt lat="52.382946023717523" lon="-3.325660983100534">
        <ele>298.63</ele>
        <time>2026-07-11T10:24:44Z</time>
      </trkpt>
      <trkpt lat="52.383022969588637" lon="-3.325578002259135">
        <ele>298.63</ele>
        <time>2026-07-11T10:24:45Z</time>
      </trkpt>
      <trkpt lat="52.383106034249067" lon="-3.325487980619073">
        <ele>298.63</ele>
        <time>2026-07-11T10:24:46Z</time>
      </trkpt>
      <trkpt lat="52.383189015090466" lon="-3.325398964807391">
        <ele>298.63</ele>
        <time>2026-07-11T10:24:47Z</time>
      </trkpt>
      <trkpt lat="52.38326596096158" lon="-3.325315983965993">
        <ele>298.63</ele>
        <time>2026-07-11T10:24:48Z</time>
      </trkpt>
      <trkpt lat="52.383323041722178" lon="-3.325224034488201">
        <ele>298.63</ele>
        <time>2026-07-11T10:24:49Z</time>
      </trkpt>
      <trkpt lat="52.38337098620832" lon="-3.325132001191378">
        <ele>298.14999999999998</ele>
        <time>2026-07-11T10:24:50Z</time>
      </trkpt>
      <trkpt lat="52.383417002856731" lon="-3.325043991208077">
        <ele>297.67000000000002</ele>
        <time>2026-07-11T10:24:51Z</time>
      </trkpt>
      <trkpt lat="52.383463019505143" lon="-3.324955981224775">
        <ele>297.18000000000001</ele>
        <time>2026-07-11T10:24:52Z</time>
      </trkpt>
      <trkpt lat="52.383506018668413" lon="-3.324874006211758">
        <ele>297.67000000000002</ele>
        <time>2026-07-11T10:24:53Z</time>
      </trkpt>
      <trkpt lat="52.38352102227509" lon="-3.324845004826784">
        <ele>297.18000000000001</ele>
        <time>2026-07-11T10:24:54Z</time>
      </trkpt>
      <trkpt lat="52.38360702060163" lon="-3.324734028428793">
        <ele>296.69999999999999</ele>
        <time>2026-07-11T10:24:55Z</time>
      </trkpt>
      <trkpt lat="52.383599979802966" lon="-3.324653981253505">
        <ele>296.69999999999999</ele>
        <time>2026-07-11T10:24:56Z</time>
      </trkpt>
      <trkpt lat="52.383592016994953" lon="-3.32455700263381">
        <ele>296.69999999999999</ele>
        <time>2026-07-11T10:24:57Z</time>
      </trkpt>
      <trkpt lat="52.383572990074754" lon="-3.324425993487239">
        <ele>296.69999999999999</ele>
        <time>2026-07-11T10:24:58Z</time>
      </trkpt>
      <trkpt lat="52.383472993969917" lon="-3.324013017117977">
        <ele>298.63</ele>
        <time>2026-07-11T10:25:01Z</time>
      </trkpt>
      <trkpt lat="52.383425971493125" lon="-3.323901034891605">
        <ele>299.58999999999997</ele>
        <time>2026-07-11T10:25:02Z</time>
      </trkpt>
      <trkpt lat="52.383366962894797" lon="-3.323817970231175">
        <ele>301.02999999999997</ele>
        <time>2026-07-11T10:25:03Z</time>
      </trkpt>
      <trkpt lat="52.383288005366921" lon="-3.323771031573415">
        <ele>302.47000000000003</ele>
        <time>2026-07-11T10:25:04Z</time>
      </trkpt>
      <trkpt lat="52.383193038403988" lon="-3.323737001046538">
        <ele>303.91000000000003</ele>
        <time>2026-07-11T10:25:05Z</time>
      </trkpt>
      <trkpt lat="52.38309002481401" lon="-3.323699031025171">
        <ele>305.36000000000001</ele>
        <time>2026-07-11T10:25:06Z</time>
      </trkpt>
      <trkpt lat="52.382615022361279" lon="-3.323526028543711">
        <ele>311.12</ele>
        <time>2026-07-11T10:25:10Z</time>
      </trkpt>
      <trkpt lat="52.382203973829746" lon="-3.32337599247694">
        <ele>315.44999999999999</ele>
        <time>2026-07-11T10:25:13Z</time>
      </trkpt>
      <trkpt lat="52.381387995555997" lon="-3.323002997785807">
        <ele>325.06</ele>
        <time>2026-07-11T10:25:19Z</time>
      </trkpt>
      <trkpt lat="52.381269978359342" lon="-3.322936026379466">
        <ele>326.01999999999998</ele>
        <time>2026-07-11T10:25:20Z</time>
      </trkpt>
      <trkpt lat="52.381161013618112" lon="-3.322910964488983">
        <ele>326.99000000000001</ele>
        <time>2026-07-11T10:25:21Z</time>
      </trkpt>
      <trkpt lat="52.381056994199753" lon="-3.322887998074293">
        <ele>327.47000000000003</ele>
        <time>2026-07-11T10:25:22Z</time>
      </trkpt>
      <trkpt lat="52.380962027236819" lon="-3.322866959497333">
        <ele>327.94999999999999</ele>
        <time>2026-07-11T10:25:23Z</time>
      </trkpt>
      <trkpt lat="52.380868988111615" lon="-3.322842987254262">
        <ele>327.94999999999999</ele>
        <time>2026-07-11T10:25:24Z</time>
      </trkpt>
      <trkpt lat="52.380790030583739" lon="-3.322803005576134">
        <ele>328.43000000000001</ele>
        <time>2026-07-11T10:25:25Z</time>
      </trkpt>
      <trkpt lat="52.380720041692257" lon="-3.322768975049257">
        <ele>328.91000000000003</ele>
        <time>2026-07-11T10:25:26Z</time>
      </trkpt>
      <trkpt lat="52.380661033093929" lon="-3.322738967835903">
        <ele>329.38999999999999</ele>
        <time>2026-07-11T10:25:27Z</time>
      </trkpt>
      <trkpt lat="52.380623985081911" lon="-3.322585998103023">
        <ele>329.87</ele>
        <time>2026-07-11T10:25:28Z</time>
      </trkpt>
      <trkpt lat="52.380623985081911" lon="-3.322490025311709">
        <ele>330.35000000000002</ele>
        <time>2026-07-11T10:25:29Z</time>
      </trkpt>
      <trkpt lat="52.380623985081911" lon="-3.322385000064969">
        <ele>330.82999999999998</ele>
        <time>2026-07-11T10:25:30Z</time>
      </trkpt>
      <trkpt lat="52.380623985081911" lon="-3.322281986474991">
        <ele>331.79000000000002</ele>
        <time>2026-07-11T10:25:31Z</time>
      </trkpt>
      <trkpt lat="52.380623985081911" lon="-3.322141002863646">
        <ele>332.75</ele>
        <time>2026-07-11T10:25:32Z</time>
      </trkpt>
      <trkpt lat="52.380644017830491" lon="-3.322083000093699">
        <ele>333.70999999999998</ele>
        <time>2026-07-11T10:25:33Z</time>
      </trkpt>
      <trkpt lat="52.380676036700606" lon="-3.321987027302384">
        <ele>334.68000000000001</ele>
        <time>2026-07-11T10:25:34Z</time>
      </trkpt>
      <trkpt lat="52.380709983408451" lon="-3.321885019540787">
        <ele>336.12</ele>
        <time>2026-07-11T10:25:35Z</time>
      </trkpt>
      <trkpt lat="52.380763962864876" lon="-3.3217219915241">
        <ele>338.51999999999998</ele>
        <time>2026-07-11T10:25:37Z</time>
      </trkpt>
      <trkpt lat="52.380806962028146" lon="-3.32159198820591">
        <ele>339.95999999999998</ele>
        <time>2026-07-11T10:25:39Z</time>
      </trkpt>
      <trkpt lat="52.380870999768376" lon="-3.32137699238956">
        <ele>341.88999999999999</ele>
        <time>2026-07-11T10:25:41Z</time>
      </trkpt>
      <trkpt lat="52.380894972011447" lon="-3.321240032091737">
        <ele>342.85000000000002</ele>
        <time>2026-07-11T10:25:42Z</time>
      </trkpt>
      <trkpt lat="52.380919028073549" lon="-3.321101982146502">
        <ele>344.29000000000002</ele>
        <time>2026-07-11T10:25:43Z</time>
      </trkpt>
      <trkpt lat="52.380946017801762" lon="-3.320951024070382">
        <ele>345.73000000000002</ele>
        <time>2026-07-11T10:25:44Z</time>
      </trkpt>
      <trkpt lat="52.380967978388071" lon="-3.320832001045346">
        <ele>347.17000000000002</ele>
        <time>2026-07-11T10:25:45Z</time>
      </trkpt>
      <trkpt lat="52.380977030843496" lon="-3.320612981915474">
        <ele>349.10000000000002</ele>
        <time>2026-07-11T10:25:46Z</time>
      </trkpt>
      <trkpt lat="52.380983987823129" lon="-3.320447020232678">
        <ele>351.01999999999998</ele>
        <time>2026-07-11T10:25:47Z</time>
      </trkpt>
      <trkpt lat="52.38098599947989" lon="-3.320291033014655">
        <ele>352.45999999999998</ele>
        <time>2026-07-11T10:25:48Z</time>
      </trkpt>
      <trkpt lat="52.380956998094916" lon="-3.320046029984951">
        <ele>355.82999999999998</ele>
        <time>2026-07-11T10:25:50Z</time>
      </trkpt>
      <trkpt lat="52.380950041115284" lon="-3.319987021386623">
        <ele>357.26999999999998</ele>
        <time>2026-07-11T10:25:51Z</time>
      </trkpt>
      <trkpt lat="52.380950041115284" lon="-3.319987021386623">
        <ele>358.23000000000002</ele>
        <time>2026-07-11T10:25:58Z</time>
      </trkpt>
      <trkpt lat="52.380936965346336" lon="-3.319927006959915">
        <ele>360.14999999999998</ele>
        <time>2026-07-11T10:26:09Z</time>
      </trkpt>
      <trkpt lat="52.380936965346336" lon="-3.319927006959915">
        <ele>360.63</ele>
        <time>2026-07-11T10:26:22Z</time>
      </trkpt>
      <trkpt lat="52.380950963124633" lon="-3.319994984194636">
        <ele>361.11000000000001</ele>
        <time>2026-07-11T10:26:33Z</time>
      </trkpt>
      <trkpt lat="52.380954986438155" lon="-3.320029014721513">
        <ele>361.11000000000001</ele>
        <time>2026-07-11T10:26:34Z</time>
      </trkpt>
      <trkpt lat="52.380961021408439" lon="-3.320075031369925">
        <ele>361.11000000000001</ele>
        <time>2026-07-11T10:26:35Z</time>
      </trkpt>
      <trkpt lat="52.38096697255969" lon="-3.320128004997969">
        <ele>360.63</ele>
        <time>2026-07-11T10:26:36Z</time>
      </trkpt>
      <trkpt lat="52.380972001701593" lon="-3.320168992504478">
        <ele>360.14999999999998</ele>
        <time>2026-07-11T10:26:37Z</time>
      </trkpt>
      <trkpt lat="52.380972001701593" lon="-3.320168992504478">
        <ele>359.67000000000002</ele>
        <time>2026-07-11T10:26:51Z</time>
      </trkpt>
      <trkpt lat="52.380977030843496" lon="-3.320608036592603">
        <ele>357.26999999999998</ele>
        <time>2026-07-11T10:26:58Z</time>
      </trkpt>
      <trkpt lat="52.38096596673131" lon="-3.320843987166882">
        <ele>356.31</ele>
        <time>2026-07-11T10:27:00Z</time>
      </trkpt>
      <trkpt lat="52.380945011973381" lon="-3.320958986878395">
        <ele>355.33999999999997</ele>
        <time>2026-07-11T10:27:01Z</time>
      </trkpt>
      <trkpt lat="52.380925985053182" lon="-3.321066023781896">
        <ele>354.86000000000001</ele>
        <time>2026-07-11T10:27:02Z</time>
      </trkpt>
      <trkpt lat="52.380883991718292" lon="-3.321300968527794">
        <ele>353.89999999999998</ele>
        <time>2026-07-11T10:27:04Z</time>
      </trkpt>
      <trkpt lat="52.380860019475222" lon="-3.321432983502746">
        <ele>353.42000000000002</ele>
        <time>2026-07-11T10:27:05Z</time>
      </trkpt>
      <trkpt lat="52.380822971463203" lon="-3.321544965729117">
        <ele>352.45999999999998</ele>
        <time>2026-07-11T10:27:06Z</time>
      </trkpt>
      <trkpt lat="52.380623985081911" lon="-3.322324985638261">
        <ele>343.81</ele>
        <time>2026-07-11T10:27:13Z</time>
      </trkpt>
      <trkpt lat="52.380623985081911" lon="-3.322425987571478">
        <ele>342.85000000000002</ele>
        <time>2026-07-11T10:27:14Z</time>
      </trkpt>
      <trkpt lat="52.380623985081911" lon="-3.322508968412876">
        <ele>341.41000000000003</ele>
        <time>2026-07-11T10:27:15Z</time>
      </trkpt>
      <trkpt lat="52.380623985081911" lon="-3.322584992274642">
        <ele>340.44</ele>
        <time>2026-07-11T10:27:16Z</time>
      </trkpt>
      <trkpt lat="52.380623985081911" lon="-3.322655986994505">
        <ele>339.48000000000002</ele>
        <time>2026-07-11T10:27:17Z</time>
      </trkpt>
      <trkpt lat="52.380607975646853" lon="-3.322732010856271">
        <ele>338.51999999999998</ele>
        <time>2026-07-11T10:27:18Z</time>
      </trkpt>
      <trkpt lat="52.38057604059577" lon="-3.3227529656142">
        <ele>337.56</ele>
        <time>2026-07-11T10:27:19Z</time>
      </trkpt>
      <trkpt lat="52.3805330414325" lon="-3.322781966999173">
        <ele>337.07999999999998</ele>
        <time>2026-07-11T10:27:20Z</time>
      </trkpt>
      <trkpt lat="52.380483001470566" lon="-3.322814991697669">
        <ele>336.60000000000002</ele>
        <time>2026-07-11T10:27:21Z</time>
      </trkpt>
      <trkpt lat="52.380418963730335" lon="-3.322856985032558">
        <ele>336.12</ele>
        <time>2026-07-11T10:27:22Z</time>
      </trkpt>
      <trkpt lat="52.380344029515982" lon="-3.322908030822873">
        <ele>335.63999999999999</ele>
        <time>2026-07-11T10:27:23Z</time>
      </trkpt>
      <trkpt lat="52.380261970683932" lon="-3.322994029149413">
        <ele>335.63999999999999</ele>
        <time>2026-07-11T10:27:24Z</time>
      </trkpt>
      <trkpt lat="52.380186030641198" lon="-3.323103999719024">
        <ele>335.63999999999999</ele>
        <time>2026-07-11T10:27:25Z</time>
      </trkpt>
      <trkpt lat="52.379952007904649" lon="-3.323370041325688">
        <ele>335.63999999999999</ele>
        <time>2026-07-11T10:27:28Z</time>
      </trkpt>
      <trkpt lat="52.379852011799812" lon="-3.323450004681945">
        <ele>335.63999999999999</ele>
        <time>2026-07-11T10:27:29Z</time>
      </trkpt>
      <trkpt lat="52.379783028736711" lon="-3.323457967489958">
        <ele>336.12</ele>
        <time>2026-07-11T10:27:30Z</time>
      </trkpt>
      <trkpt lat="52.378691034391522" lon="-3.32346199080348">
        <ele>346.20999999999998</ele>
        <time>2026-07-11T10:27:40Z</time>
      </trkpt>
      <trkpt lat="52.37761395983398" lon="-3.32322302274406">
        <ele>355.82999999999998</ele>
        <time>2026-07-11T10:27:48Z</time>
      </trkpt>
      <trkpt lat="52.376697985455394" lon="-3.322921022772789">
        <ele>364.95999999999998</ele>
        <time>2026-07-11T10:27:55Z</time>
      </trkpt>
      <trkpt lat="52.375847976654768" lon="-3.323068041354418">
        <ele>366.39999999999998</ele>
        <time>2026-07-11T10:28:02Z</time>
      </trkpt>
      <trkpt lat="52.374935019761324" lon="-3.323625018820167">
        <ele>362.06999999999999</ele>
        <time>2026-07-11T10:28:10Z</time>
      </trkpt>
      <trkpt lat="52.374794958159328" lon="-3.323748987168074">
        <ele>361.58999999999997</ele>
        <time>2026-07-11T10:28:12Z</time>
      </trkpt>
      <trkpt lat="52.374725975096226" lon="-3.323787041008472">
        <ele>361.11000000000001</ele>
        <time>2026-07-11T10:28:13Z</time>
      </trkpt>
      <trkpt lat="52.374637965112925" lon="-3.323835991322994">
        <ele>361.11000000000001</ele>
        <time>2026-07-11T10:28:14Z</time>
      </trkpt>
      <trkpt lat="52.374573005363345" lon="-3.323832973837853">
        <ele>360.63</ele>
        <time>2026-07-11T10:28:15Z</time>
      </trkpt>
      <trkpt lat="52.374469991773367" lon="-3.323828028514981">
        <ele>360.63</ele>
        <time>2026-07-11T10:28:16Z</time>
      </trkpt>
      <trkpt lat="52.373549994081259" lon="-3.323781006038189">
        <ele>357.75</ele>
        <time>2026-07-11T10:28:23Z</time>
      </trkpt>
      <trkpt lat="52.373428959399462" lon="-3.323774971067905">
        <ele>356.79000000000002</ele>
        <time>2026-07-11T10:28:24Z</time>
      </trkpt>
      <trkpt lat="52.373312031850219" lon="-3.323792992159724">
        <ele>356.31</ele>
        <time>2026-07-11T10:28:25Z</time>
      </trkpt>
      <trkpt lat="52.373198037967086" lon="-3.323833979666233">
        <ele>355.33999999999997</ele>
        <time>2026-07-11T10:28:26Z</time>
      </trkpt>
      <trkpt lat="52.373070968315005" lon="-3.323878990486264">
        <ele>354.38</ele>
        <time>2026-07-11T10:28:27Z</time>
      </trkpt>
      <trkpt lat="52.372976001352072" lon="-3.323951996862888">
        <ele>353.89999999999998</ele>
        <time>2026-07-11T10:28:28Z</time>
      </trkpt>
      <trkpt lat="52.372874999418855" lon="-3.324029026553035">
        <ele>352.94</ele>
        <time>2026-07-11T10:28:29Z</time>
      </trkpt>
      <trkpt lat="52.372623039409518" lon="-3.32419197075069">
        <ele>351.5</ele>
        <time>2026-07-11T10:28:32Z</time>
      </trkpt>
      <trkpt lat="52.372330008074641" lon="-3.324308982118964">
        <ele>349.57999999999998</ele>
        <time>2026-07-11T10:28:35Z</time>
      </trkpt>
      <trkpt lat="52.372226994484663" lon="-3.324349969625473">
        <ele>348.62</ele>
        <time>2026-07-11T10:28:36Z</time>
      </trkpt>
      <trkpt lat="52.372125992551446" lon="-3.324405960738659">
        <ele>348.13</ele>
        <time>2026-07-11T10:28:37Z</time>
      </trkpt>
      <trkpt lat="52.371121002361178" lon="-3.325154967606068">
        <ele>339.48000000000002</ele>
        <time>2026-07-11T10:28:46Z</time>
      </trkpt>
      <trkpt lat="52.370774997398257" lon="-3.325311960652471">
        <ele>336.60000000000002</ele>
        <time>2026-07-11T10:28:51Z</time>
      </trkpt>
      <trkpt lat="52.370710959658027" lon="-3.325338028371334">
        <ele>336.12</ele>
        <time>2026-07-11T10:28:52Z</time>
      </trkpt>
      <trkpt lat="52.37065396271646" lon="-3.325406005606055">
        <ele>335.63999999999999</ele>
        <time>2026-07-11T10:28:53Z</time>
      </trkpt>
      <trkpt lat="52.370560001581907" lon="-3.325518993660808">
        <ele>334.19999999999999</ele>
        <time>2026-07-11T10:28:55Z</time>
      </trkpt>
      <trkpt lat="52.370366966351867" lon="-3.325747987255454">
        <ele>331.31</ele>
        <time>2026-07-11T10:28:59Z</time>
      </trkpt>
      <trkpt lat="52.370319021865726" lon="-3.325804984197021">
        <ele>330.82999999999998</ele>
        <time>2026-07-11T10:29:00Z</time>
      </trkpt>
      <trkpt lat="52.370274011045694" lon="-3.325858963653445">
        <ele>330.35000000000002</ele>
        <time>2026-07-11T10:29:01Z</time>
      </trkpt>
      <trkpt lat="52.370260013267398" lon="-3.325874973088503">
        <ele>329.87</ele>
        <time>2026-07-11T10:29:02Z</time>
      </trkpt>
      <trkpt lat="52.370260013267398" lon="-3.325874973088503">
        <ele>329.38999999999999</ele>
        <time>2026-07-11T10:29:03Z</time>
      </trkpt>
      <trkpt lat="52.370260013267398" lon="-3.325874973088503">
        <ele>328.91000000000003</ele>
        <time>2026-07-11T10:29:04Z</time>
      </trkpt>
      <trkpt lat="52.370198993012309" lon="-3.325818981975317">
        <ele>327.94999999999999</ele>
        <time>2026-07-11T10:29:05Z</time>
      </trkpt>
      <trkpt lat="52.370159011334181" lon="-3.325783023610711">
        <ele>327.47000000000003</ele>
        <time>2026-07-11T10:29:06Z</time>
      </trkpt>
      <trkpt lat="52.370026996359229" lon="-3.325662994757295">
        <ele>325.06</ele>
        <time>2026-07-11T10:29:10Z</time>
      </trkpt>
      <trkpt lat="52.369991037994623" lon="-3.325645979493856">
        <ele>324.10000000000002</ele>
        <time>2026-07-11T10:29:11Z</time>
      </trkpt>
      <trkpt lat="52.369946027174592" lon="-3.325626030564308">
        <ele>323.62</ele>
        <time>2026-07-11T10:29:12Z</time>
      </trkpt>
      <trkpt lat="52.369894981384277" lon="-3.325603986158967">
        <ele>323.13999999999999</ele>
        <time>2026-07-11T10:29:13Z</time>
      </trkpt>
      <trkpt lat="52.369847036898136" lon="-3.325583031401038">
        <ele>322.66000000000003</ele>
        <time>2026-07-11T10:29:14Z</time>
      </trkpt>
      <trkpt lat="52.369801020249724" lon="-3.325562998652458">
        <ele>322.18000000000001</ele>
        <time>2026-07-11T10:29:15Z</time>
      </trkpt>
      <trkpt lat="52.369756009429693" lon="-3.325542965903878">
        <ele>321.69999999999999</ele>
        <time>2026-07-11T10:29:16Z</time>
      </trkpt>
      <trkpt lat="52.369640003889799" lon="-3.325464008376002">
        <ele>320.74000000000001</ele>
        <time>2026-07-11T10:29:18Z</time>
      </trkpt>
      <trkpt lat="52.369531961157918" lon="-3.325342973694205">
        <ele>318.81</ele>
        <time>2026-07-11T10:29:20Z</time>
      </trkpt>
      <trkpt lat="52.369361976161599" lon="-3.325151028111577">
        <ele>316.88999999999999</ele>
        <time>2026-07-11T10:29:23Z</time>
      </trkpt>
      <trkpt lat="52.369310008361936" lon="-3.325113980099559">
        <ele>316.41000000000003</ele>
        <time>2026-07-11T10:29:24Z</time>
      </trkpt>
      <trkpt lat="52.368467040359974" lon="-3.324840981513262">
        <ele>314.00999999999999</ele>
        <time>2026-07-11T10:29:37Z</time>
      </trkpt>
      <trkpt lat="52.368093961849809" lon="-3.324823966249824">
        <ele>317.85000000000002</ele>
        <time>2026-07-11T10:29:42Z</time>
      </trkpt>
      <trkpt lat="52.368058003485203" lon="-3.324796976521611">
        <ele>318.81</ele>
        <time>2026-07-11T10:29:43Z</time>
      </trkpt>
      <trkpt lat="52.36800704151392" lon="-3.324759006500244">
        <ele>319.30000000000001</ele>
        <time>2026-07-11T10:29:44Z</time>
      </trkpt>
      <trkpt lat="52.367992959916592" lon="-3.324720030650497">
        <ele>319.77999999999997</ele>
        <time>2026-07-11T10:29:45Z</time>
      </trkpt>
      <trkpt lat="52.367963036522269" lon="-3.324637971818447">
        <ele>320.25999999999999</ele>
        <time>2026-07-11T10:29:46Z</time>
      </trkpt>
      <trkpt lat="52.367928000167012" lon="-3.324540993198752">
        <ele>320.25999999999999</ele>
        <time>2026-07-11T10:29:47Z</time>
      </trkpt>
      <trkpt lat="52.367849964648485" lon="-3.324480978772044">
        <ele>319.30000000000001</ele>
        <time>2026-07-11T10:29:48Z</time>
      </trkpt>
      <trkpt lat="52.367776958271861" lon="-3.324436973780394">
        <ele>318.32999999999998</ele>
        <time>2026-07-11T10:29:49Z</time>
      </trkpt>
      <trkpt lat="52.367700012400746" lon="-3.324393974617124">
        <ele>317.37</ele>
        <time>2026-07-11T10:29:50Z</time>
      </trkpt>
      <trkpt lat="52.367615019902587" lon="-3.324387017637491">
        <ele>316.41000000000003</ele>
        <time>2026-07-11T10:29:51Z</time>
      </trkpt>
      <trkpt lat="52.367531033232808" lon="-3.324380982667208">
        <ele>315.44999999999999</ele>
        <time>2026-07-11T10:29:52Z</time>
      </trkpt>
      <trkpt lat="52.367445034906268" lon="-3.324374025687575">
        <ele>314.00999999999999</ele>
        <time>2026-07-11T10:29:53Z</time>
      </trkpt>
      <trkpt lat="52.366965003311634" lon="-3.324336977675557">
        <ele>306.31999999999999</ele>
        <time>2026-07-11T10:29:58Z</time>
      </trkpt>
      <trkpt lat="52.366868024691939" lon="-3.324331026524305">
        <ele>305.83999999999997</ele>
        <time>2026-07-11T10:29:59Z</time>
      </trkpt>
      <trkpt lat="52.36626997590065" lon="-3.32462003454566">
        <ele>298.14999999999998</ele>
        <time>2026-07-11T10:30:05Z</time>
      </trkpt>
      <trkpt lat="52.36618397757411" lon="-3.324629003182054">
        <ele>297.18000000000001</ele>
        <time>2026-07-11T10:30:06Z</time>
      </trkpt>
      <trkpt lat="52.366098985075951" lon="-3.324626991525292">
        <ele>295.74000000000001</ele>
        <time>2026-07-11T10:30:07Z</time>
      </trkpt>
      <trkpt lat="52.366023967042565" lon="-3.324624979868531">
        <ele>294.77999999999997</ele>
        <time>2026-07-11T10:30:08Z</time>
      </trkpt>
      <trkpt lat="52.365955989807844" lon="-3.32462296821177">
        <ele>293.81999999999999</ele>
        <time>2026-07-11T10:30:09Z</time>
      </trkpt>
      <trkpt lat="52.365881977602839" lon="-3.324621040374041">
        <ele>292.86000000000001</ele>
        <time>2026-07-11T10:30:10Z</time>
      </trkpt>
      <trkpt lat="52.365804025903344" lon="-3.324619028717279">
        <ele>291.89999999999998</ele>
        <time>2026-07-11T10:30:11Z</time>
      </trkpt>
      <trkpt lat="52.365726996213198" lon="-3.324617017060518">
        <ele>291.42000000000002</ele>
        <time>2026-07-11T10:30:12Z</time>
      </trkpt>
      <trkpt lat="52.36564502120018" lon="-3.324615005403757">
        <ele>291.42000000000002</ele>
        <time>2026-07-11T10:30:13Z</time>
      </trkpt>
      <trkpt lat="52.365482999011874" lon="-3.324610982090235">
        <ele>291.42000000000002</ele>
        <time>2026-07-11T10:30:15Z</time>
      </trkpt>
      <trkpt lat="52.365412004292011" lon="-3.324608970433474">
        <ele>291.42000000000002</ele>
        <time>2026-07-11T10:30:16Z</time>
      </trkpt>
      <trkpt lat="52.365340003743768" lon="-3.324584998190403">
        <ele>291.42000000000002</ele>
        <time>2026-07-11T10:30:17Z</time>
      </trkpt>
      <trkpt lat="52.365275966003537" lon="-3.324563959613442">
        <ele>291.42000000000002</ele>
        <time>2026-07-11T10:30:18Z</time>
      </trkpt>
      <trkpt lat="52.365153003484011" lon="-3.324522972106934">
        <ele>291.42000000000002</ele>
        <time>2026-07-11T10:30:19Z</time>
      </trkpt>
      <trkpt lat="52.365116961300373" lon="-3.324487013742328">
        <ele>291.42000000000002</ele>
        <time>2026-07-11T10:30:20Z</time>
      </trkpt>
      <trkpt lat="52.364971032366157" lon="-3.32434100098908">
        <ele>291.42000000000002</ele>
        <time>2026-07-11T10:30:22Z</time>
      </trkpt>
      <trkpt lat="52.364898025989532" lon="-3.324267994612455">
        <ele>291.89999999999998</ele>
        <time>2026-07-11T10:30:23Z</time>
      </trkpt>
      <trkpt lat="52.36469903960824" lon="-3.324069008231163">
        <ele>293.81999999999999</ele>
        <time>2026-07-11T10:30:26Z</time>
      </trkpt>
      <trkpt lat="52.364640031009912" lon="-3.324009999632835">
        <ele>294.77999999999997</ele>
        <time>2026-07-11T10:30:27Z</time>
      </trkpt>
      <trkpt lat="52.364530982449651" lon="-3.323901034891605">
        <ele>296.22000000000003</ele>
        <time>2026-07-11T10:30:28Z</time>
      </trkpt>
      <trkpt lat="52.364501981064677" lon="-3.323908997699618">
        <ele>297.18000000000001</ele>
        <time>2026-07-11T10:30:29Z</time>
      </trkpt>
      <trkpt lat="52.364427968859673" lon="-3.323929030448198">
        <ele>298.14999999999998</ele>
        <time>2026-07-11T10:30:30Z</time>
      </trkpt>
      <trkpt lat="52.36435697413981" lon="-3.323948979377747">
        <ele>299.58999999999997</ele>
        <time>2026-07-11T10:30:31Z</time>
      </trkpt>
      <trkpt lat="52.364279022440314" lon="-3.323971023783088">
        <ele>300.55000000000001</ele>
        <time>2026-07-11T10:30:32Z</time>
      </trkpt>
      <trkpt lat="52.364193024113774" lon="-3.323996001854539">
        <ele>301.50999999999999</ele>
        <time>2026-07-11T10:30:33Z</time>
      </trkpt>
      <trkpt lat="52.363486010581255" lon="-3.324086023494601">
        <ele>310.16000000000003</ele>
        <time>2026-07-11T10:30:40Z</time>
      </trkpt>
      <trkpt lat="52.36319599673152" lon="-3.324137991294265">
        <ele>314.00999999999999</ele>
        <time>2026-07-11T10:30:43Z</time>
      </trkpt>
      <trkpt lat="52.363005978986621" lon="-3.324169004336">
        <ele>317.37</ele>
        <time>2026-07-11T10:30:45Z</time>
      </trkpt>
      <trkpt lat="52.362815039232373" lon="-3.324201023206115">
        <ele>319.77999999999997</ele>
        <time>2026-07-11T10:30:47Z</time>
      </trkpt>
      <trkpt lat="52.362737003713846" lon="-3.324159029871225">
        <ele>321.22000000000003</ele>
        <time>2026-07-11T10:30:48Z</time>
      </trkpt>
      <trkpt lat="52.362658968195319" lon="-3.324116030707955">
        <ele>321.69999999999999</ele>
        <time>2026-07-11T10:30:49Z</time>
      </trkpt>
      <trkpt lat="52.362505998462439" lon="-3.324031960219145">
        <ele>323.13999999999999</ele>
        <time>2026-07-11T10:30:51Z</time>
      </trkpt>
      <trkpt lat="52.362428968772292" lon="-3.323988961055875">
        <ele>323.13999999999999</ele>
        <time>2026-07-11T10:30:52Z</time>
      </trkpt>
      <trkpt lat="52.3623370192945" lon="-3.323964988812804">
        <ele>322.66000000000003</ele>
        <time>2026-07-11T10:30:53Z</time>
      </trkpt>
      <trkpt lat="52.362021021544933" lon="-3.323964988812804">
        <ele>321.22000000000003</ele>
        <time>2026-07-11T10:30:56Z</time>
      </trkpt>
      <trkpt lat="52.361947009339929" lon="-3.323941016569734">
        <ele>320.74000000000001</ele>
        <time>2026-07-11T10:30:57Z</time>
      </trkpt>
      <trkpt lat="52.361855981871486" lon="-3.323910003527999">
        <ele>319.77999999999997</ele>
        <time>2026-07-11T10:30:58Z</time>
      </trkpt>
      <trkpt lat="52.360989041626453" lon="-3.323553018271923">
        <ele>311.60000000000002</ele>
        <time>2026-07-11T10:31:07Z</time>
      </trkpt>
      <trkpt lat="52.360810004174709" lon="-3.323467019945383">
        <ele>310.63999999999999</ele>
        <time>2026-07-11T10:31:09Z</time>
      </trkpt>
      <trkpt lat="52.359997965395451" lon="-3.323320001363754">
        <ele>305.36000000000001</ele>
        <time>2026-07-11T10:31:18Z</time>
      </trkpt>
      <trkpt lat="52.359208976849914" lon="-3.322708960622549">
        <ele>298.63</ele>
        <time>2026-07-11T10:31:26Z</time>
      </trkpt>
      <trkpt lat="52.359111998230219" lon="-3.32262103445828">
        <ele>297.67000000000002</ele>
        <time>2026-07-11T10:31:27Z</time>
      </trkpt>
      <trkpt lat="52.359017031267285" lon="-3.322499999776483">
        <ele>296.69999999999999</ele>
        <time>2026-07-11T10:31:28Z</time>
      </trkpt>
      <trkpt lat="52.358293002471328" lon="-3.321674969047308">
        <ele>291.42000000000002</ele>
        <time>2026-07-11T10:31:35Z</time>
      </trkpt>
      <trkpt lat="52.357305027544498" lon="-3.320136973634362">
        <ele>285.17000000000002</ele>
        <time>2026-07-11T10:31:45Z</time>
      </trkpt>
      <trkpt lat="52.356700021773577" lon="-3.318981025367975">
        <ele>283.25</ele>
        <time>2026-07-11T10:31:53Z</time>
      </trkpt>
      <trkpt lat="52.356442026793957" lon="-3.318365039303899">
        <ele>277.95999999999998</ele>
        <time>2026-07-11T10:31:58Z</time>
      </trkpt>
      <trkpt lat="52.356354016810656" lon="-3.318256996572018">
        <ele>277</ele>
        <time>2026-07-11T10:31:59Z</time>
      </trkpt>
      <trkpt lat="52.356292996555567" lon="-3.318181978538632">
        <ele>276.04000000000002</ele>
        <time>2026-07-11T10:32:00Z</time>
      </trkpt>
      <trkpt lat="52.356243040412664" lon="-3.318120036274195">
        <ele>275.56</ele>
        <time>2026-07-11T10:32:01Z</time>
      </trkpt>
      <trkpt lat="52.356200963258743" lon="-3.31806899048388">
        <ele>275.06999999999999</ele>
        <time>2026-07-11T10:32:02Z</time>
      </trkpt>
      <trkpt lat="52.356171039864421" lon="-3.318031020462513">
        <ele>274.58999999999997</ele>
        <time>2026-07-11T10:32:03Z</time>
      </trkpt>
      <trkpt lat="52.356162993237376" lon="-3.318020962178707">
        <ele>274.11000000000001</ele>
        <time>2026-07-11T10:32:04Z</time>
      </trkpt>
      <trkpt lat="52.356162993237376" lon="-3.318020962178707">
        <ele>273.63</ele>
        <time>2026-07-11T10:32:05Z</time>
      </trkpt>
      <trkpt lat="52.356114964932203" lon="-3.317865980789065">
        <ele>273.14999999999998</ele>
        <time>2026-07-11T10:32:06Z</time>
      </trkpt>
      <trkpt lat="52.3560840357095" lon="-3.317763973027468">
        <ele>272.67000000000002</ele>
        <time>2026-07-11T10:32:07Z</time>
      </trkpt>
      <trkpt lat="52.356045981869102" lon="-3.31763899885118">
        <ele>272.19</ele>
        <time>2026-07-11T10:32:08Z</time>
      </trkpt>
      <trkpt lat="52.355894017964602" lon="-3.31714203581214">
        <ele>271.23000000000002</ele>
        <time>2026-07-11T10:32:11Z</time>
      </trkpt>
      <trkpt lat="52.35529001802206" lon="-3.31570596434176">
        <ele>270.26999999999998</ele>
        <time>2026-07-11T10:32:17Z</time>
      </trkpt>
      <trkpt lat="52.354042958468199" lon="-3.313547037541866">
        <ele>269.31</ele>
        <time>2026-07-11T10:32:25Z</time>
      </trkpt>
      <trkpt lat="52.353395959362388" lon="-3.312608012929559">
        <ele>269.79000000000002</ele>
        <time>2026-07-11T10:32:29Z</time>
      </trkpt>
      <trkpt lat="52.353237960487604" lon="-3.312483038753271">
        <ele>270.26999999999998</ele>
        <time>2026-07-11T10:32:30Z</time>
      </trkpt>
      <trkpt lat="52.353088008239865" lon="-3.312364015728235">
        <ele>270.26999999999998</ele>
        <time>2026-07-11T10:32:31Z</time>
      </trkpt>
      <trkpt lat="52.352917017415166" lon="-3.312305007129908">
        <ele>270.26999999999998</ele>
        <time>2026-07-11T10:32:32Z</time>
      </trkpt>
      <trkpt lat="52.352749966084957" lon="-3.312263013795018">
        <ele>270.26999999999998</ele>
        <time>2026-07-11T10:32:33Z</time>
      </trkpt>
      <trkpt lat="52.352395998314023" lon="-3.312167041003704">
        <ele>269.79000000000002</ele>
        <time>2026-07-11T10:32:35Z</time>
      </trkpt>
      <trkpt lat="52.351113986223936" lon="-3.312023961916566">
        <ele>270.26999999999998</ele>
        <time>2026-07-11T10:32:42Z</time>
      </trkpt>
      <trkpt lat="52.350160041823983" lon="-3.311802009120584">
        <ele>269.79000000000002</ele>
        <time>2026-07-11T10:32:47Z</time>
      </trkpt>
      <trkpt lat="52.349821999669075" lon="-3.311643004417419">
        <ele>269.79000000000002</ele>
        <time>2026-07-11T10:32:49Z</time>
      </trkpt>
      <trkpt lat="52.349659977480769" lon="-3.311626994982362">
        <ele>269.31</ele>
        <time>2026-07-11T10:32:50Z</time>
      </trkpt>
      <trkpt lat="52.349506001919508" lon="-3.3116440102458">
        <ele>269.79000000000002</ele>
        <time>2026-07-11T10:32:51Z</time>
      </trkpt>
      <trkpt lat="52.349365018308163" lon="-3.311739983037114">
        <ele>269.79000000000002</ele>
        <time>2026-07-11T10:32:52Z</time>
      </trkpt>
      <trkpt lat="52.349206013604999" lon="-3.311847019940615">
        <ele>269.79000000000002</ele>
        <time>2026-07-11T10:32:53Z</time>
      </trkpt>
      <trkpt lat="52.349043991416693" lon="-3.311955984681845">
        <ele>269.31</ele>
        <time>2026-07-11T10:32:54Z</time>
      </trkpt>
      <trkpt lat="52.348256008699536" lon="-3.312682025134563">
        <ele>268.82999999999998</ele>
        <time>2026-07-11T10:32:59Z</time>
      </trkpt>
      <trkpt lat="52.348115025088191" lon="-3.312891991809011">
        <ele>268.82999999999998</ele>
        <time>2026-07-11T10:33:00Z</time>
      </trkpt>
      <trkpt lat="52.347975969314575" lon="-3.313129032030702">
        <ele>268.82999999999998</ele>
        <time>2026-07-11T10:33:01Z</time>
      </trkpt>
      <trkpt lat="52.34783498570323" lon="-3.313371017575264">
        <ele>268.82999999999998</ele>
        <time>2026-07-11T10:33:02Z</time>
      </trkpt>
      <trkpt lat="52.347715962678194" lon="-3.313638987019658">
        <ele>268.82999999999998</ele>
        <time>2026-07-11T10:33:03Z</time>
      </trkpt>
      <trkpt lat="52.346879029646516" lon="-3.315981980413199">
        <ele>269.31</ele>
        <time>2026-07-11T10:33:11Z</time>
      </trkpt>
      <trkpt lat="52.345961965620518" lon="-3.318137973546982">
        <ele>268.35000000000002</ele>
        <time>2026-07-11T10:33:18Z</time>
      </trkpt>
      <trkpt lat="52.344819009304047" lon="-3.319420991465449">
        <ele>267.86000000000001</ele>
        <time>2026-07-11T10:33:24Z</time>
      </trkpt>
      <trkpt lat="52.342756977304816" lon="-3.321039034053683">
        <ele>268.82999999999998</ele>
        <time>2026-07-11T10:33:34Z</time>
      </trkpt>
      <trkpt lat="52.340710032731295" lon="-3.32161302678287">
        <ele>266.42000000000002</ele>
        <time>2026-07-11T10:33:43Z</time>
      </trkpt>
      <trkpt lat="52.340277023613453" lon="-3.321841014549136">
        <ele>265.45999999999998</ele>
        <time>2026-07-11T10:33:45Z</time>
      </trkpt>
      <trkpt lat="52.340068984776735" lon="-3.321990966796875">
        <ele>264.98000000000002</ele>
        <time>2026-07-11T10:33:46Z</time>
      </trkpt>
      <trkpt lat="52.339876033365726" lon="-3.322209985926747">
        <ele>264.5</ele>
        <time>2026-07-11T10:33:47Z</time>
      </trkpt>
      <trkpt lat="52.33969003893435" lon="-3.322420036420226">
        <ele>264.01999999999998</ele>
        <time>2026-07-11T10:33:48Z</time>
      </trkpt>
      <trkpt lat="52.33952097594738" lon="-3.322646012529731">
        <ele>264.01999999999998</ele>
        <time>2026-07-11T10:33:49Z</time>
      </trkpt>
      <trkpt lat="52.339368006214499" lon="-3.322920016944408">
        <ele>263.54000000000002</ele>
        <time>2026-07-11T10:33:50Z</time>
      </trkpt>
      <trkpt lat="52.339212018996477" lon="-3.323197038844228">
        <ele>263.54000000000002</ele>
        <time>2026-07-11T10:33:51Z</time>
      </trkpt>
      <trkpt lat="52.339058965444565" lon="-3.323470037430525">
        <ele>263.54000000000002</ele>
        <time>2026-07-11T10:33:52Z</time>
      </trkpt>
      <trkpt lat="52.338584968820214" lon="-3.324233964085579">
        <ele>264.98000000000002</ele>
        <time>2026-07-11T10:33:55Z</time>
      </trkpt>
      <trkpt lat="52.338420012965798" lon="-3.324485002085567">
        <ele>265.45999999999998</ele>
        <time>2026-07-11T10:33:56Z</time>
      </trkpt>
      <trkpt lat="52.338238041847944" lon="-3.324684994295239">
        <ele>265.45999999999998</ele>
        <time>2026-07-11T10:33:57Z</time>
      </trkpt>
      <trkpt lat="52.338051963597536" lon="-3.324845004826784">
        <ele>265.45999999999998</ele>
        <time>2026-07-11T10:33:58Z</time>
      </trkpt>
      <trkpt lat="52.337858006358147" lon="-3.324927985668182">
        <ele>265.45999999999998</ele>
        <time>2026-07-11T10:33:59Z</time>
      </trkpt>
      <trkpt lat="52.33767201192677" lon="-3.32496696151793">
        <ele>265.45999999999998</ele>
        <time>2026-07-11T10:34:00Z</time>
      </trkpt>
      <trkpt lat="52.337475959211588" lon="-3.324950030073524">
        <ele>265.45999999999998</ele>
        <time>2026-07-11T10:34:01Z</time>
      </trkpt>
      <trkpt lat="52.337278984487057" lon="-3.324933014810085">
        <ele>265.45999999999998</ele>
        <time>2026-07-11T10:34:02Z</time>
      </trkpt>
      <trkpt lat="52.337093995884061" lon="-3.324827989563346">
        <ele>265.45999999999998</ele>
        <time>2026-07-11T10:34:03Z</time>
      </trkpt>
      <trkpt lat="52.336908001452684" lon="-3.324711984023452">
        <ele>264.98000000000002</ele>
        <time>2026-07-11T10:34:04Z</time>
      </trkpt>
      <trkpt lat="52.33672502450645" lon="-3.324582986533642">
        <ele>264.98000000000002</ele>
        <time>2026-07-11T10:34:05Z</time>
      </trkpt>
      <trkpt lat="52.336569037288427" lon="-3.324366984888911">
        <ele>264.5</ele>
        <time>2026-07-11T10:34:06Z</time>
      </trkpt>
      <trkpt lat="52.336408020928502" lon="-3.324142014607787">
        <ele>264.01999999999998</ele>
        <time>2026-07-11T10:34:07Z</time>
      </trkpt>
      <trkpt lat="52.335462961345911" lon="-3.322597984224558">
        <ele>262.57999999999998</ele>
        <time>2026-07-11T10:34:13Z</time>
      </trkpt>
      <trkpt lat="52.335349973291159" lon="-3.322306964546442">
        <ele>262.10000000000002</ele>
        <time>2026-07-11T10:34:14Z</time>
      </trkpt>
      <trkpt lat="52.335294988006353" lon="-3.322007982060313">
        <ele>262.10000000000002</ele>
        <time>2026-07-11T10:34:15Z</time>
      </trkpt>
      <trkpt lat="52.335252994671464" lon="-3.321701036766172">
        <ele>262.57999999999998</ele>
        <time>2026-07-11T10:34:16Z</time>
      </trkpt>
      <trkpt lat="52.335209995508194" lon="-3.321383027359843">
        <ele>262.57999999999998</ele>
        <time>2026-07-11T10:34:17Z</time>
      </trkpt>
      <trkpt lat="52.335017966106534" lon="-3.320091040804982">
        <ele>262.10000000000002</ele>
        <time>2026-07-11T10:34:21Z</time>
      </trkpt>
      <trkpt lat="52.334927022457123" lon="-3.319802032783628">
        <ele>261.62</ele>
        <time>2026-07-11T10:34:22Z</time>
      </trkpt>
      <trkpt lat="52.334833983331919" lon="-3.319501960650086">
        <ele>261.13999999999999</ele>
        <time>2026-07-11T10:34:23Z</time>
      </trkpt>
      <trkpt lat="52.334700962528586" lon="-3.31927003338933">
        <ele>260.64999999999998</ele>
        <time>2026-07-11T10:34:24Z</time>
      </trkpt>
      <trkpt lat="52.334559978917241" lon="-3.319022012874484">
        <ele>260.17000000000002</ele>
        <time>2026-07-11T10:34:25Z</time>
      </trkpt>
      <trkpt lat="52.334147002547979" lon="-3.318299995735288">
        <ele>258.73000000000002</ele>
        <time>2026-07-11T10:34:28Z</time>
      </trkpt>
      <trkpt lat="52.333981040865183" lon="-3.318134034052491">
        <ele>258.73000000000002</ele>
        <time>2026-07-11T10:34:29Z</time>
      </trkpt>
      <trkpt lat="52.333797980099916" lon="-3.31798198632896">
        <ele>258.73000000000002</ele>
        <time>2026-07-11T10:34:30Z</time>
      </trkpt>
      <trkpt lat="52.333595976233482" lon="-3.317882996052504">
        <ele>258.73000000000002</ele>
        <time>2026-07-11T10:34:31Z</time>
      </trkpt>
      <trkpt lat="52.333383997902274" lon="-3.317798003554344">
        <ele>258.73000000000002</ele>
        <time>2026-07-11T10:34:32Z</time>
      </trkpt>
      <trkpt lat="52.333162967115641" lon="-3.317763973027468">
        <ele>258.73000000000002</ele>
        <time>2026-07-11T10:34:33Z</time>
      </trkpt>
      <trkpt lat="52.332941014319658" lon="-3.317742012441158">
        <ele>258.73000000000002</ele>
        <time>2026-07-11T10:34:34Z</time>
      </trkpt>
      <trkpt lat="52.332719983533025" lon="-3.317742012441158">
        <ele>258.73000000000002</ele>
        <time>2026-07-11T10:34:35Z</time>
      </trkpt>
      <trkpt lat="52.33204297721386" lon="-3.317828010767698">
        <ele>258.25</ele>
        <time>2026-07-11T10:34:38Z</time>
      </trkpt>
      <trkpt lat="52.331825969740748" lon="-3.317935969680548">
        <ele>258.25</ele>
        <time>2026-07-11T10:34:39Z</time>
      </trkpt>
      <trkpt lat="52.33161298558116" lon="-3.318073013797402">
        <ele>258.25</ele>
        <time>2026-07-11T10:34:40Z</time>
      </trkpt>
      <trkpt lat="52.33142196200788" lon="-3.318281974643469">
        <ele>258.25</ele>
        <time>2026-07-11T10:34:41Z</time>
      </trkpt>
      <trkpt lat="52.331230016425252" lon="-3.318500993773341">
        <ele>258.73000000000002</ele>
        <time>2026-07-11T10:34:42Z</time>
      </trkpt>
      <trkpt lat="52.331067994236946" lon="-3.318759994581342">
        <ele>258.73000000000002</ele>
        <time>2026-07-11T10:34:43Z</time>
      </trkpt>
      <trkpt lat="52.330928016453981" lon="-3.31905503757298">
        <ele>258.25</ele>
        <time>2026-07-11T10:34:44Z</time>
      </trkpt>
      <trkpt lat="52.330788038671017" lon="-3.319353014230728">
        <ele>258.25</ele>
        <time>2026-07-11T10:34:45Z</time>
      </trkpt>
      <trkpt lat="52.329862006008625" lon="-3.321486040949822">
        <ele>259.20999999999998</ele>
        <time>2026-07-11T10:34:52Z</time>
      </trkpt>
      <trkpt lat="52.329726973548532" lon="-3.321712017059326">
        <ele>259.20999999999998</ele>
        <time>2026-07-11T10:34:53Z</time>
      </trkpt>
      <trkpt lat="52.329545002430677" lon="-3.32189398817718">
        <ele>258.73000000000002</ele>
        <time>2026-07-11T10:34:54Z</time>
      </trkpt>
      <trkpt lat="52.329383986070752" lon="-3.322055004537106">
        <ele>258.73000000000002</ele>
        <time>2026-07-11T10:34:55Z</time>
      </trkpt>
      <trkpt lat="52.329209977760911" lon="-3.322130022570491">
        <ele>258.25</ele>
        <time>2026-07-11T10:34:56Z</time>
      </trkpt>
      <trkpt lat="52.329030018299818" lon="-3.322184002026916">
        <ele>258.25</ele>
        <time>2026-07-11T10:34:57Z</time>
      </trkpt>
      <trkpt lat="52.328835977241397" lon="-3.322184002026916">
        <ele>258.25</ele>
        <time>2026-07-11T10:34:58Z</time>
      </trkpt>
      <trkpt lat="52.328642020002007" lon="-3.322114013135433">
        <ele>257.76999999999998</ele>
        <time>2026-07-11T10:34:59Z</time>
      </trkpt>
      <trkpt lat="52.328456025570631" lon="-3.322018040344119">
        <ele>257.76999999999998</ele>
        <time>2026-07-11T10:35:00Z</time>
      </trkpt>
      <trkpt lat="52.328271958976984" lon="-3.321875967085362">
        <ele>257.29000000000002</ele>
        <time>2026-07-11T10:35:01Z</time>
      </trkpt>
      <trkpt lat="52.32811002060771" lon="-3.321664994582534">
        <ele>256.81</ele>
        <time>2026-07-11T10:35:02Z</time>
      </trkpt>
      <trkpt lat="52.327958978712559" lon="-3.321406999602914">
        <ele>256.81</ele>
        <time>2026-07-11T10:35:03Z</time>
      </trkpt>
      <trkpt lat="52.327824030071497" lon="-3.321117991581559">
        <ele>256.81</ele>
        <time>2026-07-11T10:35:04Z</time>
      </trkpt>
      <trkpt lat="52.327684974297881" lon="-3.320822026580572">
        <ele>256.32999999999998</ele>
        <time>2026-07-11T10:35:05Z</time>
      </trkpt>
      <trkpt lat="52.326047988608479" lon="-3.317631036043167">
        <ele>254.41</ele>
        <time>2026-07-11T10:35:16Z</time>
      </trkpt>
      <trkpt lat="52.324906960129738" lon="-3.316377019509673">
        <ele>252.96000000000001</ele>
        <time>2026-07-11T10:35:22Z</time>
      </trkpt>
      <trkpt lat="52.324518961831927" lon="-3.315989021211863">
        <ele>252.96000000000001</ele>
        <time>2026-07-11T10:35:24Z</time>
      </trkpt>
      <trkpt lat="52.324361968785524" lon="-3.315715016797185">
        <ele>252.47999999999999</ele>
        <time>2026-07-11T10:35:25Z</time>
      </trkpt>
      <trkpt lat="52.324224002659321" lon="-3.31542500294745">
        <ele>252.47999999999999</ele>
        <time>2026-07-11T10:35:26Z</time>
      </trkpt>
      <trkpt lat="52.324109002947807" lon="-3.315113028511405">
        <ele>252.47999999999999</ele>
        <time>2026-07-11T10:35:27Z</time>
      </trkpt>
      <trkpt lat="52.323992997407913" lon="-3.314796024933457">
        <ele>252.47999999999999</ele>
        <time>2026-07-11T10:35:28Z</time>
      </trkpt>
      <trkpt lat="52.323874980211258" lon="-3.314474998041987">
        <ele>252.47999999999999</ele>
        <time>2026-07-11T10:35:29Z</time>
      </trkpt>
      <trkpt lat="52.323724022135139" lon="-3.314196970313788">
        <ele>252.47999999999999</ele>
        <time>2026-07-11T10:35:30Z</time>
      </trkpt>
      <trkpt lat="52.323569962754846" lon="-3.313917014747858">
        <ele>252.47999999999999</ele>
        <time>2026-07-11T10:35:31Z</time>
      </trkpt>
      <trkpt lat="52.323395032435656" lon="-3.313679974526167">
        <ele>252.96000000000001</ele>
        <time>2026-07-11T10:35:32Z</time>
      </trkpt>
      <trkpt lat="52.323211971670389" lon="-3.313461039215326">
        <ele>253.44</ele>
        <time>2026-07-11T10:35:33Z</time>
      </trkpt>
      <trkpt lat="52.323028994724154" lon="-3.313241014257073">
        <ele>253.44</ele>
        <time>2026-07-11T10:35:34Z</time>
      </trkpt>
      <trkpt lat="52.322838976979256" lon="-3.313034987077117">
        <ele>253.93000000000001</ele>
        <time>2026-07-11T10:35:35Z</time>
      </trkpt>
      <trkpt lat="52.322630016133189" lon="-3.31289098598063">
        <ele>254.41</ele>
        <time>2026-07-11T10:35:36Z</time>
      </trkpt>
      <trkpt lat="52.322412002831697" lon="-3.312793001532555">
        <ele>254.88999999999999</ele>
        <time>2026-07-11T10:35:37Z</time>
      </trkpt>
      <trkpt lat="52.322188960388303" lon="-3.312730975449085">
        <ele>254.88999999999999</ele>
        <time>2026-07-11T10:35:38Z</time>
      </trkpt>
      <trkpt lat="52.32196700759232" lon="-3.312688982114196">
        <ele>254.88999999999999</ele>
        <time>2026-07-11T10:35:39Z</time>
      </trkpt>
      <trkpt lat="52.32175100594759" lon="-3.312757965177298">
        <ele>254.88999999999999</ele>
        <time>2026-07-11T10:35:40Z</time>
      </trkpt>
      <trkpt lat="52.321530980989337" lon="-3.312828037887812">
        <ele>254.88999999999999</ele>
        <time>2026-07-11T10:35:41Z</time>
      </trkpt>
      <trkpt lat="52.321309028193355" lon="-3.312899032607675">
        <ele>254.88999999999999</ele>
        <time>2026-07-11T10:35:42Z</time>
      </trkpt>
      <trkpt lat="52.320854980498552" lon="-3.312989976257086">
        <ele>254.88999999999999</ele>
        <time>2026-07-11T10:35:44Z</time>
      </trkpt>
      <trkpt lat="52.320629004389048" lon="-3.312993999570608">
        <ele>254.88999999999999</ele>
        <time>2026-07-11T10:35:45Z</time>
      </trkpt>
      <trkpt lat="52.319685034453869" lon="-3.312849998474121">
        <ele>253.93000000000001</ele>
        <time>2026-07-11T10:35:49Z</time>
      </trkpt>
      <trkpt lat="52.319270968437195" lon="-3.312633996829391">
        <ele>252.47999999999999</ele>
        <time>2026-07-11T10:35:51Z</time>
      </trkpt>
      <trkpt lat="52.31908799149096" lon="-3.312458982691169">
        <ele>252</ele>
        <time>2026-07-11T10:35:52Z</time>
      </trkpt>
      <trkpt lat="52.318891016766429" lon="-3.312270976603031">
        <ele>251.52000000000001</ele>
        <time>2026-07-11T10:35:53Z</time>
      </trkpt>
      <trkpt lat="52.317614033818245" lon="-3.310718983411789">
        <ele>249.12</ele>
        <time>2026-07-11T10:36:00Z</time>
      </trkpt>
      <trkpt lat="52.316419025883079" lon="-3.309608967974782">
        <ele>252</ele>
        <time>2026-07-11T10:36:06Z</time>
      </trkpt>
      <trkpt lat="52.315506990998983" lon="-3.309266986325383">
        <ele>253.93000000000001</ele>
        <time>2026-07-11T10:36:10Z</time>
      </trkpt>
      <trkpt lat="52.315267017111182" lon="-3.309266986325383">
        <ele>253.93000000000001</ele>
        <time>2026-07-11T10:36:11Z</time>
      </trkpt>
      <trkpt lat="52.313225017860532" lon="-3.30945298075676">
        <ele>252</ele>
        <time>2026-07-11T10:36:20Z</time>
      </trkpt>
      <trkpt lat="52.31102803722024" lon="-3.30988397821784">
        <ele>247.19999999999999</ele>
        <time>2026-07-11T10:36:30Z</time>
      </trkpt>
      <trkpt lat="52.309335982427001" lon="-3.310997011139989">
        <ele>243.34999999999999</ele>
        <time>2026-07-11T10:36:38Z</time>
      </trkpt>
      <trkpt lat="52.307640993967652" lon="-3.312859972938895">
        <ele>239.50999999999999</ele>
        <time>2026-07-11T10:36:47Z</time>
      </trkpt>
      <trkpt lat="52.305847015231848" lon="-3.314787978306413">
        <ele>239.02000000000001</ele>
        <time>2026-07-11T10:36:57Z</time>
      </trkpt>
      <trkpt lat="52.304742028936744" lon="-3.315657014027238">
        <ele>240.94999999999999</ele>
        <time>2026-07-11T10:37:03Z</time>
      </trkpt>
      <trkpt lat="52.30458403006196" lon="-3.315864969044924">
        <ele>241.43000000000001</ele>
        <time>2026-07-11T10:37:04Z</time>
      </trkpt>
      <trkpt lat="52.304424019530416" lon="-3.316076025366783">
        <ele>241.91</ele>
        <time>2026-07-11T10:37:05Z</time>
      </trkpt>
      <trkpt lat="52.304266020655632" lon="-3.316302001476288">
        <ele>242.87</ele>
        <time>2026-07-11T10:37:06Z</time>
      </trkpt>
      <trkpt lat="52.304123025387526" lon="-3.316559996455908">
        <ele>243.83000000000001</ele>
        <time>2026-07-11T10:37:07Z</time>
      </trkpt>
      <trkpt lat="52.303136978298426" lon="-3.318297984078527">
        <ele>247.19999999999999</ele>
        <time>2026-07-11T10:37:14Z</time>
      </trkpt>
      <trkpt lat="52.302990965545177" lon="-3.318493030965328">
        <ele>246.22999999999999</ele>
        <time>2026-07-11T10:37:15Z</time>
      </trkpt>
      <trkpt lat="52.302812011912465" lon="-3.318637032061815">
        <ele>245.27000000000001</ele>
        <time>2026-07-11T10:37:16Z</time>
      </trkpt>
      <trkpt lat="52.30262903496623" lon="-3.318784972652793">
        <ele>244.78999999999999</ele>
        <time>2026-07-11T10:37:17Z</time>
      </trkpt>
      <trkpt lat="52.302438011392951" lon="-3.318939032033086">
        <ele>244.78999999999999</ele>
        <time>2026-07-11T10:37:18Z</time>
      </trkpt>
      <trkpt lat="52.300968999043107" lon="-3.320319028571248">
        <ele>253.44</ele>
        <time>2026-07-11T10:37:26Z</time>
      </trkpt>
      <trkpt lat="52.300822986289859" lon="-3.320556990802288">
        <ele>254.88999999999999</ele>
        <time>2026-07-11T10:37:27Z</time>
      </trkpt>
      <trkpt lat="52.300060987472534" lon="-3.322051987051964">
        <ele>262.57999999999998</ele>
        <time>2026-07-11T10:37:33Z</time>
      </trkpt>
      <trkpt lat="52.300001978874207" lon="-3.322297995910049">
        <ele>263.54000000000002</ele>
        <time>2026-07-11T10:37:34Z</time>
      </trkpt>
      <trkpt lat="52.299856971949339" lon="-3.323064018040896">
        <ele>264.98000000000002</ele>
        <time>2026-07-11T10:37:39Z</time>
      </trkpt>
      <trkpt lat="52.299695033580065" lon="-3.324033971875906">
        <ele>267.38</ele>
        <time>2026-07-11T10:37:48Z</time>
      </trkpt>
      <trkpt lat="52.29940501973033" lon="-3.325455039739609">
        <ele>266.89999999999998</ele>
        <time>2026-07-11T10:37:55Z</time>
      </trkpt>
      <trkpt lat="52.299318015575409" lon="-3.325650002807379">
        <ele>266.89999999999998</ele>
        <time>2026-07-11T10:37:56Z</time>
      </trkpt>
      <trkpt lat="52.299227993935347" lon="-3.325851000845432">
        <ele>266.89999999999998</ele>
        <time>2026-07-11T10:37:57Z</time>
      </trkpt>
      <trkpt lat="52.299135038629174" lon="-3.326043030247092">
        <ele>266.89999999999998</ele>
        <time>2026-07-11T10:37:58Z</time>
      </trkpt>
      <trkpt lat="52.29901903308928" lon="-3.326178984716535">
        <ele>266.89999999999998</ele>
        <time>2026-07-11T10:37:59Z</time>
      </trkpt>
      <trkpt lat="52.29841997846961" lon="-3.326882980763912">
        <ele>267.38</ele>
        <time>2026-07-11T10:38:06Z</time>
      </trkpt>
      <trkpt lat="52.298373961821198" lon="-3.326947018504143">
        <ele>268.35000000000002</ele>
        <time>2026-07-11T10:38:13Z</time>
      </trkpt>
      <trkpt lat="52.298188973218203" lon="-3.327204007655382">
        <ele>269.31</ele>
        <time>2026-07-11T10:38:29Z</time>
      </trkpt>
      <trkpt lat="52.297711037099361" lon="-3.328235987573862">
        <ele>266.89999999999998</ele>
        <time>2026-07-11T10:38:35Z</time>
      </trkpt>
      <trkpt lat="52.296781986951828" lon="-3.330261977389455">
        <ele>258.25</ele>
        <time>2026-07-11T10:38:44Z</time>
      </trkpt>
      <trkpt lat="52.295226976275444" lon="-3.332846034318209">
        <ele>244.78999999999999</ele>
        <time>2026-07-11T10:38:55Z</time>
      </trkpt>
      <trkpt lat="52.293657967820764" lon="-3.335165977478027">
        <ele>247.19999999999999</ele>
        <time>2026-07-11T10:39:06Z</time>
      </trkpt>
      <trkpt lat="52.291857032105327" lon="-3.337928988039494">
        <ele>246.72</ele>
        <time>2026-07-11T10:39:18Z</time>
      </trkpt>
      <trkpt lat="52.291099978610873" lon="-3.339046966284514">
        <ele>243.34999999999999</ele>
        <time>2026-07-11T10:39:23Z</time>
      </trkpt>
      <trkpt lat="52.290937034413218" lon="-3.339174035936594">
        <ele>242.38999999999999</ele>
        <time>2026-07-11T10:39:24Z</time>
      </trkpt>
      <trkpt lat="52.290776018053293" lon="-3.339300015941262">
        <ele>241.91</ele>
        <time>2026-07-11T10:39:25Z</time>
      </trkpt>
      <trkpt lat="52.290595974773169" lon="-3.339347960427404">
        <ele>241.43000000000001</ele>
        <time>2026-07-11T10:39:26Z</time>
      </trkpt>
      <trkpt lat="52.290407968685031" lon="-3.339374028146267">
        <ele>240.47</ele>
        <time>2026-07-11T10:39:27Z</time>
      </trkpt>
      <trkpt lat="52.290209988132119" lon="-3.339376039803028">
        <ele>239.50999999999999</ele>
        <time>2026-07-11T10:39:28Z</time>
      </trkpt>
      <trkpt lat="52.290008990094066" lon="-3.339313007891178">
        <ele>239.02000000000001</ele>
        <time>2026-07-11T10:39:29Z</time>
      </trkpt>
      <trkpt lat="52.288261028006673" lon="-3.338814033195376">
        <ele>234.22</ele>
        <time>2026-07-11T10:39:38Z</time>
      </trkpt>
      <trkpt lat="52.287959028035402" lon="-3.338663997128606">
        <ele>235.18000000000001</ele>
        <time>2026-07-11T10:39:40Z</time>
      </trkpt>
      <trkpt lat="52.287823995575309" lon="-3.338542962446809">
        <ele>236.62</ele>
        <time>2026-07-11T10:39:41Z</time>
      </trkpt>
      <trkpt lat="52.287688041105866" lon="-3.338421005755663">
        <ele>237.58000000000001</ele>
        <time>2026-07-11T10:39:42Z</time>
      </trkpt>
      <trkpt lat="52.28698899038136" lon="-3.337808037176728">
        <ele>240.47</ele>
        <time>2026-07-11T10:39:47Z</time>
      </trkpt>
      <trkpt lat="52.286839038133621" lon="-3.337733019143343">
        <ele>240.94999999999999</ele>
        <time>2026-07-11T10:39:48Z</time>
      </trkpt>
      <trkpt lat="52.286685984581709" lon="-3.337656995281577">
        <ele>241.43000000000001</ele>
        <time>2026-07-11T10:39:49Z</time>
      </trkpt>
      <trkpt lat="52.286527985706925" lon="-3.337624976411462">
        <ele>241.43000000000001</ele>
        <time>2026-07-11T10:39:50Z</time>
      </trkpt>
      <trkpt lat="52.286365041509271" lon="-3.337593963369727">
        <ele>241.43000000000001</ele>
        <time>2026-07-11T10:39:51Z</time>
      </trkpt>
      <trkpt lat="52.286207964643836" lon="-3.337564039975405">
        <ele>240.94999999999999</ele>
        <time>2026-07-11T10:39:52Z</time>
      </trkpt>
      <trkpt lat="52.285030977800488" lon="-3.337381985038519">
        <ele>235.66</ele>
        <time>2026-07-11T10:39:59Z</time>
      </trkpt>
      <trkpt lat="52.283214032649994" lon="-3.336902959272265">
        <ele>227.00999999999999</ele>
        <time>2026-07-11T10:40:11Z</time>
      </trkpt>
      <trkpt lat="52.281965967267752" lon="-3.336531976237893">
        <ele>221.72</ele>
        <time>2026-07-11T10:40:19Z</time>
      </trkpt>
      <trkpt lat="52.281579980626702" lon="-3.33643801510334">
        <ele>220.28</ele>
        <time>2026-07-11T10:40:23Z</time>
      </trkpt>
      <trkpt lat="52.281542010605335" lon="-3.336428040638566">
        <ele>220.28</ele>
        <time>2026-07-11T10:40:24Z</time>
      </trkpt>
      <trkpt lat="52.281492976471782" lon="-3.336322009563446">
        <ele>219.80000000000001</ele>
        <time>2026-07-11T10:40:25Z</time>
      </trkpt>
      <trkpt lat="52.281506974250078" lon="-3.336270041763783">
        <ele>219.80000000000001</ele>
        <time>2026-07-11T10:40:26Z</time>
      </trkpt>
      <trkpt lat="52.281527006998658" lon="-3.336196029558778">
        <ele>219.80000000000001</ele>
        <time>2026-07-11T10:40:27Z</time>
      </trkpt>
      <trkpt lat="52.281555002555251" lon="-3.336095027625561">
        <ele>219.80000000000001</ele>
        <time>2026-07-11T10:40:28Z</time>
      </trkpt>
      <trkpt lat="52.281879968941212" lon="-3.334908988326788">
        <ele>231.33000000000001</ele>
        <time>2026-07-11T10:40:35Z</time>
      </trkpt>
      <trkpt lat="52.282166965305805" lon="-3.333997037261725">
        <ele>240.47</ele>
        <time>2026-07-11T10:40:41Z</time>
      </trkpt>
      <trkpt lat="52.282228991389275" lon="-3.333867033943534">
        <ele>241.91</ele>
        <time>2026-07-11T10:40:42Z</time>
      </trkpt>
      <trkpt lat="52.283074976876378" lon="-3.332662973552942">
        <ele>254.41</ele>
        <time>2026-07-11T10:40:51Z</time>
      </trkpt>
      <trkpt lat="52.283756006509066" lon="-3.331860993057489">
        <ele>264.98000000000002</ele>
        <time>2026-07-11T10:40:57Z</time>
      </trkpt>
      <trkpt lat="52.28387301787734" lon="-3.331738030537963">
        <ele>266.89999999999998</ele>
        <time>2026-07-11T10:40:58Z</time>
      </trkpt>
      <trkpt lat="52.284294962882996" lon="-3.331292029470205">
        <ele>274.11000000000001</ele>
        <time>2026-07-11T10:41:02Z</time>
      </trkpt>
      <trkpt lat="52.284386996179819" lon="-3.33117401227355">
        <ele>276.04000000000002</ele>
        <time>2026-07-11T10:41:03Z</time>
      </trkpt>
      <trkpt lat="52.28445103392005" lon="-3.331046020612121">
        <ele>278.44</ele>
        <time>2026-07-11T10:41:04Z</time>
      </trkpt>
      <trkpt lat="52.284495960921049" lon="-3.330842005088925">
        <ele>280.83999999999997</ele>
        <time>2026-07-11T10:41:05Z</time>
      </trkpt>
      <trkpt lat="52.284530997276306" lon="-3.330678977072239">
        <ele>282.76999999999998</ele>
        <time>2026-07-11T10:41:06Z</time>
      </trkpt>
      <trkpt lat="52.284568967297673" lon="-3.330505974590778">
        <ele>285.17000000000002</ele>
        <time>2026-07-11T10:41:07Z</time>
      </trkpt>
      <trkpt lat="52.284600986167789" lon="-3.330359039828181">
        <ele>286.61000000000001</ele>
        <time>2026-07-11T10:41:08Z</time>
      </trkpt>
      <trkpt lat="52.284786980599165" lon="-3.329726038500667">
        <ele>290.45999999999998</ele>
        <time>2026-07-11T10:41:12Z</time>
      </trkpt>
      <trkpt lat="52.284889994189143" lon="-3.329402999952436">
        <ele>290.45999999999998</ele>
        <time>2026-07-11T10:41:15Z</time>
      </trkpt>
      <trkpt lat="52.284913966432214" lon="-3.329342985525727">
        <ele>290.45999999999998</ele>
        <time>2026-07-11T10:41:16Z</time>
      </trkpt>
      <trkpt lat="52.284933999180794" lon="-3.329293029382825">
        <ele>289.97000000000003</ele>
        <time>2026-07-11T10:41:17Z</time>
      </trkpt>
      <trkpt lat="52.284886976704001" lon="-3.329207031056285">
        <ele>289.97000000000003</ele>
        <time>2026-07-11T10:41:18Z</time>
      </trkpt>
      <trkpt lat="52.284840038046241" lon="-3.329160008579493">
        <ele>289.97000000000003</ele>
        <time>2026-07-11T10:41:19Z</time>
      </trkpt>
      <trkpt lat="52.284781029447913" lon="-3.329100999981165">
        <ele>289.97000000000003</ele>
        <time>2026-07-11T10:41:20Z</time>
      </trkpt>
      <trkpt lat="52.284713974222541" lon="-3.329035034403205">
        <ele>289.97000000000003</ele>
        <time>2026-07-11T10:41:21Z</time>
      </trkpt>
      <trkpt lat="52.284642979502678" lon="-3.328963033854961">
        <ele>290.45999999999998</ele>
        <time>2026-07-11T10:41:22Z</time>
      </trkpt>
      <trkpt lat="52.284564021974802" lon="-3.328884998336434">
        <ele>290.94</ele>
        <time>2026-07-11T10:41:23Z</time>
      </trkpt>
      <trkpt lat="52.284481963142753" lon="-3.328802017495036">
        <ele>291.42000000000002</ele>
        <time>2026-07-11T10:41:24Z</time>
      </trkpt>
      <trkpt lat="52.284394958987832" lon="-3.32872599363327">
        <ele>291.42000000000002</ele>
        <time>2026-07-11T10:41:25Z</time>
      </trkpt>
      <trkpt lat="52.284121038392186" lon="-3.328503035008907">
        <ele>291.89999999999998</ele>
        <time>2026-07-11T10:41:28Z</time>
      </trkpt>
      <trkpt lat="52.284030010923743" lon="-3.328428016975522">
        <ele>292.38</ele>
        <time>2026-07-11T10:41:29Z</time>
      </trkpt>
      <trkpt lat="52.283773021772504" lon="-3.328173039481044">
        <ele>293.33999999999997</ele>
        <time>2026-07-11T10:41:32Z</time>
      </trkpt>
      <trkpt lat="52.283708984032273" lon="-3.328067008405924">
        <ele>293.81999999999999</ele>
        <time>2026-07-11T10:41:33Z</time>
      </trkpt>
      <trkpt lat="52.283555008471012" lon="-3.327569039538503">
        <ele>293.81999999999999</ele>
        <time>2026-07-11T10:41:37Z</time>
      </trkpt>
      <trkpt lat="52.283530030399561" lon="-3.327454961836338">
        <ele>293.33999999999997</ele>
        <time>2026-07-11T10:41:38Z</time>
      </trkpt>
      <trkpt lat="52.283535981550813" lon="-3.327334010973573">
        <ele>292.86000000000001</ele>
        <time>2026-07-11T10:41:39Z</time>
      </trkpt>
      <trkpt lat="52.283544028177857" lon="-3.327195039018989">
        <ele>291.89999999999998</ele>
        <time>2026-07-11T10:41:40Z</time>
      </trkpt>
      <trkpt lat="52.283536987379193" lon="-3.327023964375258">
        <ele>291.42000000000002</ele>
        <time>2026-07-11T10:41:41Z</time>
      </trkpt>
      <trkpt lat="52.283506980165839" lon="-3.326905025169253">
        <ele>290.94</ele>
        <time>2026-07-11T10:41:42Z</time>
      </trkpt>
      <trkpt lat="52.283457024022937" lon="-3.326786002144218">
        <ele>290.45999999999998</ele>
        <time>2026-07-11T10:41:43Z</time>
      </trkpt>
      <trkpt lat="52.283405978232622" lon="-3.32666203379631">
        <ele>289.49000000000001</ele>
        <time>2026-07-11T10:41:44Z</time>
      </trkpt>
      <trkpt lat="52.283353004604578" lon="-3.326533958315849">
        <ele>288.52999999999997</ele>
        <time>2026-07-11T10:41:45Z</time>
      </trkpt>
      <trkpt lat="52.282828968018293" lon="-3.325499966740608">
        <ele>279.88</ele>
        <time>2026-07-11T10:41:53Z</time>
      </trkpt>
      <trkpt lat="52.282699970528483" lon="-3.325303997844458">
        <ele>277.95999999999998</ele>
        <time>2026-07-11T10:41:55Z</time>
      </trkpt>
      <trkpt lat="52.282634004950523" lon="-3.325238032266498">
        <ele>277</ele>
        <time>2026-07-11T10:41:56Z</time>
      </trkpt>
      <trkpt lat="52.282578013837337" lon="-3.325182041153312">
        <ele>275.56</ele>
        <time>2026-07-11T10:41:57Z</time>
      </trkpt>
      <trkpt lat="52.282525040209293" lon="-3.325116997584701">
        <ele>274.58999999999997</ele>
        <time>2026-07-11T10:41:58Z</time>
      </trkpt>
      <trkpt lat="52.282473994418979" lon="-3.325026975944638">
        <ele>273.63</ele>
        <time>2026-07-11T10:41:59Z</time>
      </trkpt>
      <trkpt lat="52.282419009134173" lon="-3.324931003153324">
        <ele>272.67000000000002</ele>
        <time>2026-07-11T10:42:00Z</time>
      </trkpt>
      <trkpt lat="52.282365029677749" lon="-3.324823966249824">
        <ele>272.19</ele>
        <time>2026-07-11T10:42:01Z</time>
      </trkpt>
      <trkpt lat="52.282339967787266" lon="-3.324709972366691">
        <ele>271.23000000000002</ele>
        <time>2026-07-11T10:42:02Z</time>
      </trkpt>
      <trkpt lat="52.282314989715815" lon="-3.32460000179708">
        <ele>270.26999999999998</ele>
        <time>2026-07-11T10:42:03Z</time>
      </trkpt>
      <trkpt lat="52.282292023301125" lon="-3.32449397072196">
        <ele>269.79000000000002</ele>
        <time>2026-07-11T10:42:04Z</time>
      </trkpt>
      <trkpt lat="52.282266961410642" lon="-3.324382994323969">
        <ele>268.82999999999998</ele>
        <time>2026-07-11T10:42:05Z</time>
      </trkpt>
      <trkpt lat="52.282194960862398" lon="-3.324179984629154">
        <ele>267.38</ele>
        <time>2026-07-11T10:42:07Z</time>
      </trkpt>
      <trkpt lat="52.282147016376257" lon="-3.324092980474234">
        <ele>266.42000000000002</ele>
        <time>2026-07-11T10:42:08Z</time>
      </trkpt>
      <trkpt lat="52.282085996121168" lon="-3.324013017117977">
        <ele>266.42000000000002</ele>
        <time>2026-07-11T10:42:09Z</time>
      </trkpt>
      <trkpt lat="52.281908970326185" lon="-3.323893994092941">
        <ele>266.42000000000002</ele>
        <time>2026-07-11T10:42:11Z</time>
      </trkpt>
      <trkpt lat="52.281553996726871" lon="-3.323575984686613">
        <ele>268.35000000000002</ele>
        <time>2026-07-11T10:42:15Z</time>
      </trkpt>
      <trkpt lat="52.281550979241729" lon="-3.323467019945383">
        <ele>268.82999999999998</ele>
        <time>2026-07-11T10:42:16Z</time>
      </trkpt>
      <trkpt lat="52.281539998948574" lon="-3.323105005547404">
        <ele>270.26999999999998</ele>
        <time>2026-07-11T10:42:19Z</time>
      </trkpt>
      <trkpt lat="52.281535975635052" lon="-3.322985982522368">
        <ele>270.75</ele>
        <time>2026-07-11T10:42:20Z</time>
      </trkpt>
      <trkpt lat="52.281510997563601" lon="-3.322694040834904">
        <ele>271.70999999999998</ele>
        <time>2026-07-11T10:42:22Z</time>
      </trkpt>
      <trkpt lat="52.28148995898664" lon="-3.322506034746766">
        <ele>271.70999999999998</ele>
        <time>2026-07-11T10:42:23Z</time>
      </trkpt>
      <trkpt lat="52.281432040035725" lon="-3.32240603864193">
        <ele>271.70999999999998</ele>
        <time>2026-07-11T10:42:24Z</time>
      </trkpt>
      <trkpt lat="52.281375965103507" lon="-3.322309982031584">
        <ele>271.70999999999998</ele>
        <time>2026-07-11T10:42:25Z</time>
      </trkpt>
      <trkpt lat="52.281301030889153" lon="-3.322223983705044">
        <ele>271.23000000000002</ele>
        <time>2026-07-11T10:42:26Z</time>
      </trkpt>
      <trkpt lat="52.281216960400343" lon="-3.322173021733761">
        <ele>270.75</ele>
        <time>2026-07-11T10:42:27Z</time>
      </trkpt>
      <trkpt lat="52.281028032302856" lon="-3.322047041729093">
        <ele>269.31</ele>
        <time>2026-07-11T10:42:29Z</time>
      </trkpt>
      <trkpt lat="52.280071992427111" lon="-3.321280013769865">
        <ele>268.35000000000002</ele>
        <time>2026-07-11T10:42:37Z</time>
      </trkpt>
      <trkpt lat="52.279977025464177" lon="-3.321193009614945">
        <ele>268.82999999999998</ele>
        <time>2026-07-11T10:42:38Z</time>
      </trkpt>
      <trkpt lat="52.279888009652495" lon="-3.321065017953515">
        <ele>268.82999999999998</ele>
        <time>2026-07-11T10:42:39Z</time>
      </trkpt>
      <trkpt lat="52.279794970527291" lon="-3.320929985493422">
        <ele>268.82999999999998</ele>
        <time>2026-07-11T10:42:40Z</time>
      </trkpt>
      <trkpt lat="52.279697991907597" lon="-3.320790007710457">
        <ele>269.31</ele>
        <time>2026-07-11T10:42:41Z</time>
      </trkpt>
      <trkpt lat="52.279540998861194" lon="-3.320478033274412">
        <ele>269.31</ele>
        <time>2026-07-11T10:42:43Z</time>
      </trkpt>
      <trkpt lat="52.279472015798092" lon="-3.320307964459062">
        <ele>269.31</ele>
        <time>2026-07-11T10:42:44Z</time>
      </trkpt>
      <trkpt lat="52.278743963688612" lon="-3.318619010969997">
        <ele>266.89999999999998</ele>
        <time>2026-07-11T10:42:53Z</time>
      </trkpt>
      <trkpt lat="52.278320007026196" lon="-3.317914009094238">
        <ele>264.98000000000002</ele>
        <time>2026-07-11T10:42:58Z</time>
      </trkpt>
      <trkpt lat="52.278237026184797" lon="-3.317821975797415">
        <ele>264.5</ele>
        <time>2026-07-11T10:42:59Z</time>
      </trkpt>
      <trkpt lat="52.277804017066956" lon="-3.317346973344684">
        <ele>259.69</ele>
        <time>2026-07-11T10:43:04Z</time>
      </trkpt>
      <trkpt lat="52.277650041505694" lon="-3.317233985289931">
        <ele>257.29000000000002</ele>
        <time>2026-07-11T10:43:06Z</time>
      </trkpt>
      <trkpt lat="52.277573011815548" lon="-3.317200960591435">
        <ele>256.32999999999998</ele>
        <time>2026-07-11T10:43:07Z</time>
      </trkpt>
      <trkpt lat="52.277488019317389" lon="-3.31716500222683">
        <ele>255.37</ele>
        <time>2026-07-11T10:43:08Z</time>
      </trkpt>
      <trkpt lat="52.277393974363804" lon="-3.317124014720321">
        <ele>254.41</ele>
        <time>2026-07-11T10:43:09Z</time>
      </trkpt>
      <trkpt lat="52.277302024886012" lon="-3.317085038870573">
        <ele>253.93000000000001</ele>
        <time>2026-07-11T10:43:10Z</time>
      </trkpt>
      <trkpt lat="52.277208985760808" lon="-3.317044973373413">
        <ele>253.44</ele>
        <time>2026-07-11T10:43:11Z</time>
      </trkpt>
      <trkpt lat="52.277112007141113" lon="-3.316990993916988">
        <ele>252.47999999999999</ele>
        <time>2026-07-11T10:43:12Z</time>
      </trkpt>
      <trkpt lat="52.277031959965825" lon="-3.316911030560732">
        <ele>252</ele>
        <time>2026-07-11T10:43:13Z</time>
      </trkpt>
      <trkpt lat="52.276944033801556" lon="-3.31682201474905">
        <ele>250.56</ele>
        <time>2026-07-11T10:43:14Z</time>
      </trkpt>
      <trkpt lat="52.276576990261674" lon="-3.316425969824195">
        <ele>248.16</ele>
        <time>2026-07-11T10:43:18Z</time>
      </trkpt>
      <trkpt lat="52.276500966399908" lon="-3.316313987597823">
        <ele>247.68000000000001</ele>
        <time>2026-07-11T10:43:19Z</time>
      </trkpt>
      <trkpt lat="52.275819014757872" lon="-3.315313020721078">
        <ele>244.78999999999999</ele>
        <time>2026-07-11T10:43:27Z</time>
      </trkpt>
      <trkpt lat="52.275720024481416" lon="-3.31523397937417">
        <ele>244.31</ele>
        <time>2026-07-11T10:43:28Z</time>
      </trkpt>
      <trkpt lat="52.275030026212335" lon="-3.314607013016939">
        <ele>246.22999999999999</ele>
        <time>2026-07-11T10:43:34Z</time>
      </trkpt>
      <trkpt lat="52.274948973208666" lon="-3.314444990828633">
        <ele>247.19999999999999</ele>
        <time>2026-07-11T10:43:35Z</time>
      </trkpt>
      <trkpt lat="52.274776976555586" lon="-3.314082976430655">
        <ele>248.63999999999999</ele>
        <time>2026-07-11T10:43:37Z</time>
      </trkpt>
      <trkpt lat="52.274708999320865" lon="-3.313886001706123">
        <ele>249.12</ele>
        <time>2026-07-11T10:43:38Z</time>
      </trkpt>
      <trkpt lat="52.274584025144577" lon="-3.313521975651383">
        <ele>249.59999999999999</ele>
        <time>2026-07-11T10:43:40Z</time>
      </trkpt>
      <trkpt lat="52.274508001282811" lon="-3.313331035897136">
        <ele>249.12</ele>
        <time>2026-07-11T10:43:41Z</time>
      </trkpt>
      <trkpt lat="52.273608036339283" lon="-3.311805026605725">
        <ele>244.31</ele>
        <time>2026-07-11T10:43:49Z</time>
      </trkpt>
      <trkpt lat="52.273224983364344" lon="-3.311258023604751">
        <ele>244.78999999999999</ele>
        <time>2026-07-11T10:43:53Z</time>
      </trkpt>
      <trkpt lat="52.273136973381042" lon="-3.31117001362145">
        <ele>244.78999999999999</ele>
        <time>2026-07-11T10:43:54Z</time>
      </trkpt>
      <trkpt lat="52.272816030308604" lon="-3.31087295897305">
        <ele>246.22999999999999</ele>
        <time>2026-07-11T10:44:00Z</time>
      </trkpt>
      <trkpt lat="52.272746041417122" lon="-3.310864996165037">
        <ele>246.72</ele>
        <time>2026-07-11T10:44:01Z</time>
      </trkpt>
      <trkpt lat="52.272564992308617" lon="-3.310844041407108">
        <ele>246.72</ele>
        <time>2026-07-11T10:44:03Z</time>
      </trkpt>
      <trkpt lat="52.272094013169408" lon="-3.310788972303271">
        <ele>247.19999999999999</ele>
        <time>2026-07-11T10:44:09Z</time>
      </trkpt>
      <trkpt lat="52.272044979035854" lon="-3.31078302115202">
        <ele>247.19999999999999</ele>
        <time>2026-07-11T10:44:10Z</time>
      </trkpt>
      <trkpt lat="52.272010026499629" lon="-3.310778997838497">
        <ele>247.19999999999999</ele>
        <time>2026-07-11T10:44:11Z</time>
      </trkpt>
      <trkpt lat="52.272010026499629" lon="-3.310778997838497">
        <ele>246.72</ele>
        <time>2026-07-11T10:44:20Z</time>
      </trkpt>
      <trkpt lat="52.271983036771417" lon="-3.310775980353355">
        <ele>246.72</ele>
        <time>2026-07-11T10:44:24Z</time>
      </trkpt>
      <trkpt lat="52.271910030394793" lon="-3.310735998675227">
        <ele>246.22999999999999</ele>
        <time>2026-07-11T10:44:25Z</time>
      </trkpt>
      <trkpt lat="52.27188304066658" lon="-3.310641031712294">
        <ele>246.22999999999999</ele>
        <time>2026-07-11T10:44:26Z</time>
      </trkpt>
      <trkpt lat="52.271598977968097" lon="-3.309662025421858">
        <ele>244.31</ele>
        <time>2026-07-11T10:44:32Z</time>
      </trkpt>
      <trkpt lat="52.270934041589499" lon="-3.307988997548819">
        <ele>241.43000000000001</ele>
        <time>2026-07-11T10:44:40Z</time>
      </trkpt>
      <trkpt lat="52.269967021420598" lon="-3.305533016100526">
        <ele>241.43000000000001</ele>
        <time>2026-07-11T10:44:51Z</time>
      </trkpt>
      <trkpt lat="52.269797036424279" lon="-3.305037980899215">
        <ele>241.43000000000001</ele>
        <time>2026-07-11T10:44:53Z</time>
      </trkpt>
      <trkpt lat="52.269710032269359" lon="-3.304786020889878">
        <ele>240.94999999999999</ele>
        <time>2026-07-11T10:44:54Z</time>
      </trkpt>
      <trkpt lat="52.269022967666388" lon="-3.302483009174466">
        <ele>235.66</ele>
        <time>2026-07-11T10:45:03Z</time>
      </trkpt>
      <trkpt lat="52.268732031807303" lon="-3.301457986235619">
        <ele>232.78</ele>
        <time>2026-07-11T10:45:09Z</time>
      </trkpt>
      <trkpt lat="52.268709987401962" lon="-3.301381040364504">
        <ele>232.30000000000001</ele>
        <time>2026-07-11T10:45:10Z</time>
      </trkpt>
      <trkpt lat="52.268627006560564" lon="-3.301392020657659">
        <ele>231.81</ele>
        <time>2026-07-11T10:45:11Z</time>
      </trkpt>
      <trkpt lat="52.268570009618998" lon="-3.301424961537123">
        <ele>231.33000000000001</ele>
        <time>2026-07-11T10:45:12Z</time>
      </trkpt>
      <trkpt lat="52.268499014899135" lon="-3.301466032862663">
        <ele>230.84999999999999</ele>
        <time>2026-07-11T10:45:13Z</time>
      </trkpt>
      <trkpt lat="52.268403964117169" lon="-3.301488999277353">
        <ele>230.37</ele>
        <time>2026-07-11T10:45:14Z</time>
      </trkpt>
      <trkpt lat="52.268358031287789" lon="-3.301477013155818">
        <ele>230.37</ele>
        <time>2026-07-11T10:45:15Z</time>
      </trkpt>
      <trkpt lat="52.268277984112501" lon="-3.301361007615924">
        <ele>229.88999999999999</ele>
        <time>2026-07-11T10:45:16Z</time>
      </trkpt>
      <trkpt lat="52.268211012706161" lon="-3.30126503482461">
        <ele>230.37</ele>
        <time>2026-07-11T10:45:17Z</time>
      </trkpt>
      <trkpt lat="52.267894009128213" lon="-3.300806963816285">
        <ele>231.81</ele>
        <time>2026-07-11T10:45:21Z</time>
      </trkpt>
      <trkpt lat="52.267821002751589" lon="-3.300702022388578">
        <ele>231.33000000000001</ele>
        <time>2026-07-11T10:45:22Z</time>
      </trkpt>
      <trkpt lat="52.267729975283146" lon="-3.300619963556528">
        <ele>230.84999999999999</ele>
        <time>2026-07-11T10:45:23Z</time>
      </trkpt>
      <trkpt lat="52.267638025805354" lon="-3.3005799818784">
        <ele>231.33000000000001</ele>
        <time>2026-07-11T10:45:24Z</time>
      </trkpt>
      <trkpt lat="52.267546998336911" lon="-3.300541006028652">
        <ele>231.33000000000001</ele>
        <time>2026-07-11T10:45:25Z</time>
      </trkpt>
      <trkpt lat="52.267456976696849" lon="-3.300503036007285">
        <ele>231.33000000000001</ele>
        <time>2026-07-11T10:45:26Z</time>
      </trkpt>
      <trkpt lat="52.266815006732941" lon="-3.300228025764227">
        <ele>235.66</ele>
        <time>2026-07-11T10:45:33Z</time>
      </trkpt>
      <trkpt lat="52.26672699674964" lon="-3.300189971923828">
        <ele>236.13999999999999</ele>
        <time>2026-07-11T10:45:34Z</time>
      </trkpt>
      <trkpt lat="52.266522981226444" lon="-3.300148984417319">
        <ele>237.58000000000001</ele>
        <time>2026-07-11T10:45:36Z</time>
      </trkpt>
      <trkpt lat="52.266421979293227" lon="-3.300129035487771">
        <ele>237.58000000000001</ele>
        <time>2026-07-11T10:45:37Z</time>
      </trkpt>
      <trkpt lat="52.26631997153163" lon="-3.300109002739191">
        <ele>238.06</ele>
        <time>2026-07-11T10:45:38Z</time>
      </trkpt>
      <trkpt lat="52.266225004568696" lon="-3.300130963325501">
        <ele>237.58000000000001</ele>
        <time>2026-07-11T10:45:39Z</time>
      </trkpt>
      <trkpt lat="52.266124002635479" lon="-3.300168011337519">
        <ele>237.58000000000001</ele>
        <time>2026-07-11T10:45:40Z</time>
      </trkpt>
      <trkpt lat="52.265100991353393" lon="-3.300543017685413">
        <ele>231.33000000000001</ele>
        <time>2026-07-11T10:45:50Z</time>
      </trkpt>
      <trkpt lat="52.264882978051901" lon="-3.300621975213289">
        <ele>229.88999999999999</ele>
        <time>2026-07-11T10:45:52Z</time>
      </trkpt>
      <trkpt lat="52.264776024967432" lon="-3.300661034882069">
        <ele>227.97</ele>
        <time>2026-07-11T10:45:53Z</time>
      </trkpt>
      <trkpt lat="52.263598032295704" lon="-3.301114998757839">
        <ele>223.16</ele>
        <time>2026-07-11T10:46:03Z</time>
      </trkpt>
      <trkpt lat="52.263490995392203" lon="-3.301217006519437">
        <ele>223.16</ele>
        <time>2026-07-11T10:46:04Z</time>
      </trkpt>
      <trkpt lat="52.263380018994212" lon="-3.301369976252317">
        <ele>223.16</ele>
        <time>2026-07-11T10:46:05Z</time>
      </trkpt>
      <trkpt lat="52.263315981253982" lon="-3.301527975127101">
        <ele>223.16</ele>
        <time>2026-07-11T10:46:06Z</time>
      </trkpt>
      <trkpt lat="52.263241969048977" lon="-3.301710030063987">
        <ele>223.16</ele>
        <time>2026-07-11T10:46:07Z</time>
      </trkpt>
      <trkpt lat="52.263167034834623" lon="-3.301898036152124">
        <ele>223.16</ele>
        <time>2026-07-11T10:46:08Z</time>
      </trkpt>
      <trkpt lat="52.262448035180569" lon="-3.303431002423167">
        <ele>228.93000000000001</ele>
        <time>2026-07-11T10:46:15Z</time>
      </trkpt>
      <trkpt lat="52.262121979147196" lon="-3.304141033440828">
        <ele>230.84999999999999</ele>
        <time>2026-07-11T10:46:18Z</time>
      </trkpt>
      <trkpt lat="52.262074034661055" lon="-3.304426018148661">
        <ele>231.81</ele>
        <time>2026-07-11T10:46:19Z</time>
      </trkpt>
      <trkpt lat="52.262032963335514" lon="-3.30470496788621">
        <ele>232.30000000000001</ele>
        <time>2026-07-11T10:46:20Z</time>
      </trkpt>
      <trkpt lat="52.261991975829005" lon="-3.30498400144279">
        <ele>233.25999999999999</ele>
        <time>2026-07-11T10:46:21Z</time>
      </trkpt>
      <trkpt lat="52.261950988322496" lon="-3.305259011685848">
        <ele>233.74000000000001</ele>
        <time>2026-07-11T10:46:22Z</time>
      </trkpt>
      <trkpt lat="52.261754013597965" lon="-3.306590979918838">
        <ele>238.53999999999999</ele>
        <time>2026-07-11T10:46:28Z</time>
      </trkpt>
      <trkpt lat="52.261630967259407" lon="-3.307302016764879">
        <ele>239.99000000000001</ele>
        <time>2026-07-11T10:46:31Z</time>
      </trkpt>
      <trkpt lat="52.261562990024686" lon="-3.307484993711114">
        <ele>239.99000000000001</ele>
        <time>2026-07-11T10:46:32Z</time>
      </trkpt>
      <trkpt lat="52.261462993919849" lon="-3.307640980929136">
        <ele>240.47</ele>
        <time>2026-07-11T10:46:33Z</time>
      </trkpt>
      <trkpt lat="52.260403018444777" lon="-3.309047967195511">
        <ele>235.66</ele>
        <time>2026-07-11T10:46:41Z</time>
      </trkpt>
      <trkpt lat="52.260150974616408" lon="-3.309354996308684">
        <ele>235.66</ele>
        <time>2026-07-11T10:46:43Z</time>
      </trkpt>
      <trkpt lat="52.260037986561656" lon="-3.309434959664941">
        <ele>235.66</ele>
        <time>2026-07-11T10:46:44Z</time>
      </trkpt>
      <trkpt lat="52.259917035698891" lon="-3.309449963271618">
        <ele>236.13999999999999</ele>
        <time>2026-07-11T10:46:45Z</time>
      </trkpt>
      <trkpt lat="52.259783009067178" lon="-3.309432025998831">
        <ele>236.13999999999999</ele>
        <time>2026-07-11T10:46:46Z</time>
      </trkpt>
      <trkpt lat="52.259631967172027" lon="-3.30941098742187">
        <ele>236.13999999999999</ele>
        <time>2026-07-11T10:46:47Z</time>
      </trkpt>
      <trkpt lat="52.258019037544727" lon="-3.309191968291998">
        <ele>234.69999999999999</ele>
        <time>2026-07-11T10:46:56Z</time>
      </trkpt>
      <trkpt lat="52.256376016885042" lon="-3.308965992182493">
        <ele>231.81</ele>
        <time>2026-07-11T10:47:06Z</time>
      </trkpt>
      <trkpt lat="52.255726000294089" lon="-3.308859961107373">
        <ele>229.88999999999999</ele>
        <time>2026-07-11T10:47:10Z</time>
      </trkpt>
      <trkpt lat="52.255584010854363" lon="-3.308886028826237">
        <ele>228.93000000000001</ele>
        <time>2026-07-11T10:47:11Z</time>
      </trkpt>
      <trkpt lat="52.255442021414638" lon="-3.308933973312378">
        <ele>227.97</ele>
        <time>2026-07-11T10:47:12Z</time>
      </trkpt>
      <trkpt lat="52.254200996831059" lon="-3.309575021266937">
        <ele>224.61000000000001</ele>
        <time>2026-07-11T10:47:19Z</time>
      </trkpt>
      <trkpt lat="52.252401988953352" lon="-3.310503987595439">
        <ele>222.68000000000001</ele>
        <time>2026-07-11T10:47:29Z</time>
      </trkpt>
      <trkpt lat="52.251327009871602" lon="-3.310946971178055">
        <ele>222.68000000000001</ele>
        <time>2026-07-11T10:47:36Z</time>
      </trkpt>
      <trkpt lat="52.250407012179494" lon="-3.310901960358024">
        <ele>221.72</ele>
        <time>2026-07-11T10:47:43Z</time>
      </trkpt>
      <trkpt lat="52.250303998589516" lon="-3.310920987278223">
        <ele>222.19999999999999</ele>
        <time>2026-07-11T10:47:44Z</time>
      </trkpt>
      <trkpt lat="52.250035023316741" lon="-3.311011008918285">
        <ele>222.68000000000001</ele>
        <time>2026-07-11T10:47:47Z</time>
      </trkpt>
      <trkpt lat="52.249953970313072" lon="-3.310979995876551">
        <ele>222.68000000000001</ele>
        <time>2026-07-11T10:47:48Z</time>
      </trkpt>
      <trkpt lat="52.249894961714745" lon="-3.310903972014785">
        <ele>222.19999999999999</ele>
        <time>2026-07-11T10:47:49Z</time>
      </trkpt>
      <trkpt lat="52.249836036935449" lon="-3.310814034193754">
        <ele>222.68000000000001</ele>
        <time>2026-07-11T10:47:50Z</time>
      </trkpt>
      <trkpt lat="52.249808041378856" lon="-3.31069702282548">
        <ele>222.68000000000001</ele>
        <time>2026-07-11T10:47:51Z</time>
      </trkpt>
      <trkpt lat="52.249782979488373" lon="-3.310589985921979">
        <ele>223.16</ele>
        <time>2026-07-11T10:47:52Z</time>
      </trkpt>
      <trkpt lat="52.249471005052328" lon="-3.309593964368105">
        <ele>226.05000000000001</ele>
        <time>2026-07-11T10:47:59Z</time>
      </trkpt>
      <trkpt lat="52.249028021469712" lon="-3.308107014745474">
        <ele>227.00999999999999</ele>
        <time>2026-07-11T10:48:08Z</time>
      </trkpt>
      <trkpt lat="52.248721998184919" lon="-3.307049972936511">
        <ele>228.93000000000001</ele>
        <time>2026-07-11T10:48:15Z</time>
      </trkpt>
      <trkpt lat="52.248660977929831" lon="-3.306914018467069">
        <ele>228.44999999999999</ele>
        <time>2026-07-11T10:48:16Z</time>
      </trkpt>
      <trkpt lat="52.248582020401955" lon="-3.306799018755555">
        <ele>228.44999999999999</ele>
        <time>2026-07-11T10:48:17Z</time>
      </trkpt>
      <trkpt lat="52.248363001272082" lon="-3.306548986583948">
        <ele>227.97</ele>
        <time>2026-07-11T10:48:20Z</time>
      </trkpt>
      <trkpt lat="52.248297035694122" lon="-3.306510010734201">
        <ele>227.97</ele>
        <time>2026-07-11T10:48:21Z</time>
      </trkpt>
      <trkpt lat="52.248235009610653" lon="-3.306495007127523">
        <ele>227.97</ele>
        <time>2026-07-11T10:48:22Z</time>
      </trkpt>
      <trkpt lat="52.247654981911182" lon="-3.306267019361258">
        <ele>229.41</ele>
        <time>2026-07-11T10:48:30Z</time>
      </trkpt>
      <trkpt lat="52.246960960328579" lon="-3.305963007733226">
        <ele>230.84999999999999</ele>
        <time>2026-07-11T10:48:37Z</time>
      </trkpt>
      <trkpt lat="52.246688967570662" lon="-3.305870974436402">
        <ele>229.41</ele>
        <time>2026-07-11T10:48:40Z</time>
      </trkpt>
      <trkpt lat="52.246612021699548" lon="-3.305820012465119">
        <ele>228.93000000000001</ele>
        <time>2026-07-11T10:48:41Z</time>
      </trkpt>
      <trkpt lat="52.246533986181021" lon="-3.305767960846424">
        <ele>228.93000000000001</ele>
        <time>2026-07-11T10:48:42Z</time>
      </trkpt>
      <trkpt lat="52.246373975649476" lon="-3.305555982515216">
        <ele>227.49000000000001</ele>
        <time>2026-07-11T10:48:44Z</time>
      </trkpt>
      <trkpt lat="52.245916994288564" lon="-3.305045021697879">
        <ele>226.53</ele>
        <time>2026-07-11T10:48:49Z</time>
      </trkpt>
      <trkpt lat="52.245813980698586" lon="-3.304952988401055">
        <ele>226.53</ele>
        <time>2026-07-11T10:48:50Z</time>
      </trkpt>
      <trkpt lat="52.245706021785736" lon="-3.304870007559657">
        <ele>227.00999999999999</ele>
        <time>2026-07-11T10:48:51Z</time>
      </trkpt>
      <trkpt lat="52.24451101385057" lon="-3.304144972935319">
        <ele>234.69999999999999</ele>
        <time>2026-07-11T10:49:01Z</time>
      </trkpt>
      <trkpt lat="52.243513986468315" lon="-3.303388003259897">
        <ele>242.38999999999999</ele>
        <time>2026-07-11T10:49:10Z</time>
      </trkpt>
      <trkpt lat="52.243381971493363" lon="-3.303168984130025">
        <ele>243.34999999999999</ele>
        <time>2026-07-11T10:49:12Z</time>
      </trkpt>
      <trkpt lat="52.243233025074005" lon="-3.302923981100321">
        <ele>243.83000000000001</ele>
        <time>2026-07-11T10:49:14Z</time>
      </trkpt>
      <trkpt lat="52.242416040971875" lon="-3.301576003432274">
        <ele>247.19999999999999</ele>
        <time>2026-07-11T10:49:22Z</time>
      </trkpt>
      <trkpt lat="52.242101971060038" lon="-3.301058001816273">
        <ele>250.56</ele>
        <time>2026-07-11T10:49:25Z</time>
      </trkpt>
      <trkpt lat="52.242004992440343" lon="-3.300896985456348">
        <ele>252</ele>
        <time>2026-07-11T10:49:26Z</time>
      </trkpt>
      <trkpt lat="52.241836013272405" lon="-3.300619041547179">
        <ele>254.41</ele>
        <time>2026-07-11T10:49:28Z</time>
      </trkpt>
      <trkpt lat="52.241753032431006" lon="-3.300565984100103">
        <ele>255.84999999999999</ele>
        <time>2026-07-11T10:49:29Z</time>
      </trkpt>
      <trkpt lat="52.241663010790944" lon="-3.300507981330156">
        <ele>256.81</ele>
        <time>2026-07-11T10:49:30Z</time>
      </trkpt>
      <trkpt lat="52.241570977494121" lon="-3.300448972731829">
        <ele>258.25</ele>
        <time>2026-07-11T10:49:31Z</time>
      </trkpt>
      <trkpt lat="52.241495037451386" lon="-3.300345959141851">
        <ele>259.69</ele>
        <time>2026-07-11T10:49:32Z</time>
      </trkpt>
      <trkpt lat="52.241434017196298" lon="-3.300225008279085">
        <ele>260.64999999999998</ele>
        <time>2026-07-11T10:49:33Z</time>
      </trkpt>
      <trkpt lat="52.241366039961576" lon="-3.300092993304133">
        <ele>262.10000000000002</ele>
        <time>2026-07-11T10:49:34Z</time>
      </trkpt>
      <trkpt lat="52.241219021379948" lon="-3.299803985282779">
        <ele>264.01999999999998</ele>
        <time>2026-07-11T10:49:36Z</time>
      </trkpt>
      <trkpt lat="52.241140985861421" lon="-3.299650009721518">
        <ele>265.45999999999998</ele>
        <time>2026-07-11T10:49:37Z</time>
      </trkpt>
      <trkpt lat="52.241072002798319" lon="-3.299513971433044">
        <ele>266.89999999999998</ele>
        <time>2026-07-11T10:49:38Z</time>
      </trkpt>
      <trkpt lat="52.241004025563598" lon="-3.299382040277124">
        <ele>268.35000000000002</ele>
        <time>2026-07-11T10:49:39Z</time>
      </trkpt>
      <trkpt lat="52.240914003923535" lon="-3.299203002825379">
        <ele>269.31</ele>
        <time>2026-07-11T10:49:40Z</time>
      </trkpt>
      <trkpt lat="52.240833034738898" lon="-3.299078028649092">
        <ele>271.23000000000002</ele>
        <time>2026-07-11T10:49:41Z</time>
      </trkpt>
      <trkpt lat="52.240655003115535" lon="-3.298836965113878">
        <ele>274.11000000000001</ele>
        <time>2026-07-11T10:49:43Z</time>
      </trkpt>
      <trkpt lat="52.240570010617375" lon="-3.298751972615719">
        <ele>275.56</ele>
        <time>2026-07-11T10:49:44Z</time>
      </trkpt>
      <trkpt lat="52.240456016734242" lon="-3.298673015087843">
        <ele>277.48000000000002</ele>
        <time>2026-07-11T10:49:45Z</time>
      </trkpt>
      <trkpt lat="52.240356020629406" lon="-3.298643007874489">
        <ele>278.92000000000002</ele>
        <time>2026-07-11T10:49:46Z</time>
      </trkpt>
      <trkpt lat="52.240252001211047" lon="-3.298611994832754">
        <ele>280.36000000000001</ele>
        <time>2026-07-11T10:49:47Z</time>
      </trkpt>
      <trkpt lat="52.24014999344945" lon="-3.2985819876194">
        <ele>282.27999999999997</ele>
        <time>2026-07-11T10:49:48Z</time>
      </trkpt>
      <trkpt lat="52.240034993737936" lon="-3.298566984012723">
        <ele>283.25</ele>
        <time>2026-07-11T10:49:49Z</time>
      </trkpt>
      <trkpt lat="52.239923011511564" lon="-3.298589028418064">
        <ele>284.69</ele>
        <time>2026-07-11T10:49:50Z</time>
      </trkpt>
      <trkpt lat="52.238816013559699" lon="-3.298807963728905">
        <ele>301.02999999999997</ele>
        <time>2026-07-11T10:49:59Z</time>
      </trkpt>
      <trkpt lat="52.23862498998642" lon="-3.298845011740923">
        <ele>303.91000000000003</ele>
        <time>2026-07-11T10:50:01Z</time>
      </trkpt>
      <trkpt lat="52.23853899165988" lon="-3.298855992034078">
        <ele>304.88</ele>
        <time>2026-07-11T10:50:02Z</time>
      </trkpt>
      <trkpt lat="52.238446958363056" lon="-3.298829002305865">
        <ele>306.31999999999999</ele>
        <time>2026-07-11T10:50:03Z</time>
      </trkpt>
      <trkpt lat="52.238247971981764" lon="-3.298770999535918">
        <ele>307.75999999999999</ele>
        <time>2026-07-11T10:50:05Z</time>
      </trkpt>
      <trkpt lat="52.238140013068914" lon="-3.298738980665803">
        <ele>308.24000000000001</ele>
        <time>2026-07-11T10:50:06Z</time>
      </trkpt>
      <trkpt lat="52.237819992005825" lon="-3.298646025359631">
        <ele>309.68000000000001</ele>
        <time>2026-07-11T10:50:09Z</time>
      </trkpt>
      <trkpt lat="52.23772200755775" lon="-3.298617023974657">
        <ele>310.16000000000003</ele>
        <time>2026-07-11T10:50:10Z</time>
      </trkpt>
      <trkpt lat="52.237630980089307" lon="-3.298591040074825">
        <ele>311.12</ele>
        <time>2026-07-11T10:50:11Z</time>
      </trkpt>
      <trkpt lat="52.237547999247909" lon="-3.298566984012723">
        <ele>312.08999999999997</ele>
        <time>2026-07-11T10:50:12Z</time>
      </trkpt>
      <trkpt lat="52.237467030063272" lon="-3.29855902120471">
        <ele>313.05000000000001</ele>
        <time>2026-07-11T10:50:13Z</time>
      </trkpt>
      <trkpt lat="52.236789017915726" lon="-3.298548962920904">
        <ele>320.25999999999999</ele>
        <time>2026-07-11T10:50:19Z</time>
      </trkpt>
      <trkpt lat="52.235944960266352" lon="-3.298537982627749">
        <ele>326.01999999999998</ele>
        <time>2026-07-11T10:50:25Z</time>
      </trkpt>
      <trkpt lat="52.235834989696741" lon="-3.298480985686183">
        <ele>326.99000000000001</ele>
        <time>2026-07-11T10:50:26Z</time>
      </trkpt>
      <trkpt lat="52.235725019127131" lon="-3.298418959602714">
        <ele>327.94999999999999</ele>
        <time>2026-07-11T10:50:27Z</time>
      </trkpt>
      <trkpt lat="52.235233001410961" lon="-3.298140009865165">
        <ele>333.70999999999998</ele>
        <time>2026-07-11T10:50:31Z</time>
      </trkpt>
      <trkpt lat="52.234360026195645" lon="-3.297762991860509">
        <ele>333.23000000000002</ele>
        <time>2026-07-11T10:50:38Z</time>
      </trkpt>
      <trkpt lat="52.234263969585299" lon="-3.297724016010761">
        <ele>333.23000000000002</ele>
        <time>2026-07-11T10:50:39Z</time>
      </trkpt>
      <trkpt lat="52.234170008450747" lon="-3.297782018780708">
        <ele>332.75</ele>
        <time>2026-07-11T10:50:40Z</time>
      </trkpt>
      <trkpt lat="52.234084010124207" lon="-3.297839015722275">
        <ele>333.23000000000002</ele>
        <time>2026-07-11T10:50:41Z</time>
      </trkpt>
      <trkpt lat="52.233988037332892" lon="-3.297901041805744">
        <ele>333.23000000000002</ele>
        <time>2026-07-11T10:50:42Z</time>
      </trkpt>
      <trkpt lat="52.23299402743578" lon="-3.298549968749285">
        <ele>332.75</ele>
        <time>2026-07-11T10:50:50Z</time>
      </trkpt>
      <trkpt lat="52.232062965631485" lon="-3.299255976453424">
        <ele>333.23000000000002</ele>
        <time>2026-07-11T10:50:58Z</time>
      </trkpt>
      <trkpt lat="52.231559967622161" lon="-3.299667024984956">
        <ele>330.82999999999998</ele>
        <time>2026-07-11T10:51:03Z</time>
      </trkpt>
      <trkpt lat="52.231458965688944" lon="-3.299743970856071">
        <ele>329.87</ele>
        <time>2026-07-11T10:51:04Z</time>
      </trkpt>
      <trkpt lat="52.231352012604475" lon="-3.299786970019341">
        <ele>328.43000000000001</ele>
        <time>2026-07-11T10:51:05Z</time>
      </trkpt>
      <trkpt lat="52.231252016499639" lon="-3.299827035516501">
        <ele>327.47000000000003</ele>
        <time>2026-07-11T10:51:06Z</time>
      </trkpt>
      <trkpt lat="52.231138022616506" lon="-3.299872968345881">
        <ele>326.99000000000001</ele>
        <time>2026-07-11T10:51:07Z</time>
      </trkpt>
      <trkpt lat="52.231021011248231" lon="-3.299924014136195">
        <ele>326.99000000000001</ele>
        <time>2026-07-11T10:51:08Z</time>
      </trkpt>
      <trkpt lat="52.230218024924397" lon="-3.300382001325488">
        <ele>329.38999999999999</ele>
        <time>2026-07-11T10:51:15Z</time>
      </trkpt>
      <trkpt lat="52.23003102466464" lon="-3.300489960238338">
        <ele>329.87</ele>
        <time>2026-07-11T10:51:17Z</time>
      </trkpt>
      <trkpt lat="52.2299450263381" lon="-3.300563972443342">
        <ele>330.35000000000002</ele>
        <time>2026-07-11T10:51:18Z</time>
      </trkpt>
      <trkpt lat="52.229737993329763" lon="-3.300799001008272">
        <ele>330.35000000000002</ele>
        <time>2026-07-11T10:51:21Z</time>
      </trkpt>
      <trkpt lat="52.229670016095042" lon="-3.300877036526799">
        <ele>330.35000000000002</ele>
        <time>2026-07-11T10:51:22Z</time>
      </trkpt>
      <trkpt lat="52.229618970304728" lon="-3.300893967971206">
        <ele>330.35000000000002</ele>
        <time>2026-07-11T10:51:23Z</time>
      </trkpt>
      <trkpt lat="52.229520985856652" lon="-3.300894973799586">
        <ele>330.35000000000002</ele>
        <time>2026-07-11T10:51:24Z</time>
      </trkpt>
      <trkpt lat="52.229463988915086" lon="-3.300826996564865">
        <ele>330.82999999999998</ele>
        <time>2026-07-11T10:51:25Z</time>
      </trkpt>
      <trkpt lat="52.229404980316758" lon="-3.300720965489745">
        <ele>331.79000000000002</ele>
        <time>2026-07-11T10:51:26Z</time>
      </trkpt>
      <trkpt lat="52.229360975325108" lon="-3.300615018233657">
        <ele>332.75</ele>
        <time>2026-07-11T10:51:27Z</time>
      </trkpt>
      <trkpt lat="52.229315964505076" lon="-3.300504041835666">
        <ele>333.23000000000002</ele>
        <time>2026-07-11T10:51:28Z</time>
      </trkpt>
      <trkpt lat="52.229265002533793" lon="-3.300394993275404">
        <ele>334.19999999999999</ele>
        <time>2026-07-11T10:51:29Z</time>
      </trkpt>
      <trkpt lat="52.229198031127453" lon="-3.300285022705793">
        <ele>334.68000000000001</ele>
        <time>2026-07-11T10:51:30Z</time>
      </trkpt>
      <trkpt lat="52.229130975902081" lon="-3.300173040479422">
        <ele>335.63999999999999</ele>
        <time>2026-07-11T10:51:31Z</time>
      </trkpt>
      <trkpt lat="52.228639964014292" lon="-3.299361001700163">
        <ele>344.29000000000002</ele>
        <time>2026-07-11T10:51:38Z</time>
      </trkpt>
      <trkpt lat="52.228563018143177" lon="-3.299276009202004">
        <ele>345.25</ele>
        <time>2026-07-11T10:51:39Z</time>
      </trkpt>
      <trkpt lat="52.228483976796269" lon="-3.29924700781703">
        <ele>346.20999999999998</ele>
        <time>2026-07-11T10:51:40Z</time>
      </trkpt>
      <trkpt lat="52.228410970419645" lon="-3.299219012260437">
        <ele>347.17000000000002</ele>
        <time>2026-07-11T10:51:41Z</time>
      </trkpt>
      <trkpt lat="52.228341987356544" lon="-3.299194034188986">
        <ele>348.13</ele>
        <time>2026-07-11T10:51:42Z</time>
      </trkpt>
      <trkpt lat="52.228244002908468" lon="-3.299166960641742">
        <ele>349.10000000000002</ele>
        <time>2026-07-11T10:51:43Z</time>
      </trkpt>
      <trkpt lat="52.228186000138521" lon="-3.299213983118534">
        <ele>350.06</ele>
        <time>2026-07-11T10:51:44Z</time>
      </trkpt>
      <trkpt lat="52.228125985711813" lon="-3.299279026687145">
        <ele>350.54000000000002</ele>
        <time>2026-07-11T10:51:45Z</time>
      </trkpt>
      <trkpt lat="52.228081980720162" lon="-3.29935303889215">
        <ele>351.5</ele>
        <time>2026-07-11T10:51:46Z</time>
      </trkpt>
      <trkpt lat="52.228062031790614" lon="-3.299482958391309">
        <ele>351.98000000000002</ele>
        <time>2026-07-11T10:51:47Z</time>
      </trkpt>
      <trkpt lat="52.228040993213654" lon="-3.29961396753788">
        <ele>352.45999999999998</ele>
        <time>2026-07-11T10:51:48Z</time>
      </trkpt>
      <trkpt lat="52.228018026798964" lon="-3.29976299777627">
        <ele>353.42000000000002</ele>
        <time>2026-07-11T10:51:49Z</time>
      </trkpt>
      <trkpt lat="52.22777402959764" lon="-3.301338041201234">
        <ele>361.11000000000001</ele>
        <time>2026-07-11T10:51:57Z</time>
      </trkpt>
      <trkpt lat="52.227627011016011" lon="-3.302282011136413">
        <ele>363.51999999999998</ele>
        <time>2026-07-11T10:52:04Z</time>
      </trkpt>
      <trkpt lat="52.227502036839724" lon="-3.303087009117007">
        <ele>357.26999999999998</ele>
        <time>2026-07-11T10:52:14Z</time>
      </trkpt>
      <trkpt lat="52.227440010756254" lon="-3.303316002711654">
        <ele>356.31</ele>
        <time>2026-07-11T10:52:18Z</time>
      </trkpt>
      <trkpt lat="52.227416960522532" lon="-3.303322959691286">
        <ele>355.82999999999998</ele>
        <time>2026-07-11T10:52:19Z</time>
      </trkpt>
      <trkpt lat="52.227382007986307" lon="-3.303322959691286">
        <ele>355.82999999999998</ele>
        <time>2026-07-11T10:52:20Z</time>
      </trkpt>
      <trkpt lat="52.22736700437963" lon="-3.303313991054893">
        <ele>355.33999999999997</ele>
        <time>2026-07-11T10:52:21Z</time>
      </trkpt>
      <trkpt lat="52.227335991337895" lon="-3.303269986063242">
        <ele>355.33999999999997</ele>
        <time>2026-07-11T10:52:22Z</time>
      </trkpt>
      <trkpt lat="52.227295003831387" lon="-3.303210977464914">
        <ele>355.33999999999997</ele>
        <time>2026-07-11T10:52:23Z</time>
      </trkpt>
      <trkpt lat="52.226708019152284" lon="-3.302375972270966">
        <ele>350.54000000000002</ele>
        <time>2026-07-11T10:52:33Z</time>
      </trkpt>
      <trkpt lat="52.225978961214423" lon="-3.301338963210583">
        <ele>337.07999999999998</ele>
        <time>2026-07-11T10:52:44Z</time>
      </trkpt>
      <trkpt lat="52.22577502951026" lon="-3.300931015983224">
        <ele>332.75</ele>
        <time>2026-07-11T10:52:48Z</time>
      </trkpt>
      <trkpt lat="52.22573596984148" lon="-3.300812998786569">
        <ele>331.79000000000002</ele>
        <time>2026-07-11T10:52:49Z</time>
      </trkpt>
      <trkpt lat="52.225427012890577" lon="-3.299315990880132">
        <ele>324.57999999999998</ele>
        <time>2026-07-11T10:53:00Z</time>
      </trkpt>
      <trkpt lat="52.225371021777391" lon="-3.299187999218702">
        <ele>323.62</ele>
        <time>2026-07-11T10:53:01Z</time>
      </trkpt>
      <trkpt lat="52.225298015400767" lon="-3.299078028649092">
        <ele>323.13999999999999</ele>
        <time>2026-07-11T10:53:02Z</time>
      </trkpt>
      <trkpt lat="52.225208999589086" lon="-3.298984989523888">
        <ele>321.69999999999999</ele>
        <time>2026-07-11T10:53:03Z</time>
      </trkpt>
      <trkpt lat="52.225112020969391" lon="-3.29888298176229">
        <ele>320.74000000000001</ele>
        <time>2026-07-11T10:53:04Z</time>
      </trkpt>
      <trkpt lat="52.2239959705621" lon="-3.297673976048827">
        <ele>322.18000000000001</ele>
        <time>2026-07-11T10:53:15Z</time>
      </trkpt>
      <trkpt lat="52.223936039954424" lon="-3.297530980780721">
        <ele>322.66000000000003</ele>
        <time>2026-07-11T10:53:16Z</time>
      </trkpt>
      <trkpt lat="52.223279988393188" lon="-3.29598200507462">
        <ele>327.47000000000003</ele>
        <time>2026-07-11T10:53:26Z</time>
      </trkpt>
      <trkpt lat="52.223136993125081" lon="-3.295754017308354">
        <ele>328.91000000000003</ele>
        <time>2026-07-11T10:53:28Z</time>
      </trkpt>
      <trkpt lat="52.223056023940444" lon="-3.295641029253602">
        <ele>329.38999999999999</ele>
        <time>2026-07-11T10:53:29Z</time>
      </trkpt>
      <trkpt lat="52.222974970936775" lon="-3.295526029542089">
        <ele>329.87</ele>
        <time>2026-07-11T10:53:30Z</time>
      </trkpt>
      <trkpt lat="52.222888972610235" lon="-3.295404994860292">
        <ele>330.35000000000002</ele>
        <time>2026-07-11T10:53:31Z</time>
      </trkpt>
      <trkpt lat="52.222800962626934" lon="-3.295350009575486">
        <ele>330.82999999999998</ele>
        <time>2026-07-11T10:53:32Z</time>
      </trkpt>
      <trkpt lat="52.222703984007239" lon="-3.295288989320397">
        <ele>331.31</ele>
        <time>2026-07-11T10:53:33Z</time>
      </trkpt>
      <trkpt lat="52.222605999559164" lon="-3.295226963236928">
        <ele>331.31</ele>
        <time>2026-07-11T10:53:34Z</time>
      </trkpt>
      <trkpt lat="52.222402989864349" lon="-3.295099977403879">
        <ele>330.82999999999998</ele>
        <time>2026-07-11T10:53:36Z</time>
      </trkpt>
      <trkpt lat="52.22229796461761" lon="-3.295034011825919">
        <ele>330.82999999999998</ele>
        <time>2026-07-11T10:53:37Z</time>
      </trkpt>
      <trkpt lat="52.221370004117489" lon="-3.294450966641307">
        <ele>327.47000000000003</ele>
        <time>2026-07-11T10:53:46Z</time>
      </trkpt>
      <trkpt lat="52.221290962770581" lon="-3.294401010498405">
        <ele>327.94999999999999</ele>
        <time>2026-07-11T10:53:47Z</time>
      </trkpt>
      <trkpt lat="52.221231032162905" lon="-3.294363040477037">
        <ele>327.94999999999999</ele>
        <time>2026-07-11T10:53:48Z</time>
      </trkpt>
      <trkpt lat="52.221175963059068" lon="-3.29437100328505">
        <ele>328.43000000000001</ele>
        <time>2026-07-11T10:53:49Z</time>
      </trkpt>
      <trkpt lat="52.221111003309488" lon="-3.294398998841643">
        <ele>328.91000000000003</ele>
        <time>2026-07-11T10:53:50Z</time>
      </trkpt>
      <trkpt lat="52.221041014418006" lon="-3.294429006054997">
        <ele>329.87</ele>
        <time>2026-07-11T10:53:51Z</time>
      </trkpt>
      <trkpt lat="52.220965996384621" lon="-3.294462030753493">
        <ele>331.31</ele>
        <time>2026-07-11T10:53:52Z</time>
      </trkpt>
      <trkpt lat="52.220625020563602" lon="-3.294558003544807">
        <ele>336.60000000000002</ele>
        <time>2026-07-11T10:53:56Z</time>
      </trkpt>
      <trkpt lat="52.220042981207371" lon="-3.294421965256333">
        <ele>343.32999999999998</ele>
        <time>2026-07-11T10:54:03Z</time>
      </trkpt>
      <trkpt lat="52.219960000365973" lon="-3.29439003020525">
        <ele>342.85000000000002</ele>
        <time>2026-07-11T10:54:04Z</time>
      </trkpt>
      <trkpt lat="52.219870984554291" lon="-3.294355999678373">
        <ele>342.37</ele>
        <time>2026-07-11T10:54:05Z</time>
      </trkpt>
      <trkpt lat="52.219767970964313" lon="-3.294355999678373">
        <ele>341.88999999999999</ele>
        <time>2026-07-11T10:54:06Z</time>
      </trkpt>
      <trkpt lat="52.219666969031096" lon="-3.294359017163515">
        <ele>340.44</ele>
        <time>2026-07-11T10:54:07Z</time>
      </trkpt>
      <trkpt lat="52.219003960490227" lon="-3.294317023828626">
        <ele>333.23000000000002</ele>
        <time>2026-07-11T10:54:14Z</time>
      </trkpt>
      <trkpt lat="52.218925002962351" lon="-3.294286010786891">
        <ele>332.26999999999998</ele>
        <time>2026-07-11T10:54:15Z</time>
      </trkpt>
      <trkpt lat="52.218845961615443" lon="-3.294231025502086">
        <ele>331.79000000000002</ele>
        <time>2026-07-11T10:54:16Z</time>
      </trkpt>
      <trkpt lat="52.218228969722986" lon="-3.293652003630996">
        <ele>324.10000000000002</ele>
        <time>2026-07-11T10:54:24Z</time>
      </trkpt>
      <trkpt lat="52.218183036893606" lon="-3.293614033609629">
        <ele>323.13999999999999</ele>
        <time>2026-07-11T10:54:25Z</time>
      </trkpt>
      <trkpt lat="52.218116987496614" lon="-3.293685028329492">
        <ele>322.18000000000001</ele>
        <time>2026-07-11T10:54:26Z</time>
      </trkpt>
      <trkpt lat="52.21808698028326" lon="-3.293732972815633">
        <ele>321.22000000000003</ele>
        <time>2026-07-11T10:54:27Z</time>
      </trkpt>
      <trkpt lat="52.218056973069906" lon="-3.293781001120806">
        <ele>320.25999999999999</ele>
        <time>2026-07-11T10:54:28Z</time>
      </trkpt>
      <trkpt lat="52.218017997220159" lon="-3.293843027204275">
        <ele>319.77999999999997</ele>
        <time>2026-07-11T10:54:29Z</time>
      </trkpt>
      <trkpt lat="52.217969968914986" lon="-3.29392097890377">
        <ele>319.30000000000001</ele>
        <time>2026-07-11T10:54:30Z</time>
      </trkpt>
      <trkpt lat="52.217920012772083" lon="-3.294000020250678">
        <ele>318.81</ele>
        <time>2026-07-11T10:54:31Z</time>
      </trkpt>
      <trkpt lat="52.217875001952052" lon="-3.294072020798922">
        <ele>318.32999999999998</ele>
        <time>2026-07-11T10:54:32Z</time>
      </trkpt>
      <trkpt lat="52.217823034152389" lon="-3.294116025790572">
        <ele>317.85000000000002</ele>
        <time>2026-07-11T10:54:33Z</time>
      </trkpt>
      <trkpt lat="52.21774198114872" lon="-3.294108984991908">
        <ele>317.37</ele>
        <time>2026-07-11T10:54:34Z</time>
      </trkpt>
      <trkpt lat="52.217641985043883" lon="-3.294100016355515">
        <ele>316.41000000000003</ele>
        <time>2026-07-11T10:54:35Z</time>
      </trkpt>
      <trkpt lat="52.21741902641952" lon="-3.294080989435315">
        <ele>314.49000000000001</ele>
        <time>2026-07-11T10:54:37Z</time>
      </trkpt>
      <trkpt lat="52.217318024486303" lon="-3.294072020798922">
        <ele>314.00999999999999</ele>
        <time>2026-07-11T10:54:38Z</time>
      </trkpt>
      <trkpt lat="52.217222973704338" lon="-3.294063974171877">
        <ele>313.52999999999997</ele>
        <time>2026-07-11T10:54:39Z</time>
      </trkpt>
      <trkpt lat="52.217125995084643" lon="-3.294056011363864">
        <ele>313.05000000000001</ele>
        <time>2026-07-11T10:54:40Z</time>
      </trkpt>
      <trkpt lat="52.217023987323046" lon="-3.294015023857355">
        <ele>312.56999999999999</ele>
        <time>2026-07-11T10:54:41Z</time>
      </trkpt>
      <trkpt lat="52.216928014531732" lon="-3.293964983895421">
        <ele>311.60000000000002</ele>
        <time>2026-07-11T10:54:42Z</time>
      </trkpt>
      <trkpt lat="52.216676976531744" lon="-3.293859958648682">
        <ele>310.16000000000003</ele>
        <time>2026-07-11T10:54:45Z</time>
      </trkpt>
      <trkpt lat="52.216597013175488" lon="-3.293859958648682">
        <ele>309.19999999999999</ele>
        <time>2026-07-11T10:54:46Z</time>
      </trkpt>
      <trkpt lat="52.21651503816247" lon="-3.293872028589249">
        <ele>308.24000000000001</ele>
        <time>2026-07-11T10:54:47Z</time>
      </trkpt>
      <trkpt lat="52.216420993208885" lon="-3.293921984732151">
        <ele>307.75999999999999</ele>
        <time>2026-07-11T10:54:48Z</time>
      </trkpt>
      <trkpt lat="52.216322002932429" lon="-3.293974036350846">
        <ele>306.80000000000001</ele>
        <time>2026-07-11T10:54:49Z</time>
      </trkpt>
      <trkpt lat="52.216129973530769" lon="-3.294075038284063">
        <ele>304.38999999999999</ele>
        <time>2026-07-11T10:54:52Z</time>
      </trkpt>
      <trkpt lat="52.215991001576185" lon="-3.294090963900089">
        <ele>303.43000000000001</ele>
        <time>2026-07-11T10:54:53Z</time>
      </trkpt>
      <trkpt lat="52.215899974107742" lon="-3.294102028012276">
        <ele>302.47000000000003</ele>
        <time>2026-07-11T10:54:54Z</time>
      </trkpt>
      <trkpt lat="52.214981988072395" lon="-3.294146033003926">
        <ele>295.74000000000001</ele>
        <time>2026-07-11T10:55:04Z</time>
      </trkpt>
      <trkpt lat="52.213813969865441" lon="-3.294406039640307">
        <ele>291.42000000000002</ele>
        <time>2026-07-11T10:55:16Z</time>
      </trkpt>
      <trkpt lat="52.213729983195662" lon="-3.29441400244832">
        <ele>290.94</ele>
        <time>2026-07-11T10:55:17Z</time>
      </trkpt>
      <trkpt lat="52.213643984869123" lon="-3.294394975528121">
        <ele>289.97000000000003</ele>
        <time>2026-07-11T10:55:18Z</time>
      </trkpt>
      <trkpt lat="52.213231008499861" lon="-3.294157013297081">
        <ele>287.56999999999999</ele>
        <time>2026-07-11T10:55:22Z</time>
      </trkpt>
      <trkpt lat="52.21310100518167" lon="-3.294096998870373">
        <ele>286.13</ele>
        <time>2026-07-11T10:55:23Z</time>
      </trkpt>
      <trkpt lat="52.212963039055467" lon="-3.294103033840656">
        <ele>285.64999999999998</ele>
        <time>2026-07-11T10:55:24Z</time>
      </trkpt>
      <trkpt lat="52.21241201274097" lon="-3.294127006083727">
        <ele>282.27999999999997</ele>
        <time>2026-07-11T10:55:28Z</time>
      </trkpt>
      <trkpt lat="52.212152006104589" lon="-3.294138992205262">
        <ele>279.88</ele>
        <time>2026-07-11T10:55:30Z</time>
      </trkpt>
      <trkpt lat="52.211303003132343" lon="-3.29417604021728">
        <ele>275.06999999999999</ele>
        <time>2026-07-11T10:55:37Z</time>
      </trkpt>
      <trkpt lat="52.211220022290945" lon="-3.294179979711771">
        <ele>274.58999999999997</ele>
        <time>2026-07-11T10:55:38Z</time>
      </trkpt>
      <trkpt lat="52.211131006479263" lon="-3.294139998033643">
        <ele>273.63</ele>
        <time>2026-07-11T10:55:40Z</time>
      </trkpt>
      <trkpt lat="52.211087001487613" lon="-3.294095993041992">
        <ele>273.14999999999998</ele>
        <time>2026-07-11T10:55:41Z</time>
      </trkpt>
      <trkpt lat="52.211063029244542" lon="-3.294018041342497">
        <ele>273.14999999999998</ele>
        <time>2026-07-11T10:55:42Z</time>
      </trkpt>
      <trkpt lat="52.211031010374427" lon="-3.293911004438996">
        <ele>272.19</ele>
        <time>2026-07-11T10:55:43Z</time>
      </trkpt>
      <trkpt lat="52.210992034524679" lon="-3.293783012777567">
        <ele>271.70999999999998</ele>
        <time>2026-07-11T10:55:44Z</time>
      </trkpt>
      <trkpt lat="52.210853984579444" lon="-3.293332988396287">
        <ele>270.75</ele>
        <time>2026-07-11T10:55:47Z</time>
      </trkpt>
      <trkpt lat="52.210806962102652" lon="-3.293179012835026">
        <ele>270.75</ele>
        <time>2026-07-11T10:55:48Z</time>
      </trkpt>
      <trkpt lat="52.210757005959749" lon="-3.293028976768255">
        <ele>270.75</ele>
        <time>2026-07-11T10:55:49Z</time>
      </trkpt>
      <trkpt lat="52.210686011239886" lon="-3.292897967621684">
        <ele>270.75</ele>
        <time>2026-07-11T10:55:50Z</time>
      </trkpt>
      <trkpt lat="52.210605964064598" lon="-3.292771987617016">
        <ele>271.23000000000002</ele>
        <time>2026-07-11T10:55:51Z</time>
      </trkpt>
      <trkpt lat="52.210518959909678" lon="-3.292667968198657">
        <ele>271.23000000000002</ele>
        <time>2026-07-11T10:55:52Z</time>
      </trkpt>
      <trkpt lat="52.210132973268628" lon="-3.292204029858112">
        <ele>273.63</ele>
        <time>2026-07-11T10:55:57Z</time>
      </trkpt>
      <trkpt lat="52.210087962448597" lon="-3.292096992954612">
        <ele>274.11000000000001</ele>
        <time>2026-07-11T10:55:58Z</time>
      </trkpt>
      <trkpt lat="52.210064996033907" lon="-3.291970007121563">
        <ele>274.11000000000001</ele>
        <time>2026-07-11T10:55:59Z</time>
      </trkpt>
      <trkpt lat="52.209852011874318" lon="-3.290791008621454">
        <ele>270.75</ele>
        <time>2026-07-11T10:56:06Z</time>
      </trkpt>
      <trkpt lat="52.209833990782499" lon="-3.290690006688237">
        <ele>270.26999999999998</ele>
        <time>2026-07-11T10:56:07Z</time>
      </trkpt>
      <trkpt lat="52.209819993004203" lon="-3.290614988654852">
        <ele>269.31</ele>
        <time>2026-07-11T10:56:08Z</time>
      </trkpt>
      <trkpt lat="52.20981203019619" lon="-3.29056796617806">
        <ele>268.82999999999998</ele>
        <time>2026-07-11T10:56:09Z</time>
      </trkpt>
      <trkpt lat="52.209805995225906" lon="-3.290537036955357">
        <ele>268.35000000000002</ele>
        <time>2026-07-11T10:56:10Z</time>
      </trkpt>
      <trkpt lat="52.209805995225906" lon="-3.290537036955357">
        <ele>267.86000000000001</ele>
        <time>2026-07-11T10:56:11Z</time>
      </trkpt>
      <trkpt lat="52.209805995225906" lon="-3.290537036955357">
        <ele>267.86000000000001</ele>
        <time>2026-07-11T10:56:14Z</time>
      </trkpt>
      <trkpt lat="52.20974899828434" lon="-3.290463024750352">
        <ele>267.38</ele>
        <time>2026-07-11T10:56:16Z</time>
      </trkpt>
      <trkpt lat="52.209733994677663" lon="-3.290505018085241">
        <ele>266.89999999999998</ele>
        <time>2026-07-11T10:56:17Z</time>
      </trkpt>
      <trkpt lat="52.209709016606212" lon="-3.290571989491582">
        <ele>266.89999999999998</ele>
        <time>2026-07-11T10:56:18Z</time>
      </trkpt>
      <trkpt lat="52.209673980250955" lon="-3.290667962282896">
        <ele>266.89999999999998</ele>
        <time>2026-07-11T10:56:19Z</time>
      </trkpt>
      <trkpt lat="52.209325041621923" lon="-3.2916209846735">
        <ele>264.98000000000002</ele>
        <time>2026-07-11T10:56:25Z</time>
      </trkpt>
      <trkpt lat="52.209052965044975" lon="-3.292364040389657">
        <ele>261.62</ele>
        <time>2026-07-11T10:56:29Z</time>
      </trkpt>
      <trkpt lat="52.208982976153493" lon="-3.292552968487144">
        <ele>260.64999999999998</ele>
        <time>2026-07-11T10:56:30Z</time>
      </trkpt>
      <trkpt lat="52.208719030022621" lon="-3.293029982596636">
        <ele>257.29000000000002</ele>
        <time>2026-07-11T10:56:33Z</time>
      </trkpt>
      <trkpt lat="52.208654992282391" lon="-3.293177001178265">
        <ele>256.32999999999998</ele>
        <time>2026-07-11T10:56:34Z</time>
      </trkpt>
      <trkpt lat="52.208624985069036" lon="-3.293369030579925">
        <ele>254.88999999999999</ele>
        <time>2026-07-11T10:56:35Z</time>
      </trkpt>
      <trkpt lat="52.208563964813948" lon="-3.293759040534496">
        <ele>252.47999999999999</ele>
        <time>2026-07-11T10:56:37Z</time>
      </trkpt>
      <trkpt lat="52.2085249889642" lon="-3.293922990560532">
        <ele>251.52000000000001</ele>
        <time>2026-07-11T10:56:38Z</time>
      </trkpt>
      <trkpt lat="52.208482995629311" lon="-3.294071014970541">
        <ele>250.08000000000001</ele>
        <time>2026-07-11T10:56:39Z</time>
      </trkpt>
      <trkpt lat="52.208419041708112" lon="-3.29417796805501">
        <ele>248.63999999999999</ele>
        <time>2026-07-11T10:56:40Z</time>
      </trkpt>
      <trkpt lat="52.208350980654359" lon="-3.294248962774873">
        <ele>247.19999999999999</ele>
        <time>2026-07-11T10:56:41Z</time>
      </trkpt>
      <trkpt lat="52.208279985934496" lon="-3.294266983866692">
        <ele>246.22999999999999</ele>
        <time>2026-07-11T10:56:42Z</time>
      </trkpt>
      <trkpt lat="52.208183007314801" lon="-3.29428500495851">
        <ele>245.27000000000001</ele>
        <time>2026-07-11T10:56:43Z</time>
      </trkpt>
      <trkpt lat="52.208088040351868" lon="-3.294228008016944">
        <ele>244.31</ele>
        <time>2026-07-11T10:56:44Z</time>
      </trkpt>
      <trkpt lat="52.207976980134845" lon="-3.294161036610603">
        <ele>242.38999999999999</ele>
        <time>2026-07-11T10:56:45Z</time>
      </trkpt>
      <trkpt lat="52.20785996876657" lon="-3.294090963900089">
        <ele>240.47</ele>
        <time>2026-07-11T10:56:46Z</time>
      </trkpt>
      <trkpt lat="52.207760978490114" lon="-3.294032039120793">
        <ele>239.02000000000001</ele>
        <time>2026-07-11T10:56:47Z</time>
      </trkpt>
      <trkpt lat="52.207639021798968" lon="-3.294032039120793">
        <ele>237.09999999999999</ele>
        <time>2026-07-11T10:56:48Z</time>
      </trkpt>
      <trkpt lat="52.207525027915835" lon="-3.2940489705652">
        <ele>235.66</ele>
        <time>2026-07-11T10:56:49Z</time>
      </trkpt>
      <trkpt lat="52.206537974998355" lon="-3.294210992753506">
        <ele>228.44999999999999</ele>
        <time>2026-07-11T10:56:56Z</time>
      </trkpt>
      <trkpt lat="52.206423981115222" lon="-3.294256003573537">
        <ele>227.49000000000001</ele>
        <time>2026-07-11T10:56:57Z</time>
      </trkpt>
      <trkpt lat="52.206316022202373" lon="-3.294372009113431">
        <ele>227.00999999999999</ele>
        <time>2026-07-11T10:56:58Z</time>
      </trkpt>
      <trkpt lat="52.206198005005717" lon="-3.29450000077486">
        <ele>227.00999999999999</ele>
        <time>2026-07-11T10:56:59Z</time>
      </trkpt>
      <trkpt lat="52.20596699975431" lon="-3.294749027118087">
        <ele>226.53</ele>
        <time>2026-07-11T10:57:01Z</time>
      </trkpt>
      <trkpt lat="52.205849988386035" lon="-3.29484399408102">
        <ele>226.53</ele>
        <time>2026-07-11T10:57:02Z</time>
      </trkpt>
      <trkpt lat="52.205748986452818" lon="-3.294904008507729">
        <ele>226.53</ele>
        <time>2026-07-11T10:57:03Z</time>
      </trkpt>
      <trkpt lat="52.205656031146646" lon="-3.294925969094038">
        <ele>226.53</ele>
        <time>2026-07-11T10:57:04Z</time>
      </trkpt>
      <trkpt lat="52.20555704087019" lon="-3.294911971315742">
        <ele>226.53</ele>
        <time>2026-07-11T10:57:05Z</time>
      </trkpt>
      <trkpt lat="52.205436006188393" lon="-3.294894034042954">
        <ele>226.53</ele>
        <time>2026-07-11T10:57:06Z</time>
      </trkpt>
      <trkpt lat="52.204901995137334" lon="-3.294815998524427">
        <ele>225.09</ele>
        <time>2026-07-11T10:57:10Z</time>
      </trkpt>
      <trkpt lat="52.204776015132666" lon="-3.29478096216917">
        <ele>225.09</ele>
        <time>2026-07-11T10:57:11Z</time>
      </trkpt>
      <trkpt lat="52.204461023211479" lon="-3.294623969122767">
        <ele>223.63999999999999</ele>
        <time>2026-07-11T10:57:14Z</time>
      </trkpt>
      <trkpt lat="52.204354992136359" lon="-3.294593961909413">
        <ele>223.63999999999999</ele>
        <time>2026-07-11T10:57:15Z</time>
      </trkpt>
      <trkpt lat="52.204006975516677" lon="-3.294639978557825">
        <ele>225.09</ele>
        <time>2026-07-11T10:57:18Z</time>
      </trkpt>
      <trkpt lat="52.203892981633544" lon="-3.294660011306405">
        <ele>225.56999999999999</ele>
        <time>2026-07-11T10:57:19Z</time>
      </trkpt>
      <trkpt lat="52.203788040205836" lon="-3.294768976047635">
        <ele>226.53</ele>
        <time>2026-07-11T10:57:20Z</time>
      </trkpt>
      <trkpt lat="52.203398030251265" lon="-3.295176001265645">
        <ele>229.41</ele>
        <time>2026-07-11T10:57:24Z</time>
      </trkpt>
      <trkpt lat="52.203283030539751" lon="-3.295219000428915">
        <ele>230.37</ele>
        <time>2026-07-11T10:57:25Z</time>
      </trkpt>
      <trkpt lat="52.202032031491399" lon="-3.295609010383487">
        <ele>229.88999999999999</ele>
        <time>2026-07-11T10:57:34Z</time>
      </trkpt>
      <trkpt lat="52.201232984662056" lon="-3.296007988974452">
        <ele>227.97</ele>
        <time>2026-07-11T10:57:42Z</time>
      </trkpt>
      <trkpt lat="52.201144974678755" lon="-3.296051993966103">
        <ele>228.44999999999999</ele>
        <time>2026-07-11T10:57:44Z</time>
      </trkpt>
      <trkpt lat="52.201117984950542" lon="-3.296065991744399">
        <ele>228.44999999999999</ele>
        <time>2026-07-11T10:57:45Z</time>
      </trkpt>
      <trkpt lat="52.201031986624002" lon="-3.295983010903001">
        <ele>228.44999999999999</ele>
        <time>2026-07-11T10:57:46Z</time>
      </trkpt>
      <trkpt lat="52.201035004109144" lon="-3.29593800008297">
        <ele>228.44999999999999</ele>
        <time>2026-07-11T10:57:47Z</time>
      </trkpt>
      <trkpt lat="52.201038021594286" lon="-3.295878991484642">
        <ele>227.97</ele>
        <time>2026-07-11T10:57:48Z</time>
      </trkpt>
      <trkpt lat="52.201044978573918" lon="-3.295770026743412">
        <ele>227.97</ele>
        <time>2026-07-11T10:57:49Z</time>
      </trkpt>
      <trkpt lat="52.201057970523834" lon="-3.295716969296336">
        <ele>227.49000000000001</ele>
        <time>2026-07-11T10:57:50Z</time>
      </trkpt>
      <trkpt lat="52.201078003272414" lon="-3.295639017596841">
        <ele>227.00999999999999</ele>
        <time>2026-07-11T10:57:51Z</time>
      </trkpt>
      <trkpt lat="52.201100969687104" lon="-3.295545978471637">
        <ele>226.05000000000001</ele>
        <time>2026-07-11T10:57:52Z</time>
      </trkpt>
      <trkpt lat="52.201124019920826" lon="-3.295369036495686">
        <ele>224.61000000000001</ele>
        <time>2026-07-11T10:57:54Z</time>
      </trkpt>
      <trkpt lat="52.201112033799291" lon="-3.295270968228579">
        <ele>224.12</ele>
        <time>2026-07-11T10:57:55Z</time>
      </trkpt>
      <trkpt lat="52.201087977737188" lon="-3.295082962140441">
        <ele>223.16</ele>
        <time>2026-07-11T10:57:57Z</time>
      </trkpt>
      <trkpt lat="52.201033998280764" lon="-3.295000987127423">
        <ele>222.19999999999999</ele>
        <time>2026-07-11T10:57:58Z</time>
      </trkpt>
      <trkpt lat="52.200987981632352" lon="-3.294934015721083">
        <ele>221.24000000000001</ele>
        <time>2026-07-11T10:57:59Z</time>
      </trkpt>
      <trkpt lat="52.200958980247378" lon="-3.294890010729432">
        <ele>220.28</ele>
        <time>2026-07-11T10:58:00Z</time>
      </trkpt>
      <trkpt lat="52.200925033539534" lon="-3.294891016557813">
        <ele>219.80000000000001</ele>
        <time>2026-07-11T10:58:01Z</time>
      </trkpt>
      <trkpt lat="52.200878011062741" lon="-3.294893028214574">
        <ele>218.84</ele>
        <time>2026-07-11T10:58:02Z</time>
      </trkpt>
      <trkpt lat="52.200824031606317" lon="-3.294895961880684">
        <ele>218.36000000000001</ele>
        <time>2026-07-11T10:58:03Z</time>
      </trkpt>
      <trkpt lat="52.200758988037705" lon="-3.294898979365826">
        <ele>217.88</ele>
        <time>2026-07-11T10:58:04Z</time>
      </trkpt>
      <trkpt lat="52.200685981661081" lon="-3.294901996850967">
        <ele>217.40000000000001</ele>
        <time>2026-07-11T10:58:05Z</time>
      </trkpt>
      <trkpt lat="52.200611969456077" lon="-3.29490602016449">
        <ele>216.43000000000001</ele>
        <time>2026-07-11T10:58:06Z</time>
      </trkpt>
      <trkpt lat="52.200536029413342" lon="-3.294909037649632">
        <ele>216.43000000000001</ele>
        <time>2026-07-11T10:58:07Z</time>
      </trkpt>
      <trkpt lat="52.200453970581293" lon="-3.294905014336109">
        <ele>216.43000000000001</ele>
        <time>2026-07-11T10:58:08Z</time>
      </trkpt>
      <trkpt lat="52.200370989739895" lon="-3.294891016557813">
        <ele>216.91</ele>
        <time>2026-07-11T10:58:09Z</time>
      </trkpt>
      <trkpt lat="52.200287003070116" lon="-3.294875007122755">
        <ele>217.88</ele>
        <time>2026-07-11T10:58:10Z</time>
      </trkpt>
      <trkpt lat="52.200201004743576" lon="-3.294860003516078">
        <ele>218.36000000000001</ele>
        <time>2026-07-11T10:58:11Z</time>
      </trkpt>
      <trkpt lat="52.200120035558939" lon="-3.294844999909401">
        <ele>219.31999999999999</ele>
        <time>2026-07-11T10:58:12Z</time>
      </trkpt>
      <trkpt lat="52.2000150103122" lon="-3.294825972989202">
        <ele>219.80000000000001</ele>
        <time>2026-07-11T10:58:13Z</time>
      </trkpt>
      <trkpt lat="52.199968993663788" lon="-3.294767970219255">
        <ele>220.75999999999999</ele>
        <time>2026-07-11T10:58:14Z</time>
      </trkpt>
      <trkpt lat="52.19990998506546" lon="-3.294653976336122">
        <ele>221.24000000000001</ele>
        <time>2026-07-11T10:58:15Z</time>
      </trkpt>
      <trkpt lat="52.199877966195345" lon="-3.294549034908414">
        <ele>221.72</ele>
        <time>2026-07-11T10:58:16Z</time>
      </trkpt>
      <trkpt lat="52.199847958981991" lon="-3.294447027146816">
        <ele>222.68000000000001</ele>
        <time>2026-07-11T10:58:17Z</time>
      </trkpt>
      <trkpt lat="52.19980102032423" lon="-3.294289028272033">
        <ele>223.16</ele>
        <time>2026-07-11T10:58:18Z</time>
      </trkpt>
      <trkpt lat="52.19980102032423" lon="-3.294289028272033">
        <ele>224.12</ele>
        <time>2026-07-11T10:58:19Z</time>
      </trkpt>
      <trkpt lat="52.19971502199769" lon="-3.294203029945493">
        <ele>224.61000000000001</ele>
        <time>2026-07-11T10:58:20Z</time>
      </trkpt>
      <trkpt lat="52.199663976207376" lon="-3.294192971661687">
        <ele>224.61000000000001</ele>
        <time>2026-07-11T10:58:21Z</time>
      </trkpt>
      <trkpt lat="52.199560040608048" lon="-3.294172016903758">
        <ele>224.61000000000001</ele>
        <time>2026-07-11T10:58:22Z</time>
      </trkpt>
      <trkpt lat="52.199444035068154" lon="-3.294147960841656">
        <ele>224.61000000000001</ele>
        <time>2026-07-11T10:58:23Z</time>
      </trkpt>
      <trkpt lat="52.199042961001396" lon="-3.294064980000258">
        <ele>224.12</ele>
        <time>2026-07-11T10:58:26Z</time>
      </trkpt>
      <trkpt lat="52.198119023814797" lon="-3.293789969757199">
        <ele>226.05000000000001</ele>
        <time>2026-07-11T10:58:33Z</time>
      </trkpt>
      <trkpt lat="52.1980170160532" lon="-3.293733978644013">
        <ele>226.53</ele>
        <time>2026-07-11T10:58:34Z</time>
      </trkpt>
      <trkpt lat="52.197922971099615" lon="-3.293668013066053">
        <ele>226.53</ele>
        <time>2026-07-11T10:58:35Z</time>
      </trkpt>
      <trkpt lat="52.197854993864894" lon="-3.293541027233005">
        <ele>227.49000000000001</ele>
        <time>2026-07-11T10:58:36Z</time>
      </trkpt>
      <trkpt lat="52.197779975831509" lon="-3.293399959802628">
        <ele>227.97</ele>
        <time>2026-07-11T10:58:37Z</time>
      </trkpt>
      <trkpt lat="52.197699006646872" lon="-3.293246990069747">
        <ele>228.44999999999999</ele>
        <time>2026-07-11T10:58:38Z</time>
      </trkpt>
      <trkpt lat="52.197454003617167" lon="-3.292785985395312">
        <ele>230.84999999999999</ele>
        <time>2026-07-11T10:58:41Z</time>
      </trkpt>
      <trkpt lat="52.197393989190459" lon="-3.292667968198657">
        <ele>231.33000000000001</ele>
        <time>2026-07-11T10:58:42Z</time>
      </trkpt>
      <trkpt lat="52.197354007512331" lon="-3.292549028992653">
        <ele>231.33000000000001</ele>
        <time>2026-07-11T10:58:43Z</time>
      </trkpt>
      <trkpt lat="52.197354007512331" lon="-3.292419025674462">
        <ele>231.81</ele>
        <time>2026-07-11T10:58:44Z</time>
      </trkpt>
      <trkpt lat="52.197354007512331" lon="-3.292293967679143">
        <ele>233.25999999999999</ele>
        <time>2026-07-11T10:58:45Z</time>
      </trkpt>
      <trkpt lat="52.197354007512331" lon="-3.292121971026063">
        <ele>235.18000000000001</ele>
        <time>2026-07-11T10:58:46Z</time>
      </trkpt>
      <trkpt lat="52.197315031662583" lon="-3.291975036263466">
        <ele>237.09999999999999</ele>
        <time>2026-07-11T10:58:47Z</time>
      </trkpt>
      <trkpt lat="52.197270020842552" lon="-3.291803039610386">
        <ele>239.02000000000001</ele>
        <time>2026-07-11T10:58:48Z</time>
      </trkpt>
      <trkpt lat="52.197220986708999" lon="-3.291618973016739">
        <ele>240.94999999999999</ele>
        <time>2026-07-11T10:58:49Z</time>
      </trkpt>
      <trkpt lat="52.197170024737716" lon="-3.291427027434111">
        <ele>242.38999999999999</ele>
        <time>2026-07-11T10:58:50Z</time>
      </trkpt>
      <trkpt lat="52.19711797311902" lon="-3.291230974718928">
        <ele>243.83000000000001</ele>
        <time>2026-07-11T10:58:51Z</time>
      </trkpt>
      <trkpt lat="52.19707497395575" lon="-3.291069958359003">
        <ele>245.27000000000001</ele>
        <time>2026-07-11T10:58:52Z</time>
      </trkpt>
      <trkpt lat="52.196939019486308" lon="-3.290626974776387">
        <ele>247.68000000000001</ele>
        <time>2026-07-11T10:58:55Z</time>
      </trkpt>
      <trkpt lat="52.196899959817529" lon="-3.290486996993423">
        <ele>247.68000000000001</ele>
        <time>2026-07-11T10:58:56Z</time>
      </trkpt>
      <trkpt lat="52.196823013946414" lon="-3.290434023365378">
        <ele>247.68000000000001</ele>
        <time>2026-07-11T10:58:57Z</time>
      </trkpt>
      <trkpt lat="52.196739027276635" lon="-3.290402004495263">
        <ele>247.68000000000001</ele>
        <time>2026-07-11T10:58:58Z</time>
      </trkpt>
      <trkpt lat="52.196638025343418" lon="-3.290364034473896">
        <ele>247.19999999999999</ele>
        <time>2026-07-11T10:58:59Z</time>
      </trkpt>
      <trkpt lat="52.196525959298015" lon="-3.290322041139007">
        <ele>247.19999999999999</ele>
        <time>2026-07-11T10:59:00Z</time>
      </trkpt>
      <trkpt lat="52.196048023179173" lon="-3.290140992030501">
        <ele>248.16</ele>
        <time>2026-07-11T10:59:05Z</time>
      </trkpt>
      <trkpt lat="52.196007035672665" lon="-3.290125988423824">
        <ele>249.12</ele>
        <time>2026-07-11T10:59:06Z</time>
      </trkpt>
      <trkpt lat="52.195974010974169" lon="-3.290112996473908">
        <ele>250.08000000000001</ele>
        <time>2026-07-11T10:59:07Z</time>
      </trkpt>
      <trkpt lat="52.195908967405558" lon="-3.290031021460891">
        <ele>250.56</ele>
        <time>2026-07-11T10:59:08Z</time>
      </trkpt>
      <trkpt lat="52.195937968790531" lon="-3.289917027577758">
        <ele>251.03999999999999</ele>
        <time>2026-07-11T10:59:12Z</time>
      </trkpt>
      <trkpt lat="52.195961019024253" lon="-3.289829017594457">
        <ele>251.03999999999999</ele>
        <time>2026-07-11T10:59:13Z</time>
      </trkpt>
      <trkpt lat="52.195990020409226" lon="-3.289716029539704">
        <ele>251.03999999999999</ele>
        <time>2026-07-11T10:59:14Z</time>
      </trkpt>
      <trkpt lat="52.196023967117071" lon="-3.289584014564753">
        <ele>251.03999999999999</ele>
        <time>2026-07-11T10:59:15Z</time>
      </trkpt>
      <trkpt lat="52.196064032614231" lon="-3.28943096101284">
        <ele>251.03999999999999</ele>
        <time>2026-07-11T10:59:16Z</time>
      </trkpt>
      <trkpt lat="52.196232005953789" lon="-3.288779016584158">
        <ele>251.52000000000001</ele>
        <time>2026-07-11T10:59:20Z</time>
      </trkpt>
      <trkpt lat="52.196220019832253" lon="-3.28865697607398">
        <ele>251.03999999999999</ele>
        <time>2026-07-11T10:59:21Z</time>
      </trkpt>
      <trkpt lat="52.196189006790519" lon="-3.288489002734423">
        <ele>251.52000000000001</ele>
        <time>2026-07-11T10:59:22Z</time>
      </trkpt>
      <trkpt lat="52.195835961028934" lon="-3.286775993183255">
        <ele>251.03999999999999</ele>
        <time>2026-07-11T10:59:30Z</time>
      </trkpt>
      <trkpt lat="52.195211006328464" lon="-3.284385977312923">
        <ele>237.09999999999999</ele>
        <time>2026-07-11T10:59:40Z</time>
      </trkpt>
      <trkpt lat="52.194670038297772" lon="-3.28231799416244">
        <ele>227.97</ele>
        <time>2026-07-11T10:59:49Z</time>
      </trkpt>
      <trkpt lat="52.194569958373904" lon="-3.282003002241254">
        <ele>227.49000000000001</ele>
        <time>2026-07-11T10:59:51Z</time>
      </trkpt>
      <trkpt lat="52.194514973089099" lon="-3.281894037500024">
        <ele>227.49000000000001</ele>
        <time>2026-07-11T10:59:52Z</time>
      </trkpt>
      <trkpt lat="52.194500975310802" lon="-3.28186503611505">
        <ele>227.49000000000001</ele>
        <time>2026-07-11T10:59:53Z</time>
      </trkpt>
      <trkpt lat="52.194453030824661" lon="-3.281831005588174">
        <ele>227.97</ele>
        <time>2026-07-11T10:59:54Z</time>
      </trkpt>
      <trkpt lat="52.194432998076081" lon="-3.281816001981497">
        <ele>227.97</ele>
        <time>2026-07-11T10:59:55Z</time>
      </trkpt>
      <trkpt lat="52.194432998076081" lon="-3.281816001981497">
        <ele>228.44999999999999</ele>
        <time>2026-07-11T11:00:04Z</time>
      </trkpt>
      <trkpt lat="52.194397039711475" lon="-3.281790018081665">
        <ele>228.44999999999999</ele>
        <time>2026-07-11T11:00:05Z</time>
      </trkpt>
      <trkpt lat="52.194363009184599" lon="-3.281765040010214">
        <ele>228.44999999999999</ele>
        <time>2026-07-11T11:00:06Z</time>
      </trkpt>
      <trkpt lat="52.194311963394284" lon="-3.281727991998196">
        <ele>228.93000000000001</ele>
        <time>2026-07-11T11:00:07Z</time>
      </trkpt>
      <trkpt lat="52.194265024736524" lon="-3.28169303946197">
        <ele>229.41</ele>
        <time>2026-07-11T11:00:08Z</time>
      </trkpt>
      <trkpt lat="52.194164022803307" lon="-3.2816500402987">
        <ele>229.41</ele>
        <time>2026-07-11T11:00:09Z</time>
      </trkpt>
      <trkpt lat="52.193881971761584" lon="-3.281527999788523">
        <ele>229.88999999999999</ele>
        <time>2026-07-11T11:00:12Z</time>
      </trkpt>
      <trkpt lat="52.19369899481535" lon="-3.281448958441615">
        <ele>229.88999999999999</ele>
        <time>2026-07-11T11:00:14Z</time>
      </trkpt>
      <trkpt lat="52.193629005923867" lon="-3.281418029218912">
        <ele>229.88999999999999</ele>
        <time>2026-07-11T11:00:15Z</time>
      </trkpt>
      <trkpt lat="52.193606039509177" lon="-3.281281990930438">
        <ele>229.88999999999999</ele>
        <time>2026-07-11T11:00:16Z</time>
      </trkpt>
      <trkpt lat="52.19359296374023" lon="-3.281172020360827">
        <ele>229.88999999999999</ele>
        <time>2026-07-11T11:00:17Z</time>
      </trkpt>
      <trkpt lat="52.193578965961933" lon="-3.281047968193889">
        <ele>229.88999999999999</ele>
        <time>2026-07-11T11:00:18Z</time>
      </trkpt>
      <trkpt lat="52.193555999547243" lon="-3.280857028439641">
        <ele>229.41</ele>
        <time>2026-07-11T11:00:20Z</time>
      </trkpt>
      <trkpt lat="52.193523980677128" lon="-3.280816040933132">
        <ele>229.88999999999999</ele>
        <time>2026-07-11T11:00:21Z</time>
      </trkpt>
      <trkpt lat="52.19350503757596" lon="-3.28079198487103">
        <ele>230.37</ele>
        <time>2026-07-11T11:00:22Z</time>
      </trkpt>
      <trkpt lat="52.193496990948915" lon="-3.280783016234636">
        <ele>230.84999999999999</ele>
        <time>2026-07-11T11:00:27Z</time>
      </trkpt>
      <trkpt lat="52.193486010655761" lon="-3.28076901845634">
        <ele>230.84999999999999</ele>
        <time>2026-07-11T11:00:28Z</time>
      </trkpt>
      <trkpt lat="52.1934649720788" lon="-3.28077002428472">
        <ele>230.84999999999999</ele>
        <time>2026-07-11T11:00:30Z</time>
      </trkpt>
      <trkpt lat="52.193434964865446" lon="-3.280875971540809">
        <ele>230.84999999999999</ele>
        <time>2026-07-11T11:00:31Z</time>
      </trkpt>
      <trkpt lat="52.19339800067246" lon="-3.281003963202238">
        <ele>230.84999999999999</ele>
        <time>2026-07-11T11:00:32Z</time>
      </trkpt>
      <trkpt lat="52.193314014002681" lon="-3.281298000365496">
        <ele>230.37</ele>
        <time>2026-07-11T11:00:34Z</time>
      </trkpt>
      <trkpt lat="52.19281998462975" lon="-3.282455038279295">
        <ele>227.97</ele>
        <time>2026-07-11T11:00:40Z</time>
      </trkpt>
      <trkpt lat="52.192681012675166" lon="-3.282647989690304">
        <ele>227.49000000000001</ele>
        <time>2026-07-11T11:00:41Z</time>
      </trkpt>
      <trkpt lat="52.19253801740706" lon="-3.282830966636539">
        <ele>227.00999999999999</ele>
        <time>2026-07-11T11:00:42Z</time>
      </trkpt>
      <trkpt lat="52.192392004653811" lon="-3.283018972724676">
        <ele>227.49000000000001</ele>
        <time>2026-07-11T11:00:43Z</time>
      </trkpt>
      <trkpt lat="52.192223025485873" lon="-3.283173032104969">
        <ele>227.00999999999999</ele>
        <time>2026-07-11T11:00:44Z</time>
      </trkpt>
      <trkpt lat="52.190581010654569" lon="-3.284488990902901">
        <ele>222.68000000000001</ele>
        <time>2026-07-11T11:00:53Z</time>
      </trkpt>
      <trkpt lat="52.189666964113712" lon="-3.285220982506871">
        <ele>221.72</ele>
        <time>2026-07-11T11:00:58Z</time>
      </trkpt>
      <trkpt lat="52.18955397605896" lon="-3.285418041050434">
        <ele>221.72</ele>
        <time>2026-07-11T11:00:59Z</time>
      </trkpt>
      <trkpt lat="52.189453979954123" lon="-3.285614009946585">
        <ele>221.72</ele>
        <time>2026-07-11T11:01:00Z</time>
      </trkpt>
      <trkpt lat="52.189392959699035" lon="-3.285853983834386">
        <ele>222.19999999999999</ele>
        <time>2026-07-11T11:01:01Z</time>
      </trkpt>
      <trkpt lat="52.189329005777836" lon="-3.286108039319515">
        <ele>222.68000000000001</ele>
        <time>2026-07-11T11:01:02Z</time>
      </trkpt>
      <trkpt lat="52.189196990802884" lon="-3.286624029278755">
        <ele>223.63999999999999</ele>
        <time>2026-07-11T11:01:04Z</time>
      </trkpt>
      <trkpt lat="52.189119961112738" lon="-3.286853022873402">
        <ele>224.12</ele>
        <time>2026-07-11T11:01:05Z</time>
      </trkpt>
      <trkpt lat="52.189017031341791" lon="-3.287059972062707">
        <ele>224.61000000000001</ele>
        <time>2026-07-11T11:01:06Z</time>
      </trkpt>
      <trkpt lat="52.188894990831614" lon="-3.287241021171212">
        <ele>224.61000000000001</ele>
        <time>2026-07-11T11:01:07Z</time>
      </trkpt>
      <trkpt lat="52.18875702470541" lon="-3.287420980632305">
        <ele>224.61000000000001</ele>
        <time>2026-07-11T11:01:08Z</time>
      </trkpt>
      <trkpt lat="52.188615035265684" lon="-3.287605969235301">
        <ele>224.61000000000001</ele>
        <time>2026-07-11T11:01:09Z</time>
      </trkpt>
      <trkpt lat="52.187420027330518" lon="-3.288711961358786">
        <ele>222.68000000000001</ele>
        <time>2026-07-11T11:01:16Z</time>
      </trkpt>
      <trkpt lat="52.186237005516887" lon="-3.289961032569408">
        <ele>224.12</ele>
        <time>2026-07-11T11:01:23Z</time>
      </trkpt>
      <trkpt lat="52.185238972306252" lon="-3.291255030781031">
        <ele>223.16</ele>
        <time>2026-07-11T11:01:29Z</time>
      </trkpt>
      <trkpt lat="52.185045015066862" lon="-3.291435996070504">
        <ele>222.19999999999999</ele>
        <time>2026-07-11T11:01:30Z</time>
      </trkpt>
      <trkpt lat="52.1838169824332" lon="-3.292292039841414">
        <ele>215.47</ele>
        <time>2026-07-11T11:01:36Z</time>
      </trkpt>
      <trkpt lat="52.182746026664972" lon="-3.29370497725904">
        <ele>208.74000000000001</ele>
        <time>2026-07-11T11:01:42Z</time>
      </trkpt>
      <trkpt lat="52.181411040946841" lon="-3.296292973682284">
        <ele>204.41999999999999</ele>
        <time>2026-07-11T11:01:51Z</time>
      </trkpt>
      <trkpt lat="52.181034022942185" lon="-3.297919984906912">
        <ele>208.74000000000001</ele>
        <time>2026-07-11T11:01:57Z</time>
      </trkpt>
      <trkpt lat="52.18082900159061" lon="-3.299684040248394">
        <ele>210.19</ele>
        <time>2026-07-11T11:02:05Z</time>
      </trkpt>
      <trkpt lat="52.180692963302135" lon="-3.300691964104772">
        <ele>208.25999999999999</ele>
        <time>2026-07-11T11:02:10Z</time>
      </trkpt>
      <trkpt lat="52.18050797469914" lon="-3.301237039268017">
        <ele>207.78</ele>
        <time>2026-07-11T11:02:13Z</time>
      </trkpt>
      <trkpt lat="52.180439997464418" lon="-3.301421022042632">
        <ele>207.30000000000001</ele>
        <time>2026-07-11T11:02:14Z</time>
      </trkpt>
      <trkpt lat="52.180349975824356" lon="-3.301591007038951">
        <ele>206.81999999999999</ele>
        <time>2026-07-11T11:02:15Z</time>
      </trkpt>
      <trkpt lat="52.180238999426365" lon="-3.30173903144896">
        <ele>206.34</ele>
        <time>2026-07-11T11:02:16Z</time>
      </trkpt>
      <trkpt lat="52.180125005543232" lon="-3.30189099535346">
        <ele>205.86000000000001</ele>
        <time>2026-07-11T11:02:17Z</time>
      </trkpt>
      <trkpt lat="52.179998019710183" lon="-3.302025021985173">
        <ele>205.38</ele>
        <time>2026-07-11T11:02:18Z</time>
      </trkpt>
      <trkpt lat="52.179340962320566" lon="-3.302612006664276">
        <ele>203.46000000000001</ele>
        <time>2026-07-11T11:02:23Z</time>
      </trkpt>
      <trkpt lat="52.179190004244447" lon="-3.302703034132719">
        <ele>202.97999999999999</ele>
        <time>2026-07-11T11:02:24Z</time>
      </trkpt>
      <trkpt lat="52.179027982056141" lon="-3.302791966125369">
        <ele>202.49000000000001</ele>
        <time>2026-07-11T11:02:25Z</time>
      </trkpt>
      <trkpt lat="52.178345024585724" lon="-3.302971003577113">
        <ele>204.90000000000001</ele>
        <time>2026-07-11T11:02:29Z</time>
      </trkpt>
      <trkpt lat="52.178180990740657" lon="-3.303014002740383">
        <ele>205.86000000000001</ele>
        <time>2026-07-11T11:02:30Z</time>
      </trkpt>
      <trkpt lat="52.178002959117293" lon="-3.302975026890636">
        <ele>207.78</ele>
        <time>2026-07-11T11:02:31Z</time>
      </trkpt>
      <trkpt lat="52.177690984681249" lon="-3.302896991372109">
        <ele>211.15000000000001</ele>
        <time>2026-07-11T11:02:33Z</time>
      </trkpt>
      <trkpt lat="52.177550001069903" lon="-3.30292297527194">
        <ele>213.06999999999999</ele>
        <time>2026-07-11T11:02:34Z</time>
      </trkpt>
      <trkpt lat="52.177398959174752" lon="-3.302958011627197">
        <ele>214.50999999999999</ele>
        <time>2026-07-11T11:02:35Z</time>
      </trkpt>
      <trkpt lat="52.17728697694838" lon="-3.303077034652233">
        <ele>215.94999999999999</ele>
        <time>2026-07-11T11:02:36Z</time>
      </trkpt>
      <trkpt lat="52.177164014428854" lon="-3.303209971636534">
        <ele>217.40000000000001</ele>
        <time>2026-07-11T11:02:37Z</time>
      </trkpt>
      <trkpt lat="52.177064018324018" lon="-3.303380962461233">
        <ele>219.31999999999999</ele>
        <time>2026-07-11T11:02:38Z</time>
      </trkpt>
      <trkpt lat="52.176986988633871" lon="-3.30360702238977">
        <ele>221.24000000000001</ele>
        <time>2026-07-11T11:02:39Z</time>
      </trkpt>
      <trkpt lat="52.176906019449234" lon="-3.303843978792429">
        <ele>223.16</ele>
        <time>2026-07-11T11:02:40Z</time>
      </trkpt>
      <trkpt lat="52.176823038607836" lon="-3.304087975993753">
        <ele>224.61000000000001</ele>
        <time>2026-07-11T11:02:41Z</time>
      </trkpt>
      <trkpt lat="52.176560014486313" lon="-3.304859027266502">
        <ele>227.49000000000001</ele>
        <time>2026-07-11T11:02:44Z</time>
      </trkpt>
      <trkpt lat="52.176454989239573" lon="-3.305167984217405">
        <ele>228.44999999999999</ele>
        <time>2026-07-11T11:02:45Z</time>
      </trkpt>
      <trkpt lat="52.176348036155105" lon="-3.305366970598698">
        <ele>228.93000000000001</ele>
        <time>2026-07-11T11:02:46Z</time>
      </trkpt>
      <trkpt lat="52.175525017082691" lon="-3.306976966559887">
        <ele>236.13999999999999</ele>
        <time>2026-07-11T11:02:53Z</time>
      </trkpt>
      <trkpt lat="52.175439018756151" lon="-3.307191962376237">
        <ele>236.62</ele>
        <time>2026-07-11T11:02:54Z</time>
      </trkpt>
      <trkpt lat="52.175376992672682" lon="-3.307439982891083">
        <ele>237.58000000000001</ele>
        <time>2026-07-11T11:02:55Z</time>
      </trkpt>
      <trkpt lat="52.175365006551147" lon="-3.30769001506269">
        <ele>238.06</ele>
        <time>2026-07-11T11:02:56Z</time>
      </trkpt>
      <trkpt lat="52.175353020429611" lon="-3.30794901587069">
        <ele>238.53999999999999</ele>
        <time>2026-07-11T11:02:57Z</time>
      </trkpt>
      <trkpt lat="52.175340028479695" lon="-3.308220002800226">
        <ele>239.02000000000001</ele>
        <time>2026-07-11T11:02:58Z</time>
      </trkpt>
      <trkpt lat="52.175042973831296" lon="-3.310344982892275">
        <ele>234.22</ele>
        <time>2026-07-11T11:03:05Z</time>
      </trkpt>
      <trkpt lat="52.174670984968543" lon="-3.312265025451779">
        <ele>233.25999999999999</ele>
        <time>2026-07-11T11:03:11Z</time>
      </trkpt>
      <trkpt lat="52.174666039645672" lon="-3.312592003494501">
        <ele>233.25999999999999</ele>
        <time>2026-07-11T11:03:12Z</time>
      </trkpt>
      <trkpt lat="52.174666961655021" lon="-3.313505966216326">
        <ele>233.74000000000001</ele>
        <time>2026-07-11T11:03:15Z</time>
      </trkpt>
      <trkpt lat="52.174720019102097" lon="-3.313786005601287">
        <ele>233.25999999999999</ele>
        <time>2026-07-11T11:03:16Z</time>
      </trkpt>
      <trkpt lat="52.174775004386902" lon="-3.3140719961375">
        <ele>233.25999999999999</ele>
        <time>2026-07-11T11:03:17Z</time>
      </trkpt>
      <trkpt lat="52.174882963299751" lon="-3.314638026058674">
        <ele>232.78</ele>
        <time>2026-07-11T11:03:19Z</time>
      </trkpt>
      <trkpt lat="52.174934009090066" lon="-3.314927034080029">
        <ele>232.78</ele>
        <time>2026-07-11T11:03:20Z</time>
      </trkpt>
      <trkpt lat="52.174952030181885" lon="-3.315228028222919">
        <ele>232.78</ele>
        <time>2026-07-11T11:03:21Z</time>
      </trkpt>
      <trkpt lat="52.175128972157836" lon="-3.318565031513572">
        <ele>227.49000000000001</ele>
        <time>2026-07-11T11:03:31Z</time>
      </trkpt>
      <trkpt lat="52.175213964655995" lon="-3.319661971181631">
        <ele>224.12</ele>
        <time>2026-07-11T11:03:34Z</time>
      </trkpt>
      <trkpt lat="52.175267022103071" lon="-3.319984003901482">
        <ele>223.63999999999999</ele>
        <time>2026-07-11T11:03:35Z</time>
      </trkpt>
      <trkpt lat="52.175364000722766" lon="-3.320571994408965">
        <ele>223.16</ele>
        <time>2026-07-11T11:03:37Z</time>
      </trkpt>
      <trkpt lat="52.175385039299726" lon="-3.320872988551855">
        <ele>222.68000000000001</ele>
        <time>2026-07-11T11:03:38Z</time>
      </trkpt>
      <trkpt lat="52.175471959635615" lon="-3.323600040748715">
        <ele>215.47</ele>
        <time>2026-07-11T11:03:46Z</time>
      </trkpt>
      <trkpt lat="52.175670024007559" lon="-3.325130995362997">
        <ele>215.94999999999999</ele>
        <time>2026-07-11T11:03:51Z</time>
      </trkpt>
      <trkpt lat="52.175682010129094" lon="-3.325409023091197">
        <ele>215.94999999999999</ele>
        <time>2026-07-11T11:03:52Z</time>
      </trkpt>
      <trkpt lat="52.175640016794205" lon="-3.32569501362741">
        <ele>216.43000000000001</ele>
        <time>2026-07-11T11:03:53Z</time>
      </trkpt>
      <trkpt lat="52.175432983785868" lon="-3.327363012358546">
        <ele>214.99000000000001</ele>
        <time>2026-07-11T11:03:58Z</time>
      </trkpt>
      <trkpt lat="52.175364000722766" lon="-3.32887502387166">
        <ele>217.40000000000001</ele>
        <time>2026-07-11T11:04:03Z</time>
      </trkpt>
      <trkpt lat="52.175321001559496" lon="-3.329150034114718">
        <ele>217.88</ele>
        <time>2026-07-11T11:04:04Z</time>
      </trkpt>
      <trkpt lat="52.175262998789549" lon="-3.329420015215874">
        <ele>218.36000000000001</ele>
        <time>2026-07-11T11:04:05Z</time>
      </trkpt>
      <trkpt lat="52.174913976341486" lon="-3.33044596016407">
        <ele>217.88</ele>
        <time>2026-07-11T11:04:09Z</time>
      </trkpt>
      <trkpt lat="52.174777016043663" lon="-3.330675037577748">
        <ele>218.36000000000001</ele>
        <time>2026-07-11T11:04:10Z</time>
      </trkpt>
      <trkpt lat="52.174637038260698" lon="-3.330909982323647">
        <ele>218.36000000000001</ele>
        <time>2026-07-11T11:04:11Z</time>
      </trkpt>
      <trkpt lat="52.173584019765258" lon="-3.332778979092836">
        <ele>223.63999999999999</ele>
        <time>2026-07-11T11:04:19Z</time>
      </trkpt>
      <trkpt lat="52.173391990363598" lon="-3.333325982093811">
        <ele>226.05000000000001</ele>
        <time>2026-07-11T11:04:21Z</time>
      </trkpt>
      <trkpt lat="52.173279002308846" lon="-3.333664024248719">
        <ele>227.00999999999999</ele>
        <time>2026-07-11T11:04:22Z</time>
      </trkpt>
      <trkpt lat="52.173231979832053" lon="-3.333937022835016">
        <ele>228.44999999999999</ele>
        <time>2026-07-11T11:04:23Z</time>
      </trkpt>
      <trkpt lat="52.172768963500857" lon="-3.336429968476296">
        <ele>226.05000000000001</ele>
        <time>2026-07-11T11:04:31Z</time>
      </trkpt>
      <trkpt lat="52.172678019851446" lon="-3.336674971506">
        <ele>225.56999999999999</ele>
        <time>2026-07-11T11:04:32Z</time>
      </trkpt>
      <trkpt lat="52.172582969069481" lon="-3.336919974535704">
        <ele>225.09</ele>
        <time>2026-07-11T11:04:33Z</time>
      </trkpt>
      <trkpt lat="52.171574039384723" lon="-3.338849991559982">
        <ele>229.41</ele>
        <time>2026-07-11T11:04:41Z</time>
      </trkpt>
      <trkpt lat="52.170784967020154" lon="-3.341063987463713">
        <ele>226.53</ele>
        <time>2026-07-11T11:04:48Z</time>
      </trkpt>
      <trkpt lat="52.169753992930055" lon="-3.344392022117972">
        <ele>227.00999999999999</ele>
        <time>2026-07-11T11:04:58Z</time>
      </trkpt>
      <trkpt lat="52.168985037133098" lon="-3.34677298553288">
        <ele>217.40000000000001</ele>
        <time>2026-07-11T11:05:05Z</time>
      </trkpt>
      <trkpt lat="52.168913036584854" lon="-3.347133994102478">
        <ele>215.94999999999999</ele>
        <time>2026-07-11T11:05:06Z</time>
      </trkpt>
      <trkpt lat="52.168014999479055" lon="-3.35212298668921">
        <ele>199.61000000000001</ele>
        <time>2026-07-11T11:05:20Z</time>
      </trkpt>
      <trkpt lat="52.167291976511478" lon="-3.356056027114391">
        <ele>197.69</ele>
        <time>2026-07-11T11:05:31Z</time>
      </trkpt>
      <trkpt lat="52.166617987677455" lon="-3.358437996357679">
        <ele>195.77000000000001</ele>
        <time>2026-07-11T11:05:38Z</time>
      </trkpt>
      <trkpt lat="52.16566395945847" lon="-3.360013961791992">
        <ele>191.91999999999999</ele>
        <time>2026-07-11T11:05:44Z</time>
      </trkpt>
      <trkpt lat="52.164233000949025" lon="-3.36127501912415">
        <ele>185.66999999999999</ele>
        <time>2026-07-11T11:05:51Z</time>
      </trkpt>
      <trkpt lat="52.16314603574574" lon="-3.362642023712397">
        <ele>179.90000000000001</ele>
        <time>2026-07-11T11:05:57Z</time>
      </trkpt>
      <trkpt lat="52.162618981674314" lon="-3.363868966698647">
        <ele>177.02000000000001</ele>
        <time>2026-07-11T11:06:01Z</time>
      </trkpt>
      <trkpt lat="52.1625039819628" lon="-3.364192005246878">
        <ele>176.06</ele>
        <time>2026-07-11T11:06:02Z</time>
      </trkpt>
      <trkpt lat="52.162426030263305" lon="-3.364543961361051">
        <ele>174.62</ele>
        <time>2026-07-11T11:06:03Z</time>
      </trkpt>
      <trkpt lat="52.162349000573158" lon="-3.364888960495591">
        <ele>173.66</ele>
        <time>2026-07-11T11:06:04Z</time>
      </trkpt>
      <trkpt lat="52.162313964217901" lon="-3.365249969065189">
        <ele>172.69</ele>
        <time>2026-07-11T11:06:05Z</time>
      </trkpt>
      <trkpt lat="52.162318993359804" lon="-3.365628998726606">
        <ele>171.25</ele>
        <time>2026-07-11T11:06:06Z</time>
      </trkpt>
      <trkpt lat="52.162324022501707" lon="-3.365991013124585">
        <ele>170.28999999999999</ele>
        <time>2026-07-11T11:06:07Z</time>
      </trkpt>
      <trkpt lat="52.162329973652959" lon="-3.366357972845435">
        <ele>169.33000000000001</ele>
        <time>2026-07-11T11:06:08Z</time>
      </trkpt>
      <trkpt lat="52.162312036380172" lon="-3.367084013298154">
        <ele>167.41</ele>
        <time>2026-07-11T11:06:10Z</time>
      </trkpt>
      <trkpt lat="52.162284040823579" lon="-3.367448961362243">
        <ele>165.96000000000001</ele>
        <time>2026-07-11T11:06:11Z</time>
      </trkpt>
      <trkpt lat="52.162256967276335" lon="-3.367810975760222">
        <ele>165</ele>
        <time>2026-07-11T11:06:12Z</time>
      </trkpt>
      <trkpt lat="52.162078013643622" lon="-3.368832981213927">
        <ele>163.56</ele>
        <time>2026-07-11T11:06:15Z</time>
      </trkpt>
      <trkpt lat="52.161970976740122" lon="-3.369101034477353">
        <ele>163.08000000000001</ele>
        <time>2026-07-11T11:06:16Z</time>
      </trkpt>
      <trkpt lat="52.16185899451375" lon="-3.369312006980181">
        <ele>162.12</ele>
        <time>2026-07-11T11:06:17Z</time>
      </trkpt>
      <trkpt lat="52.161504020914435" lon="-3.369930004701018">
        <ele>160.68000000000001</ele>
        <time>2026-07-11T11:06:20Z</time>
      </trkpt>
      <trkpt lat="52.161380974575877" lon="-3.37008398026228">
        <ele>160.19999999999999</ele>
        <time>2026-07-11T11:06:21Z</time>
      </trkpt>
      <trkpt lat="52.161231022328138" lon="-3.370224041864276">
        <ele>160.19999999999999</ele>
        <time>2026-07-11T11:06:22Z</time>
      </trkpt>
      <trkpt lat="52.16106103733182" lon="-3.370361002162099">
        <ele>160.19999999999999</ele>
        <time>2026-07-11T11:06:23Z</time>
      </trkpt>
      <trkpt lat="52.160875964909792" lon="-3.370453035458922">
        <ele>160.68000000000001</ele>
        <time>2026-07-11T11:06:24Z</time>
      </trkpt>
      <trkpt lat="52.160696005448699" lon="-3.370542973279953">
        <ele>161.63999999999999</ele>
        <time>2026-07-11T11:06:25Z</time>
      </trkpt>
      <trkpt lat="52.160538006573915" lon="-3.370622014626861">
        <ele>161.63999999999999</ele>
        <time>2026-07-11T11:06:26Z</time>
      </trkpt>
      <trkpt lat="52.160409009084105" lon="-3.37068697437644">
        <ele>161.63999999999999</ele>
        <time>2026-07-11T11:06:27Z</time>
      </trkpt>
      <trkpt lat="52.16031102463603" lon="-3.370808009058237">
        <ele>162.12</ele>
        <time>2026-07-11T11:06:28Z</time>
      </trkpt>
      <trkpt lat="52.160199964419007" lon="-3.370973970741034">
        <ele>162.12</ele>
        <time>2026-07-11T11:06:29Z</time>
      </trkpt>
      <trkpt lat="52.160103991627693" lon="-3.371117971837521">
        <ele>162.12</ele>
        <time>2026-07-11T11:06:30Z</time>
      </trkpt>
      <trkpt lat="52.159992009401321" lon="-3.371249986812472">
        <ele>162.12</ele>
        <time>2026-07-11T11:06:31Z</time>
      </trkpt>
      <trkpt lat="52.159841973334551" lon="-3.371360041201115">
        <ele>161.63999999999999</ele>
        <time>2026-07-11T11:06:32Z</time>
      </trkpt>
      <trkpt lat="52.159679029136896" lon="-3.371479986235499">
        <ele>161.63999999999999</ele>
        <time>2026-07-11T11:06:33Z</time>
      </trkpt>
      <trkpt lat="52.159181982278824" lon="-3.371898997575045">
        <ele>161.16</ele>
        <time>2026-07-11T11:06:36Z</time>
      </trkpt>
      <trkpt lat="52.159039992839098" lon="-3.372062025591731">
        <ele>161.16</ele>
        <time>2026-07-11T11:06:37Z</time>
      </trkpt>
      <trkpt lat="52.158801024779677" lon="-3.37233804166317">
        <ele>160.19999999999999</ele>
        <time>2026-07-11T11:06:39Z</time>
      </trkpt>
      <trkpt lat="52.158686025068164" lon="-3.372423034161329">
        <ele>159.72</ele>
        <time>2026-07-11T11:06:40Z</time>
      </trkpt>
      <trkpt lat="52.158542023971677" lon="-3.372440971434116">
        <ele>159.24000000000001</ele>
        <time>2026-07-11T11:06:41Z</time>
      </trkpt>
      <trkpt lat="52.158389976248145" lon="-3.372395038604736">
        <ele>158.75</ele>
        <time>2026-07-11T11:06:42Z</time>
      </trkpt>
      <trkpt lat="52.158220997080207" lon="-3.372343992814422">
        <ele>158.27000000000001</ele>
        <time>2026-07-11T11:06:43Z</time>
      </trkpt>
      <trkpt lat="52.158039025962353" lon="-3.372271992266178">
        <ele>157.78999999999999</ele>
        <time>2026-07-11T11:06:44Z</time>
      </trkpt>
      <trkpt lat="52.157856971025467" lon="-3.372173001989722">
        <ele>157.31</ele>
        <time>2026-07-11T11:06:45Z</time>
      </trkpt>
      <trkpt lat="52.157678017392755" lon="-3.372077029198408">
        <ele>156.83000000000001</ele>
        <time>2026-07-11T11:06:46Z</time>
      </trkpt>
      <trkpt lat="52.157342992722988" lon="-3.371895980089903">
        <ele>156.34999999999999</ele>
        <time>2026-07-11T11:06:48Z</time>
      </trkpt>
      <trkpt lat="52.157181976363063" lon="-3.371850969269872">
        <ele>155.87</ele>
        <time>2026-07-11T11:06:49Z</time>
      </trkpt>
      <trkpt lat="52.157020960003138" lon="-3.371836971491575">
        <ele>155.87</ele>
        <time>2026-07-11T11:06:50Z</time>
      </trkpt>
      <trkpt lat="52.156863966956735" lon="-3.371836971491575">
        <ele>155.87</ele>
        <time>2026-07-11T11:06:51Z</time>
      </trkpt>
      <trkpt lat="52.156726000830531" lon="-3.371878964826465">
        <ele>155.87</ele>
        <time>2026-07-11T11:06:52Z</time>
      </trkpt>
      <trkpt lat="52.156611001119018" lon="-3.371949037536979">
        <ele>155.87</ele>
        <time>2026-07-11T11:06:53Z</time>
      </trkpt>
      <trkpt lat="52.156521985307336" lon="-3.372087003663182">
        <ele>155.87</ele>
        <time>2026-07-11T11:06:54Z</time>
      </trkpt>
      <trkpt lat="52.156433975324035" lon="-3.372229998931289">
        <ele>156.34999999999999</ele>
        <time>2026-07-11T11:06:55Z</time>
      </trkpt>
      <trkpt lat="52.1564029622823" lon="-3.372423034161329">
        <ele>156.34999999999999</ele>
        <time>2026-07-11T11:06:56Z</time>
      </trkpt>
      <trkpt lat="52.156370021402836" lon="-3.372630989179015">
        <ele>156.34999999999999</ele>
        <time>2026-07-11T11:06:57Z</time>
      </trkpt>
      <trkpt lat="52.156376978382468" lon="-3.37274900637567">
        <ele>156.34999999999999</ele>
        <time>2026-07-11T11:06:58Z</time>
      </trkpt>
      <trkpt lat="52.156384019181132" lon="-3.372866017743945">
        <ele>156.34999999999999</ele>
        <time>2026-07-11T11:06:59Z</time>
      </trkpt>
      <trkpt lat="52.156390976160765" lon="-3.372979005798698">
        <ele>156.83000000000001</ele>
        <time>2026-07-11T11:07:00Z</time>
      </trkpt>
      <trkpt lat="52.156391981989145" lon="-3.372996021062136">
        <ele>156.34999999999999</ele>
        <time>2026-07-11T11:07:01Z</time>
      </trkpt>
      <trkpt lat="52.156431963667274" lon="-3.373165000230074">
        <ele>156.34999999999999</ele>
        <time>2026-07-11T11:07:02Z</time>
      </trkpt>
      <trkpt lat="52.156456019729376" lon="-3.37326499633491">
        <ele>156.83000000000001</ele>
        <time>2026-07-11T11:07:03Z</time>
      </trkpt>
      <trkpt lat="52.156478986144066" lon="-3.373361974954605">
        <ele>156.34999999999999</ele>
        <time>2026-07-11T11:07:04Z</time>
      </trkpt>
      <trkpt lat="52.156500024721026" lon="-3.373454008251429">
        <ele>156.34999999999999</ele>
        <time>2026-07-11T11:07:05Z</time>
      </trkpt>
      <trkpt lat="52.156541012227535" lon="-3.373623993247747">
        <ele>155.87</ele>
        <time>2026-07-11T11:07:07Z</time>
      </trkpt>
      <trkpt lat="52.156568001955748" lon="-3.373739998787642">
        <ele>155.87</ele>
        <time>2026-07-11T11:07:09Z</time>
      </trkpt>
      <trkpt lat="52.156577976420522" lon="-3.37378098629415">
        <ele>155.38999999999999</ele>
        <time>2026-07-11T11:07:10Z</time>
      </trkpt>
      <trkpt lat="52.156584011390805" lon="-3.373808981850743">
        <ele>155.38999999999999</ele>
        <time>2026-07-11T11:07:11Z</time>
      </trkpt>
      <trkpt lat="52.156584011390805" lon="-3.373808981850743">
        <ele>154.91</ele>
        <time>2026-07-11T11:07:15Z</time>
      </trkpt>
      <trkpt lat="52.156577976420522" lon="-3.373782997950912">
        <ele>154.43000000000001</ele>
        <time>2026-07-11T11:07:17Z</time>
      </trkpt>
      <trkpt lat="52.156571019440889" lon="-3.373750979080796">
        <ele>153.94999999999999</ele>
        <time>2026-07-11T11:07:18Z</time>
      </trkpt>
      <trkpt lat="52.156558027490973" lon="-3.373695993795991">
        <ele>153.47</ele>
        <time>2026-07-11T11:07:19Z</time>
      </trkpt>
      <trkpt lat="52.156539000570774" lon="-3.373616030439735">
        <ele>153.47</ele>
        <time>2026-07-11T11:07:20Z</time>
      </trkpt>
      <trkpt lat="52.156426012516022" lon="-3.373139016330242">
        <ele>152.99000000000001</ele>
        <time>2026-07-11T11:07:24Z</time>
      </trkpt>
      <trkpt lat="52.156402040272951" lon="-3.373038014397025">
        <ele>152.99000000000001</ele>
        <time>2026-07-11T11:07:25Z</time>
      </trkpt>
      <trkpt lat="52.156350994482636" lon="-3.372959978878498">
        <ele>152.99000000000001</ele>
        <time>2026-07-11T11:07:26Z</time>
      </trkpt>
      <trkpt lat="52.156281005591154" lon="-3.37289996445179">
        <ele>152.99000000000001</ele>
        <time>2026-07-11T11:07:27Z</time>
      </trkpt>
      <trkpt lat="52.156191989779472" lon="-3.372823018580675">
        <ele>152.03</ele>
        <time>2026-07-11T11:07:28Z</time>
      </trkpt>
      <trkpt lat="52.156070033088326" lon="-3.372716987505555">
        <ele>150.58000000000001</ele>
        <time>2026-07-11T11:07:29Z</time>
      </trkpt>
      <trkpt lat="52.155130002647638" lon="-3.372126985341311">
        <ele>137.61000000000001</ele>
        <time>2026-07-11T11:07:35Z</time>
      </trkpt>
      <trkpt lat="52.154206987470388" lon="-3.371369009837508">
        <ele>130.40000000000001</ele>
        <time>2026-07-11T11:07:42Z</time>
      </trkpt>
      <trkpt lat="52.153667025268078" lon="-3.37085603736341">
        <ele>129.91999999999999</ele>
        <time>2026-07-11T11:07:46Z</time>
      </trkpt>
      <trkpt lat="52.153228987008333" lon="-3.370554959401488">
        <ele>133.28</ele>
        <time>2026-07-11T11:07:49Z</time>
      </trkpt>
      <trkpt lat="52.15244603343308" lon="-3.369822967797518">
        <ele>136.16</ele>
        <time>2026-07-11T11:07:56Z</time>
      </trkpt>
      <trkpt lat="52.152346959337592" lon="-3.369689024984837">
        <ele>136.16</ele>
        <time>2026-07-11T11:07:57Z</time>
      </trkpt>
      <trkpt lat="52.152258027344942" lon="-3.369542006403208">
        <ele>136.63999999999999</ele>
        <time>2026-07-11T11:07:58Z</time>
      </trkpt>
      <trkpt lat="52.151375999674201" lon="-3.36793796159327">
        <ele>142.41</ele>
        <time>2026-07-11T11:08:07Z</time>
      </trkpt>
      <trkpt lat="52.150199012830853" lon="-3.366062007844448">
        <ele>137.61000000000001</ele>
        <time>2026-07-11T11:08:16Z</time>
      </trkpt>
      <trkpt lat="52.148920018225908" lon="-3.364146994426847">
        <ele>125.59</ele>
        <time>2026-07-11T11:08:24Z</time>
      </trkpt>
      <trkpt lat="52.147422004491091" lon="-3.362836986780167">
        <ele>124.15000000000001</ele>
        <time>2026-07-11T11:08:32Z</time>
      </trkpt>
      <trkpt lat="52.146027004346251" lon="-3.362159980461001">
        <ele>126.55</ele>
        <time>2026-07-11T11:08:39Z</time>
      </trkpt>
      <trkpt lat="52.144336039200425" lon="-3.361732000485063">
        <ele>129.43000000000001</ele>
        <time>2026-07-11T11:08:47Z</time>
      </trkpt>
      <trkpt lat="52.144158007577062" lon="-3.361710039898753">
        <ele>130.88</ele>
        <time>2026-07-11T11:08:48Z</time>
      </trkpt>
      <trkpt lat="52.143999002873898" lon="-3.361749015748501">
        <ele>131.84</ele>
        <time>2026-07-11T11:08:49Z</time>
      </trkpt>
      <trkpt lat="52.143850978463888" lon="-3.361786985769868">
        <ele>133.28</ele>
        <time>2026-07-11T11:08:50Z</time>
      </trkpt>
      <trkpt lat="52.14370203204453" lon="-3.361835014075041">
        <ele>134.24000000000001</ele>
        <time>2026-07-11T11:08:51Z</time>
      </trkpt>
      <trkpt lat="52.143550990149379" lon="-3.361926963552833">
        <ele>135.68000000000001</ele>
        <time>2026-07-11T11:08:52Z</time>
      </trkpt>
      <trkpt lat="52.143387040123343" lon="-3.362026959657669">
        <ele>136.63999999999999</ele>
        <time>2026-07-11T11:08:53Z</time>
      </trkpt>
      <trkpt lat="52.142337039113045" lon="-3.362846039235592">
        <ele>144.81999999999999</ele>
        <time>2026-07-11T11:08:59Z</time>
      </trkpt>
      <trkpt lat="52.142174011096358" lon="-3.362878980115056">
        <ele>146.25999999999999</ele>
        <time>2026-07-11T11:09:00Z</time>
      </trkpt>
      <trkpt lat="52.142009977251291" lon="-3.362912004813552">
        <ele>147.22</ele>
        <time>2026-07-11T11:09:01Z</time>
      </trkpt>
      <trkpt lat="52.141837980598211" lon="-3.362919967621565">
        <ele>148.66</ele>
        <time>2026-07-11T11:09:02Z</time>
      </trkpt>
      <trkpt lat="52.14166296645999" lon="-3.362888032570481">
        <ele>149.13999999999999</ele>
        <time>2026-07-11T11:09:03Z</time>
      </trkpt>
      <trkpt lat="52.140105022117496" lon="-3.362608999013901">
        <ele>146.74000000000001</ele>
        <time>2026-07-11T11:09:11Z</time>
      </trkpt>
      <trkpt lat="52.139907041564584" lon="-3.362656021490693">
        <ele>146.25999999999999</ele>
        <time>2026-07-11T11:09:12Z</time>
      </trkpt>
      <trkpt lat="52.13818397372961" lon="-3.363030022010207">
        <ele>138.09</ele>
        <time>2026-07-11T11:09:21Z</time>
      </trkpt>
      <trkpt lat="52.136786039918661" lon="-3.362710000947118">
        <ele>134.72</ele>
        <time>2026-07-11T11:09:29Z</time>
      </trkpt>
      <trkpt lat="52.135160034522414" lon="-3.362170038744807">
        <ele>130.88</ele>
        <time>2026-07-11T11:09:37Z</time>
      </trkpt>
      <trkpt lat="52.133958991616964" lon="-3.361949007958174">
        <ele>130.40000000000001</ele>
        <time>2026-07-11T11:09:44Z</time>
      </trkpt>
      <trkpt lat="52.131955968216062" lon="-3.361281976103783">
        <ele>127.98999999999999</ele>
        <time>2026-07-11T11:09:57Z</time>
      </trkpt>
      <trkpt lat="52.13053397834301" lon="-3.360891966149211">
        <ele>126.06999999999999</ele>
        <time>2026-07-11T11:10:05Z</time>
      </trkpt>
      <trkpt lat="52.128115966916084" lon="-3.36047999560833">
        <ele>125.11</ele>
        <time>2026-07-11T11:10:17Z</time>
      </trkpt>
      <trkpt lat="52.126489961519837" lon="-3.360166009515524">
        <ele>124.63</ele>
        <time>2026-07-11T11:10:26Z</time>
      </trkpt>
      <trkpt lat="52.12569803930819" lon="-3.359849005937576">
        <ele>124.15000000000001</ele>
        <time>2026-07-11T11:10:32Z</time>
      </trkpt>
      <trkpt lat="52.125099990516901" lon="-3.359550023451448">
        <ele>124.63</ele>
        <time>2026-07-11T11:10:37Z</time>
      </trkpt>
      <trkpt lat="52.124992031604052" lon="-3.359495960175991">
        <ele>124.63</ele>
        <time>2026-07-11T11:10:38Z</time>
      </trkpt>
      <trkpt lat="52.124576959758997" lon="-3.359358999878168">
        <ele>125.59</ele>
        <time>2026-07-11T11:10:42Z</time>
      </trkpt>
      <trkpt lat="52.124271020293236" lon="-3.359280964359641">
        <ele>124.63</ele>
        <time>2026-07-11T11:10:45Z</time>
      </trkpt>
      <trkpt lat="52.124168006703258" lon="-3.359253974631429">
        <ele>124.63</ele>
        <time>2026-07-11T11:10:46Z</time>
      </trkpt>
      <trkpt lat="52.124064993113279" lon="-3.359192032366991">
        <ele>124.15000000000001</ele>
        <time>2026-07-11T11:10:47Z</time>
      </trkpt>
      <trkpt lat="52.123198974877596" lon="-3.358391979709268">
        <ele>120.3</ele>
        <time>2026-07-11T11:10:55Z</time>
      </trkpt>
      <trkpt lat="52.122759008780122" lon="-3.357901973649859">
        <ele>118.86</ele>
        <time>2026-07-11T11:10:59Z</time>
      </trkpt>
      <trkpt lat="52.121988963335752" lon="-3.35671802982688">
        <ele>116.45999999999999</ele>
        <time>2026-07-11T11:11:06Z</time>
      </trkpt>
      <trkpt lat="52.120631011202931" lon="-3.35474300198257">
        <ele>117.90000000000001</ele>
        <time>2026-07-11T11:11:17Z</time>
      </trkpt>
      <trkpt lat="52.120011001825333" lon="-3.353675985708833">
        <ele>118.86</ele>
        <time>2026-07-11T11:11:23Z</time>
      </trkpt>
      <trkpt lat="52.118991008028388" lon="-3.352471003308892">
        <ele>120.78</ele>
        <time>2026-07-11T11:11:33Z</time>
      </trkpt>
      <trkpt lat="52.118375021964312" lon="-3.351814029738307">
        <ele>122.22</ele>
        <time>2026-07-11T11:11:39Z</time>
      </trkpt>
      <trkpt lat="52.118274020031095" lon="-3.351732976734638">
        <ele>122.70999999999999</ele>
        <time>2026-07-11T11:11:40Z</time>
      </trkpt>
      <trkpt lat="52.118175029754639" lon="-3.351654019206762">
        <ele>122.70999999999999</ele>
        <time>2026-07-11T11:11:41Z</time>
      </trkpt>
      <trkpt lat="52.118073021993041" lon="-3.35158403031528">
        <ele>122.70999999999999</ele>
        <time>2026-07-11T11:11:42Z</time>
      </trkpt>
      <trkpt lat="52.117962967604399" lon="-3.351532984524965">
        <ele>122.70999999999999</ele>
        <time>2026-07-11T11:11:43Z</time>
      </trkpt>
      <trkpt lat="52.117849979549646" lon="-3.351480010896921">
        <ele>122.70999999999999</ele>
        <time>2026-07-11T11:11:44Z</time>
      </trkpt>
      <trkpt lat="52.117487965151668" lon="-3.351309020072222">
        <ele>122.70999999999999</ele>
        <time>2026-07-11T11:11:47Z</time>
      </trkpt>
      <trkpt lat="52.117361985146999" lon="-3.351252023130655">
        <ele>123.19</ele>
        <time>2026-07-11T11:11:48Z</time>
      </trkpt>
      <trkpt lat="52.117099966853857" lon="-3.351163007318974">
        <ele>122.70999999999999</ele>
        <time>2026-07-11T11:11:50Z</time>
      </trkpt>
      <trkpt lat="52.116075027734041" lon="-3.350810967385769">
        <ele>125.11</ele>
        <time>2026-07-11T11:11:58Z</time>
      </trkpt>
      <trkpt lat="52.115963967517018" lon="-3.350772997364402">
        <ele>125.11</ele>
        <time>2026-07-11T11:11:59Z</time>
      </trkpt>
      <trkpt lat="52.115861037746072" lon="-3.350717006251216">
        <ele>125.11</ele>
        <time>2026-07-11T11:12:00Z</time>
      </trkpt>
      <trkpt lat="52.115332977846265" lon="-3.350423974916339">
        <ele>123.67</ele>
        <time>2026-07-11T11:12:05Z</time>
      </trkpt>
      <trkpt lat="52.11452797986567" lon="-3.350076964125037">
        <ele>119.81999999999999</ele>
        <time>2026-07-11T11:12:12Z</time>
      </trkpt>
      <trkpt lat="52.114094970747828" lon="-3.349864985793829">
        <ele>117.90000000000001</ele>
        <time>2026-07-11T11:12:16Z</time>
      </trkpt>
      <trkpt lat="52.113617034628987" lon="-3.349517975002527">
        <ele>113.09</ele>
        <time>2026-07-11T11:12:22Z</time>
      </trkpt>
      <trkpt lat="52.113543022423983" lon="-3.349462989717722">
        <ele>113.09</ele>
        <time>2026-07-11T11:12:23Z</time>
      </trkpt>
      <trkpt lat="52.11347596719861" lon="-3.3494140394032">
        <ele>112.61</ele>
        <time>2026-07-11T11:12:24Z</time>
      </trkpt>
      <trkpt lat="52.113406984135509" lon="-3.3494140394032">
        <ele>112.13</ele>
        <time>2026-07-11T11:12:25Z</time>
      </trkpt>
      <trkpt lat="52.113311011344194" lon="-3.3494140394032">
        <ele>111.17</ele>
        <time>2026-07-11T11:12:26Z</time>
      </trkpt>
      <trkpt lat="52.113245967775583" lon="-3.349429965019226">
        <ele>110.20999999999999</ele>
        <time>2026-07-11T11:12:27Z</time>
      </trkpt>
      <trkpt lat="52.113167010247707" lon="-3.349508000537753">
        <ele>109.73</ele>
        <time>2026-07-11T11:12:28Z</time>
      </trkpt>
      <trkpt lat="52.113070031628013" lon="-3.349605984985828">
        <ele>109.25</ele>
        <time>2026-07-11T11:12:29Z</time>
      </trkpt>
      <trkpt lat="52.112965006381273" lon="-3.349710004404187">
        <ele>108.77</ele>
        <time>2026-07-11T11:12:30Z</time>
      </trkpt>
      <trkpt lat="52.112785968929529" lon="-3.34988996386528">
        <ele>108.77</ele>
        <time>2026-07-11T11:12:32Z</time>
      </trkpt>
      <trkpt lat="52.112682033330202" lon="-3.349992977455258">
        <ele>109.25</ele>
        <time>2026-07-11T11:12:33Z</time>
      </trkpt>
      <trkpt lat="52.112626964226365" lon="-3.350005969405174">
        <ele>109.25</ele>
        <time>2026-07-11T11:12:34Z</time>
      </trkpt>
      <trkpt lat="52.112565021961927" lon="-3.350019967183471">
        <ele>109.73</ele>
        <time>2026-07-11T11:12:35Z</time>
      </trkpt>
      <trkpt lat="52.112500984221697" lon="-3.350034970790148">
        <ele>110.20999999999999</ele>
        <time>2026-07-11T11:12:36Z</time>
      </trkpt>
      <trkpt lat="52.112430995330215" lon="-3.350050980225205">
        <ele>110.20999999999999</ele>
        <time>2026-07-11T11:12:37Z</time>
      </trkpt>
      <trkpt lat="52.112351031973958" lon="-3.350069001317024">
        <ele>110.69</ele>
        <time>2026-07-11T11:12:38Z</time>
      </trkpt>
      <trkpt lat="52.112266039475799" lon="-3.350089034065604">
        <ele>110.69</ele>
        <time>2026-07-11T11:12:39Z</time>
      </trkpt>
      <trkpt lat="52.111889021471143" lon="-3.350175032392144">
        <ele>113.09</ele>
        <time>2026-07-11T11:12:43Z</time>
      </trkpt>
      <trkpt lat="52.111825989559293" lon="-3.350190035998821">
        <ele>113.56999999999999</ele>
        <time>2026-07-11T11:12:44Z</time>
      </trkpt>
      <trkpt lat="52.111780978739262" lon="-3.350200010463595">
        <ele>114.05</ele>
        <time>2026-07-11T11:12:45Z</time>
      </trkpt>
      <trkpt lat="52.111745020374656" lon="-3.350207973271608">
        <ele>115.01000000000001</ele>
        <time>2026-07-11T11:12:46Z</time>
      </trkpt>
      <trkpt lat="52.111717024818063" lon="-3.350215014070272">
        <ele>115.98</ele>
        <time>2026-07-11T11:12:47Z</time>
      </trkpt>
      <trkpt lat="52.11169296875596" lon="-3.350220965221524">
        <ele>116.94</ele>
        <time>2026-07-11T11:12:48Z</time>
      </trkpt>
      <trkpt lat="52.11169296875596" lon="-3.350220965221524">
        <ele>118.38</ele>
        <time>2026-07-11T11:12:49Z</time>
      </trkpt>
      <trkpt lat="52.11169296875596" lon="-3.350220965221524">
        <ele>118.86</ele>
        <time>2026-07-11T11:12:50Z</time>
      </trkpt>
      <trkpt lat="52.11169296875596" lon="-3.350220965221524">
        <ele>119.81999999999999</ele>
        <time>2026-07-11T11:13:07Z</time>
      </trkpt>
      <trkpt lat="52.11169296875596" lon="-3.350220965221524">
        <ele>120.3</ele>
        <time>2026-07-11T11:13:19Z</time>
      </trkpt>
      <trkpt lat="52.11169296875596" lon="-3.350220965221524">
        <ele>121.73999999999999</ele>
        <time>2026-07-11T11:13:54Z</time>
      </trkpt>
      <trkpt lat="52.11169296875596" lon="-3.350220965221524">
        <ele>123.19</ele>
        <time>2026-07-11T11:14:48Z</time>
      </trkpt>
      <trkpt lat="52.11169296875596" lon="-3.350220965221524">
        <ele>123.67</ele>
        <time>2026-07-11T11:15:41Z</time>
      </trkpt>
      <trkpt lat="52.11169296875596" lon="-3.350220965221524">
        <ele>125.11</ele>
        <time>2026-07-11T11:16:35Z</time>
      </trkpt>
      <trkpt lat="52.111610993742943" lon="-3.350289026275277">
        <ele>123.19</ele>
        <time>2026-07-11T11:21:26Z</time>
      </trkpt>
      <trkpt lat="52.111618034541607" lon="-3.350195987150073">
        <ele>133.75999999999999</ele>
        <time>2026-07-11T11:22:06Z</time>
      </trkpt>
      <trkpt lat="52.111630020663142" lon="-3.350201016291976">
        <ele>127.98999999999999</ele>
        <time>2026-07-11T11:22:59Z</time>
      </trkpt>
      <trkpt lat="52.111360961571336" lon="-3.350292965769768">
        <ele>130.40000000000001</ele>
        <time>2026-07-11T11:23:14Z</time>
      </trkpt>
      <trkpt lat="52.110877996310592" lon="-3.350260024890304">
        <ele>132.80000000000001</ele>
        <time>2026-07-11T11:23:19Z</time>
      </trkpt>
      <trkpt lat="52.110751010477543" lon="-3.350250972434878">
        <ele>133.28</ele>
        <time>2026-07-11T11:23:20Z</time>
      </trkpt>
      <trkpt lat="52.110652020201087" lon="-3.350289026275277">
        <ele>133.75999999999999</ele>
        <time>2026-07-11T11:23:21Z</time>
      </trkpt>
      <trkpt lat="52.109431028366089" lon="-3.350767968222499">
        <ele>132.80000000000001</ele>
        <time>2026-07-11T11:23:29Z</time>
      </trkpt>
      <trkpt lat="52.107593966647983" lon="-3.351214975118637">
        <ele>132.31999999999999</ele>
        <time>2026-07-11T11:23:38Z</time>
      </trkpt>
      <trkpt lat="52.105673002079129" lon="-3.351510018110275">
        <ele>132.80000000000001</ele>
        <time>2026-07-11T11:23:47Z</time>
      </trkpt>
      <trkpt lat="52.105279974639416" lon="-3.351549999788404">
        <ele>132.80000000000001</ele>
        <time>2026-07-11T11:23:49Z</time>
      </trkpt>
      <trkpt lat="52.105085011571646" lon="-3.351502977311611">
        <ele>132.80000000000001</ele>
        <time>2026-07-11T11:23:50Z</time>
      </trkpt>
      <trkpt lat="52.104891976341605" lon="-3.351456960663199">
        <ele>132.31999999999999</ele>
        <time>2026-07-11T11:23:51Z</time>
      </trkpt>
      <trkpt lat="52.104703970253468" lon="-3.351356964558363">
        <ele>131.84</ele>
        <time>2026-07-11T11:23:52Z</time>
      </trkpt>
      <trkpt lat="52.104509007185698" lon="-3.351246993988752">
        <ele>131.84</ele>
        <time>2026-07-11T11:23:53Z</time>
      </trkpt>
      <trkpt lat="52.104311026632786" lon="-3.351135011762381">
        <ele>131.36000000000001</ele>
        <time>2026-07-11T11:23:54Z</time>
      </trkpt>
      <trkpt lat="52.102649984881282" lon="-3.350426992401481">
        <ele>134.24000000000001</ele>
        <time>2026-07-11T11:24:02Z</time>
      </trkpt>
      <trkpt lat="52.101875999942422" lon="-3.35025298409164">
        <ele>136.16</ele>
        <time>2026-07-11T11:24:06Z</time>
      </trkpt>
      <trkpt lat="52.101681958884001" lon="-3.350236974656582">
        <ele>136.63999999999999</ele>
        <time>2026-07-11T11:24:07Z</time>
      </trkpt>
      <trkpt lat="52.100225016474724" lon="-3.350389022380114">
        <ele>140.00999999999999</ele>
        <time>2026-07-11T11:24:14Z</time>
      </trkpt>
      <trkpt lat="52.098702024668455" lon="-3.350926972925663">
        <ele>140.97</ele>
        <time>2026-07-11T11:24:21Z</time>
      </trkpt>
      <trkpt lat="52.097047017887235" lon="-3.351165018975735">
        <ele>143.37</ele>
        <time>2026-07-11T11:24:29Z</time>
      </trkpt>
      <trkpt lat="52.095330990850925" lon="-3.350911969318986">
        <ele>143.84999999999999</ele>
        <time>2026-07-11T11:24:37Z</time>
      </trkpt>
      <trkpt lat="52.093628961592913" lon="-3.349960036575794">
        <ele>141.93000000000001</ele>
        <time>2026-07-11T11:24:45Z</time>
      </trkpt>
      <trkpt lat="52.09228802472353" lon="-3.348606023937464">
        <ele>137.13</ele>
        <time>2026-07-11T11:24:52Z</time>
      </trkpt>
      <trkpt lat="52.090982962399721" lon="-3.346509039402008">
        <ele>135.19999999999999</ele>
        <time>2026-07-11T11:25:00Z</time>
      </trkpt>
      <trkpt lat="52.090134965255857" lon="-3.344406019896269">
        <ele>135.19999999999999</ele>
        <time>2026-07-11T11:25:07Z</time>
      </trkpt>
      <trkpt lat="52.090033963322639" lon="-3.344089016318321">
        <ele>135.68000000000001</ele>
        <time>2026-07-11T11:25:08Z</time>
      </trkpt>
      <trkpt lat="52.089461982250214" lon="-3.341405969113112">
        <ele>134.24000000000001</ele>
        <time>2026-07-11T11:25:16Z</time>
      </trkpt>
      <trkpt lat="52.088796962052584" lon="-3.338370965793729">
        <ele>133.28</ele>
        <time>2026-07-11T11:25:25Z</time>
      </trkpt>
      <trkpt lat="52.088676011189818" lon="-3.337764032185078">
        <ele>133.28</ele>
        <time>2026-07-11T11:25:27Z</time>
      </trkpt>
      <trkpt lat="52.088580038398504" lon="-3.337509976699948">
        <ele>133.75999999999999</ele>
        <time>2026-07-11T11:25:28Z</time>
      </trkpt>
      <trkpt lat="52.087549986317754" lon="-3.334893984720111">
        <ele>129.91999999999999</ele>
        <time>2026-07-11T11:25:37Z</time>
      </trkpt>
      <trkpt lat="52.086932994425297" lon="-3.333326987922192">
        <ele>128.94999999999999</ele>
        <time>2026-07-11T11:25:43Z</time>
      </trkpt>
      <trkpt lat="52.086851019412279" lon="-3.333120960742235">
        <ele>128.94999999999999</ele>
        <time>2026-07-11T11:25:44Z</time>
      </trkpt>
      <trkpt lat="52.086776001378894" lon="-3.332929015159607">
        <ele>129.43000000000001</ele>
        <time>2026-07-11T11:25:45Z</time>
      </trkpt>
      <trkpt lat="52.086677011102438" lon="-3.332568006590009">
        <ele>130.40000000000001</ele>
        <time>2026-07-11T11:25:47Z</time>
      </trkpt>
      <trkpt lat="52.08663996309042" lon="-3.332375977188349">
        <ele>131.36000000000001</ele>
        <time>2026-07-11T11:25:48Z</time>
      </trkpt>
      <trkpt lat="52.086517000570893" lon="-3.331736018881202">
        <ele>132.31999999999999</ele>
        <time>2026-07-11T11:25:51Z</time>
      </trkpt>
      <trkpt lat="52.086466960608959" lon="-3.331512976437807">
        <ele>132.80000000000001</ele>
        <time>2026-07-11T11:25:52Z</time>
      </trkpt>
      <trkpt lat="52.085925992578268" lon="-3.329841960221529">
        <ele>135.68000000000001</ele>
        <time>2026-07-11T11:26:00Z</time>
      </trkpt>
      <trkpt lat="52.085878970101476" lon="-3.329650014638901">
        <ele>136.16</ele>
        <time>2026-07-11T11:26:01Z</time>
      </trkpt>
      <trkpt lat="52.085539000108838" lon="-3.327956032007933">
        <ele>136.63999999999999</ele>
        <time>2026-07-11T11:26:10Z</time>
      </trkpt>
      <trkpt lat="52.085512010380626" lon="-3.327733995392919">
        <ele>136.63999999999999</ele>
        <time>2026-07-11T11:26:11Z</time>
      </trkpt>
      <trkpt lat="52.085487032309175" lon="-3.327530985698104">
        <ele>136.63999999999999</ele>
        <time>2026-07-11T11:26:12Z</time>
      </trkpt>
      <trkpt lat="52.085387958213687" lon="-3.327065035700798">
        <ele>136.16</ele>
        <time>2026-07-11T11:26:15Z</time>
      </trkpt>
      <trkpt lat="52.085344959050417" lon="-3.326939977705479">
        <ele>135.68000000000001</ele>
        <time>2026-07-11T11:26:16Z</time>
      </trkpt>
      <trkpt lat="52.08530799485743" lon="-3.32683595828712">
        <ele>135.19999999999999</ele>
        <time>2026-07-11T11:26:17Z</time>
      </trkpt>
      <trkpt lat="52.085270024836063" lon="-3.326830007135868">
        <ele>134.24000000000001</ele>
        <time>2026-07-11T11:26:18Z</time>
      </trkpt>
      <trkpt lat="52.085215039551258" lon="-3.326848028227687">
        <ele>133.28</ele>
        <time>2026-07-11T11:26:19Z</time>
      </trkpt>
      <trkpt lat="52.085157036781311" lon="-3.326866971328855">
        <ele>132.31999999999999</ele>
        <time>2026-07-11T11:26:20Z</time>
      </trkpt>
      <trkpt lat="52.085101967677474" lon="-3.326889015734196">
        <ele>131.36000000000001</ele>
        <time>2026-07-11T11:26:21Z</time>
      </trkpt>
      <trkpt lat="52.085034996271133" lon="-3.326945006847382">
        <ele>130.40000000000001</ele>
        <time>2026-07-11T11:26:22Z</time>
      </trkpt>
      <trkpt lat="52.084822012111545" lon="-3.327222028747201">
        <ele>127.51000000000001</ele>
        <time>2026-07-11T11:26:25Z</time>
      </trkpt>
      <trkpt lat="52.084766020998359" lon="-3.327312972396612">
        <ele>127.03</ele>
        <time>2026-07-11T11:26:26Z</time>
      </trkpt>
      <trkpt lat="52.084721010178328" lon="-3.32752101123333">
        <ele>126.55</ele>
        <time>2026-07-11T11:26:27Z</time>
      </trkpt>
      <trkpt lat="52.084681028500199" lon="-3.327703988179565">
        <ele>126.06999999999999</ele>
        <time>2026-07-11T11:26:28Z</time>
      </trkpt>
      <trkpt lat="52.084669964388013" lon="-3.327876990661025">
        <ele>125.59</ele>
        <time>2026-07-11T11:26:29Z</time>
      </trkpt>
      <trkpt lat="52.084697037935257" lon="-3.328053010627627">
        <ele>125.11</ele>
        <time>2026-07-11T11:26:30Z</time>
      </trkpt>
      <trkpt lat="52.084739031270146" lon="-3.328219978138804">
        <ele>124.63</ele>
        <time>2026-07-11T11:26:31Z</time>
      </trkpt>
      <trkpt lat="52.084786975756288" lon="-3.328390968963504">
        <ele>124.15000000000001</ele>
        <time>2026-07-11T11:26:32Z</time>
      </trkpt>
      <trkpt lat="52.084881020709872" lon="-3.328731022775173">
        <ele>123.19</ele>
        <time>2026-07-11T11:26:34Z</time>
      </trkpt>
      <trkpt lat="52.084915973246098" lon="-3.328857002779841">
        <ele>122.22</ele>
        <time>2026-07-11T11:26:35Z</time>
      </trkpt>
      <trkpt lat="52.084915973246098" lon="-3.329051965847611">
        <ele>121.73999999999999</ele>
        <time>2026-07-11T11:26:36Z</time>
      </trkpt>
      <trkpt lat="52.084908010438085" lon="-3.329194039106369">
        <ele>121.26000000000001</ele>
        <time>2026-07-11T11:26:37Z</time>
      </trkpt>
      <trkpt lat="52.08487699739635" lon="-3.329329993575811">
        <ele>120.78</ele>
        <time>2026-07-11T11:26:38Z</time>
      </trkpt>
      <trkpt lat="52.084841961041093" lon="-3.32945303991437">
        <ele>120.78</ele>
        <time>2026-07-11T11:26:39Z</time>
      </trkpt>
      <trkpt lat="52.084786975756288" lon="-3.329540966078639">
        <ele>120.78</ele>
        <time>2026-07-11T11:26:40Z</time>
      </trkpt>
      <trkpt lat="52.084737019613385" lon="-3.329621013253927">
        <ele>120.78</ele>
        <time>2026-07-11T11:26:41Z</time>
      </trkpt>
      <trkpt lat="52.084237039089203" lon="-3.330435985699296">
        <ele>120.3</ele>
        <time>2026-07-11T11:26:52Z</time>
      </trkpt>
      <trkpt lat="52.084196973592043" lon="-3.330501029267907">
        <ele>120.3</ele>
        <time>2026-07-11T11:26:53Z</time>
      </trkpt>
      <trkpt lat="52.084169983863831" lon="-3.330546040087938">
        <ele>120.3</ele>
        <time>2026-07-11T11:26:54Z</time>
      </trkpt>
      <trkpt lat="52.084153974428773" lon="-3.33057202398777">
        <ele>120.3</ele>
        <time>2026-07-11T11:26:55Z</time>
      </trkpt>
      <trkpt lat="52.084073005244136" lon="-3.330610999837518">
        <ele>120.78</ele>
        <time>2026-07-11T11:26:56Z</time>
      </trkpt>
      <trkpt lat="52.084034029394388" lon="-3.330545034259558">
        <ele>121.26000000000001</ele>
        <time>2026-07-11T11:26:57Z</time>
      </trkpt>
      <trkpt lat="52.083979966118932" lon="-3.330453000962734">
        <ele>121.26000000000001</ele>
        <time>2026-07-11T11:26:58Z</time>
      </trkpt>
      <trkpt lat="52.083911988884211" lon="-3.330343030393124">
        <ele>121.73999999999999</ele>
        <time>2026-07-11T11:26:59Z</time>
      </trkpt>
      <trkpt lat="52.083825990557671" lon="-3.330211015418172">
        <ele>121.73999999999999</ele>
        <time>2026-07-11T11:27:00Z</time>
      </trkpt>
      <trkpt lat="52.083730017766356" lon="-3.330063996836543">
        <ele>121.73999999999999</ele>
        <time>2026-07-11T11:27:01Z</time>
      </trkpt>
      <trkpt lat="52.083621975034475" lon="-3.329901974648237">
        <ele>121.73999999999999</ele>
        <time>2026-07-11T11:27:02Z</time>
      </trkpt>
      <trkpt lat="52.08264104090631" lon="-3.328492976725102">
        <ele>123.19</ele>
        <time>2026-07-11T11:27:09Z</time>
      </trkpt>
      <trkpt lat="52.081700004637241" lon="-3.326623979955912">
        <ele>123.67</ele>
        <time>2026-07-11T11:27:16Z</time>
      </trkpt>
      <trkpt lat="52.08047297783196" lon="-3.324582986533642">
        <ele>122.22</ele>
        <time>2026-07-11T11:27:24Z</time>
      </trkpt>
      <trkpt lat="52.079471005126834" lon="-3.3227529656142">
        <ele>121.73999999999999</ele>
        <time>2026-07-11T11:27:31Z</time>
      </trkpt>
      <trkpt lat="52.079188032075763" lon="-3.322017034515739">
        <ele>120.78</ele>
        <time>2026-07-11T11:27:35Z</time>
      </trkpt>
      <trkpt lat="52.079016035422683" lon="-3.321361988782883">
        <ele>119.81999999999999</ele>
        <time>2026-07-11T11:27:40Z</time>
      </trkpt>
      <trkpt lat="52.078989967703819" lon="-3.321242965757847">
        <ele>119.34</ele>
        <time>2026-07-11T11:27:41Z</time>
      </trkpt>
      <trkpt lat="52.078963983803988" lon="-3.321125032380223">
        <ele>118.86</ele>
        <time>2026-07-11T11:27:42Z</time>
      </trkpt>
      <trkpt lat="52.078788969665766" lon="-3.320319028571248">
        <ele>119.34</ele>
        <time>2026-07-11T11:27:49Z</time>
      </trkpt>
      <trkpt lat="52.078617978841066" lon="-3.319918960332871">
        <ele>119.34</ele>
        <time>2026-07-11T11:27:53Z</time>
      </trkpt>
      <trkpt lat="52.078312039375305" lon="-3.319072974845767">
        <ele>117.90000000000001</ele>
        <time>2026-07-11T11:28:00Z</time>
      </trkpt>
      <trkpt lat="52.078285971656442" lon="-3.318944983184338">
        <ele>117.90000000000001</ele>
        <time>2026-07-11T11:28:01Z</time>
      </trkpt>
      <trkpt lat="52.078274991363287" lon="-3.318553967401385">
        <ele>118.38</ele>
        <time>2026-07-11T11:28:04Z</time>
      </trkpt>
      <trkpt lat="52.07828002050519" lon="-3.318422958254814">
        <ele>118.86</ele>
        <time>2026-07-11T11:28:05Z</time>
      </trkpt>
      <trkpt lat="52.078311033546925" lon="-3.316913964226842">
        <ele>122.70999999999999</ele>
        <time>2026-07-11T11:28:14Z</time>
      </trkpt>
      <trkpt lat="52.078265016898513" lon="-3.316516997292638">
        <ele>124.15000000000001</ele>
        <time>2026-07-11T11:28:16Z</time>
      </trkpt>
      <trkpt lat="52.078230986371636" lon="-3.316324967890978">
        <ele>124.63</ele>
        <time>2026-07-11T11:28:17Z</time>
      </trkpt>
      <trkpt lat="52.078183041885495" lon="-3.316141990944743">
        <ele>125.11</ele>
        <time>2026-07-11T11:28:18Z</time>
      </trkpt>
      <trkpt lat="52.078136019408703" lon="-3.31596203148365">
        <ele>125.11</ele>
        <time>2026-07-11T11:28:19Z</time>
      </trkpt>
      <trkpt lat="52.078062007203698" lon="-3.315808977931738">
        <ele>125.59</ele>
        <time>2026-07-11T11:28:20Z</time>
      </trkpt>
      <trkpt lat="52.077985983341932" lon="-3.315649973228574">
        <ele>125.59</ele>
        <time>2026-07-11T11:28:21Z</time>
      </trkpt>
      <trkpt lat="52.077909959480166" lon="-3.31549197435379">
        <ele>126.06999999999999</ele>
        <time>2026-07-11T11:28:22Z</time>
      </trkpt>
      <trkpt lat="52.07782999612391" lon="-3.315342022106051">
        <ele>126.06999999999999</ele>
        <time>2026-07-11T11:28:23Z</time>
      </trkpt>
      <trkpt lat="52.077735029160976" lon="-3.31521101295948">
        <ele>125.59</ele>
        <time>2026-07-11T11:28:24Z</time>
      </trkpt>
      <trkpt lat="52.076934976503253" lon="-3.313866974785924">
        <ele>129.43000000000001</ele>
        <time>2026-07-11T11:28:33Z</time>
      </trkpt>
      <trkpt lat="52.076757028698921" lon="-3.313445029780269">
        <ele>130.40000000000001</ele>
        <time>2026-07-11T11:28:35Z</time>
      </trkpt>
      <trkpt lat="52.076705982908607" lon="-3.313182005658746">
        <ele>131.36000000000001</ele>
        <time>2026-07-11T11:28:36Z</time>
      </trkpt>
      <trkpt lat="52.076160991564393" lon="-3.310435004532337">
        <ele>131.84</ele>
        <time>2026-07-11T11:28:45Z</time>
      </trkpt>
      <trkpt lat="52.075994024053216" lon="-3.309859000146389">
        <ele>130.88</ele>
        <time>2026-07-11T11:28:47Z</time>
      </trkpt>
      <trkpt lat="52.0758739951998" lon="-3.309613997116685">
        <ele>130.40000000000001</ele>
        <time>2026-07-11T11:28:48Z</time>
      </trkpt>
      <trkpt lat="52.075741980224848" lon="-3.309381986036897">
        <ele>129.91999999999999</ele>
        <time>2026-07-11T11:28:49Z</time>
      </trkpt>
      <trkpt lat="52.075578030198812" lon="-3.309208983555436">
        <ele>128.94999999999999</ele>
        <time>2026-07-11T11:28:50Z</time>
      </trkpt>
      <trkpt lat="52.075410978868604" lon="-3.309032963588834">
        <ele>128.47</ele>
        <time>2026-07-11T11:28:51Z</time>
      </trkpt>
      <trkpt lat="52.075241999700665" lon="-3.308854009956121">
        <ele>127.98999999999999</ele>
        <time>2026-07-11T11:28:52Z</time>
      </trkpt>
      <trkpt lat="52.075072014704347" lon="-3.308675978332758">
        <ele>127.03</ele>
        <time>2026-07-11T11:28:53Z</time>
      </trkpt>
      <trkpt lat="52.07389703951776" lon="-3.30719699151814">
        <ele>124.15000000000001</ele>
        <time>2026-07-11T11:29:00Z</time>
      </trkpt>
      <trkpt lat="52.072525005787611" lon="-3.3053910266608">
        <ele>115.01000000000001</ele>
        <time>2026-07-11T11:29:08Z</time>
      </trkpt>
      <trkpt lat="52.071228995919228" lon="-3.303914973512292">
        <ele>108.29000000000001</ele>
        <time>2026-07-11T11:29:15Z</time>
      </trkpt>
      <trkpt lat="52.069613970816135" lon="-3.302173968404532">
        <ele>102.04000000000001</ele>
        <time>2026-07-11T11:29:24Z</time>
      </trkpt>
      <trkpt lat="52.068445030599833" lon="-3.301024977117777">
        <ele>102.52</ele>
        <time>2026-07-11T11:29:33Z</time>
      </trkpt>
      <trkpt lat="52.067842036485672" lon="-3.300377978011966">
        <ele>104.44</ele>
        <time>2026-07-11T11:29:38Z</time>
      </trkpt>
      <trkpt lat="52.067707004025578" lon="-3.300189971923828">
        <ele>104.92</ele>
        <time>2026-07-11T11:29:39Z</time>
      </trkpt>
      <trkpt lat="52.066904017701745" lon="-3.298783991485834">
        <ele>104.92</ele>
        <time>2026-07-11T11:29:47Z</time>
      </trkpt>
      <trkpt lat="52.066796980798244" lon="-3.298597997054458">
        <ele>105.40000000000001</ele>
        <time>2026-07-11T11:29:48Z</time>
      </trkpt>
      <trkpt lat="52.06659103743732" lon="-3.29823698848486">
        <ele>105.88</ele>
        <time>2026-07-11T11:29:50Z</time>
      </trkpt>
      <trkpt lat="52.066433960571885" lon="-3.298054011538625">
        <ele>105.88</ele>
        <time>2026-07-11T11:29:51Z</time>
      </trkpt>
      <trkpt lat="52.065215986222029" lon="-3.296673009172082">
        <ele>105.40000000000001</ele>
        <time>2026-07-11T11:29:59Z</time>
      </trkpt>
      <trkpt lat="52.063427958637476" lon="-3.294794959947467">
        <ele>106.84</ele>
        <time>2026-07-11T11:30:09Z</time>
      </trkpt>
      <trkpt lat="52.061837995424867" lon="-3.293533986434341">
        <ele>119.81999999999999</ele>
        <time>2026-07-11T11:30:17Z</time>
      </trkpt>
      <trkpt lat="52.059737993404269" lon="-3.293068958446384">
        <ele>126.06999999999999</ele>
        <time>2026-07-11T11:30:26Z</time>
      </trkpt>
      <trkpt lat="52.057691970840096" lon="-3.292576018720865">
        <ele>130.40000000000001</ele>
        <time>2026-07-11T11:30:35Z</time>
      </trkpt>
      <trkpt lat="52.055258033797145" lon="-3.291282020509243">
        <ele>131.84</ele>
        <time>2026-07-11T11:30:46Z</time>
      </trkpt>
      <trkpt lat="52.053418038412929" lon="-3.289746958762407">
        <ele>130.88</ele>
        <time>2026-07-11T11:30:55Z</time>
      </trkpt>
      <trkpt lat="52.05166001804173" lon="-3.288837019354105">
        <ele>129.43000000000001</ele>
        <time>2026-07-11T11:31:03Z</time>
      </trkpt>
      <trkpt lat="52.051238995045424" lon="-3.288550022989512">
        <ele>128.94999999999999</ele>
        <time>2026-07-11T11:31:05Z</time>
      </trkpt>
      <trkpt lat="52.049699993804097" lon="-3.286921000108123">
        <ele>125.59</ele>
        <time>2026-07-11T11:31:13Z</time>
      </trkpt>
      <trkpt lat="52.049506036564708" lon="-3.286715978756547">
        <ele>124.63</ele>
        <time>2026-07-11T11:31:14Z</time>
      </trkpt>
      <trkpt lat="52.047909032553434" lon="-3.285254007205367">
        <ele>121.73999999999999</ele>
        <time>2026-07-11T11:31:22Z</time>
      </trkpt>
      <trkpt lat="52.04635402187705" lon="-3.284441968426108">
        <ele>116.45999999999999</ele>
        <time>2026-07-11T11:31:29Z</time>
      </trkpt>
      <trkpt lat="52.044843016192317" lon="-3.283567987382412">
        <ele>113.09</ele>
        <time>2026-07-11T11:31:36Z</time>
      </trkpt>
      <trkpt lat="52.044641012325883" lon="-3.283406971022487">
        <ele>113.09</ele>
        <time>2026-07-11T11:31:37Z</time>
      </trkpt>
      <trkpt lat="52.043145010247827" lon="-3.281689016148448">
        <ele>111.17</ele>
        <time>2026-07-11T11:31:45Z</time>
      </trkpt>
      <trkpt lat="52.041439041495323" lon="-3.279721029102802">
        <ele>108.77</ele>
        <time>2026-07-11T11:31:54Z</time>
      </trkpt>
      <trkpt lat="52.039488991722465" lon="-3.277188017964363">
        <ele>110.20999999999999</ele>
        <time>2026-07-11T11:32:05Z</time>
      </trkpt>
      <trkpt lat="52.038595983758569" lon="-3.275345005095005">
        <ele>107.81</ele>
        <time>2026-07-11T11:32:12Z</time>
      </trkpt>
      <trkpt lat="52.037923000752926" lon="-3.273836011067033">
        <ele>104.92</ele>
        <time>2026-07-11T11:32:20Z</time>
      </trkpt>
      <trkpt lat="52.036980958655477" lon="-3.271497962996364">
        <ele>99.629999999999995</ele>
        <time>2026-07-11T11:32:33Z</time>
      </trkpt>
      <trkpt lat="52.036303030326962" lon="-3.270246963948011">
        <ele>99.150000000000006</ele>
        <time>2026-07-11T11:32:42Z</time>
      </trkpt>
      <trkpt lat="52.035407004877925" lon="-3.269033012911677">
        <ele>98.189999999999998</ele>
        <time>2026-07-11T11:32:52Z</time>
      </trkpt>
      <trkpt lat="52.035338021814823" lon="-3.268927987664938">
        <ele>97.230000000000004</ele>
        <time>2026-07-11T11:32:53Z</time>
      </trkpt>
      <trkpt lat="52.035162001848221" lon="-3.26860997825861">
        <ele>95.790000000000006</ele>
        <time>2026-07-11T11:32:56Z</time>
      </trkpt>
      <trkpt lat="52.035100981593132" lon="-3.268506964668632">
        <ele>94.829999999999998</ele>
        <time>2026-07-11T11:32:57Z</time>
      </trkpt>
      <trkpt lat="52.034119041636586" lon="-3.266881965100765">
        <ele>95.790000000000006</ele>
        <time>2026-07-11T11:33:13Z</time>
      </trkpt>
      <trkpt lat="52.033492997288704" lon="-3.265839004889131">
        <ele>98.189999999999998</ele>
        <time>2026-07-11T11:33:23Z</time>
      </trkpt>
      <trkpt lat="52.033415967598557" lon="-3.265760969370604">
        <ele>99.150000000000006</ele>
        <time>2026-07-11T11:33:24Z</time>
      </trkpt>
      <trkpt lat="52.03281900845468" lon="-3.265316979959607">
        <ele>101.56</ele>
        <time>2026-07-11T11:33:32Z</time>
      </trkpt>
      <trkpt lat="52.032409971579909" lon="-3.264920013025403">
        <ele>101.56</ele>
        <time>2026-07-11T11:33:39Z</time>
      </trkpt>
      <trkpt lat="52.032280974090099" lon="-3.264754973351955">
        <ele>102.04000000000001</ele>
        <time>2026-07-11T11:33:41Z</time>
      </trkpt>
      <trkpt lat="52.031597010791302" lon="-3.263414036482573">
        <ele>101.56</ele>
        <time>2026-07-11T11:33:52Z</time>
      </trkpt>
      <trkpt lat="52.030920004472136" lon="-3.261830024421215">
        <ele>103.48</ele>
        <time>2026-07-11T11:34:01Z</time>
      </trkpt>
      <trkpt lat="52.030129004269838" lon="-3.259857008233666">
        <ele>103.48</ele>
        <time>2026-07-11T11:34:09Z</time>
      </trkpt>
      <trkpt lat="52.028876999393106" lon="-3.256823010742664">
        <ele>104.44</ele>
        <time>2026-07-11T11:34:20Z</time>
      </trkpt>
      <trkpt lat="52.028664015233517" lon="-3.256282964721322">
        <ele>103.95999999999999</ele>
        <time>2026-07-11T11:34:23Z</time>
      </trkpt>
      <trkpt lat="52.028676001355052" lon="-3.255879962816834">
        <ele>103.95999999999999</ele>
        <time>2026-07-11T11:34:24Z</time>
      </trkpt>
      <trkpt lat="52.028673989698291" lon="-3.255873005837202">
        <ele>103.95999999999999</ele>
        <time>2026-07-11T11:34:25Z</time>
      </trkpt>
      <trkpt lat="52.028643982484937" lon="-3.255710983648896">
        <ele>103.95999999999999</ele>
        <time>2026-07-11T11:34:26Z</time>
      </trkpt>
      <trkpt lat="52.028614981099963" lon="-3.255558013916016">
        <ele>103.48</ele>
        <time>2026-07-11T11:34:27Z</time>
      </trkpt>
      <trkpt lat="52.02852101996541" lon="-3.255473021417856">
        <ele>103.95999999999999</ele>
        <time>2026-07-11T11:34:28Z</time>
      </trkpt>
      <trkpt lat="52.028461005538702" lon="-3.255429016426206">
        <ele>103.95999999999999</ele>
        <time>2026-07-11T11:34:29Z</time>
      </trkpt>
      <trkpt lat="52.028261013329029" lon="-3.255356010049582">
        <ele>103.95999999999999</ele>
        <time>2026-07-11T11:34:30Z</time>
      </trkpt>
      <trkpt lat="52.02819999307394" lon="-3.255188036710024">
        <ele>103.95999999999999</ele>
        <time>2026-07-11T11:34:31Z</time>
      </trkpt>
      <trkpt lat="52.028126986697316" lon="-3.254991983994842">
        <ele>104.44</ele>
        <time>2026-07-11T11:34:32Z</time>
      </trkpt>
      <trkpt lat="52.028039982542396" lon="-3.254781011492014">
        <ele>104.44</ele>
        <time>2026-07-11T11:34:33Z</time>
      </trkpt>
      <trkpt lat="52.027314025908709" lon="-3.252940010279417">
        <ele>107.81</ele>
        <time>2026-07-11T11:34:40Z</time>
      </trkpt>
      <trkpt lat="52.026795018464327" lon="-3.250675974413753">
        <ele>117.90000000000001</ele>
        <time>2026-07-11T11:34:47Z</time>
      </trkpt>
      <trkpt lat="52.026617992669344" lon="-3.248415039852262">
        <ele>133.28</ele>
        <time>2026-07-11T11:34:54Z</time>
      </trkpt>
      <trkpt lat="52.026433004066348" lon="-3.2460299693048">
        <ele>149.62</ele>
        <time>2026-07-11T11:35:02Z</time>
      </trkpt>
      <trkpt lat="52.026357986032963" lon="-3.245409037917852">
        <ele>153.94999999999999</ele>
        <time>2026-07-11T11:35:05Z</time>
      </trkpt>
      <trkpt lat="52.026292020455003" lon="-3.24523201212287">
        <ele>155.38999999999999</ele>
        <time>2026-07-11T11:35:06Z</time>
      </trkpt>
      <trkpt lat="52.026231000199914" lon="-3.245069989934564">
        <ele>156.34999999999999</ele>
        <time>2026-07-11T11:35:07Z</time>
      </trkpt>
      <trkpt lat="52.026128992438316" lon="-3.244973011314869">
        <ele>157.31</ele>
        <time>2026-07-11T11:35:08Z</time>
      </trkpt>
      <trkpt lat="52.0260089635849" lon="-3.244863962754607">
        <ele>157.78999999999999</ele>
        <time>2026-07-11T11:35:09Z</time>
      </trkpt>
      <trkpt lat="52.025866974145174" lon="-3.244797997176647">
        <ele>158.27000000000001</ele>
        <time>2026-07-11T11:35:10Z</time>
      </trkpt>
      <trkpt lat="52.025706963613629" lon="-3.244749968871474">
        <ele>158.75</ele>
        <time>2026-07-11T11:35:11Z</time>
      </trkpt>
      <trkpt lat="52.024300983175635" lon="-3.244391977787018">
        <ele>155.87</ele>
        <time>2026-07-11T11:35:18Z</time>
      </trkpt>
      <trkpt lat="52.022153036668897" lon="-3.244107998907566">
        <ele>150.09999999999999</ele>
        <time>2026-07-11T11:35:28Z</time>
      </trkpt>
      <trkpt lat="52.019830998033285" lon="-3.243605000898242">
        <ele>145.30000000000001</ele>
        <time>2026-07-11T11:35:39Z</time>
      </trkpt>
      <trkpt lat="52.018475979566574" lon="-3.242903016507626">
        <ele>138.09</ele>
        <time>2026-07-11T11:35:46Z</time>
      </trkpt>
      <trkpt lat="52.017187010496855" lon="-3.242141017690301">
        <ele>132.31999999999999</ele>
        <time>2026-07-11T11:35:54Z</time>
      </trkpt>
      <trkpt lat="52.015591012313962" lon="-3.241641959175468">
        <ele>122.22</ele>
        <time>2026-07-11T11:36:03Z</time>
      </trkpt>
      <trkpt lat="52.014047987759113" lon="-3.241063021123409">
        <ele>123.67</ele>
        <time>2026-07-11T11:36:12Z</time>
      </trkpt>
      <trkpt lat="52.01305003836751" lon="-3.240231033414602">
        <ele>127.51000000000001</ele>
        <time>2026-07-11T11:36:20Z</time>
      </trkpt>
      <trkpt lat="52.012704033404589" lon="-3.239766005426645">
        <ele>128.47</ele>
        <time>2026-07-11T11:36:26Z</time>
      </trkpt>
      <trkpt lat="52.012613005936146" lon="-3.239642037078738">
        <ele>128.94999999999999</ele>
        <time>2026-07-11T11:36:35Z</time>
      </trkpt>
      <trkpt lat="52.012520972639322" lon="-3.239519996568561">
        <ele>129.43000000000001</ele>
        <time>2026-07-11T11:36:44Z</time>
      </trkpt>
      <trkpt lat="52.012504041194916" lon="-3.239497030153871">
        <ele>129.43000000000001</ele>
        <time>2026-07-11T11:36:45Z</time>
      </trkpt>
      <trkpt lat="52.012473028153181" lon="-3.239540029317141">
        <ele>128.94999999999999</ele>
        <time>2026-07-11T11:36:46Z</time>
      </trkpt>
      <trkpt lat="52.012433968484402" lon="-3.239626027643681">
        <ele>128.94999999999999</ele>
        <time>2026-07-11T11:36:47Z</time>
      </trkpt>
      <trkpt lat="52.012382000684738" lon="-3.239742033183575">
        <ele>129.43000000000001</ele>
        <time>2026-07-11T11:36:48Z</time>
      </trkpt>
      <trkpt lat="52.012318968772888" lon="-3.239881005138159">
        <ele>129.43000000000001</ele>
        <time>2026-07-11T11:36:49Z</time>
      </trkpt>
      <trkpt lat="52.011764002963901" lon="-3.241114988923073">
        <ele>129.91999999999999</ele>
        <time>2026-07-11T11:36:55Z</time>
      </trkpt>
      <trkpt lat="52.011037040501833" lon="-3.242233972996473">
        <ele>128.47</ele>
        <time>2026-07-11T11:37:00Z</time>
      </trkpt>
      <trkpt lat="52.010866971686482" lon="-3.242436982691288">
        <ele>128.47</ele>
        <time>2026-07-11T11:37:01Z</time>
      </trkpt>
      <trkpt lat="52.009079027920961" lon="-3.243549009785056">
        <ele>127.03</ele>
        <time>2026-07-11T11:37:10Z</time>
      </trkpt>
      <trkpt lat="52.007407005876303" lon="-3.243565019220114">
        <ele>125.59</ele>
        <time>2026-07-11T11:37:18Z</time>
      </trkpt>
      <trkpt lat="52.005763985216618" lon="-3.243971960619092">
        <ele>125.11</ele>
        <time>2026-07-11T11:37:26Z</time>
      </trkpt>
      <trkpt lat="52.004969967529178" lon="-3.2443290296942">
        <ele>126.06999999999999</ele>
        <time>2026-07-11T11:37:32Z</time>
      </trkpt>
      <trkpt lat="52.004899978637695" lon="-3.244357025250793">
        <ele>126.06999999999999</ele>
        <time>2026-07-11T11:37:33Z</time>
      </trkpt>
      <trkpt lat="52.004834013059735" lon="-3.244384014979005">
        <ele>125.59</ele>
        <time>2026-07-11T11:37:34Z</time>
      </trkpt>
      <trkpt lat="52.004728987812996" lon="-3.244272032752633">
        <ele>125.59</ele>
        <time>2026-07-11T11:37:35Z</time>
      </trkpt>
      <trkpt lat="52.004728987812996" lon="-3.244271026924253">
        <ele>125.11</ele>
        <time>2026-07-11T11:37:36Z</time>
      </trkpt>
      <trkpt lat="52.004507035017014" lon="-3.244105987250805">
        <ele>125.11</ele>
        <time>2026-07-11T11:37:37Z</time>
      </trkpt>
      <trkpt lat="52.00445800088346" lon="-3.243928039446473">
        <ele>125.11</ele>
        <time>2026-07-11T11:37:38Z</time>
      </trkpt>
      <trkpt lat="52.004398992285132" lon="-3.243736010044813">
        <ele>125.11</ele>
        <time>2026-07-11T11:37:39Z</time>
      </trkpt>
      <trkpt lat="52.003725003451109" lon="-3.242067005485296">
        <ele>125.11</ele>
        <time>2026-07-11T11:37:48Z</time>
      </trkpt>
      <trkpt lat="52.003012038767338" lon="-3.240768983960152">
        <ele>119.34</ele>
        <time>2026-07-11T11:37:56Z</time>
      </trkpt>
      <trkpt lat="52.002945989370346" lon="-3.240552982315421">
        <ele>118.38</ele>
        <time>2026-07-11T11:37:57Z</time>
      </trkpt>
      <trkpt lat="52.00288999825716" lon="-3.240328012034297">
        <ele>116.94</ele>
        <time>2026-07-11T11:37:58Z</time>
      </trkpt>
      <trkpt lat="52.002837024629116" lon="-3.240104969590902">
        <ele>115.5</ele>
        <time>2026-07-11T11:37:59Z</time>
      </trkpt>
      <trkpt lat="52.002801988273859" lon="-3.239872036501765">
        <ele>114.05</ele>
        <time>2026-07-11T11:38:00Z</time>
      </trkpt>
      <trkpt lat="52.002776004374027" lon="-3.239700961858034">
        <ele>112.61</ele>
        <time>2026-07-11T11:38:01Z</time>
      </trkpt>
      <trkpt lat="52.002685982733965" lon="-3.239480014890432">
        <ele>111.65000000000001</ele>
        <time>2026-07-11T11:38:02Z</time>
      </trkpt>
      <trkpt lat="52.00261096470058" lon="-3.239295026287437">
        <ele>111.17</ele>
        <time>2026-07-11T11:38:03Z</time>
      </trkpt>
      <trkpt lat="52.002538964152336" lon="-3.239119006320834">
        <ele>110.69</ele>
        <time>2026-07-11T11:38:04Z</time>
      </trkpt>
      <trkpt lat="52.002450032159686" lon="-3.238961007446051">
        <ele>110.20999999999999</ele>
        <time>2026-07-11T11:38:05Z</time>
      </trkpt>
      <trkpt lat="52.001736983656883" lon="-3.237814027816057">
        <ele>110.20999999999999</ele>
        <time>2026-07-11T11:38:14Z</time>
      </trkpt>
      <trkpt lat="52.001190986484289" lon="-3.236980028450489">
        <ele>110.20999999999999</ele>
        <time>2026-07-11T11:38:21Z</time>
      </trkpt>
      <trkpt lat="52.001114040613174" lon="-3.236864022910595">
        <ele>110.69</ele>
        <time>2026-07-11T11:38:22Z</time>
      </trkpt>
      <trkpt lat="52.000737022608519" lon="-3.236322971060872">
        <ele>111.17</ele>
        <time>2026-07-11T11:38:27Z</time>
      </trkpt>
      <trkpt lat="52.000658987089992" lon="-3.236218029633164">
        <ele>111.65000000000001</ele>
        <time>2026-07-11T11:38:28Z</time>
      </trkpt>
      <trkpt lat="51.99951795861125" lon="-3.234768966212869">
        <ele>114.05</ele>
        <time>2026-07-11T11:38:43Z</time>
      </trkpt>
      <trkpt lat="51.998552028089762" lon="-3.233887022361159">
        <ele>117.42</ele>
        <time>2026-07-11T11:38:56Z</time>
      </trkpt>
      <trkpt lat="51.997831016778946" lon="-3.233551997691393">
        <ele>117.90000000000001</ele>
        <time>2026-07-11T11:39:05Z</time>
      </trkpt>
      <trkpt lat="51.997642004862428" lon="-3.233577981591225">
        <ele>117.90000000000001</ele>
        <time>2026-07-11T11:39:07Z</time>
      </trkpt>
      <trkpt lat="51.997548965737224" lon="-3.233608994632959">
        <ele>118.38</ele>
        <time>2026-07-11T11:39:08Z</time>
      </trkpt>
      <trkpt lat="51.997455004602671" lon="-3.233671020716429">
        <ele>118.38</ele>
        <time>2026-07-11T11:39:09Z</time>
      </trkpt>
      <trkpt lat="51.997361965477467" lon="-3.233732962980866">
        <ele>118.38</ele>
        <time>2026-07-11T11:39:10Z</time>
      </trkpt>
      <trkpt lat="51.99726196937263" lon="-3.233800018206239">
        <ele>118.38</ele>
        <time>2026-07-11T11:39:11Z</time>
      </trkpt>
      <trkpt lat="51.997178988531232" lon="-3.23389096185565">
        <ele>118.86</ele>
        <time>2026-07-11T11:39:12Z</time>
      </trkpt>
      <trkpt lat="51.99708997271955" lon="-3.233990035951138">
        <ele>118.86</ele>
        <time>2026-07-11T11:39:13Z</time>
      </trkpt>
      <trkpt lat="51.996998023241758" lon="-3.234091037884355">
        <ele>118.86</ele>
        <time>2026-07-11T11:39:14Z</time>
      </trkpt>
      <trkpt lat="51.996906995773315" lon="-3.234192039817572">
        <ele>118.86</ele>
        <time>2026-07-11T11:39:15Z</time>
      </trkpt>
      <trkpt lat="51.995967971161008" lon="-3.235110025852919">
        <ele>119.81999999999999</ele>
        <time>2026-07-11T11:39:25Z</time>
      </trkpt>
      <trkpt lat="51.995856994763017" lon="-3.235216978937388">
        <ele>119.81999999999999</ele>
        <time>2026-07-11T11:39:26Z</time>
      </trkpt>
      <trkpt lat="51.994979996234179" lon="-3.236077968031168">
        <ele>119.34</ele>
        <time>2026-07-11T11:39:35Z</time>
      </trkpt>
      <trkpt lat="51.994796013459563" lon="-3.236288018524647">
        <ele>120.3</ele>
        <time>2026-07-11T11:39:38Z</time>
      </trkpt>
      <trkpt lat="51.994756031781435" lon="-3.236335041001439">
        <ele>120.3</ele>
        <time>2026-07-11T11:39:39Z</time>
      </trkpt>
      <trkpt lat="51.9947250187397" lon="-3.236370999366045">
        <ele>120.78</ele>
        <time>2026-07-11T11:39:40Z</time>
      </trkpt>
      <trkpt lat="51.99463902041316" lon="-3.236417016014457">
        <ele>120.78</ele>
        <time>2026-07-11T11:39:41Z</time>
      </trkpt>
      <trkpt lat="51.994607001543045" lon="-3.236389020457864">
        <ele>121.26000000000001</ele>
        <time>2026-07-11T11:39:42Z</time>
      </trkpt>
      <trkpt lat="51.994514968246222" lon="-3.236310984939337">
        <ele>121.26000000000001</ele>
        <time>2026-07-11T11:39:43Z</time>
      </trkpt>
      <trkpt lat="51.99450901709497" lon="-3.236311990767717">
        <ele>121.26000000000001</ele>
        <time>2026-07-11T11:39:44Z</time>
      </trkpt>
      <trkpt lat="51.994428969919682" lon="-3.236332023516297">
        <ele>121.26000000000001</ele>
        <time>2026-07-11T11:39:45Z</time>
      </trkpt>
      <trkpt lat="51.994219003245234" lon="-3.236332023516297">
        <ele>121.73999999999999</ele>
        <time>2026-07-11T11:39:48Z</time>
      </trkpt>
      <trkpt lat="51.994107021018863" lon="-3.236332023516297">
        <ele>122.22</ele>
        <time>2026-07-11T11:39:49Z</time>
      </trkpt>
      <trkpt lat="51.994044994935393" lon="-3.236279971897602">
        <ele>122.22</ele>
        <time>2026-07-11T11:39:50Z</time>
      </trkpt>
      <trkpt lat="51.993293976411223" lon="-3.23571402579546">
        <ele>125.59</ele>
        <time>2026-07-11T11:39:56Z</time>
      </trkpt>
      <trkpt lat="51.991970976814628" lon="-3.234716998413205">
        <ele>135.68000000000001</ele>
        <time>2026-07-11T11:40:03Z</time>
      </trkpt>
      <trkpt lat="51.99014799669385" lon="-3.233525007963181">
        <ele>152.99000000000001</ele>
        <time>2026-07-11T11:40:12Z</time>
      </trkpt>
      <trkpt lat="51.988496007397771" lon="-3.233384024351835">
        <ele>163.08000000000001</ele>
        <time>2026-07-11T11:40:19Z</time>
      </trkpt>
      <trkpt lat="51.986340014263988" lon="-3.234036974608898">
        <ele>170.28999999999999</ele>
        <time>2026-07-11T11:40:28Z</time>
      </trkpt>
      <trkpt lat="51.984696993604302" lon="-3.233879981562495">
        <ele>178.94</ele>
        <time>2026-07-11T11:40:35Z</time>
      </trkpt>
      <trkpt lat="51.983196968212724" lon="-3.232755968347192">
        <ele>187.11000000000001</ele>
        <time>2026-07-11T11:40:42Z</time>
      </trkpt>
      <trkpt lat="51.982174962759018" lon="-3.231146978214383">
        <ele>194.80000000000001</ele>
        <time>2026-07-11T11:40:48Z</time>
      </trkpt>
      <trkpt lat="51.981598036363721" lon="-3.229465987533331">
        <ele>200.09</ele>
        <time>2026-07-11T11:40:53Z</time>
      </trkpt>
      <trkpt lat="51.981546990573406" lon="-3.229061979800463">
        <ele>200.56999999999999</ele>
        <time>2026-07-11T11:40:54Z</time>
      </trkpt>
      <trkpt lat="51.981498962268233" lon="-3.228676998987794">
        <ele>201.05000000000001</ele>
        <time>2026-07-11T11:40:55Z</time>
      </trkpt>
      <trkpt lat="51.981451017782092" lon="-3.228292018175125">
        <ele>201.53</ele>
        <time>2026-07-11T11:40:56Z</time>
      </trkpt>
      <trkpt lat="51.981429979205132" lon="-3.227896979078651">
        <ele>202.00999999999999</ele>
        <time>2026-07-11T11:40:57Z</time>
      </trkpt>
      <trkpt lat="51.981439031660557" lon="-3.227513004094362">
        <ele>202.00999999999999</ele>
        <time>2026-07-11T11:40:58Z</time>
      </trkpt>
      <trkpt lat="51.98144699446857" lon="-3.227149983868003">
        <ele>202.00999999999999</ele>
        <time>2026-07-11T11:40:59Z</time>
      </trkpt>
      <trkpt lat="51.981564005836844" lon="-3.224251018837094">
        <ele>212.11000000000001</ele>
        <time>2026-07-11T11:41:08Z</time>
      </trkpt>
      <trkpt lat="51.981571968644857" lon="-3.223965028300881">
        <ele>213.06999999999999</ele>
        <time>2026-07-11T11:41:09Z</time>
      </trkpt>
      <trkpt lat="51.981550008058548" lon="-3.223690018057823">
        <ele>214.03</ele>
        <time>2026-07-11T11:41:10Z</time>
      </trkpt>
      <trkpt lat="51.981502985581756" lon="-3.223458006978035">
        <ele>215.47</ele>
        <time>2026-07-11T11:41:11Z</time>
      </trkpt>
      <trkpt lat="51.981440037488937" lon="-3.223245022818446">
        <ele>216.43000000000001</ele>
        <time>2026-07-11T11:41:12Z</time>
      </trkpt>
      <trkpt lat="51.981344986706972" lon="-3.22310496121645">
        <ele>217.40000000000001</ele>
        <time>2026-07-11T11:41:13Z</time>
      </trkpt>
      <trkpt lat="51.9812520314008" lon="-3.222970012575388">
        <ele>218.36000000000001</ele>
        <time>2026-07-11T11:41:14Z</time>
      </trkpt>
      <trkpt lat="51.981124961748719" lon="-3.222920978441834">
        <ele>218.84</ele>
        <time>2026-07-11T11:41:15Z</time>
      </trkpt>
      <trkpt lat="51.980983978137374" lon="-3.222893988713622">
        <ele>219.80000000000001</ele>
        <time>2026-07-11T11:41:16Z</time>
      </trkpt>
      <trkpt lat="51.980828996747732" lon="-3.222863981500268">
        <ele>220.75999999999999</ele>
        <time>2026-07-11T11:41:17Z</time>
      </trkpt>
      <trkpt lat="51.980662029236555" lon="-3.222831040620804">
        <ele>221.72</ele>
        <time>2026-07-11T11:41:18Z</time>
      </trkpt>
      <trkpt lat="51.980492966249585" lon="-3.222798015922308">
        <ele>222.68000000000001</ele>
        <time>2026-07-11T11:41:19Z</time>
      </trkpt>
      <trkpt lat="51.980323987081647" lon="-3.222773037850857">
        <ele>223.63999999999999</ele>
        <time>2026-07-11T11:41:20Z</time>
      </trkpt>
      <trkpt lat="51.980149978771806" lon="-3.222784018144012">
        <ele>224.61000000000001</ele>
        <time>2026-07-11T11:41:21Z</time>
      </trkpt>
      <trkpt lat="51.979973958805203" lon="-3.222816037014127">
        <ele>225.56999999999999</ele>
        <time>2026-07-11T11:41:22Z</time>
      </trkpt>
      <trkpt lat="51.97979399934411" lon="-3.222893988713622">
        <ele>226.53</ele>
        <time>2026-07-11T11:41:23Z</time>
      </trkpt>
      <trkpt lat="51.979601969942451" lon="-3.222920978441834">
        <ele>227.49000000000001</ele>
        <time>2026-07-11T11:41:24Z</time>
      </trkpt>
      <trkpt lat="51.979417987167835" lon="-3.222920978441834">
        <ele>227.97</ele>
        <time>2026-07-11T11:41:25Z</time>
      </trkpt>
      <trkpt lat="51.979253031313419" lon="-3.222934976220131">
        <ele>228.93000000000001</ele>
        <time>2026-07-11T11:41:26Z</time>
      </trkpt>
      <trkpt lat="51.979104001075029" lon="-3.223008988425136">
        <ele>229.88999999999999</ele>
        <time>2026-07-11T11:41:27Z</time>
      </trkpt>
      <trkpt lat="51.977900024503469" lon="-3.223520033061504">
        <ele>234.69999999999999</ele>
        <time>2026-07-11T11:41:34Z</time>
      </trkpt>
      <trkpt lat="51.977514959871769" lon="-3.223657999187708">
        <ele>236.13999999999999</ele>
        <time>2026-07-11T11:41:36Z</time>
      </trkpt>
      <trkpt lat="51.977326031774282" lon="-3.223799988627434">
        <ele>236.62</ele>
        <time>2026-07-11T11:41:37Z</time>
      </trkpt>
      <trkpt lat="51.977144982665777" lon="-3.223952036350966">
        <ele>237.09999999999999</ele>
        <time>2026-07-11T11:41:38Z</time>
      </trkpt>
      <trkpt lat="51.976603008806705" lon="-3.224390996620059">
        <ele>239.50999999999999</ele>
        <time>2026-07-11T11:41:41Z</time>
      </trkpt>
      <trkpt lat="51.976407961919904" lon="-3.224496021866798">
        <ele>240.47</ele>
        <time>2026-07-11T11:41:42Z</time>
      </trkpt>
      <trkpt lat="51.974561009556055" lon="-3.225066997110844">
        <ele>249.12</ele>
        <time>2026-07-11T11:41:51Z</time>
      </trkpt>
      <trkpt lat="51.973301963880658" lon="-3.22482299990952">
        <ele>254.41</ele>
        <time>2026-07-11T11:41:57Z</time>
      </trkpt>
      <trkpt lat="51.971920039504766" lon="-3.224208019673824">
        <ele>260.17000000000002</ele>
        <time>2026-07-11T11:42:04Z</time>
      </trkpt>
      <trkpt lat="51.971754999831319" lon="-3.224018001928926">
        <ele>261.13999999999999</ele>
        <time>2026-07-11T11:42:05Z</time>
      </trkpt>
      <trkpt lat="51.971595995128155" lon="-3.223837036639452">
        <ele>262.10000000000002</ele>
        <time>2026-07-11T11:42:06Z</time>
      </trkpt>
      <trkpt lat="51.971147982403636" lon="-3.223200011998415">
        <ele>264.5</ele>
        <time>2026-07-11T11:42:09Z</time>
      </trkpt>
      <trkpt lat="51.971052009612322" lon="-3.222912009805441">
        <ele>265.45999999999998</ele>
        <time>2026-07-11T11:42:10Z</time>
      </trkpt>
      <trkpt lat="51.970955030992627" lon="-3.222623001784086">
        <ele>265.94</ele>
        <time>2026-07-11T11:42:11Z</time>
      </trkpt>
      <trkpt lat="51.970637021586299" lon="-3.221570989117026">
        <ele>268.82999999999998</ele>
        <time>2026-07-11T11:42:15Z</time>
      </trkpt>
      <trkpt lat="51.970611037686467" lon="-3.221311988309026">
        <ele>269.31</ele>
        <time>2026-07-11T11:42:16Z</time>
      </trkpt>
      <trkpt lat="51.970624029636383" lon="-3.22106396779418">
        <ele>269.79000000000002</ele>
        <time>2026-07-11T11:42:17Z</time>
      </trkpt>
      <trkpt lat="51.970675997436047" lon="-3.220831034705043">
        <ele>270.75</ele>
        <time>2026-07-11T11:42:18Z</time>
      </trkpt>
      <trkpt lat="51.97072796523571" lon="-3.220601035282016">
        <ele>271.23000000000002</ele>
        <time>2026-07-11T11:42:19Z</time>
      </trkpt>
      <trkpt lat="51.970779011026025" lon="-3.220374975353479">
        <ele>271.70999999999998</ele>
        <time>2026-07-11T11:42:20Z</time>
      </trkpt>
      <trkpt lat="51.970925023779273" lon="-3.219724958762527">
        <ele>273.14999999999998</ele>
        <time>2026-07-11T11:42:23Z</time>
      </trkpt>
      <trkpt lat="51.970955030992627" lon="-3.219491019845009">
        <ele>274.11000000000001</ele>
        <time>2026-07-11T11:42:24Z</time>
      </trkpt>
      <trkpt lat="51.970955030992627" lon="-3.219248028472066">
        <ele>275.06999999999999</ele>
        <time>2026-07-11T11:42:25Z</time>
      </trkpt>
      <trkpt lat="51.970955030992627" lon="-3.219002019613981">
        <ele>275.56</ele>
        <time>2026-07-11T11:42:26Z</time>
      </trkpt>
      <trkpt lat="51.970921000465751" lon="-3.218751987442374">
        <ele>276.51999999999998</ele>
        <time>2026-07-11T11:42:27Z</time>
      </trkpt>
      <trkpt lat="51.970852017402649" lon="-3.218516036868095">
        <ele>277</ele>
        <time>2026-07-11T11:42:28Z</time>
      </trkpt>
      <trkpt lat="51.9707699585706" lon="-3.218282014131546">
        <ele>277.95999999999998</ele>
        <time>2026-07-11T11:42:29Z</time>
      </trkpt>
      <trkpt lat="51.97066199965775" lon="-3.218065006658435">
        <ele>278.44</ele>
        <time>2026-07-11T11:42:30Z</time>
      </trkpt>
      <trkpt lat="51.970551023259759" lon="-3.217844981700182">
        <ele>279.39999999999998</ele>
        <time>2026-07-11T11:42:31Z</time>
      </trkpt>
      <trkpt lat="51.969472020864487" lon="-3.216045973822475">
        <ele>285.64999999999998</ele>
        <time>2026-07-11T11:42:40Z</time>
      </trkpt>
      <trkpt lat="51.969386022537947" lon="-3.21584103628993">
        <ele>286.13</ele>
        <time>2026-07-11T11:42:41Z</time>
      </trkpt>
      <trkpt lat="51.969118975102901" lon="-3.215184984728694">
        <ele>288.05000000000001</ele>
        <time>2026-07-11T11:42:44Z</time>
      </trkpt>
      <trkpt lat="51.969003975391388" lon="-3.214997984468937">
        <ele>289.00999999999999</ele>
        <time>2026-07-11T11:42:45Z</time>
      </trkpt>
      <trkpt lat="51.96885796263814" lon="-3.214877033606172">
        <ele>289.00999999999999</ele>
        <time>2026-07-11T11:42:46Z</time>
      </trkpt>
      <trkpt lat="51.96870700456202" lon="-3.214773014187813">
        <ele>289.49000000000001</ele>
        <time>2026-07-11T11:42:47Z</time>
      </trkpt>
      <trkpt lat="51.96855403482914" lon="-3.214668994769454">
        <ele>289.97000000000003</ele>
        <time>2026-07-11T11:42:48Z</time>
      </trkpt>
      <trkpt lat="51.968400981277227" lon="-3.214563969522715">
        <ele>290.45999999999998</ele>
        <time>2026-07-11T11:42:49Z</time>
      </trkpt>
      <trkpt lat="51.968100992962718" lon="-3.214359031990171">
        <ele>290.94</ele>
        <time>2026-07-11T11:42:51Z</time>
      </trkpt>
      <trkpt lat="51.96797601878643" lon="-3.214192986488342">
        <ele>291.42000000000002</ele>
        <time>2026-07-11T11:42:52Z</time>
      </trkpt>
      <trkpt lat="51.967858001589775" lon="-3.214034987613559">
        <ele>292.38</ele>
        <time>2026-07-11T11:42:53Z</time>
      </trkpt>
      <trkpt lat="51.967772003263235" lon="-3.213831977918744">
        <ele>292.86000000000001</ele>
        <time>2026-07-11T11:42:54Z</time>
      </trkpt>
      <trkpt lat="51.967689022421837" lon="-3.213621005415916">
        <ele>293.33999999999997</ele>
        <time>2026-07-11T11:42:55Z</time>
      </trkpt>
      <trkpt lat="51.967606963589787" lon="-3.213408021256328">
        <ele>293.33999999999997</ele>
        <time>2026-07-11T11:42:56Z</time>
      </trkpt>
      <trkpt lat="51.967017967253923" lon="-3.21156500838697">
        <ele>298.14999999999998</ele>
        <time>2026-07-11T11:43:04Z</time>
      </trkpt>
      <trkpt lat="51.966971028596163" lon="-3.211296033114195">
        <ele>299.11000000000001</ele>
        <time>2026-07-11T11:43:05Z</time>
      </trkpt>
      <trkpt lat="51.966899028047919" lon="-3.210819019004703">
        <ele>300.55000000000001</ele>
        <time>2026-07-11T11:43:07Z</time>
      </trkpt>
      <trkpt lat="51.96681797504425" lon="-3.210636964067817">
        <ele>301.50999999999999</ele>
        <time>2026-07-11T11:43:08Z</time>
      </trkpt>
      <trkpt lat="51.966726025566459" lon="-3.21049396879971">
        <ele>301.99000000000001</ele>
        <time>2026-07-11T11:43:09Z</time>
      </trkpt>
      <trkpt lat="51.966628963127732" lon="-3.210349967703223">
        <ele>302.94999999999999</ele>
        <time>2026-07-11T11:43:10Z</time>
      </trkpt>
      <trkpt lat="51.966513963416219" lon="-3.210250977426767">
        <ele>303.43000000000001</ele>
        <time>2026-07-11T11:43:11Z</time>
      </trkpt>
      <trkpt lat="51.966383960098028" lon="-3.21017000824213">
        <ele>303.91000000000003</ele>
        <time>2026-07-11T11:43:12Z</time>
      </trkpt>
      <trkpt lat="51.965465974062681" lon="-3.209532983601093">
        <ele>308.24000000000001</ele>
        <time>2026-07-11T11:43:19Z</time>
      </trkpt>
      <trkpt lat="51.965102031826973" lon="-3.20913802832365">
        <ele>310.16000000000003</ele>
        <time>2026-07-11T11:43:22Z</time>
      </trkpt>
      <trkpt lat="51.964991977438331" lon="-3.208967037498951">
        <ele>310.63999999999999</ele>
        <time>2026-07-11T11:43:23Z</time>
      </trkpt>
      <trkpt lat="51.964916037395597" lon="-3.208763021975756">
        <ele>311.60000000000002</ele>
        <time>2026-07-11T11:43:24Z</time>
      </trkpt>
      <trkpt lat="51.96483900770545" lon="-3.208556994795799">
        <ele>312.08999999999997</ele>
        <time>2026-07-11T11:43:25Z</time>
      </trkpt>
      <trkpt lat="51.96475300937891" lon="-3.208330012857914">
        <ele>313.05000000000001</ele>
        <time>2026-07-11T11:43:26Z</time>
      </trkpt>
      <trkpt lat="51.964700035750866" lon="-3.208123985677958">
        <ele>314.00999999999999</ele>
        <time>2026-07-11T11:43:27Z</time>
      </trkpt>
      <trkpt lat="51.964528961107135" lon="-3.207469023764134">
        <ele>316.41000000000003</ele>
        <time>2026-07-11T11:43:30Z</time>
      </trkpt>
      <trkpt lat="51.964465007185936" lon="-3.207294009625912">
        <ele>317.37</ele>
        <time>2026-07-11T11:43:31Z</time>
      </trkpt>
      <trkpt lat="51.964370962232351" lon="-3.207142967730761">
        <ele>317.85000000000002</ele>
        <time>2026-07-11T11:43:32Z</time>
      </trkpt>
      <trkpt lat="51.964272977784276" lon="-3.206992009654641">
        <ele>318.32999999999998</ele>
        <time>2026-07-11T11:43:33Z</time>
      </trkpt>
      <trkpt lat="51.964144986122847" lon="-3.20688396692276">
        <ele>319.30000000000001</ele>
        <time>2026-07-11T11:43:34Z</time>
      </trkpt>
      <trkpt lat="51.962704975157976" lon="-3.205632967874408">
        <ele>325.54000000000002</ele>
        <time>2026-07-11T11:43:44Z</time>
      </trkpt>
      <trkpt lat="51.961324978619814" lon="-3.20492897182703">
        <ele>325.06</ele>
        <time>2026-07-11T11:43:51Z</time>
      </trkpt>
      <trkpt lat="51.959819002076983" lon="-3.204313991591334">
        <ele>319.30000000000001</ele>
        <time>2026-07-11T11:43:59Z</time>
      </trkpt>
      <trkpt lat="51.958874026313424" lon="-3.203716026619077">
        <ele>314.49000000000001</ele>
        <time>2026-07-11T11:44:06Z</time>
      </trkpt>
      <trkpt lat="51.958761960268021" lon="-3.203578982502222">
        <ele>314.00999999999999</ele>
        <time>2026-07-11T11:44:07Z</time>
      </trkpt>
      <trkpt lat="51.957968026399612" lon="-3.202766021713615">
        <ele>311.12</ele>
        <time>2026-07-11T11:44:13Z</time>
      </trkpt>
      <trkpt lat="51.956920037046075" lon="-3.20198399014771">
        <ele>307.27999999999997</ele>
        <time>2026-07-11T11:44:19Z</time>
      </trkpt>
      <trkpt lat="51.956771006807685" lon="-3.201806964352727">
        <ele>306.80000000000001</ele>
        <time>2026-07-11T11:44:20Z</time>
      </trkpt>
      <trkpt lat="51.956661958247423" lon="-3.201541006565094">
        <ele>305.83999999999997</ele>
        <time>2026-07-11T11:44:21Z</time>
      </trkpt>
      <trkpt lat="51.956555005162954" lon="-3.201283011585474">
        <ele>304.88</ele>
        <time>2026-07-11T11:44:22Z</time>
      </trkpt>
      <trkpt lat="51.956451991572976" lon="-3.201015964150429">
        <ele>303.91000000000003</ele>
        <time>2026-07-11T11:44:23Z</time>
      </trkpt>
      <trkpt lat="51.956366999074817" lon="-3.200736008584499">
        <ele>302.94999999999999</ele>
        <time>2026-07-11T11:44:24Z</time>
      </trkpt>
      <trkpt lat="51.956109004095197" lon="-3.199989013373852">
        <ele>300.06999999999999</ele>
        <time>2026-07-11T11:44:27Z</time>
      </trkpt>
      <trkpt lat="51.956003978848457" lon="-3.199778040871024">
        <ele>298.63</ele>
        <time>2026-07-11T11:44:28Z</time>
      </trkpt>
      <trkpt lat="51.955873975530267" lon="-3.19959900341928">
        <ele>297.67000000000002</ele>
        <time>2026-07-11T11:44:29Z</time>
      </trkpt>
      <trkpt lat="51.955713964998722" lon="-3.19949297234416">
        <ele>296.69999999999999</ele>
        <time>2026-07-11T11:44:30Z</time>
      </trkpt>
      <trkpt lat="51.955544985830784" lon="-3.199379984289408">
        <ele>296.22000000000003</ele>
        <time>2026-07-11T11:44:31Z</time>
      </trkpt>
      <trkpt lat="51.955369971692562" lon="-3.199263978749514">
        <ele>295.25999999999999</ele>
        <time>2026-07-11T11:44:32Z</time>
      </trkpt>
      <trkpt lat="51.955021033063531" lon="-3.198983017355204">
        <ele>294.77999999999997</ele>
        <time>2026-07-11T11:44:34Z</time>
      </trkpt>
      <trkpt lat="51.954851970076561" lon="-3.198814960196614">
        <ele>293.81999999999999</ele>
        <time>2026-07-11T11:44:35Z</time>
      </trkpt>
      <trkpt lat="51.953556966036558" lon="-3.197251986712217">
        <ele>288.52999999999997</ele>
        <time>2026-07-11T11:44:43Z</time>
      </trkpt>
      <trkpt lat="51.952761020511389" lon="-3.195937033742666">
        <ele>285.17000000000002</ele>
        <time>2026-07-11T11:44:49Z</time>
      </trkpt>
      <trkpt lat="51.952630011364818" lon="-3.195730000734329">
        <ele>284.20999999999998</ele>
        <time>2026-07-11T11:44:50Z</time>
      </trkpt>
      <trkpt lat="51.951442966237664" lon="-3.194019002839923">
        <ele>278.92000000000002</ele>
        <time>2026-07-11T11:44:58Z</time>
      </trkpt>
      <trkpt lat="51.95048600435257" lon="-3.192813014611602">
        <ele>274.11000000000001</ele>
        <time>2026-07-11T11:45:04Z</time>
      </trkpt>
      <trkpt lat="51.950038997456431" lon="-3.192199040204287">
        <ele>271.70999999999998</ele>
        <time>2026-07-11T11:45:07Z</time>
      </trkpt>
      <trkpt lat="51.949888961389661" lon="-3.192013967782259">
        <ele>271.23000000000002</ele>
        <time>2026-07-11T11:45:08Z</time>
      </trkpt>
      <trkpt lat="51.948103029280901" lon="-3.190558031201363">
        <ele>263.54000000000002</ele>
        <time>2026-07-11T11:45:19Z</time>
      </trkpt>
      <trkpt lat="51.947942012920976" lon="-3.190458035096526">
        <ele>263.06</ele>
        <time>2026-07-11T11:45:20Z</time>
      </trkpt>
      <trkpt lat="51.947775967419147" lon="-3.190363990142942">
        <ele>262.10000000000002</ele>
        <time>2026-07-11T11:45:21Z</time>
      </trkpt>
      <trkpt lat="51.946821017190814" lon="-3.190055033192039">
        <ele>257.29000000000002</ele>
        <time>2026-07-11T11:45:27Z</time>
      </trkpt>
      <trkpt lat="51.946675004437566" lon="-3.189969034865499">
        <ele>256.32999999999998</ele>
        <time>2026-07-11T11:45:28Z</time>
      </trkpt>
      <trkpt lat="51.946556987240911" lon="-3.189840959385037">
        <ele>255.84999999999999</ele>
        <time>2026-07-11T11:45:29Z</time>
      </trkpt>
      <trkpt lat="51.946443999186158" lon="-3.189697964116931">
        <ele>255.37</ele>
        <time>2026-07-11T11:45:30Z</time>
      </trkpt>
      <trkpt lat="51.946355989202857" lon="-3.189539965242147">
        <ele>254.41</ele>
        <time>2026-07-11T11:45:31Z</time>
      </trkpt>
      <trkpt lat="51.946089025586843" lon="-3.189060017466545">
        <ele>253.44</ele>
        <time>2026-07-11T11:45:34Z</time>
      </trkpt>
      <trkpt lat="51.945982994511724" lon="-3.188916016370058">
        <ele>252.96000000000001</ele>
        <time>2026-07-11T11:45:35Z</time>
      </trkpt>
      <trkpt lat="51.944837020710111" lon="-3.187919994816184">
        <ele>248.16</ele>
        <time>2026-07-11T11:45:43Z</time>
      </trkpt>
      <trkpt lat="51.943394998088479" lon="-3.187056994065642">
        <ele>241.43000000000001</ele>
        <time>2026-07-11T11:45:52Z</time>
      </trkpt>
      <trkpt lat="51.942841960117221" lon="-3.186819031834602">
        <ele>238.53999999999999</ele>
        <time>2026-07-11T11:45:56Z</time>
      </trkpt>
      <trkpt lat="51.94270801730454" lon="-3.186825988814235">
        <ele>238.06</ele>
        <time>2026-07-11T11:45:57Z</time>
      </trkpt>
      <trkpt lat="51.942280037328601" lon="-3.186935037374497">
        <ele>235.18000000000001</ele>
        <time>2026-07-11T11:46:00Z</time>
      </trkpt>
      <trkpt lat="51.942137964069843" lon="-3.187017012387514">
        <ele>234.22</ele>
        <time>2026-07-11T11:46:01Z</time>
      </trkpt>
      <trkpt lat="51.941862031817436" lon="-3.187153972685337">
        <ele>233.25999999999999</ele>
        <time>2026-07-11T11:46:03Z</time>
      </trkpt>
      <trkpt lat="51.941729011014104" lon="-3.187194038182497">
        <ele>232.78</ele>
        <time>2026-07-11T11:46:04Z</time>
      </trkpt>
      <trkpt lat="51.941585009917617" lon="-3.18715900182724">
        <ele>231.81</ele>
        <time>2026-07-11T11:46:05Z</time>
      </trkpt>
      <trkpt lat="51.941435979679227" lon="-3.187122959643602">
        <ele>230.84999999999999</ele>
        <time>2026-07-11T11:46:06Z</time>
      </trkpt>
      <trkpt lat="51.941279992461205" lon="-3.187084989622235">
        <ele>230.37</ele>
        <time>2026-07-11T11:46:07Z</time>
      </trkpt>
      <trkpt lat="51.939542004838586" lon="-3.186615016311407">
        <ele>220.75999999999999</ele>
        <time>2026-07-11T11:46:17Z</time>
      </trkpt>
      <trkpt lat="51.938350014388561" lon="-3.186615016311407">
        <ele>214.50999999999999</ele>
        <time>2026-07-11T11:46:24Z</time>
      </trkpt>
      <trkpt lat="51.936979992315173" lon="-3.186763040721417">
        <ele>207.78</ele>
        <time>2026-07-11T11:46:32Z</time>
      </trkpt>
      <trkpt lat="51.936315977945924" lon="-3.186705959960818">
        <ele>204.90000000000001</ele>
        <time>2026-07-11T11:46:36Z</time>
      </trkpt>
      <trkpt lat="51.935838963836432" lon="-3.186572017148137">
        <ele>202.49000000000001</ele>
        <time>2026-07-11T11:46:39Z</time>
      </trkpt>
      <trkpt lat="51.935699991881847" lon="-3.186529017984867">
        <ele>201.53</ele>
        <time>2026-07-11T11:46:40Z</time>
      </trkpt>
      <trkpt lat="51.935523971915245" lon="-3.186566988006234">
        <ele>201.05000000000001</ele>
        <time>2026-07-11T11:46:41Z</time>
      </trkpt>
      <trkpt lat="51.9353639613837" lon="-3.186602024361491">
        <ele>200.56999999999999</ele>
        <time>2026-07-11T11:46:42Z</time>
      </trkpt>
      <trkpt lat="51.9352119974792" lon="-3.186634965240955">
        <ele>200.09</ele>
        <time>2026-07-11T11:46:43Z</time>
      </trkpt>
      <trkpt lat="51.935064978897572" lon="-3.186666984111071">
        <ele>199.13</ele>
        <time>2026-07-11T11:46:44Z</time>
      </trkpt>
      <trkpt lat="51.933797970414162" lon="-3.187046013772488">
        <ele>193.84</ele>
        <time>2026-07-11T11:46:52Z</time>
      </trkpt>
      <trkpt lat="51.931946994736791" lon="-3.188084028661251">
        <ele>185.66999999999999</ele>
        <time>2026-07-11T11:47:04Z</time>
      </trkpt>
      <trkpt lat="51.930626006796956" lon="-3.189346008002758">
        <ele>177.5</ele>
        <time>2026-07-11T11:47:14Z</time>
      </trkpt>
      <trkpt lat="51.930388966575265" lon="-3.189503001049161">
        <ele>176.06</ele>
        <time>2026-07-11T11:47:16Z</time>
      </trkpt>
      <trkpt lat="51.930138012394309" lon="-3.189602997153997">
        <ele>175.09999999999999</ele>
        <time>2026-07-11T11:47:18Z</time>
      </trkpt>
      <trkpt lat="51.930013038218021" lon="-3.189585981890559">
        <ele>174.62</ele>
        <time>2026-07-11T11:47:19Z</time>
      </trkpt>
      <trkpt lat="51.929885968565941" lon="-3.189537031576037">
        <ele>173.66</ele>
        <time>2026-07-11T11:47:20Z</time>
      </trkpt>
      <trkpt lat="51.929760994389653" lon="-3.189472993835807">
        <ele>173.16999999999999</ele>
        <time>2026-07-11T11:47:21Z</time>
      </trkpt>
      <trkpt lat="51.929631996899843" lon="-3.189390012994409">
        <ele>172.69</ele>
        <time>2026-07-11T11:47:22Z</time>
      </trkpt>
      <trkpt lat="51.92949403077364" lon="-3.189291022717953">
        <ele>172.21000000000001</ele>
        <time>2026-07-11T11:47:23Z</time>
      </trkpt>
      <trkpt lat="51.929370984435081" lon="-3.18915699608624">
        <ele>171.72999999999999</ele>
        <time>2026-07-11T11:47:24Z</time>
      </trkpt>
      <trkpt lat="51.929252967238426" lon="-3.189019029960036">
        <ele>171.72999999999999</ele>
        <time>2026-07-11T11:47:25Z</time>
      </trkpt>
      <trkpt lat="51.929170992225409" lon="-3.188838986679912">
        <ele>171.25</ele>
        <time>2026-07-11T11:47:26Z</time>
      </trkpt>
      <trkpt lat="51.929077031090856" lon="-3.188696997240186">
        <ele>171.25</ele>
        <time>2026-07-11T11:47:27Z</time>
      </trkpt>
      <trkpt lat="51.92898097448051" lon="-3.188566993921995">
        <ele>171.25</ele>
        <time>2026-07-11T11:47:28Z</time>
      </trkpt>
      <trkpt lat="51.928887013345957" lon="-3.188440008088946">
        <ele>171.25</ele>
        <time>2026-07-11T11:47:29Z</time>
      </trkpt>
      <trkpt lat="51.92878601141274" lon="-3.188361972570419">
        <ele>171.25</ele>
        <time>2026-07-11T11:47:30Z</time>
      </trkpt>
      <trkpt lat="51.928670005872846" lon="-3.188304975628853">
        <ele>171.25</ele>
        <time>2026-07-11T11:47:31Z</time>
      </trkpt>
      <trkpt lat="51.928552994504571" lon="-3.188247978687286">
        <ele>171.25</ele>
        <time>2026-07-11T11:47:32Z</time>
      </trkpt>
      <trkpt lat="51.928434977307916" lon="-3.188189975917339">
        <ele>170.77000000000001</ele>
        <time>2026-07-11T11:47:33Z</time>
      </trkpt>
      <trkpt lat="51.928202966228127" lon="-3.188076987862587">
        <ele>169.33000000000001</ele>
        <time>2026-07-11T11:47:35Z</time>
      </trkpt>
      <trkpt lat="51.92807899788022" lon="-3.188015967607498">
        <ele>168.37</ele>
        <time>2026-07-11T11:47:36Z</time>
      </trkpt>
      <trkpt lat="51.927837012335658" lon="-3.187901973724365">
        <ele>166.93000000000001</ele>
        <time>2026-07-11T11:47:38Z</time>
      </trkpt>
      <trkpt lat="51.927703991532326" lon="-3.187895016744733">
        <ele>165.96000000000001</ele>
        <time>2026-07-11T11:47:39Z</time>
      </trkpt>
      <trkpt lat="51.927411966025829" lon="-3.187879007309675">
        <ele>165</ele>
        <time>2026-07-11T11:47:41Z</time>
      </trkpt>
      <trkpt lat="51.927258996292949" lon="-3.187870960682631">
        <ele>164.52000000000001</ele>
        <time>2026-07-11T11:47:42Z</time>
      </trkpt>
      <trkpt lat="51.925889980047941" lon="-3.187768030911684">
        <ele>161.16</ele>
        <time>2026-07-11T11:47:50Z</time>
      </trkpt>
      <trkpt lat="51.923983013257384" lon="-3.187380032613874">
        <ele>157.31</ele>
        <time>2026-07-11T11:48:01Z</time>
      </trkpt>
      <trkpt lat="51.922290036454797" lon="-3.187036039307714">
        <ele>156.34999999999999</ele>
        <time>2026-07-11T11:48:11Z</time>
      </trkpt>
      <trkpt lat="51.920972988009453" lon="-3.186983987689018">
        <ele>153.47</ele>
        <time>2026-07-11T11:48:18Z</time>
      </trkpt>
      <trkpt lat="51.919447984546423" lon="-3.187521016225219">
        <ele>152.99000000000001</ele>
        <time>2026-07-11T11:48:27Z</time>
      </trkpt>
      <trkpt lat="51.918320031836629" lon="-3.188363984227181">
        <ele>151.06</ele>
        <time>2026-07-11T11:48:33Z</time>
      </trkpt>
      <trkpt lat="51.91750799305737" lon="-3.18909396417439">
        <ele>149.13999999999999</ele>
        <time>2026-07-11T11:48:39Z</time>
      </trkpt>
      <trkpt lat="51.916378028690815" lon="-3.1902090087533">
        <ele>145.30000000000001</ele>
        <time>2026-07-11T11:48:47Z</time>
      </trkpt>
      <trkpt lat="51.915779979899526" lon="-3.190603964030743">
        <ele>143.84999999999999</ele>
        <time>2026-07-11T11:48:51Z</time>
      </trkpt>
      <trkpt lat="51.914361007511616" lon="-3.191054994240403">
        <ele>141.93000000000001</ele>
        <time>2026-07-11T11:48:59Z</time>
      </trkpt>
      <trkpt lat="51.913274964317679" lon="-3.191417008638382">
        <ele>140.49000000000001</ele>
        <time>2026-07-11T11:49:05Z</time>
      </trkpt>
      <trkpt lat="51.911884993314743" lon="-3.192073982208967">
        <ele>136.63999999999999</ele>
        <time>2026-07-11T11:49:12Z</time>
      </trkpt>
      <trkpt lat="51.91170402802527" lon="-3.19212201051414">
        <ele>135.68000000000001</ele>
        <time>2026-07-11T11:49:13Z</time>
      </trkpt>
      <trkpt lat="51.911519039422274" lon="-3.192146988585591">
        <ele>135.19999999999999</ele>
        <time>2026-07-11T11:49:14Z</time>
      </trkpt>
      <trkpt lat="51.911001959815621" lon="-3.192214965820313">
        <ele>134.72</ele>
        <time>2026-07-11T11:49:17Z</time>
      </trkpt>
      <trkpt lat="51.910818982869387" lon="-3.192325020208955">
        <ele>134.72</ele>
        <time>2026-07-11T11:49:18Z</time>
      </trkpt>
      <trkpt lat="51.910657966509461" lon="-3.192420993000269">
        <ele>134.24000000000001</ele>
        <time>2026-07-11T11:49:19Z</time>
      </trkpt>
      <trkpt lat="51.910335011780262" lon="-3.192603969946504">
        <ele>133.75999999999999</ele>
        <time>2026-07-11T11:49:21Z</time>
      </trkpt>
      <trkpt lat="51.910178018733859" lon="-3.192687034606934">
        <ele>133.75999999999999</ele>
        <time>2026-07-11T11:49:22Z</time>
      </trkpt>
      <trkpt lat="51.910022031515837" lon="-3.192673958837986">
        <ele>133.28</ele>
        <time>2026-07-11T11:49:23Z</time>
      </trkpt>
      <trkpt lat="51.908834986388683" lon="-3.192754006013274">
        <ele>129.91999999999999</ele>
        <time>2026-07-11T11:49:31Z</time>
      </trkpt>
      <trkpt lat="51.908294018357992" lon="-3.192969001829624">
        <ele>129.43000000000001</ele>
        <time>2026-07-11T11:49:35Z</time>
      </trkpt>
      <trkpt lat="51.906974036246538" lon="-3.193593034520745">
        <ele>128.47</ele>
        <time>2026-07-11T11:49:46Z</time>
      </trkpt>
      <trkpt lat="51.905749021098018" lon="-3.193678027018905">
        <ele>128.94999999999999</ele>
        <time>2026-07-11T11:49:57Z</time>
      </trkpt>
      <trkpt lat="51.904759034514427" lon="-3.193748015910387">
        <ele>128.47</ele>
        <time>2026-07-11T11:50:05Z</time>
      </trkpt>
      <trkpt lat="51.904622996225953" lon="-3.193754972890019">
        <ele>128.47</ele>
        <time>2026-07-11T11:50:06Z</time>
      </trkpt>
      <trkpt lat="51.90448796376586" lon="-3.193761007860303">
        <ele>127.98999999999999</ele>
        <time>2026-07-11T11:50:07Z</time>
      </trkpt>
      <trkpt lat="51.903322041034698" lon="-3.193921018391848">
        <ele>126.55</ele>
        <time>2026-07-11T11:50:16Z</time>
      </trkpt>
      <trkpt lat="51.902311015874147" lon="-3.194535998627543">
        <ele>125.11</ele>
        <time>2026-07-11T11:50:25Z</time>
      </trkpt>
      <trkpt lat="51.901304014027119" lon="-3.194811008870602">
        <ele>127.03</ele>
        <time>2026-07-11T11:50:33Z</time>
      </trkpt>
      <trkpt lat="51.901170993223786" lon="-3.194811008870602">
        <ele>127.03</ele>
        <time>2026-07-11T11:50:34Z</time>
      </trkpt>
      <trkpt lat="51.900417963042855" lon="-3.194666001945734">
        <ele>126.55</ele>
        <time>2026-07-11T11:50:39Z</time>
      </trkpt>
      <trkpt lat="51.898500015959144" lon="-3.194945035502315">
        <ele>123.19</ele>
        <time>2026-07-11T11:50:50Z</time>
      </trkpt>
      <trkpt lat="51.897768024355173" lon="-3.194906981661916">
        <ele>122.70999999999999</ele>
        <time>2026-07-11T11:50:54Z</time>
      </trkpt>
      <trkpt lat="51.89722596667707" lon="-3.194799022749066">
        <ele>122.70999999999999</ele>
        <time>2026-07-11T11:50:57Z</time>
      </trkpt>
      <trkpt lat="51.897043995559216" lon="-3.194772033020854">
        <ele>122.22</ele>
        <time>2026-07-11T11:50:58Z</time>
      </trkpt>
      <trkpt lat="51.896856995299459" lon="-3.194793993607163">
        <ele>122.22</ele>
        <time>2026-07-11T11:50:59Z</time>
      </trkpt>
      <trkpt lat="51.895888969302177" lon="-3.194875968620181">
        <ele>120.78</ele>
        <time>2026-07-11T11:51:04Z</time>
      </trkpt>
      <trkpt lat="51.895694006234407" lon="-3.194818971678615">
        <ele>120.3</ele>
        <time>2026-07-11T11:51:05Z</time>
      </trkpt>
      <trkpt lat="51.894086021929979" lon="-3.194343969225884">
        <ele>116.94</ele>
        <time>2026-07-11T11:51:13Z</time>
      </trkpt>
      <trkpt lat="51.893910001963377" lon="-3.194208014756441">
        <ele>116.45999999999999</ele>
        <time>2026-07-11T11:51:14Z</time>
      </trkpt>
      <trkpt lat="51.892464039847255" lon="-3.192860959097743">
        <ele>112.61</ele>
        <time>2026-07-11T11:51:22Z</time>
      </trkpt>
      <trkpt lat="51.890160022303462" lon="-3.190556019544601">
        <ele>107.31999999999999</ele>
        <time>2026-07-11T11:51:34Z</time>
      </trkpt>
      <trkpt lat="51.888917991891503" lon="-3.189069991931319">
        <ele>102.52</ele>
        <time>2026-07-11T11:51:41Z</time>
      </trkpt>
      <trkpt lat="51.887364992871881" lon="-3.187089012935758">
        <ele>99.629999999999995</ele>
        <time>2026-07-11T11:51:51Z</time>
      </trkpt>
      <trkpt lat="51.8867820315063" lon="-3.186250990256667">
        <ele>99.150000000000006</ele>
        <time>2026-07-11T11:51:57Z</time>
      </trkpt>
      <trkpt lat="51.886291019618511" lon="-3.185394024476409">
        <ele>100.11</ele>
        <time>2026-07-11T11:52:04Z</time>
      </trkpt>
      <trkpt lat="51.885583000257611" lon="-3.184292977675796">
        <ele>98.189999999999998</ele>
        <time>2026-07-11T11:52:13Z</time>
      </trkpt>
      <trkpt lat="51.885503036901355" lon="-3.184185018762946">
        <ele>98.189999999999998</ele>
        <time>2026-07-11T11:52:14Z</time>
      </trkpt>
      <trkpt lat="51.884827958419919" lon="-3.183282036334276">
        <ele>97.230000000000004</ele>
        <time>2026-07-11T11:52:23Z</time>
      </trkpt>
      <trkpt lat="51.884022960439324" lon="-3.181940009817481">
        <ele>96.269999999999996</ele>
        <time>2026-07-11T11:52:35Z</time>
      </trkpt>
      <trkpt lat="51.883188039064407" lon="-3.180720023810864">
        <ele>94.829999999999998</ele>
        <time>2026-07-11T11:52:44Z</time>
      </trkpt>
      <trkpt lat="51.88203401863575" lon="-3.179186973720789">
        <ele>91.939999999999998</ele>
        <time>2026-07-11T11:52:53Z</time>
      </trkpt>
      <trkpt lat="51.880497029051185" lon="-3.177195014432073">
        <ele>90.019999999999996</ele>
        <time>2026-07-11T11:53:03Z</time>
      </trkpt>
      <trkpt lat="51.878826012834907" lon="-3.175201965495944">
        <ele>88.579999999999998</ele>
        <time>2026-07-11T11:53:13Z</time>
      </trkpt>
      <trkpt lat="51.877109985798597" lon="-3.174107037484646">
        <ele>89.060000000000002</ele>
        <time>2026-07-11T11:53:22Z</time>
      </trkpt>
      <trkpt lat="51.875661006197333" lon="-3.173162983730435">
        <ele>89.540000000000006</ele>
        <time>2026-07-11T11:53:30Z</time>
      </trkpt>
      <trkpt lat="51.874586027115583" lon="-3.172338036820293">
        <ele>88.099999999999994</ele>
        <time>2026-07-11T11:53:36Z</time>
      </trkpt>
      <trkpt lat="51.874441020190716" lon="-3.172153970226646">
        <ele>87.620000000000005</ele>
        <time>2026-07-11T11:53:37Z</time>
      </trkpt>
      <trkpt lat="51.874315962195396" lon="-3.171936962753534">
        <ele>87.140000000000001</ele>
        <time>2026-07-11T11:53:38Z</time>
      </trkpt>
      <trkpt lat="51.874200962483883" lon="-3.171702018007636">
        <ele>86.659999999999997</ele>
        <time>2026-07-11T11:53:39Z</time>
      </trkpt>
      <trkpt lat="51.874093003571033" lon="-3.171451985836029">
        <ele>86.180000000000007</ele>
        <time>2026-07-11T11:53:40Z</time>
      </trkpt>
      <trkpt lat="51.874001976102591" lon="-3.171178987249732">
        <ele>85.689999999999998</ele>
        <time>2026-07-11T11:53:41Z</time>
      </trkpt>
      <trkpt lat="51.87331298366189" lon="-3.168859966099262">
        <ele>82.329999999999998</ele>
        <time>2026-07-11T11:53:49Z</time>
      </trkpt>
      <trkpt lat="51.87318398617208" lon="-3.168597025796771">
        <ele>81.849999999999994</ele>
        <time>2026-07-11T11:53:50Z</time>
      </trkpt>
      <trkpt lat="51.873045014217496" lon="-3.168340036645532">
        <ele>80.890000000000001</ele>
        <time>2026-07-11T11:53:51Z</time>
      </trkpt>
      <trkpt lat="51.872248984873295" lon="-3.167109992355108">
        <ele>76.079999999999998</ele>
        <time>2026-07-11T11:53:57Z</time>
      </trkpt>
      <trkpt lat="51.872135996818542" lon="-3.167066993191838">
        <ele>74.640000000000001</ele>
        <time>2026-07-11T11:53:58Z</time>
      </trkpt>
      <trkpt lat="51.872077994048595" lon="-3.167045032605529">
        <ele>74.159999999999997</ele>
        <time>2026-07-11T11:53:59Z</time>
      </trkpt>
      <trkpt lat="51.871810024604201" lon="-3.166952999308705">
        <ele>71.269999999999996</ele>
        <time>2026-07-11T11:54:05Z</time>
      </trkpt>
      <trkpt lat="51.871783034875989" lon="-3.166837999597192">
        <ele>70.790000000000006</ele>
        <time>2026-07-11T11:54:09Z</time>
      </trkpt>
      <trkpt lat="51.871759984642267" lon="-3.166739009320736">
        <ele>70.790000000000006</ele>
        <time>2026-07-11T11:54:10Z</time>
      </trkpt>
      <trkpt lat="51.871360000222921" lon="-3.165391031652689">
        <ele>70.310000000000002</ele>
        <time>2026-07-11T11:54:20Z</time>
      </trkpt>
      <trkpt lat="51.871137963607907" lon="-3.164747972041369">
        <ele>70.790000000000006</ele>
        <time>2026-07-11T11:54:24Z</time>
      </trkpt>
      <trkpt lat="51.871070992201567" lon="-3.164587961509824">
        <ele>71.269999999999996</ele>
        <time>2026-07-11T11:54:25Z</time>
      </trkpt>
      <trkpt lat="51.870355010032654" lon="-3.162780990824103">
        <ele>74.159999999999997</ele>
        <time>2026-07-11T11:54:35Z</time>
      </trkpt>
      <trkpt lat="51.869770959019661" lon="-3.160709990188479">
        <ele>76.560000000000002</ele>
        <time>2026-07-11T11:54:43Z</time>
      </trkpt>
      <trkpt lat="51.869168970733881" lon="-3.158147977665067">
        <ele>78</ele>
        <time>2026-07-11T11:54:52Z</time>
      </trkpt>
      <trkpt lat="51.8685860093683" lon="-3.155526034533978">
        <ele>78</ele>
        <time>2026-07-11T11:55:01Z</time>
      </trkpt>
      <trkpt lat="51.867893999442458" lon="-3.152947006747127">
        <ele>78.969999999999999</ele>
        <time>2026-07-11T11:55:09Z</time>
      </trkpt>
      <trkpt lat="51.867799032479525" lon="-3.152604019269347">
        <ele>79.450000000000003</ele>
        <time>2026-07-11T11:55:10Z</time>
      </trkpt>
      <trkpt lat="51.867032004520297" lon="-3.150642989203334">
        <ele>78</ele>
        <time>2026-07-11T11:55:16Z</time>
      </trkpt>
      <trkpt lat="51.866610981523991" lon="-3.149745035916567">
        <ele>77.519999999999996</ele>
        <time>2026-07-11T11:55:19Z</time>
      </trkpt>
      <trkpt lat="51.866506962105632" lon="-3.149440018460155">
        <ele>77.519999999999996</ele>
        <time>2026-07-11T11:55:20Z</time>
      </trkpt>
      <trkpt lat="51.8656400218606" lon="-3.146282974630594">
        <ele>80.409999999999997</ele>
        <time>2026-07-11T11:55:30Z</time>
      </trkpt>
      <trkpt lat="51.865055970847607" lon="-3.144191019237042">
        <ele>81.370000000000005</ele>
        <time>2026-07-11T11:55:38Z</time>
      </trkpt>
      <trkpt lat="51.864660009741783" lon="-3.142844969406724">
        <ele>86.180000000000007</ele>
        <time>2026-07-11T11:55:46Z</time>
      </trkpt>
      <trkpt lat="51.864406038075686" lon="-3.142224960029125">
        <ele>88.579999999999998</ele>
        <time>2026-07-11T11:55:51Z</time>
      </trkpt>
      <trkpt lat="51.86428701505065" lon="-3.142023961991072">
        <ele>89.540000000000006</ele>
        <time>2026-07-11T11:55:53Z</time>
      </trkpt>
      <trkpt lat="51.864216020330787" lon="-3.141928995028138">
        <ele>90.5</ele>
        <time>2026-07-11T11:55:54Z</time>
      </trkpt>
      <trkpt lat="51.864142008125782" lon="-3.141831010580063">
        <ele>90.5</ele>
        <time>2026-07-11T11:55:55Z</time>
      </trkpt>
      <trkpt lat="51.863914020359516" lon="-3.141525993123651">
        <ele>91.459999999999994</ele>
        <time>2026-07-11T11:55:58Z</time>
      </trkpt>
      <trkpt lat="51.8637749645859" lon="-3.141303034499288">
        <ele>90.980000000000004</ele>
        <time>2026-07-11T11:56:00Z</time>
      </trkpt>
      <trkpt lat="51.863712016493082" lon="-3.141181999817491">
        <ele>90.980000000000004</ele>
        <time>2026-07-11T11:56:01Z</time>
      </trkpt>
      <trkpt lat="51.863648984581232" lon="-3.141059037297964">
        <ele>90.980000000000004</ele>
        <time>2026-07-11T11:56:02Z</time>
      </trkpt>
      <trkpt lat="51.862907018512487" lon="-3.13978498801589">
        <ele>90.980000000000004</ele>
        <time>2026-07-11T11:56:13Z</time>
      </trkpt>
      <trkpt lat="51.86196899972856" lon="-3.13866700977087">
        <ele>85.209999999999994</ele>
        <time>2026-07-11T11:56:25Z</time>
      </trkpt>
      <trkpt lat="51.861301967874169" lon="-3.137665959075093">
        <ele>90.019999999999996</ele>
        <time>2026-07-11T11:56:34Z</time>
      </trkpt>
      <trkpt lat="51.861228039488196" lon="-3.13759203068912">
        <ele>90.019999999999996</ele>
        <time>2026-07-11T11:56:35Z</time>
      </trkpt>
      <trkpt lat="51.861157966777682" lon="-3.137558000162244">
        <ele>90.5</ele>
        <time>2026-07-11T11:56:36Z</time>
      </trkpt>
      <trkpt lat="51.86091598123312" lon="-3.137479964643717">
        <ele>92.420000000000002</ele>
        <time>2026-07-11T11:56:40Z</time>
      </trkpt>
      <trkpt lat="51.860853033140302" lon="-3.137485999614">
        <ele>92.900000000000006</ele>
        <time>2026-07-11T11:56:41Z</time>
      </trkpt>
      <trkpt lat="51.860783966258168" lon="-3.137491028755903">
        <ele>92.900000000000006</ele>
        <time>2026-07-11T11:56:42Z</time>
      </trkpt>
      <trkpt lat="51.860213996842504" lon="-3.137569986283779">
        <ele>89.060000000000002</ele>
        <time>2026-07-11T11:56:50Z</time>
      </trkpt>
      <trkpt lat="51.860039988532662" lon="-3.137545008212328">
        <ele>88.099999999999994</ele>
        <time>2026-07-11T11:56:53Z</time>
      </trkpt>
      <trkpt lat="51.859987014904618" lon="-3.137535033747554">
        <ele>87.620000000000005</ele>
        <time>2026-07-11T11:56:54Z</time>
      </trkpt>
      <trkpt lat="51.85951896943152" lon="-3.137272009626031">
        <ele>88.579999999999998</ele>
        <time>2026-07-11T11:57:02Z</time>
      </trkpt>
      <trkpt lat="51.859471024945378" lon="-3.137253988534212">
        <ele>89.060000000000002</ele>
        <time>2026-07-11T11:57:03Z</time>
      </trkpt>
      <trkpt lat="51.859424002468586" lon="-3.137242002412677">
        <ele>89.060000000000002</ele>
        <time>2026-07-11T11:57:04Z</time>
      </trkpt>
      <trkpt lat="51.859269021078944" lon="-3.137203026562929">
        <ele>90.019999999999996</ele>
        <time>2026-07-11T11:57:08Z</time>
      </trkpt>
      <trkpt lat="51.85913197696209" lon="-3.13716203905642">
        <ele>90.980000000000004</ele>
        <time>2026-07-11T11:57:15Z</time>
      </trkpt>
      <trkpt lat="51.858811033889651" lon="-3.136913012713194">
        <ele>91.459999999999994</ele>
        <time>2026-07-11T11:57:25Z</time>
      </trkpt>
      <trkpt lat="51.858738027513027" lon="-3.13684000633657">
        <ele>91.459999999999994</ele>
        <time>2026-07-11T11:57:27Z</time>
      </trkpt>
      <trkpt lat="51.858697962015867" lon="-3.136801030486822">
        <ele>91.939999999999998</ele>
        <time>2026-07-11T11:57:28Z</time>
      </trkpt>
      <trkpt lat="51.858653035014868" lon="-3.136759037151933">
        <ele>91.939999999999998</ele>
        <time>2026-07-11T11:57:29Z</time>
      </trkpt>
      <trkpt lat="51.858346005901694" lon="-3.136470029130578">
        <ele>95.790000000000006</ele>
        <time>2026-07-11T11:57:38Z</time>
      </trkpt>
      <trkpt lat="51.858311975374818" lon="-3.136429041624069">
        <ele>96.269999999999996</ele>
        <time>2026-07-11T11:57:39Z</time>
      </trkpt>
      <trkpt lat="51.85786304064095" lon="-3.135867035016418">
        <ele>97.230000000000004</ele>
        <time>2026-07-11T11:57:48Z</time>
      </trkpt>
      <trkpt lat="51.857129959389567" lon="-3.134903032332659">
        <ele>94.349999999999994</ele>
        <time>2026-07-11T11:57:58Z</time>
      </trkpt>
      <trkpt lat="51.856472985818982" lon="-3.133614985272288">
        <ele>89.060000000000002</ele>
        <time>2026-07-11T11:58:08Z</time>
      </trkpt>
      <trkpt lat="51.855536978691816" lon="-3.131755040958524">
        <ele>80.409999999999997</ele>
        <time>2026-07-11T11:58:20Z</time>
      </trkpt>
      <trkpt lat="51.854610024020076" lon="-3.129735002294183">
        <ele>72.239999999999995</ele>
        <time>2026-07-11T11:58:29Z</time>
      </trkpt>
      <trkpt lat="51.853449968621135" lon="-3.127048015594482">
        <ele>70.310000000000002</ele>
        <time>2026-07-11T11:58:39Z</time>
      </trkpt>
      <trkpt lat="51.852339031174779" lon="-3.125079022720456">
        <ele>69.349999999999994</ele>
        <time>2026-07-11T11:58:46Z</time>
      </trkpt>
      <trkpt lat="51.850513033568859" lon="-3.123228969052434">
        <ele>67.909999999999997</ele>
        <time>2026-07-11T11:58:55Z</time>
      </trkpt>
      <trkpt lat="51.84881997294724" lon="-3.121018996462226">
        <ele>66.950000000000003</ele>
        <time>2026-07-11T11:59:04Z</time>
      </trkpt>
      <trkpt lat="51.846201969310641" lon="-3.117575040087104">
        <ele>65.989999999999995</ele>
        <time>2026-07-11T11:59:18Z</time>
      </trkpt>
      <trkpt lat="51.845199996605515" lon="-3.116452032700181">
        <ele>66.469999999999999</ele>
        <time>2026-07-11T11:59:24Z</time>
      </trkpt>
      <trkpt lat="51.843844978138804" lon="-3.114914037287235">
        <ele>68.390000000000001</ele>
        <time>2026-07-11T11:59:34Z</time>
      </trkpt>
      <trkpt lat="51.843105023726821" lon="-3.113918015733361">
        <ele>67.909999999999997</ele>
        <time>2026-07-11T11:59:41Z</time>
      </trkpt>
      <trkpt lat="51.842409996315837" lon="-3.1127970200032">
        <ele>67.430000000000007</ele>
        <time>2026-07-11T11:59:49Z</time>
      </trkpt>
      <trkpt lat="51.841762997210026" lon="-3.111632019281387">
        <ele>68.870000000000005</ele>
        <time>2026-07-11T11:59:58Z</time>
      </trkpt>
      <trkpt lat="51.841085990890861" lon="-3.110152026638389">
        <ele>71.760000000000005</ele>
        <time>2026-07-11T12:00:08Z</time>
      </trkpt>
      <trkpt lat="51.840729005634785" lon="-3.108328962698579">
        <ele>71.760000000000005</ele>
        <time>2026-07-11T12:00:18Z</time>
      </trkpt>
      <trkpt lat="51.840705033391714" lon="-3.107971977442503">
        <ele>70.790000000000006</ele>
        <time>2026-07-11T12:00:20Z</time>
      </trkpt>
      <trkpt lat="51.840517027303576" lon="-3.106006002053618">
        <ele>66.950000000000003</ele>
        <time>2026-07-11T12:00:31Z</time>
      </trkpt>
      <trkpt lat="51.840456007048488" lon="-3.104951977729797">
        <ele>67.430000000000007</ele>
        <time>2026-07-11T12:00:40Z</time>
      </trkpt>
      <trkpt lat="51.840479979291558" lon="-3.104560961946845">
        <ele>68.870000000000005</ele>
        <time>2026-07-11T12:00:43Z</time>
      </trkpt>
      <trkpt lat="51.840620962902904" lon="-3.102878965437412">
        <ele>68.870000000000005</ele>
        <time>2026-07-11T12:00:51Z</time>
      </trkpt>
      <trkpt lat="51.840620962902904" lon="-3.101783031597734">
        <ele>68.390000000000001</ele>
        <time>2026-07-11T12:00:55Z</time>
      </trkpt>
      <trkpt lat="51.840495988726616" lon="-3.099075006321073">
        <ele>69.829999999999998</ele>
        <time>2026-07-11T12:01:04Z</time>
      </trkpt>
      <trkpt lat="51.840547034516931" lon="-3.09677098877728">
        <ele>69.349999999999994</ele>
        <time>2026-07-11T12:01:12Z</time>
      </trkpt>
      <trkpt lat="51.840554997324944" lon="-3.096258016303182">
        <ele>68.870000000000005</ele>
        <time>2026-07-11T12:01:14Z</time>
      </trkpt>
      <trkpt lat="51.840523984283209" lon="-3.095775973051786">
        <ele>68.390000000000001</ele>
        <time>2026-07-11T12:01:16Z</time>
      </trkpt>
      <trkpt lat="51.840488025918603" lon="-3.095552008599043">
        <ele>67.909999999999997</ele>
        <time>2026-07-11T12:01:17Z</time>
      </trkpt>
      <trkpt lat="51.84028803370893" lon="-3.093610005453229">
        <ele>68.390000000000001</ele>
        <time>2026-07-11T12:01:25Z</time>
      </trkpt>
      <trkpt lat="51.840237993746996" lon="-3.092052983120084">
        <ele>71.269999999999996</ele>
        <time>2026-07-11T12:01:31Z</time>
      </trkpt>
      <trkpt lat="51.840061973780394" lon="-3.089765980839729">
        <ele>78</ele>
        <time>2026-07-11T12:01:40Z</time>
      </trkpt>
      <trkpt lat="51.839581020176411" lon="-3.088131006807089">
        <ele>77.040000000000006</ele>
        <time>2026-07-11T12:01:47Z</time>
      </trkpt>
      <trkpt lat="51.839068969711661" lon="-3.086901968345046">
        <ele>71.760000000000005</ele>
        <time>2026-07-11T12:01:51Z</time>
      </trkpt>
      <trkpt lat="51.838438985869288" lon="-3.085390040650964">
        <ele>66.469999999999999</ele>
        <time>2026-07-11T12:01:56Z</time>
      </trkpt>
      <trkpt lat="51.837881002575159" lon="-3.083360027521849">
        <ele>62.140000000000001</ele>
        <time>2026-07-11T12:02:04Z</time>
      </trkpt>
      <trkpt lat="51.837289994582534" lon="-3.080964982509613">
        <ele>57.340000000000003</ele>
        <time>2026-07-11T12:02:14Z</time>
      </trkpt>
      <trkpt lat="51.836755983531475" lon="-3.079006969928742">
        <ele>53.490000000000002</ele>
        <time>2026-07-11T12:02:20Z</time>
      </trkpt>
      <trkpt lat="51.836386006325483" lon="-3.077552961185575">
        <ele>52.530000000000001</ele>
        <time>2026-07-11T12:02:24Z</time>
      </trkpt>
      <trkpt lat="51.836321968585253" lon="-3.077161023393273">
        <ele>52.049999999999997</ele>
        <time>2026-07-11T12:02:25Z</time>
      </trkpt>
      <trkpt lat="51.836302019655704" lon="-3.076773025095463">
        <ele>51.57</ele>
        <time>2026-07-11T12:02:26Z</time>
      </trkpt>
      <trkpt lat="51.836133962497115" lon="-3.074306985363364">
        <ele>49.159999999999997</ele>
        <time>2026-07-11T12:02:33Z</time>
      </trkpt>
      <trkpt lat="51.836048969998956" lon="-3.073985958471894">
        <ele>49.159999999999997</ele>
        <time>2026-07-11T12:02:34Z</time>
      </trkpt>
      <trkpt lat="51.835959032177925" lon="-3.073670966550708">
        <ele>49.649999999999999</ele>
        <time>2026-07-11T12:02:35Z</time>
      </trkpt>
      <trkpt lat="51.835523005574942" lon="-3.072346039116383">
        <ele>51.57</ele>
        <time>2026-07-11T12:02:40Z</time>
      </trkpt>
      <trkpt lat="51.835389984771609" lon="-3.070748029276729">
        <ele>53.969999999999999</ele>
        <time>2026-07-11T12:02:46Z</time>
      </trkpt>
      <trkpt lat="51.835329970344901" lon="-3.069223025813699">
        <ele>53.969999999999999</ele>
        <time>2026-07-11T12:02:51Z</time>
      </trkpt>
      <trkpt lat="51.83528495952487" lon="-3.068941980600357">
        <ele>53.969999999999999</ele>
        <time>2026-07-11T12:02:52Z</time>
      </trkpt>
      <trkpt lat="51.835150010883808" lon="-3.068386008962989">
        <ele>53.969999999999999</ele>
        <time>2026-07-11T12:02:54Z</time>
      </trkpt>
      <trkpt lat="51.835063006728888" lon="-3.068123990669847">
        <ele>53.969999999999999</ele>
        <time>2026-07-11T12:02:55Z</time>
      </trkpt>
      <trkpt lat="51.834491025656462" lon="-3.066578032448888">
        <ele>52.049999999999997</ele>
        <time>2026-07-11T12:03:01Z</time>
      </trkpt>
      <trkpt lat="51.834362028166652" lon="-3.066366976127029">
        <ele>51.57</ele>
        <time>2026-07-11T12:03:02Z</time>
      </trkpt>
      <trkpt lat="51.833861963823438" lon="-3.065469022840262">
        <ele>50.130000000000003</ele>
        <time>2026-07-11T12:03:06Z</time>
      </trkpt>
      <trkpt lat="51.833750987425447" lon="-3.065218990668654">
        <ele>49.649999999999999</ele>
        <time>2026-07-11T12:03:07Z</time>
      </trkpt>
      <trkpt lat="51.833674963563681" lon="-3.064938029274344">
        <ele>49.159999999999997</ele>
        <time>2026-07-11T12:03:08Z</time>
      </trkpt>
      <trkpt lat="51.833613021299243" lon="-3.064655978232622">
        <ele>48.68</ele>
        <time>2026-07-11T12:03:09Z</time>
      </trkpt>
      <trkpt lat="51.833562981337309" lon="-3.06437099352479">
        <ele>48.68</ele>
        <time>2026-07-11T12:03:10Z</time>
      </trkpt>
      <trkpt lat="51.833525011315942" lon="-3.064076034352183">
        <ele>48.200000000000003</ele>
        <time>2026-07-11T12:03:11Z</time>
      </trkpt>
      <trkpt lat="51.833348991349339" lon="-3.061344036832452">
        <ele>48.68</ele>
        <time>2026-07-11T12:03:20Z</time>
      </trkpt>
      <trkpt lat="51.833363994956017" lon="-3.058665012940764">
        <ele>48.68</ele>
        <time>2026-07-11T12:03:29Z</time>
      </trkpt>
      <trkpt lat="51.833210019394755" lon="-3.056301986798644">
        <ele>46.759999999999998</ele>
        <time>2026-07-11T12:03:35Z</time>
      </trkpt>
      <trkpt lat="51.832893015816808" lon="-3.05352003313601">
        <ele>46.759999999999998</ele>
        <time>2026-07-11T12:03:42Z</time>
      </trkpt>
      <trkpt lat="51.832627980038524" lon="-3.051088023930788">
        <ele>49.159999999999997</ele>
        <time>2026-07-11T12:03:49Z</time>
      </trkpt>
      <trkpt lat="51.832111990079284" lon="-3.048089984804392">
        <ele>54.93</ele>
        <time>2026-07-11T12:03:58Z</time>
      </trkpt>
      <trkpt lat="51.831445964053273" lon="-3.045344995334745">
        <ele>60.219999999999999</ele>
        <time>2026-07-11T12:04:08Z</time>
      </trkpt>
      <trkpt lat="51.830616993829608" lon="-3.043522015213966">
        <ele>64.069999999999993</ele>
        <time>2026-07-11T12:04:17Z</time>
      </trkpt>
      <trkpt lat="51.829691966995597" lon="-3.041800959035754">
        <ele>63.579999999999998</ele>
        <time>2026-07-11T12:04:26Z</time>
      </trkpt>
      <trkpt lat="51.828741962090135" lon="-3.040234968066216">
        <ele>56.859999999999999</ele>
        <time>2026-07-11T12:04:35Z</time>
      </trkpt>
      <trkpt lat="51.827735966071486" lon="-3.03858800791204">
        <ele>51.57</ele>
        <time>2026-07-11T12:04:45Z</time>
      </trkpt>
      <trkpt lat="51.827017972245812" lon="-3.037344971671701">
        <ele>50.130000000000003</ele>
        <time>2026-07-11T12:04:54Z</time>
      </trkpt>
      <trkpt lat="51.826347000896931" lon="-3.035582005977631">
        <ele>50.609999999999999</ele>
        <time>2026-07-11T12:05:04Z</time>
      </trkpt>
      <trkpt lat="51.826221020892262" lon="-3.035223009064794">
        <ele>52.049999999999997</ele>
        <time>2026-07-11T12:05:06Z</time>
      </trkpt>
      <trkpt lat="51.82559497654438" lon="-3.033664980903268">
        <ele>53.969999999999999</ele>
        <time>2026-07-11T12:05:16Z</time>
      </trkpt>
      <trkpt lat="51.825513001531363" lon="-3.033315036445856">
        <ele>54.93</ele>
        <time>2026-07-11T12:05:18Z</time>
      </trkpt>
      <trkpt lat="51.825448963791132" lon="-3.032947992905974">
        <ele>56.369999999999997</ele>
        <time>2026-07-11T12:05:20Z</time>
      </trkpt>
      <trkpt lat="51.825441000983119" lon="-3.032773984596133">
        <ele>56.859999999999999</ele>
        <time>2026-07-11T12:05:21Z</time>
      </trkpt>
      <trkpt lat="51.825433038175106" lon="-3.032612968236208">
        <ele>57.340000000000003</ele>
        <time>2026-07-11T12:05:22Z</time>
      </trkpt>
      <trkpt lat="51.825380986556411" lon="-3.030805997550488">
        <ele>59.740000000000002</ele>
        <time>2026-07-11T12:05:34Z</time>
      </trkpt>
      <trkpt lat="51.825221981853247" lon="-3.028800962492824">
        <ele>58.780000000000001</ele>
        <time>2026-07-11T12:05:48Z</time>
      </trkpt>
      <trkpt lat="51.825179988518357" lon="-3.028193023055792">
        <ele>60.219999999999999</ele>
        <time>2026-07-11T12:05:53Z</time>
      </trkpt>
      <trkpt lat="51.825117040425539" lon="-3.027750961482525">
        <ele>60.219999999999999</ele>
        <time>2026-07-11T12:05:57Z</time>
      </trkpt>
      <trkpt lat="51.825085021555424" lon="-3.027526997029781">
        <ele>59.740000000000002</ele>
        <time>2026-07-11T12:06:00Z</time>
      </trkpt>
      <trkpt lat="51.82507798075676" lon="-3.027332033962011">
        <ele>59.740000000000002</ele>
        <time>2026-07-11T12:06:01Z</time>
      </trkpt>
      <trkpt lat="51.825063982978463" lon="-3.027313007041812">
        <ele>59.259999999999998</ele>
        <time>2026-07-11T12:06:02Z</time>
      </trkpt>
      <trkpt lat="51.824959963560104" lon="-3.027380984276533">
        <ele>59.259999999999998</ele>
        <time>2026-07-11T12:06:03Z</time>
      </trkpt>
      <trkpt lat="51.824886035174131" lon="-3.027390036731958">
        <ele>58.780000000000001</ele>
        <time>2026-07-11T12:06:04Z</time>
      </trkpt>
      <trkpt lat="51.824805987998843" lon="-3.027399005368352">
        <ele>58.780000000000001</ele>
        <time>2026-07-11T12:06:05Z</time>
      </trkpt>
      <trkpt lat="51.824725018814206" lon="-3.027418032288551">
        <ele>58.299999999999997</ele>
        <time>2026-07-11T12:06:06Z</time>
      </trkpt>
      <trkpt lat="51.824637008830905" lon="-3.0274379812181">
        <ele>58.299999999999997</ele>
        <time>2026-07-11T12:06:07Z</time>
      </trkpt>
      <trkpt lat="51.824375996366143" lon="-3.027547029778361">
        <ele>57.82</ele>
        <time>2026-07-11T12:06:10Z</time>
      </trkpt>
      <trkpt lat="51.824294021353126" lon="-3.027625987306237">
        <ele>57.82</ele>
        <time>2026-07-11T12:06:11Z</time>
      </trkpt>
      <trkpt lat="51.824122024700046" lon="-3.027791026979685">
        <ele>58.780000000000001</ele>
        <time>2026-07-11T12:06:13Z</time>
      </trkpt>
      <trkpt lat="51.823396990075707" lon="-3.02855595946312">
        <ele>58.299999999999997</ele>
        <time>2026-07-11T12:06:21Z</time>
      </trkpt>
      <trkpt lat="51.822471963241696" lon="-3.02939398214221">
        <ele>58.299999999999997</ele>
        <time>2026-07-11T12:06:31Z</time>
      </trkpt>
      <trkpt lat="51.821637963876128" lon="-3.029717020690441">
        <ele>51.090000000000003</ele>
        <time>2026-07-11T12:06:41Z</time>
      </trkpt>
      <trkpt lat="51.821553977206349" lon="-3.029733030125499">
        <ele>50.130000000000003</ele>
        <time>2026-07-11T12:06:42Z</time>
      </trkpt>
      <trkpt lat="51.821466973051429" lon="-3.029749039560556">
        <ele>49.159999999999997</ele>
        <time>2026-07-11T12:06:43Z</time>
      </trkpt>
      <trkpt lat="51.821235967800021" lon="-3.029726995155215">
        <ele>46.759999999999998</ele>
        <time>2026-07-11T12:06:46Z</time>
      </trkpt>
      <trkpt lat="51.821154998615384" lon="-3.029712997376919">
        <ele>46.280000000000001</ele>
        <time>2026-07-11T12:06:47Z</time>
      </trkpt>
      <trkpt lat="51.821050979197025" lon="-3.0296949762851">
        <ele>45.32</ele>
        <time>2026-07-11T12:06:48Z</time>
      </trkpt>
      <trkpt lat="51.821012003347278" lon="-3.029668992385268">
        <ele>44.840000000000003</ele>
        <time>2026-07-11T12:06:49Z</time>
      </trkpt>
      <trkpt lat="51.820957018062472" lon="-3.029632028192282">
        <ele>43.880000000000003</ele>
        <time>2026-07-11T12:06:50Z</time>
      </trkpt>
      <trkpt lat="51.820907983928919" lon="-3.029599003493786">
        <ele>42.920000000000002</ele>
        <time>2026-07-11T12:06:51Z</time>
      </trkpt>
      <trkpt lat="51.820864984765649" lon="-3.029571007937193">
        <ele>41.950000000000003</ele>
        <time>2026-07-11T12:06:52Z</time>
      </trkpt>
      <trkpt lat="51.820793990045786" lon="-3.02952297963202">
        <ele>40.990000000000002</ele>
        <time>2026-07-11T12:06:53Z</time>
      </trkpt>
      <trkpt lat="51.820793990045786" lon="-3.02952297963202">
        <ele>40.509999999999998</ele>
        <time>2026-07-11T12:06:54Z</time>
      </trkpt>
      <trkpt lat="51.820739004760981" lon="-3.029449973255396">
        <ele>36.189999999999998</ele>
        <time>2026-07-11T12:07:02Z</time>
      </trkpt>
      <trkpt lat="51.820685025304556" lon="-3.029176974669099">
        <ele>36.670000000000002</ele>
        <time>2026-07-11T12:07:12Z</time>
      </trkpt>
      <trkpt lat="51.820625010877848" lon="-3.029100028797984">
        <ele>36.670000000000002</ele>
        <time>2026-07-11T12:07:13Z</time>
      </trkpt>
      <trkpt lat="51.820578994229436" lon="-3.029115032404661">
        <ele>37.149999999999999</ele>
        <time>2026-07-11T12:07:14Z</time>
      </trkpt>
      <trkpt lat="51.820530965924263" lon="-3.029131041839719">
        <ele>36.670000000000002</ele>
        <time>2026-07-11T12:07:15Z</time>
      </trkpt>
      <trkpt lat="51.820296021178365" lon="-3.029276970773935">
        <ele>38.109999999999999</ele>
        <time>2026-07-11T12:07:23Z</time>
      </trkpt>
      <trkpt lat="51.820278000086546" lon="-3.029279988259077">
        <ele>37.630000000000003</ele>
        <time>2026-07-11T12:07:24Z</time>
      </trkpt>
      <trkpt lat="51.820278000086546" lon="-3.029279988259077">
        <ele>37.630000000000003</ele>
        <time>2026-07-11T12:07:25Z</time>
      </trkpt>
      <trkpt lat="51.820236006751657" lon="-3.029287029057741">
        <ele>37.149999999999999</ele>
        <time>2026-07-11T12:07:28Z</time>
      </trkpt>
      <trkpt lat="51.820207005366683" lon="-3.029291974380612">
        <ele>37.149999999999999</ele>
        <time>2026-07-11T12:07:29Z</time>
      </trkpt>
      <trkpt lat="51.82017900981009" lon="-3.029295997694135">
        <ele>37.149999999999999</ele>
        <time>2026-07-11T12:07:30Z</time>
      </trkpt>
      <trkpt lat="51.81968598626554" lon="-3.029235983267427">
        <ele>39.07</ele>
        <time>2026-07-11T12:07:39Z</time>
      </trkpt>
      <trkpt lat="51.819538967683911" lon="-3.029209999367595">
        <ele>40.030000000000001</ele>
        <time>2026-07-11T12:07:41Z</time>
      </trkpt>
      <trkpt lat="51.819353979080915" lon="-3.029145039618015">
        <ele>40.990000000000002</ele>
        <time>2026-07-11T12:07:45Z</time>
      </trkpt>
      <trkpt lat="51.819315003231168" lon="-3.029127018526197">
        <ele>41.469999999999999</ele>
        <time>2026-07-11T12:07:46Z</time>
      </trkpt>
      <trkpt lat="51.819087015464902" lon="-3.029003972187638">
        <ele>44.840000000000003</ele>
        <time>2026-07-11T12:07:57Z</time>
      </trkpt>
      <trkpt lat="51.818791972473264" lon="-3.028825018554926">
        <ele>45.799999999999997</ele>
        <time>2026-07-11T12:08:07Z</time>
      </trkpt>
      <trkpt lat="51.818198030814528" lon="-3.028471972793341">
        <ele>46.759999999999998</ele>
        <time>2026-07-11T12:08:18Z</time>
      </trkpt>
      <trkpt lat="51.818039026111364" lon="-3.028305005282164">
        <ele>48.68</ele>
        <time>2026-07-11T12:08:25Z</time>
      </trkpt>
      <trkpt lat="51.817984962835908" lon="-3.028241973370314">
        <ele>48.68</ele>
        <time>2026-07-11T12:08:26Z</time>
      </trkpt>
      <trkpt lat="51.817904999479651" lon="-3.028253959491849">
        <ele>48.68</ele>
        <time>2026-07-11T12:08:27Z</time>
      </trkpt>
      <trkpt lat="51.817857977002859" lon="-3.028287990018725">
        <ele>48.68</ele>
        <time>2026-07-11T12:08:28Z</time>
      </trkpt>
      <trkpt lat="51.817811038345098" lon="-3.028321014717221">
        <ele>48.200000000000003</ele>
        <time>2026-07-11T12:08:29Z</time>
      </trkpt>
      <trkpt lat="51.817811038345098" lon="-3.028321014717221">
        <ele>48.200000000000003</ele>
        <time>2026-07-11T12:08:30Z</time>
      </trkpt>
      <trkpt lat="51.817728979513049" lon="-3.02849099971354">
        <ele>48.200000000000003</ele>
        <time>2026-07-11T12:08:31Z</time>
      </trkpt>
      <trkpt lat="51.817629989236593" lon="-3.028594013303518">
        <ele>48.200000000000003</ele>
        <time>2026-07-11T12:08:33Z</time>
      </trkpt>
      <trkpt lat="51.817586990073323" lon="-3.028672970831394">
        <ele>48.68</ele>
        <time>2026-07-11T12:08:34Z</time>
      </trkpt>
      <trkpt lat="51.817548014223576" lon="-3.028745977208018">
        <ele>49.649999999999999</ele>
        <time>2026-07-11T12:08:35Z</time>
      </trkpt>
      <trkpt lat="51.817513983696699" lon="-3.028809009119868">
        <ele>50.130000000000003</ele>
        <time>2026-07-11T12:08:36Z</time>
      </trkpt>
      <trkpt lat="51.81749302893877" lon="-3.028860976919532">
        <ele>50.609999999999999</ele>
        <time>2026-07-11T12:08:37Z</time>
      </trkpt>
      <trkpt lat="51.817453969269991" lon="-3.028959967195988">
        <ele>52.049999999999997</ele>
        <time>2026-07-11T12:08:39Z</time>
      </trkpt>
      <trkpt lat="51.81742899119854" lon="-3.02902702242136">
        <ele>52.530000000000001</ele>
        <time>2026-07-11T12:08:40Z</time>
      </trkpt>
      <trkpt lat="51.817314997315407" lon="-3.029319969937205">
        <ele>54.450000000000003</ele>
        <time>2026-07-11T12:08:43Z</time>
      </trkpt>
      <trkpt lat="51.817209972068667" lon="-3.029544018208981">
        <ele>55.890000000000001</ele>
        <time>2026-07-11T12:08:47Z</time>
      </trkpt>
      <trkpt lat="51.817175019532442" lon="-3.029518034309149">
        <ele>55.409999999999997</ele>
        <time>2026-07-11T12:08:48Z</time>
      </trkpt>
      <trkpt lat="51.817123973742127" lon="-3.02947998046875">
        <ele>54.93</ele>
        <time>2026-07-11T12:08:49Z</time>
      </trkpt>
      <trkpt lat="51.817123973742127" lon="-3.029447039589286">
        <ele>54.450000000000003</ele>
        <time>2026-07-11T12:08:50Z</time>
      </trkpt>
      <trkpt lat="51.817123973742127" lon="-3.029390964657068">
        <ele>53.969999999999999</ele>
        <time>2026-07-11T12:08:51Z</time>
      </trkpt>
      <trkpt lat="51.817123973742127" lon="-3.029337991029024">
        <ele>53.969999999999999</ele>
        <time>2026-07-11T12:08:52Z</time>
      </trkpt>
      <trkpt lat="51.817123973742127" lon="-3.029302032664418">
        <ele>53.490000000000002</ele>
        <time>2026-07-11T12:08:53Z</time>
      </trkpt>
      <trkpt lat="51.817123973742127" lon="-3.029179992154241">
        <ele>52.049999999999997</ele>
        <time>2026-07-11T12:09:01Z</time>
      </trkpt>
      <trkpt lat="51.817090027034283" lon="-3.028686968609691">
        <ele>52.530000000000001</ele>
        <time>2026-07-11T12:09:11Z</time>
      </trkpt>
      <trkpt lat="51.8170649651438" lon="-3.028452023863792">
        <ele>53.490000000000002</ele>
        <time>2026-07-11T12:09:22Z</time>
      </trkpt>
      <trkpt lat="51.817104024812579" lon="-3.02819000557065">
        <ele>53.969999999999999</ele>
        <time>2026-07-11T12:09:35Z</time>
      </trkpt>
      <trkpt lat="51.817203015089035" lon="-3.028144994750619">
        <ele>52.530000000000001</ele>
        <time>2026-07-11T12:09:41Z</time>
      </trkpt>
      <trkpt lat="51.817244002595544" lon="-3.028078023344278">
        <ele>51.57</ele>
        <time>2026-07-11T12:09:52Z</time>
      </trkpt>
      <trkpt lat="51.817255988717079" lon="-3.028067965060473">
        <ele>51.090000000000003</ele>
        <time>2026-07-11T12:10:09Z</time>
      </trkpt>
      <trkpt lat="51.817255988717079" lon="-3.028067965060473">
        <ele>51.090000000000003</ele>
        <time>2026-07-11T12:10:30Z</time>
      </trkpt>
      <trkpt lat="51.817265963181853" lon="-3.028051033616066">
        <ele>50.130000000000003</ele>
        <time>2026-07-11T12:10:45Z</time>
      </trkpt>
      <trkpt lat="51.817227993160486" lon="-3.027928993105888">
        <ele>67.909999999999997</ele>
        <time>2026-07-11T12:32:27Z</time>
      </trkpt>
      <trkpt lat="51.817251965403557" lon="-3.028008034452796">
        <ele>54.93</ele>
        <time>2026-07-11T12:32:49Z</time>
      </trkpt>
      <trkpt lat="51.817228998988867" lon="-3.028015997260809">
        <ele>54.93</ele>
        <time>2026-07-11T12:32:59Z</time>
      </trkpt>
      <trkpt lat="51.817218018695712" lon="-3.027955982834101">
        <ele>54.93</ele>
        <time>2026-07-11T12:33:02Z</time>
      </trkpt>
      <trkpt lat="51.817302005365491" lon="-3.027620958164334">
        <ele>55.409999999999997</ele>
        <time>2026-07-11T12:33:05Z</time>
      </trkpt>
      <trkpt lat="51.81736302562058" lon="-3.02763101644814">
        <ele>55.409999999999997</ele>
        <time>2026-07-11T12:33:06Z</time>
      </trkpt>
      <trkpt lat="51.817526975646615" lon="-3.027672003954649">
        <ele>55.890000000000001</ele>
        <time>2026-07-11T12:33:07Z</time>
      </trkpt>
      <trkpt lat="51.817589001730084" lon="-3.027734030038118">
        <ele>55.890000000000001</ele>
        <time>2026-07-11T12:33:08Z</time>
      </trkpt>
      <trkpt lat="51.817596964538097" lon="-3.028655033558607">
        <ele>55.890000000000001</ele>
        <time>2026-07-11T12:33:12Z</time>
      </trkpt>
      <trkpt lat="51.817510966211557" lon="-3.02881496027112">
        <ele>55.890000000000001</ele>
        <time>2026-07-11T12:33:13Z</time>
      </trkpt>
      <trkpt lat="51.817510966211557" lon="-3.02881496027112">
        <ele>55.409999999999997</ele>
        <time>2026-07-11T12:33:14Z</time>
      </trkpt>
      <trkpt lat="51.817434020340443" lon="-3.029013024643064">
        <ele>54.450000000000003</ele>
        <time>2026-07-11T12:33:17Z</time>
      </trkpt>
      <trkpt lat="51.81740895844996" lon="-3.029077984392643">
        <ele>53.969999999999999</ele>
        <time>2026-07-11T12:33:18Z</time>
      </trkpt>
      <trkpt lat="51.817247020080686" lon="-3.029489032924175">
        <ele>52.049999999999997</ele>
        <time>2026-07-11T12:33:25Z</time>
      </trkpt>
      <trkpt lat="51.817232016474009" lon="-3.029511999338865">
        <ele>52.049999999999997</ele>
        <time>2026-07-11T12:33:26Z</time>
      </trkpt>
      <trkpt lat="51.817232016474009" lon="-3.029511999338865">
        <ele>52.049999999999997</ele>
        <time>2026-07-11T12:33:30Z</time>
      </trkpt>
      <trkpt lat="51.817123973742127" lon="-3.029448967427015">
        <ele>52.049999999999997</ele>
        <time>2026-07-11T12:33:31Z</time>
      </trkpt>
      <trkpt lat="51.817123973742127" lon="-3.02947998046875">
        <ele>52.049999999999997</ele>
        <time>2026-07-11T12:33:32Z</time>
      </trkpt>
      <trkpt lat="51.817123973742127" lon="-3.02947998046875">
        <ele>52.530000000000001</ele>
        <time>2026-07-11T12:33:33Z</time>
      </trkpt>
      <trkpt lat="51.817123973742127" lon="-3.02947998046875">
        <ele>52.530000000000001</ele>
        <time>2026-07-11T12:33:34Z</time>
      </trkpt>
      <trkpt lat="51.81719396263361" lon="-3.029532032087445">
        <ele>53.009999999999998</ele>
        <time>2026-07-11T12:33:35Z</time>
      </trkpt>
      <trkpt lat="51.817209972068667" lon="-3.029544018208981">
        <ele>52.530000000000001</ele>
        <time>2026-07-11T12:33:36Z</time>
      </trkpt>
      <trkpt lat="51.817209972068667" lon="-3.029544018208981">
        <ele>53.009999999999998</ele>
        <time>2026-07-11T12:33:37Z</time>
      </trkpt>
      <trkpt lat="51.817252971231937" lon="-3.02947998046875">
        <ele>53.009999999999998</ele>
        <time>2026-07-11T12:33:38Z</time>
      </trkpt>
      <trkpt lat="51.817292030900717" lon="-3.029453996568918">
        <ele>53.009999999999998</ele>
        <time>2026-07-11T12:33:39Z</time>
      </trkpt>
      <trkpt lat="51.817346010357141" lon="-3.029418960213661">
        <ele>52.530000000000001</ele>
        <time>2026-07-11T12:33:40Z</time>
      </trkpt>
      <trkpt lat="51.817381968721747" lon="-3.02939398214221">
        <ele>52.530000000000001</ele>
        <time>2026-07-11T12:33:41Z</time>
      </trkpt>
      <trkpt lat="51.817408036440611" lon="-3.029341008514166">
        <ele>52.530000000000001</ele>
        <time>2026-07-11T12:33:42Z</time>
      </trkpt>
      <trkpt lat="51.817437959834933" lon="-3.029281999915838">
        <ele>52.530000000000001</ele>
        <time>2026-07-11T12:33:43Z</time>
      </trkpt>
      <trkpt lat="51.817510966211557" lon="-3.029136992990971">
        <ele>52.049999999999997</ele>
        <time>2026-07-11T12:33:50Z</time>
      </trkpt>
      <trkpt lat="51.817715987563133" lon="-3.029305972158909">
        <ele>13.6</ele>
        <time>2026-07-11T12:36:49Z</time>
      </trkpt>
      <trkpt lat="51.817635018378496" lon="-3.028950998559594">
        <ele>54.93</ele>
        <time>2026-07-11T12:37:23Z</time>
      </trkpt>
      <trkpt lat="51.817552037537098" lon="-3.02894102409482">
        <ele>46.759999999999998</ele>
        <time>2026-07-11T12:37:55Z</time>
      </trkpt>
      <trkpt lat="51.81751599535346" lon="-3.028909005224705">
        <ele>46.759999999999998</ele>
        <time>2026-07-11T12:37:58Z</time>
      </trkpt>
      <trkpt lat="51.817510966211557" lon="-3.02881496027112">
        <ele>56.859999999999999</ele>
        <time>2026-07-11T12:38:04Z</time>
      </trkpt>
      <trkpt lat="51.817530998960137" lon="-3.028777996078134">
        <ele>56.859999999999999</ele>
        <time>2026-07-11T12:38:05Z</time>
      </trkpt>
      <trkpt lat="51.817564023658633" lon="-3.028715969994664">
        <ele>55.890000000000001</ele>
        <time>2026-07-11T12:38:06Z</time>
      </trkpt>
      <trkpt lat="51.817598976194859" lon="-3.028651010245085">
        <ele>55.409999999999997</ele>
        <time>2026-07-11T12:38:07Z</time>
      </trkpt>
      <trkpt lat="51.817661002278328" lon="-3.028536010533571">
        <ele>54.93</ele>
        <time>2026-07-11T12:38:08Z</time>
      </trkpt>
      <trkpt lat="51.817682962864637" lon="-3.028522012755275">
        <ele>53.969999999999999</ele>
        <time>2026-07-11T12:38:09Z</time>
      </trkpt>
      <trkpt lat="51.817811038345098" lon="-3.02859996445477">
        <ele>53.969999999999999</ele>
        <time>2026-07-11T12:38:10Z</time>
      </trkpt>
      <trkpt lat="51.817813972011209" lon="-3.028602981939912">
        <ele>53.490000000000002</ele>
        <time>2026-07-11T12:38:11Z</time>
      </trkpt>
      <trkpt lat="51.817811038345098" lon="-3.02859996445477">
        <ele>53.969999999999999</ele>
        <time>2026-07-11T12:38:12Z</time>
      </trkpt>
      <trkpt lat="51.817895025014877" lon="-3.028848990797997">
        <ele>53.969999999999999</ele>
        <time>2026-07-11T12:38:13Z</time>
      </trkpt>
      <trkpt lat="51.81787901557982" lon="-3.028958961367607">
        <ele>53.969999999999999</ele>
        <time>2026-07-11T12:38:14Z</time>
      </trkpt>
      <trkpt lat="51.817862000316381" lon="-3.029083013534546">
        <ele>53.969999999999999</ele>
        <time>2026-07-11T12:38:15Z</time>
      </trkpt>
      <trkpt lat="51.817825036123395" lon="-3.029209999367595">
        <ele>53.969999999999999</ele>
        <time>2026-07-11T12:38:16Z</time>
      </trkpt>
      <trkpt lat="51.81777399033308" lon="-3.029335979372263">
        <ele>53.969999999999999</ele>
        <time>2026-07-11T12:38:17Z</time>
      </trkpt>
      <trkpt lat="51.817716993391514" lon="-3.02947998046875">
        <ele>54.450000000000003</ele>
        <time>2026-07-11T12:38:18Z</time>
      </trkpt>
      <trkpt lat="51.81764398701489" lon="-3.029618030413985">
        <ele>54.450000000000003</ele>
        <time>2026-07-11T12:38:19Z</time>
      </trkpt>
      <trkpt lat="51.817317008972168" lon="-3.030060008168221">
        <ele>56.369999999999997</ele>
        <time>2026-07-11T12:38:23Z</time>
      </trkpt>
      <trkpt lat="51.81680403649807" lon="-3.030701978132129">
        <ele>60.219999999999999</ele>
        <time>2026-07-11T12:38:30Z</time>
      </trkpt>
      <trkpt lat="51.816733041778207" lon="-3.030772972851992">
        <ele>60.700000000000003</ele>
        <time>2026-07-11T12:38:31Z</time>
      </trkpt>
      <trkpt lat="51.816649977117777" lon="-3.030779007822275">
        <ele>61.659999999999997</ele>
        <time>2026-07-11T12:38:32Z</time>
      </trkpt>
      <trkpt lat="51.816560961306095" lon="-3.030760986730456">
        <ele>62.619999999999997</ele>
        <time>2026-07-11T12:38:33Z</time>
      </trkpt>
      <trkpt lat="51.816482003778219" lon="-3.030671970918775">
        <ele>63.100000000000001</ele>
        <time>2026-07-11T12:38:34Z</time>
      </trkpt>
      <trkpt lat="51.816392987966537" lon="-3.030568035319448">
        <ele>64.069999999999993</ele>
        <time>2026-07-11T12:38:35Z</time>
      </trkpt>
      <trkpt lat="51.816344959661365" lon="-3.030397966504097">
        <ele>64.549999999999997</ele>
        <time>2026-07-11T12:38:36Z</time>
      </trkpt>
      <trkpt lat="51.81629198603332" lon="-3.030209960415959">
        <ele>64.549999999999997</ele>
        <time>2026-07-11T12:38:37Z</time>
      </trkpt>
      <trkpt lat="51.815652027726173" lon="-3.028031000867486">
        <ele>63.579999999999998</ele>
        <time>2026-07-11T12:38:47Z</time>
      </trkpt>
      <trkpt lat="51.815045010298491" lon="-3.025993024930358">
        <ele>60.700000000000003</ele>
        <time>2026-07-11T12:38:55Z</time>
      </trkpt>
      <trkpt lat="51.813908005133271" lon="-3.022613022476435">
        <ele>54.450000000000003</ele>
        <time>2026-07-11T12:39:07Z</time>
      </trkpt>
      <trkpt lat="51.812232965603471" lon="-3.018296007066965">
        <ele>52.530000000000001</ele>
        <time>2026-07-11T12:39:22Z</time>
      </trkpt>
      <trkpt lat="51.81104701012373" lon="-3.0152100417763">
        <ele>53.969999999999999</ele>
        <time>2026-07-11T12:39:33Z</time>
      </trkpt>
      <trkpt lat="51.810563039034605" lon="-3.013453027233481">
        <ele>56.369999999999997</ele>
        <time>2026-07-11T12:39:41Z</time>
      </trkpt>
      <trkpt lat="51.8103819899261" lon="-3.012616010382772">
        <ele>60.219999999999999</ele>
        <time>2026-07-11T12:39:47Z</time>
      </trkpt>
      <trkpt lat="51.810185015201569" lon="-3.011266021057963">
        <ele>65.030000000000001</ele>
        <time>2026-07-11T12:39:57Z</time>
      </trkpt>
      <trkpt lat="51.810130029916763" lon="-3.010868970304728">
        <ele>67.430000000000007</ele>
        <time>2026-07-11T12:40:04Z</time>
      </trkpt>
      <trkpt lat="51.810091976076365" lon="-3.010520031675696">
        <ele>70.310000000000002</ele>
        <time>2026-07-11T12:40:13Z</time>
      </trkpt>
      <trkpt lat="51.810116032138467" lon="-3.010374018922448">
        <ele>70.790000000000006</ele>
        <time>2026-07-11T12:40:16Z</time>
      </trkpt>
      <trkpt lat="51.810130029916763" lon="-3.010291960090399">
        <ele>70.790000000000006</ele>
        <time>2026-07-11T12:40:17Z</time>
      </trkpt>
      <trkpt lat="51.810150984674692" lon="-3.010167991742492">
        <ele>70.790000000000006</ele>
        <time>2026-07-11T12:40:18Z</time>
      </trkpt>
      <trkpt lat="51.81019096635282" lon="-3.010067995637655">
        <ele>70.310000000000002</ele>
        <time>2026-07-11T12:40:19Z</time>
      </trkpt>
      <trkpt lat="51.810290040448308" lon="-3.009994989261031">
        <ele>70.310000000000002</ele>
        <time>2026-07-11T12:40:20Z</time>
      </trkpt>
      <trkpt lat="51.810384001582861" lon="-3.009931035339832">
        <ele>69.829999999999998</ele>
        <time>2026-07-11T12:40:21Z</time>
      </trkpt>
      <trkpt lat="51.810480980202556" lon="-3.00986398011446">
        <ele>69.829999999999998</ele>
        <time>2026-07-11T12:40:22Z</time>
      </trkpt>
      <trkpt lat="51.810579970479012" lon="-3.009796002879739">
        <ele>69.349999999999994</ele>
        <time>2026-07-11T12:40:23Z</time>
      </trkpt>
      <trkpt lat="51.810680972412229" lon="-3.0097980145365">
        <ele>69.349999999999994</ele>
        <time>2026-07-11T12:40:24Z</time>
      </trkpt>
      <trkpt lat="51.810787003487349" lon="-3.009819975122809">
        <ele>69.349999999999994</ele>
        <time>2026-07-11T12:40:25Z</time>
      </trkpt>
      <trkpt lat="51.81089898571372" lon="-3.009844031184912">
        <ele>69.349999999999994</ele>
        <time>2026-07-11T12:40:26Z</time>
      </trkpt>
      <trkpt lat="51.811010967940092" lon="-3.009866997599602">
        <ele>69.349999999999994</ele>
        <time>2026-07-11T12:40:27Z</time>
      </trkpt>
      <trkpt lat="51.811115993186831" lon="-3.009888958185911">
        <ele>69.349999999999994</ele>
        <time>2026-07-11T12:40:28Z</time>
      </trkpt>
      <trkpt lat="51.811344986781478" lon="-3.009969005361199">
        <ele>69.349999999999994</ele>
        <time>2026-07-11T12:40:30Z</time>
      </trkpt>
      <trkpt lat="51.811463003978133" lon="-3.010010998696089">
        <ele>68.870000000000005</ele>
        <time>2026-07-11T12:40:31Z</time>
      </trkpt>
      <trkpt lat="51.811575992032886" lon="-3.010057015344501">
        <ele>68.390000000000001</ele>
        <time>2026-07-11T12:40:32Z</time>
      </trkpt>
      <trkpt lat="51.811689985916018" lon="-3.01012197509408">
        <ele>68.870000000000005</ele>
        <time>2026-07-11T12:40:33Z</time>
      </trkpt>
      <trkpt lat="51.811805991455913" lon="-3.010188024491072">
        <ele>68.870000000000005</ele>
        <time>2026-07-11T12:40:34Z</time>
      </trkpt>
      <trkpt lat="51.811923002824187" lon="-3.010254995897412">
        <ele>68.870000000000005</ele>
        <time>2026-07-11T12:40:35Z</time>
      </trkpt>
      <trkpt lat="51.813090015202761" lon="-3.010889003053308">
        <ele>65.989999999999995</ele>
        <time>2026-07-11T12:40:44Z</time>
      </trkpt>
      <trkpt lat="51.814001966267824" lon="-3.011379009112716">
        <ele>64.069999999999993</ele>
        <time>2026-07-11T12:40:52Z</time>
      </trkpt>
      <trkpt lat="51.814116965979338" lon="-3.01145201548934">
        <ele>64.069999999999993</ele>
        <time>2026-07-11T12:40:53Z</time>
      </trkpt>
      <trkpt lat="51.814226014539599" lon="-3.011520998552442">
        <ele>64.069999999999993</ele>
        <time>2026-07-11T12:40:54Z</time>
      </trkpt>
      <trkpt lat="51.814340008422732" lon="-3.011589981615543">
        <ele>63.579999999999998</ele>
        <time>2026-07-11T12:40:55Z</time>
      </trkpt>
      <trkpt lat="51.815379029139876" lon="-3.012177972123027">
        <ele>66.469999999999999</ele>
        <time>2026-07-11T12:41:04Z</time>
      </trkpt>
      <trkpt lat="51.815847996622324" lon="-3.01244099624455">
        <ele>66.469999999999999</ele>
        <time>2026-07-11T12:41:11Z</time>
      </trkpt>
      <trkpt lat="51.816536989063025" lon="-3.012819020077586">
        <ele>63.579999999999998</ele>
        <time>2026-07-11T12:41:21Z</time>
      </trkpt>
      <trkpt lat="51.817427985370159" lon="-3.013302991166711">
        <ele>60.219999999999999</ele>
        <time>2026-07-11T12:41:34Z</time>
      </trkpt>
      <trkpt lat="51.818261984735727" lon="-3.013696018606424">
        <ele>54.450000000000003</ele>
        <time>2026-07-11T12:41:44Z</time>
      </trkpt>
      <trkpt lat="51.819073017686605" lon="-3.013992989435792">
        <ele>49.159999999999997</ele>
        <time>2026-07-11T12:41:55Z</time>
      </trkpt>
      <trkpt lat="51.819267980754375" lon="-3.014090973883867">
        <ele>48.68</ele>
        <time>2026-07-11T12:41:58Z</time>
      </trkpt>
      <trkpt lat="51.819332018494606" lon="-3.01413900218904">
        <ele>48.68</ele>
        <time>2026-07-11T12:41:59Z</time>
      </trkpt>
      <trkpt lat="51.819379962980747" lon="-3.014200022444129">
        <ele>48.68</ele>
        <time>2026-07-11T12:42:00Z</time>
      </trkpt>
      <trkpt lat="51.819484988227487" lon="-3.0143310315907">
        <ele>48.68</ele>
        <time>2026-07-11T12:42:05Z</time>
      </trkpt>
      <trkpt lat="51.819511977955699" lon="-3.014392973855138">
        <ele>48.68</ele>
        <time>2026-07-11T12:42:15Z</time>
      </trkpt>
      <trkpt lat="51.819653967395425" lon="-3.014865964651108">
        <ele>49.649999999999999</ele>
        <time>2026-07-11T12:42:21Z</time>
      </trkpt>
      <trkpt lat="51.819853959605098" lon="-3.015630980953574">
        <ele>52.049999999999997</ele>
        <time>2026-07-11T12:42:28Z</time>
      </trkpt>
      <trkpt lat="51.820064010098577" lon="-3.016069019213319">
        <ele>54.93</ele>
        <time>2026-07-11T12:42:34Z</time>
      </trkpt>
      <trkpt lat="51.820122012868524" lon="-3.016121992841363">
        <ele>55.409999999999997</ele>
        <time>2026-07-11T12:42:35Z</time>
      </trkpt>
      <trkpt lat="51.820173980668187" lon="-3.016170021146536">
        <ele>55.890000000000001</ele>
        <time>2026-07-11T12:42:36Z</time>
      </trkpt>
      <trkpt lat="51.820226032286882" lon="-3.016217965632677">
        <ele>56.369999999999997</ele>
        <time>2026-07-11T12:42:37Z</time>
      </trkpt>
      <trkpt lat="51.820275988429785" lon="-3.016262976452708">
        <ele>56.859999999999999</ele>
        <time>2026-07-11T12:42:38Z</time>
      </trkpt>
      <trkpt lat="51.820682007819414" lon="-3.016636976972222">
        <ele>60.219999999999999</ele>
        <time>2026-07-11T12:42:46Z</time>
      </trkpt>
      <trkpt lat="51.820733975619078" lon="-3.016685005277395">
        <ele>61.18</ele>
        <time>2026-07-11T12:42:47Z</time>
      </trkpt>
      <trkpt lat="51.820786027237773" lon="-3.016733033582568">
        <ele>61.659999999999997</ele>
        <time>2026-07-11T12:42:48Z</time>
      </trkpt>
      <trkpt lat="51.820986019447446" lon="-3.016925984993577">
        <ele>64.069999999999993</ele>
        <time>2026-07-11T12:42:52Z</time>
      </trkpt>
      <trkpt lat="51.821023989468813" lon="-3.016964038833976">
        <ele>64.549999999999997</ele>
        <time>2026-07-11T12:42:53Z</time>
      </trkpt>
      <trkpt lat="51.821056008338928" lon="-3.016998991370201">
        <ele>65.510000000000005</ele>
        <time>2026-07-11T12:42:54Z</time>
      </trkpt>
      <trkpt lat="51.821077968925238" lon="-3.017034027725458">
        <ele>65.989999999999995</ele>
        <time>2026-07-11T12:42:55Z</time>
      </trkpt>
      <trkpt lat="51.821100013330579" lon="-3.017068980261684">
        <ele>67.430000000000007</ele>
        <time>2026-07-11T12:42:56Z</time>
      </trkpt>
      <trkpt lat="51.821118034422398" lon="-3.017097981646657">
        <ele>68.390000000000001</ele>
        <time>2026-07-11T12:42:57Z</time>
      </trkpt>
      <trkpt lat="51.821159021928906" lon="-3.017163025215268">
        <ele>70.790000000000006</ele>
        <time>2026-07-11T12:43:07Z</time>
      </trkpt>
      <trkpt lat="51.821159021928906" lon="-3.017163025215268">
        <ele>71.269999999999996</ele>
        <time>2026-07-11T12:43:08Z</time>
      </trkpt>
      <trkpt lat="51.821159021928906" lon="-3.017163025215268">
        <ele>71.269999999999996</ele>
        <time>2026-07-11T12:43:21Z</time>
      </trkpt>
      <trkpt lat="51.821159021928906" lon="-3.017163025215268">
        <ele>71.269999999999996</ele>
        <time>2026-07-11T12:43:37Z</time>
      </trkpt>
      <trkpt lat="51.821192968636751" lon="-3.017200995236635">
        <ele>69.829999999999998</ele>
        <time>2026-07-11T13:03:41Z</time>
      </trkpt>
      <trkpt lat="51.821127003058791" lon="-3.017415991052985">
        <ele>52.049999999999997</ele>
        <time>2026-07-11T13:04:13Z</time>
      </trkpt>
      <trkpt lat="51.821249965578318" lon="-3.017401993274689">
        <ele>61.18</ele>
        <time>2026-07-11T13:05:00Z</time>
      </trkpt>
      <trkpt lat="51.821272009983659" lon="-3.017355976626277">
        <ele>64.069999999999993</ele>
        <time>2026-07-11T13:05:45Z</time>
      </trkpt>
      <trkpt lat="51.821272009983659" lon="-3.017356982454658">
        <ele>64.069999999999993</ele>
        <time>2026-07-11T13:06:15Z</time>
      </trkpt>
      <trkpt lat="51.821267986670136" lon="-3.017398975789547">
        <ele>64.069999999999993</ele>
        <time>2026-07-11T13:06:27Z</time>
      </trkpt>
      <trkpt lat="51.821193974465132" lon="-3.017305014654994">
        <ele>64.069999999999993</ele>
        <time>2026-07-11T13:06:44Z</time>
      </trkpt>
      <trkpt lat="51.821175031363964" lon="-3.017276013270021">
        <ele>65.030000000000001</ele>
        <time>2026-07-11T13:06:57Z</time>
      </trkpt>
      <trkpt lat="51.821159021928906" lon="-3.017163025215268">
        <ele>65.510000000000005</ele>
        <time>2026-07-11T13:06:59Z</time>
      </trkpt>
      <trkpt lat="51.821050979197025" lon="-3.016992034390569">
        <ele>65.510000000000005</ele>
        <time>2026-07-11T13:07:00Z</time>
      </trkpt>
      <trkpt lat="51.821050979197025" lon="-3.016992034390569">
        <ele>65.030000000000001</ele>
        <time>2026-07-11T13:07:01Z</time>
      </trkpt>
      <trkpt lat="51.821046033874154" lon="-3.016987005248666">
        <ele>64.549999999999997</ele>
        <time>2026-07-11T13:07:02Z</time>
      </trkpt>
      <trkpt lat="51.821001023054123" lon="-3.016940988600254">
        <ele>64.069999999999993</ele>
        <time>2026-07-11T13:07:03Z</time>
      </trkpt>
      <trkpt lat="51.820958023890853" lon="-3.016898995265365">
        <ele>64.069999999999993</ele>
        <time>2026-07-11T13:07:04Z</time>
      </trkpt>
      <trkpt lat="51.820908989757299" lon="-3.016849961131811">
        <ele>64.069999999999993</ele>
        <time>2026-07-11T13:07:05Z</time>
      </trkpt>
      <trkpt lat="51.820858027786016" lon="-3.016798999160528">
        <ele>64.069999999999993</ele>
        <time>2026-07-11T13:07:06Z</time>
      </trkpt>
      <trkpt lat="51.820665998384356" lon="-3.016621973365545">
        <ele>63.100000000000001</ele>
        <time>2026-07-11T13:07:10Z</time>
      </trkpt>
      <trkpt lat="51.820619981735945" lon="-3.016579980030656">
        <ele>62.619999999999997</ele>
        <time>2026-07-11T13:07:11Z</time>
      </trkpt>
      <trkpt lat="51.820558039471507" lon="-3.016522983089089">
        <ele>62.140000000000001</ele>
        <time>2026-07-11T13:07:12Z</time>
      </trkpt>
      <trkpt lat="51.82028797455132" lon="-3.016274962574244">
        <ele>61.659999999999997</ele>
        <time>2026-07-11T13:07:16Z</time>
      </trkpt>
      <trkpt lat="51.820231983438134" lon="-3.01622299477458">
        <ele>61.659999999999997</ele>
        <time>2026-07-11T13:07:17Z</time>
      </trkpt>
      <trkpt lat="51.820184038951993" lon="-3.016178989782929">
        <ele>61.659999999999997</ele>
        <time>2026-07-11T13:07:18Z</time>
      </trkpt>
      <trkpt lat="51.820143973454833" lon="-3.016143031418324">
        <ele>61.18</ele>
        <time>2026-07-11T13:07:19Z</time>
      </trkpt>
      <trkpt lat="51.820107009261847" lon="-3.016109000891447">
        <ele>61.659999999999997</ele>
        <time>2026-07-11T13:07:20Z</time>
      </trkpt>
      <trkpt lat="51.820073984563351" lon="-3.016078993678093">
        <ele>61.659999999999997</ele>
        <time>2026-07-11T13:07:21Z</time>
      </trkpt>
      <trkpt lat="51.820064010098577" lon="-3.016069019213319">
        <ele>61.659999999999997</ele>
        <time>2026-07-11T13:07:22Z</time>
      </trkpt>
      <trkpt lat="51.820016987621784" lon="-3.016139008104801">
        <ele>61.659999999999997</ele>
        <time>2026-07-11T13:07:23Z</time>
      </trkpt>
      <trkpt lat="51.819996032863855" lon="-3.016170021146536">
        <ele>61.659999999999997</ele>
        <time>2026-07-11T13:07:24Z</time>
      </trkpt>
      <trkpt lat="51.819982035085559" lon="-3.016191981732845">
        <ele>61.659999999999997</ele>
        <time>2026-07-11T13:07:25Z</time>
      </trkpt>
      <trkpt lat="51.819973988458514" lon="-3.016203967854381">
        <ele>61.18</ele>
        <time>2026-07-11T13:07:26Z</time>
      </trkpt>
      <trkpt lat="51.820064010098577" lon="-3.016069019213319">
        <ele>61.18</ele>
        <time>2026-07-11T13:07:27Z</time>
      </trkpt>
      <trkpt lat="51.820064010098577" lon="-3.016069019213319">
        <ele>61.18</ele>
        <time>2026-07-11T13:07:28Z</time>
      </trkpt>
      <trkpt lat="51.819997038692236" lon="-3.016170021146536">
        <ele>61.18</ele>
        <time>2026-07-11T13:07:29Z</time>
      </trkpt>
      <trkpt lat="51.820011958479881" lon="-3.016147976741195">
        <ele>60.700000000000003</ele>
        <time>2026-07-11T13:07:30Z</time>
      </trkpt>
      <trkpt lat="51.820026040077209" lon="-3.016126016154885">
        <ele>60.700000000000003</ele>
        <time>2026-07-11T13:07:31Z</time>
      </trkpt>
      <trkpt lat="51.820170963183045" lon="-3.016167003661394">
        <ele>59.740000000000002</ele>
        <time>2026-07-11T13:07:36Z</time>
      </trkpt>
      <trkpt lat="51.8207379989326" lon="-3.016688022762537">
        <ele>60.219999999999999</ele>
        <time>2026-07-11T13:07:44Z</time>
      </trkpt>
      <trkpt lat="51.821159021928906" lon="-3.017163025215268">
        <ele>62.140000000000001</ele>
        <time>2026-07-11T13:07:51Z</time>
      </trkpt>
      <trkpt lat="51.821186011657119" lon="-3.017172999680042">
        <ele>61.659999999999997</ele>
        <time>2026-07-11T13:07:52Z</time>
      </trkpt>
      <trkpt lat="51.821243008598685" lon="-3.017157996073365">
        <ele>62.140000000000001</ele>
        <time>2026-07-11T13:07:53Z</time>
      </trkpt>
      <trkpt lat="51.821273015812039" lon="-3.017118014395237">
        <ele>62.140000000000001</ele>
        <time>2026-07-11T13:07:54Z</time>
      </trkpt>
      <trkpt lat="51.821309980005026" lon="-3.017068980261684">
        <ele>62.619999999999997</ele>
        <time>2026-07-11T13:07:55Z</time>
      </trkpt>
      <trkpt lat="51.821390027180314" lon="-3.016902012750506">
        <ele>63.100000000000001</ele>
        <time>2026-07-11T13:07:57Z</time>
      </trkpt>
      <trkpt lat="51.821421040222049" lon="-3.016811991110444">
        <ele>63.100000000000001</ele>
        <time>2026-07-11T13:07:58Z</time>
      </trkpt>
      <trkpt lat="51.821453981101513" lon="-3.016718029975891">
        <ele>63.579999999999998</ele>
        <time>2026-07-11T13:07:59Z</time>
      </trkpt>
      <trkpt lat="51.821490023285151" lon="-3.016614010557532">
        <ele>63.579999999999998</ele>
        <time>2026-07-11T13:08:00Z</time>
      </trkpt>
      <trkpt lat="51.821526987478137" lon="-3.016506973654032">
        <ele>63.579999999999998</ele>
        <time>2026-07-11T13:08:01Z</time>
      </trkpt>
      <trkpt lat="51.821545008569956" lon="-3.016455005854368">
        <ele>63.579999999999998</ele>
        <time>2026-07-11T13:08:02Z</time>
      </trkpt>
      <trkpt lat="51.821611979976296" lon="-3.016363978385925">
        <ele>64.069999999999993</ele>
        <time>2026-07-11T13:08:03Z</time>
      </trkpt>
      <trkpt lat="51.821675011888146" lon="-3.016279991716147">
        <ele>64.069999999999993</ele>
        <time>2026-07-11T13:08:04Z</time>
      </trkpt>
      <trkpt lat="51.821737959980965" lon="-3.016194999217987">
        <ele>64.069999999999993</ele>
        <time>2026-07-11T13:08:05Z</time>
      </trkpt>
      <trkpt lat="51.821799986064434" lon="-3.016111012548208">
        <ele>64.069999999999993</ele>
        <time>2026-07-11T13:08:06Z</time>
      </trkpt>
      <trkpt lat="51.822071978822351" lon="-3.015805995091796">
        <ele>64.069999999999993</ele>
        <time>2026-07-11T13:08:10Z</time>
      </trkpt>
      <trkpt lat="51.822151020169258" lon="-3.01575000397861">
        <ele>64.069999999999993</ele>
        <time>2026-07-11T13:08:11Z</time>
      </trkpt>
      <trkpt lat="51.822634991258383" lon="-3.015438029542565">
        <ele>64.549999999999997</ele>
        <time>2026-07-11T13:08:17Z</time>
      </trkpt>
      <trkpt lat="51.823489023372531" lon="-3.015032010152936">
        <ele>66.950000000000003</ele>
        <time>2026-07-11T13:08:27Z</time>
      </trkpt>
      <trkpt lat="51.823890013620257" lon="-3.014870993793011">
        <ele>65.989999999999995</ele>
        <time>2026-07-11T13:08:32Z</time>
      </trkpt>
      <trkpt lat="51.823942987248302" lon="-3.014853978529573">
        <ele>65.510000000000005</ele>
        <time>2026-07-11T13:08:33Z</time>
      </trkpt>
      <trkpt lat="51.82398003526032" lon="-3.014877028763294">
        <ele>65.030000000000001</ele>
        <time>2026-07-11T13:08:34Z</time>
      </trkpt>
      <trkpt lat="51.824008030816913" lon="-3.014962021261454">
        <ele>65.030000000000001</ele>
        <time>2026-07-11T13:08:35Z</time>
      </trkpt>
      <trkpt lat="51.824039965867996" lon="-3.015057994052768">
        <ele>64.549999999999997</ele>
        <time>2026-07-11T13:08:36Z</time>
      </trkpt>
      <trkpt lat="51.824223026633263" lon="-3.016098020598292">
        <ele>63.100000000000001</ele>
        <time>2026-07-11T13:08:44Z</time>
      </trkpt>
      <trkpt lat="51.824233001098037" lon="-3.016204973682761">
        <ele>62.619999999999997</ele>
        <time>2026-07-11T13:08:45Z</time>
      </trkpt>
      <trkpt lat="51.82424196973443" lon="-3.016307987272739">
        <ele>62.140000000000001</ele>
        <time>2026-07-11T13:08:46Z</time>
      </trkpt>
      <trkpt lat="51.824251022189856" lon="-3.016406977549195">
        <ele>62.140000000000001</ele>
        <time>2026-07-11T13:08:47Z</time>
      </trkpt>
      <trkpt lat="51.82428102940321" lon="-3.016742002218962">
        <ele>60.700000000000003</ele>
        <time>2026-07-11T13:08:51Z</time>
      </trkpt>
      <trkpt lat="51.824332997202873" lon="-3.0173409730196">
        <ele>59.740000000000002</ele>
        <time>2026-07-11T13:08:57Z</time>
      </trkpt>
      <trkpt lat="51.824438022449613" lon="-3.017929969355464">
        <ele>59.259999999999998</ele>
        <time>2026-07-11T13:09:03Z</time>
      </trkpt>
      <trkpt lat="51.824459983035922" lon="-3.018016973510385">
        <ele>59.259999999999998</ele>
        <time>2026-07-11T13:09:04Z</time>
      </trkpt>
      <trkpt lat="51.824483033269644" lon="-3.018105989322066">
        <ele>58.780000000000001</ele>
        <time>2026-07-11T13:09:05Z</time>
      </trkpt>
      <trkpt lat="51.824735999107361" lon="-3.018601024523377">
        <ele>56.859999999999999</ele>
        <time>2026-07-11T13:09:15Z</time>
      </trkpt>
      <trkpt lat="51.825090972706676" lon="-3.019136041402817">
        <ele>57.340000000000003</ele>
        <time>2026-07-11T13:09:21Z</time>
      </trkpt>
      <trkpt lat="51.825127014890313" lon="-3.01925003528595">
        <ele>57.82</ele>
        <time>2026-07-11T13:09:22Z</time>
      </trkpt>
      <trkpt lat="51.825160039588809" lon="-3.019356988370419">
        <ele>57.82</ele>
        <time>2026-07-11T13:09:23Z</time>
      </trkpt>
      <trkpt lat="51.825189962983131" lon="-3.019492020830512">
        <ele>58.299999999999997</ele>
        <time>2026-07-11T13:09:24Z</time>
      </trkpt>
      <trkpt lat="51.825178982689977" lon="-3.019600985571742">
        <ele>58.780000000000001</ele>
        <time>2026-07-11T13:09:25Z</time>
      </trkpt>
      <trkpt lat="51.825168002396822" lon="-3.019720008596778">
        <ele>58.780000000000001</ele>
        <time>2026-07-11T13:09:26Z</time>
      </trkpt>
      <trkpt lat="51.825156016275287" lon="-3.019850011914969">
        <ele>59.259999999999998</ele>
        <time>2026-07-11T13:09:27Z</time>
      </trkpt>
      <trkpt lat="51.825119974091649" lon="-3.020238010212779">
        <ele>60.700000000000003</ele>
        <time>2026-07-11T13:09:30Z</time>
      </trkpt>
      <trkpt lat="51.825074963271618" lon="-3.020461974665523">
        <ele>61.18</ele>
        <time>2026-07-11T13:09:32Z</time>
      </trkpt>
      <trkpt lat="51.82503498159349" lon="-3.020559959113598">
        <ele>61.659999999999997</ele>
        <time>2026-07-11T13:09:33Z</time>
      </trkpt>
      <trkpt lat="51.824993994086981" lon="-3.020663978531957">
        <ele>61.659999999999997</ele>
        <time>2026-07-11T13:09:34Z</time>
      </trkpt>
      <trkpt lat="51.824945965781808" lon="-3.020767997950316">
        <ele>62.619999999999997</ele>
        <time>2026-07-11T13:09:35Z</time>
      </trkpt>
      <trkpt lat="51.824893997982144" lon="-3.020872017368674">
        <ele>63.100000000000001</ele>
        <time>2026-07-11T13:09:36Z</time>
      </trkpt>
      <trkpt lat="51.824834989383817" lon="-3.020967990159988">
        <ele>63.579999999999998</ele>
        <time>2026-07-11T13:09:37Z</time>
      </trkpt>
      <trkpt lat="51.824727030470967" lon="-3.021239982917905">
        <ele>65.989999999999995</ele>
        <time>2026-07-11T13:09:40Z</time>
      </trkpt>
      <trkpt lat="51.824699034914374" lon="-3.021368980407715">
        <ele>66.469999999999999</ele>
        <time>2026-07-11T13:09:41Z</time>
      </trkpt>
      <trkpt lat="51.824715966358781" lon="-3.021428994834423">
        <ele>67.430000000000007</ele>
        <time>2026-07-11T13:09:42Z</time>
      </trkpt>
      <trkpt lat="51.824746979400516" lon="-3.021536031737924">
        <ele>67.909999999999997</ele>
        <time>2026-07-11T13:09:43Z</time>
      </trkpt>
      <trkpt lat="51.824780004099011" lon="-3.021651031449437">
        <ele>68.870000000000005</ele>
        <time>2026-07-11T13:09:44Z</time>
      </trkpt>
      <trkpt lat="51.824815040454268" lon="-3.021773993968964">
        <ele>69.349999999999994</ele>
        <time>2026-07-11T13:09:45Z</time>
      </trkpt>
      <trkpt lat="51.824874971061945" lon="-3.022026959806681">
        <ele>70.310000000000002</ele>
        <time>2026-07-11T13:09:47Z</time>
      </trkpt>
      <trkpt lat="51.824934985488653" lon="-3.022291995584965">
        <ele>71.269999999999996</ele>
        <time>2026-07-11T13:09:49Z</time>
      </trkpt>
      <trkpt lat="51.824934985488653" lon="-3.022399032488465">
        <ele>71.760000000000005</ele>
        <time>2026-07-11T13:09:50Z</time>
      </trkpt>
      <trkpt lat="51.824911013245583" lon="-3.022554013878107">
        <ele>71.760000000000005</ele>
        <time>2026-07-11T13:09:51Z</time>
      </trkpt>
      <trkpt lat="51.824890980497003" lon="-3.022683011367917">
        <ele>71.760000000000005</ele>
        <time>2026-07-11T13:09:52Z</time>
      </trkpt>
      <trkpt lat="51.824853010475636" lon="-3.022802034392953">
        <ele>71.760000000000005</ele>
        <time>2026-07-11T13:09:53Z</time>
      </trkpt>
      <trkpt lat="51.824815040454268" lon="-3.022921979427338">
        <ele>71.760000000000005</ele>
        <time>2026-07-11T13:09:54Z</time>
      </trkpt>
      <trkpt lat="51.82477698661387" lon="-3.023041002452374">
        <ele>71.760000000000005</ele>
        <time>2026-07-11T13:09:55Z</time>
      </trkpt>
      <trkpt lat="51.824762988835573" lon="-3.023185003548861">
        <ele>71.760000000000005</ele>
        <time>2026-07-11T13:09:56Z</time>
      </trkpt>
      <trkpt lat="51.824762988835573" lon="-3.023322969675064">
        <ele>71.760000000000005</ele>
        <time>2026-07-11T13:09:57Z</time>
      </trkpt>
      <trkpt lat="51.824762988835573" lon="-3.023450039327145">
        <ele>71.760000000000005</ele>
        <time>2026-07-11T13:09:58Z</time>
      </trkpt>
      <trkpt lat="51.824782015755773" lon="-3.023605020716786">
        <ele>71.269999999999996</ele>
        <time>2026-07-11T13:09:59Z</time>
      </trkpt>
      <trkpt lat="51.824799031019211" lon="-3.023747010156512">
        <ele>70.790000000000006</ele>
        <time>2026-07-11T13:10:00Z</time>
      </trkpt>
      <trkpt lat="51.824928028509021" lon="-3.024845039471984">
        <ele>64.549999999999997</ele>
        <time>2026-07-11T13:10:10Z</time>
      </trkpt>
      <trkpt lat="51.824981002137065" lon="-3.025323981419206">
        <ele>62.140000000000001</ele>
        <time>2026-07-11T13:10:15Z</time>
      </trkpt>
      <trkpt lat="51.8249929882586" lon="-3.025426995009184">
        <ele>63.100000000000001</ele>
        <time>2026-07-11T13:10:16Z</time>
      </trkpt>
      <trkpt lat="51.825064988806844" lon="-3.026182958856225">
        <ele>65.030000000000001</ele>
        <time>2026-07-11T13:10:22Z</time>
      </trkpt>
      <trkpt lat="51.825074041262269" lon="-3.026297958567739">
        <ele>65.030000000000001</ele>
        <time>2026-07-11T13:10:23Z</time>
      </trkpt>
      <trkpt lat="51.825093990191817" lon="-3.026863988488913">
        <ele>64.549999999999997</ele>
        <time>2026-07-11T13:10:28Z</time>
      </trkpt>
      <trkpt lat="51.825087033212185" lon="-3.026968007907271">
        <ele>64.549999999999997</ele>
        <time>2026-07-11T13:10:29Z</time>
      </trkpt>
      <trkpt lat="51.825079992413521" lon="-3.02707102149725">
        <ele>64.069999999999993</ele>
        <time>2026-07-11T13:10:30Z</time>
      </trkpt>
      <trkpt lat="51.825073035433888" lon="-3.027169005945325">
        <ele>64.069999999999993</ele>
        <time>2026-07-11T13:10:31Z</time>
      </trkpt>
      <trkpt lat="51.825039004907012" lon="-3.027337985113263">
        <ele>64.069999999999993</ele>
        <time>2026-07-11T13:10:32Z</time>
      </trkpt>
      <trkpt lat="51.824999023228884" lon="-3.027376960963011">
        <ele>64.549999999999997</ele>
        <time>2026-07-11T13:10:33Z</time>
      </trkpt>
      <trkpt lat="51.824907995760441" lon="-3.027387019246817">
        <ele>64.549999999999997</ele>
        <time>2026-07-11T13:10:34Z</time>
      </trkpt>
      <trkpt lat="51.824842030182481" lon="-3.02739498205483">
        <ele>64.069999999999993</ele>
        <time>2026-07-11T13:10:35Z</time>
      </trkpt>
      <trkpt lat="51.824769023805857" lon="-3.027406968176365">
        <ele>64.069999999999993</ele>
        <time>2026-07-11T13:10:36Z</time>
      </trkpt>
      <trkpt lat="51.824372978881001" lon="-3.027549963444471">
        <ele>63.100000000000001</ele>
        <time>2026-07-11T13:10:41Z</time>
      </trkpt>
      <trkpt lat="51.824302989989519" lon="-3.027617018669844">
        <ele>63.100000000000001</ele>
        <time>2026-07-11T13:10:42Z</time>
      </trkpt>
      <trkpt lat="51.824227971956134" lon="-3.027689019218087">
        <ele>63.100000000000001</ele>
        <time>2026-07-11T13:10:43Z</time>
      </trkpt>
      <trkpt lat="51.824140967801213" lon="-3.027772000059485">
        <ele>63.100000000000001</ele>
        <time>2026-07-11T13:10:44Z</time>
      </trkpt>
      <trkpt lat="51.82404700666666" lon="-3.027862021699548">
        <ele>62.619999999999997</ele>
        <time>2026-07-11T13:10:45Z</time>
      </trkpt>
      <trkpt lat="51.823654985055327" lon="-3.028268963098526">
        <ele>62.140000000000001</ele>
        <time>2026-07-11T13:10:49Z</time>
      </trkpt>
      <trkpt lat="51.823559012264013" lon="-3.028378011658788">
        <ele>62.140000000000001</ele>
        <time>2026-07-11T13:10:50Z</time>
      </trkpt>
      <trkpt lat="51.822482021525502" lon="-3.029386019334197">
        <ele>62.619999999999997</ele>
        <time>2026-07-11T13:11:00Z</time>
      </trkpt>
      <trkpt lat="51.822368027642369" lon="-3.029447039589286">
        <ele>62.619999999999997</ele>
        <time>2026-07-11T13:11:01Z</time>
      </trkpt>
      <trkpt lat="51.822255039587617" lon="-3.029492972418666">
        <ele>62.619999999999997</ele>
        <time>2026-07-11T13:11:02Z</time>
      </trkpt>
      <trkpt lat="51.821721028536558" lon="-3.029702017083764">
        <ele>63.100000000000001</ele>
        <time>2026-07-11T13:11:07Z</time>
      </trkpt>
      <trkpt lat="51.821613991633058" lon="-3.029721966013312">
        <ele>63.100000000000001</ele>
        <time>2026-07-11T13:11:08Z</time>
      </trkpt>
      <trkpt lat="51.821393966674805" lon="-3.029754990711808">
        <ele>62.619999999999997</ele>
        <time>2026-07-11T13:11:10Z</time>
      </trkpt>
      <trkpt lat="51.821293970569968" lon="-3.02973797544837">
        <ele>61.659999999999997</ele>
        <time>2026-07-11T13:11:11Z</time>
      </trkpt>
      <trkpt lat="51.821186011657119" lon="-3.029718026518822">
        <ele>60.700000000000003</ele>
        <time>2026-07-11T13:11:12Z</time>
      </trkpt>
      <trkpt lat="51.821077968925238" lon="-3.029698999598622">
        <ele>59.740000000000002</ele>
        <time>2026-07-11T13:11:13Z</time>
      </trkpt>
      <trkpt lat="51.820980990305543" lon="-3.029648037627339">
        <ele>58.299999999999997</ele>
        <time>2026-07-11T13:11:14Z</time>
      </trkpt>
      <trkpt lat="51.820902032777667" lon="-3.029594980180264">
        <ele>57.340000000000003</ele>
        <time>2026-07-11T13:11:15Z</time>
      </trkpt>
      <trkpt lat="51.820793990045786" lon="-3.02952297963202">
        <ele>56.369999999999997</ele>
        <time>2026-07-11T13:11:16Z</time>
      </trkpt>
      <trkpt lat="51.820774963125587" lon="-3.029498001560569">
        <ele>54.93</ele>
        <time>2026-07-11T13:11:17Z</time>
      </trkpt>
      <trkpt lat="51.820731963962317" lon="-3.029439998790622">
        <ele>53.969999999999999</ele>
        <time>2026-07-11T13:11:18Z</time>
      </trkpt>
      <trkpt lat="51.820707991719246" lon="-3.029222991317511">
        <ele>52.530000000000001</ele>
        <time>2026-07-11T13:11:19Z</time>
      </trkpt>
      <trkpt lat="51.820690976455808" lon="-3.029188038781285">
        <ele>51.57</ele>
        <time>2026-07-11T13:11:20Z</time>
      </trkpt>
      <trkpt lat="51.820613024756312" lon="-3.029103968292475">
        <ele>51.090000000000003</ele>
        <time>2026-07-11T13:11:21Z</time>
      </trkpt>
      <trkpt lat="51.820548987016082" lon="-3.029125006869435">
        <ele>50.609999999999999</ele>
        <time>2026-07-11T13:11:22Z</time>
      </trkpt>
      <trkpt lat="51.820515040308237" lon="-3.029136992990971">
        <ele>50.130000000000003</ele>
        <time>2026-07-11T13:11:23Z</time>
      </trkpt>
      <trkpt lat="51.820439016446471" lon="-3.029252998530865">
        <ele>49.649999999999999</ele>
        <time>2026-07-11T13:11:24Z</time>
      </trkpt>
      <trkpt lat="51.820395011454821" lon="-3.029260039329529">
        <ele>49.159999999999997</ele>
        <time>2026-07-11T13:11:25Z</time>
      </trkpt>
      <trkpt lat="51.820356035605073" lon="-3.029266996309161">
        <ele>48.68</ele>
        <time>2026-07-11T13:11:26Z</time>
      </trkpt>
      <trkpt lat="51.820323010906577" lon="-3.029272025451064">
        <ele>48.200000000000003</ele>
        <time>2026-07-11T13:11:27Z</time>
      </trkpt>
      <trkpt lat="51.820297027006745" lon="-3.029276970773935">
        <ele>48.200000000000003</ele>
        <time>2026-07-11T13:11:28Z</time>
      </trkpt>
      <trkpt lat="51.820270037278533" lon="-3.029280994087458">
        <ele>47.719999999999999</ele>
        <time>2026-07-11T13:11:29Z</time>
      </trkpt>
      <trkpt lat="51.82024204172194" lon="-3.029286023229361">
        <ele>47.719999999999999</ele>
        <time>2026-07-11T13:11:30Z</time>
      </trkpt>
      <trkpt lat="51.820212034508586" lon="-3.029290968552232">
        <ele>47.240000000000002</ele>
        <time>2026-07-11T13:11:31Z</time>
      </trkpt>
      <trkpt lat="51.820181021466851" lon="-3.029295997694135">
        <ele>47.240000000000002</ele>
        <time>2026-07-11T13:11:32Z</time>
      </trkpt>
      <trkpt lat="51.820147996768355" lon="-3.029301026836038">
        <ele>47.240000000000002</ele>
        <time>2026-07-11T13:11:33Z</time>
      </trkpt>
      <trkpt lat="51.820065015926957" lon="-3.029301026836038">
        <ele>47.719999999999999</ele>
        <time>2026-07-11T13:11:36Z</time>
      </trkpt>
      <trkpt lat="51.820012964308262" lon="-3.029291974380612">
        <ele>47.240000000000002</ele>
        <time>2026-07-11T13:11:38Z</time>
      </trkpt>
      <trkpt lat="51.819696966558695" lon="-3.029237994924188">
        <ele>47.240000000000002</ele>
        <time>2026-07-11T13:11:48Z</time>
      </trkpt>
      <trkpt lat="51.819335035979748" lon="-3.029136992990971">
        <ele>51.090000000000003</ele>
        <time>2026-07-11T13:11:57Z</time>
      </trkpt>
      <trkpt lat="51.819303017109632" lon="-3.029120983555913">
        <ele>51.57</ele>
        <time>2026-07-11T13:11:59Z</time>
      </trkpt>
      <trkpt lat="51.819289019331336" lon="-3.029114026576281">
        <ele>51.57</ele>
        <time>2026-07-11T13:12:00Z</time>
      </trkpt>
      <trkpt lat="51.819249037653208" lon="-3.029093993827701">
        <ele>51.57</ele>
        <time>2026-07-11T13:12:01Z</time>
      </trkpt>
      <trkpt lat="51.819249037653208" lon="-3.029093993827701">
        <ele>52.049999999999997</ele>
        <time>2026-07-11T13:12:02Z</time>
      </trkpt>
      <trkpt lat="51.819229004904628" lon="-3.029087036848068">
        <ele>52.049999999999997</ele>
        <time>2026-07-11T13:12:03Z</time>
      </trkpt>
      <trkpt lat="51.819209977984428" lon="-3.029081001877785">
        <ele>52.049999999999997</ele>
        <time>2026-07-11T13:12:04Z</time>
      </trkpt>
      <trkpt lat="51.818850981071591" lon="-3.028857037425041">
        <ele>52.530000000000001</ele>
        <time>2026-07-11T13:12:15Z</time>
      </trkpt>
      <trkpt lat="51.818550992757082" lon="-3.028694009408355">
        <ele>53.009999999999998</ele>
        <time>2026-07-11T13:12:22Z</time>
      </trkpt>
      <trkpt lat="51.818305989727378" lon="-3.028559982776642">
        <ele>53.490000000000002</ele>
        <time>2026-07-11T13:12:29Z</time>
      </trkpt>
      <trkpt lat="51.818188978359103" lon="-3.028463004156947">
        <ele>53.969999999999999</ele>
        <time>2026-07-11T13:12:38Z</time>
      </trkpt>
      <trkpt lat="51.818140028044581" lon="-3.028414975851774">
        <ele>53.969999999999999</ele>
        <time>2026-07-11T13:12:39Z</time>
      </trkpt>
      <trkpt lat="51.818088982254267" lon="-3.028363008052111">
        <ele>53.969999999999999</ele>
        <time>2026-07-11T13:12:40Z</time>
      </trkpt>
      <trkpt lat="51.817981023341417" lon="-3.028237028047442">
        <ele>53.490000000000002</ele>
        <time>2026-07-11T13:12:42Z</time>
      </trkpt>
      <trkpt lat="51.817903993651271" lon="-3.02825496532023">
        <ele>53.490000000000002</ele>
        <time>2026-07-11T13:12:43Z</time>
      </trkpt>
      <trkpt lat="51.817855965346098" lon="-3.028288995847106">
        <ele>53.009999999999998</ele>
        <time>2026-07-11T13:12:44Z</time>
      </trkpt>
      <trkpt lat="51.817808020859957" lon="-3.028340041637421">
        <ele>53.009999999999998</ele>
        <time>2026-07-11T13:12:45Z</time>
      </trkpt>
      <trkpt lat="51.81779301725328" lon="-3.028430985286832">
        <ele>53.009999999999998</ele>
        <time>2026-07-11T13:12:46Z</time>
      </trkpt>
      <trkpt lat="51.817801985889673" lon="-3.028539028018713">
        <ele>52.530000000000001</ele>
        <time>2026-07-11T13:12:47Z</time>
      </trkpt>
      <trkpt lat="51.817811038345098" lon="-3.02859996445477">
        <ele>52.530000000000001</ele>
        <time>2026-07-11T13:12:48Z</time>
      </trkpt>
      <trkpt lat="51.81790198199451" lon="-3.028802974149585">
        <ele>52.049999999999997</ele>
        <time>2026-07-11T13:12:49Z</time>
      </trkpt>
      <trkpt lat="51.817883038893342" lon="-3.028933983296156">
        <ele>52.049999999999997</ele>
        <time>2026-07-11T13:12:50Z</time>
      </trkpt>
      <trkpt lat="51.817863006144762" lon="-3.029075972735882">
        <ele>52.049999999999997</ele>
        <time>2026-07-11T13:12:51Z</time>
      </trkpt>
      <trkpt lat="51.81781598366797" lon="-3.029232965782285">
        <ele>52.049999999999997</ele>
        <time>2026-07-11T13:12:52Z</time>
      </trkpt>
      <trkpt lat="51.817758986726403" lon="-3.029373027384281">
        <ele>51.57</ele>
        <time>2026-07-11T13:12:53Z</time>
      </trkpt>
      <trkpt lat="51.817700983956456" lon="-3.029519040137529">
        <ele>51.57</ele>
        <time>2026-07-11T13:12:54Z</time>
      </trkpt>
      <trkpt lat="51.81762202642858" lon="-3.029648037627339">
        <ele>51.57</ele>
        <time>2026-07-11T13:12:55Z</time>
      </trkpt>
      <trkpt lat="51.817543990910053" lon="-3.029753984883428">
        <ele>52.049999999999997</ele>
        <time>2026-07-11T13:12:56Z</time>
      </trkpt>
      <trkpt lat="51.817468972876668" lon="-3.029856998473406">
        <ele>51.57</ele>
        <time>2026-07-11T13:12:57Z</time>
      </trkpt>
      <trkpt lat="51.817396972328424" lon="-3.029953977093101">
        <ele>51.57</ele>
        <time>2026-07-11T13:12:58Z</time>
      </trkpt>
      <trkpt lat="51.81717099621892" lon="-3.030254971235991">
        <ele>53.009999999999998</ele>
        <time>2026-07-11T13:13:01Z</time>
      </trkpt>
      <trkpt lat="51.81708499789238" lon="-3.030368965119124">
        <ele>53.969999999999999</ele>
        <time>2026-07-11T13:13:02Z</time>
      </trkpt>
      <trkpt lat="51.816997993737459" lon="-3.030485976487398">
        <ele>54.93</ele>
        <time>2026-07-11T13:13:03Z</time>
      </trkpt>
      <trkpt lat="51.816931022331119" lon="-3.030573986470699">
        <ele>55.890000000000001</ele>
        <time>2026-07-11T13:13:04Z</time>
      </trkpt>
      <trkpt lat="51.816811999306083" lon="-3.030694015324116">
        <ele>56.859999999999999</ele>
        <time>2026-07-11T13:13:05Z</time>
      </trkpt>
      <trkpt lat="51.81672097183764" lon="-3.030784036964178">
        <ele>57.82</ele>
        <time>2026-07-11T13:13:06Z</time>
      </trkpt>
      <trkpt lat="51.816619969904423" lon="-3.030774984508753">
        <ele>58.780000000000001</ele>
        <time>2026-07-11T13:13:07Z</time>
      </trkpt>
      <trkpt lat="51.816532965749502" lon="-3.030729973688722">
        <ele>59.740000000000002</ele>
        <time>2026-07-11T13:13:08Z</time>
      </trkpt>
      <trkpt lat="51.816446967422962" lon="-3.030632995069027">
        <ele>60.219999999999999</ele>
        <time>2026-07-11T13:13:09Z</time>
      </trkpt>
      <trkpt lat="51.816371027380228" lon="-3.030491005629301">
        <ele>61.18</ele>
        <time>2026-07-11T13:13:10Z</time>
      </trkpt>
      <trkpt lat="51.8163120187819" lon="-3.030281038954854">
        <ele>62.140000000000001</ele>
        <time>2026-07-11T13:13:11Z</time>
      </trkpt>
      <trkpt lat="51.816244963556528" lon="-3.030042992904782">
        <ele>63.100000000000001</ele>
        <time>2026-07-11T13:13:12Z</time>
      </trkpt>
      <trkpt lat="51.815603999421" lon="-3.02786503918469">
        <ele>65.030000000000001</ele>
        <time>2026-07-11T13:13:19Z</time>
      </trkpt>
      <trkpt lat="51.81457101367414" lon="-3.024485036730766">
        <ele>62.140000000000001</ele>
        <time>2026-07-11T13:13:28Z</time>
      </trkpt>
      <trkpt lat="51.812817016616464" lon="-3.019771976396442">
        <ele>55.409999999999997</ele>
        <time>2026-07-11T13:13:40Z</time>
      </trkpt>
      <trkpt lat="51.811013985425234" lon="-3.015112979337573">
        <ele>59.740000000000002</ele>
        <time>2026-07-11T13:13:52Z</time>
      </trkpt>
      <trkpt lat="51.81031996384263" lon="-3.012212002649903">
        <ele>64.069999999999993</ele>
        <time>2026-07-11T13:13:59Z</time>
      </trkpt>
      <trkpt lat="51.810100022703409" lon="-3.010651962831616">
        <ele>67.430000000000007</ele>
        <time>2026-07-11T13:14:04Z</time>
      </trkpt>
      <trkpt lat="51.810111002996564" lon="-3.010405031964183">
        <ele>69.349999999999994</ele>
        <time>2026-07-11T13:14:08Z</time>
      </trkpt>
      <trkpt lat="51.810115026310086" lon="-3.010382987558842">
        <ele>69.349999999999994</ele>
        <time>2026-07-11T13:14:09Z</time>
      </trkpt>
      <trkpt lat="51.810119971632957" lon="-3.010349962860346">
        <ele>70.310000000000002</ele>
        <time>2026-07-11T13:14:11Z</time>
      </trkpt>
      <trkpt lat="51.810141010209918" lon="-3.010229011997581">
        <ele>71.760000000000005</ele>
        <time>2026-07-11T13:14:14Z</time>
      </trkpt>
      <trkpt lat="51.810150984674692" lon="-3.010167991742492">
        <ele>71.760000000000005</ele>
        <time>2026-07-11T13:14:15Z</time>
      </trkpt>
      <trkpt lat="51.810162970796227" lon="-3.010136978700757">
        <ele>71.760000000000005</ele>
        <time>2026-07-11T13:14:16Z</time>
      </trkpt>
      <trkpt lat="51.810184009373188" lon="-3.010084005072713">
        <ele>71.760000000000005</ele>
        <time>2026-07-11T13:14:17Z</time>
      </trkpt>
      <trkpt lat="51.810193983837962" lon="-3.010061038658023">
        <ele>71.760000000000005</ele>
        <time>2026-07-11T13:14:18Z</time>
      </trkpt>
      <trkpt lat="51.810206975787878" lon="-3.009860962629318">
        <ele>71.760000000000005</ele>
        <time>2026-07-11T13:14:19Z</time>
      </trkpt>
      <trkpt lat="51.810212004929781" lon="-3.009717967361212">
        <ele>71.760000000000005</ele>
        <time>2026-07-11T13:14:20Z</time>
      </trkpt>
      <trkpt lat="51.810186021029949" lon="-3.009564997628331">
        <ele>71.760000000000005</ele>
        <time>2026-07-11T13:14:21Z</time>
      </trkpt>
      <trkpt lat="51.810137992724776" lon="-3.009420996531844">
        <ele>71.760000000000005</ele>
        <time>2026-07-11T13:14:22Z</time>
      </trkpt>
      <trkpt lat="51.81005802936852" lon="-3.009305996820331">
        <ele>71.760000000000005</ele>
        <time>2026-07-11T13:14:23Z</time>
      </trkpt>
      <trkpt lat="51.80997303687036" lon="-3.009270960465074">
        <ele>71.269999999999996</ele>
        <time>2026-07-11T13:14:24Z</time>
      </trkpt>
      <trkpt lat="51.809899024665356" lon="-3.009299961850047">
        <ele>71.269999999999996</ele>
        <time>2026-07-11T13:14:25Z</time>
      </trkpt>
      <trkpt lat="51.809818977490067" lon="-3.009345978498459">
        <ele>71.760000000000005</ele>
        <time>2026-07-11T13:14:26Z</time>
      </trkpt>
      <trkpt lat="51.809772038832307" lon="-3.009449997916818">
        <ele>72.239999999999995</ele>
        <time>2026-07-11T13:14:27Z</time>
      </trkpt>
      <trkpt lat="51.809721998870373" lon="-3.009588969871402">
        <ele>72.719999999999999</ele>
        <time>2026-07-11T13:14:28Z</time>
      </trkpt>
      <trkpt lat="51.809628959745169" lon="-3.009751997888088">
        <ele>72.719999999999999</ele>
        <time>2026-07-11T13:14:29Z</time>
      </trkpt>
      <trkpt lat="51.809537010267377" lon="-3.009849982336164">
        <ele>72.719999999999999</ele>
        <time>2026-07-11T13:14:30Z</time>
      </trkpt>
      <trkpt lat="51.809453023597598" lon="-3.009938998147845">
        <ele>72.719999999999999</ele>
        <time>2026-07-11T13:14:31Z</time>
      </trkpt>
      <trkpt lat="51.809374988079071" lon="-3.010018039494753">
        <ele>73.200000000000003</ele>
        <time>2026-07-11T13:14:32Z</time>
      </trkpt>
      <trkpt lat="51.809240961447358" lon="-3.010029019787908">
        <ele>73.200000000000003</ele>
        <time>2026-07-11T13:14:33Z</time>
      </trkpt>
      <trkpt lat="51.809086985886097" lon="-3.010041005909443">
        <ele>73.200000000000003</ele>
        <time>2026-07-11T13:14:34Z</time>
      </trkpt>
      <trkpt lat="51.808915995061398" lon="-3.010055003687739">
        <ele>73.200000000000003</ele>
        <time>2026-07-11T13:14:35Z</time>
      </trkpt>
      <trkpt lat="51.808737963438034" lon="-3.010031031444669">
        <ele>73.200000000000003</ele>
        <time>2026-07-11T13:14:36Z</time>
      </trkpt>
      <trkpt lat="51.808556998148561" lon="-3.009979985654354">
        <ele>73.200000000000003</ele>
        <time>2026-07-11T13:14:37Z</time>
      </trkpt>
      <trkpt lat="51.808369997888803" lon="-3.009919971227646">
        <ele>73.200000000000003</ele>
        <time>2026-07-11T13:14:38Z</time>
      </trkpt>
      <trkpt lat="51.808186015114188" lon="-3.009813018143177">
        <ele>73.200000000000003</ele>
        <time>2026-07-11T13:14:39Z</time>
      </trkpt>
      <trkpt lat="51.808003960177302" lon="-3.009705981239677">
        <ele>72.719999999999999</ele>
        <time>2026-07-11T13:14:40Z</time>
      </trkpt>
      <trkpt lat="51.807830035686493" lon="-3.009589975699782">
        <ele>72.719999999999999</ele>
        <time>2026-07-11T13:14:41Z</time>
      </trkpt>
      <trkpt lat="51.807672958821058" lon="-3.009446980431676">
        <ele>72.719999999999999</ele>
        <time>2026-07-11T13:14:42Z</time>
      </trkpt>
      <trkpt lat="51.806374015286565" lon="-3.008360015228391">
        <ele>69.349999999999994</ele>
        <time>2026-07-11T13:14:51Z</time>
      </trkpt>
      <trkpt lat="51.805084040388465" lon="-3.007803037762642">
        <ele>67.909999999999997</ele>
        <time>2026-07-11T13:14:59Z</time>
      </trkpt>
      <trkpt lat="51.804422959685326" lon="-3.007690971717238">
        <ele>66.950000000000003</ele>
        <time>2026-07-11T13:15:03Z</time>
      </trkpt>
      <trkpt lat="51.804267978295684" lon="-3.00773598253727">
        <ele>66.950000000000003</ele>
        <time>2026-07-11T13:15:04Z</time>
      </trkpt>
      <trkpt lat="51.804126994684339" lon="-3.007776970043778">
        <ele>66.469999999999999</ele>
        <time>2026-07-11T13:15:05Z</time>
      </trkpt>
      <trkpt lat="51.803697003051639" lon="-3.007902028039098">
        <ele>65.510000000000005</ele>
        <time>2026-07-11T13:15:10Z</time>
      </trkpt>
      <trkpt lat="51.803489970043302" lon="-3.007961958646774">
        <ele>65.510000000000005</ele>
        <time>2026-07-11T13:15:13Z</time>
      </trkpt>
      <trkpt lat="51.803405983373523" lon="-3.007986014708877">
        <ele>65.510000000000005</ele>
        <time>2026-07-11T13:15:14Z</time>
      </trkpt>
      <trkpt lat="51.802839031443" lon="-3.00810101442039">
        <ele>63.579999999999998</ele>
        <time>2026-07-11T13:15:20Z</time>
      </trkpt>
      <trkpt lat="51.802095975726843" lon="-3.008191036060453">
        <ele>61.659999999999997</ele>
        <time>2026-07-11T13:15:27Z</time>
      </trkpt>
      <trkpt lat="51.801205985248089" lon="-3.008297989144921">
        <ele>57.340000000000003</ele>
        <time>2026-07-11T13:15:34Z</time>
      </trkpt>
      <trkpt lat="51.801067013293505" lon="-3.00825297832489">
        <ele>56.369999999999997</ele>
        <time>2026-07-11T13:15:35Z</time>
      </trkpt>
      <trkpt lat="51.800933992490172" lon="-3.008196987211704">
        <ele>55.409999999999997</ele>
        <time>2026-07-11T13:15:36Z</time>
      </trkpt>
      <trkpt lat="51.800808012485504" lon="-3.00814401358366">
        <ele>54.93</ele>
        <time>2026-07-11T13:15:37Z</time>
      </trkpt>
      <trkpt lat="51.800685971975327" lon="-3.00805700942874">
        <ele>53.969999999999999</ele>
        <time>2026-07-11T13:15:38Z</time>
      </trkpt>
      <trkpt lat="51.799978036433458" lon="-3.007473964244127">
        <ele>53.969999999999999</ele>
        <time>2026-07-11T13:15:42Z</time>
      </trkpt>
      <trkpt lat="51.798652019351721" lon="-3.006420023739338">
        <ele>53.490000000000002</ele>
        <time>2026-07-11T13:15:48Z</time>
      </trkpt>
      <trkpt lat="51.797940982505679" lon="-3.005940997973084">
        <ele>52.049999999999997</ele>
        <time>2026-07-11T13:15:52Z</time>
      </trkpt>
      <trkpt lat="51.79774803109467" lon="-3.005897998809815">
        <ele>51.090000000000003</ele>
        <time>2026-07-11T13:15:53Z</time>
      </trkpt>
      <trkpt lat="51.79755499586463" lon="-3.005854999646545">
        <ele>50.130000000000003</ele>
        <time>2026-07-11T13:15:54Z</time>
      </trkpt>
      <trkpt lat="51.796174999326468" lon="-3.006044011563063">
        <ele>45.799999999999997</ele>
        <time>2026-07-11T13:16:01Z</time>
      </trkpt>
      <trkpt lat="51.795152993872762" lon="-3.006686987355351">
        <ele>46.759999999999998</ele>
        <time>2026-07-11T13:16:08Z</time>
      </trkpt>
      <trkpt lat="51.79428999312222" lon="-3.007195014506578">
        <ele>47.240000000000002</ele>
        <time>2026-07-11T13:16:16Z</time>
      </trkpt>
      <trkpt lat="51.793795041739941" lon="-3.007474970072508">
        <ele>47.719999999999999</ele>
        <time>2026-07-11T13:16:22Z</time>
      </trkpt>
      <trkpt lat="51.793719017878175" lon="-3.007565997540951">
        <ele>48.200000000000003</ele>
        <time>2026-07-11T13:16:23Z</time>
      </trkpt>
      <trkpt lat="51.79364399984479" lon="-3.007655013352633">
        <ele>48.68</ele>
        <time>2026-07-11T13:16:24Z</time>
      </trkpt>
      <trkpt lat="51.793576022610068" lon="-3.00775601528585">
        <ele>49.159999999999997</ele>
        <time>2026-07-11T13:16:25Z</time>
      </trkpt>
      <trkpt lat="51.79351600818336" lon="-3.007862968370318">
        <ele>49.649999999999999</ele>
        <time>2026-07-11T13:16:26Z</time>
      </trkpt>
      <trkpt lat="51.793066989630461" lon="-3.008662015199661">
        <ele>51.57</ele>
        <time>2026-07-11T13:16:34Z</time>
      </trkpt>
      <trkpt lat="51.792610008269548" lon="-3.009359976276755">
        <ele>51.090000000000003</ele>
        <time>2026-07-11T13:16:39Z</time>
      </trkpt>
      <trkpt lat="51.792513029649854" lon="-3.009439017623663">
        <ele>51.57</ele>
        <time>2026-07-11T13:16:40Z</time>
      </trkpt>
      <trkpt lat="51.79240096360445" lon="-3.009451003745198">
        <ele>52.049999999999997</ele>
        <time>2026-07-11T13:16:41Z</time>
      </trkpt>
      <trkpt lat="51.79229199886322" lon="-3.009462989866734">
        <ele>52.530000000000001</ele>
        <time>2026-07-11T13:16:42Z</time>
      </trkpt>
      <trkpt lat="51.7921859677881" lon="-3.009474975988269">
        <ele>53.490000000000002</ele>
        <time>2026-07-11T13:16:43Z</time>
      </trkpt>
      <trkpt lat="51.792084965854883" lon="-3.009469024837017">
        <ele>53.969999999999999</ele>
        <time>2026-07-11T13:16:44Z</time>
      </trkpt>
      <trkpt lat="51.791987987235188" lon="-3.009440023452044">
        <ele>54.93</ele>
        <time>2026-07-11T13:16:45Z</time>
      </trkpt>
      <trkpt lat="51.791895031929016" lon="-3.009412027895451">
        <ele>55.409999999999997</ele>
        <time>2026-07-11T13:16:46Z</time>
      </trkpt>
      <trkpt lat="51.791806016117334" lon="-3.009385038167238">
        <ele>56.369999999999997</ele>
        <time>2026-07-11T13:16:47Z</time>
      </trkpt>
      <trkpt lat="51.791590014472604" lon="-3.009326029568911">
        <ele>57.82</ele>
        <time>2026-07-11T13:16:49Z</time>
      </trkpt>
      <trkpt lat="51.79145498201251" lon="-3.009315971285105">
        <ele>58.299999999999997</ele>
        <time>2026-07-11T13:16:50Z</time>
      </trkpt>
      <trkpt lat="51.791310980916023" lon="-3.009329969063401">
        <ele>58.780000000000001</ele>
        <time>2026-07-11T13:16:51Z</time>
      </trkpt>
      <trkpt lat="51.791163962334394" lon="-3.009343966841698">
        <ele>59.259999999999998</ele>
        <time>2026-07-11T13:16:52Z</time>
      </trkpt>
      <trkpt lat="51.791019961237907" lon="-3.009369028732181">
        <ele>59.740000000000002</ele>
        <time>2026-07-11T13:16:53Z</time>
      </trkpt>
      <trkpt lat="51.789684975519776" lon="-3.010050980374217">
        <ele>60.219999999999999</ele>
        <time>2026-07-11T13:17:03Z</time>
      </trkpt>
      <trkpt lat="51.788463983684778" lon="-3.010640982538462">
        <ele>61.659999999999997</ele>
        <time>2026-07-11T13:17:12Z</time>
      </trkpt>
      <trkpt lat="51.78831797093153" lon="-3.010694039985538">
        <ele>61.659999999999997</ele>
        <time>2026-07-11T13:17:13Z</time>
      </trkpt>
      <trkpt lat="51.787264030426741" lon="-3.011030992493033">
        <ele>63.100000000000001</ele>
        <time>2026-07-11T13:17:20Z</time>
      </trkpt>
      <trkpt lat="51.787118017673492" lon="-3.011029986664653">
        <ele>63.579999999999998</ele>
        <time>2026-07-11T13:17:21Z</time>
      </trkpt>
      <trkpt lat="51.786978961899877" lon="-3.010995034128428">
        <ele>63.579999999999998</ele>
        <time>2026-07-11T13:17:22Z</time>
      </trkpt>
      <trkpt lat="51.786848036572337" lon="-3.010962009429932">
        <ele>64.069999999999993</ele>
        <time>2026-07-11T13:17:23Z</time>
      </trkpt>
      <trkpt lat="51.786699006333947" lon="-3.01089596003294">
        <ele>64.069999999999993</ele>
        <time>2026-07-11T13:17:24Z</time>
      </trkpt>
      <trkpt lat="51.785584967583418" lon="-3.010232029482722">
        <ele>66.950000000000003</ele>
        <time>2026-07-11T13:17:32Z</time>
      </trkpt>
      <trkpt lat="51.784400017932057" lon="-3.009266015142202">
        <ele>66.469999999999999</ele>
        <time>2026-07-11T13:17:39Z</time>
      </trkpt>
      <trkpt lat="51.78309503942728" lon="-3.008395973592997">
        <ele>65.510000000000005</ele>
        <time>2026-07-11T13:17:45Z</time>
      </trkpt>
      <trkpt lat="51.781479008495808" lon="-3.007673034444451">
        <ele>67.430000000000007</ele>
        <time>2026-07-11T13:17:51Z</time>
      </trkpt>
      <trkpt lat="51.780129019171" lon="-3.007158972322941">
        <ele>69.349999999999994</ele>
        <time>2026-07-11T13:17:58Z</time>
      </trkpt>
      <trkpt lat="51.777929021045566" lon="-3.006305024027824">
        <ele>74.640000000000001</ele>
        <time>2026-07-11T13:18:10Z</time>
      </trkpt>
      <trkpt lat="51.776519017294049" lon="-3.005749974399805">
        <ele>81.370000000000005</ele>
        <time>2026-07-11T13:18:18Z</time>
      </trkpt>
      <trkpt lat="51.776336040347815" lon="-3.0056759621948">
        <ele>82.329999999999998</ele>
        <time>2026-07-11T13:18:19Z</time>
      </trkpt>
      <trkpt lat="51.775059979408979" lon="-3.00515997223556">
        <ele>90.019999999999996</ele>
        <time>2026-07-11T13:18:26Z</time>
      </trkpt>
      <trkpt lat="51.774161020293832" lon="-3.004767028614879">
        <ele>92.900000000000006</ele>
        <time>2026-07-11T13:18:31Z</time>
      </trkpt>
      <trkpt lat="51.773996986448765" lon="-3.004628978669643">
        <ele>92.900000000000006</ele>
        <time>2026-07-11T13:18:32Z</time>
      </trkpt>
      <trkpt lat="51.772591006010771" lon="-3.003445034846664">
        <ele>92.420000000000002</ele>
        <time>2026-07-11T13:18:41Z</time>
      </trkpt>
      <trkpt lat="51.771366996690631" lon="-3.00225798971951">
        <ele>95.310000000000002</ele>
        <time>2026-07-11T13:18:49Z</time>
      </trkpt>
      <trkpt lat="51.769962022081017" lon="-3.000651011243463">
        <ele>99.629999999999995</ele>
        <time>2026-07-11T13:18:59Z</time>
      </trkpt>
      <trkpt lat="51.76861303858459" lon="-2.998872036114335">
        <ele>98.189999999999998</ele>
        <time>2026-07-11T13:19:10Z</time>
      </trkpt>
      <trkpt lat="51.768384966999292" lon="-2.998550003394485">
        <ele>96.269999999999996</ele>
        <time>2026-07-11T13:19:12Z</time>
      </trkpt>
      <trkpt lat="51.768277008086443" lon="-2.998384041711688">
        <ele>95.310000000000002</ele>
        <time>2026-07-11T13:19:13Z</time>
      </trkpt>
      <trkpt lat="51.76743496209383" lon="-2.997088031843305">
        <ele>91.939999999999998</ele>
        <time>2026-07-11T13:19:21Z</time>
      </trkpt>
      <trkpt lat="51.767178978770971" lon="-2.996680000796914">
        <ele>91.939999999999998</ele>
        <time>2026-07-11T13:19:24Z</time>
      </trkpt>
      <trkpt lat="51.766613032668829" lon="-2.995264967903495">
        <ele>91.459999999999994</ele>
        <time>2026-07-11T13:19:33Z</time>
      </trkpt>
      <trkpt lat="51.766399964690208" lon="-2.994833970442414">
        <ele>90.019999999999996</ele>
        <time>2026-07-11T13:19:36Z</time>
      </trkpt>
      <trkpt lat="51.766326036304235" lon="-2.994700027629733">
        <ele>89.060000000000002</ele>
        <time>2026-07-11T13:19:37Z</time>
      </trkpt>
      <trkpt lat="51.765656992793083" lon="-2.993809031322599">
        <ele>89.060000000000002</ele>
        <time>2026-07-11T13:19:44Z</time>
      </trkpt>
      <trkpt lat="51.764730038121343" lon="-2.993136970326304">
        <ele>93.870000000000005</ele>
        <time>2026-07-11T13:19:51Z</time>
      </trkpt>
      <trkpt lat="51.763339983299375" lon="-2.992428028956056">
        <ele>96.75</ele>
        <time>2026-07-11T13:20:00Z</time>
      </trkpt>
      <trkpt lat="51.762279001995921" lon="-2.991897035390139">
        <ele>101.08</ele>
        <time>2026-07-11T13:20:05Z</time>
      </trkpt>
      <trkpt lat="51.760917026549578" lon="-2.991216005757451">
        <ele>111.17</ele>
        <time>2026-07-11T13:20:13Z</time>
      </trkpt>
      <trkpt lat="51.760577978566289" lon="-2.991027999669313">
        <ele>112.61</ele>
        <time>2026-07-11T13:20:15Z</time>
      </trkpt>
      <trkpt lat="51.760401036590338" lon="-2.990921968594194">
        <ele>114.05</ele>
        <time>2026-07-11T13:20:16Z</time>
      </trkpt>
      <trkpt lat="51.760224010795355" lon="-2.990815015509725">
        <ele>115.01000000000001</ele>
        <time>2026-07-11T13:20:17Z</time>
      </trkpt>
      <trkpt lat="51.758963037282228" lon="-2.990113031119108">
        <ele>115.98</ele>
        <time>2026-07-11T13:20:24Z</time>
      </trkpt>
      <trkpt lat="51.757305013015866" lon="-2.989826034754515">
        <ele>115.98</ele>
        <time>2026-07-11T13:20:33Z</time>
      </trkpt>
      <trkpt lat="51.755752013996243" lon="-2.989609027281404">
        <ele>113.09</ele>
        <time>2026-07-11T13:20:42Z</time>
      </trkpt>
      <trkpt lat="51.755024967715144" lon="-2.98915196210146">
        <ele>108.77</ele>
        <time>2026-07-11T13:20:46Z</time>
      </trkpt>
      <trkpt lat="51.753597026690841" lon="-2.987607009708881">
        <ele>100.11</ele>
        <time>2026-07-11T13:20:55Z</time>
      </trkpt>
      <trkpt lat="51.753433998674154" lon="-2.987436018884182">
        <ele>99.629999999999995</ele>
        <time>2026-07-11T13:20:56Z</time>
      </trkpt>
      <trkpt lat="51.752578038722277" lon="-2.986736968159676">
        <ele>96.75</ele>
        <time>2026-07-11T13:21:01Z</time>
      </trkpt>
      <trkpt lat="51.752397995442152" lon="-2.986634960398078">
        <ele>95.790000000000006</ele>
        <time>2026-07-11T13:21:02Z</time>
      </trkpt>
      <trkpt lat="51.752218035981059" lon="-2.986580980941653">
        <ele>95.310000000000002</ele>
        <time>2026-07-11T13:21:03Z</time>
      </trkpt>
      <trkpt lat="51.751859039068222" lon="-2.986507974565029">
        <ele>94.349999999999994</ele>
        <time>2026-07-11T13:21:05Z</time>
      </trkpt>
      <trkpt lat="51.749991970136762" lon="-2.986549967899919">
        <ele>98.670000000000002</ele>
        <time>2026-07-11T13:21:15Z</time>
      </trkpt>
      <trkpt lat="51.748100006952882" lon="-2.986580980941653">
        <ele>96.269999999999996</ele>
        <time>2026-07-11T13:21:25Z</time>
      </trkpt>
      <trkpt lat="51.746349027380347" lon="-2.986343018710613">
        <ele>92.420000000000002</ele>
        <time>2026-07-11T13:21:34Z</time>
      </trkpt>
      <trkpt lat="51.745854998007417" lon="-2.986222989857197">
        <ele>93.390000000000001</ele>
        <time>2026-07-11T13:21:37Z</time>
      </trkpt>
      <trkpt lat="51.745721977204084" lon="-2.986244028434157">
        <ele>93.870000000000005</ele>
        <time>2026-07-11T13:21:38Z</time>
      </trkpt>
      <trkpt lat="51.744985962286592" lon="-2.986279986798763">
        <ele>96.75</ele>
        <time>2026-07-11T13:21:44Z</time>
      </trkpt>
      <trkpt lat="51.744856964796782" lon="-2.986249979585409">
        <ele>97.230000000000004</ele>
        <time>2026-07-11T13:21:45Z</time>
      </trkpt>
      <trkpt lat="51.74371400848031" lon="-2.98607999458909">
        <ele>98.189999999999998</ele>
        <time>2026-07-11T13:21:53Z</time>
      </trkpt>
      <trkpt lat="51.742498967796564" lon="-2.986110001802445">
        <ele>101.08</ele>
        <time>2026-07-11T13:22:02Z</time>
      </trkpt>
      <trkpt lat="51.742279026657343" lon="-2.986083012074232">
        <ele>102.04000000000001</ele>
        <time>2026-07-11T13:22:04Z</time>
      </trkpt>
      <trkpt lat="51.742163021117449" lon="-2.986027020961046">
        <ele>102.52</ele>
        <time>2026-07-11T13:22:05Z</time>
      </trkpt>
      <trkpt lat="51.741261966526508" lon="-2.98537197522819">
        <ele>106.84</ele>
        <time>2026-07-11T13:22:12Z</time>
      </trkpt>
      <trkpt lat="51.74008397385478" lon="-2.984603019431233">
        <ele>107.31999999999999</ele>
        <time>2026-07-11T13:22:21Z</time>
      </trkpt>
      <trkpt lat="51.739658005535603" lon="-2.984396992251277">
        <ele>107.31999999999999</ele>
        <time>2026-07-11T13:22:24Z</time>
      </trkpt>
      <trkpt lat="51.739510986953974" lon="-2.984376959502697">
        <ele>106.84</ele>
        <time>2026-07-11T13:22:25Z</time>
      </trkpt>
      <trkpt lat="51.739368997514248" lon="-2.9843819886446">
        <ele>107.31999999999999</ele>
        <time>2026-07-11T13:22:26Z</time>
      </trkpt>
      <trkpt lat="51.739234970882535" lon="-2.984386011958122">
        <ele>107.81</ele>
        <time>2026-07-11T13:22:27Z</time>
      </trkpt>
      <trkpt lat="51.739105973392725" lon="-2.984390035271645">
        <ele>107.81</ele>
        <time>2026-07-11T13:22:28Z</time>
      </trkpt>
      <trkpt lat="51.73898502252996" lon="-2.984393974766135">
        <ele>108.29000000000001</ele>
        <time>2026-07-11T13:22:29Z</time>
      </trkpt>
      <trkpt lat="51.738868011161685" lon="-2.984396992251277">
        <ele>108.29000000000001</ele>
        <time>2026-07-11T13:22:30Z</time>
      </trkpt>
      <trkpt lat="51.738746976479888" lon="-2.984313005581498">
        <ele>108.29000000000001</ele>
        <time>2026-07-11T13:22:31Z</time>
      </trkpt>
      <trkpt lat="51.738624013960361" lon="-2.984227007254958">
        <ele>108.29000000000001</ele>
        <time>2026-07-11T13:22:32Z</time>
      </trkpt>
      <trkpt lat="51.738508008420467" lon="-2.984146038070321">
        <ele>108.29000000000001</ele>
        <time>2026-07-11T13:22:33Z</time>
      </trkpt>
      <trkpt lat="51.738397032022476" lon="-2.984066996723414">
        <ele>108.77</ele>
        <time>2026-07-11T13:22:34Z</time>
      </trkpt>
      <trkpt lat="51.737619023770094" lon="-2.983039040118456">
        <ele>107.81</ele>
        <time>2026-07-11T13:22:43Z</time>
      </trkpt>
      <trkpt lat="51.737521039322019" lon="-2.982923034578562">
        <ele>107.81</ele>
        <time>2026-07-11T13:22:44Z</time>
      </trkpt>
      <trkpt lat="51.737408973276615" lon="-2.982840975746512">
        <ele>107.31999999999999</ele>
        <time>2026-07-11T13:22:45Z</time>
      </trkpt>
      <trkpt lat="51.737291039898992" lon="-2.982757994905114">
        <ele>106.84</ele>
        <time>2026-07-11T13:22:46Z</time>
      </trkpt>
      <trkpt lat="51.737171011045575" lon="-2.982673002406955">
        <ele>106.84</ele>
        <time>2026-07-11T13:22:47Z</time>
      </trkpt>
      <trkpt lat="51.737040001899004" lon="-2.982645006850362">
        <ele>106.84</ele>
        <time>2026-07-11T13:22:48Z</time>
      </trkpt>
      <trkpt lat="51.73690396361053" lon="-2.982626985758543">
        <ele>106.84</ele>
        <time>2026-07-11T13:22:49Z</time>
      </trkpt>
      <trkpt lat="51.73677303828299" lon="-2.982638971880078">
        <ele>106.36</ele>
        <time>2026-07-11T13:22:50Z</time>
      </trkpt>
      <trkpt lat="51.736642029136419" lon="-2.982692029327154">
        <ele>106.36</ele>
        <time>2026-07-11T13:22:51Z</time>
      </trkpt>
      <trkpt lat="51.736517976969481" lon="-2.982740979641676">
        <ele>106.36</ele>
        <time>2026-07-11T13:22:52Z</time>
      </trkpt>
      <trkpt lat="51.736415969207883" lon="-2.9828139860183">
        <ele>105.88</ele>
        <time>2026-07-11T13:22:53Z</time>
      </trkpt>
      <trkpt lat="51.736316978931427" lon="-2.982909036800265">
        <ele>106.36</ele>
        <time>2026-07-11T13:22:54Z</time>
      </trkpt>
      <trkpt lat="51.736218994483352" lon="-2.983002997934818">
        <ele>106.84</ele>
        <time>2026-07-11T13:22:55Z</time>
      </trkpt>
      <trkpt lat="51.735144015401602" lon="-2.98378000035882">
        <ele>109.73</ele>
        <time>2026-07-11T13:23:05Z</time>
      </trkpt>
      <trkpt lat="51.734916027635336" lon="-2.983935987576842">
        <ele>109.73</ele>
        <time>2026-07-11T13:23:07Z</time>
      </trkpt>
      <trkpt lat="51.734816031530499" lon="-2.98406096175313">
        <ele>109.73</ele>
        <time>2026-07-11T13:23:08Z</time>
      </trkpt>
      <trkpt lat="51.734717041254044" lon="-2.984185013920069">
        <ele>109.25</ele>
        <time>2026-07-11T13:23:09Z</time>
      </trkpt>
      <trkpt lat="51.734642023220658" lon="-2.984331026673317">
        <ele>109.25</ele>
        <time>2026-07-11T13:23:10Z</time>
      </trkpt>
      <trkpt lat="51.734572034329176" lon="-2.984506040811539">
        <ele>109.25</ele>
        <time>2026-07-11T13:23:11Z</time>
      </trkpt>
      <trkpt lat="51.734502967447042" lon="-2.984678959473968">
        <ele>109.25</ele>
        <time>2026-07-11T13:23:12Z</time>
      </trkpt>
      <trkpt lat="51.734202979132533" lon="-2.985344985499978">
        <ele>110.69</ele>
        <time>2026-07-11T13:23:16Z</time>
      </trkpt>
      <trkpt lat="51.734112035483122" lon="-2.985487980768085">
        <ele>111.17</ele>
        <time>2026-07-11T13:23:17Z</time>
      </trkpt>
      <trkpt lat="51.734020002186298" lon="-2.985631981864572">
        <ele>111.65000000000001</ele>
        <time>2026-07-11T13:23:18Z</time>
      </trkpt>
      <trkpt lat="51.733484985306859" lon="-2.98646598123014">
        <ele>116.45999999999999</ele>
        <time>2026-07-11T13:23:24Z</time>
      </trkpt>
      <trkpt lat="51.73329496756196" lon="-2.986755995079875">
        <ele>116.94</ele>
        <time>2026-07-11T13:23:26Z</time>
      </trkpt>
      <trkpt lat="51.732534980401397" lon="-2.987641040235758">
        <ele>115.98</ele>
        <time>2026-07-11T13:23:33Z</time>
      </trkpt>
      <trkpt lat="51.73241101205349" lon="-2.987680016085506">
        <ele>115.98</ele>
        <time>2026-07-11T13:23:34Z</time>
      </trkpt>
      <trkpt lat="51.732272040098906" lon="-2.987708011642098">
        <ele>115.98</ele>
        <time>2026-07-11T13:23:35Z</time>
      </trkpt>
      <trkpt lat="51.73213399015367" lon="-2.98771102912724">
        <ele>115.98</ele>
        <time>2026-07-11T13:23:36Z</time>
      </trkpt>
      <trkpt lat="51.731984037905931" lon="-2.987681021913886">
        <ele>115.5</ele>
        <time>2026-07-11T13:23:37Z</time>
      </trkpt>
      <trkpt lat="51.731827966868877" lon="-2.987650008872151">
        <ele>115.5</ele>
        <time>2026-07-11T13:23:38Z</time>
      </trkpt>
      <trkpt lat="51.730756005272269" lon="-2.987314984202385">
        <ele>118.86</ele>
        <time>2026-07-11T13:23:45Z</time>
      </trkpt>
      <trkpt lat="51.729640038684011" lon="-2.986942995339632">
        <ele>120.3</ele>
        <time>2026-07-11T13:23:52Z</time>
      </trkpt>
      <trkpt lat="51.727983020246029" lon="-2.986671002581716">
        <ele>122.22</ele>
        <time>2026-07-11T13:24:01Z</time>
      </trkpt>
      <trkpt lat="51.726815002039075" lon="-2.987406011670828">
        <ele>121.73999999999999</ele>
        <time>2026-07-11T13:24:08Z</time>
      </trkpt>
      <trkpt lat="51.725134011358023" lon="-2.988796988502145">
        <ele>121.26000000000001</ele>
        <time>2026-07-11T13:24:19Z</time>
      </trkpt>
      <trkpt lat="51.723922993987799" lon="-2.989003015682101">
        <ele>115.01000000000001</ele>
        <time>2026-07-11T13:24:26Z</time>
      </trkpt>
      <trkpt lat="51.721950983628631" lon="-2.989190015941858">
        <ele>97.230000000000004</ele>
        <time>2026-07-11T13:24:36Z</time>
      </trkpt>
      <trkpt lat="51.720035970211029" lon="-2.989434013143182">
        <ele>79.930000000000007</ele>
        <time>2026-07-11T13:24:46Z</time>
      </trkpt>
      <trkpt lat="51.718632001429796" lon="-2.990301959216595">
        <ele>73.200000000000003</ele>
        <time>2026-07-11T13:24:54Z</time>
      </trkpt>
      <trkpt lat="51.718457993119955" lon="-2.990455012768507">
        <ele>72.719999999999999</ele>
        <time>2026-07-11T13:24:55Z</time>
      </trkpt>
      <trkpt lat="51.718306029215455" lon="-2.990652993321419">
        <ele>72.719999999999999</ele>
        <time>2026-07-11T13:24:56Z</time>
      </trkpt>
      <trkpt lat="51.718158004805446" lon="-2.990853991359472">
        <ele>72.239999999999995</ele>
        <time>2026-07-11T13:24:57Z</time>
      </trkpt>
      <trkpt lat="51.718014003708959" lon="-2.991050966084003">
        <ele>72.239999999999995</ele>
        <time>2026-07-11T13:24:58Z</time>
      </trkpt>
      <trkpt lat="51.717182016000152" lon="-2.993001015856862">
        <ele>73.200000000000003</ele>
        <time>2026-07-11T13:25:06Z</time>
      </trkpt>
      <trkpt lat="51.716324966400862" lon="-2.996103996410966">
        <ele>75.599999999999994</ele>
        <time>2026-07-11T13:25:18Z</time>
      </trkpt>
      <trkpt lat="51.715864967554808" lon="-2.997410986572504">
        <ele>78</ele>
        <time>2026-07-11T13:25:25Z</time>
      </trkpt>
      <trkpt lat="51.715802019461989" lon="-2.997500002384186">
        <ele>78.480000000000004</ele>
        <time>2026-07-11T13:25:26Z</time>
      </trkpt>
      <trkpt lat="51.715746028348804" lon="-2.997578959912062">
        <ele>78.969999999999999</ele>
        <time>2026-07-11T13:25:27Z</time>
      </trkpt>
      <trkpt lat="51.715693976730108" lon="-2.997652972117066">
        <ele>79.450000000000003</ele>
        <time>2026-07-11T13:25:28Z</time>
      </trkpt>
      <trkpt lat="51.715641003102064" lon="-2.997727990150452">
        <ele>79.450000000000003</ele>
        <time>2026-07-11T13:25:29Z</time>
      </trkpt>
      <trkpt lat="51.715521980077028" lon="-2.997765960171819">
        <ele>79.930000000000007</ele>
        <time>2026-07-11T13:25:30Z</time>
      </trkpt>
      <trkpt lat="51.715464983135462" lon="-2.997808959335089">
        <ele>79.930000000000007</ele>
        <time>2026-07-11T13:25:31Z</time>
      </trkpt>
      <trkpt lat="51.715399017557502" lon="-2.997912978753448">
        <ele>79.930000000000007</ele>
        <time>2026-07-11T13:25:32Z</time>
      </trkpt>
      <trkpt lat="51.715341014787555" lon="-2.998039964586496">
        <ele>79.450000000000003</ele>
        <time>2026-07-11T13:25:33Z</time>
      </trkpt>
      <trkpt lat="51.715323999524117" lon="-2.998211961239576">
        <ele>79.930000000000007</ele>
        <time>2026-07-11T13:25:34Z</time>
      </trkpt>
      <trkpt lat="51.715274965390563" lon="-2.998369038105011">
        <ele>80.409999999999997</ele>
        <time>2026-07-11T13:25:35Z</time>
      </trkpt>
      <trkpt lat="51.715156026184559" lon="-2.998661985620856">
        <ele>80.890000000000001</ele>
        <time>2026-07-11T13:25:37Z</time>
      </trkpt>
      <trkpt lat="51.715086037293077" lon="-2.998792994767427">
        <ele>80.890000000000001</ele>
        <time>2026-07-11T13:25:38Z</time>
      </trkpt>
      <trkpt lat="51.715004984289408" lon="-2.998910006135702">
        <ele>81.370000000000005</ele>
        <time>2026-07-11T13:25:39Z</time>
      </trkpt>
      <trkpt lat="51.714913034811616" lon="-2.99901301972568">
        <ele>81.370000000000005</ele>
        <time>2026-07-11T13:25:40Z</time>
      </trkpt>
      <trkpt lat="51.71481697820127" lon="-2.999118966981769">
        <ele>81.370000000000005</ele>
        <time>2026-07-11T13:25:41Z</time>
      </trkpt>
      <trkpt lat="51.713677039369941" lon="-3.000211967155337">
        <ele>82.810000000000002</ele>
        <time>2026-07-11T13:25:52Z</time>
      </trkpt>
      <trkpt lat="51.712333001196384" lon="-3.001330029219389">
        <ele>84.25</ele>
        <time>2026-07-11T13:26:02Z</time>
      </trkpt>
      <trkpt lat="51.710845967754722" lon="-3.002568036317825">
        <ele>84.25</ele>
        <time>2026-07-11T13:26:12Z</time>
      </trkpt>
      <trkpt lat="51.708880998194218" lon="-3.004283979535103">
        <ele>85.209999999999994</ele>
        <time>2026-07-11T13:26:23Z</time>
      </trkpt>
      <trkpt lat="51.706977970898151" lon="-3.005993971601129">
        <ele>85.689999999999998</ele>
        <time>2026-07-11T13:26:33Z</time>
      </trkpt>
      <trkpt lat="51.705249035730958" lon="-3.007530039176345">
        <ele>89.540000000000006</ele>
        <time>2026-07-11T13:26:43Z</time>
      </trkpt>
      <trkpt lat="51.704992968589067" lon="-3.007709998637438">
        <ele>90.019999999999996</ele>
        <time>2026-07-11T13:26:45Z</time>
      </trkpt>
      <trkpt lat="51.70486799441278" lon="-3.007745034992695">
        <ele>90.019999999999996</ele>
        <time>2026-07-11T13:26:46Z</time>
      </trkpt>
      <trkpt lat="51.704741008579731" lon="-3.00777898170054">
        <ele>90.019999999999996</ele>
        <time>2026-07-11T13:26:47Z</time>
      </trkpt>
      <trkpt lat="51.704185958951712" lon="-3.007921976968646">
        <ele>90.980000000000004</ele>
        <time>2026-07-11T13:26:51Z</time>
      </trkpt>
      <trkpt lat="51.70403097756207" lon="-3.007984003052115">
        <ele>91.459999999999994</ele>
        <time>2026-07-11T13:26:52Z</time>
      </trkpt>
      <trkpt lat="51.703867027536035" lon="-3.008049968630076">
        <ele>91.459999999999994</ele>
        <time>2026-07-11T13:26:53Z</time>
      </trkpt>
      <trkpt lat="51.702039018273354" lon="-3.009029980748892">
        <ele>92.420000000000002</ele>
        <time>2026-07-11T13:27:03Z</time>
      </trkpt>
      <trkpt lat="51.700518960133195" lon="-3.010193975642324">
        <ele>92.900000000000006</ele>
        <time>2026-07-11T13:27:10Z</time>
      </trkpt>
      <trkpt lat="51.69902304187417" lon="-3.01201100461185">
        <ele>97.709999999999994</ele>
        <time>2026-07-11T13:27:17Z</time>
      </trkpt>
      <trkpt lat="51.696776021271944" lon="-3.015609020367265">
        <ele>107.31999999999999</ele>
        <time>2026-07-11T13:27:29Z</time>
      </trkpt>
      <trkpt lat="51.69494197703898" lon="-3.018603958189488">
        <ele>111.17</ele>
        <time>2026-07-11T13:27:39Z</time>
      </trkpt>
      <trkpt lat="51.694128010421991" lon="-3.020057966932654">
        <ele>115.5</ele>
        <time>2026-07-11T13:27:45Z</time>
      </trkpt>
      <trkpt lat="51.693748980760574" lon="-3.020986011251807">
        <ele>117.42</ele>
        <time>2026-07-11T13:27:50Z</time>
      </trkpt>
      <trkpt lat="51.693682009354234" lon="-3.021064968779683">
        <ele>117.42</ele>
        <time>2026-07-11T13:27:51Z</time>
      </trkpt>
      <trkpt lat="51.693620989099145" lon="-3.021135963499546">
        <ele>117.90000000000001</ele>
        <time>2026-07-11T13:27:52Z</time>
      </trkpt>
      <trkpt lat="51.693548988550901" lon="-3.021219028159976">
        <ele>117.90000000000001</ele>
        <time>2026-07-11T13:27:53Z</time>
      </trkpt>
      <trkpt lat="51.693452009931207" lon="-3.021237971261144">
        <ele>117.90000000000001</ele>
        <time>2026-07-11T13:27:54Z</time>
      </trkpt>
      <trkpt lat="51.693348996341228" lon="-3.021295974031091">
        <ele>117.90000000000001</ele>
        <time>2026-07-11T13:27:55Z</time>
      </trkpt>
      <trkpt lat="51.693239025771618" lon="-3.021362023428083">
        <ele>117.90000000000001</ele>
        <time>2026-07-11T13:27:56Z</time>
      </trkpt>
      <trkpt lat="51.693147998303175" lon="-3.021489009261131">
        <ele>117.90000000000001</ele>
        <time>2026-07-11T13:27:57Z</time>
      </trkpt>
      <trkpt lat="51.693024029955268" lon="-3.021575007587671">
        <ele>117.90000000000001</ele>
        <time>2026-07-11T13:27:58Z</time>
      </trkpt>
      <trkpt lat="51.692895032465458" lon="-3.021660000085831">
        <ele>117.90000000000001</ele>
        <time>2026-07-11T13:27:59Z</time>
      </trkpt>
      <trkpt lat="51.6927529592067" lon="-3.021753039211035">
        <ele>118.38</ele>
        <time>2026-07-11T13:28:00Z</time>
      </trkpt>
      <trkpt lat="51.692602001130581" lon="-3.021852029487491">
        <ele>118.38</ele>
        <time>2026-07-11T13:28:01Z</time>
      </trkpt>
      <trkpt lat="51.692446013912559" lon="-3.021952025592327">
        <ele>118.38</ele>
        <time>2026-07-11T13:28:02Z</time>
      </trkpt>
      <trkpt lat="51.692264964804053" lon="-3.022014973685145">
        <ele>118.38</ele>
        <time>2026-07-11T13:28:03Z</time>
      </trkpt>
      <trkpt lat="51.692077964544296" lon="-3.022080017253757">
        <ele>118.38</ele>
        <time>2026-07-11T13:28:04Z</time>
      </trkpt>
      <trkpt lat="51.69030100107193" lon="-3.022404983639717">
        <ele>116.94</ele>
        <time>2026-07-11T13:28:13Z</time>
      </trkpt>
      <trkpt lat="51.689093001186848" lon="-3.022400038316846">
        <ele>116.94</ele>
        <time>2026-07-11T13:28:18Z</time>
      </trkpt>
      <trkpt lat="51.687225010246038" lon="-3.021768964827061">
        <ele>113.56999999999999</ele>
        <time>2026-07-11T13:28:25Z</time>
      </trkpt>
      <trkpt lat="51.68574501760304" lon="-3.020430961623788">
        <ele>110.69</ele>
        <time>2026-07-11T13:28:31Z</time>
      </trkpt>
      <trkpt lat="51.683331029489636" lon="-3.017393024638295">
        <ele>104.92</ele>
        <time>2026-07-11T13:28:42Z</time>
      </trkpt>
      <trkpt lat="51.682342970743775" lon="-3.016155017539859">
        <ele>101.56</ele>
        <time>2026-07-11T13:28:48Z</time>
      </trkpt>
      <trkpt lat="51.681673005223274" lon="-3.01527701318264">
        <ele>98.189999999999998</ele>
        <time>2026-07-11T13:28:54Z</time>
      </trkpt>
      <trkpt lat="51.681583989411592" lon="-3.014981970191002">
        <ele>94.349999999999994</ele>
        <time>2026-07-11T13:28:59Z</time>
      </trkpt>
      <trkpt lat="51.681572003290057" lon="-3.014931008219719">
        <ele>93.870000000000005</ele>
        <time>2026-07-11T13:29:00Z</time>
      </trkpt>
      <trkpt lat="51.681552976369858" lon="-3.014844004064798">
        <ele>93.390000000000001</ele>
        <time>2026-07-11T13:29:01Z</time>
      </trkpt>
      <trkpt lat="51.68153302744031" lon="-3.014729004353285">
        <ele>93.390000000000001</ele>
        <time>2026-07-11T13:29:02Z</time>
      </trkpt>
      <trkpt lat="51.681518023833632" lon="-3.014230029657483">
        <ele>91.939999999999998</ele>
        <time>2026-07-11T13:29:05Z</time>
      </trkpt>
      <trkpt lat="51.681511988863349" lon="-3.01402903161943">
        <ele>91.939999999999998</ele>
        <time>2026-07-11T13:29:06Z</time>
      </trkpt>
      <trkpt lat="51.68149103410542" lon="-3.013858962804079">
        <ele>91.459999999999994</ele>
        <time>2026-07-11T13:29:07Z</time>
      </trkpt>
      <trkpt lat="51.681406041607261" lon="-3.013720996677876">
        <ele>90.980000000000004</ele>
        <time>2026-07-11T13:29:08Z</time>
      </trkpt>
      <trkpt lat="51.681331023573875" lon="-3.013599961996079">
        <ele>90.5</ele>
        <time>2026-07-11T13:29:09Z</time>
      </trkpt>
      <trkpt lat="51.681265980005264" lon="-3.013567021116614">
        <ele>90.019999999999996</ele>
        <time>2026-07-11T13:29:10Z</time>
      </trkpt>
      <trkpt lat="51.681151986122131" lon="-3.013538019731641">
        <ele>90.019999999999996</ele>
        <time>2026-07-11T13:29:11Z</time>
      </trkpt>
      <trkpt lat="51.681025000289083" lon="-3.013504995033145">
        <ele>89.540000000000006</ele>
        <time>2026-07-11T13:29:12Z</time>
      </trkpt>
      <trkpt lat="51.680892985314131" lon="-3.013468030840159">
        <ele>89.540000000000006</ele>
        <time>2026-07-11T13:29:13Z</time>
      </trkpt>
      <trkpt lat="51.680760970339179" lon="-3.01342997699976">
        <ele>89.540000000000006</ele>
        <time>2026-07-11T13:29:14Z</time>
      </trkpt>
      <trkpt lat="51.680623004212976" lon="-3.013323023915291">
        <ele>89.540000000000006</ele>
        <time>2026-07-11T13:29:15Z</time>
      </trkpt>
      <trkpt lat="51.68048202060163" lon="-3.01321498118341">
        <ele>90.019999999999996</ele>
        <time>2026-07-11T13:29:16Z</time>
      </trkpt>
      <trkpt lat="51.680368026718497" lon="-3.01306301727891">
        <ele>90.019999999999996</ele>
        <time>2026-07-11T13:29:17Z</time>
      </trkpt>
      <trkpt lat="51.680241040885448" lon="-3.012893032282591">
        <ele>90.019999999999996</ele>
        <time>2026-07-11T13:29:18Z</time>
      </trkpt>
      <trkpt lat="51.678865989670157" lon="-3.011156972497702">
        <ele>90.980000000000004</ele>
        <time>2026-07-11T13:29:27Z</time>
      </trkpt>
      <trkpt lat="51.676884004846215" lon="-3.009328963235021">
        <ele>98.189999999999998</ele>
        <time>2026-07-11T13:29:36Z</time>
      </trkpt>
      <trkpt lat="51.674804035574198" lon="-3.008176032453775">
        <ele>110.20999999999999</ele>
        <time>2026-07-11T13:29:44Z</time>
      </trkpt>
      <trkpt lat="51.67203800752759" lon="-3.007401041686535">
        <ele>118.86</ele>
        <time>2026-07-11T13:29:54Z</time>
      </trkpt>
      <trkpt lat="51.669351020827889" lon="-3.006351962685585">
        <ele>119.34</ele>
        <time>2026-07-11T13:30:04Z</time>
      </trkpt>
      <trkpt lat="51.668288027867675" lon="-3.005641009658575">
        <ele>118.86</ele>
        <time>2026-07-11T13:30:10Z</time>
      </trkpt>
      <trkpt lat="51.668210998177528" lon="-3.005505977198482">
        <ele>118.86</ele>
        <time>2026-07-11T13:30:11Z</time>
      </trkpt>
      <trkpt lat="51.668137991800904" lon="-3.005377985537052">
        <ele>118.86</ele>
        <time>2026-07-11T13:30:12Z</time>
      </trkpt>
      <trkpt lat="51.66793598793447" lon="-3.004936007782817">
        <ele>118.86</ele>
        <time>2026-07-11T13:30:15Z</time>
      </trkpt>
      <trkpt lat="51.667829034850001" lon="-3.00485797226429">
        <ele>118.86</ele>
        <time>2026-07-11T13:30:16Z</time>
      </trkpt>
      <trkpt lat="51.667716968804598" lon="-3.004812961444259">
        <ele>118.86</ele>
        <time>2026-07-11T13:30:17Z</time>
      </trkpt>
      <trkpt lat="51.667608004063368" lon="-3.004838023334742">
        <ele>118.38</ele>
        <time>2026-07-11T13:30:18Z</time>
      </trkpt>
      <trkpt lat="51.667465008795261" lon="-3.004846991971135">
        <ele>118.38</ele>
        <time>2026-07-11T13:30:19Z</time>
      </trkpt>
      <trkpt lat="51.667322013527155" lon="-3.004846991971135">
        <ele>118.38</ele>
        <time>2026-07-11T13:30:20Z</time>
      </trkpt>
      <trkpt lat="51.667180024087429" lon="-3.004791000857949">
        <ele>118.86</ele>
        <time>2026-07-11T13:30:21Z</time>
      </trkpt>
      <trkpt lat="51.667036022990942" lon="-3.004695028066635">
        <ele>118.86</ele>
        <time>2026-07-11T13:30:22Z</time>
      </trkpt>
      <trkpt lat="51.666877018287778" lon="-3.004583967849612">
        <ele>118.86</ele>
        <time>2026-07-11T13:30:23Z</time>
      </trkpt>
      <trkpt lat="51.665701037272811" lon="-3.003701018169522">
        <ele>118.38</ele>
        <time>2026-07-11T13:30:29Z</time>
      </trkpt>
      <trkpt lat="51.663530962541699" lon="-3.002053974196315">
        <ele>117.42</ele>
        <time>2026-07-11T13:30:38Z</time>
      </trkpt>
      <trkpt lat="51.660725036635995" lon="-2.999994037672877">
        <ele>108.29000000000001</ele>
        <time>2026-07-11T13:30:49Z</time>
      </trkpt>
      <trkpt lat="51.658578012138605" lon="-2.99896901473403">
        <ele>101.08</ele>
        <time>2026-07-11T13:30:57Z</time>
      </trkpt>
      <trkpt lat="51.656363010406494" lon="-2.998653016984463">
        <ele>97.709999999999994</ele>
        <time>2026-07-11T13:31:05Z</time>
      </trkpt>
      <trkpt lat="51.653864029794931" lon="-2.999044032767415">
        <ele>97.709999999999994</ele>
        <time>2026-07-11T13:31:14Z</time>
      </trkpt>
      <trkpt lat="51.651454987004399" lon="-3.000267036259174">
        <ele>94.829999999999998</ele>
        <time>2026-07-11T13:31:23Z</time>
      </trkpt>
      <trkpt lat="51.650558961555362" lon="-3.000777997076511">
        <ele>91.459999999999994</ele>
        <time>2026-07-11T13:31:28Z</time>
      </trkpt>
      <trkpt lat="51.650456031784415" lon="-3.000827031210065">
        <ele>90.5</ele>
        <time>2026-07-11T13:31:29Z</time>
      </trkpt>
      <trkpt lat="51.65025201626122" lon="-3.000813033431768">
        <ele>89.540000000000006</ele>
        <time>2026-07-11T13:31:31Z</time>
      </trkpt>
      <trkpt lat="51.650146991014481" lon="-3.000854020938277">
        <ele>89.060000000000002</ele>
        <time>2026-07-11T13:31:32Z</time>
      </trkpt>
      <trkpt lat="51.650055041536689" lon="-3.000919986516237">
        <ele>88.579999999999998</ele>
        <time>2026-07-11T13:31:33Z</time>
      </trkpt>
      <trkpt lat="51.649949010461569" lon="-3.00107597373426">
        <ele>88.099999999999994</ele>
        <time>2026-07-11T13:31:34Z</time>
      </trkpt>
      <trkpt lat="51.649829987436533" lon="-3.001203965395689">
        <ele>87.620000000000005</ele>
        <time>2026-07-11T13:31:35Z</time>
      </trkpt>
      <trkpt lat="51.649697972461581" lon="-3.001346960663796">
        <ele>86.659999999999997</ele>
        <time>2026-07-11T13:31:36Z</time>
      </trkpt>
      <trkpt lat="51.649552965536714" lon="-3.00150403752923">
        <ele>86.180000000000007</ele>
        <time>2026-07-11T13:31:37Z</time>
      </trkpt>
      <trkpt lat="51.649387003853917" lon="-3.00163202919066">
        <ele>85.209999999999994</ele>
        <time>2026-07-11T13:31:38Z</time>
      </trkpt>
      <trkpt lat="51.649203021079302" lon="-3.001758009195328">
        <ele>84.25</ele>
        <time>2026-07-11T13:31:39Z</time>
      </trkpt>
      <trkpt lat="51.649009985849261" lon="-3.00189002417028">
        <ele>83.290000000000006</ele>
        <time>2026-07-11T13:31:40Z</time>
      </trkpt>
      <trkpt lat="51.647378029301763" lon="-3.002702984958887">
        <ele>78</ele>
        <time>2026-07-11T13:31:47Z</time>
      </trkpt>
      <trkpt lat="51.646057963371277" lon="-3.002682030200958">
        <ele>75.120000000000005</ele>
        <time>2026-07-11T13:31:52Z</time>
      </trkpt>
      <trkpt lat="51.643260000273585" lon="-3.002003012225032">
        <ele>68.870000000000005</ele>
        <time>2026-07-11T13:32:02Z</time>
      </trkpt>
      <trkpt lat="51.640227008610964" lon="-3.001242019236088">
        <ele>54.450000000000003</ele>
        <time>2026-07-11T13:32:13Z</time>
      </trkpt>
      <trkpt lat="51.63903996348381" lon="-3.001038003712893">
        <ele>49.649999999999999</ele>
        <time>2026-07-11T13:32:19Z</time>
      </trkpt>
      <trkpt lat="51.638982966542244" lon="-3.001027023419738">
        <ele>48.68</ele>
        <time>2026-07-11T13:32:20Z</time>
      </trkpt>
      <trkpt lat="51.638876013457775" lon="-3.000929960981011">
        <ele>48.68</ele>
        <time>2026-07-11T13:32:21Z</time>
      </trkpt>
      <trkpt lat="51.638826979324222" lon="-3.000886039808393">
        <ele>48.200000000000003</ele>
        <time>2026-07-11T13:32:22Z</time>
      </trkpt>
      <trkpt lat="51.638776017352939" lon="-3.0008390173316">
        <ele>48.200000000000003</ele>
        <time>2026-07-11T13:32:23Z</time>
      </trkpt>
      <trkpt lat="51.638722959905863" lon="-3.000771040096879">
        <ele>47.719999999999999</ele>
        <time>2026-07-11T13:32:24Z</time>
      </trkpt>
      <trkpt lat="51.638661017641425" lon="-3.000661991536617">
        <ele>47.719999999999999</ele>
        <time>2026-07-11T13:32:25Z</time>
      </trkpt>
      <trkpt lat="51.638558004051447" lon="-3.000588985159993">
        <ele>47.719999999999999</ele>
        <time>2026-07-11T13:32:26Z</time>
      </trkpt>
      <trkpt lat="51.638510981574655" lon="-3.000555038452148">
        <ele>47.719999999999999</ele>
        <time>2026-07-11T13:32:27Z</time>
      </trkpt>
      <trkpt lat="51.638357006013393" lon="-3.000597031787038">
        <ele>47.719999999999999</ele>
        <time>2026-07-11T13:32:28Z</time>
      </trkpt>
      <trkpt lat="51.638231026008725" lon="-3.000625027343631">
        <ele>47.719999999999999</ele>
        <time>2026-07-11T13:32:29Z</time>
      </trkpt>
      <trkpt lat="51.638103034347296" lon="-3.000641036778688">
        <ele>47.719999999999999</ele>
        <time>2026-07-11T13:32:30Z</time>
      </trkpt>
      <trkpt lat="51.637946041300893" lon="-3.000570964068174">
        <ele>48.200000000000003</ele>
        <time>2026-07-11T13:32:31Z</time>
      </trkpt>
      <trkpt lat="51.637807991355658" lon="-3.000487983226776">
        <ele>48.200000000000003</ele>
        <time>2026-07-11T13:32:32Z</time>
      </trkpt>
      <trkpt lat="51.637666001915932" lon="-3.000394022092223">
        <ele>48.68</ele>
        <time>2026-07-11T13:32:33Z</time>
      </trkpt>
      <trkpt lat="51.637515965849161" lon="-3.000294025987387">
        <ele>49.159999999999997</ele>
        <time>2026-07-11T13:32:34Z</time>
      </trkpt>
      <trkpt lat="51.636387007310987" lon="-2.999596986919642">
        <ele>51.090000000000003</ele>
        <time>2026-07-11T13:32:40Z</time>
      </trkpt>
      <trkpt lat="51.634810036048293" lon="-2.999123996123672">
        <ele>51.090000000000003</ele>
        <time>2026-07-11T13:32:46Z</time>
      </trkpt>
      <trkpt lat="51.633117981255054" lon="-2.999296998605132">
        <ele>48.200000000000003</ele>
        <time>2026-07-11T13:32:52Z</time>
      </trkpt>
      <trkpt lat="51.632036967203021" lon="-2.999797984957695">
        <ele>46.280000000000001</ele>
        <time>2026-07-11T13:32:56Z</time>
      </trkpt>
      <trkpt lat="51.631778972223401" lon="-2.999966964125633">
        <ele>45.799999999999997</ele>
        <time>2026-07-11T13:32:57Z</time>
      </trkpt>
      <trkpt lat="51.629297006875277" lon="-3.001889018341899">
        <ele>52.530000000000001</ele>
        <time>2026-07-11T13:33:07Z</time>
      </trkpt>
      <trkpt lat="51.626714039593935" lon="-3.00354796461761">
        <ele>54.450000000000003</ele>
        <time>2026-07-11T13:33:17Z</time>
      </trkpt>
      <trkpt lat="51.624812018126249" lon="-3.003948032855988">
        <ele>52.530000000000001</ele>
        <time>2026-07-11T13:33:24Z</time>
      </trkpt>
      <trkpt lat="51.623201016336679" lon="-3.004107959568501">
        <ele>48.68</ele>
        <time>2026-07-11T13:33:31Z</time>
      </trkpt>
      <trkpt lat="51.623053997755051" lon="-3.004132015630603">
        <ele>48.200000000000003</ele>
        <time>2026-07-11T13:33:32Z</time>
      </trkpt>
      <trkpt lat="51.622911002486944" lon="-3.004125980660319">
        <ele>48.200000000000003</ele>
        <time>2026-07-11T13:33:33Z</time>
      </trkpt>
      <trkpt lat="51.622804971411824" lon="-3.003924982622266">
        <ele>48.200000000000003</ele>
        <time>2026-07-11T13:33:34Z</time>
      </trkpt>
      <trkpt lat="51.62270899862051" lon="-3.003829009830952">
        <ele>48.200000000000003</ele>
        <time>2026-07-11T13:33:35Z</time>
      </trkpt>
      <trkpt lat="51.622630963101983" lon="-3.003751980140805">
        <ele>48.200000000000003</ele>
        <time>2026-07-11T13:33:36Z</time>
      </trkpt>
      <trkpt lat="51.622573966160417" lon="-3.003666987642646">
        <ele>48.68</ele>
        <time>2026-07-11T13:33:37Z</time>
      </trkpt>
      <trkpt lat="51.622511018067598" lon="-3.003559028729796">
        <ele>48.68</ele>
        <time>2026-07-11T13:33:38Z</time>
      </trkpt>
      <trkpt lat="51.622441029176116" lon="-3.003437994047999">
        <ele>48.68</ele>
        <time>2026-07-11T13:33:39Z</time>
      </trkpt>
      <trkpt lat="51.62200097925961" lon="-3.002186994999647">
        <ele>47.719999999999999</ele>
        <time>2026-07-11T13:33:45Z</time>
      </trkpt>
      <trkpt lat="51.621186006814241" lon="-3.000149019062519">
        <ele>44.840000000000003</ele>
        <time>2026-07-11T13:33:52Z</time>
      </trkpt>
      <trkpt lat="51.619908018037677" lon="-2.998143984004855">
        <ele>40.509999999999998</ele>
        <time>2026-07-11T13:33:59Z</time>
      </trkpt>
      <trkpt lat="51.61851997487247" lon="-2.996790977194905">
        <ele>34.740000000000002</ele>
        <time>2026-07-11T13:34:05Z</time>
      </trkpt>
      <trkpt lat="51.616440005600452" lon="-2.995353983715177">
        <ele>27.050000000000001</ele>
        <time>2026-07-11T13:34:13Z</time>
      </trkpt>
      <trkpt lat="51.614035991951823" lon="-2.994318986311555">
        <ele>19.84</ele>
        <time>2026-07-11T13:34:22Z</time>
      </trkpt>
      <trkpt lat="51.611317992210388" lon="-2.99385798163712">
        <ele>16.960000000000001</ele>
        <time>2026-07-11T13:34:32Z</time>
      </trkpt>
      <trkpt lat="51.607568012550473" lon="-2.993623958900571">
        <ele>18.399999999999999</ele>
        <time>2026-07-11T13:34:46Z</time>
      </trkpt>
      <trkpt lat="51.606154991313815" lon="-2.993704006075859">
        <ele>22.25</ele>
        <time>2026-07-11T13:34:53Z</time>
      </trkpt>
      <trkpt lat="51.605013040825725" lon="-2.99385697580874">
        <ele>26.09</ele>
        <time>2026-07-11T13:35:01Z</time>
      </trkpt>
      <trkpt lat="51.604906003922224" lon="-2.993853036314249">
        <ele>26.09</ele>
        <time>2026-07-11T13:35:02Z</time>
      </trkpt>
      <trkpt lat="51.604779018089175" lon="-2.993839038535953">
        <ele>26.57</ele>
        <time>2026-07-11T13:35:03Z</time>
      </trkpt>
      <trkpt lat="51.604756973683834" lon="-2.993588000535965">
        <ele>26.57</ele>
        <time>2026-07-11T13:35:04Z</time>
      </trkpt>
      <trkpt lat="51.604678016155958" lon="-2.993460008874536">
        <ele>27.050000000000001</ele>
        <time>2026-07-11T13:35:05Z</time>
      </trkpt>
      <trkpt lat="51.604567039757967" lon="-2.993390019983053">
        <ele>27.530000000000001</ele>
        <time>2026-07-11T13:35:06Z</time>
      </trkpt>
      <trkpt lat="51.60451197065413" lon="-2.99321198835969">
        <ele>28.02</ele>
        <time>2026-07-11T13:35:07Z</time>
      </trkpt>
      <trkpt lat="51.60446897149086" lon="-2.9930180311203">
        <ele>28.02</ele>
        <time>2026-07-11T13:35:08Z</time>
      </trkpt>
      <trkpt lat="51.604427983984351" lon="-2.992812003940344">
        <ele>28.02</ele>
        <time>2026-07-11T13:35:09Z</time>
      </trkpt>
      <trkpt lat="51.604407029226422" lon="-2.992584016174078">
        <ele>28.5</ele>
        <time>2026-07-11T13:35:10Z</time>
      </trkpt>
      <trkpt lat="51.604395965114236" lon="-2.992337001487613">
        <ele>28.5</ele>
        <time>2026-07-11T13:35:11Z</time>
      </trkpt>
      <trkpt lat="51.604417003691196" lon="-2.992083029821515">
        <ele>28.5</ele>
        <time>2026-07-11T13:35:12Z</time>
      </trkpt>
      <trkpt lat="51.604451034218073" lon="-2.991824029013515">
        <ele>28.5</ele>
        <time>2026-07-11T13:35:13Z</time>
      </trkpt>
      <trkpt lat="51.604484980925918" lon="-2.99155899323523">
        <ele>28.02</ele>
        <time>2026-07-11T13:35:14Z</time>
      </trkpt>
      <trkpt lat="51.604973981156945" lon="-2.988104978576303">
        <ele>25.129999999999999</ele>
        <time>2026-07-11T13:35:26Z</time>
      </trkpt>
      <trkpt lat="51.605035001412034" lon="-2.985617984086275">
        <ele>24.649999999999999</ele>
        <time>2026-07-11T13:35:34Z</time>
      </trkpt>
      <trkpt lat="51.604520017281175" lon="-2.983125960454345">
        <ele>25.129999999999999</ele>
        <time>2026-07-11T13:35:42Z</time>
      </trkpt>
      <trkpt lat="51.603706972673535" lon="-2.981367018073797">
        <ele>20.32</ele>
        <time>2026-07-11T13:35:49Z</time>
      </trkpt>
      <trkpt lat="51.602709023281932" lon="-2.979366006329656">
        <ele>16.960000000000001</ele>
        <time>2026-07-11T13:35:58Z</time>
      </trkpt>
      <trkpt lat="51.602609027177095" lon="-2.979133995249867">
        <ele>17.440000000000001</ele>
        <time>2026-07-11T13:35:59Z</time>
      </trkpt>
      <trkpt lat="51.601893967017531" lon="-2.976765017956495">
        <ele>21.77</ele>
        <time>2026-07-11T13:36:08Z</time>
      </trkpt>
      <trkpt lat="51.601149989292026" lon="-2.973182005807757">
        <ele>29.940000000000001</ele>
        <time>2026-07-11T13:36:20Z</time>
      </trkpt>
      <trkpt lat="51.600457979366183" lon="-2.970426036044955">
        <ele>38.109999999999999</ele>
        <time>2026-07-11T13:36:30Z</time>
      </trkpt>
      <trkpt lat="51.599338995292783" lon="-2.967823036015034">
        <ele>47.240000000000002</ele>
        <time>2026-07-11T13:36:40Z</time>
      </trkpt>
      <trkpt lat="51.597877023741603" lon="-2.965651033446193">
        <ele>56.859999999999999</ele>
        <time>2026-07-11T13:36:50Z</time>
      </trkpt>
      <trkpt lat="51.596347996965051" lon="-2.964133992791176">
        <ele>67.430000000000007</ele>
        <time>2026-07-11T13:36:59Z</time>
      </trkpt>
      <trkpt lat="51.595130022615194" lon="-2.962518967688084">
        <ele>74.159999999999997</ele>
        <time>2026-07-11T13:37:07Z</time>
      </trkpt>
      <trkpt lat="51.594403982162476" lon="-2.9606600292027">
        <ele>77.519999999999996</ele>
        <time>2026-07-11T13:37:14Z</time>
      </trkpt>
      <trkpt lat="51.594126960262656" lon="-2.958458019420505">
        <ele>82.329999999999998</ele>
        <time>2026-07-11T13:37:21Z</time>
      </trkpt>
      <trkpt lat="51.594323012977839" lon="-2.956270007416606">
        <ele>87.620000000000005</ele>
        <time>2026-07-11T13:37:28Z</time>
      </trkpt>
      <trkpt lat="51.594974035397172" lon="-2.953564999625087">
        <ele>91.939999999999998</ele>
        <time>2026-07-11T13:37:37Z</time>
      </trkpt>
      <trkpt lat="51.59533403813839" lon="-2.950719008222222">
        <ele>90.5</ele>
        <time>2026-07-11T13:37:46Z</time>
      </trkpt>
      <trkpt lat="51.59563603810966" lon="-2.948294039815664">
        <ele>82.329999999999998</ele>
        <time>2026-07-11T13:37:54Z</time>
      </trkpt>
      <trkpt lat="51.596266021952033" lon="-2.94635103084147">
        <ele>76.560000000000002</ele>
        <time>2026-07-11T13:38:01Z</time>
      </trkpt>
      <trkpt lat="51.597452983260155" lon="-2.943428009748459">
        <ele>67.909999999999997</ele>
        <time>2026-07-11T13:38:12Z</time>
      </trkpt>
      <trkpt lat="51.598899029195309" lon="-2.939577028155327">
        <ele>57.340000000000003</ele>
        <time>2026-07-11T13:38:26Z</time>
      </trkpt>
      <trkpt lat="51.599865965545177" lon="-2.936139022931457">
        <ele>53.490000000000002</ele>
        <time>2026-07-11T13:38:38Z</time>
      </trkpt>
      <trkpt lat="51.60085997544229" lon="-2.932307990267873">
        <ele>48.68</ele>
        <time>2026-07-11T13:38:51Z</time>
      </trkpt>
      <trkpt lat="51.601622980087996" lon="-2.929363008588553">
        <ele>45.799999999999997</ele>
        <time>2026-07-11T13:39:01Z</time>
      </trkpt>
      <trkpt lat="51.601998992264271" lon="-2.926576025784016">
        <ele>45.799999999999997</ele>
        <time>2026-07-11T13:39:10Z</time>
      </trkpt>
      <trkpt lat="51.601902013644576" lon="-2.923702038824558">
        <ele>45.799999999999997</ele>
        <time>2026-07-11T13:39:19Z</time>
      </trkpt>
      <trkpt lat="51.601642007008195" lon="-2.919548973441124">
        <ele>44.840000000000003</ele>
        <time>2026-07-11T13:39:32Z</time>
      </trkpt>
      <trkpt lat="51.601604958996177" lon="-2.917140014469624">
        <ele>44.359999999999999</ele>
        <time>2026-07-11T13:39:38Z</time>
      </trkpt>
      <trkpt lat="51.601734962314367" lon="-2.913055010139942">
        <ele>40.990000000000002</ele>
        <time>2026-07-11T13:39:47Z</time>
      </trkpt>
      <trkpt lat="51.602278025820851" lon="-2.908201972022653">
        <ele>31.379999999999999</ele>
        <time>2026-07-11T13:39:58Z</time>
      </trkpt>
      <trkpt lat="51.602927036583424" lon="-2.903471980243921">
        <ele>24.170000000000002</ele>
        <time>2026-07-11T13:40:09Z</time>
      </trkpt>
      <trkpt lat="51.60274799913168" lon="-2.899981001392007">
        <ele>22.73</ele>
        <time>2026-07-11T13:40:17Z</time>
      </trkpt>
      <trkpt lat="51.60210301168263" lon="-2.897081030532718">
        <ele>22.25</ele>
        <time>2026-07-11T13:40:24Z</time>
      </trkpt>
      <trkpt lat="51.601121993735433" lon="-2.893430963158608">
        <ele>20.32</ele>
        <time>2026-07-11T13:40:33Z</time>
      </trkpt>
      <trkpt lat="51.600405005738139" lon="-2.88915703073144">
        <ele>19.84</ele>
        <time>2026-07-11T13:40:43Z</time>
      </trkpt>
      <trkpt lat="51.599691035225987" lon="-2.884454028680921">
        <ele>22.25</ele>
        <time>2026-07-11T13:40:54Z</time>
      </trkpt>
      <trkpt lat="51.598530979827046" lon="-2.879937021061778">
        <ele>21.289999999999999</ele>
        <time>2026-07-11T13:41:05Z</time>
      </trkpt>
      <trkpt lat="51.597220972180367" lon="-2.874644016847014">
        <ele>22.73</ele>
        <time>2026-07-11T13:41:18Z</time>
      </trkpt>
      <trkpt lat="51.596053959801793" lon="-2.869201982393861">
        <ele>29.940000000000001</ele>
        <time>2026-07-11T13:41:31Z</time>
      </trkpt>
      <trkpt lat="51.594621995463967" lon="-2.862945981323719">
        <ele>35.229999999999997</ele>
        <time>2026-07-11T13:41:46Z</time>
      </trkpt>
      <trkpt lat="51.593182990327477" lon="-2.857670998200774">
        <ele>39.07</ele>
        <time>2026-07-11T13:41:59Z</time>
      </trkpt>
      <trkpt lat="51.591448020190001" lon="-2.852122010663152">
        <ele>42.439999999999998</ele>
        <time>2026-07-11T13:42:13Z</time>
      </trkpt>
      <trkpt lat="51.589010981842875" lon="-2.845141980797052">
        <ele>38.109999999999999</ele>
        <time>2026-07-11T13:42:31Z</time>
      </trkpt>
      <trkpt lat="51.587891997769475" lon="-2.84195601940155">
        <ele>31.379999999999999</ele>
        <time>2026-07-11T13:42:40Z</time>
      </trkpt>
      <trkpt lat="51.587281040847301" lon="-2.839902034029365">
        <ele>28.5</ele>
        <time>2026-07-11T13:42:46Z</time>
      </trkpt>
      <trkpt lat="51.587190013378859" lon="-2.839533984661102">
        <ele>28.5</ele>
        <time>2026-07-11T13:42:47Z</time>
      </trkpt>
      <trkpt lat="51.586495991796255" lon="-2.836418012157083">
        <ele>24.649999999999999</ele>
        <time>2026-07-11T13:42:55Z</time>
      </trkpt>
      <trkpt lat="51.586118973791599" lon="-2.832596031948924">
        <ele>25.609999999999999</ele>
        <time>2026-07-11T13:43:04Z</time>
      </trkpt>
      <trkpt lat="51.586071029305458" lon="-2.8284200001508">
        <ele>32.340000000000003</ele>
        <time>2026-07-11T13:43:14Z</time>
      </trkpt>
      <trkpt lat="51.586413010954857" lon="-2.824313035234809">
        <ele>36.189999999999998</ele>
        <time>2026-07-11T13:43:24Z</time>
      </trkpt>
      <trkpt lat="51.586880972608924" lon="-2.820548973977566">
        <ele>38.109999999999999</ele>
        <time>2026-07-11T13:43:33Z</time>
      </trkpt>
      <trkpt lat="51.587380031123757" lon="-2.815266028046608">
        <ele>32.340000000000003</ele>
        <time>2026-07-11T13:43:45Z</time>
      </trkpt>
      <trkpt lat="51.587572982534766" lon="-2.811290994286537">
        <ele>27.530000000000001</ele>
        <time>2026-07-11T13:43:54Z</time>
      </trkpt>
      <trkpt lat="51.587539035826921" lon="-2.806901978328824">
        <ele>26.09</ele>
        <time>2026-07-11T13:44:04Z</time>
      </trkpt>
      <trkpt lat="51.58699999563396" lon="-2.80349800363183">
        <ele>22.73</ele>
        <time>2026-07-11T13:44:12Z</time>
      </trkpt>
      <trkpt lat="51.585970027372241" lon="-2.80040399171412">
        <ele>23.210000000000001</ele>
        <time>2026-07-11T13:44:20Z</time>
      </trkpt>
      <trkpt lat="51.584563041105866" lon="-2.797680962830782">
        <ele>24.649999999999999</ele>
        <time>2026-07-11T13:44:28Z</time>
      </trkpt>
      <trkpt lat="51.5828310046345" lon="-2.794218985363841">
        <ele>21.77</ele>
        <time>2026-07-11T13:44:38Z</time>
      </trkpt>
      <trkpt lat="51.581911006942391" lon="-2.790997987613082">
        <ele>16</ele>
        <time>2026-07-11T13:44:46Z</time>
      </trkpt>
      <trkpt lat="51.581440027803183" lon="-2.787568029016256">
        <ele>13.119999999999999</ele>
        <time>2026-07-11T13:44:54Z</time>
      </trkpt>
      <trkpt lat="51.58119997009635" lon="-2.78141101822257">
        <ele>14.08</ele>
        <time>2026-07-11T13:45:08Z</time>
      </trkpt>
      <trkpt lat="51.580872992053628" lon="-2.776156989857554">
        <ele>14.08</ele>
        <time>2026-07-11T13:45:20Z</time>
      </trkpt>
      <trkpt lat="51.580475019291043" lon="-2.770455032587051">
        <ele>13.6</ele>
        <time>2026-07-11T13:45:33Z</time>
      </trkpt>
      <trkpt lat="51.580422967672348" lon="-2.766055958345532">
        <ele>13.119999999999999</ele>
        <time>2026-07-11T13:45:43Z</time>
      </trkpt>
      <trkpt lat="51.58079101704061" lon="-2.759909005835652">
        <ele>16</ele>
        <time>2026-07-11T13:45:57Z</time>
      </trkpt>
      <trkpt lat="51.581376995891333" lon="-2.753338012844324">
        <ele>15.039999999999999</ele>
        <time>2026-07-11T13:46:12Z</time>
      </trkpt>
      <trkpt lat="51.582049978896976" lon="-2.747678970918059">
        <ele>15.039999999999999</ele>
        <time>2026-07-11T13:46:25Z</time>
      </trkpt>
      <trkpt lat="51.582386009395123" lon="-2.742401976138353">
        <ele>14.08</ele>
        <time>2026-07-11T13:46:37Z</time>
      </trkpt>
      <trkpt lat="51.58238098025322" lon="-2.737593026831746">
        <ele>18.399999999999999</ele>
        <time>2026-07-11T13:46:48Z</time>
      </trkpt>
      <trkpt lat="51.581990970298648" lon="-2.732803020626307">
        <ele>25.609999999999999</ele>
        <time>2026-07-11T13:46:59Z</time>
      </trkpt>
      <trkpt lat="51.581154959276319" lon="-2.727263001725078">
        <ele>33.780000000000001</ele>
        <time>2026-07-11T13:47:12Z</time>
      </trkpt>
      <trkpt lat="51.579908989369869" lon="-2.721905037760735">
        <ele>40.509999999999998</ele>
        <time>2026-07-11T13:47:25Z</time>
      </trkpt>
      <trkpt lat="51.578129008412361" lon="-2.714996002614498">
        <ele>48.200000000000003</ele>
        <time>2026-07-11T13:47:42Z</time>
      </trkpt>
      <trkpt lat="51.57625699415803" lon="-2.707654964178801">
        <ele>53.969999999999999</ele>
        <time>2026-07-11T13:48:00Z</time>
      </trkpt>
      <trkpt lat="51.574990991503" lon="-2.702734032645822">
        <ele>57.340000000000003</ele>
        <time>2026-07-11T13:48:12Z</time>
      </trkpt>
      <trkpt lat="51.57383001409471" lon="-2.698217025026679">
        <ele>60.219999999999999</ele>
        <time>2026-07-11T13:48:23Z</time>
      </trkpt>
      <trkpt lat="51.572687979787588" lon="-2.693724995478988">
        <ele>57.340000000000003</ele>
        <time>2026-07-11T13:48:34Z</time>
      </trkpt>
      <trkpt lat="51.571558015421033" lon="-2.688718987628818">
        <ele>54.93</ele>
        <time>2026-07-11T13:48:46Z</time>
      </trkpt>
      <trkpt lat="51.570560988038778" lon="-2.682747971266508">
        <ele>48.200000000000003</ele>
        <time>2026-07-11T13:49:00Z</time>
      </trkpt>
      <trkpt lat="51.569998981431127" lon="-2.677089013159275">
        <ele>39.07</ele>
        <time>2026-07-11T13:49:13Z</time>
      </trkpt>
      <trkpt lat="51.569666974246502" lon="-2.669610008597374">
        <ele>30.420000000000002</ele>
        <time>2026-07-11T13:49:30Z</time>
      </trkpt>
      <trkpt lat="51.569509981200099" lon="-2.663433970883489">
        <ele>24.649999999999999</ele>
        <time>2026-07-11T13:49:44Z</time>
      </trkpt>
      <trkpt lat="51.569377966225147" lon="-2.6563670206815">
        <ele>20.32</ele>
        <time>2026-07-11T13:50:00Z</time>
      </trkpt>
      <trkpt lat="51.569261038675904" lon="-2.649727966636419">
        <ele>13.6</ele>
        <time>2026-07-11T13:50:15Z</time>
      </trkpt>
      <trkpt lat="51.569171017035842" lon="-2.644029026851058">
        <ele>12.630000000000001</ele>
        <time>2026-07-11T13:50:28Z</time>
      </trkpt>
      <trkpt lat="51.569290962070227" lon="-2.639620983973146">
        <ele>11.19</ele>
        <time>2026-07-11T13:50:38Z</time>
      </trkpt>
      <trkpt lat="51.569816004484892" lon="-2.635282007977366">
        <ele>9.75</ele>
        <time>2026-07-11T13:50:48Z</time>
      </trkpt>
      <trkpt lat="51.570901963859797" lon="-2.630273988470435">
        <ele>10.23</ele>
        <time>2026-07-11T13:51:00Z</time>
      </trkpt>
      <trkpt lat="51.57262503169477" lon="-2.624752996489406">
        <ele>11.67</ele>
        <time>2026-07-11T13:51:14Z</time>
      </trkpt>
      <trkpt lat="51.573926992714405" lon="-2.619900964200497">
        <ele>10.710000000000001</ele>
        <time>2026-07-11T13:51:26Z</time>
      </trkpt>
      <trkpt lat="51.574940029531717" lon="-2.614862015470862">
        <ele>10.23</ele>
        <time>2026-07-11T13:51:38Z</time>
      </trkpt>
      <trkpt lat="51.575664980337024" lon="-2.609718041494489">
        <ele>9.27</ele>
        <time>2026-07-11T13:51:50Z</time>
      </trkpt>
      <trkpt lat="51.576106958091259" lon="-2.604033015668392">
        <ele>8.789999999999999</ele>
        <time>2026-07-11T13:52:03Z</time>
      </trkpt>
      <trkpt lat="51.576159009709954" lon="-2.599200010299683">
        <ele>8.310000000000001</ele>
        <time>2026-07-11T13:52:14Z</time>
      </trkpt>
      <trkpt lat="51.575756007805467" lon="-2.594358958303928">
        <ele>9.27</ele>
        <time>2026-07-11T13:52:25Z</time>
      </trkpt>
      <trkpt lat="51.574857970699668" lon="-2.589733991771936">
        <ele>8.310000000000001</ele>
        <time>2026-07-11T13:52:36Z</time>
      </trkpt>
      <trkpt lat="51.573690958321095" lon="-2.585744960233569">
        <ele>8.310000000000001</ele>
        <time>2026-07-11T13:52:46Z</time>
      </trkpt>
      <trkpt lat="51.572802979499102" lon="-2.583486959338188">
        <ele>8.310000000000001</ele>
        <time>2026-07-11T13:52:52Z</time>
      </trkpt>
      <trkpt lat="51.570940017700195" lon="-2.579690963029862">
        <ele>12.15</ele>
        <time>2026-07-11T13:53:03Z</time>
      </trkpt>
      <trkpt lat="51.568646980449557" lon="-2.575305970385671">
        <ele>16</ele>
        <time>2026-07-11T13:53:16Z</time>
      </trkpt>
      <trkpt lat="51.566904969513416" lon="-2.571962010115385">
        <ele>25.609999999999999</ele>
        <time>2026-07-11T13:53:26Z</time>
      </trkpt>
      <trkpt lat="51.56478401273489" lon="-2.567923022434115">
        <ele>42.439999999999998</ele>
        <time>2026-07-11T13:53:38Z</time>
      </trkpt>
      <trkpt lat="51.562287965789437" lon="-2.563240975141525">
        <ele>61.18</ele>
        <time>2026-07-11T13:53:52Z</time>
      </trkpt>
      <trkpt lat="51.56033799983561" lon="-2.560150986537337">
        <ele>74.640000000000001</ele>
        <time>2026-07-11T13:54:02Z</time>
      </trkpt>
      <trkpt lat="51.558529017493129" lon="-2.558025000616908">
        <ele>89.060000000000002</ele>
        <time>2026-07-11T13:54:10Z</time>
      </trkpt>
      <trkpt lat="51.556342011317611" lon="-2.556135971099138">
        <ele>91.939999999999998</ele>
        <time>2026-07-11T13:54:19Z</time>
      </trkpt>
      <trkpt lat="51.55359199270606" lon="-2.554071005433798">
        <ele>87.620000000000005</ele>
        <time>2026-07-11T13:54:30Z</time>
      </trkpt>
      <trkpt lat="51.550665032118559" lon="-2.551729017868638">
        <ele>81.849999999999994</ele>
        <time>2026-07-11T13:54:42Z</time>
      </trkpt>
      <trkpt lat="51.548180971294641" lon="-2.549658017233014">
        <ele>75.599999999999994</ele>
        <time>2026-07-11T13:54:53Z</time>
      </trkpt>
      <trkpt lat="51.54607200063765" lon="-2.547807041555643">
        <ele>71.760000000000005</ele>
        <time>2026-07-11T13:55:03Z</time>
      </trkpt>
      <trkpt lat="51.543786004185677" lon="-2.545702010393143">
        <ele>65.030000000000001</ele>
        <time>2026-07-11T13:55:14Z</time>
      </trkpt>
      <trkpt lat="51.54211699962616" lon="-2.544165020808578">
        <ele>66.950000000000003</ele>
        <time>2026-07-11T13:55:22Z</time>
      </trkpt>
      <trkpt lat="51.539035979658365" lon="-2.541148960590363">
        <ele>64.069999999999993</ele>
        <time>2026-07-11T13:55:37Z</time>
      </trkpt>
      <trkpt lat="51.53691602870822" lon="-2.539018029347062">
        <ele>59.740000000000002</ele>
        <time>2026-07-11T13:55:48Z</time>
      </trkpt>
      <trkpt lat="51.534460969269276" lon="-2.536455010995269">
        <ele>59.259999999999998</ele>
        <time>2026-07-11T13:56:02Z</time>
      </trkpt>
      <trkpt lat="51.532238004729152" lon="-2.534122997894883">
        <ele>56.369999999999997</ele>
        <time>2026-07-11T13:56:15Z</time>
      </trkpt>
      <trkpt lat="51.530210003256798" lon="-2.53205300308764">
        <ele>58.299999999999997</ele>
        <time>2026-07-11T13:56:27Z</time>
      </trkpt>
      <trkpt lat="51.527281031012535" lon="-2.529273983091116">
        <ele>60.219999999999999</ele>
        <time>2026-07-11T13:56:44Z</time>
      </trkpt>
      <trkpt lat="51.525023030117154" lon="-2.527190996333957">
        <ele>57.82</ele>
        <time>2026-07-11T13:56:57Z</time>
      </trkpt>
      <trkpt lat="51.522220959886909" lon="-2.52479100599885">
        <ele>58.299999999999997</ele>
        <time>2026-07-11T13:57:13Z</time>
      </trkpt>
      <trkpt lat="51.520098997280002" lon="-2.523053018376231">
        <ele>59.740000000000002</ele>
        <time>2026-07-11T13:57:24Z</time>
      </trkpt>
      <trkpt lat="51.517233978956938" lon="-2.520884033292532">
        <ele>60.219999999999999</ele>
        <time>2026-07-11T13:57:37Z</time>
      </trkpt>
      <trkpt lat="51.513994038105011" lon="-2.518598958849907">
        <ele>59.259999999999998</ele>
        <time>2026-07-11T13:57:50Z</time>
      </trkpt>
      <trkpt lat="51.510433992370963" lon="-2.516252025961876">
        <ele>55.409999999999997</ele>
        <time>2026-07-11T13:58:04Z</time>
      </trkpt>
      <trkpt lat="51.50832099840045" lon="-2.51419703476131">
        <ele>51.090000000000003</ele>
        <time>2026-07-11T13:58:13Z</time>
      </trkpt>
      <trkpt lat="51.506764981895685" lon="-2.511711968109012">
        <ele>47.719999999999999</ele>
        <time>2026-07-11T13:58:21Z</time>
      </trkpt>
      <trkpt lat="51.505629988387227" lon="-2.508688028901815">
        <ele>44.840000000000003</ele>
        <time>2026-07-11T13:58:29Z</time>
      </trkpt>
      <trkpt lat="51.504968991503119" lon="-2.505342978984118">
        <ele>43.399999999999999</ele>
        <time>2026-07-11T13:58:37Z</time>
      </trkpt>
      <trkpt lat="51.504807975143194" lon="-2.50274701975286">
        <ele>42.920000000000002</ele>
        <time>2026-07-11T13:58:43Z</time>
      </trkpt>
      <trkpt lat="51.505006039515138" lon="-2.499287975952029">
        <ele>43.880000000000003</ele>
        <time>2026-07-11T13:58:51Z</time>
      </trkpt>
      <trkpt lat="51.505535021424294" lon="-2.495900010690093">
        <ele>47.240000000000002</ele>
        <time>2026-07-11T13:58:59Z</time>
      </trkpt>
      <trkpt lat="51.506387963891029" lon="-2.489885995164514">
        <ele>49.649999999999999</ele>
        <time>2026-07-11T13:59:13Z</time>
      </trkpt>
      <trkpt lat="51.506543029099703" lon="-2.486393004655838">
        <ele>49.649999999999999</ele>
        <time>2026-07-11T13:59:21Z</time>
      </trkpt>
      <trkpt lat="51.506329961121082" lon="-2.482003988698125">
        <ele>51.57</ele>
        <time>2026-07-11T13:59:31Z</time>
      </trkpt>
      <trkpt lat="51.505711041390896" lon="-2.477726032957435">
        <ele>52.530000000000001</ele>
        <time>2026-07-11T13:59:41Z</time>
      </trkpt>
      <trkpt lat="51.504422994330525" lon="-2.472398998215795">
        <ele>52.530000000000001</ele>
        <time>2026-07-11T13:59:54Z</time>
      </trkpt>
      <trkpt lat="51.502489959821105" lon="-2.464625034481287">
        <ele>57.82</ele>
        <time>2026-07-11T14:00:13Z</time>
      </trkpt>
      <trkpt lat="51.500687012448907" lon="-2.45728500187397">
        <ele>64.069999999999993</ele>
        <time>2026-07-11T14:00:31Z</time>
      </trkpt>
      <trkpt lat="51.499528968706727" lon="-2.451471984386444">
        <ele>70.790000000000006</ele>
        <time>2026-07-11T14:00:45Z</time>
      </trkpt>
      <trkpt lat="51.498719025403261" lon="-2.445954009890556">
        <ele>79.450000000000003</ele>
        <time>2026-07-11T14:00:58Z</time>
      </trkpt>
      <trkpt lat="51.498119970783591" lon="-2.439492987468839">
        <ele>93.870000000000005</ele>
        <time>2026-07-11T14:01:13Z</time>
      </trkpt>
      <trkpt lat="51.497904974967241" lon="-2.432460989803076">
        <ele>101.08</ele>
        <time>2026-07-11T14:01:29Z</time>
      </trkpt>
      <trkpt lat="51.497911009937525" lon="-2.425825959071517">
        <ele>104.92</ele>
        <time>2026-07-11T14:01:44Z</time>
      </trkpt>
      <trkpt lat="51.497936993837357" lon="-2.417960967868567">
        <ele>111.17</ele>
        <time>2026-07-11T14:02:02Z</time>
      </trkpt>
      <trkpt lat="51.497944034636021" lon="-2.410505013540387">
        <ele>115.98</ele>
        <time>2026-07-11T14:02:19Z</time>
      </trkpt>
      <trkpt lat="51.497959960252047" lon="-2.405647030100226">
        <ele>117.90000000000001</ele>
        <time>2026-07-11T14:02:30Z</time>
      </trkpt>
      <trkpt lat="51.497985022142529" lon="-2.399466969072819">
        <ele>111.65000000000001</ele>
        <time>2026-07-11T14:02:44Z</time>
      </trkpt>
      <trkpt lat="51.497997008264065" lon="-2.391536012291908">
        <ele>107.31999999999999</ele>
        <time>2026-07-11T14:03:02Z</time>
      </trkpt>
      <trkpt lat="51.498018968850374" lon="-2.387623004615307">
        <ele>110.20999999999999</ele>
        <time>2026-07-11T14:03:11Z</time>
      </trkpt>
      <trkpt lat="51.498123994097114" lon="-2.383271036669612">
        <ele>113.09</ele>
        <time>2026-07-11T14:03:21Z</time>
      </trkpt>
      <trkpt lat="51.498405039310455" lon="-2.378706000745297">
        <ele>119.34</ele>
        <time>2026-07-11T14:03:32Z</time>
      </trkpt>
      <trkpt lat="51.498907031491399" lon="-2.373662022873759">
        <ele>130.40000000000001</ele>
        <time>2026-07-11T14:03:45Z</time>
      </trkpt>
      <trkpt lat="51.499752011150122" lon="-2.36820800229907">
        <ele>146.25999999999999</ele>
        <time>2026-07-11T14:03:58Z</time>
      </trkpt>
      <trkpt lat="51.500658011063933" lon="-2.363658975809813">
        <ele>158.27000000000001</ele>
        <time>2026-07-11T14:04:09Z</time>
      </trkpt>
      <trkpt lat="51.501597035676241" lon="-2.357741016894579">
        <ele>174.62</ele>
        <time>2026-07-11T14:04:23Z</time>
      </trkpt>
      <trkpt lat="51.501981010660529" lon="-2.352922009304166">
        <ele>180.87</ele>
        <time>2026-07-11T14:04:34Z</time>
      </trkpt>
      <trkpt lat="51.501926025375724" lon="-2.348082968965173">
        <ele>180.38</ele>
        <time>2026-07-11T14:04:45Z</time>
      </trkpt>
      <trkpt lat="51.501803984865546" lon="-2.341497978195548">
        <ele>175.09999999999999</ele>
        <time>2026-07-11T14:05:00Z</time>
      </trkpt>
      <trkpt lat="51.502105984836817" lon="-2.33576500788331">
        <ele>170.28999999999999</ele>
        <time>2026-07-11T14:05:13Z</time>
      </trkpt>
      <trkpt lat="51.502678971737623" lon="-2.330545010045171">
        <ele>168.37</ele>
        <time>2026-07-11T14:05:25Z</time>
      </trkpt>
      <trkpt lat="51.503753028810024" lon="-2.324649011716247">
        <ele>163.56</ele>
        <time>2026-07-11T14:05:39Z</time>
      </trkpt>
      <trkpt lat="51.504987012594938" lon="-2.319782981649041">
        <ele>158.75</ele>
        <time>2026-07-11T14:05:51Z</time>
      </trkpt>
      <trkpt lat="51.50660396553576" lon="-2.314246986061335">
        <ele>157.78999999999999</ele>
        <time>2026-07-11T14:06:05Z</time>
      </trkpt>
      <trkpt lat="51.507830992341042" lon="-2.308888016268611">
        <ele>159.72</ele>
        <time>2026-07-11T14:06:18Z</time>
      </trkpt>
      <trkpt lat="51.50870899669826" lon="-2.303326958790422">
        <ele>157.78999999999999</ele>
        <time>2026-07-11T14:06:31Z</time>
      </trkpt>
      <trkpt lat="51.50980300270021" lon="-2.297876039519906">
        <ele>153.94999999999999</ele>
        <time>2026-07-11T14:06:44Z</time>
      </trkpt>
      <trkpt lat="51.511362036690116" lon="-2.292275000363588">
        <ele>145.78</ele>
        <time>2026-07-11T14:06:58Z</time>
      </trkpt>
      <trkpt lat="51.513218963518739" lon="-2.287397990003228">
        <ele>141.93000000000001</ele>
        <time>2026-07-11T14:07:11Z</time>
      </trkpt>
      <trkpt lat="51.515337992459536" lon="-2.282828008756042">
        <ele>140.49000000000001</ele>
        <time>2026-07-11T14:07:24Z</time>
      </trkpt>
      <trkpt lat="51.516770040616393" lon="-2.279093032702804">
        <ele>139.53</ele>
        <time>2026-07-11T14:07:34Z</time>
      </trkpt>
      <trkpt lat="51.517982985824347" lon="-2.274663029238582">
        <ele>137.13</ele>
        <time>2026-07-11T14:07:45Z</time>
      </trkpt>
      <trkpt lat="51.518500987440348" lon="-2.271705977618694">
        <ele>135.68000000000001</ele>
        <time>2026-07-11T14:07:52Z</time>
      </trkpt>
      <trkpt lat="51.518915975466371" lon="-2.267329031601548">
        <ele>134.72</ele>
        <time>2026-07-11T14:08:02Z</time>
      </trkpt>
      <trkpt lat="51.518927039578557" lon="-2.262920988723636">
        <ele>134.24000000000001</ele>
        <time>2026-07-11T14:08:12Z</time>
      </trkpt>
      <trkpt lat="51.518538035452366" lon="-2.258583018556237">
        <ele>131.84</ele>
        <time>2026-07-11T14:08:22Z</time>
      </trkpt>
      <trkpt lat="51.51771099306643" lon="-2.253924021497369">
        <ele>130.40000000000001</ele>
        <time>2026-07-11T14:08:33Z</time>
      </trkpt>
      <trkpt lat="51.516491007059813" lon="-2.247628960758448">
        <ele>128.47</ele>
        <time>2026-07-11T14:08:48Z</time>
      </trkpt>
      <trkpt lat="51.515264986082911" lon="-2.240909021347761">
        <ele>129.43000000000001</ele>
        <time>2026-07-11T14:09:04Z</time>
      </trkpt>
      <trkpt lat="51.514114988967776" lon="-2.233662027865648">
        <ele>133.28</ele>
        <time>2026-07-11T14:09:21Z</time>
      </trkpt>
      <trkpt lat="51.513493973761797" lon="-2.229343000799418">
        <ele>133.28</ele>
        <time>2026-07-11T14:09:31Z</time>
      </trkpt>
      <trkpt lat="51.512906989082694" lon="-2.225058004260063">
        <ele>130.88</ele>
        <time>2026-07-11T14:09:41Z</time>
      </trkpt>
      <trkpt lat="51.512105008587241" lon="-2.21815399825573">
        <ele>125.11</ele>
        <time>2026-07-11T14:09:57Z</time>
      </trkpt>
      <trkpt lat="51.511601004749537" lon="-2.213380001485348">
        <ele>123.19</ele>
        <time>2026-07-11T14:10:08Z</time>
      </trkpt>
      <trkpt lat="51.511067999526858" lon="-2.207307983189821">
        <ele>122.22</ele>
        <time>2026-07-11T14:10:22Z</time>
      </trkpt>
      <trkpt lat="51.51051102206111" lon="-2.199883041903377">
        <ele>125.11</ele>
        <time>2026-07-11T14:10:39Z</time>
      </trkpt>
      <trkpt lat="51.510161999613047" lon="-2.193298973143101">
        <ele>123.67</ele>
        <time>2026-07-11T14:10:54Z</time>
      </trkpt>
      <trkpt lat="51.509919008240104" lon="-2.186307962983847">
        <ele>120.78</ele>
        <time>2026-07-11T14:11:10Z</time>
      </trkpt>
      <trkpt lat="51.509757991880178" lon="-2.17928602360189">
        <ele>118.86</ele>
        <time>2026-07-11T14:11:26Z</time>
      </trkpt>
      <trkpt lat="51.509742988273501" lon="-2.171815987676382">
        <ele>116.45999999999999</ele>
        <time>2026-07-11T14:11:43Z</time>
      </trkpt>
      <trkpt lat="51.509914984926581" lon="-2.166103972122073">
        <ele>115.01000000000001</ele>
        <time>2026-07-11T14:11:56Z</time>
      </trkpt>
      <trkpt lat="51.510294014587998" lon="-2.160820020362735">
        <ele>120.3</ele>
        <time>2026-07-11T14:12:08Z</time>
      </trkpt>
      <trkpt lat="51.510648988187313" lon="-2.156907012686133">
        <ele>119.34</ele>
        <time>2026-07-11T14:12:17Z</time>
      </trkpt>
      <trkpt lat="51.511063976213336" lon="-2.153471019119024">
        <ele>117.42</ele>
        <time>2026-07-11T14:12:25Z</time>
      </trkpt>
      <trkpt lat="51.511620031669736" lon="-2.149633029475808">
        <ele>114.53</ele>
        <time>2026-07-11T14:12:34Z</time>
      </trkpt>
      <trkpt lat="51.512418994680047" lon="-2.144958022981882">
        <ele>110.20999999999999</ele>
        <time>2026-07-11T14:12:45Z</time>
      </trkpt>
      <trkpt lat="51.513291969895363" lon="-2.139913961291313">
        <ele>105.40000000000001</ele>
        <time>2026-07-11T14:12:57Z</time>
      </trkpt>
      <trkpt lat="51.514236023649573" lon="-2.133039040490985">
        <ele>98.189999999999998</ele>
        <time>2026-07-11T14:13:13Z</time>
      </trkpt>
      <trkpt lat="51.514859972521663" lon="-2.127040028572083">
        <ele>93.390000000000001</ele>
        <time>2026-07-11T14:13:27Z</time>
      </trkpt>
      <trkpt lat="51.515299016609788" lon="-2.124450020492077">
        <ele>95.310000000000002</ele>
        <time>2026-07-11T14:13:35Z</time>
      </trkpt>
      <trkpt lat="51.515525998547673" lon="-2.123290970921516">
        <ele>98.670000000000002</ele>
        <time>2026-07-11T14:13:41Z</time>
      </trkpt>
      <trkpt lat="51.515574026852846" lon="-2.123133977875114">
        <ele>99.629999999999995</ele>
        <time>2026-07-11T14:13:43Z</time>
      </trkpt>
      <trkpt lat="51.515633035451174" lon="-2.122939014807344">
        <ele>101.08</ele>
        <time>2026-07-11T14:13:51Z</time>
      </trkpt>
      <trkpt lat="51.515710987150669" lon="-2.122683031484485">
        <ele>100.59999999999999</ele>
        <time>2026-07-11T14:14:19Z</time>
      </trkpt>
      <trkpt lat="51.515964958816767" lon="-2.122138040140271">
        <ele>98.670000000000002</ele>
        <time>2026-07-11T14:14:24Z</time>
      </trkpt>
      <trkpt lat="51.516005024313927" lon="-2.121970988810062">
        <ele>98.670000000000002</ele>
        <time>2026-07-11T14:14:25Z</time>
      </trkpt>
      <trkpt lat="51.516051962971687" lon="-2.121778037399054">
        <ele>98.189999999999998</ele>
        <time>2026-07-11T14:14:26Z</time>
      </trkpt>
      <trkpt lat="51.51603301987052" lon="-2.121617021039128">
        <ele>97.709999999999994</ele>
        <time>2026-07-11T14:14:27Z</time>
      </trkpt>
      <trkpt lat="51.516008963808417" lon="-2.121413005515933">
        <ele>97.230000000000004</ele>
        <time>2026-07-11T14:14:28Z</time>
      </trkpt>
      <trkpt lat="51.515961019322276" lon="-2.121257018297911">
        <ele>96.75</ele>
        <time>2026-07-11T14:14:29Z</time>
      </trkpt>
      <trkpt lat="51.515903016552329" lon="-2.121094996109605">
        <ele>96.75</ele>
        <time>2026-07-11T14:14:30Z</time>
      </trkpt>
      <trkpt lat="51.515805032104254" lon="-2.120985025539994">
        <ele>96.269999999999996</ele>
        <time>2026-07-11T14:14:31Z</time>
      </trkpt>
      <trkpt lat="51.515704030171037" lon="-2.120901038870215">
        <ele>96.269999999999996</ele>
        <time>2026-07-11T14:14:32Z</time>
      </trkpt>
      <trkpt lat="51.515597999095917" lon="-2.120828032493591">
        <ele>95.790000000000006</ele>
        <time>2026-07-11T14:14:33Z</time>
      </trkpt>
      <trkpt lat="51.515482999384403" lon="-2.120802970603108">
        <ele>95.310000000000002</ele>
        <time>2026-07-11T14:14:34Z</time>
      </trkpt>
      <trkpt lat="51.515360036864877" lon="-2.120776986703277">
        <ele>95.790000000000006</ele>
        <time>2026-07-11T14:14:35Z</time>
      </trkpt>
      <trkpt lat="51.515228021889925" lon="-2.120747985318303">
        <ele>95.310000000000002</ele>
        <time>2026-07-11T14:14:36Z</time>
      </trkpt>
      <trkpt lat="51.514449007809162" lon="-2.120726024731994">
        <ele>94.829999999999998</ele>
        <time>2026-07-11T14:14:42Z</time>
      </trkpt>
      <trkpt lat="51.514348005875945" lon="-2.120726024731994">
        <ele>94.829999999999998</ele>
        <time>2026-07-11T14:14:43Z</time>
      </trkpt>
      <trkpt lat="51.514235017821193" lon="-2.120776986703277">
        <ele>94.829999999999998</ele>
        <time>2026-07-11T14:14:44Z</time>
      </trkpt>
      <trkpt lat="51.51414499618113" lon="-2.120855022221804">
        <ele>94.349999999999994</ele>
        <time>2026-07-11T14:14:45Z</time>
      </trkpt>
      <trkpt lat="51.514063021168113" lon="-2.12093498557806">
        <ele>93.870000000000005</ele>
        <time>2026-07-11T14:14:46Z</time>
      </trkpt>
      <trkpt lat="51.51399303227663" lon="-2.121036993339658">
        <ele>93.870000000000005</ele>
        <time>2026-07-11T14:14:47Z</time>
      </trkpt>
      <trkpt lat="51.513951038941741" lon="-2.12114998139441">
        <ele>93.390000000000001</ele>
        <time>2026-07-11T14:14:48Z</time>
      </trkpt>
      <trkpt lat="51.51390602812171" lon="-2.121270010247827">
        <ele>93.390000000000001</ele>
        <time>2026-07-11T14:14:49Z</time>
      </trkpt>
      <trkpt lat="51.513879038393497" lon="-2.121420968323946">
        <ele>93.390000000000001</ele>
        <time>2026-07-11T14:14:50Z</time>
      </trkpt>
      <trkpt lat="51.513867974281311" lon="-2.121597994118929">
        <ele>93.870000000000005</ele>
        <time>2026-07-11T14:14:51Z</time>
      </trkpt>
      <trkpt lat="51.513822041451931" lon="-2.121775019913912">
        <ele>93.870000000000005</ele>
        <time>2026-07-11T14:14:52Z</time>
      </trkpt>
      <trkpt lat="51.513759009540081" lon="-2.121936958283186">
        <ele>94.349999999999994</ele>
        <time>2026-07-11T14:14:53Z</time>
      </trkpt>
      <trkpt lat="51.51369203813374" lon="-2.122108032926917">
        <ele>94.349999999999994</ele>
        <time>2026-07-11T14:14:54Z</time>
      </trkpt>
      <trkpt lat="51.513595981523395" lon="-2.122248010709882">
        <ele>94.349999999999994</ele>
        <time>2026-07-11T14:14:55Z</time>
      </trkpt>
      <trkpt lat="51.513480981811881" lon="-2.122364016249776">
        <ele>94.349999999999994</ele>
        <time>2026-07-11T14:14:56Z</time>
      </trkpt>
      <trkpt lat="51.513352990150452" lon="-2.12245998904109">
        <ele>94.349999999999994</ele>
        <time>2026-07-11T14:14:57Z</time>
      </trkpt>
      <trkpt lat="51.513218963518739" lon="-2.122560990974307">
        <ele>94.349999999999994</ele>
        <time>2026-07-11T14:14:58Z</time>
      </trkpt>
      <trkpt lat="51.511763026937842" lon="-2.123609986156225">
        <ele>95.790000000000006</ele>
        <time>2026-07-11T14:15:07Z</time>
      </trkpt>
      <trkpt lat="51.510054962709546" lon="-2.124554039910436">
        <ele>99.150000000000006</ele>
        <time>2026-07-11T14:15:15Z</time>
      </trkpt>
      <trkpt lat="51.507810959592462" lon="-2.125084027647972">
        <ele>102.52</ele>
        <time>2026-07-11T14:15:24Z</time>
      </trkpt>
      <trkpt lat="51.505336035043001" lon="-2.125555006787181">
        <ele>101.08</ele>
        <time>2026-07-11T14:15:33Z</time>
      </trkpt>
      <trkpt lat="51.503274003043771" lon="-2.125873016193509">
        <ele>98.670000000000002</ele>
        <time>2026-07-11T14:15:41Z</time>
      </trkpt>
      <trkpt lat="51.501398971304297" lon="-2.125657014548779">
        <ele>97.230000000000004</ele>
        <time>2026-07-11T14:15:49Z</time>
      </trkpt>
      <trkpt lat="51.498709972947836" lon="-2.125298017635942">
        <ele>89.540000000000006</ele>
        <time>2026-07-11T14:15:59Z</time>
      </trkpt>
      <trkpt lat="51.496567977592349" lon="-2.125895982608199">
        <ele>86.659999999999997</ele>
        <time>2026-07-11T14:16:07Z</time>
      </trkpt>
      <trkpt lat="51.492580035701394" lon="-2.127432972192764">
        <ele>87.140000000000001</ele>
        <time>2026-07-11T14:16:22Z</time>
      </trkpt>
      <trkpt lat="51.49014500901103" lon="-2.128187008202076">
        <ele>88.579999999999998</ele>
        <time>2026-07-11T14:16:32Z</time>
      </trkpt>
      <trkpt lat="51.488390006124973" lon="-2.12830301374197">
        <ele>90.5</ele>
        <time>2026-07-11T14:16:41Z</time>
      </trkpt>
      <trkpt lat="51.487792041152716" lon="-2.128330003470182">
        <ele>90.5</ele>
        <time>2026-07-11T14:16:47Z</time>
      </trkpt>
      <trkpt lat="51.487681986764073" lon="-2.128335032612085">
        <ele>91.939999999999998</ele>
        <time>2026-07-11T14:16:55Z</time>
      </trkpt>
      <trkpt lat="51.487470008432865" lon="-2.12834500707686">
        <ele>92.420000000000002</ele>
        <time>2026-07-11T14:17:10Z</time>
      </trkpt>
      <trkpt lat="51.486723013222218" lon="-2.128403009846807">
        <ele>92.420000000000002</ele>
        <time>2026-07-11T14:17:17Z</time>
      </trkpt>
      <trkpt lat="51.485391966998577" lon="-2.128480039536953">
        <ele>92.420000000000002</ele>
        <time>2026-07-11T14:17:24Z</time>
      </trkpt>
      <trkpt lat="51.482742028310895" lon="-2.128586992621422">
        <ele>90.5</ele>
        <time>2026-07-11T14:17:37Z</time>
      </trkpt>
      <trkpt lat="51.480449996888638" lon="-2.128574000671506">
        <ele>88.099999999999994</ele>
        <time>2026-07-11T14:17:48Z</time>
      </trkpt>
      <trkpt lat="51.478821979835629" lon="-2.128292033448815">
        <ele>90.980000000000004</ele>
        <time>2026-07-11T14:17:57Z</time>
      </trkpt>
      <trkpt lat="51.478557027876377" lon="-2.128267977386713">
        <ele>91.939999999999998</ele>
        <time>2026-07-11T14:17:59Z</time>
      </trkpt>
      <trkpt lat="51.478442028164864" lon="-2.128218021243811">
        <ele>92.420000000000002</ele>
        <time>2026-07-11T14:18:00Z</time>
      </trkpt>
      <trkpt lat="51.478255027905107" lon="-2.128122970461845">
        <ele>93.870000000000005</ele>
        <time>2026-07-11T14:18:02Z</time>
      </trkpt>
      <trkpt lat="51.478182021528482" lon="-2.12810997851193">
        <ele>94.349999999999994</ele>
        <time>2026-07-11T14:18:03Z</time>
      </trkpt>
      <trkpt lat="51.478112032637" lon="-2.128096986562014">
        <ele>95.310000000000002</ele>
        <time>2026-07-11T14:18:04Z</time>
      </trkpt>
      <trkpt lat="51.478040032088757" lon="-2.128082988783717">
        <ele>95.790000000000006</ele>
        <time>2026-07-11T14:18:05Z</time>
      </trkpt>
      <trkpt lat="51.477964008226991" lon="-2.128063961863518">
        <ele>96.75</ele>
        <time>2026-07-11T14:18:06Z</time>
      </trkpt>
      <trkpt lat="51.477135960012674" lon="-2.127757016569376">
        <ele>100.59999999999999</ele>
        <time>2026-07-11T14:18:14Z</time>
      </trkpt>
      <trkpt lat="51.475833998993039" lon="-2.127031981945038">
        <ele>103.95999999999999</ele>
        <time>2026-07-11T14:18:27Z</time>
      </trkpt>
      <trkpt lat="51.47514802403748" lon="-2.126609031111002">
        <ele>106.84</ele>
        <time>2026-07-11T14:18:36Z</time>
      </trkpt>
      <trkpt lat="51.474681990221143" lon="-2.12630501948297">
        <ele>107.81</ele>
        <time>2026-07-11T14:18:42Z</time>
      </trkpt>
      <trkpt lat="51.473694015294313" lon="-2.125738989561796">
        <ele>104.44</ele>
        <time>2026-07-11T14:18:50Z</time>
      </trkpt>
      <trkpt lat="51.473569963127375" lon="-2.125647962093353">
        <ele>103.95999999999999</ele>
        <time>2026-07-11T14:18:51Z</time>
      </trkpt>
      <trkpt lat="51.472558015957475" lon="-2.124922005459666">
        <ele>98.670000000000002</ele>
        <time>2026-07-11T14:18:59Z</time>
      </trkpt>
      <trkpt lat="51.472047977149487" lon="-2.124722013249993">
        <ele>95.790000000000006</ele>
        <time>2026-07-11T14:19:03Z</time>
      </trkpt>
      <trkpt lat="51.471916968002915" lon="-2.124725030735135">
        <ele>94.829999999999998</ele>
        <time>2026-07-11T14:19:04Z</time>
      </trkpt>
      <trkpt lat="51.47076303139329" lon="-2.124579017981887">
        <ele>90.980000000000004</ele>
        <time>2026-07-11T14:19:13Z</time>
      </trkpt>
      <trkpt lat="51.469612028449774" lon="-2.123915003612638">
        <ele>89.540000000000006</ele>
        <time>2026-07-11T14:19:23Z</time>
      </trkpt>
      <trkpt lat="51.468236977234483" lon="-2.123307986184955">
        <ele>86.180000000000007</ele>
        <time>2026-07-11T14:19:34Z</time>
      </trkpt>
      <trkpt lat="51.467577992007136" lon="-2.122995005920529">
        <ele>82.329999999999998</ele>
        <time>2026-07-11T14:19:40Z</time>
      </trkpt>
      <trkpt lat="51.467287978157401" lon="-2.122707003727555">
        <ele>80.409999999999997</ele>
        <time>2026-07-11T14:19:43Z</time>
      </trkpt>
      <trkpt lat="51.4671999681741" lon="-2.122578006237745">
        <ele>79.930000000000007</ele>
        <time>2026-07-11T14:19:44Z</time>
      </trkpt>
      <trkpt lat="51.467107012867928" lon="-2.122442973777652">
        <ele>79.450000000000003</ele>
        <time>2026-07-11T14:19:45Z</time>
      </trkpt>
      <trkpt lat="51.467056972905993" lon="-2.122253039851785">
        <ele>78.480000000000004</ele>
        <time>2026-07-11T14:19:46Z</time>
      </trkpt>
      <trkpt lat="51.467006010934711" lon="-2.122055981308222">
        <ele>77.519999999999996</ele>
        <time>2026-07-11T14:19:47Z</time>
      </trkpt>
      <trkpt lat="51.466969968751073" lon="-2.121862024068832">
        <ele>76.560000000000002</ele>
        <time>2026-07-11T14:19:48Z</time>
      </trkpt>
      <trkpt lat="51.466950019821525" lon="-2.121658008545637">
        <ele>75.599999999999994</ele>
        <time>2026-07-11T14:19:49Z</time>
      </trkpt>
      <trkpt lat="51.466931998729706" lon="-2.121457010507584">
        <ele>75.120000000000005</ele>
        <time>2026-07-11T14:19:50Z</time>
      </trkpt>
      <trkpt lat="51.466868966817856" lon="-2.120689982548356">
        <ele>73.680000000000007</ele>
        <time>2026-07-11T14:19:54Z</time>
      </trkpt>
      <trkpt lat="51.466853963211179" lon="-2.120499964803457">
        <ele>73.200000000000003</ele>
        <time>2026-07-11T14:19:55Z</time>
      </trkpt>
      <trkpt lat="51.466801995411515" lon="-2.12033299729228">
        <ele>72.719999999999999</ele>
        <time>2026-07-11T14:19:56Z</time>
      </trkpt>
      <trkpt lat="51.466737035661936" lon="-2.1201800275594">
        <ele>72.719999999999999</ele>
        <time>2026-07-11T14:19:57Z</time>
      </trkpt>
      <trkpt lat="51.466669980436563" lon="-2.12003200314939">
        <ele>72.239999999999995</ele>
        <time>2026-07-11T14:19:58Z</time>
      </trkpt>
      <trkpt lat="51.466571995988488" lon="-2.119934018701315">
        <ele>71.760000000000005</ele>
        <time>2026-07-11T14:19:59Z</time>
      </trkpt>
      <trkpt lat="51.466479040682316" lon="-2.119840979576111">
        <ele>71.269999999999996</ele>
        <time>2026-07-11T14:20:00Z</time>
      </trkpt>
      <trkpt lat="51.465589972212911" lon="-2.118973033502698">
        <ele>70.790000000000006</ele>
        <time>2026-07-11T14:20:11Z</time>
      </trkpt>
      <trkpt lat="51.465010028332472" lon="-2.118385965004563">
        <ele>71.269999999999996</ele>
        <time>2026-07-11T14:20:22Z</time>
      </trkpt>
      <trkpt lat="51.464968034997582" lon="-2.118341960012913">
        <ele>71.760000000000005</ele>
        <time>2026-07-11T14:20:23Z</time>
      </trkpt>
      <trkpt lat="51.464637033641338" lon="-2.118009030818939">
        <ele>71.760000000000005</ele>
        <time>2026-07-11T14:20:31Z</time>
      </trkpt>
      <trkpt lat="51.464497977867723" lon="-2.117886990308762">
        <ele>72.239999999999995</ele>
        <time>2026-07-11T14:20:34Z</time>
      </trkpt>
      <trkpt lat="51.464454978704453" lon="-2.117849020287395">
        <ele>72.239999999999995</ele>
        <time>2026-07-11T14:20:35Z</time>
      </trkpt>
      <trkpt lat="51.464418014511466" lon="-2.117817001417279">
        <ele>72.239999999999995</ele>
        <time>2026-07-11T14:20:36Z</time>
      </trkpt>
      <trkpt lat="51.464385995641351" lon="-2.117788000032306">
        <ele>72.239999999999995</ele>
        <time>2026-07-11T14:20:37Z</time>
      </trkpt>
      <trkpt lat="51.464360011741519" lon="-2.117765033617616">
        <ele>72.719999999999999</ele>
        <time>2026-07-11T14:20:38Z</time>
      </trkpt>
      <trkpt lat="51.464338973164558" lon="-2.117747012525797">
        <ele>72.719999999999999</ele>
        <time>2026-07-11T14:20:39Z</time>
      </trkpt>
      <trkpt lat="51.464323969557881" lon="-2.117734020575881">
        <ele>73.200000000000003</ele>
        <time>2026-07-11T14:20:40Z</time>
      </trkpt>
      <trkpt lat="51.464323969557881" lon="-2.117734020575881">
        <ele>73.200000000000003</ele>
        <time>2026-07-11T14:20:54Z</time>
      </trkpt>
      <trkpt lat="51.464292034506798" lon="-2.117706025019288">
        <ele>74.159999999999997</ele>
        <time>2026-07-11T14:21:18Z</time>
      </trkpt>
      <trkpt lat="51.464037979021668" lon="-2.117480970919132">
        <ele>70.790000000000006</ele>
        <time>2026-07-11T14:21:26Z</time>
      </trkpt>
      <trkpt lat="51.463963966816664" lon="-2.117416011169553">
        <ele>69.829999999999998</ele>
        <time>2026-07-11T14:21:28Z</time>
      </trkpt>
      <trkpt lat="51.463874028995633" lon="-2.117336969822645">
        <ele>68.870000000000005</ele>
        <time>2026-07-11T14:21:30Z</time>
      </trkpt>
      <trkpt lat="51.463823989033699" lon="-2.117292964830995">
        <ele>68.870000000000005</ele>
        <time>2026-07-11T14:21:31Z</time>
      </trkpt>
      <trkpt lat="51.463774032890797" lon="-2.117298999801278">
        <ele>68.390000000000001</ele>
        <time>2026-07-11T14:21:32Z</time>
      </trkpt>
      <trkpt lat="51.46371603012085" lon="-2.117306040599942">
        <ele>68.390000000000001</ele>
        <time>2026-07-11T14:21:33Z</time>
      </trkpt>
      <trkpt lat="51.463651992380619" lon="-2.117314003407955">
        <ele>67.909999999999997</ele>
        <time>2026-07-11T14:21:34Z</time>
      </trkpt>
      <trkpt lat="51.463621985167265" lon="-2.117338981479406">
        <ele>67.909999999999997</ele>
        <time>2026-07-11T14:21:35Z</time>
      </trkpt>
      <trkpt lat="51.463580997660756" lon="-2.117372006177902">
        <ele>67.909999999999997</ele>
        <time>2026-07-11T14:21:36Z</time>
      </trkpt>
      <trkpt lat="51.463542021811008" lon="-2.117403019219637">
        <ele>67.430000000000007</ele>
        <time>2026-07-11T14:21:37Z</time>
      </trkpt>
      <trkpt lat="51.463511008769274" lon="-2.117426991462708">
        <ele>67.430000000000007</ele>
        <time>2026-07-11T14:21:38Z</time>
      </trkpt>
      <trkpt lat="51.463484019041061" lon="-2.117449035868049">
        <ele>67.430000000000007</ele>
        <time>2026-07-11T14:21:39Z</time>
      </trkpt>
      <trkpt lat="51.463414030149579" lon="-2.117505026981235">
        <ele>66.469999999999999</ele>
        <time>2026-07-11T14:21:47Z</time>
      </trkpt>
      <trkpt lat="51.462955959141254" lon="-2.117832005023956">
        <ele>64.549999999999997</ele>
        <time>2026-07-11T14:21:54Z</time>
      </trkpt>
      <trkpt lat="51.462166970595717" lon="-2.118372973054647">
        <ele>60.700000000000003</ele>
        <time>2026-07-11T14:22:05Z</time>
      </trkpt>
      <trkpt lat="51.461679982021451" lon="-2.118716966360807">
        <ele>56.859999999999999</ele>
        <time>2026-07-11T14:22:13Z</time>
      </trkpt>
      <trkpt lat="51.461637988686562" lon="-2.118747979402542">
        <ele>56.369999999999997</ele>
        <time>2026-07-11T14:22:14Z</time>
      </trkpt>
      <trkpt lat="51.46159297786653" lon="-2.118778992444277">
        <ele>55.890000000000001</ele>
        <time>2026-07-11T14:22:15Z</time>
      </trkpt>
      <trkpt lat="51.461532041430473" lon="-2.118898015469313">
        <ele>54.93</ele>
        <time>2026-07-11T14:22:17Z</time>
      </trkpt>
      <trkpt lat="51.46150597371161" lon="-2.118968004360795">
        <ele>54.450000000000003</ele>
        <time>2026-07-11T14:22:18Z</time>
      </trkpt>
      <trkpt lat="51.461485018953681" lon="-2.119051991030574">
        <ele>54.450000000000003</ele>
        <time>2026-07-11T14:22:19Z</time>
      </trkpt>
      <trkpt lat="51.461468003690243" lon="-2.119135977700353">
        <ele>53.969999999999999</ele>
        <time>2026-07-11T14:22:20Z</time>
      </trkpt>
      <trkpt lat="51.461444031447172" lon="-2.119212001562119">
        <ele>53.969999999999999</ele>
        <time>2026-07-11T14:22:21Z</time>
      </trkpt>
      <trkpt lat="51.461417963728309" lon="-2.119277967140079">
        <ele>53.969999999999999</ele>
        <time>2026-07-11T14:22:22Z</time>
      </trkpt>
      <trkpt lat="51.461389968171716" lon="-2.119350973516703">
        <ele>53.969999999999999</ele>
        <time>2026-07-11T14:22:23Z</time>
      </trkpt>
      <trkpt lat="51.461359960958362" lon="-2.119428003206849">
        <ele>53.969999999999999</ele>
        <time>2026-07-11T14:22:24Z</time>
      </trkpt>
      <trkpt lat="51.461307993158698" lon="-2.119463039562106">
        <ele>53.969999999999999</ele>
        <time>2026-07-11T14:22:25Z</time>
      </trkpt>
      <trkpt lat="51.461252002045512" lon="-2.119491035118699">
        <ele>53.969999999999999</ele>
        <time>2026-07-11T14:22:26Z</time>
      </trkpt>
      <trkpt lat="51.461198022589087" lon="-2.119518024846911">
        <ele>53.969999999999999</ele>
        <time>2026-07-11T14:22:27Z</time>
      </trkpt>
      <trkpt lat="51.461142031475902" lon="-2.119546020403504">
        <ele>53.969999999999999</ele>
        <time>2026-07-11T14:22:28Z</time>
      </trkpt>
      <trkpt lat="51.46107698790729" lon="-2.119481982663274">
        <ele>53.969999999999999</ele>
        <time>2026-07-11T14:22:29Z</time>
      </trkpt>
      <trkpt lat="51.461049998179078" lon="-2.119458010420203">
        <ele>53.969999999999999</ele>
        <time>2026-07-11T14:22:30Z</time>
      </trkpt>
      <trkpt lat="51.460996018722653" lon="-2.119414005428553">
        <ele>53.969999999999999</ele>
        <time>2026-07-11T14:22:31Z</time>
      </trkpt>
      <trkpt lat="51.460936004295945" lon="-2.119363965466619">
        <ele>53.969999999999999</ele>
        <time>2026-07-11T14:22:32Z</time>
      </trkpt>
      <trkpt lat="51.460879007354379" lon="-2.119316020980477">
        <ele>54.450000000000003</ele>
        <time>2026-07-11T14:22:33Z</time>
      </trkpt>
      <trkpt lat="51.460825027897954" lon="-2.119271010160446">
        <ele>54.450000000000003</ele>
        <time>2026-07-11T14:22:34Z</time>
      </trkpt>
      <trkpt lat="51.460769958794117" lon="-2.119260029867292">
        <ele>54.450000000000003</ele>
        <time>2026-07-11T14:22:35Z</time>
      </trkpt>
      <trkpt lat="51.460713967680931" lon="-2.119251983240247">
        <ele>54.450000000000003</ele>
        <time>2026-07-11T14:22:36Z</time>
      </trkpt>
      <trkpt lat="51.460669962689281" lon="-2.119246032088995">
        <ele>54.93</ele>
        <time>2026-07-11T14:22:37Z</time>
      </trkpt>
      <trkpt lat="51.460626963526011" lon="-2.119282996281982">
        <ele>54.93</ele>
        <time>2026-07-11T14:22:38Z</time>
      </trkpt>
      <trkpt lat="51.460582036525011" lon="-2.119321972131729">
        <ele>54.93</ele>
        <time>2026-07-11T14:22:39Z</time>
      </trkpt>
      <trkpt lat="51.460530990734696" lon="-2.119367988780141">
        <ele>54.93</ele>
        <time>2026-07-11T14:22:40Z</time>
      </trkpt>
      <trkpt lat="51.459900001063943" lon="-2.11987903341651">
        <ele>52.049999999999997</ele>
        <time>2026-07-11T14:22:52Z</time>
      </trkpt>
      <trkpt lat="51.459831018000841" lon="-2.119892025366426">
        <ele>51.57</ele>
        <time>2026-07-11T14:22:54Z</time>
      </trkpt>
      <trkpt lat="51.459720963612199" lon="-2.119912980124354">
        <ele>51.090000000000003</ele>
        <time>2026-07-11T14:22:56Z</time>
      </trkpt>
      <trkpt lat="51.459649968892336" lon="-2.11992597207427">
        <ele>51.090000000000003</ele>
        <time>2026-07-11T14:22:57Z</time>
      </trkpt>
      <trkpt lat="51.459590960294008" lon="-2.119910968467593">
        <ele>51.090000000000003</ele>
        <time>2026-07-11T14:22:58Z</time>
      </trkpt>
      <trkpt lat="51.459534969180822" lon="-2.119868975132704">
        <ele>50.609999999999999</ele>
        <time>2026-07-11T14:22:59Z</time>
      </trkpt>
      <trkpt lat="51.459479983896017" lon="-2.119825975969434">
        <ele>50.609999999999999</ele>
        <time>2026-07-11T14:23:00Z</time>
      </trkpt>
      <trkpt lat="51.459427010267973" lon="-2.119784988462925">
        <ele>50.609999999999999</ele>
        <time>2026-07-11T14:23:01Z</time>
      </trkpt>
      <trkpt lat="51.459339000284672" lon="-2.119718017056584">
        <ele>50.130000000000003</ele>
        <time>2026-07-11T14:23:02Z</time>
      </trkpt>
      <trkpt lat="51.459328019991517" lon="-2.119630007073283">
        <ele>50.130000000000003</ele>
        <time>2026-07-11T14:23:03Z</time>
      </trkpt>
      <trkpt lat="51.459256019443274" lon="-2.119463961571455">
        <ele>50.130000000000003</ele>
        <time>2026-07-11T14:23:05Z</time>
      </trkpt>
      <trkpt lat="51.459202039986849" lon="-2.119391961023212">
        <ele>50.130000000000003</ele>
        <time>2026-07-11T14:23:06Z</time>
      </trkpt>
      <trkpt lat="51.45914101973176" lon="-2.119337981566787">
        <ele>50.130000000000003</ele>
        <time>2026-07-11T14:23:07Z</time>
      </trkpt>
      <trkpt lat="51.459071030840278" lon="-2.119286013767123">
        <ele>50.130000000000003</ele>
        <time>2026-07-11T14:23:08Z</time>
      </trkpt>
      <trkpt lat="51.458996012806892" lon="-2.119230022653937">
        <ele>49.649999999999999</ele>
        <time>2026-07-11T14:23:09Z</time>
      </trkpt>
      <trkpt lat="51.458828039467335" lon="-2.11915198713541">
        <ele>49.159999999999997</ele>
        <time>2026-07-11T14:23:11Z</time>
      </trkpt>
      <trkpt lat="51.458742963150144" lon="-2.119127009063959">
        <ele>48.68</ele>
        <time>2026-07-11T14:23:12Z</time>
      </trkpt>
      <trkpt lat="51.458655958995223" lon="-2.119103036820889">
        <ele>48.200000000000003</ele>
        <time>2026-07-11T14:23:13Z</time>
      </trkpt>
      <trkpt lat="51.458563003689051" lon="-2.119120974093676">
        <ele>48.200000000000003</ele>
        <time>2026-07-11T14:23:14Z</time>
      </trkpt>
      <trkpt lat="51.458470970392227" lon="-2.119137989357114">
        <ele>48.200000000000003</ele>
        <time>2026-07-11T14:23:15Z</time>
      </trkpt>
      <trkpt lat="51.458307020366192" lon="-2.119143018499017">
        <ele>48.68</ele>
        <time>2026-07-11T14:23:17Z</time>
      </trkpt>
      <trkpt lat="51.458225967362523" lon="-2.119114017114043">
        <ele>48.68</ele>
        <time>2026-07-11T14:23:18Z</time>
      </trkpt>
      <trkpt lat="51.458115996792912" lon="-2.119074035435915">
        <ele>48.68</ele>
        <time>2026-07-11T14:23:19Z</time>
      </trkpt>
      <trkpt lat="51.458066962659359" lon="-2.119035981595516">
        <ele>48.68</ele>
        <time>2026-07-11T14:23:20Z</time>
      </trkpt>
      <trkpt lat="51.457998985424638" lon="-2.118985019624233">
        <ele>48.68</ele>
        <time>2026-07-11T14:23:21Z</time>
      </trkpt>
      <trkpt lat="51.457936959341168" lon="-2.118937997147441">
        <ele>48.68</ele>
        <time>2026-07-11T14:23:22Z</time>
      </trkpt>
      <trkpt lat="51.457882979884744" lon="-2.118897009640932">
        <ele>48.68</ele>
        <time>2026-07-11T14:23:23Z</time>
      </trkpt>
      <trkpt lat="51.457836963236332" lon="-2.118860967457295">
        <ele>49.159999999999997</ele>
        <time>2026-07-11T14:23:24Z</time>
      </trkpt>
      <trkpt lat="51.457795975729823" lon="-2.118830038234592">
        <ele>49.159999999999997</ele>
        <time>2026-07-11T14:23:25Z</time>
      </trkpt>
      <trkpt lat="51.457754988223314" lon="-2.118800031021237">
        <ele>48.68</ele>
        <time>2026-07-11T14:23:32Z</time>
      </trkpt>
      <trkpt lat="51.457751970738173" lon="-2.118797013536096">
        <ele>48.68</ele>
        <time>2026-07-11T14:23:51Z</time>
      </trkpt>
      <trkpt lat="51.457727998495102" lon="-2.118778992444277">
        <ele>49.159999999999997</ele>
        <time>2026-07-11T14:23:52Z</time>
      </trkpt>
      <trkpt lat="51.457692962139845" lon="-2.118753008544445">
        <ele>49.159999999999997</ele>
        <time>2026-07-11T14:23:53Z</time>
      </trkpt>
      <trkpt lat="51.457491964101791" lon="-2.118618981912732">
        <ele>48.68</ele>
        <time>2026-07-11T14:23:58Z</time>
      </trkpt>
      <trkpt lat="51.457107989117503" lon="-2.118467018008232">
        <ele>48.200000000000003</ele>
        <time>2026-07-11T14:24:02Z</time>
      </trkpt>
      <trkpt lat="51.45585598424077" lon="-2.118479004129767">
        <ele>47.240000000000002</ele>
        <time>2026-07-11T14:24:10Z</time>
      </trkpt>
      <trkpt lat="51.454170970246196" lon="-2.118460983037949">
        <ele>49.159999999999997</ele>
        <time>2026-07-11T14:24:20Z</time>
      </trkpt>
      <trkpt lat="51.454015988856554" lon="-2.11839803494513">
        <ele>49.159999999999997</ele>
        <time>2026-07-11T14:24:21Z</time>
      </trkpt>
      <trkpt lat="51.453865030780435" lon="-2.118287980556488">
        <ele>49.159999999999997</ele>
        <time>2026-07-11T14:24:22Z</time>
      </trkpt>
      <trkpt lat="51.453711977228522" lon="-2.118177004158497">
        <ele>49.159999999999997</ele>
        <time>2026-07-11T14:24:23Z</time>
      </trkpt>
      <trkpt lat="51.453564958646894" lon="-2.118054963648319">
        <ele>49.159999999999997</ele>
        <time>2026-07-11T14:24:24Z</time>
      </trkpt>
      <trkpt lat="51.453433027490973" lon="-2.117872992530465">
        <ele>49.159999999999997</ele>
        <time>2026-07-11T14:24:25Z</time>
      </trkpt>
      <trkpt lat="51.453300006687641" lon="-2.11769001558423">
        <ele>49.159999999999997</ele>
        <time>2026-07-11T14:24:26Z</time>
      </trkpt>
      <trkpt lat="51.453186012804508" lon="-2.117486000061035">
        <ele>49.159999999999997</ele>
        <time>2026-07-11T14:24:27Z</time>
      </trkpt>
      <trkpt lat="51.453092973679304" lon="-2.117258012294769">
        <ele>48.68</ele>
        <time>2026-07-11T14:24:28Z</time>
      </trkpt>
      <trkpt lat="51.45301703363657" lon="-2.117008985951543">
        <ele>48.68</ele>
        <time>2026-07-11T14:24:29Z</time>
      </trkpt>
      <trkpt lat="51.452957019209862" lon="-2.116756020113826">
        <ele>48.68</ele>
        <time>2026-07-11T14:24:30Z</time>
      </trkpt>
      <trkpt lat="51.452925000339746" lon="-2.116481009870768">
        <ele>48.68</ele>
        <time>2026-07-11T14:24:31Z</time>
      </trkpt>
      <trkpt lat="51.452893987298012" lon="-2.116205999627709">
        <ele>48.200000000000003</ele>
        <time>2026-07-11T14:24:32Z</time>
      </trkpt>
      <trkpt lat="51.452883007004857" lon="-2.115939036011696">
        <ele>47.719999999999999</ele>
        <time>2026-07-11T14:24:33Z</time>
      </trkpt>
      <trkpt lat="51.45288803614676" lon="-2.115661008283496">
        <ele>47.719999999999999</ele>
        <time>2026-07-11T14:24:34Z</time>
      </trkpt>
      <trkpt lat="51.452891975641251" lon="-2.115382980555296">
        <ele>47.240000000000002</ele>
        <time>2026-07-11T14:24:35Z</time>
      </trkpt>
      <trkpt lat="51.452950984239578" lon="-2.11291903629899">
        <ele>53.009999999999998</ele>
        <time>2026-07-11T14:24:45Z</time>
      </trkpt>
      <trkpt lat="51.452971016988158" lon="-2.11259700357914">
        <ele>54.93</ele>
        <time>2026-07-11T14:24:47Z</time>
      </trkpt>
      <trkpt lat="51.452979985624552" lon="-2.112461971119046">
        <ele>55.890000000000001</ele>
        <time>2026-07-11T14:24:48Z</time>
      </trkpt>
      <trkpt lat="51.452988032251596" lon="-2.112335991114378">
        <ele>57.340000000000003</ele>
        <time>2026-07-11T14:24:50Z</time>
      </trkpt>
      <trkpt lat="51.453015021979809" lon="-2.112183021381497">
        <ele>57.82</ele>
        <time>2026-07-11T14:24:51Z</time>
      </trkpt>
      <trkpt lat="51.4529740344733" lon="-2.112131975591183">
        <ele>58.299999999999997</ele>
        <time>2026-07-11T14:24:52Z</time>
      </trkpt>
      <trkpt lat="51.452903961762786" lon="-2.112145973369479">
        <ele>58.780000000000001</ele>
        <time>2026-07-11T14:24:53Z</time>
      </trkpt>
      <trkpt lat="51.452821986749768" lon="-2.112110015004873">
        <ele>59.259999999999998</ele>
        <time>2026-07-11T14:24:54Z</time>
      </trkpt>
      <trkpt lat="51.452726013958454" lon="-2.112079001963139">
        <ele>59.259999999999998</ele>
        <time>2026-07-11T14:24:55Z</time>
      </trkpt>
      <trkpt lat="51.452615037560463" lon="-2.112079001963139">
        <ele>59.740000000000002</ele>
        <time>2026-07-11T14:24:56Z</time>
      </trkpt>
      <trkpt lat="51.451287008821964" lon="-2.112001972272992">
        <ele>60.700000000000003</ele>
        <time>2026-07-11T14:25:06Z</time>
      </trkpt>
      <trkpt lat="51.450346978381276" lon="-2.112376978620887">
        <ele>60.700000000000003</ele>
        <time>2026-07-11T14:25:14Z</time>
      </trkpt>
      <trkpt lat="51.450257040560246" lon="-2.112419977784157">
        <ele>61.659999999999997</ele>
        <time>2026-07-11T14:25:15Z</time>
      </trkpt>
      <trkpt lat="51.450170958414674" lon="-2.112454008311033">
        <ele>62.140000000000001</ele>
        <time>2026-07-11T14:25:16Z</time>
      </trkpt>
      <trkpt lat="51.450027041137218" lon="-2.112378990277648">
        <ele>62.619999999999997</ele>
        <time>2026-07-11T14:25:17Z</time>
      </trkpt>
      <trkpt lat="51.449979012832046" lon="-2.112390976399183">
        <ele>63.100000000000001</ele>
        <time>2026-07-11T14:25:18Z</time>
      </trkpt>
      <trkpt lat="51.449896031990647" lon="-2.112527014687657">
        <ele>63.100000000000001</ele>
        <time>2026-07-11T14:25:19Z</time>
      </trkpt>
      <trkpt lat="51.449793018400669" lon="-2.112569008022547">
        <ele>63.100000000000001</ele>
        <time>2026-07-11T14:25:20Z</time>
      </trkpt>
      <trkpt lat="51.449684975668788" lon="-2.112614018842578">
        <ele>63.100000000000001</ele>
        <time>2026-07-11T14:25:21Z</time>
      </trkpt>
      <trkpt lat="51.448500026017427" lon="-2.11315599270165">
        <ele>61.18</ele>
        <time>2026-07-11T14:25:30Z</time>
      </trkpt>
      <trkpt lat="51.44734600558877" lon="-2.113361014053226">
        <ele>59.740000000000002</ele>
        <time>2026-07-11T14:25:38Z</time>
      </trkpt>
      <trkpt lat="51.44672398455441" lon="-2.11322296410799">
        <ele>59.259999999999998</ele>
        <time>2026-07-11T14:25:43Z</time>
      </trkpt>
      <trkpt lat="51.446608984842896" lon="-2.11315699853003">
        <ele>59.259999999999998</ele>
        <time>2026-07-11T14:25:44Z</time>
      </trkpt>
      <trkpt lat="51.445988975465298" lon="-2.112723989412189">
        <ele>59.740000000000002</ele>
        <time>2026-07-11T14:25:49Z</time>
      </trkpt>
      <trkpt lat="51.445128992199898" lon="-2.111617997288704">
        <ele>61.659999999999997</ele>
        <time>2026-07-11T14:25:57Z</time>
      </trkpt>
      <trkpt lat="51.444571008905768" lon="-2.110300026834011">
        <ele>57.82</ele>
        <time>2026-07-11T14:26:04Z</time>
      </trkpt>
      <trkpt lat="51.44453102722764" lon="-2.110159965232015">
        <ele>57.340000000000003</ele>
        <time>2026-07-11T14:26:05Z</time>
      </trkpt>
      <trkpt lat="51.444494985044003" lon="-2.110033985227346">
        <ele>57.340000000000003</ele>
        <time>2026-07-11T14:26:06Z</time>
      </trkpt>
      <trkpt lat="51.444462966173887" lon="-2.109922003000975">
        <ele>56.859999999999999</ele>
        <time>2026-07-11T14:26:07Z</time>
      </trkpt>
      <trkpt lat="51.44444796256721" lon="-2.109869029372931">
        <ele>56.369999999999997</ele>
        <time>2026-07-11T14:26:08Z</time>
      </trkpt>
      <trkpt lat="51.444383002817631" lon="-2.109654033556581">
        <ele>56.369999999999997</ele>
        <time>2026-07-11T14:26:09Z</time>
      </trkpt>
      <trkpt lat="51.44435802474618" lon="-2.109583038836718">
        <ele>55.890000000000001</ele>
        <time>2026-07-11T14:26:10Z</time>
      </trkpt>
      <trkpt lat="51.444305973127484" lon="-2.109441971406341">
        <ele>55.890000000000001</ele>
        <time>2026-07-11T14:26:11Z</time>
      </trkpt>
      <trkpt lat="51.444249982014298" lon="-2.109286990016699">
        <ele>55.890000000000001</ele>
        <time>2026-07-11T14:26:12Z</time>
      </trkpt>
      <trkpt lat="51.444188039749861" lon="-2.10911700502038">
        <ele>55.890000000000001</ele>
        <time>2026-07-11T14:26:13Z</time>
      </trkpt>
      <trkpt lat="51.444126013666391" lon="-2.108946014195681">
        <ele>55.409999999999997</ele>
        <time>2026-07-11T14:26:14Z</time>
      </trkpt>
      <trkpt lat="51.444064993411303" lon="-2.108719032257795">
        <ele>55.409999999999997</ele>
        <time>2026-07-11T14:26:15Z</time>
      </trkpt>
      <trkpt lat="51.444004978984594" lon="-2.108492972329259">
        <ele>55.409999999999997</ele>
        <time>2026-07-11T14:26:16Z</time>
      </trkpt>
      <trkpt lat="51.443540034815669" lon="-2.105930037796497">
        <ele>52.049999999999997</ele>
        <time>2026-07-11T14:26:26Z</time>
      </trkpt>
      <trkpt lat="51.442965036258101" lon="-2.102203024551272">
        <ele>53.009999999999998</ele>
        <time>2026-07-11T14:26:40Z</time>
      </trkpt>
      <trkpt lat="51.442809971049428" lon="-2.099652998149395">
        <ele>53.009999999999998</ele>
        <time>2026-07-11T14:26:49Z</time>
      </trkpt>
      <trkpt lat="51.443060003221035" lon="-2.098213993012905">
        <ele>53.490000000000002</ele>
        <time>2026-07-11T14:26:55Z</time>
      </trkpt>
      <trkpt lat="51.44313502125442" lon="-2.097959015518427">
        <ele>53.969999999999999</ele>
        <time>2026-07-11T14:26:57Z</time>
      </trkpt>
      <trkpt lat="51.443167962133884" lon="-2.097849966958165">
        <ele>54.450000000000003</ele>
        <time>2026-07-11T14:26:58Z</time>
      </trkpt>
      <trkpt lat="51.443224959075451" lon="-2.097659027203918">
        <ele>54.93</ele>
        <time>2026-07-11T14:27:00Z</time>
      </trkpt>
      <trkpt lat="51.443331995978951" lon="-2.097465991973877">
        <ele>55.409999999999997</ele>
        <time>2026-07-11T14:27:01Z</time>
      </trkpt>
      <trkpt lat="51.443366026505828" lon="-2.097388040274382">
        <ele>55.409999999999997</ele>
        <time>2026-07-11T14:27:02Z</time>
      </trkpt>
      <trkpt lat="51.443495023995638" lon="-2.097090985625982">
        <ele>55.890000000000001</ele>
        <time>2026-07-11T14:27:04Z</time>
      </trkpt>
      <trkpt lat="51.443568030372262" lon="-2.096925023943186">
        <ele>56.369999999999997</ele>
        <time>2026-07-11T14:27:05Z</time>
      </trkpt>
      <trkpt lat="51.443643970414996" lon="-2.096749003976584">
        <ele>56.859999999999999</ele>
        <time>2026-07-11T14:27:06Z</time>
      </trkpt>
      <trkpt lat="51.443732986226678" lon="-2.096578013151884">
        <ele>57.340000000000003</ele>
        <time>2026-07-11T14:27:07Z</time>
      </trkpt>
      <trkpt lat="51.443839017301798" lon="-2.096429988741875">
        <ele>57.82</ele>
        <time>2026-07-11T14:27:08Z</time>
      </trkpt>
      <trkpt lat="51.444648038595915" lon="-2.095486018806696">
        <ele>60.700000000000003</ele>
        <time>2026-07-11T14:27:15Z</time>
      </trkpt>
      <trkpt lat="51.446522986516356" lon="-2.094010971486569">
        <ele>68.390000000000001</ele>
        <time>2026-07-11T14:27:28Z</time>
      </trkpt>
      <trkpt lat="51.447567958384752" lon="-2.093144031241536">
        <ele>71.269999999999996</ele>
        <time>2026-07-11T14:27:36Z</time>
      </trkpt>
      <trkpt lat="51.447688993066549" lon="-2.093022996559739">
        <ele>71.760000000000005</ele>
        <time>2026-07-11T14:27:37Z</time>
      </trkpt>
      <trkpt lat="51.448271032422781" lon="-2.092185979709029">
        <ele>72.239999999999995</ele>
        <time>2026-07-11T14:27:44Z</time>
      </trkpt>
      <trkpt lat="51.44837899133563" lon="-2.092028986662626">
        <ele>71.760000000000005</ele>
        <time>2026-07-11T14:27:48Z</time>
      </trkpt>
      <trkpt lat="51.448416961356997" lon="-2.09197299554944">
        <ele>71.760000000000005</ele>
        <time>2026-07-11T14:27:49Z</time>
      </trkpt>
      <trkpt lat="51.448482004925609" lon="-2.091890014708042">
        <ele>71.760000000000005</ele>
        <time>2026-07-11T14:27:50Z</time>
      </trkpt>
      <trkpt lat="51.448482004925609" lon="-2.091794963926077">
        <ele>71.269999999999996</ele>
        <time>2026-07-11T14:27:51Z</time>
      </trkpt>
      <trkpt lat="51.448455015197396" lon="-2.09169102832675">
        <ele>70.790000000000006</ele>
        <time>2026-07-11T14:27:52Z</time>
      </trkpt>
      <trkpt lat="51.448419978842139" lon="-2.091575022786856">
        <ele>70.790000000000006</ele>
        <time>2026-07-11T14:27:53Z</time>
      </trkpt>
      <trkpt lat="51.448345966637135" lon="-2.091486006975174">
        <ele>70.790000000000006</ele>
        <time>2026-07-11T14:27:54Z</time>
      </trkpt>
      <trkpt lat="51.448182016611099" lon="-2.091251984238625">
        <ele>72.719999999999999</ele>
        <time>2026-07-11T14:27:56Z</time>
      </trkpt>
      <trkpt lat="51.447444995865226" lon="-2.089721029624343">
        <ele>73.680000000000007</ele>
        <time>2026-07-11T14:28:04Z</time>
      </trkpt>
      <trkpt lat="51.446262979879975" lon="-2.087146025151014">
        <ele>66.950000000000003</ele>
        <time>2026-07-11T14:28:15Z</time>
      </trkpt>
      <trkpt lat="51.445141984149814" lon="-2.084243958815932">
        <ele>63.100000000000001</ele>
        <time>2026-07-11T14:28:27Z</time>
      </trkpt>
      <trkpt lat="51.444664970040321" lon="-2.081886967644095">
        <ele>60.219999999999999</ele>
        <time>2026-07-11T14:28:36Z</time>
      </trkpt>
      <trkpt lat="51.444041021168232" lon="-2.079573981463909">
        <ele>62.140000000000001</ele>
        <time>2026-07-11T14:28:45Z</time>
      </trkpt>
      <trkpt lat="51.443419000133872" lon="-2.078487016260624">
        <ele>63.100000000000001</ele>
        <time>2026-07-11T14:28:50Z</time>
      </trkpt>
      <trkpt lat="51.44257896579802" lon="-2.077471967786551">
        <ele>64.549999999999997</ele>
        <time>2026-07-11T14:28:56Z</time>
      </trkpt>
      <trkpt lat="51.441508010029793" lon="-2.076369998976588">
        <ele>68.390000000000001</ele>
        <time>2026-07-11T14:29:04Z</time>
      </trkpt>
      <trkpt lat="51.439854009076953" lon="-2.075065020471811">
        <ele>71.269999999999996</ele>
        <time>2026-07-11T14:29:15Z</time>
      </trkpt>
      <trkpt lat="51.438927976414561" lon="-2.074384996667504">
        <ele>71.760000000000005</ele>
        <time>2026-07-11T14:29:21Z</time>
      </trkpt>
      <trkpt lat="51.438669981434941" lon="-2.074041003361344">
        <ele>72.239999999999995</ele>
        <time>2026-07-11T14:29:23Z</time>
      </trkpt>
      <trkpt lat="51.438550036400557" lon="-2.073860038071871">
        <ele>72.239999999999995</ele>
        <time>2026-07-11T14:29:24Z</time>
      </trkpt>
      <trkpt lat="51.438464038074017" lon="-2.073635989800096">
        <ele>72.719999999999999</ele>
        <time>2026-07-11T14:29:25Z</time>
      </trkpt>
      <trkpt lat="51.438378039747477" lon="-2.073414037004113">
        <ele>72.719999999999999</ele>
        <time>2026-07-11T14:29:26Z</time>
      </trkpt>
      <trkpt lat="51.438298998400569" lon="-2.073199963197112">
        <ele>72.719999999999999</ele>
        <time>2026-07-11T14:29:27Z</time>
      </trkpt>
      <trkpt lat="51.43823797814548" lon="-2.072983039543033">
        <ele>72.719999999999999</ele>
        <time>2026-07-11T14:29:28Z</time>
      </trkpt>
      <trkpt lat="51.438075033947825" lon="-2.072403011843562">
        <ele>73.200000000000003</ele>
        <time>2026-07-11T14:29:31Z</time>
      </trkpt>
      <trkpt lat="51.438055001199245" lon="-2.072221962735057">
        <ele>73.200000000000003</ele>
        <time>2026-07-11T14:29:32Z</time>
      </trkpt>
      <trkpt lat="51.437996998429298" lon="-2.071966985240579">
        <ele>72.719999999999999</ele>
        <time>2026-07-11T14:29:35Z</time>
      </trkpt>
      <trkpt lat="51.437961962074041" lon="-2.071916023269296">
        <ele>72.719999999999999</ele>
        <time>2026-07-11T14:29:36Z</time>
      </trkpt>
      <trkpt lat="51.437919968739152" lon="-2.071856008842588">
        <ele>72.719999999999999</ele>
        <time>2026-07-11T14:29:37Z</time>
      </trkpt>
      <trkpt lat="51.43763498403132" lon="-2.071438003331423">
        <ele>72.719999999999999</ele>
        <time>2026-07-11T14:29:42Z</time>
      </trkpt>
      <trkpt lat="51.43709602765739" lon="-2.070140987634659">
        <ele>78</ele>
        <time>2026-07-11T14:29:50Z</time>
      </trkpt>
      <trkpt lat="51.436532009392977" lon="-2.068644985556603">
        <ele>87.140000000000001</ele>
        <time>2026-07-11T14:29:57Z</time>
      </trkpt>
      <trkpt lat="51.436446011066437" lon="-2.068416997790337">
        <ele>88.099999999999994</ele>
        <time>2026-07-11T14:29:58Z</time>
      </trkpt>
      <trkpt lat="51.436396976932883" lon="-2.068191021680832">
        <ele>89.540000000000006</ele>
        <time>2026-07-11T14:29:59Z</time>
      </trkpt>
      <trkpt lat="51.436353977769613" lon="-2.067964961752296">
        <ele>90.5</ele>
        <time>2026-07-11T14:30:00Z</time>
      </trkpt>
      <trkpt lat="51.436331011354923" lon="-2.067721970379353">
        <ele>91.939999999999998</ele>
        <time>2026-07-11T14:30:01Z</time>
      </trkpt>
      <trkpt lat="51.436307039111853" lon="-2.067470010370016">
        <ele>93.390000000000001</ele>
        <time>2026-07-11T14:30:02Z</time>
      </trkpt>
      <trkpt lat="51.43628197722137" lon="-2.067212015390396">
        <ele>94.829999999999998</ele>
        <time>2026-07-11T14:30:03Z</time>
      </trkpt>
      <trkpt lat="51.436256999149919" lon="-2.066957959905267">
        <ele>96.75</ele>
        <time>2026-07-11T14:30:04Z</time>
      </trkpt>
      <trkpt lat="51.436206037178636" lon="-2.066742964088917">
        <ele>98.189999999999998</ele>
        <time>2026-07-11T14:30:05Z</time>
      </trkpt>
      <trkpt lat="51.436151973903179" lon="-2.066565016284585">
        <ele>99.629999999999995</ele>
        <time>2026-07-11T14:30:06Z</time>
      </trkpt>
      <trkpt lat="51.436104029417038" lon="-2.066408023238182">
        <ele>101.56</ele>
        <time>2026-07-11T14:30:07Z</time>
      </trkpt>
      <trkpt lat="51.436032028868794" lon="-2.066285982728005">
        <ele>103</ele>
        <time>2026-07-11T14:30:08Z</time>
      </trkpt>
      <trkpt lat="51.435947958379984" lon="-2.066152039915323">
        <ele>104.44</ele>
        <time>2026-07-11T14:30:09Z</time>
      </trkpt>
      <trkpt lat="51.435559038072824" lon="-2.065532030537725">
        <ele>112.13</ele>
        <time>2026-07-11T14:30:13Z</time>
      </trkpt>
      <trkpt lat="51.435096021741629" lon="-2.064855024218559">
        <ele>121.73999999999999</ele>
        <time>2026-07-11T14:30:17Z</time>
      </trkpt>
      <trkpt lat="51.434966018423438" lon="-2.064731977880001">
        <ele>124.63</ele>
        <time>2026-07-11T14:30:18Z</time>
      </trkpt>
      <trkpt lat="51.433891961351037" lon="-2.064000992104411">
        <ele>137.61000000000001</ele>
        <time>2026-07-11T14:30:25Z</time>
      </trkpt>
      <trkpt lat="51.432749005034566" lon="-2.063529007136822">
        <ele>141.44999999999999</ele>
        <time>2026-07-11T14:30:33Z</time>
      </trkpt>
      <trkpt lat="51.431573024019599" lon="-2.063121981918812">
        <ele>136.63999999999999</ele>
        <time>2026-07-11T14:30:40Z</time>
      </trkpt>
      <trkpt lat="51.431053010746837" lon="-2.063020979985595">
        <ele>135.19999999999999</ele>
        <time>2026-07-11T14:30:43Z</time>
      </trkpt>
      <trkpt lat="51.430508019402623" lon="-2.062977980822325">
        <ele>135.68000000000001</ele>
        <time>2026-07-11T14:30:46Z</time>
      </trkpt>
      <trkpt lat="51.430326970294118" lon="-2.062963983044028">
        <ele>136.16</ele>
        <time>2026-07-11T14:30:47Z</time>
      </trkpt>
      <trkpt lat="51.428511030972004" lon="-2.062787963077426">
        <ele>140.49000000000001</ele>
        <time>2026-07-11T14:30:57Z</time>
      </trkpt>
      <trkpt lat="51.426776982843876" lon="-2.062727026641369">
        <ele>149.13999999999999</ele>
        <time>2026-07-11T14:31:06Z</time>
      </trkpt>
      <trkpt lat="51.424212958663702" lon="-2.062715962529182">
        <ele>163.08000000000001</ele>
        <time>2026-07-11T14:31:18Z</time>
      </trkpt>
      <trkpt lat="51.423398992046714" lon="-2.062715040519834">
        <ele>165.47999999999999</ele>
        <time>2026-07-11T14:31:22Z</time>
      </trkpt>
      <trkpt lat="51.423216015100479" lon="-2.062657037749887">
        <ele>165.47999999999999</ele>
        <time>2026-07-11T14:31:23Z</time>
      </trkpt>
      <trkpt lat="51.423028009012341" lon="-2.06257900223136">
        <ele>165.96000000000001</ele>
        <time>2026-07-11T14:31:24Z</time>
      </trkpt>
      <trkpt lat="51.421373002231121" lon="-2.061626985669136">
        <ele>169.81</ele>
        <time>2026-07-11T14:31:32Z</time>
      </trkpt>
      <trkpt lat="51.419949000701308" lon="-2.060789968818426">
        <ele>172.69</ele>
        <time>2026-07-11T14:31:39Z</time>
      </trkpt>
      <trkpt lat="51.418596999719739" lon="-2.059919005259872">
        <ele>176.06</ele>
        <time>2026-07-11T14:31:46Z</time>
      </trkpt>
      <trkpt lat="51.41675197519362" lon="-2.058505984023213">
        <ele>180.87</ele>
        <time>2026-07-11T14:31:56Z</time>
      </trkpt>
      <trkpt lat="51.414983980357647" lon="-2.056875033304095">
        <ele>182.31</ele>
        <time>2026-07-11T14:32:07Z</time>
      </trkpt>
      <trkpt lat="51.414107987657189" lon="-2.055524038150907">
        <ele>176.06</ele>
        <time>2026-07-11T14:32:15Z</time>
      </trkpt>
      <trkpt lat="51.413219003006816" lon="-2.053818991407752">
        <ele>168.37</ele>
        <time>2026-07-11T14:32:27Z</time>
      </trkpt>
      <trkpt lat="51.413093023002148" lon="-2.05351497977972">
        <ele>166.93000000000001</ele>
        <time>2026-07-11T14:32:29Z</time>
      </trkpt>
      <trkpt lat="51.41290501691401" lon="-2.052897987887263">
        <ele>163.56</ele>
        <time>2026-07-11T14:32:33Z</time>
      </trkpt>
      <trkpt lat="51.412826981395483" lon="-2.052784999832511">
        <ele>163.08000000000001</ele>
        <time>2026-07-11T14:32:34Z</time>
      </trkpt>
      <trkpt lat="51.412754980847239" lon="-2.052680980414152">
        <ele>162.59999999999999</ele>
        <time>2026-07-11T14:32:35Z</time>
      </trkpt>
      <trkpt lat="51.4126689825207" lon="-2.052555000409484">
        <ele>162.12</ele>
        <time>2026-07-11T14:32:36Z</time>
      </trkpt>
      <trkpt lat="51.412599999457598" lon="-2.052489034831524">
        <ele>161.16</ele>
        <time>2026-07-11T14:32:37Z</time>
      </trkpt>
      <trkpt lat="51.412514001131058" lon="-2.052406975999475">
        <ele>161.16</ele>
        <time>2026-07-11T14:32:38Z</time>
      </trkpt>
      <trkpt lat="51.412058025598526" lon="-2.051969021558762">
        <ele>161.63999999999999</ele>
        <time>2026-07-11T14:32:43Z</time>
      </trkpt>
      <trkpt lat="51.41195802949369" lon="-2.051871959120035">
        <ele>161.63999999999999</ele>
        <time>2026-07-11T14:32:44Z</time>
      </trkpt>
      <trkpt lat="51.411239029839635" lon="-2.051255973055959">
        <ele>160.68000000000001</ele>
        <time>2026-07-11T14:32:51Z</time>
      </trkpt>
      <trkpt lat="51.411126963794231" lon="-2.051178021356463">
        <ele>160.68000000000001</ele>
        <time>2026-07-11T14:32:52Z</time>
      </trkpt>
      <trkpt lat="51.409793989732862" lon="-2.050769990310073">
        <ele>156.83000000000001</ele>
        <time>2026-07-11T14:33:03Z</time>
      </trkpt>
      <trkpt lat="51.409113965928555" lon="-2.050604028627276">
        <ele>154.91</ele>
        <time>2026-07-11T14:33:09Z</time>
      </trkpt>
      <trkpt lat="51.409008018672466" lon="-2.050622971728444">
        <ele>154.91</ele>
        <time>2026-07-11T14:33:10Z</time>
      </trkpt>
      <trkpt lat="51.408895030617714" lon="-2.050647027790546">
        <ele>154.43000000000001</ele>
        <time>2026-07-11T14:33:11Z</time>
      </trkpt>
      <trkpt lat="51.408291030675173" lon="-2.050749035552144">
        <ele>153.47</ele>
        <time>2026-07-11T14:33:16Z</time>
      </trkpt>
      <trkpt lat="51.408169995993376" lon="-2.050765966996551">
        <ele>152.99000000000001</ele>
        <time>2026-07-11T14:33:17Z</time>
      </trkpt>
      <trkpt lat="51.407484021037817" lon="-2.050855988636613">
        <ele>151.53999999999999</ele>
        <time>2026-07-11T14:33:22Z</time>
      </trkpt>
      <trkpt lat="51.406990997493267" lon="-2.050881972536445">
        <ele>150.09999999999999</ele>
        <time>2026-07-11T14:33:25Z</time>
      </trkpt>
      <trkpt lat="51.406830986961722" lon="-2.050858000293374">
        <ele>149.62</ele>
        <time>2026-07-11T14:33:26Z</time>
      </trkpt>
      <trkpt lat="51.406671982258558" lon="-2.050821958109736">
        <ele>149.62</ele>
        <time>2026-07-11T14:33:27Z</time>
      </trkpt>
      <trkpt lat="51.40542802400887" lon="-2.050175964832306">
        <ele>144.81999999999999</ele>
        <time>2026-07-11T14:33:34Z</time>
      </trkpt>
      <trkpt lat="51.405045976862311" lon="-2.049975972622633">
        <ele>142.88999999999999</ele>
        <time>2026-07-11T14:33:36Z</time>
      </trkpt>
      <trkpt lat="51.403793971985579" lon="-2.04897802323103">
        <ele>134.24000000000001</ele>
        <time>2026-07-11T14:33:43Z</time>
      </trkpt>
      <trkpt lat="51.402854025363922" lon="-2.047760970890522">
        <ele>127.51000000000001</ele>
        <time>2026-07-11T14:33:49Z</time>
      </trkpt>
      <trkpt lat="51.402536015957594" lon="-2.047495013102889">
        <ele>125.59</ele>
        <time>2026-07-11T14:33:51Z</time>
      </trkpt>
      <trkpt lat="51.402364019304514" lon="-2.047400968149304">
        <ele>125.11</ele>
        <time>2026-07-11T14:33:52Z</time>
      </trkpt>
      <trkpt lat="51.400687973946333" lon="-2.046668976545334">
        <ele>119.34</ele>
        <time>2026-07-11T14:34:00Z</time>
      </trkpt>
      <trkpt lat="51.398224029690027" lon="-2.045717965811491">
        <ele>109.73</ele>
        <time>2026-07-11T14:34:11Z</time>
      </trkpt>
      <trkpt lat="51.395532013848424" lon="-2.044763015583158">
        <ele>107.31999999999999</ele>
        <time>2026-07-11T14:34:23Z</time>
      </trkpt>
      <trkpt lat="51.393528990447521" lon="-2.043970003724098">
        <ele>103.48</ele>
        <time>2026-07-11T14:34:32Z</time>
      </trkpt>
      <trkpt lat="51.393325980752707" lon="-2.043814016506076">
        <ele>103</ele>
        <time>2026-07-11T14:34:33Z</time>
      </trkpt>
      <trkpt lat="51.392975030466914" lon="-2.043498018756509">
        <ele>103</ele>
        <time>2026-07-11T14:34:35Z</time>
      </trkpt>
      <trkpt lat="51.392832035198808" lon="-2.043309006839991">
        <ele>103.48</ele>
        <time>2026-07-11T14:34:36Z</time>
      </trkpt>
      <trkpt lat="51.392690967768431" lon="-2.04309300519526">
        <ele>103.48</ele>
        <time>2026-07-11T14:34:37Z</time>
      </trkpt>
      <trkpt lat="51.391674997285008" lon="-2.041367003694177">
        <ele>101.56</ele>
        <time>2026-07-11T14:34:44Z</time>
      </trkpt>
      <trkpt lat="51.391495037823915" lon="-2.041172962635756">
        <ele>101.08</ele>
        <time>2026-07-11T14:34:45Z</time>
      </trkpt>
      <trkpt lat="51.391285993158817" lon="-2.041048994287849">
        <ele>100.11</ele>
        <time>2026-07-11T14:34:46Z</time>
      </trkpt>
      <trkpt lat="51.39107502065599" lon="-2.040925025939941">
        <ele>99.629999999999995</ele>
        <time>2026-07-11T14:34:47Z</time>
      </trkpt>
      <trkpt lat="51.390849966555834" lon="-2.04085897654295">
        <ele>99.150000000000006</ele>
        <time>2026-07-11T14:34:48Z</time>
      </trkpt>
      <trkpt lat="51.390615021809936" lon="-2.040802985429764">
        <ele>98.670000000000002</ele>
        <time>2026-07-11T14:34:49Z</time>
      </trkpt>
      <trkpt lat="51.390374964103103" lon="-2.040745988488197">
        <ele>98.189999999999998</ele>
        <time>2026-07-11T14:34:50Z</time>
      </trkpt>
      <trkpt lat="51.387812029570341" lon="-2.040067976340652">
        <ele>97.709999999999994</ele>
        <time>2026-07-11T14:35:01Z</time>
      </trkpt>
      <trkpt lat="51.385068967938423" lon="-2.039559027180076">
        <ele>93.390000000000001</ele>
        <time>2026-07-11T14:35:13Z</time>
      </trkpt>
      <trkpt lat="51.384851960465312" lon="-2.03944000415504">
        <ele>92.420000000000002</ele>
        <time>2026-07-11T14:35:14Z</time>
      </trkpt>
      <trkpt lat="51.384637970477343" lon="-2.039307989180088">
        <ele>91.939999999999998</ele>
        <time>2026-07-11T14:35:15Z</time>
      </trkpt>
      <trkpt lat="51.384425992146134" lon="-2.039175974205136">
        <ele>91.459999999999994</ele>
        <time>2026-07-11T14:35:16Z</time>
      </trkpt>
      <trkpt lat="51.382824964821339" lon="-2.037749039009213">
        <ele>88.099999999999994</ele>
        <time>2026-07-11T14:35:24Z</time>
      </trkpt>
      <trkpt lat="51.381035009399056" lon="-2.036098977550864">
        <ele>83.290000000000006</ele>
        <time>2026-07-11T14:35:33Z</time>
      </trkpt>
      <trkpt lat="51.380344005301595" lon="-2.03516498208046">
        <ele>80.409999999999997</ele>
        <time>2026-07-11T14:35:38Z</time>
      </trkpt>
      <trkpt lat="51.379930023103952" lon="-2.034655027091503">
        <ele>81.370000000000005</ele>
        <time>2026-07-11T14:35:42Z</time>
      </trkpt>
      <trkpt lat="51.379836983978748" lon="-2.034553019329906">
        <ele>81.849999999999994</ele>
        <time>2026-07-11T14:35:43Z</time>
      </trkpt>
      <trkpt lat="51.37958200648427" lon="-2.034313967451453">
        <ele>82.810000000000002</ele>
        <time>2026-07-11T14:35:46Z</time>
      </trkpt>
      <trkpt lat="51.379331974312663" lon="-2.034079022705555">
        <ele>83.290000000000006</ele>
        <time>2026-07-11T14:35:49Z</time>
      </trkpt>
      <trkpt lat="51.378304017707705" lon="-2.033470999449492">
        <ele>83.290000000000006</ele>
        <time>2026-07-11T14:35:59Z</time>
      </trkpt>
      <trkpt lat="51.377098029479384" lon="-2.033027010038495">
        <ele>81.849999999999994</ele>
        <time>2026-07-11T14:36:07Z</time>
      </trkpt>
      <trkpt lat="51.375010013580322" lon="-2.032314967364073">
        <ele>78.969999999999999</ele>
        <time>2026-07-11T14:36:20Z</time>
      </trkpt>
      <trkpt lat="51.374869029968977" lon="-2.032271968200803">
        <ele>78.969999999999999</ele>
        <time>2026-07-11T14:36:21Z</time>
      </trkpt>
      <trkpt lat="51.374479020014405" lon="-2.032215977087617">
        <ele>78.969999999999999</ele>
        <time>2026-07-11T14:36:24Z</time>
      </trkpt>
      <trkpt lat="51.374113988131285" lon="-2.032321002334356">
        <ele>78</ele>
        <time>2026-07-11T14:36:27Z</time>
      </trkpt>
      <trkpt lat="51.373997982591391" lon="-2.032405994832516">
        <ele>77.519999999999996</ele>
        <time>2026-07-11T14:36:28Z</time>
      </trkpt>
      <trkpt lat="51.373892035335302" lon="-2.032512025907636">
        <ele>77.519999999999996</ele>
        <time>2026-07-11T14:36:29Z</time>
      </trkpt>
      <trkpt lat="51.373792039230466" lon="-2.032646974548698">
        <ele>77.040000000000006</ele>
        <time>2026-07-11T14:36:30Z</time>
      </trkpt>
      <trkpt lat="51.373691037297249" lon="-2.032784018665552">
        <ele>76.560000000000002</ele>
        <time>2026-07-11T14:36:31Z</time>
      </trkpt>
      <trkpt lat="51.372292013838887" lon="-2.034616973251104">
        <ele>75.120000000000005</ele>
        <time>2026-07-11T14:36:45Z</time>
      </trkpt>
      <trkpt lat="51.37150302529335" lon="-2.035617018118501">
        <ele>72.719999999999999</ele>
        <time>2026-07-11T14:36:53Z</time>
      </trkpt>
      <trkpt lat="51.370934983715415" lon="-2.036252031102777">
        <ele>69.349999999999994</ele>
        <time>2026-07-11T14:36:58Z</time>
      </trkpt>
      <trkpt lat="51.37081797234714" lon="-2.036357978358865">
        <ele>68.390000000000001</ele>
        <time>2026-07-11T14:36:59Z</time>
      </trkpt>
      <trkpt lat="51.370684029534459" lon="-2.036417992785573">
        <ele>67.909999999999997</ele>
        <time>2026-07-11T14:37:00Z</time>
      </trkpt>
      <trkpt lat="51.369447028264403" lon="-2.036915039643645">
        <ele>64.069999999999993</ele>
        <time>2026-07-11T14:37:09Z</time>
      </trkpt>
      <trkpt lat="51.369326999410987" lon="-2.0369260199368">
        <ele>64.069999999999993</ele>
        <time>2026-07-11T14:37:10Z</time>
      </trkpt>
      <trkpt lat="51.369208982214332" lon="-2.036917973309755">
        <ele>63.579999999999998</ele>
        <time>2026-07-11T14:37:11Z</time>
      </trkpt>
      <trkpt lat="51.36909699998796" lon="-2.036857958883047">
        <ele>63.579999999999998</ele>
        <time>2026-07-11T14:37:12Z</time>
      </trkpt>
      <trkpt lat="51.368960039690137" lon="-2.036784030497074">
        <ele>63.579999999999998</ele>
        <time>2026-07-11T14:37:13Z</time>
      </trkpt>
      <trkpt lat="51.36885903775692" lon="-2.036704989150167">
        <ele>63.579999999999998</ele>
        <time>2026-07-11T14:37:14Z</time>
      </trkpt>
      <trkpt lat="51.368735991418362" lon="-2.036609016358852">
        <ele>63.100000000000001</ele>
        <time>2026-07-11T14:37:15Z</time>
      </trkpt>
      <trkpt lat="51.368605988100171" lon="-2.036507008597255">
        <ele>62.619999999999997</ele>
        <time>2026-07-11T14:37:16Z</time>
      </trkpt>
      <trkpt lat="51.368468021973968" lon="-2.036397960036993">
        <ele>61.659999999999997</ele>
        <time>2026-07-11T14:37:17Z</time>
      </trkpt>
      <trkpt lat="51.367467977106571" lon="-2.035602014511824">
        <ele>57.82</ele>
        <time>2026-07-11T14:37:24Z</time>
      </trkpt>
      <trkpt lat="51.367310984060168" lon="-2.035482991486788">
        <ele>57.82</ele>
        <time>2026-07-11T14:37:25Z</time>
      </trkpt>
      <trkpt lat="51.36686397716403" lon="-2.035166993737221">
        <ele>57.82</ele>
        <time>2026-07-11T14:37:28Z</time>
      </trkpt>
      <trkpt lat="51.366606988012791" lon="-2.035044031217694">
        <ele>58.299999999999997</ele>
        <time>2026-07-11T14:37:30Z</time>
      </trkpt>
      <trkpt lat="51.365909026935697" lon="-2.034665001556277">
        <ele>61.18</ele>
        <time>2026-07-11T14:37:36Z</time>
      </trkpt>
      <trkpt lat="51.365822022780776" lon="-2.034561987966299">
        <ele>62.140000000000001</ele>
        <time>2026-07-11T14:37:37Z</time>
      </trkpt>
      <trkpt lat="51.365733006969094" lon="-2.034452017396689">
        <ele>63.100000000000001</ele>
        <time>2026-07-11T14:37:38Z</time>
      </trkpt>
      <trkpt lat="51.365515999495983" lon="-2.033996041864157">
        <ele>64.069999999999993</ele>
        <time>2026-07-11T14:37:41Z</time>
      </trkpt>
      <trkpt lat="51.36514300480485" lon="-2.033034972846508">
        <ele>63.100000000000001</ele>
        <time>2026-07-11T14:37:47Z</time>
      </trkpt>
      <trkpt lat="51.365072010084987" lon="-2.032986022531986">
        <ele>63.100000000000001</ele>
        <time>2026-07-11T14:37:48Z</time>
      </trkpt>
      <trkpt lat="51.36499397456646" lon="-2.032936988398433">
        <ele>63.100000000000001</ele>
        <time>2026-07-11T14:37:49Z</time>
      </trkpt>
      <trkpt lat="51.364916022866964" lon="-2.032937994226813">
        <ele>63.100000000000001</ele>
        <time>2026-07-11T14:37:50Z</time>
      </trkpt>
      <trkpt lat="51.36482197791338" lon="-2.032966995611787">
        <ele>63.100000000000001</ele>
        <time>2026-07-11T14:37:51Z</time>
      </trkpt>
      <trkpt lat="51.364719970151782" lon="-2.032999014481902">
        <ele>62.619999999999997</ele>
        <time>2026-07-11T14:37:52Z</time>
      </trkpt>
      <trkpt lat="51.364611005410552" lon="-2.033032961189747">
        <ele>63.100000000000001</ele>
        <time>2026-07-11T14:37:53Z</time>
      </trkpt>
      <trkpt lat="51.364388968795538" lon="-2.03310202807188">
        <ele>64.069999999999993</ele>
        <time>2026-07-11T14:37:55Z</time>
      </trkpt>
      <trkpt lat="51.36415402404964" lon="-2.033159025013447">
        <ele>64.549999999999997</ele>
        <time>2026-07-11T14:37:57Z</time>
      </trkpt>
      <trkpt lat="51.364045981317759" lon="-2.033178973942995">
        <ele>65.030000000000001</ele>
        <time>2026-07-11T14:37:58Z</time>
      </trkpt>
      <trkpt lat="51.363928969949484" lon="-2.033136980608106">
        <ele>65.510000000000005</ele>
        <time>2026-07-11T14:37:59Z</time>
      </trkpt>
      <trkpt lat="51.363825034350157" lon="-2.033099010586739">
        <ele>65.510000000000005</ele>
        <time>2026-07-11T14:38:00Z</time>
      </trkpt>
      <trkpt lat="51.363745993003249" lon="-2.03301896341145">
        <ele>65.989999999999995</ele>
        <time>2026-07-11T14:38:01Z</time>
      </trkpt>
      <trkpt lat="51.36368103325367" lon="-2.032943023368716">
        <ele>65.989999999999995</ele>
        <time>2026-07-11T14:38:02Z</time>
      </trkpt>
      <trkpt lat="51.363653037697077" lon="-2.032792987301946">
        <ele>66.469999999999999</ele>
        <time>2026-07-11T14:38:03Z</time>
      </trkpt>
      <trkpt lat="51.363627975806594" lon="-2.032653009518981">
        <ele>66.950000000000003</ele>
        <time>2026-07-11T14:38:04Z</time>
      </trkpt>
      <trkpt lat="51.363600986078382" lon="-2.032510014250875">
        <ele>67.430000000000007</ele>
        <time>2026-07-11T14:38:05Z</time>
      </trkpt>
      <trkpt lat="51.363364029675722" lon="-2.030855007469654">
        <ele>70.310000000000002</ele>
        <time>2026-07-11T14:38:16Z</time>
      </trkpt>
      <trkpt lat="51.363224973902106" lon="-2.030041040852666">
        <ele>70.310000000000002</ele>
        <time>2026-07-11T14:38:21Z</time>
      </trkpt>
      <trkpt lat="51.363184992223978" lon="-2.029876001179218">
        <ele>70.310000000000002</ele>
        <time>2026-07-11T14:38:22Z</time>
      </trkpt>
      <trkpt lat="51.363061023876071" lon="-2.029371997341514">
        <ele>70.310000000000002</ele>
        <time>2026-07-11T14:38:25Z</time>
      </trkpt>
      <trkpt lat="51.362635977566242" lon="-2.02762202359736">
        <ele>68.390000000000001</ele>
        <time>2026-07-11T14:38:35Z</time>
      </trkpt>
      <trkpt lat="51.362601025030017" lon="-2.027439968660474">
        <ele>68.390000000000001</ele>
        <time>2026-07-11T14:38:36Z</time>
      </trkpt>
      <trkpt lat="51.362431040033698" lon="-2.025400986894965">
        <ele>69.349999999999994</ele>
        <time>2026-07-11T14:38:47Z</time>
      </trkpt>
      <trkpt lat="51.362375970929861" lon="-2.022951962426305">
        <ele>70.310000000000002</ele>
        <time>2026-07-11T14:38:58Z</time>
      </trkpt>
      <trkpt lat="51.362556014209986" lon="-2.021317994222045">
        <ele>70.790000000000006</ele>
        <time>2026-07-11T14:39:06Z</time>
      </trkpt>
      <trkpt lat="51.362624997273088" lon="-2.019744040444493">
        <ele>72.239999999999995</ele>
        <time>2026-07-11T14:39:15Z</time>
      </trkpt>
      <trkpt lat="51.362594990059733" lon="-2.019576989114285">
        <ele>72.239999999999995</ele>
        <time>2026-07-11T14:39:16Z</time>
      </trkpt>
      <trkpt lat="51.362534975633025" lon="-2.019440028816462">
        <ele>72.239999999999995</ele>
        <time>2026-07-11T14:39:17Z</time>
      </trkpt>
      <trkpt lat="51.362460041418672" lon="-2.01930901966989">
        <ele>71.760000000000005</ele>
        <time>2026-07-11T14:39:18Z</time>
      </trkpt>
      <trkpt lat="51.362385023385286" lon="-2.019174993038178">
        <ele>71.760000000000005</ele>
        <time>2026-07-11T14:39:19Z</time>
      </trkpt>
      <trkpt lat="51.36230799369514" lon="-2.019038032740355">
        <ele>71.269999999999996</ele>
        <time>2026-07-11T14:39:20Z</time>
      </trkpt>
      <trkpt lat="51.361449016258121" lon="-2.017789967358112">
        <ele>71.269999999999996</ele>
        <time>2026-07-11T14:39:30Z</time>
      </trkpt>
      <trkpt lat="51.360423993319273" lon="-2.016210984438658">
        <ele>71.269999999999996</ele>
        <time>2026-07-11T14:39:40Z</time>
      </trkpt>
      <trkpt lat="51.359281037002802" lon="-2.014500992372632">
        <ele>71.269999999999996</ele>
        <time>2026-07-11T14:39:50Z</time>
      </trkpt>
      <trkpt lat="51.358232041820884" lon="-2.012999961152673">
        <ele>70.790000000000006</ele>
        <time>2026-07-11T14:39:59Z</time>
      </trkpt>
      <trkpt lat="51.356854978948832" lon="-2.010649004951119">
        <ele>75.599999999999994</ele>
        <time>2026-07-11T14:40:11Z</time>
      </trkpt>
      <trkpt lat="51.356016034260392" lon="-2.009810982272029">
        <ele>78.480000000000004</ele>
        <time>2026-07-11T14:40:19Z</time>
      </trkpt>
      <trkpt lat="51.355596017092466" lon="-2.009589029476047">
        <ele>81.370000000000005</ele>
        <time>2026-07-11T14:40:23Z</time>
      </trkpt>
      <trkpt lat="51.355495015159249" lon="-2.00949196703732">
        <ele>82.329999999999998</ele>
        <time>2026-07-11T14:40:24Z</time>
      </trkpt>
      <trkpt lat="51.354555990546942" lon="-2.008248008787632">
        <ele>99.629999999999995</ele>
        <time>2026-07-11T14:40:34Z</time>
      </trkpt>
      <trkpt lat="51.354511985555291" lon="-2.008109958842397">
        <ele>101.56</ele>
        <time>2026-07-11T14:40:35Z</time>
      </trkpt>
      <trkpt lat="51.354474015533924" lon="-2.007992025464773">
        <ele>103</ele>
        <time>2026-07-11T14:40:36Z</time>
      </trkpt>
      <trkpt lat="51.354439985007048" lon="-2.007884988561273">
        <ele>104.92</ele>
        <time>2026-07-11T14:40:37Z</time>
      </trkpt>
      <trkpt lat="51.354408971965313" lon="-2.007753979414702">
        <ele>105.88</ele>
        <time>2026-07-11T14:40:38Z</time>
      </trkpt>
      <trkpt lat="51.3544010091573" lon="-2.00762003660202">
        <ele>107.31999999999999</ele>
        <time>2026-07-11T14:40:39Z</time>
      </trkpt>
      <trkpt lat="51.354392962530255" lon="-2.007479975000024">
        <ele>108.29000000000001</ele>
        <time>2026-07-11T14:40:40Z</time>
      </trkpt>
      <trkpt lat="51.354386005550623" lon="-2.007345026358962">
        <ele>108.77</ele>
        <time>2026-07-11T14:40:41Z</time>
      </trkpt>
      <trkpt lat="51.354377036914229" lon="-2.007202031090856">
        <ele>109.73</ele>
        <time>2026-07-11T14:40:42Z</time>
      </trkpt>
      <trkpt lat="51.354367984458804" lon="-2.007043026387692">
        <ele>110.69</ele>
        <time>2026-07-11T14:40:43Z</time>
      </trkpt>
      <trkpt lat="51.354437973350286" lon="-2.006293013691902">
        <ele>115.98</ele>
        <time>2026-07-11T14:40:47Z</time>
      </trkpt>
      <trkpt lat="51.354453982785344" lon="-2.006122022867203">
        <ele>117.42</ele>
        <time>2026-07-11T14:40:48Z</time>
      </trkpt>
      <trkpt lat="51.354467980563641" lon="-2.005970980972052">
        <ele>119.34</ele>
        <time>2026-07-11T14:40:49Z</time>
      </trkpt>
      <trkpt lat="51.354480972513556" lon="-2.00583603233099">
        <ele>121.26000000000001</ele>
        <time>2026-07-11T14:40:50Z</time>
      </trkpt>
      <trkpt lat="51.354492036625743" lon="-2.005710974335671">
        <ele>123.19</ele>
        <time>2026-07-11T14:40:51Z</time>
      </trkpt>
      <trkpt lat="51.354504022747278" lon="-2.005590023472905">
        <ele>125.11</ele>
        <time>2026-07-11T14:40:52Z</time>
      </trkpt>
      <trkpt lat="51.354513997212052" lon="-2.005473012104631">
        <ele>126.55</ele>
        <time>2026-07-11T14:40:53Z</time>
      </trkpt>
      <trkpt lat="51.354524977505207" lon="-2.005362035706639">
        <ele>127.98999999999999</ele>
        <time>2026-07-11T14:40:54Z</time>
      </trkpt>
      <trkpt lat="51.354533024132252" lon="-2.005272014066577">
        <ele>129.43000000000001</ele>
        <time>2026-07-11T14:40:55Z</time>
      </trkpt>
      <trkpt lat="51.354539981111884" lon="-2.005198001861572">
        <ele>130.88</ele>
        <time>2026-07-11T14:40:56Z</time>
      </trkpt>
      <trkpt lat="51.354548027738929" lon="-2.005136981606484">
        <ele>132.80000000000001</ele>
        <time>2026-07-11T14:40:57Z</time>
      </trkpt>
      <trkpt lat="51.354553978890181" lon="-2.005081996321678">
        <ele>133.75999999999999</ele>
        <time>2026-07-11T14:40:58Z</time>
      </trkpt>
      <trkpt lat="51.354590021073818" lon="-2.004790976643562">
        <ele>137.61000000000001</ele>
        <time>2026-07-11T14:41:02Z</time>
      </trkpt>
      <trkpt lat="51.354608964174986" lon="-2.004629038274288">
        <ele>139.53</ele>
        <time>2026-07-11T14:41:04Z</time>
      </trkpt>
      <trkpt lat="51.354567976668477" lon="-2.004541028290987">
        <ele>140.49000000000001</ele>
        <time>2026-07-11T14:41:05Z</time>
      </trkpt>
      <trkpt lat="51.354623967781663" lon="-2.004508003592491">
        <ele>141.44999999999999</ele>
        <time>2026-07-11T14:41:06Z</time>
      </trkpt>
      <trkpt lat="51.354588009417057" lon="-2.004442038014531">
        <ele>141.93000000000001</ele>
        <time>2026-07-11T14:41:07Z</time>
      </trkpt>
      <trkpt lat="51.354604018852115" lon="-2.004360985010862">
        <ele>142.88999999999999</ele>
        <time>2026-07-11T14:41:08Z</time>
      </trkpt>
      <trkpt lat="51.354695968329906" lon="-2.004063008353114">
        <ele>145.78</ele>
        <time>2026-07-11T14:41:11Z</time>
      </trkpt>
      <trkpt lat="51.354837035760283" lon="-2.00345297344029">
        <ele>147.69999999999999</ele>
        <time>2026-07-11T14:41:15Z</time>
      </trkpt>
      <trkpt lat="51.354856984689832" lon="-2.003274019807577">
        <ele>148.18000000000001</ele>
        <time>2026-07-11T14:41:16Z</time>
      </trkpt>
      <trkpt lat="51.354834018275142" lon="-2.003115015104413">
        <ele>148.66</ele>
        <time>2026-07-11T14:41:17Z</time>
      </trkpt>
      <trkpt lat="51.35478800162673" lon="-2.002819972112775">
        <ele>149.13999999999999</ele>
        <time>2026-07-11T14:41:19Z</time>
      </trkpt>
      <trkpt lat="51.354406038299203" lon="-2.001235038042069">
        <ele>143.37</ele>
        <time>2026-07-11T14:41:30Z</time>
      </trkpt>
      <trkpt lat="51.354181990027428" lon="-2.000272963196039">
        <ele>139.53</ele>
        <time>2026-07-11T14:41:39Z</time>
      </trkpt>
      <trkpt lat="51.353834979236126" lon="-1.998759023845196">
        <ele>140.97</ele>
        <time>2026-07-11T14:41:49Z</time>
      </trkpt>
      <trkpt lat="51.353801032528281" lon="-1.998609993606806">
        <ele>140.97</ele>
        <time>2026-07-11T14:41:50Z</time>
      </trkpt>
      <trkpt lat="51.353771025314927" lon="-1.998469009995461">
        <ele>140.97</ele>
        <time>2026-07-11T14:41:51Z</time>
      </trkpt>
      <trkpt lat="51.353745963424444" lon="-1.998353004455566">
        <ele>140.97</ele>
        <time>2026-07-11T14:41:52Z</time>
      </trkpt>
      <trkpt lat="51.353810001164675" lon="-1.998225012794137">
        <ele>140.97</ele>
        <time>2026-07-11T14:41:53Z</time>
      </trkpt>
      <trkpt lat="51.353703970089555" lon="-1.998109007254243">
        <ele>140.97</ele>
        <time>2026-07-11T14:41:54Z</time>
      </trkpt>
      <trkpt lat="51.353655019775033" lon="-1.997985038906336">
        <ele>140.97</ele>
        <time>2026-07-11T14:41:55Z</time>
      </trkpt>
      <trkpt lat="51.353601040318608" lon="-1.997841037809849">
        <ele>140.49000000000001</ele>
        <time>2026-07-11T14:41:56Z</time>
      </trkpt>
      <trkpt lat="51.353553012013435" lon="-1.997709022834897">
        <ele>140.00999999999999</ele>
        <time>2026-07-11T14:41:57Z</time>
      </trkpt>
      <trkpt lat="51.353058982640505" lon="-1.996701015159488">
        <ele>134.24000000000001</ele>
        <time>2026-07-11T14:42:05Z</time>
      </trkpt>
      <trkpt lat="51.352750025689602" lon="-1.996205979958177">
        <ele>134.72</ele>
        <time>2026-07-11T14:42:10Z</time>
      </trkpt>
      <trkpt lat="51.352275023236871" lon="-1.995596028864384">
        <ele>134.72</ele>
        <time>2026-07-11T14:42:19Z</time>
      </trkpt>
      <trkpt lat="51.35205801576376" lon="-1.99541799724102">
        <ele>135.19999999999999</ele>
        <time>2026-07-11T14:42:23Z</time>
      </trkpt>
      <trkpt lat="51.351996995508671" lon="-1.995382038876414">
        <ele>135.19999999999999</ele>
        <time>2026-07-11T14:42:24Z</time>
      </trkpt>
      <trkpt lat="51.351814018562436" lon="-1.995267039164901">
        <ele>135.68000000000001</ele>
        <time>2026-07-11T14:42:27Z</time>
      </trkpt>
      <trkpt lat="51.351752998307347" lon="-1.995224040001631">
        <ele>135.68000000000001</ele>
        <time>2026-07-11T14:42:28Z</time>
      </trkpt>
      <trkpt lat="51.351529033854604" lon="-1.995016001164913">
        <ele>135.68000000000001</ele>
        <time>2026-07-11T14:42:32Z</time>
      </trkpt>
      <trkpt lat="51.351472958922386" lon="-1.994954980909824">
        <ele>135.68000000000001</ele>
        <time>2026-07-11T14:42:33Z</time>
      </trkpt>
      <trkpt lat="51.3514169678092" lon="-1.994893960654736">
        <ele>136.16</ele>
        <time>2026-07-11T14:42:34Z</time>
      </trkpt>
      <trkpt lat="51.351343039423227" lon="-1.994812991470099">
        <ele>136.63999999999999</ele>
        <time>2026-07-11T14:42:35Z</time>
      </trkpt>
      <trkpt lat="51.35130699723959" lon="-1.994754988700151">
        <ele>137.13</ele>
        <time>2026-07-11T14:42:36Z</time>
      </trkpt>
      <trkpt lat="51.351256035268307" lon="-1.994674019515514">
        <ele>138.09</ele>
        <time>2026-07-11T14:42:37Z</time>
      </trkpt>
      <trkpt lat="51.350917993113399" lon="-1.994241010397673">
        <ele>143.84999999999999</ele>
        <time>2026-07-11T14:42:43Z</time>
      </trkpt>
      <trkpt lat="51.3508540391922" lon="-1.994173033162952">
        <ele>145.30000000000001</ele>
        <time>2026-07-11T14:42:44Z</time>
      </trkpt>
      <trkpt lat="51.350793018937111" lon="-1.994113018736243">
        <ele>145.78</ele>
        <time>2026-07-11T14:42:45Z</time>
      </trkpt>
      <trkpt lat="51.350519014522433" lon="-1.99389198794961">
        <ele>148.66</ele>
        <time>2026-07-11T14:42:49Z</time>
      </trkpt>
      <trkpt lat="51.350449025630951" lon="-1.993841025978327">
        <ele>148.66</ele>
        <time>2026-07-11T14:42:50Z</time>
      </trkpt>
      <trkpt lat="51.350379958748817" lon="-1.993789980188012">
        <ele>148.18000000000001</ele>
        <time>2026-07-11T14:42:51Z</time>
      </trkpt>
      <trkpt lat="51.350048035383224" lon="-1.993545982986689">
        <ele>146.74000000000001</ele>
        <time>2026-07-11T14:42:56Z</time>
      </trkpt>
      <trkpt lat="51.349286958575249" lon="-1.99292597360909">
        <ele>146.25999999999999</ele>
        <time>2026-07-11T14:43:07Z</time>
      </trkpt>
      <trkpt lat="51.348393028602004" lon="-1.992434961721301">
        <ele>147.22</ele>
        <time>2026-07-11T14:43:18Z</time>
      </trkpt>
      <trkpt lat="51.348225977271795" lon="-1.992341000586748">
        <ele>147.69999999999999</ele>
        <time>2026-07-11T14:43:20Z</time>
      </trkpt>
      <trkpt lat="51.348090022802353" lon="-1.992263970896602">
        <ele>147.69999999999999</ele>
        <time>2026-07-11T14:43:22Z</time>
      </trkpt>
      <trkpt lat="51.347974017262459" lon="-1.99215198867023">
        <ele>147.22</ele>
        <time>2026-07-11T14:43:24Z</time>
      </trkpt>
      <trkpt lat="51.347922971472144" lon="-1.992173027247191">
        <ele>147.22</ele>
        <time>2026-07-11T14:43:25Z</time>
      </trkpt>
      <trkpt lat="51.347856000065804" lon="-1.992201022803783">
        <ele>146.74000000000001</ele>
        <time>2026-07-11T14:43:26Z</time>
      </trkpt>
      <trkpt lat="51.347777964547276" lon="-1.992233963683248">
        <ele>146.74000000000001</ele>
        <time>2026-07-11T14:43:27Z</time>
      </trkpt>
      <trkpt lat="51.347681991755962" lon="-1.992275035008788">
        <ele>146.25999999999999</ele>
        <time>2026-07-11T14:43:28Z</time>
      </trkpt>
      <trkpt lat="51.347588030621409" lon="-1.992314010858536">
        <ele>146.25999999999999</ele>
        <time>2026-07-11T14:43:29Z</time>
      </trkpt>
      <trkpt lat="51.347318971529603" lon="-1.992580974474549">
        <ele>146.25999999999999</ele>
        <time>2026-07-11T14:43:32Z</time>
      </trkpt>
      <trkpt lat="51.347220987081528" lon="-1.992684993892908">
        <ele>146.74000000000001</ele>
        <time>2026-07-11T14:43:33Z</time>
      </trkpt>
      <trkpt lat="51.346591003239155" lon="-1.99316100217402">
        <ele>146.74000000000001</ele>
        <time>2026-07-11T14:43:39Z</time>
      </trkpt>
      <trkpt lat="51.346478015184402" lon="-1.993194026872516">
        <ele>145.78</ele>
        <time>2026-07-11T14:43:40Z</time>
      </trkpt>
      <trkpt lat="51.34636402130127" lon="-1.99322797358036">
        <ele>144.81999999999999</ele>
        <time>2026-07-11T14:43:41Z</time>
      </trkpt>
      <trkpt lat="51.346246004104614" lon="-1.993263009935617">
        <ele>143.84999999999999</ele>
        <time>2026-07-11T14:43:42Z</time>
      </trkpt>
      <trkpt lat="51.346126981079578" lon="-1.993297962471843">
        <ele>142.41</ele>
        <time>2026-07-11T14:43:43Z</time>
      </trkpt>
      <trkpt lat="51.34494798257947" lon="-1.993638016283512">
        <ele>131.84</ele>
        <time>2026-07-11T14:43:54Z</time>
      </trkpt>
      <trkpt lat="51.34471102617681" lon="-1.993730971589685">
        <ele>130.40000000000001</ele>
        <time>2026-07-11T14:43:57Z</time>
      </trkpt>
      <trkpt lat="51.344622010365129" lon="-1.993659976869822">
        <ele>129.43000000000001</ele>
        <time>2026-07-11T14:43:58Z</time>
      </trkpt>
      <trkpt lat="51.344549003988504" lon="-1.993795009329915">
        <ele>128.94999999999999</ele>
        <time>2026-07-11T14:43:59Z</time>
      </trkpt>
      <trkpt lat="51.344468034803867" lon="-1.993875978514552">
        <ele>128.47</ele>
        <time>2026-07-11T14:44:00Z</time>
      </trkpt>
      <trkpt lat="51.344380024820566" lon="-1.993963988497853">
        <ele>127.98999999999999</ele>
        <time>2026-07-11T14:44:01Z</time>
      </trkpt>
      <trkpt lat="51.344187995418906" lon="-1.99415098875761">
        <ele>127.98999999999999</ele>
        <time>2026-07-11T14:44:03Z</time>
      </trkpt>
      <trkpt lat="51.344094034284353" lon="-1.994241010397673">
        <ele>128.47</ele>
        <time>2026-07-11T14:44:04Z</time>
      </trkpt>
      <trkpt lat="51.344000995159149" lon="-1.994329020380974">
        <ele>128.94999999999999</ele>
        <time>2026-07-11T14:44:05Z</time>
      </trkpt>
      <trkpt lat="51.343280989676714" lon="-1.995152039453387">
        <ele>131.84</ele>
        <time>2026-07-11T14:44:13Z</time>
      </trkpt>
      <trkpt lat="51.343200020492077" lon="-1.99528799392283">
        <ele>131.84</ele>
        <time>2026-07-11T14:44:14Z</time>
      </trkpt>
      <trkpt lat="51.342962980270386" lon="-1.995689989998937">
        <ele>131.36000000000001</ele>
        <time>2026-07-11T14:44:17Z</time>
      </trkpt>
      <trkpt lat="51.342727029696107" lon="-1.996098021045327">
        <ele>130.40000000000001</ele>
        <time>2026-07-11T14:44:20Z</time>
      </trkpt>
      <trkpt lat="51.342642037197948" lon="-1.996244033798575">
        <ele>129.91999999999999</ele>
        <time>2026-07-11T14:44:21Z</time>
      </trkpt>
      <trkpt lat="51.34254296310246" lon="-1.996390968561173">
        <ele>129.43000000000001</ele>
        <time>2026-07-11T14:44:22Z</time>
      </trkpt>
      <trkpt lat="51.341638974845409" lon="-1.997447004541755">
        <ele>127.03</ele>
        <time>2026-07-11T14:44:30Z</time>
      </trkpt>
      <trkpt lat="51.341530010104179" lon="-1.997570972889662">
        <ele>127.03</ele>
        <time>2026-07-11T14:44:31Z</time>
      </trkpt>
      <trkpt lat="51.341407969594002" lon="-1.997709022834897">
        <ele>127.03</ele>
        <time>2026-07-11T14:44:32Z</time>
      </trkpt>
      <trkpt lat="51.341294981539249" lon="-1.997760990634561">
        <ele>127.03</ele>
        <time>2026-07-11T14:44:33Z</time>
      </trkpt>
      <trkpt lat="51.341177970170975" lon="-1.997812958434224">
        <ele>127.03</ele>
        <time>2026-07-11T14:44:34Z</time>
      </trkpt>
      <trkpt lat="51.341055007651448" lon="-1.997840031981468">
        <ele>127.51000000000001</ele>
        <time>2026-07-11T14:44:35Z</time>
      </trkpt>
      <trkpt lat="51.340925004333258" lon="-1.9978660158813">
        <ele>127.51000000000001</ele>
        <time>2026-07-11T14:44:36Z</time>
      </trkpt>
      <trkpt lat="51.340468022972345" lon="-1.997956959530711">
        <ele>126.06999999999999</ele>
        <time>2026-07-11T14:44:39Z</time>
      </trkpt>
      <trkpt lat="51.340029984712601" lon="-1.998005993664265">
        <ele>125.11</ele>
        <time>2026-07-11T14:44:42Z</time>
      </trkpt>
      <trkpt lat="51.339904004707932" lon="-1.997971963137388">
        <ele>124.63</ele>
        <time>2026-07-11T14:44:43Z</time>
      </trkpt>
      <trkpt lat="51.3396190200001" lon="-1.997850006446242">
        <ele>123.67</ele>
        <time>2026-07-11T14:44:45Z</time>
      </trkpt>
      <trkpt lat="51.339476024731994" lon="-1.997784962877631">
        <ele>123.67</ele>
        <time>2026-07-11T14:44:46Z</time>
      </trkpt>
      <trkpt lat="51.339326994493604" lon="-1.997712040320039">
        <ele>123.19</ele>
        <time>2026-07-11T14:44:47Z</time>
      </trkpt>
      <trkpt lat="51.338605983182788" lon="-1.997391013428569">
        <ele>119.34</ele>
        <time>2026-07-11T14:44:52Z</time>
      </trkpt>
      <trkpt lat="51.338472962379456" lon="-1.997399982064962">
        <ele>118.86</ele>
        <time>2026-07-11T14:44:53Z</time>
      </trkpt>
      <trkpt lat="51.338340025395155" lon="-1.997409034520388">
        <ele>118.38</ele>
        <time>2026-07-11T14:44:54Z</time>
      </trkpt>
      <trkpt lat="51.338215973228216" lon="-1.997499978169799">
        <ele>118.38</ele>
        <time>2026-07-11T14:44:55Z</time>
      </trkpt>
      <trkpt lat="51.338081024587154" lon="-1.997598968446255">
        <ele>118.38</ele>
        <time>2026-07-11T14:44:56Z</time>
      </trkpt>
      <trkpt lat="51.337938029319048" lon="-1.997703993692994">
        <ele>117.90000000000001</ele>
        <time>2026-07-11T14:44:57Z</time>
      </trkpt>
      <trkpt lat="51.337787993252277" lon="-1.997813964262605">
        <ele>117.90000000000001</ele>
        <time>2026-07-11T14:44:58Z</time>
      </trkpt>
      <trkpt lat="51.336904959753156" lon="-1.998507985845208">
        <ele>115.01000000000001</ele>
        <time>2026-07-11T14:45:04Z</time>
      </trkpt>
      <trkpt lat="51.336421994492412" lon="-1.999014001339674">
        <ele>110.69</ele>
        <time>2026-07-11T14:45:08Z</time>
      </trkpt>
      <trkpt lat="51.335912961512804" lon="-1.999701987951994">
        <ele>106.36</ele>
        <time>2026-07-11T14:45:13Z</time>
      </trkpt>
      <trkpt lat="51.335688997060061" lon="-1.999914972111583">
        <ele>104.92</ele>
        <time>2026-07-11T14:45:15Z</time>
      </trkpt>
      <trkpt lat="51.33547299541533" lon="-2.000141032040119">
        <ele>104.44</ele>
        <time>2026-07-11T14:45:17Z</time>
      </trkpt>
      <trkpt lat="51.335365958511829" lon="-2.000262988731265">
        <ele>104.44</ele>
        <time>2026-07-11T14:45:18Z</time>
      </trkpt>
      <trkpt lat="51.335265040397644" lon="-2.000378994271159">
        <ele>104.44</ele>
        <time>2026-07-11T14:45:19Z</time>
      </trkpt>
      <trkpt lat="51.334983995184302" lon="-2.00080999173224">
        <ele>103.95999999999999</ele>
        <time>2026-07-11T14:45:22Z</time>
      </trkpt>
      <trkpt lat="51.334776040166616" lon="-2.001074021682143">
        <ele>103</ele>
        <time>2026-07-11T14:45:24Z</time>
      </trkpt>
      <trkpt lat="51.33338900282979" lon="-2.00227003544569">
        <ele>102.52</ele>
        <time>2026-07-11T14:45:35Z</time>
      </trkpt>
      <trkpt lat="51.33310804143548" lon="-2.002359973266721">
        <ele>103.95999999999999</ele>
        <time>2026-07-11T14:45:37Z</time>
      </trkpt>
      <trkpt lat="51.332969991490245" lon="-2.002402972429991">
        <ele>104.44</ele>
        <time>2026-07-11T14:45:38Z</time>
      </trkpt>
      <trkpt lat="51.332834037020802" lon="-2.002446977421641">
        <ele>105.40000000000001</ele>
        <time>2026-07-11T14:45:39Z</time>
      </trkpt>
      <trkpt lat="51.332277981564403" lon="-2.002624003216624">
        <ele>107.31999999999999</ele>
        <time>2026-07-11T14:45:43Z</time>
      </trkpt>
      <trkpt lat="51.331743970513344" lon="-2.002889961004257">
        <ele>108.77</ele>
        <time>2026-07-11T14:45:47Z</time>
      </trkpt>
      <trkpt lat="51.331613967195153" lon="-2.002991968765855">
        <ele>109.25</ele>
        <time>2026-07-11T14:45:48Z</time>
      </trkpt>
      <trkpt lat="51.330453995615244" lon="-2.003991007804871">
        <ele>105.40000000000001</ele>
        <time>2026-07-11T14:45:57Z</time>
      </trkpt>
      <trkpt lat="51.33014302700758" lon="-2.004146995022893">
        <ele>104.92</ele>
        <time>2026-07-11T14:45:59Z</time>
      </trkpt>
      <trkpt lat="51.329093025997281" lon="-2.004445977509022">
        <ele>103</ele>
        <time>2026-07-11T14:46:07Z</time>
      </trkpt>
      <trkpt lat="51.328058028593659" lon="-2.004610011354089">
        <ele>101.56</ele>
        <time>2026-07-11T14:46:16Z</time>
      </trkpt>
      <trkpt lat="51.327619990333915" lon="-2.004731968045235">
        <ele>98.189999999999998</ele>
        <time>2026-07-11T14:46:21Z</time>
      </trkpt>
      <trkpt lat="51.327518988400698" lon="-2.004668014124036">
        <ele>97.230000000000004</ele>
        <time>2026-07-11T14:46:22Z</time>
      </trkpt>
      <trkpt lat="51.327473977580667" lon="-2.004798017442226">
        <ele>96.75</ele>
        <time>2026-07-11T14:46:23Z</time>
      </trkpt>
      <trkpt lat="51.327398037537932" lon="-2.004874041303992">
        <ele>95.790000000000006</ele>
        <time>2026-07-11T14:46:24Z</time>
      </trkpt>
      <trkpt lat="51.327310027554631" lon="-2.004961967468262">
        <ele>95.310000000000002</ele>
        <time>2026-07-11T14:46:25Z</time>
      </trkpt>
      <trkpt lat="51.327091008424759" lon="-2.005334040150046">
        <ele>93.390000000000001</ele>
        <time>2026-07-11T14:46:28Z</time>
      </trkpt>
      <trkpt lat="51.327000986784697" lon="-2.005483992397785">
        <ele>92.900000000000006</ele>
        <time>2026-07-11T14:46:29Z</time>
      </trkpt>
      <trkpt lat="51.326910965144634" lon="-2.005632016807795">
        <ele>92.420000000000002</ele>
        <time>2026-07-11T14:46:30Z</time>
      </trkpt>
      <trkpt lat="51.326818009838462" lon="-2.005784986540675">
        <ele>91.459999999999994</ele>
        <time>2026-07-11T14:46:31Z</time>
      </trkpt>
      <trkpt lat="51.326731005683541" lon="-2.005927981808782">
        <ele>90.980000000000004</ele>
        <time>2026-07-11T14:46:32Z</time>
      </trkpt>
      <trkpt lat="51.326633021235466" lon="-2.006124034523964">
        <ele>90.5</ele>
        <time>2026-07-11T14:46:33Z</time>
      </trkpt>
      <trkpt lat="51.326541993767023" lon="-2.006306005641818">
        <ele>90.019999999999996</ele>
        <time>2026-07-11T14:46:34Z</time>
      </trkpt>
      <trkpt lat="51.32645096629858" lon="-2.006487976759672">
        <ele>89.060000000000002</ele>
        <time>2026-07-11T14:46:35Z</time>
      </trkpt>
      <trkpt lat="51.32636102847755" lon="-2.006667014211416">
        <ele>88.579999999999998</ele>
        <time>2026-07-11T14:46:36Z</time>
      </trkpt>
      <trkpt lat="51.326279975473881" lon="-2.006829036399722">
        <ele>87.620000000000005</ele>
        <time>2026-07-11T14:46:37Z</time>
      </trkpt>
      <trkpt lat="51.326243011280894" lon="-2.007034979760647">
        <ele>86.659999999999997</ele>
        <time>2026-07-11T14:46:38Z</time>
      </trkpt>
      <trkpt lat="51.326206969097257" lon="-2.007230026647449">
        <ele>85.689999999999998</ele>
        <time>2026-07-11T14:46:39Z</time>
      </trkpt>
      <trkpt lat="51.326206969097257" lon="-2.007411997765303">
        <ele>84.730000000000004</ele>
        <time>2026-07-11T14:46:40Z</time>
      </trkpt>
      <trkpt lat="51.32623303681612" lon="-2.007603021338582">
        <ele>83.769999999999996</ele>
        <time>2026-07-11T14:46:41Z</time>
      </trkpt>
      <trkpt lat="51.326262038201094" lon="-2.007780969142914">
        <ele>83.290000000000006</ele>
        <time>2026-07-11T14:46:42Z</time>
      </trkpt>
      <trkpt lat="51.326288022100925" lon="-2.007941985502839">
        <ele>82.810000000000002</ele>
        <time>2026-07-11T14:46:43Z</time>
      </trkpt>
      <trkpt lat="51.326307971030474" lon="-2.008067965507507">
        <ele>82.329999999999998</ele>
        <time>2026-07-11T14:46:44Z</time>
      </trkpt>
      <trkpt lat="51.326322974637151" lon="-2.00815899297595">
        <ele>81.849999999999994</ele>
        <time>2026-07-11T14:46:45Z</time>
      </trkpt>
      <trkpt lat="51.326264971867204" lon="-2.008236022666097">
        <ele>81.370000000000005</ele>
        <time>2026-07-11T14:46:46Z</time>
      </trkpt>
      <trkpt lat="51.326193977147341" lon="-2.00833098962903">
        <ele>80.409999999999997</ele>
        <time>2026-07-11T14:46:47Z</time>
      </trkpt>
      <trkpt lat="51.326142009347677" lon="-2.008352028205991">
        <ele>79.450000000000003</ele>
        <time>2026-07-11T14:46:48Z</time>
      </trkpt>
      <trkpt lat="51.326052993535995" lon="-2.008388992398977">
        <ele>78.480000000000004</ele>
        <time>2026-07-11T14:46:49Z</time>
      </trkpt>
      <trkpt lat="51.325158979743719" lon="-2.008798029273748">
        <ele>73.680000000000007</ele>
        <time>2026-07-11T14:46:58Z</time>
      </trkpt>
      <trkpt lat="51.325064012780786" lon="-2.008828958496451">
        <ele>73.200000000000003</ele>
        <time>2026-07-11T14:46:59Z</time>
      </trkpt>
      <trkpt lat="51.324692023918033" lon="-2.008939012885094">
        <ele>70.310000000000002</ele>
        <time>2026-07-11T14:47:03Z</time>
      </trkpt>
      <trkpt lat="51.324047958478332" lon="-2.0089749712497">
        <ele>69.349999999999994</ele>
        <time>2026-07-11T14:47:09Z</time>
      </trkpt>
      <trkpt lat="51.323702037334442" lon="-2.009046971797943">
        <ele>70.310000000000002</ele>
        <time>2026-07-11T14:47:12Z</time>
      </trkpt>
      <trkpt lat="51.323584020137787" lon="-2.009071027860045">
        <ele>70.790000000000006</ele>
        <time>2026-07-11T14:47:13Z</time>
      </trkpt>
      <trkpt lat="51.323089990764856" lon="-2.009159037843347">
        <ele>72.719999999999999</ele>
        <time>2026-07-11T14:47:17Z</time>
      </trkpt>
      <trkpt lat="51.322815986350179" lon="-2.009154008701444">
        <ele>73.200000000000003</ele>
        <time>2026-07-11T14:47:19Z</time>
      </trkpt>
      <trkpt lat="51.322658993303776" lon="-2.009130958467722">
        <ele>73.680000000000007</ele>
        <time>2026-07-11T14:47:20Z</time>
      </trkpt>
      <trkpt lat="51.322034960612655" lon="-2.00901503674686">
        <ele>75.120000000000005</ele>
        <time>2026-07-11T14:47:24Z</time>
      </trkpt>
      <trkpt lat="51.321838991716504" lon="-2.00895301066339">
        <ele>75.599999999999994</ele>
        <time>2026-07-11T14:47:25Z</time>
      </trkpt>
      <trkpt lat="51.321454010903835" lon="-2.008671965450048">
        <ele>77.519999999999996</ele>
        <time>2026-07-11T14:47:28Z</time>
      </trkpt>
      <trkpt lat="51.321315038949251" lon="-2.008525030687451">
        <ele>78</ele>
        <time>2026-07-11T14:47:29Z</time>
      </trkpt>
      <trkpt lat="51.320950007066131" lon="-2.007991019636393">
        <ele>80.890000000000001</ele>
        <time>2026-07-11T14:47:32Z</time>
      </trkpt>
      <trkpt lat="51.320851016789675" lon="-2.00779396109283">
        <ele>81.370000000000005</ele>
        <time>2026-07-11T14:47:33Z</time>
      </trkpt>
      <trkpt lat="51.320121958851814" lon="-2.006012974306941">
        <ele>81.370000000000005</ele>
        <time>2026-07-11T14:47:41Z</time>
      </trkpt>
      <trkpt lat="51.320022968575358" lon="-2.005894035100937">
        <ele>80.890000000000001</ele>
        <time>2026-07-11T14:47:42Z</time>
      </trkpt>
      <trkpt lat="51.319900006055832" lon="-2.005748022347689">
        <ele>80.409999999999997</ele>
        <time>2026-07-11T14:47:43Z</time>
      </trkpt>
      <trkpt lat="51.31976799108088" lon="-2.005610978230834">
        <ele>79.930000000000007</ele>
        <time>2026-07-11T14:47:44Z</time>
      </trkpt>
      <trkpt lat="51.319610998034477" lon="-2.005533026531339">
        <ele>79.450000000000003</ele>
        <time>2026-07-11T14:47:45Z</time>
      </trkpt>
      <trkpt lat="51.319450987502933" lon="-2.005504025146365">
        <ele>78.480000000000004</ele>
        <time>2026-07-11T14:47:46Z</time>
      </trkpt>
      <trkpt lat="51.319291982799768" lon="-2.005484998226166">
        <ele>78</ele>
        <time>2026-07-11T14:47:47Z</time>
      </trkpt>
      <trkpt lat="51.319128032773733" lon="-2.005464965477586">
        <ele>76.560000000000002</ele>
        <time>2026-07-11T14:47:48Z</time>
      </trkpt>
      <trkpt lat="51.318960981443524" lon="-2.005476029589772">
        <ele>75.599999999999994</ele>
        <time>2026-07-11T14:47:49Z</time>
      </trkpt>
      <trkpt lat="51.318277018144727" lon="-2.005634028464556">
        <ele>69.829999999999998</ele>
        <time>2026-07-11T14:47:53Z</time>
      </trkpt>
      <trkpt lat="51.31811399012804" lon="-2.005737964063883">
        <ele>67.909999999999997</ele>
        <time>2026-07-11T14:47:54Z</time>
      </trkpt>
      <trkpt lat="51.31796102039516" lon="-2.005878025665879">
        <ele>66.469999999999999</ele>
        <time>2026-07-11T14:47:55Z</time>
      </trkpt>
      <trkpt lat="51.317806961014867" lon="-2.006018003448844">
        <ele>64.549999999999997</ele>
        <time>2026-07-11T14:47:56Z</time>
      </trkpt>
      <trkpt lat="51.317658014595509" lon="-2.006171979010105">
        <ele>63.100000000000001</ele>
        <time>2026-07-11T14:47:57Z</time>
      </trkpt>
      <trkpt lat="51.316077020019293" lon="-2.007848024368286">
        <ele>61.18</ele>
        <time>2026-07-11T14:48:08Z</time>
      </trkpt>
      <trkpt lat="51.314523015171289" lon="-2.009137999266386">
        <ele>61.18</ele>
        <time>2026-07-11T14:48:18Z</time>
      </trkpt>
      <trkpt lat="51.313228011131287" lon="-2.010028995573521">
        <ele>61.18</ele>
        <time>2026-07-11T14:48:26Z</time>
      </trkpt>
      <trkpt lat="51.313058026134968" lon="-2.010108036920428">
        <ele>61.18</ele>
        <time>2026-07-11T14:48:27Z</time>
      </trkpt>
      <trkpt lat="51.312885023653507" lon="-2.010168973356485">
        <ele>61.659999999999997</ele>
        <time>2026-07-11T14:48:28Z</time>
      </trkpt>
      <trkpt lat="51.310702040791512" lon="-2.010474996641278">
        <ele>55.890000000000001</ele>
        <time>2026-07-11T14:48:40Z</time>
      </trkpt>
      <trkpt lat="51.309203021228313" lon="-2.00989899225533">
        <ele>58.299999999999997</ele>
        <time>2026-07-11T14:48:48Z</time>
      </trkpt>
      <trkpt lat="51.308487039059401" lon="-2.009495990350843">
        <ele>61.659999999999997</ele>
        <time>2026-07-11T14:48:52Z</time>
      </trkpt>
      <trkpt lat="51.308310013264418" lon="-2.009395994246006">
        <ele>62.619999999999997</ele>
        <time>2026-07-11T14:48:53Z</time>
      </trkpt>
      <trkpt lat="51.307611968368292" lon="-2.009033979848027">
        <ele>67.430000000000007</ele>
        <time>2026-07-11T14:48:57Z</time>
      </trkpt>
      <trkpt lat="51.307418011128902" lon="-2.009016964584589">
        <ele>67.909999999999997</ele>
        <time>2026-07-11T14:48:58Z</time>
      </trkpt>
      <trkpt lat="51.30552101880312" lon="-2.008794005960226">
        <ele>69.349999999999994</ele>
        <time>2026-07-11T14:49:07Z</time>
      </trkpt>
      <trkpt lat="51.303770961239934" lon="-2.008528970181942">
        <ele>67.430000000000007</ele>
        <time>2026-07-11T14:49:16Z</time>
      </trkpt>
      <trkpt lat="51.302861021831632" lon="-2.008467027917504">
        <ele>64.549999999999997</ele>
        <time>2026-07-11T14:49:21Z</time>
      </trkpt>
      <trkpt lat="51.302678966894746" lon="-2.008509021252394">
        <ele>64.069999999999993</ele>
        <time>2026-07-11T14:49:22Z</time>
      </trkpt>
      <trkpt lat="51.302501019090414" lon="-2.008589990437031">
        <ele>63.100000000000001</ele>
        <time>2026-07-11T14:49:23Z</time>
      </trkpt>
      <trkpt lat="51.301847985014319" lon="-2.008884027600288">
        <ele>60.700000000000003</ele>
        <time>2026-07-11T14:49:28Z</time>
      </trkpt>
      <trkpt lat="51.301528969779611" lon="-2.009028028696775">
        <ele>58.780000000000001</ele>
        <time>2026-07-11T14:49:35Z</time>
      </trkpt>
      <trkpt lat="51.301528969779611" lon="-2.009028028696775">
        <ele>58.780000000000001</ele>
        <time>2026-07-11T14:49:47Z</time>
      </trkpt>
      <trkpt lat="51.301345992833376" lon="-2.009105980396271">
        <ele>59.740000000000002</ele>
        <time>2026-07-11T14:50:24Z</time>
      </trkpt>
      <trkpt lat="51.300708968192339" lon="-2.009161971509457">
        <ele>60.219999999999999</ele>
        <time>2026-07-11T14:50:29Z</time>
      </trkpt>
      <trkpt lat="51.300532026216388" lon="-2.009122995659709">
        <ele>60.219999999999999</ele>
        <time>2026-07-11T14:50:30Z</time>
      </trkpt>
      <trkpt lat="51.300353994593024" lon="-2.009044960141182">
        <ele>60.219999999999999</ele>
        <time>2026-07-11T14:50:31Z</time>
      </trkpt>
      <trkpt lat="51.30017202347517" lon="-2.008927026763558">
        <ele>60.219999999999999</ele>
        <time>2026-07-11T14:50:32Z</time>
      </trkpt>
      <trkpt lat="51.299988962709904" lon="-2.008785959333181">
        <ele>60.219999999999999</ele>
        <time>2026-07-11T14:50:33Z</time>
      </trkpt>
      <trkpt lat="51.29817302338779" lon="-2.00734200887382">
        <ele>60.700000000000003</ele>
        <time>2026-07-11T14:50:43Z</time>
      </trkpt>
      <trkpt lat="51.297986023128033" lon="-2.007301021367312">
        <ele>60.219999999999999</ele>
        <time>2026-07-11T14:50:44Z</time>
      </trkpt>
      <trkpt lat="51.297816960141063" lon="-2.007310995832086">
        <ele>59.740000000000002</ele>
        <time>2026-07-11T14:50:45Z</time>
      </trkpt>
      <trkpt lat="51.297647980973125" lon="-2.00738400220871">
        <ele>59.259999999999998</ele>
        <time>2026-07-11T14:50:46Z</time>
      </trkpt>
      <trkpt lat="51.29746600985527" lon="-2.007462037727237">
        <ele>59.259999999999998</ele>
        <time>2026-07-11T14:50:47Z</time>
      </trkpt>
      <trkpt lat="51.297298958525062" lon="-2.007615007460117">
        <ele>59.259999999999998</ele>
        <time>2026-07-11T14:50:48Z</time>
      </trkpt>
      <trkpt lat="51.297130985185504" lon="-2.007782980799675">
        <ele>59.740000000000002</ele>
        <time>2026-07-11T14:50:49Z</time>
      </trkpt>
      <trkpt lat="51.296967035159469" lon="-2.007947014644742">
        <ele>59.740000000000002</ele>
        <time>2026-07-11T14:50:50Z</time>
      </trkpt>
      <trkpt lat="51.296801995486021" lon="-2.008070982992649">
        <ele>59.740000000000002</ele>
        <time>2026-07-11T14:50:51Z</time>
      </trkpt>
      <trkpt lat="51.296632010489702" lon="-2.008127979934216">
        <ele>60.219999999999999</ele>
        <time>2026-07-11T14:50:52Z</time>
      </trkpt>
      <trkpt lat="51.296451967209578" lon="-2.008153041824698">
        <ele>60.219999999999999</ele>
        <time>2026-07-11T14:50:53Z</time>
      </trkpt>
      <trkpt lat="51.29626102745533" lon="-2.008181037381291">
        <ele>60.700000000000003</ele>
        <time>2026-07-11T14:50:54Z</time>
      </trkpt>
      <trkpt lat="51.29606899805367" lon="-2.008150024339557">
        <ele>60.700000000000003</ele>
        <time>2026-07-11T14:50:55Z</time>
      </trkpt>
      <trkpt lat="51.295863976702094" lon="-2.008118005469441">
        <ele>61.18</ele>
        <time>2026-07-11T14:50:56Z</time>
      </trkpt>
      <trkpt lat="51.29426496103406" lon="-2.007927987724543">
        <ele>61.659999999999997</ele>
        <time>2026-07-11T14:51:04Z</time>
      </trkpt>
      <trkpt lat="51.293286960572004" lon="-2.007876019924879">
        <ele>62.619999999999997</ele>
        <time>2026-07-11T14:51:10Z</time>
      </trkpt>
      <trkpt lat="51.292870966717601" lon="-2.007851041853428">
        <ele>64.069999999999993</ele>
        <time>2026-07-11T14:51:16Z</time>
      </trkpt>
      <trkpt lat="51.29276099614799" lon="-2.007844001054764">
        <ele>64.549999999999997</ele>
        <time>2026-07-11T14:51:26Z</time>
      </trkpt>
      <trkpt lat="51.292563015595078" lon="-2.00781399384141">
        <ele>65.510000000000005</ele>
        <time>2026-07-11T14:51:32Z</time>
      </trkpt>
      <trkpt lat="51.292483974248171" lon="-2.00779396109283">
        <ele>65.510000000000005</ele>
        <time>2026-07-11T14:51:33Z</time>
      </trkpt>
      <trkpt lat="51.292423959821463" lon="-2.007766971364617">
        <ele>65.030000000000001</ele>
        <time>2026-07-11T14:51:34Z</time>
      </trkpt>
      <trkpt lat="51.291733039543033" lon="-2.00740797445178">
        <ele>64.549999999999997</ele>
        <time>2026-07-11T14:51:41Z</time>
      </trkpt>
      <trkpt lat="51.29147001542151" lon="-2.007180992513895">
        <ele>65.030000000000001</ele>
        <time>2026-07-11T14:51:43Z</time>
      </trkpt>
      <trkpt lat="51.291343029588461" lon="-2.007071021944284">
        <ele>65.510000000000005</ele>
        <time>2026-07-11T14:51:44Z</time>
      </trkpt>
      <trkpt lat="51.29121202044189" lon="-2.006959039717913">
        <ele>65.510000000000005</ele>
        <time>2026-07-11T14:51:45Z</time>
      </trkpt>
      <trkpt lat="51.291071036830544" lon="-2.006844962015748">
        <ele>65.510000000000005</ele>
        <time>2026-07-11T14:51:46Z</time>
      </trkpt>
      <trkpt lat="51.290922006592155" lon="-2.006746977567673">
        <ele>65.989999999999995</ele>
        <time>2026-07-11T14:51:47Z</time>
      </trkpt>
      <trkpt lat="51.28973001614213" lon="-2.005950026214123">
        <ele>71.760000000000005</ele>
        <time>2026-07-11T14:51:55Z</time>
      </trkpt>
      <trkpt lat="51.28927999176085" lon="-2.005630005151033">
        <ele>75.599999999999994</ele>
        <time>2026-07-11T14:51:58Z</time>
      </trkpt>
      <trkpt lat="51.28912802785635" lon="-2.005521962419152">
        <ele>76.560000000000002</ele>
        <time>2026-07-11T14:51:59Z</time>
      </trkpt>
      <trkpt lat="51.288986960425973" lon="-2.005421966314316">
        <ele>78</ele>
        <time>2026-07-11T14:52:00Z</time>
      </trkpt>
      <trkpt lat="51.288673980161548" lon="-2.005294980481267">
        <ele>80.409999999999997</ele>
        <time>2026-07-11T14:52:02Z</time>
      </trkpt>
      <trkpt lat="51.287590032443404" lon="-2.004819978028536">
        <ele>88.099999999999994</ele>
        <time>2026-07-11T14:52:10Z</time>
      </trkpt>
      <trkpt lat="51.286506000906229" lon="-2.003857987001538">
        <ele>90.019999999999996</ele>
        <time>2026-07-11T14:52:20Z</time>
      </trkpt>
      <trkpt lat="51.285463962703943" lon="-2.002624003216624">
        <ele>89.540000000000006</ele>
        <time>2026-07-11T14:52:30Z</time>
      </trkpt>
      <trkpt lat="51.284367023035884" lon="-2.001010989770293">
        <ele>85.689999999999998</ele>
        <time>2026-07-11T14:52:42Z</time>
      </trkpt>
      <trkpt lat="51.283957986161113" lon="-2.000473961234093">
        <ele>88.579999999999998</ele>
        <time>2026-07-11T14:52:49Z</time>
      </trkpt>
      <trkpt lat="51.283871987834573" lon="-2.00036097317934">
        <ele>89.060000000000002</ele>
        <time>2026-07-11T14:52:52Z</time>
      </trkpt>
      <trkpt lat="51.283825971186161" lon="-2.000300958752632">
        <ele>89.540000000000006</ele>
        <time>2026-07-11T14:52:53Z</time>
      </trkpt>
      <trkpt lat="51.283774003386497" lon="-2.00023197568953">
        <ele>89.540000000000006</ele>
        <time>2026-07-11T14:52:54Z</time>
      </trkpt>
      <trkpt lat="51.283720023930073" lon="-2.000161986798048">
        <ele>90.019999999999996</ele>
        <time>2026-07-11T14:52:55Z</time>
      </trkpt>
      <trkpt lat="51.283663026988506" lon="-2.000085962936282">
        <ele>90.019999999999996</ele>
        <time>2026-07-11T14:52:56Z</time>
      </trkpt>
      <trkpt lat="51.283017033711076" lon="-1.999218016862869">
        <ele>89.060000000000002</ele>
        <time>2026-07-11T14:53:05Z</time>
      </trkpt>
      <trkpt lat="51.282198959961534" lon="-1.998119987547398">
        <ele>87.620000000000005</ele>
        <time>2026-07-11T14:53:15Z</time>
      </trkpt>
      <trkpt lat="51.281397985294461" lon="-1.997137041762471">
        <ele>88.099999999999994</ele>
        <time>2026-07-11T14:53:24Z</time>
      </trkpt>
      <trkpt lat="51.280240025371313" lon="-1.996149988844991">
        <ele>86.659999999999997</ele>
        <time>2026-07-11T14:53:35Z</time>
      </trkpt>
      <trkpt lat="51.279576011002064" lon="-1.995423026382923">
        <ele>86.180000000000007</ele>
        <time>2026-07-11T14:53:42Z</time>
      </trkpt>
      <trkpt lat="51.278609996661544" lon="-1.993871033191681">
        <ele>84.25</ele>
        <time>2026-07-11T14:53:54Z</time>
      </trkpt>
      <trkpt lat="51.277868030592799" lon="-1.992616010829806">
        <ele>77.040000000000006</ele>
        <time>2026-07-11T14:54:03Z</time>
      </trkpt>
      <trkpt lat="51.277620010077953" lon="-1.992113012820482">
        <ele>74.159999999999997</ele>
        <time>2026-07-11T14:54:06Z</time>
      </trkpt>
      <trkpt lat="51.277512973174453" lon="-1.991993989795446">
        <ele>72.719999999999999</ele>
        <time>2026-07-11T14:54:07Z</time>
      </trkpt>
      <trkpt lat="51.27744298428297" lon="-1.991916038095951">
        <ele>71.760000000000005</ele>
        <time>2026-07-11T14:54:08Z</time>
      </trkpt>
      <trkpt lat="51.277317004278302" lon="-1.991853006184101">
        <ele>69.829999999999998</ele>
        <time>2026-07-11T14:54:09Z</time>
      </trkpt>
      <trkpt lat="51.27722798846662" lon="-1.99180799536407">
        <ele>68.390000000000001</ele>
        <time>2026-07-11T14:54:10Z</time>
      </trkpt>
      <trkpt lat="51.277131009846926" lon="-1.99183096177876">
        <ele>67.430000000000007</ele>
        <time>2026-07-11T14:54:11Z</time>
      </trkpt>
      <trkpt lat="51.277027996256948" lon="-1.991856023669243">
        <ele>66.469999999999999</ele>
        <time>2026-07-11T14:54:12Z</time>
      </trkpt>
      <trkpt lat="51.27692699432373" lon="-1.991879995912314">
        <ele>65.989999999999995</ele>
        <time>2026-07-11T14:54:13Z</time>
      </trkpt>
      <trkpt lat="51.276835966855288" lon="-1.991902040317655">
        <ele>65.510000000000005</ele>
        <time>2026-07-11T14:54:14Z</time>
      </trkpt>
      <trkpt lat="51.276750974357128" lon="-1.991902962327004">
        <ele>65.030000000000001</ele>
        <time>2026-07-11T14:54:15Z</time>
      </trkpt>
      <trkpt lat="51.276672016829252" lon="-1.991862980648875">
        <ele>65.510000000000005</ele>
        <time>2026-07-11T14:54:16Z</time>
      </trkpt>
      <trkpt lat="51.276585012674332" lon="-1.991818975657225">
        <ele>65.989999999999995</ele>
        <time>2026-07-11T14:54:17Z</time>
      </trkpt>
      <trkpt lat="51.276497002691031" lon="-1.991775976493955">
        <ele>66.469999999999999</ele>
        <time>2026-07-11T14:54:18Z</time>
      </trkpt>
      <trkpt lat="51.276411004364491" lon="-1.991732977330685">
        <ele>66.469999999999999</ele>
        <time>2026-07-11T14:54:19Z</time>
      </trkpt>
      <trkpt lat="51.276331041008234" lon="-1.991692995652556">
        <ele>66.469999999999999</ele>
        <time>2026-07-11T14:54:20Z</time>
      </trkpt>
      <trkpt lat="51.276253005489707" lon="-1.991648990660906">
        <ele>66.469999999999999</ele>
        <time>2026-07-11T14:54:21Z</time>
      </trkpt>
      <trkpt lat="51.27619500271976" lon="-1.991590987890959">
        <ele>65.989999999999995</ele>
        <time>2026-07-11T14:54:22Z</time>
      </trkpt>
      <trkpt lat="51.276136999949813" lon="-1.991532985121012">
        <ele>65.989999999999995</ele>
        <time>2026-07-11T14:54:23Z</time>
      </trkpt>
      <trkpt lat="51.276071034371853" lon="-1.991467019543052">
        <ele>65.510000000000005</ele>
        <time>2026-07-11T14:54:24Z</time>
      </trkpt>
      <trkpt lat="51.275996016338468" lon="-1.991419997066259">
        <ele>65.510000000000005</ele>
        <time>2026-07-11T14:54:25Z</time>
      </trkpt>
      <trkpt lat="51.275149025022984" lon="-1.9909050129354">
        <ele>61.659999999999997</ele>
        <time>2026-07-11T14:54:33Z</time>
      </trkpt>
      <trkpt lat="51.274236990138888" lon="-1.990382988005877">
        <ele>59.259999999999998</ele>
        <time>2026-07-11T14:54:41Z</time>
      </trkpt>
      <trkpt lat="51.274001961573958" lon="-1.990232029929757">
        <ele>59.259999999999998</ele>
        <time>2026-07-11T14:54:43Z</time>
      </trkpt>
      <trkpt lat="51.273350017145276" lon="-1.98998199775815">
        <ele>61.659999999999997</ele>
        <time>2026-07-11T14:54:48Z</time>
      </trkpt>
      <trkpt lat="51.272160038352013" lon="-1.989721991121769">
        <ele>67.430000000000007</ele>
        <time>2026-07-11T14:54:55Z</time>
      </trkpt>
      <trkpt lat="51.271959040313959" lon="-1.989671029150486">
        <ele>68.390000000000001</ele>
        <time>2026-07-11T14:54:56Z</time>
      </trkpt>
      <trkpt lat="51.271757958456874" lon="-1.98968100361526">
        <ele>69.829999999999998</ele>
        <time>2026-07-11T14:54:57Z</time>
      </trkpt>
      <trkpt lat="51.271560983732343" lon="-1.989701958373189">
        <ele>71.269999999999996</ele>
        <time>2026-07-11T14:54:58Z</time>
      </trkpt>
      <trkpt lat="51.271369960159063" lon="-1.989721991121769">
        <ele>72.719999999999999</ele>
        <time>2026-07-11T14:54:59Z</time>
      </trkpt>
      <trkpt lat="51.271183965727687" lon="-1.989800026640296">
        <ele>73.680000000000007</ele>
        <time>2026-07-11T14:55:00Z</time>
      </trkpt>
      <trkpt lat="51.270993025973439" lon="-1.989898011088371">
        <ele>75.120000000000005</ele>
        <time>2026-07-11T14:55:01Z</time>
      </trkpt>
      <trkpt lat="51.269658040255308" lon="-1.990654980763793">
        <ele>83.769999999999996</ele>
        <time>2026-07-11T14:55:08Z</time>
      </trkpt>
      <trkpt lat="51.268434030935168" lon="-1.991179017350078">
        <ele>88.099999999999994</ele>
        <time>2026-07-11T14:55:15Z</time>
      </trkpt>
      <trkpt lat="51.26796699129045" lon="-1.991201983764768">
        <ele>89.060000000000002</ele>
        <time>2026-07-11T14:55:18Z</time>
      </trkpt>
      <trkpt lat="51.267805974930525" lon="-1.991207012906671">
        <ele>89.540000000000006</ele>
        <time>2026-07-11T14:55:19Z</time>
      </trkpt>
      <trkpt lat="51.267314963042736" lon="-1.990998974069953">
        <ele>90.019999999999996</ele>
        <time>2026-07-11T14:55:22Z</time>
      </trkpt>
      <trkpt lat="51.266278037801385" lon="-1.990286009386182">
        <ele>91.459999999999994</ele>
        <time>2026-07-11T14:55:28Z</time>
      </trkpt>
      <trkpt lat="51.265244968235493" lon="-1.989556029438973">
        <ele>98.670000000000002</ele>
        <time>2026-07-11T14:55:35Z</time>
      </trkpt>
      <trkpt lat="51.263978965580463" lon="-1.988755976781249">
        <ele>107.31999999999999</ele>
        <time>2026-07-11T14:55:42Z</time>
      </trkpt>
      <trkpt lat="51.263055028393865" lon="-1.988426987081766">
        <ele>111.17</ele>
        <time>2026-07-11T14:55:47Z</time>
      </trkpt>
      <trkpt lat="51.262894012033939" lon="-1.988436039537191">
        <ele>111.17</ele>
        <time>2026-07-11T14:55:48Z</time>
      </trkpt>
      <trkpt lat="51.262724027037621" lon="-1.988487001508474">
        <ele>111.17</ele>
        <time>2026-07-11T14:55:49Z</time>
      </trkpt>
      <trkpt lat="51.262377016246319" lon="-1.988642988726497">
        <ele>111.17</ele>
        <time>2026-07-11T14:55:51Z</time>
      </trkpt>
      <trkpt lat="51.261000037193298" lon="-1.989019000902772">
        <ele>114.05</ele>
        <time>2026-07-11T14:55:59Z</time>
      </trkpt>
      <trkpt lat="51.259402027353644" lon="-1.988839041441679">
        <ele>118.38</ele>
        <time>2026-07-11T14:56:07Z</time>
      </trkpt>
      <trkpt lat="51.257464969530702" lon="-1.988106966018677">
        <ele>121.26000000000001</ele>
        <time>2026-07-11T14:56:16Z</time>
      </trkpt>
      <trkpt lat="51.25569898635149" lon="-1.987128965556622">
        <ele>121.73999999999999</ele>
        <time>2026-07-11T14:56:25Z</time>
      </trkpt>
      <trkpt lat="51.254169037565589" lon="-1.985765984281898">
        <ele>119.81999999999999</ele>
        <time>2026-07-11T14:56:33Z</time>
      </trkpt>
      <trkpt lat="51.252995990216732" lon="-1.984654041007161">
        <ele>116.45999999999999</ele>
        <time>2026-07-11T14:56:39Z</time>
      </trkpt>
      <trkpt lat="51.25142497010529" lon="-1.983752986416221">
        <ele>109.25</ele>
        <time>2026-07-11T14:56:47Z</time>
      </trkpt>
      <trkpt lat="51.249524960294366" lon="-1.982642970979214">
        <ele>104.44</ele>
        <time>2026-07-11T14:56:56Z</time>
      </trkpt>
      <trkpt lat="51.2480260245502" lon="-1.98162398301065">
        <ele>104.92</ele>
        <time>2026-07-11T14:57:03Z</time>
      </trkpt>
      <trkpt lat="51.246188962832093" lon="-1.979975011199713">
        <ele>104.44</ele>
        <time>2026-07-11T14:57:12Z</time>
      </trkpt>
      <trkpt lat="51.244856994599104" lon="-1.978897014632821">
        <ele>104.92</ele>
        <time>2026-07-11T14:57:18Z</time>
      </trkpt>
      <trkpt lat="51.243217997252941" lon="-1.978180026635528">
        <ele>106.36</ele>
        <time>2026-07-11T14:57:25Z</time>
      </trkpt>
      <trkpt lat="51.242044027894735" lon="-1.977085014805198">
        <ele>106.84</ele>
        <time>2026-07-11T14:57:31Z</time>
      </trkpt>
      <trkpt lat="51.240611979737878" lon="-1.974900020286441">
        <ele>106.36</ele>
        <time>2026-07-11T14:57:39Z</time>
      </trkpt>
      <trkpt lat="51.239269031211734" lon="-1.974012963473797">
        <ele>106.84</ele>
        <time>2026-07-11T14:57:45Z</time>
      </trkpt>
      <trkpt lat="51.237594997510314" lon="-1.972804041579366">
        <ele>108.29000000000001</ele>
        <time>2026-07-11T14:57:53Z</time>
      </trkpt>
      <trkpt lat="51.235757013782859" lon="-1.970901014283299">
        <ele>109.73</ele>
        <time>2026-07-11T14:58:03Z</time>
      </trkpt>
      <trkpt lat="51.234828969463706" lon="-1.968915006145835">
        <ele>108.29000000000001</ele>
        <time>2026-07-11T14:58:10Z</time>
      </trkpt>
      <trkpt lat="51.233582999557257" lon="-1.966901002451778">
        <ele>106.36</ele>
        <time>2026-07-11T14:58:18Z</time>
      </trkpt>
      <trkpt lat="51.231712996959686" lon="-1.964914994314313">
        <ele>110.69</ele>
        <time>2026-07-11T14:58:28Z</time>
      </trkpt>
      <trkpt lat="51.230971030890942" lon="-1.963034011423588">
        <ele>115.01000000000001</ele>
        <time>2026-07-11T14:58:35Z</time>
      </trkpt>
      <trkpt lat="51.230249013751745" lon="-1.960512986406684">
        <ele>107.81</ele>
        <time>2026-07-11T14:58:45Z</time>
      </trkpt>
      <trkpt lat="51.229978026822209" lon="-1.959449993446469">
        <ele>102.52</ele>
        <time>2026-07-11T14:58:51Z</time>
      </trkpt>
      <trkpt lat="51.229990012943745" lon="-1.959302974864841">
        <ele>102.04000000000001</ele>
        <time>2026-07-11T14:58:52Z</time>
      </trkpt>
      <trkpt lat="51.23000199906528" lon="-1.959165008738637">
        <ele>102.04000000000001</ele>
        <time>2026-07-11T14:58:53Z</time>
      </trkpt>
      <trkpt lat="51.230043992400169" lon="-1.959026958793402">
        <ele>101.56</ele>
        <time>2026-07-11T14:58:54Z</time>
      </trkpt>
      <trkpt lat="51.230089003220201" lon="-1.958882035687566">
        <ele>102.04000000000001</ele>
        <time>2026-07-11T14:58:55Z</time>
      </trkpt>
      <trkpt lat="51.230583032593131" lon="-1.957318978384137">
        <ele>103</ele>
        <time>2026-07-11T14:59:05Z</time>
      </trkpt>
      <trkpt lat="51.230681017041206" lon="-1.957028964534402">
        <ele>103</ele>
        <time>2026-07-11T14:59:07Z</time>
      </trkpt>
      <trkpt lat="51.230728039517999" lon="-1.956895021721721">
        <ele>102.52</ele>
        <time>2026-07-11T14:59:08Z</time>
      </trkpt>
      <trkpt lat="51.230751005932689" lon="-1.956731993705034">
        <ele>102.04000000000001</ele>
        <time>2026-07-11T14:59:09Z</time>
      </trkpt>
      <trkpt lat="51.230727033689618" lon="-1.954936003312469">
        <ele>99.150000000000006</ele>
        <time>2026-07-11T14:59:19Z</time>
      </trkpt>
      <trkpt lat="51.230714041739702" lon="-1.954581029713154">
        <ele>99.150000000000006</ele>
        <time>2026-07-11T14:59:21Z</time>
      </trkpt>
      <trkpt lat="51.230708006769419" lon="-1.95440199226141">
        <ele>99.150000000000006</ele>
        <time>2026-07-11T14:59:22Z</time>
      </trkpt>
      <trkpt lat="51.230628965422511" lon="-1.953119980171323">
        <ele>98.670000000000002</ele>
        <time>2026-07-11T14:59:29Z</time>
      </trkpt>
      <trkpt lat="51.230371976271272" lon="-1.951484000310302">
        <ele>98.189999999999998</ele>
        <time>2026-07-11T14:59:38Z</time>
      </trkpt>
      <trkpt lat="51.230303999036551" lon="-1.95135097950697">
        <ele>98.189999999999998</ele>
        <time>2026-07-11T14:59:39Z</time>
      </trkpt>
      <trkpt lat="51.230230992659926" lon="-1.951215025037527">
        <ele>98.189999999999998</ele>
        <time>2026-07-11T14:59:40Z</time>
      </trkpt>
      <trkpt lat="51.230155974626541" lon="-1.951089967042208">
        <ele>97.709999999999994</ele>
        <time>2026-07-11T14:59:41Z</time>
      </trkpt>
      <trkpt lat="51.230053966864944" lon="-1.951005980372429">
        <ele>97.230000000000004</ele>
        <time>2026-07-11T14:59:42Z</time>
      </trkpt>
      <trkpt lat="51.229948019608855" lon="-1.950971027836204">
        <ele>97.230000000000004</ele>
        <time>2026-07-11T14:59:43Z</time>
      </trkpt>
      <trkpt lat="51.229833019897342" lon="-1.950940014794469">
        <ele>96.269999999999996</ele>
        <time>2026-07-11T14:59:44Z</time>
      </trkpt>
      <trkpt lat="51.229720031842589" lon="-1.950910007581115">
        <ele>95.790000000000006</ele>
        <time>2026-07-11T14:59:45Z</time>
      </trkpt>
      <trkpt lat="51.229601008817554" lon="-1.950906990095973">
        <ele>95.310000000000002</ele>
        <time>2026-07-11T14:59:46Z</time>
      </trkpt>
      <trkpt lat="51.229481985792518" lon="-1.950903972610831">
        <ele>94.829999999999998</ele>
        <time>2026-07-11T14:59:47Z</time>
      </trkpt>
      <trkpt lat="51.227885987609625" lon="-1.950850998982787">
        <ele>93.390000000000001</ele>
        <time>2026-07-11T14:59:59Z</time>
      </trkpt>
      <trkpt lat="51.227650037035346" lon="-1.95072895847261">
        <ele>93.870000000000005</ele>
        <time>2026-07-11T15:00:01Z</time>
      </trkpt>
      <trkpt lat="51.226366013288498" lon="-1.950080031529069">
        <ele>91.939999999999998</ele>
        <time>2026-07-11T15:00:10Z</time>
      </trkpt>
      <trkpt lat="51.225235965102911" lon="-1.949579967185855">
        <ele>92.420000000000002</ele>
        <time>2026-07-11T15:00:17Z</time>
      </trkpt>
      <trkpt lat="51.225127000361681" lon="-1.949466979131103">
        <ele>92.900000000000006</ele>
        <time>2026-07-11T15:00:18Z</time>
      </trkpt>
      <trkpt lat="51.223696041852236" lon="-1.948099974542856">
        <ele>91.939999999999998</ele>
        <time>2026-07-11T15:00:27Z</time>
      </trkpt>
      <trkpt lat="51.222779983654618" lon="-1.94728902541101">
        <ele>92.420000000000002</ele>
        <time>2026-07-11T15:00:33Z</time>
      </trkpt>
      <trkpt lat="51.222672024741769" lon="-1.947087021544576">
        <ele>92.420000000000002</ele>
        <time>2026-07-11T15:00:34Z</time>
      </trkpt>
      <trkpt lat="51.222560964524746" lon="-1.946878982707858">
        <ele>92.900000000000006</ele>
        <time>2026-07-11T15:00:35Z</time>
      </trkpt>
      <trkpt lat="51.222082022577524" lon="-1.945566963404417">
        <ele>93.390000000000001</ele>
        <time>2026-07-11T15:00:41Z</time>
      </trkpt>
      <trkpt lat="51.221964005380869" lon="-1.945414999499917">
        <ele>93.870000000000005</ele>
        <time>2026-07-11T15:00:42Z</time>
      </trkpt>
      <trkpt lat="51.221843976527452" lon="-1.945260018110275">
        <ele>93.870000000000005</ele>
        <time>2026-07-11T15:00:43Z</time>
      </trkpt>
      <trkpt lat="51.221716990694404" lon="-1.945094978436828">
        <ele>93.870000000000005</ele>
        <time>2026-07-11T15:00:44Z</time>
      </trkpt>
      <trkpt lat="51.221570977941155" lon="-1.944978972896934">
        <ele>93.870000000000005</ele>
        <time>2026-07-11T15:00:45Z</time>
      </trkpt>
      <trkpt lat="51.221419014036655" lon="-1.944860033690929">
        <ele>94.349999999999994</ele>
        <time>2026-07-11T15:00:46Z</time>
      </trkpt>
      <trkpt lat="51.220339005813003" lon="-1.944173974916339">
        <ele>93.870000000000005</ele>
        <time>2026-07-11T15:00:51Z</time>
      </trkpt>
      <trkpt lat="51.21870000846684" lon="-1.943194968625903">
        <ele>93.390000000000001</ele>
        <time>2026-07-11T15:00:57Z</time>
      </trkpt>
      <trkpt lat="51.218261970207095" lon="-1.942862961441279">
        <ele>93.390000000000001</ele>
        <time>2026-07-11T15:00:59Z</time>
      </trkpt>
      <trkpt lat="51.21807798743248" lon="-1.942632962018251">
        <ele>93.870000000000005</ele>
        <time>2026-07-11T15:01:00Z</time>
      </trkpt>
      <trkpt lat="51.217888975515962" lon="-1.942397011443973">
        <ele>93.870000000000005</ele>
        <time>2026-07-11T15:01:01Z</time>
      </trkpt>
      <trkpt lat="51.216591959819198" lon="-1.941113993525505">
        <ele>91.939999999999998</ele>
        <time>2026-07-11T15:01:07Z</time>
      </trkpt>
      <trkpt lat="51.215014988556504" lon="-1.940575959160924">
        <ele>91.939999999999998</ele>
        <time>2026-07-11T15:01:13Z</time>
      </trkpt>
      <trkpt lat="51.213561985641718" lon="-1.940145967528224">
        <ele>91.939999999999998</ele>
        <time>2026-07-11T15:01:19Z</time>
      </trkpt>
      <trkpt lat="51.211128970608115" lon="-1.93848199211061">
        <ele>96.75</ele>
        <time>2026-07-11T15:01:30Z</time>
      </trkpt>
      <trkpt lat="51.210218025371432" lon="-1.937421010807157">
        <ele>105.88</ele>
        <time>2026-07-11T15:01:36Z</time>
      </trkpt>
      <trkpt lat="51.208653040230274" lon="-1.935791987925768">
        <ele>101.56</ele>
        <time>2026-07-11T15:01:46Z</time>
      </trkpt>
      <trkpt lat="51.207217974588275" lon="-1.934436969459057">
        <ele>102.52</ele>
        <time>2026-07-11T15:01:55Z</time>
      </trkpt>
      <trkpt lat="51.206018021330237" lon="-1.933108018711209">
        <ele>102.52</ele>
        <time>2026-07-11T15:02:02Z</time>
      </trkpt>
      <trkpt lat="51.204762998968363" lon="-1.931103989481926">
        <ele>103.95999999999999</ele>
        <time>2026-07-11T15:02:08Z</time>
      </trkpt>
      <trkpt lat="51.203891029581428" lon="-1.928786979988217">
        <ele>108.77</ele>
        <time>2026-07-11T15:02:14Z</time>
      </trkpt>
      <trkpt lat="51.203414015471935" lon="-1.92687900736928">
        <ele>113.56999999999999</ele>
        <time>2026-07-11T15:02:20Z</time>
      </trkpt>
      <trkpt lat="51.203134981915355" lon="-1.925795981660485">
        <ele>117.90000000000001</ele>
        <time>2026-07-11T15:02:26Z</time>
      </trkpt>
      <trkpt lat="51.202826024964452" lon="-1.924686972051859">
        <ele>119.81999999999999</ele>
        <time>2026-07-11T15:02:35Z</time>
      </trkpt>
      <trkpt lat="51.202405001968145" lon="-1.922863991931081">
        <ele>120.3</ele>
        <time>2026-07-11T15:02:44Z</time>
      </trkpt>
      <trkpt lat="51.201744005084038" lon="-1.920591993257403">
        <ele>117.42</ele>
        <time>2026-07-11T15:02:53Z</time>
      </trkpt>
      <trkpt lat="51.200821995735168" lon="-1.918514035642147">
        <ele>113.09</ele>
        <time>2026-07-11T15:03:02Z</time>
      </trkpt>
      <trkpt lat="51.200227970257401" lon="-1.916605979204178">
        <ele>108.77</ele>
        <time>2026-07-11T15:03:10Z</time>
      </trkpt>
      <trkpt lat="51.199797978624701" lon="-1.915650023147464">
        <ele>106.84</ele>
        <time>2026-07-11T15:03:14Z</time>
      </trkpt>
      <trkpt lat="51.199674010276794" lon="-1.91542798653245">
        <ele>106.36</ele>
        <time>2026-07-11T15:03:15Z</time>
      </trkpt>
      <trkpt lat="51.199519028887153" lon="-1.915236040949822">
        <ele>105.88</ele>
        <time>2026-07-11T15:03:16Z</time>
      </trkpt>
      <trkpt lat="51.198257971554995" lon="-1.913468968123198">
        <ele>100.11</ele>
        <time>2026-07-11T15:03:25Z</time>
      </trkpt>
      <trkpt lat="51.196975959464908" lon="-1.911207027733326">
        <ele>90.019999999999996</ele>
        <time>2026-07-11T15:03:35Z</time>
      </trkpt>
      <trkpt lat="51.195929981768131" lon="-1.909395027905703">
        <ele>79.450000000000003</ele>
        <time>2026-07-11T15:03:44Z</time>
      </trkpt>
      <trkpt lat="51.195739964023232" lon="-1.908980961889029">
        <ele>78.480000000000004</ele>
        <time>2026-07-11T15:03:47Z</time>
      </trkpt>
      <trkpt lat="51.195036973804235" lon="-1.907396027818322">
        <ele>73.680000000000007</ele>
        <time>2026-07-11T15:03:58Z</time>
      </trkpt>
      <trkpt lat="51.194780990481377" lon="-1.906817005947232">
        <ele>72.719999999999999</ele>
        <time>2026-07-11T15:04:02Z</time>
      </trkpt>
      <trkpt lat="51.194716030731797" lon="-1.90666101872921">
        <ele>72.719999999999999</ele>
        <time>2026-07-11T15:04:03Z</time>
      </trkpt>
      <trkpt lat="51.194412019103765" lon="-1.905688969418407">
        <ele>73.200000000000003</ele>
        <time>2026-07-11T15:04:09Z</time>
      </trkpt>
      <trkpt lat="51.194401038810611" lon="-1.905510015785694">
        <ele>73.200000000000003</ele>
        <time>2026-07-11T15:04:10Z</time>
      </trkpt>
      <trkpt lat="51.194401038810611" lon="-1.905335001647472">
        <ele>73.680000000000007</ele>
        <time>2026-07-11T15:04:11Z</time>
      </trkpt>
      <trkpt lat="51.194376982748508" lon="-1.904987990856171">
        <ele>73.680000000000007</ele>
        <time>2026-07-11T15:04:13Z</time>
      </trkpt>
      <trkpt lat="51.194345969706774" lon="-1.904819011688232">
        <ele>73.200000000000003</ele>
        <time>2026-07-11T15:04:14Z</time>
      </trkpt>
      <trkpt lat="51.194231975823641" lon="-1.904208976775408">
        <ele>74.159999999999997</ele>
        <time>2026-07-11T15:04:18Z</time>
      </trkpt>
      <trkpt lat="51.194197023287416" lon="-1.904108980670571">
        <ele>74.159999999999997</ele>
        <time>2026-07-11T15:04:19Z</time>
      </trkpt>
      <trkpt lat="51.19410096667707" lon="-1.903852997347713">
        <ele>75.120000000000005</ele>
        <time>2026-07-11T15:04:22Z</time>
      </trkpt>
      <trkpt lat="51.194087974727154" lon="-1.903646970167756">
        <ele>75.599999999999994</ele>
        <time>2026-07-11T15:04:23Z</time>
      </trkpt>
      <trkpt lat="51.193995019420981" lon="-1.903669014573097">
        <ele>76.079999999999998</ele>
        <time>2026-07-11T15:04:24Z</time>
      </trkpt>
      <trkpt lat="51.193921007215977" lon="-1.903620986267924">
        <ele>76.079999999999998</ele>
        <time>2026-07-11T15:04:25Z</time>
      </trkpt>
      <trkpt lat="51.193839032202959" lon="-1.90356801263988">
        <ele>76.560000000000002</ele>
        <time>2026-07-11T15:04:26Z</time>
      </trkpt>
      <trkpt lat="51.193744987249374" lon="-1.903507998213172">
        <ele>76.560000000000002</ele>
        <time>2026-07-11T15:04:27Z</time>
      </trkpt>
      <trkpt lat="51.192442020401359" lon="-1.902734013274312">
        <ele>78.969999999999999</ele>
        <time>2026-07-11T15:04:39Z</time>
      </trkpt>
      <trkpt lat="51.191881019622087" lon="-1.902379039674997">
        <ele>81.370000000000005</ele>
        <time>2026-07-11T15:04:44Z</time>
      </trkpt>
      <trkpt lat="51.191771971061826" lon="-1.902303015813232">
        <ele>82.329999999999998</ele>
        <time>2026-07-11T15:04:45Z</time>
      </trkpt>
      <trkpt lat="51.191455973312259" lon="-1.901984000578523">
        <ele>85.209999999999994</ele>
        <time>2026-07-11T15:04:48Z</time>
      </trkpt>
      <trkpt lat="51.190678970888257" lon="-1.900684973224998">
        <ele>92.900000000000006</ele>
        <time>2026-07-11T15:04:56Z</time>
      </trkpt>
      <trkpt lat="51.190584003925323" lon="-1.900524962693453">
        <ele>93.390000000000001</ele>
        <time>2026-07-11T15:04:57Z</time>
      </trkpt>
      <trkpt lat="51.189527967944741" lon="-1.898549012839794">
        <ele>91.939999999999998</ele>
        <time>2026-07-11T15:05:08Z</time>
      </trkpt>
      <trkpt lat="51.188635965809226" lon="-1.896854024380446">
        <ele>81.849999999999994</ele>
        <time>2026-07-11T15:05:16Z</time>
      </trkpt>
      <trkpt lat="51.187892993912101" lon="-1.895595984533429">
        <ele>79.450000000000003</ele>
        <time>2026-07-11T15:05:22Z</time>
      </trkpt>
      <trkpt lat="51.187815964221954" lon="-1.895357016474009">
        <ele>79.930000000000007</ele>
        <time>2026-07-11T15:05:23Z</time>
      </trkpt>
      <trkpt lat="51.187743963673711" lon="-1.895113019272685">
        <ele>80.409999999999997</ele>
        <time>2026-07-11T15:05:24Z</time>
      </trkpt>
      <trkpt lat="51.187672968953848" lon="-1.894868016242981">
        <ele>80.890000000000001</ele>
        <time>2026-07-11T15:05:25Z</time>
      </trkpt>
      <trkpt lat="51.187616977840662" lon="-1.894596023485065">
        <ele>81.849999999999994</ele>
        <time>2026-07-11T15:05:26Z</time>
      </trkpt>
      <trkpt lat="51.187608009204268" lon="-1.894316989928484">
        <ele>83.290000000000006</ele>
        <time>2026-07-11T15:05:27Z</time>
      </trkpt>
      <trkpt lat="51.187600968405604" lon="-1.894025970250368">
        <ele>84.730000000000004</ele>
        <time>2026-07-11T15:05:28Z</time>
      </trkpt>
      <trkpt lat="51.18761396035552" lon="-1.893736962229013">
        <ele>86.180000000000007</ele>
        <time>2026-07-11T15:05:29Z</time>
      </trkpt>
      <trkpt lat="51.1876339931041" lon="-1.893448960036039">
        <ele>87.620000000000005</ele>
        <time>2026-07-11T15:05:30Z</time>
      </trkpt>
      <trkpt lat="51.187814958393574" lon="-1.891293972730637">
        <ele>97.709999999999994</ele>
        <time>2026-07-11T15:05:37Z</time>
      </trkpt>
      <trkpt lat="51.187757039442658" lon="-1.888112034648657">
        <ele>105.40000000000001</ele>
        <time>2026-07-11T15:05:46Z</time>
      </trkpt>
      <trkpt lat="51.187656037509441" lon="-1.886774031445384">
        <ele>106.84</ele>
        <time>2026-07-11T15:05:50Z</time>
      </trkpt>
      <trkpt lat="51.187607003375888" lon="-1.886448981240392">
        <ele>106.84</ele>
        <time>2026-07-11T15:05:51Z</time>
      </trkpt>
      <trkpt lat="51.187164019793272" lon="-1.884083021432161">
        <ele>104.92</ele>
        <time>2026-07-11T15:05:59Z</time>
      </trkpt>
      <trkpt lat="51.186647024005651" lon="-1.879898020997644">
        <ele>91.939999999999998</ele>
        <time>2026-07-11T15:06:12Z</time>
      </trkpt>
      <trkpt lat="51.186450971290469" lon="-1.876765033230186">
        <ele>80.890000000000001</ele>
        <time>2026-07-11T15:06:21Z</time>
      </trkpt>
      <trkpt lat="51.186364972963929" lon="-1.872608028352261">
        <ele>96.269999999999996</ele>
        <time>2026-07-11T15:06:32Z</time>
      </trkpt>
      <trkpt lat="51.186063978821039" lon="-1.869510998949409">
        <ele>105.88</ele>
        <time>2026-07-11T15:06:41Z</time>
      </trkpt>
      <trkpt lat="51.185762984678149" lon="-1.866426961496472">
        <ele>107.31999999999999</ele>
        <time>2026-07-11T15:06:50Z</time>
      </trkpt>
      <trkpt lat="51.185407005250454" lon="-1.862776977941394">
        <ele>104.92</ele>
        <time>2026-07-11T15:07:02Z</time>
      </trkpt>
      <trkpt lat="51.185179017484188" lon="-1.861476022750139">
        <ele>102.52</ele>
        <time>2026-07-11T15:07:10Z</time>
      </trkpt>
      <trkpt lat="51.185105005279183" lon="-1.860930025577545">
        <ele>100.59999999999999</ele>
        <time>2026-07-11T15:07:15Z</time>
      </trkpt>
      <trkpt lat="51.185095030814409" lon="-1.860838998109102">
        <ele>100.59999999999999</ele>
        <time>2026-07-11T15:07:16Z</time>
      </trkpt>
      <trkpt lat="51.185109028592706" lon="-1.860757023096085">
        <ele>100.11</ele>
        <time>2026-07-11T15:07:17Z</time>
      </trkpt>
      <trkpt lat="51.185146998614073" lon="-1.860544960945845">
        <ele>100.11</ele>
        <time>2026-07-11T15:07:19Z</time>
      </trkpt>
      <trkpt lat="51.185152027755976" lon="-1.860424010083079">
        <ele>100.11</ele>
        <time>2026-07-11T15:07:20Z</time>
      </trkpt>
      <trkpt lat="51.18514196947217" lon="-1.860293000936508">
        <ele>100.11</ele>
        <time>2026-07-11T15:07:21Z</time>
      </trkpt>
      <trkpt lat="51.18505597114563" lon="-1.858996991068125">
        <ele>99.629999999999995</ele>
        <time>2026-07-11T15:07:32Z</time>
      </trkpt>
      <trkpt lat="51.184995034709573" lon="-1.858562976121903">
        <ele>100.59999999999999</ele>
        <time>2026-07-11T15:07:41Z</time>
      </trkpt>
      <trkpt lat="51.184985982254148" lon="-1.858435990288854">
        <ele>100.59999999999999</ele>
        <time>2026-07-11T15:08:01Z</time>
      </trkpt>
      <trkpt lat="51.184996040537953" lon="-1.858361978083849">
        <ele>100.11</ele>
        <time>2026-07-11T15:08:03Z</time>
      </trkpt>
      <trkpt lat="51.185015989467502" lon="-1.858359966427088">
        <ele>100.11</ele>
        <time>2026-07-11T15:08:04Z</time>
      </trkpt>
      <trkpt lat="51.185037028044462" lon="-1.858358038589358">
        <ele>99.629999999999995</ele>
        <time>2026-07-11T15:08:05Z</time>
      </trkpt>
      <trkpt lat="51.18505303747952" lon="-1.858357032760978">
        <ele>99.150000000000006</ele>
        <time>2026-07-11T15:08:06Z</time>
      </trkpt>
      <trkpt lat="51.184981036931276" lon="-1.85836298391223">
        <ele>98.189999999999998</ele>
        <time>2026-07-11T15:08:07Z</time>
      </trkpt>
      <trkpt lat="51.184983970597386" lon="-1.858403971418738">
        <ele>97.230000000000004</ele>
        <time>2026-07-11T15:08:08Z</time>
      </trkpt>
      <trkpt lat="51.184987993910909" lon="-1.858456023037434">
        <ele>93.870000000000005</ele>
        <time>2026-07-11T15:08:18Z</time>
      </trkpt>
      <trkpt lat="51.184987993910909" lon="-1.858456023037434">
        <ele>93.870000000000005</ele>
        <time>2026-07-11T15:08:58Z</time>
      </trkpt>
      <trkpt lat="51.184987993910909" lon="-1.858456023037434">
        <ele>93.390000000000001</ele>
        <time>2026-07-11T15:09:51Z</time>
      </trkpt>
      <trkpt lat="51.184996962547302" lon="-1.858592983335257">
        <ele>94.349999999999994</ele>
        <time>2026-07-11T15:10:30Z</time>
      </trkpt>
      <trkpt lat="51.185002997517586" lon="-1.858674036338925">
        <ele>94.829999999999998</ele>
        <time>2026-07-11T15:10:31Z</time>
      </trkpt>
      <trkpt lat="51.185008026659489" lon="-1.85874997638166">
        <ele>95.310000000000002</ele>
        <time>2026-07-11T15:10:32Z</time>
      </trkpt>
      <trkpt lat="51.18501297198236" lon="-1.858821976929903">
        <ele>95.310000000000002</ele>
        <time>2026-07-11T15:10:33Z</time>
      </trkpt>
      <trkpt lat="51.184979025274515" lon="-1.858999002724886">
        <ele>95.790000000000006</ele>
        <time>2026-07-11T15:10:34Z</time>
      </trkpt>
      <trkpt lat="51.184930996969342" lon="-1.859014006331563">
        <ele>96.269999999999996</ele>
        <time>2026-07-11T15:10:35Z</time>
      </trkpt>
      <trkpt lat="51.184875005856156" lon="-1.859030015766621">
        <ele>96.269999999999996</ele>
        <time>2026-07-11T15:10:36Z</time>
      </trkpt>
      <trkpt lat="51.184809962287545" lon="-1.859049964696169">
        <ele>96.269999999999996</ele>
        <time>2026-07-11T15:10:37Z</time>
      </trkpt>
      <trkpt lat="51.18477500975132" lon="-1.859095981344581">
        <ele>96.75</ele>
        <time>2026-07-11T15:10:38Z</time>
      </trkpt>
      <trkpt lat="51.184738967567682" lon="-1.859178962185979">
        <ele>96.75</ele>
        <time>2026-07-11T15:10:39Z</time>
      </trkpt>
      <trkpt lat="51.184723963961005" lon="-1.859277030453086">
        <ele>96.75</ele>
        <time>2026-07-11T15:10:40Z</time>
      </trkpt>
      <trkpt lat="51.184708960354328" lon="-1.859379038214684">
        <ele>97.230000000000004</ele>
        <time>2026-07-11T15:10:41Z</time>
      </trkpt>
      <trkpt lat="51.184693034738302" lon="-1.859486997127533">
        <ele>97.230000000000004</ele>
        <time>2026-07-11T15:10:42Z</time>
      </trkpt>
      <trkpt lat="51.184656992554665" lon="-1.859722025692463">
        <ele>97.709999999999994</ele>
        <time>2026-07-11T15:10:44Z</time>
      </trkpt>
      <trkpt lat="51.184622962027788" lon="-1.85982596129179">
        <ele>98.189999999999998</ele>
        <time>2026-07-11T15:10:45Z</time>
      </trkpt>
      <trkpt lat="51.184570994228125" lon="-1.859927969053388">
        <ele>98.189999999999998</ele>
        <time>2026-07-11T15:10:46Z</time>
      </trkpt>
      <trkpt lat="51.184507040306926" lon="-1.859979014843702">
        <ele>98.189999999999998</ele>
        <time>2026-07-11T15:10:47Z</time>
      </trkpt>
      <trkpt lat="51.18443101644516" lon="-1.860010027885437">
        <ele>98.670000000000002</ele>
        <time>2026-07-11T15:10:48Z</time>
      </trkpt>
      <trkpt lat="51.184337977319956" lon="-1.860037017613649">
        <ele>98.189999999999998</ele>
        <time>2026-07-11T15:10:49Z</time>
      </trkpt>
      <trkpt lat="51.184262037277222" lon="-1.859998963773251">
        <ele>98.670000000000002</ele>
        <time>2026-07-11T15:10:50Z</time>
      </trkpt>
      <trkpt lat="51.184182995930314" lon="-1.859959987923503">
        <ele>98.189999999999998</ele>
        <time>2026-07-11T15:10:51Z</time>
      </trkpt>
      <trkpt lat="51.184105966240168" lon="-1.859921012073755">
        <ele>98.189999999999998</ele>
        <time>2026-07-11T15:10:52Z</time>
      </trkpt>
      <trkpt lat="51.183868004009128" lon="-1.859801989048719">
        <ele>97.230000000000004</ele>
        <time>2026-07-11T15:10:55Z</time>
      </trkpt>
      <trkpt lat="51.18378602899611" lon="-1.859824033454061">
        <ele>96.75</ele>
        <time>2026-07-11T15:10:56Z</time>
      </trkpt>
      <trkpt lat="51.183704975992441" lon="-1.859848005697131">
        <ele>97.230000000000004</ele>
        <time>2026-07-11T15:10:57Z</time>
      </trkpt>
      <trkpt lat="51.183626018464565" lon="-1.859870972111821">
        <ele>97.230000000000004</ele>
        <time>2026-07-11T15:10:58Z</time>
      </trkpt>
      <trkpt lat="51.183543037623167" lon="-1.859895028173924">
        <ele>97.709999999999994</ele>
        <time>2026-07-11T15:10:59Z</time>
      </trkpt>
      <trkpt lat="51.183285964652896" lon="-1.859939033165574">
        <ele>99.150000000000006</ele>
        <time>2026-07-11T15:11:02Z</time>
      </trkpt>
      <trkpt lat="51.18322997353971" lon="-1.859928974881768">
        <ele>100.11</ele>
        <time>2026-07-11T15:11:03Z</time>
      </trkpt>
      <trkpt lat="51.183114973828197" lon="-1.859908020123839">
        <ele>100.11</ele>
        <time>2026-07-11T15:11:04Z</time>
      </trkpt>
      <trkpt lat="51.183114973828197" lon="-1.859908020123839">
        <ele>100.59999999999999</ele>
        <time>2026-07-11T15:11:05Z</time>
      </trkpt>
      <trkpt lat="51.183141963556409" lon="-1.859755972400308">
        <ele>100.59999999999999</ele>
        <time>2026-07-11T15:11:06Z</time>
      </trkpt>
      <trkpt lat="51.183155039325356" lon="-1.859678020700812">
        <ele>101.08</ele>
        <time>2026-07-11T15:11:07Z</time>
      </trkpt>
      <trkpt lat="51.183171970769763" lon="-1.859584981575608">
        <ele>101.08</ele>
        <time>2026-07-11T15:11:08Z</time>
      </trkpt>
      <trkpt lat="51.183189991861582" lon="-1.859480040147901">
        <ele>101.08</ele>
        <time>2026-07-11T15:11:09Z</time>
      </trkpt>
      <trkpt lat="51.183211030438542" lon="-1.859364034608007">
        <ele>101.08</ele>
        <time>2026-07-11T15:11:10Z</time>
      </trkpt>
      <trkpt lat="51.183501966297626" lon="-1.858454011380673">
        <ele>101.08</ele>
        <time>2026-07-11T15:11:19Z</time>
      </trkpt>
      <trkpt lat="51.183531973510981" lon="-1.858311016112566">
        <ele>101.08</ele>
        <time>2026-07-11T15:11:21Z</time>
      </trkpt>
      <trkpt lat="51.183548988774419" lon="-1.858244966715574">
        <ele>100.59999999999999</ele>
        <time>2026-07-11T15:11:22Z</time>
      </trkpt>
      <trkpt lat="51.183650996536016" lon="-1.857978003099561">
        <ele>100.59999999999999</ele>
        <time>2026-07-11T15:11:27Z</time>
      </trkpt>
      <trkpt lat="51.183650996536016" lon="-1.85793399810791">
        <ele>100.59999999999999</ele>
        <time>2026-07-11T15:11:28Z</time>
      </trkpt>
      <trkpt lat="51.183615960180759" lon="-1.85788999311626">
        <ele>100.59999999999999</ele>
        <time>2026-07-11T15:11:29Z</time>
      </trkpt>
      <trkpt lat="51.18359399959445" lon="-1.857863003388047">
        <ele>100.11</ele>
        <time>2026-07-11T15:11:30Z</time>
      </trkpt>
      <trkpt lat="51.183575978502631" lon="-1.857840036973357">
        <ele>100.11</ele>
        <time>2026-07-11T15:11:31Z</time>
      </trkpt>
      <trkpt lat="51.183564998209476" lon="-1.85782696120441">
        <ele>99.629999999999995</ele>
        <time>2026-07-11T15:11:32Z</time>
      </trkpt>
      <trkpt lat="51.183564998209476" lon="-1.85782696120441">
        <ele>99.150000000000006</ele>
        <time>2026-07-11T15:11:33Z</time>
      </trkpt>
      <trkpt lat="51.183564998209476" lon="-1.85782696120441">
        <ele>99.150000000000006</ele>
        <time>2026-07-11T15:11:34Z</time>
      </trkpt>
      <trkpt lat="51.183564998209476" lon="-1.85782696120441">
        <ele>99.150000000000006</ele>
        <time>2026-07-11T15:11:49Z</time>
      </trkpt>
      <trkpt lat="51.183556029573083" lon="-1.857758983969688">
        <ele>103.95999999999999</ele>
        <time>2026-07-11T15:40:15Z</time>
      </trkpt>
      <trkpt lat="51.183558963239193" lon="-1.857714978978038">
        <ele>99.629999999999995</ele>
        <time>2026-07-11T15:41:10Z</time>
      </trkpt>
      <trkpt lat="51.18355100043118" lon="-1.857720008119941">
        <ele>100.11</ele>
        <time>2026-07-11T15:42:08Z</time>
      </trkpt>
      <trkpt lat="51.183560974895954" lon="-1.857828972861171">
        <ele>100.11</ele>
        <time>2026-07-11T15:42:30Z</time>
      </trkpt>
      <trkpt lat="51.183535996824503" lon="-1.857845988124609">
        <ele>100.11</ele>
        <time>2026-07-11T15:42:31Z</time>
      </trkpt>
      <trkpt lat="51.183500960469246" lon="-1.85786996036768">
        <ele>100.11</ele>
        <time>2026-07-11T15:42:32Z</time>
      </trkpt>
      <trkpt lat="51.183488974347711" lon="-1.857897033914924">
        <ele>100.11</ele>
        <time>2026-07-11T15:42:33Z</time>
      </trkpt>
      <trkpt lat="51.183457039296627" lon="-1.857967022806406">
        <ele>100.11</ele>
        <time>2026-07-11T15:42:34Z</time>
      </trkpt>
      <trkpt lat="51.183425020426512" lon="-1.858041035011411">
        <ele>100.11</ele>
        <time>2026-07-11T15:42:35Z</time>
      </trkpt>
      <trkpt lat="51.183473970741034" lon="-1.858585020527244">
        <ele>101.08</ele>
        <time>2026-07-11T15:42:40Z</time>
      </trkpt>
      <trkpt lat="51.183424014598131" lon="-1.858745031058788">
        <ele>101.56</ele>
        <time>2026-07-11T15:42:41Z</time>
      </trkpt>
      <trkpt lat="51.183386966586113" lon="-1.858833963051438">
        <ele>101.56</ele>
        <time>2026-07-11T15:42:42Z</time>
      </trkpt>
      <trkpt lat="51.183347990736365" lon="-1.858927002176642">
        <ele>101.56</ele>
        <time>2026-07-11T15:42:43Z</time>
      </trkpt>
      <trkpt lat="51.183308009058237" lon="-1.859023980796337">
        <ele>101.56</ele>
        <time>2026-07-11T15:42:44Z</time>
      </trkpt>
      <trkpt lat="51.183242965489626" lon="-1.859178962185979">
        <ele>102.04000000000001</ele>
        <time>2026-07-11T15:42:46Z</time>
      </trkpt>
      <trkpt lat="51.183153027668595" lon="-1.859692018479109">
        <ele>102.52</ele>
        <time>2026-07-11T15:42:51Z</time>
      </trkpt>
      <trkpt lat="51.183137018233538" lon="-1.859779022634029">
        <ele>102.52</ele>
        <time>2026-07-11T15:42:52Z</time>
      </trkpt>
      <trkpt lat="51.183124026283622" lon="-1.859853034839034">
        <ele>102.52</ele>
        <time>2026-07-11T15:42:53Z</time>
      </trkpt>
      <trkpt lat="51.183114973828197" lon="-1.859908020123839">
        <ele>102.52</ele>
        <time>2026-07-11T15:42:54Z</time>
      </trkpt>
      <trkpt lat="51.183184962719679" lon="-1.859921012073755">
        <ele>102.52</ele>
        <time>2026-07-11T15:42:55Z</time>
      </trkpt>
      <trkpt lat="51.183257969096303" lon="-1.859934004023671">
        <ele>102.52</ele>
        <time>2026-07-11T15:42:56Z</time>
      </trkpt>
      <trkpt lat="51.183339022099972" lon="-1.859949007630348">
        <ele>102.52</ele>
        <time>2026-07-11T15:42:57Z</time>
      </trkpt>
      <trkpt lat="51.183428037911654" lon="-1.859928974881768">
        <ele>102.04000000000001</ele>
        <time>2026-07-11T15:42:58Z</time>
      </trkpt>
      <trkpt lat="51.183529961854219" lon="-1.859898967668414">
        <ele>101.08</ele>
        <time>2026-07-11T15:42:59Z</time>
      </trkpt>
      <trkpt lat="51.183865992352366" lon="-1.859800983220339">
        <ele>99.150000000000006</ele>
        <time>2026-07-11T15:43:02Z</time>
      </trkpt>
      <trkpt lat="51.183989960700274" lon="-1.859863009303808">
        <ele>98.189999999999998</ele>
        <time>2026-07-11T15:43:03Z</time>
      </trkpt>
      <trkpt lat="51.184096997603774" lon="-1.859916988760233">
        <ele>97.709999999999994</ele>
        <time>2026-07-11T15:43:04Z</time>
      </trkpt>
      <trkpt lat="51.184205040335655" lon="-1.859969962388277">
        <ele>97.709999999999994</ele>
        <time>2026-07-11T15:43:05Z</time>
      </trkpt>
      <trkpt lat="51.184307970106602" lon="-1.860022014006972">
        <ele>98.189999999999998</ele>
        <time>2026-07-11T15:43:06Z</time>
      </trkpt>
      <trkpt lat="51.184407966211438" lon="-1.860016984865069">
        <ele>98.670000000000002</ele>
        <time>2026-07-11T15:43:07Z</time>
      </trkpt>
      <trkpt lat="51.184488013386726" lon="-1.859994018450379">
        <ele>99.150000000000006</ele>
        <time>2026-07-11T15:43:08Z</time>
      </trkpt>
      <trkpt lat="51.184579040855169" lon="-1.859922017902136">
        <ele>99.629999999999995</ele>
        <time>2026-07-11T15:43:09Z</time>
      </trkpt>
      <trkpt lat="51.184594966471195" lon="-1.859908020123839">
        <ele>100.11</ele>
        <time>2026-07-11T15:43:10Z</time>
      </trkpt>
      <trkpt lat="51.184654980897903" lon="-1.859727976843715">
        <ele>100.11</ele>
        <time>2026-07-11T15:43:11Z</time>
      </trkpt>
      <trkpt lat="51.184674007818103" lon="-1.859619012102485">
        <ele>100.59999999999999</ele>
        <time>2026-07-11T15:43:12Z</time>
      </trkpt>
      <trkpt lat="51.184695968404412" lon="-1.859471993520856">
        <ele>100.59999999999999</ele>
        <time>2026-07-11T15:43:13Z</time>
      </trkpt>
      <trkpt lat="51.184716001152992" lon="-1.859332015737891">
        <ele>100.59999999999999</ele>
        <time>2026-07-11T15:43:14Z</time>
      </trkpt>
      <trkpt lat="51.184736033901572" lon="-1.85920100659132">
        <ele>100.11</ele>
        <time>2026-07-11T15:43:15Z</time>
      </trkpt>
      <trkpt lat="51.184808034449816" lon="-1.859052982181311">
        <ele>100.59999999999999</ele>
        <time>2026-07-11T15:43:16Z</time>
      </trkpt>
      <trkpt lat="51.184809962287545" lon="-1.859049964696169">
        <ele>100.59999999999999</ele>
        <time>2026-07-11T15:43:17Z</time>
      </trkpt>
      <trkpt lat="51.184913981705904" lon="-1.859019035473466">
        <ele>100.59999999999999</ele>
        <time>2026-07-11T15:43:18Z</time>
      </trkpt>
      <trkpt lat="51.184950023889542" lon="-1.85900797136128">
        <ele>101.08</ele>
        <time>2026-07-11T15:43:19Z</time>
      </trkpt>
      <trkpt lat="51.184979025274515" lon="-1.858999002724886">
        <ele>101.08</ele>
        <time>2026-07-11T15:43:20Z</time>
      </trkpt>
      <trkpt lat="51.185027975589037" lon="-1.859016017988324">
        <ele>101.08</ele>
        <time>2026-07-11T15:43:21Z</time>
      </trkpt>
      <trkpt lat="51.185035016387701" lon="-1.859073014929891">
        <ele>101.08</ele>
        <time>2026-07-11T15:43:22Z</time>
      </trkpt>
      <trkpt lat="51.185044990852475" lon="-1.859159013256431">
        <ele>101.56</ele>
        <time>2026-07-11T15:43:23Z</time>
      </trkpt>
      <trkpt lat="51.185057982802391" lon="-1.8592659663409">
        <ele>101.56</ele>
        <time>2026-07-11T15:43:24Z</time>
      </trkpt>
      <trkpt lat="51.185072986409068" lon="-1.859385995194316">
        <ele>102.04000000000001</ele>
        <time>2026-07-11T15:43:25Z</time>
      </trkpt>
      <trkpt lat="51.185086984187365" lon="-1.859504012390971">
        <ele>102.04000000000001</ele>
        <time>2026-07-11T15:43:26Z</time>
      </trkpt>
      <trkpt lat="51.185025963932276" lon="-1.860071970149875">
        <ele>103</ele>
        <time>2026-07-11T15:43:31Z</time>
      </trkpt>
      <trkpt lat="51.185002997517586" lon="-1.860175989568234">
        <ele>103</ele>
        <time>2026-07-11T15:43:32Z</time>
      </trkpt>
      <trkpt lat="51.184965027496219" lon="-1.860281014814973">
        <ele>103</ele>
        <time>2026-07-11T15:43:33Z</time>
      </trkpt>
      <trkpt lat="51.184882968664169" lon="-1.860315967351198">
        <ele>103</ele>
        <time>2026-07-11T15:43:34Z</time>
      </trkpt>
      <trkpt lat="51.184794036671519" lon="-1.860351003706455">
        <ele>103</ele>
        <time>2026-07-11T15:43:35Z</time>
      </trkpt>
      <trkpt lat="51.184695968404412" lon="-1.860387967899442">
        <ele>102.52</ele>
        <time>2026-07-11T15:43:36Z</time>
      </trkpt>
      <trkpt lat="51.184591026976705" lon="-1.860429961234331">
        <ele>102.04000000000001</ele>
        <time>2026-07-11T15:43:37Z</time>
      </trkpt>
      <trkpt lat="51.183462990447879" lon="-1.860351003706455">
        <ele>96.75</ele>
        <time>2026-07-11T15:43:45Z</time>
      </trkpt>
      <trkpt lat="51.18170203641057" lon="-1.860117986798286">
        <ele>102.52</ele>
        <time>2026-07-11T15:43:56Z</time>
      </trkpt>
      <trkpt lat="51.179087972268462" lon="-1.859771981835365">
        <ele>105.88</ele>
        <time>2026-07-11T15:44:09Z</time>
      </trkpt>
      <trkpt lat="51.175707969814539" lon="-1.859324974939227">
        <ele>108.29000000000001</ele>
        <time>2026-07-11T15:44:24Z</time>
      </trkpt>
      <trkpt lat="51.17334402166307" lon="-1.859053988009691">
        <ele>113.09</ele>
        <time>2026-07-11T15:44:36Z</time>
      </trkpt>
      <trkpt lat="51.172299971804023" lon="-1.85902800410986">
        <ele>113.56999999999999</ele>
        <time>2026-07-11T15:44:44Z</time>
      </trkpt>
      <trkpt lat="51.172244986519217" lon="-1.858993973582983">
        <ele>113.56999999999999</ele>
        <time>2026-07-11T15:44:45Z</time>
      </trkpt>
      <trkpt lat="51.172127975150943" lon="-1.858920967206359">
        <ele>113.56999999999999</ele>
        <time>2026-07-11T15:44:46Z</time>
      </trkpt>
      <trkpt lat="51.172125041484833" lon="-1.858914010226727">
        <ele>113.56999999999999</ele>
        <time>2026-07-11T15:44:47Z</time>
      </trkpt>
      <trkpt lat="51.172068966552615" lon="-1.858740001916885">
        <ele>113.09</ele>
        <time>2026-07-11T15:44:48Z</time>
      </trkpt>
      <trkpt lat="51.172081958502531" lon="-1.858608992770314">
        <ele>113.09</ele>
        <time>2026-07-11T15:44:49Z</time>
      </trkpt>
      <trkpt lat="51.172096040099859" lon="-1.858467003330588">
        <ele>113.09</ele>
        <time>2026-07-11T15:44:50Z</time>
      </trkpt>
      <trkpt lat="51.172115989029408" lon="-1.858307998627424">
        <ele>112.61</ele>
        <time>2026-07-11T15:44:51Z</time>
      </trkpt>
      <trkpt lat="51.172144990414381" lon="-1.858136001974344">
        <ele>112.61</ele>
        <time>2026-07-11T15:44:52Z</time>
      </trkpt>
      <trkpt lat="51.172439027577639" lon="-1.856168014928699">
        <ele>111.17</ele>
        <time>2026-07-11T15:45:01Z</time>
      </trkpt>
      <trkpt lat="51.172884022817016" lon="-1.853098981082439">
        <ele>105.88</ele>
        <time>2026-07-11T15:45:14Z</time>
      </trkpt>
      <trkpt lat="51.173265986144543" lon="-1.850454993546009">
        <ele>102.52</ele>
        <time>2026-07-11T15:45:25Z</time>
      </trkpt>
      <trkpt lat="51.173735959455371" lon="-1.847204994410276">
        <ele>101.08</ele>
        <time>2026-07-11T15:45:37Z</time>
      </trkpt>
      <trkpt lat="51.174299977719784" lon="-1.843309001997113">
        <ele>105.40000000000001</ele>
        <time>2026-07-11T15:45:50Z</time>
      </trkpt>
      <trkpt lat="51.174830971285701" lon="-1.839634040370584">
        <ele>107.31999999999999</ele>
        <time>2026-07-11T15:46:03Z</time>
      </trkpt>
      <trkpt lat="51.175332041457295" lon="-1.836173990741372">
        <ele>111.17</ele>
        <time>2026-07-11T15:46:15Z</time>
      </trkpt>
      <trkpt lat="51.175934029743075" lon="-1.832002988085151">
        <ele>107.31999999999999</ele>
        <time>2026-07-11T15:46:31Z</time>
      </trkpt>
      <trkpt lat="51.176579017192125" lon="-1.827551024034619">
        <ele>101.56</ele>
        <time>2026-07-11T15:46:48Z</time>
      </trkpt>
      <trkpt lat="51.176981013268232" lon="-1.824777033179998">
        <ele>97.709999999999994</ele>
        <time>2026-07-11T15:47:01Z</time>
      </trkpt>
      <trkpt lat="51.177350990474224" lon="-1.82220596820116">
        <ele>94.349999999999994</ele>
        <time>2026-07-11T15:47:11Z</time>
      </trkpt>
      <trkpt lat="51.177643015980721" lon="-1.818791013211012">
        <ele>87.140000000000001</ele>
        <time>2026-07-11T15:47:22Z</time>
      </trkpt>
      <trkpt lat="51.177444029599428" lon="-1.815675962716341">
        <ele>98.670000000000002</ele>
        <time>2026-07-11T15:47:32Z</time>
      </trkpt>
      <trkpt lat="51.177259040996432" lon="-1.811965964734554">
        <ele>108.77</ele>
        <time>2026-07-11T15:47:44Z</time>
      </trkpt>
      <trkpt lat="51.177097018808126" lon="-1.808050023391843">
        <ele>112.61</ele>
        <time>2026-07-11T15:47:56Z</time>
      </trkpt>
      <trkpt lat="51.177094001322985" lon="-1.80402796715498">
        <ele>108.77</ele>
        <time>2026-07-11T15:48:09Z</time>
      </trkpt>
      <trkpt lat="51.177407987415791" lon="-1.800535982474685">
        <ele>100.11</ele>
        <time>2026-07-11T15:48:20Z</time>
      </trkpt>
      <trkpt lat="51.177931018173695" lon="-1.795661989599466">
        <ele>89.540000000000006</ele>
        <time>2026-07-11T15:48:34Z</time>
      </trkpt>
      <trkpt lat="51.178082982078195" lon="-1.792315011844039">
        <ele>83.290000000000006</ele>
        <time>2026-07-11T15:48:44Z</time>
      </trkpt>
      <trkpt lat="51.177835967391729" lon="-1.788654970005155">
        <ele>75.599999999999994</ele>
        <time>2026-07-11T15:48:55Z</time>
      </trkpt>
      <trkpt lat="51.177616026252508" lon="-1.786098992452025">
        <ele>72.719999999999999</ele>
        <time>2026-07-11T15:49:04Z</time>
      </trkpt>
      <trkpt lat="51.177507983520627" lon="-1.783150993287563">
        <ele>71.269999999999996</ele>
        <time>2026-07-11T15:49:15Z</time>
      </trkpt>
      <trkpt lat="51.177503038197756" lon="-1.782387988641858">
        <ele>71.760000000000005</ele>
        <time>2026-07-11T15:49:20Z</time>
      </trkpt>
      <trkpt lat="51.177537990733981" lon="-1.782181039452553">
        <ele>71.760000000000005</ele>
        <time>2026-07-11T15:49:27Z</time>
      </trkpt>
      <trkpt lat="51.177554000169039" lon="-1.782093029469252">
        <ele>71.760000000000005</ele>
        <time>2026-07-11T15:49:35Z</time>
      </trkpt>
      <trkpt lat="51.177573027089238" lon="-1.781980963423848">
        <ele>72.239999999999995</ele>
        <time>2026-07-11T15:49:36Z</time>
      </trkpt>
      <trkpt lat="51.177600016817451" lon="-1.781823970377445">
        <ele>72.239999999999995</ele>
        <time>2026-07-11T15:49:37Z</time>
      </trkpt>
      <trkpt lat="51.177665982395411" lon="-1.781731015071273">
        <ele>72.239999999999995</ele>
        <time>2026-07-11T15:49:38Z</time>
      </trkpt>
      <trkpt lat="51.177731025964022" lon="-1.781620960682631">
        <ele>72.239999999999995</ele>
        <time>2026-07-11T15:49:39Z</time>
      </trkpt>
      <trkpt lat="51.177787017077208" lon="-1.781492969021201">
        <ele>72.239999999999995</ele>
        <time>2026-07-11T15:49:40Z</time>
      </trkpt>
      <trkpt lat="51.177819035947323" lon="-1.781337987631559">
        <ele>72.719999999999999</ele>
        <time>2026-07-11T15:49:41Z</time>
      </trkpt>
      <trkpt lat="51.177823981270194" lon="-1.781174959614873">
        <ele>72.719999999999999</ele>
        <time>2026-07-11T15:49:42Z</time>
      </trkpt>
      <trkpt lat="51.177797997370362" lon="-1.78101503290236">
        <ele>73.200000000000003</ele>
        <time>2026-07-11T15:49:43Z</time>
      </trkpt>
      <trkpt lat="51.17777100764215" lon="-1.780856028199196">
        <ele>73.200000000000003</ele>
        <time>2026-07-11T15:49:44Z</time>
      </trkpt>
      <trkpt lat="51.177708981558681" lon="-1.780710015445948">
        <ele>73.680000000000007</ele>
        <time>2026-07-11T15:49:45Z</time>
      </trkpt>
      <trkpt lat="51.177618959918618" lon="-1.780578000470996">
        <ele>74.159999999999997</ele>
        <time>2026-07-11T15:49:46Z</time>
      </trkpt>
      <trkpt lat="51.177521981298923" lon="-1.780516980215907">
        <ele>74.159999999999997</ele>
        <time>2026-07-11T15:49:47Z</time>
      </trkpt>
      <trkpt lat="51.17744998075068" lon="-1.780471969395876">
        <ele>74.640000000000001</ele>
        <time>2026-07-11T15:49:48Z</time>
      </trkpt>
      <trkpt lat="51.177358031272888" lon="-1.780465012416244">
        <ele>74.640000000000001</ele>
        <time>2026-07-11T15:49:49Z</time>
      </trkpt>
      <trkpt lat="51.177284019067883" lon="-1.78045897744596">
        <ele>75.120000000000005</ele>
        <time>2026-07-11T15:49:55Z</time>
      </trkpt>
      <trkpt lat="51.177201960235834" lon="-1.780453026294708">
        <ele>75.599999999999994</ele>
        <time>2026-07-11T15:50:16Z</time>
      </trkpt>
      <trkpt lat="51.1771260201931" lon="-1.780488984659314">
        <ele>75.599999999999994</ele>
        <time>2026-07-11T15:50:17Z</time>
      </trkpt>
      <trkpt lat="51.177042033523321" lon="-1.780560985207558">
        <ele>75.599999999999994</ele>
        <time>2026-07-11T15:50:18Z</time>
      </trkpt>
      <trkpt lat="51.176956035196781" lon="-1.780670033767819">
        <ele>75.599999999999994</ele>
        <time>2026-07-11T15:50:19Z</time>
      </trkpt>
      <trkpt lat="51.176832988858223" lon="-1.780795007944107">
        <ele>75.599999999999994</ele>
        <time>2026-07-11T15:50:20Z</time>
      </trkpt>
      <trkpt lat="51.176709020510316" lon="-1.780896009877324">
        <ele>75.599999999999994</ele>
        <time>2026-07-11T15:50:21Z</time>
      </trkpt>
      <trkpt lat="51.176585974171758" lon="-1.780989971011877">
        <ele>75.599999999999994</ele>
        <time>2026-07-11T15:50:22Z</time>
      </trkpt>
      <trkpt lat="51.175849959254265" lon="-1.781486012041569">
        <ele>74.159999999999997</ele>
        <time>2026-07-11T15:50:28Z</time>
      </trkpt>
      <trkpt lat="51.175724985077977" lon="-1.781502021476626">
        <ele>74.640000000000001</ele>
        <time>2026-07-11T15:50:29Z</time>
      </trkpt>
      <trkpt lat="51.175609985366464" lon="-1.781502021476626">
        <ele>74.640000000000001</ele>
        <time>2026-07-11T15:50:30Z</time>
      </trkpt>
      <trkpt lat="51.175263980403543" lon="-1.781457010656595">
        <ele>76.079999999999998</ele>
        <time>2026-07-11T15:50:33Z</time>
      </trkpt>
      <trkpt lat="51.1750209890306" lon="-1.781300017610192">
        <ele>76.560000000000002</ele>
        <time>2026-07-11T15:50:35Z</time>
      </trkpt>
      <trkpt lat="51.174902971833944" lon="-1.781207984313369">
        <ele>76.560000000000002</ele>
        <time>2026-07-11T15:50:36Z</time>
      </trkpt>
      <trkpt lat="51.174255972728133" lon="-1.780442968010902">
        <ele>72.239999999999995</ele>
        <time>2026-07-11T15:50:44Z</time>
      </trkpt>
      <trkpt lat="51.174167040735483" lon="-1.780317993834615">
        <ele>71.760000000000005</ele>
        <time>2026-07-11T15:50:46Z</time>
      </trkpt>
      <trkpt lat="51.174136027693748" lon="-1.780273988842964">
        <ele>71.760000000000005</ele>
        <time>2026-07-11T15:50:47Z</time>
      </trkpt>
      <trkpt lat="51.174110965803266" lon="-1.780239036306739">
        <ele>71.760000000000005</ele>
        <time>2026-07-11T15:50:48Z</time>
      </trkpt>
      <trkpt lat="51.174092022702098" lon="-1.780211962759495">
        <ele>71.269999999999996</ele>
        <time>2026-07-11T15:50:57Z</time>
      </trkpt>
      <trkpt lat="51.173956990242004" lon="-1.780024040490389">
        <ele>71.760000000000005</ele>
        <time>2026-07-11T15:51:24Z</time>
      </trkpt>
      <trkpt lat="51.173315020278096" lon="-1.779221976175904">
        <ele>70.790000000000006</ele>
        <time>2026-07-11T15:51:36Z</time>
      </trkpt>
      <trkpt lat="51.173037998378277" lon="-1.778920982033014">
        <ele>71.269999999999996</ele>
        <time>2026-07-11T15:51:40Z</time>
      </trkpt>
      <trkpt lat="51.172944037243724" lon="-1.778819980099797">
        <ele>71.269999999999996</ele>
        <time>2026-07-11T15:51:41Z</time>
      </trkpt>
      <trkpt lat="51.172883016988635" lon="-1.778791984543204">
        <ele>71.269999999999996</ele>
        <time>2026-07-11T15:51:42Z</time>
      </trkpt>
      <trkpt lat="51.172794001176953" lon="-1.778752002865076">
        <ele>71.269999999999996</ele>
        <time>2026-07-11T15:51:43Z</time>
      </trkpt>
      <trkpt lat="51.172708002850413" lon="-1.778712021186948">
        <ele>71.269999999999996</ele>
        <time>2026-07-11T15:51:44Z</time>
      </trkpt>
      <trkpt lat="51.17261596955359" lon="-1.778701962903142">
        <ele>70.790000000000006</ele>
        <time>2026-07-11T15:51:45Z</time>
      </trkpt>
      <trkpt lat="51.172390999272466" lon="-1.77867497317493">
        <ele>70.790000000000006</ele>
        <time>2026-07-11T15:51:48Z</time>
      </trkpt>
      <trkpt lat="51.172198969870806" lon="-1.778678996488452">
        <ele>70.790000000000006</ele>
        <time>2026-07-11T15:51:51Z</time>
      </trkpt>
      <trkpt lat="51.171911973506212" lon="-1.778702968731523">
        <ele>70.310000000000002</ele>
        <time>2026-07-11T15:51:59Z</time>
      </trkpt>
      <trkpt lat="51.171849025413394" lon="-1.778710009530187">
        <ele>69.829999999999998</ele>
        <time>2026-07-11T15:52:01Z</time>
      </trkpt>
      <trkpt lat="51.171827986836433" lon="-1.778712021186948">
        <ele>69.829999999999998</ele>
        <time>2026-07-11T15:52:02Z</time>
      </trkpt>
      <trkpt lat="51.171741988509893" lon="-1.778669022023678">
        <ele>69.349999999999994</ele>
        <time>2026-07-11T15:52:03Z</time>
      </trkpt>
      <trkpt lat="51.171711981296539" lon="-1.778813023120165">
        <ele>69.349999999999994</ele>
        <time>2026-07-11T15:52:04Z</time>
      </trkpt>
      <trkpt lat="51.171665964648128" lon="-1.77886800840497">
        <ele>69.349999999999994</ele>
        <time>2026-07-11T15:52:05Z</time>
      </trkpt>
      <trkpt lat="51.171635035425425" lon="-1.778904972597957">
        <ele>69.349999999999994</ele>
        <time>2026-07-11T15:52:06Z</time>
      </trkpt>
      <trkpt lat="51.171612991020083" lon="-1.779056014493108">
        <ele>69.349999999999994</ele>
        <time>2026-07-11T15:52:09Z</time>
      </trkpt>
      <trkpt lat="51.171621959656477" lon="-1.779097001999617">
        <ele>69.349999999999994</ele>
        <time>2026-07-11T15:52:10Z</time>
      </trkpt>
      <trkpt lat="51.171663030982018" lon="-1.779278973117471">
        <ele>68.870000000000005</ele>
        <time>2026-07-11T15:52:12Z</time>
      </trkpt>
      <trkpt lat="51.171689014881849" lon="-1.779394978657365">
        <ele>68.870000000000005</ele>
        <time>2026-07-11T15:52:13Z</time>
      </trkpt>
      <trkpt lat="51.171711981296539" lon="-1.779520036652684">
        <ele>68.870000000000005</ele>
        <time>2026-07-11T15:52:14Z</time>
      </trkpt>
      <trkpt lat="51.171978022903204" lon="-1.780880000442267">
        <ele>73.200000000000003</ele>
        <time>2026-07-11T15:52:25Z</time>
      </trkpt>
      <trkpt lat="51.172136021777987" lon="-1.781353997066617">
        <ele>75.599999999999994</ele>
        <time>2026-07-11T15:52:30Z</time>
      </trkpt>
      <trkpt lat="51.172168040648103" lon="-1.781448964029551">
        <ele>76.560000000000002</ele>
        <time>2026-07-11T15:52:31Z</time>
      </trkpt>
      <trkpt lat="51.172251021489501" lon="-1.781764961779118">
        <ele>77.040000000000006</ele>
        <time>2026-07-11T15:52:35Z</time>
      </trkpt>
      <trkpt lat="51.172262001782656" lon="-1.781846014782786">
        <ele>77.040000000000006</ele>
        <time>2026-07-11T15:52:36Z</time>
      </trkpt>
      <trkpt lat="51.172279017046094" lon="-1.781974006444216">
        <ele>77.040000000000006</ele>
        <time>2026-07-11T15:52:37Z</time>
      </trkpt>
      <trkpt lat="51.172258984297514" lon="-1.782012982293963">
        <ele>77.519999999999996</ele>
        <time>2026-07-11T15:52:38Z</time>
      </trkpt>
      <trkpt lat="51.172222020104527" lon="-1.782086994498968">
        <ele>77.519999999999996</ele>
        <time>2026-07-11T15:52:39Z</time>
      </trkpt>
      <trkpt lat="51.172187989577651" lon="-1.782156983390451">
        <ele>77.519999999999996</ele>
        <time>2026-07-11T15:52:40Z</time>
      </trkpt>
      <trkpt lat="51.172137027606368" lon="-1.782279023900628">
        <ele>77.519999999999996</ele>
        <time>2026-07-11T15:52:42Z</time>
      </trkpt>
      <trkpt lat="51.172116994857788" lon="-1.782328980043531">
        <ele>78</ele>
        <time>2026-07-11T15:52:43Z</time>
      </trkpt>
      <trkpt lat="51.172038959339261" lon="-1.782514974474907">
        <ele>78.969999999999999</ele>
        <time>2026-07-11T15:52:50Z</time>
      </trkpt>
      <trkpt lat="51.172038959339261" lon="-1.782514974474907">
        <ele>78.969999999999999</ele>
        <time>2026-07-11T15:52:51Z</time>
      </trkpt>
      <trkpt lat="51.172038959339261" lon="-1.782514974474907">
        <ele>79.450000000000003</ele>
        <time>2026-07-11T15:53:08Z</time>
      </trkpt>
      <trkpt lat="51.172038959339261" lon="-1.782514974474907">
        <ele>79.450000000000003</ele>
        <time>2026-07-11T15:53:56Z</time>
      </trkpt>
      <trkpt lat="51.172038959339261" lon="-1.782514974474907">
        <ele>79.450000000000003</ele>
        <time>2026-07-11T15:54:34Z</time>
      </trkpt>
      <trkpt lat="51.172038959339261" lon="-1.782514974474907">
        <ele>79.450000000000003</ele>
        <time>2026-07-11T15:54:43Z</time>
      </trkpt>
      <trkpt lat="51.172030996531248" lon="-1.782364016398788">
        <ele>78.480000000000004</ele>
        <time>2026-07-11T15:54:56Z</time>
      </trkpt>
      <trkpt lat="51.172030996531248" lon="-1.782364016398788">
        <ele>78.480000000000004</ele>
        <time>2026-07-11T15:55:19Z</time>
      </trkpt>
      <trkpt lat="51.172030996531248" lon="-1.782365022227168">
        <ele>78</ele>
        <time>2026-07-11T15:55:48Z</time>
      </trkpt>
    </trkseg>
  </trk>

</gpx>